Ticket #4546: TestObject_Log_Samsung_I9505_Galaxy_S4_real_18-10-2016_11-00-12.txt

File TestObject_Log_Samsung_I9505_Galaxy_S4_real_18-10-2016_11-00-12.txt, 4.4 MB (added by scheer, 3 years ago)
Line 
12016-10-18 12:53:06.284 DEBUG:  SurfaceFlinger : FPS : 11.55
22016-10-18 12:53:06.284 WARN:   SurfaceFlinger : Fail to Open /sys/devices/platform/gpusysfs/fps
32016-10-18 12:53:06.314 DEBUG:  AndroidRuntime : >>>>>> AndroidRuntime START com.android.internal.os.RuntimeInit <<<<<<
42016-10-18 12:53:06.314 DEBUG:  AndroidRuntime : CheckJNI is OFF
52016-10-18 12:53:06.314 DEBUG:  AndroidRuntime : readGMSProperty: start
62016-10-18 12:53:06.314 DEBUG:  AndroidRuntime : readGMSProperty: already setted!!
72016-10-18 12:53:06.314 DEBUG:  AndroidRuntime : readGMSProperty: end
82016-10-18 12:53:06.314 DEBUG:  AndroidRuntime : addProductProperty: start
92016-10-18 12:53:06.475 ERROR:  AffinityControl : AffinityControl: registerfunction enter
102016-10-18 12:53:06.505 DEBUG:  AndroidRuntime : Calling main entry com.android.commands.pm.Pm
112016-10-18 12:53:06.505 INFO:   TOOLKIT SERVICE : Request body '{"id":"1476780777633","type":"GET_SCREEN_ORIENTATION"}'
122016-10-18 12:53:06.505 INFO:   DEVICE MANAGER : {"id":"1476780777633","type":"GET_SCREEN_ORIENTATION"}
132016-10-18 12:53:06.505 INFO:   TOOLKIT SERVICE : Responding to client with: '{"id":"1476780777633","orientation":"PORTRAIT"}'
142016-10-18 12:53:06.625 DEBUG:  AndroidRuntime : Shutting down VM
152016-10-18 12:53:06.675 DEBUG:  BatteryService : !@BatteryListener : batteryPropertiesChanged!
162016-10-18 12:53:06.685 DEBUG:  BatteryService : level:100, scale:100, status:5, health:2, present:true, voltage: 4305, temperature: 268, technology: Li-ion, AC powered:false, USB powered:true, Wireless powered:false, icon:17303687, invalid charger:0
172016-10-18 12:53:06.685 DEBUG:  BatteryService : online:6, current avg:1000, charge type:0, power sharing:false, high voltage charger:false, capacity:280000, current_now:1000
182016-10-18 12:53:06.685 DEBUG:  BatteryService : Sending ACTION_BATTERY_CHANGED.
192016-10-18 12:53:06.685 DEBUG:  KeyguardUpdateMonitor : received broadcast android.intent.action.BATTERY_CHANGED
202016-10-18 12:53:06.685 INFO:   MotionRecognitionService : Plugged
212016-10-18 12:53:06.685 INFO:   MotionRecognitionService : setPowerConnected  = true
222016-10-18 12:53:06.685 INFO:   BusinessExecutor : registered Task#16367 : PowerInfoEventSource$1
232016-10-18 12:53:06.685 INFO:   BusinessExecutor : Task#16367 : #run() called
242016-10-18 12:53:06.685 INFO:   BusinessExecutor : Task#16367 : #run() ended
252016-10-18 12:53:06.695 DEBUG:  STATUSBAR-PhoneStatusBar : mBrightnessEnablebySettings = true mBrightnessEnablebyBattery = true mBrightnessEnablebyDisableFlag = true mPmsBrightnessEnablebySettings = true
262016-10-18 12:53:06.695 DEBUG:  BatteryMeterView : ACTION_BATTERY_CHANGED : level:100 status:5 health:2
272016-10-18 12:53:06.695 DEBUG:  BatteryMeterView : ACTION_BATTERY_CHANGED : level:100 status:5 health:2
282016-10-18 12:53:06.695 DEBUG:  BatteryMeterView : ACTION_BATTERY_CHANGED : level:100 status:5 health:2
292016-10-18 12:53:06.695 DEBUG:  KeyguardUpdateMonitor : handleBatteryUpdate
302016-10-18 12:53:06.715 DEBUG:  SurfaceFlinger : FPS : 2.31
312016-10-18 12:53:06.715 WARN:   SurfaceFlinger : Fail to Open /sys/devices/platform/gpusysfs/fps
322016-10-18 12:53:06.995 INFO:   wpa_supplicant : nl80211: Received scan results (48 BSSes)
332016-10-18 12:53:06.995 DEBUG:  WifiP2pService : InactiveState{ what=147461 }
342016-10-18 12:53:06.995 DEBUG:  WifiP2pService : P2pEnabledState{ what=147461 }
352016-10-18 12:53:06.995 DEBUG:  WifiP2pService : DefaultState{ what=147461 }
362016-10-18 12:53:07.005 INFO:   TOOLKIT SERVICE : Request body '{"id":"1476780778133","type":"GET_SCREEN_ORIENTATION"}'
372016-10-18 12:53:07.005 INFO:   DEVICE MANAGER : {"id":"1476780778133","type":"GET_SCREEN_ORIENTATION"}
382016-10-18 12:53:07.015 INFO:   TOOLKIT SERVICE : Responding to client with: '{"id":"1476780778133","orientation":"PORTRAIT"}'
392016-10-18 12:53:07.175 ERROR:  SMD : smd Interface open failed errno is 2 -1
402016-10-18 12:53:07.265 DEBUG:  StatusBar.NetworkController : refreshViews connected={ wifi } level=0 combinedSignalIconId=0x7f020517/com.android.systemui:drawable/stat_sys_wifi_signal_4 mobileLabel= wifiLabel="TestObject Devices"xxxxXXXXxxxxXXXX emergencyOnly=false combinedLabel="TestObject Devices"xxxxXXXXxxxxXXXX mAirplaneMode=true mDataActivity=0 mPhoneSignalIconId=0x0/(null) mQSPhoneSignalIconId=0x0/(null) mDataDirectionIconId=0x0/(null) mDataSignalIconId=0x0/(null) mDataTypeIconId=0x0/(null) mQSDataTypeIconId=0x0/(null) mNoSimIconId=0x0/(null) mWifiIconId=0x7f020517/com.android.systemui:drawable/stat_sys_wifi_signal_4 mQSWifiIconId=0x7f020143/com.android.systemui:drawable/ic_qs_wifi_4 mWifiActivityIconId=0x7f0204ea/com.android.systemui:drawable/stat_sys_signal_no_inout mBluetoothTetherIconId=0x10808cc/android:drawable/stat_sys_tether_bluetooth
412016-10-18 12:53:07.265 DEBUG:  STATUSBAR-WifiQuickSettingButton : onWifiSignalChanged enabled=true enabledDesc:"TestObject Devices"
422016-10-18 12:53:07.265 DEBUG:  StatusBar.NetworkController : refreshSignalCluster - setNWBoosterIndicators(false)
432016-10-18 12:53:07.265 DEBUG:  StatusBar.NetworkController : applyOpen
442016-10-18 12:53:07.265 DEBUG:  StatusBar.NetworkController : refreshSignalCluster - setNWBoosterIndicators(false)
452016-10-18 12:53:07.265 DEBUG:  StatusBar.NetworkController : applyOpen
462016-10-18 12:53:07.265 DEBUG:  StatusBar.NetworkController : refreshSignalCluster - setNWBoosterIndicators(false)
472016-10-18 12:53:07.265 DEBUG:  StatusBar.NetworkController : applyOpen
482016-10-18 12:53:07.265 DEBUG:  StatusBar.NetworkController : refreshSignalCluster - setNWBoosterIndicators(false)
492016-10-18 12:53:07.265 DEBUG:  StatusBar.NetworkController : applyOpen
502016-10-18 12:53:07.305 DEBUG:  SurfaceFlinger : FPS : 1.72
512016-10-18 12:53:07.305 WARN:   SurfaceFlinger : Fail to Open /sys/devices/platform/gpusysfs/fps
522016-10-18 12:53:07.335 ERROR:  Diag_Lib : Diag_LSM_Init: Failed to open handle to diag driver, error = 2
532016-10-18 12:53:07.506 INFO:   TOOLKIT SERVICE : Request body '{"id":"1476780778633","type":"GET_SCREEN_ORIENTATION"}'
542016-10-18 12:53:07.506 INFO:   DEVICE MANAGER : {"id":"1476780778633","type":"GET_SCREEN_ORIENTATION"}
552016-10-18 12:53:07.516 INFO:   TOOLKIT SERVICE : Responding to client with: '{"id":"1476780778633","orientation":"PORTRAIT"}'
562016-10-18 12:53:07.836 INFO:   BatteryStatsDumper : Writing to database completed
572016-10-18 12:53:07.836 DEBUG:  PowerManagerService : [input device light] setInputDeviceLightOn is called : 1
582016-10-18 12:53:07.836 DEBUG:  PowerManagerService : [input device light] handleInputDeviceLightOn
592016-10-18 12:53:08.006 INFO:   TOOLKIT SERVICE : Request body '{"id":"1476780779133","type":"GET_SCREEN_ORIENTATION"}'
602016-10-18 12:53:08.016 INFO:   DEVICE MANAGER : {"id":"1476780779133","type":"GET_SCREEN_ORIENTATION"}
612016-10-18 12:53:08.016 INFO:   TOOLKIT SERVICE : Responding to client with: '{"id":"1476780779133","orientation":"PORTRAIT"}'
622016-10-18 12:53:08.176 ERROR:  SMD : smd Interface open failed errno is 2 -1
632016-10-18 12:53:08.276 DEBUG:  StatusBar.NetworkController : refreshViews connected={ wifi } level=0 combinedSignalIconId=0x7f020517/com.android.systemui:drawable/stat_sys_wifi_signal_4 mobileLabel= wifiLabel="TestObject Devices"xxxxXXXXxxxxXXXX emergencyOnly=false combinedLabel="TestObject Devices"xxxxXXXXxxxxXXXX mAirplaneMode=true mDataActivity=0 mPhoneSignalIconId=0x0/(null) mQSPhoneSignalIconId=0x0/(null) mDataDirectionIconId=0x0/(null) mDataSignalIconId=0x0/(null) mDataTypeIconId=0x0/(null) mQSDataTypeIconId=0x0/(null) mNoSimIconId=0x0/(null) mWifiIconId=0x7f020517/com.android.systemui:drawable/stat_sys_wifi_signal_4 mQSWifiIconId=0x7f020143/com.android.systemui:drawable/ic_qs_wifi_4 mWifiActivityIconId=0x7f0204e6/com.android.systemui:drawable/stat_sys_signal_in mBluetoothTetherIconId=0x10808cc/android:drawable/stat_sys_tether_bluetooth
642016-10-18 12:53:08.276 DEBUG:  STATUSBAR-WifiQuickSettingButton : onWifiSignalChanged enabled=true enabledDesc:"TestObject Devices"
652016-10-18 12:53:08.276 DEBUG:  StatusBar.NetworkController : refreshSignalCluster - setNWBoosterIndicators(false)
662016-10-18 12:53:08.276 DEBUG:  StatusBar.NetworkController : applyOpen
672016-10-18 12:53:08.296 DEBUG:  StatusBar.NetworkController : refreshSignalCluster - setNWBoosterIndicators(false)
682016-10-18 12:53:08.306 DEBUG:  StatusBar.NetworkController : applyOpen
692016-10-18 12:53:08.306 DEBUG:  StatusBar.NetworkController : refreshSignalCluster - setNWBoosterIndicators(false)
702016-10-18 12:53:08.306 DEBUG:  StatusBar.NetworkController : applyOpen
712016-10-18 12:53:08.306 DEBUG:  StatusBar.NetworkController : refreshSignalCluster - setNWBoosterIndicators(false)
722016-10-18 12:53:08.316 DEBUG:  StatusBar.NetworkController : applyOpen
732016-10-18 12:53:08.336 DEBUG:  SurfaceFlinger : FPS : 0.97
742016-10-18 12:53:08.336 WARN:   SurfaceFlinger : Fail to Open /sys/devices/platform/gpusysfs/fps
752016-10-18 12:53:08.507 INFO:   TOOLKIT SERVICE : Request body '{"id":"1476780779633","type":"GET_SCREEN_ORIENTATION"}'
762016-10-18 12:53:08.507 INFO:   DEVICE MANAGER : {"id":"1476780779633","type":"GET_SCREEN_ORIENTATION"}
772016-10-18 12:53:08.517 INFO:   TOOLKIT SERVICE : Responding to client with: '{"id":"1476780779633","orientation":"PORTRAIT"}'
782016-10-18 12:53:08.657 WARN:   ActivityManager : mDVFSHelper.release()
792016-10-18 12:53:09.017 INFO:   TOOLKIT SERVICE : Request body '{"id":"1476780780133","type":"GET_SCREEN_ORIENTATION"}'
802016-10-18 12:53:09.017 INFO:   DEVICE MANAGER : {"id":"1476780780133","type":"GET_SCREEN_ORIENTATION"}
812016-10-18 12:53:09.027 INFO:   TOOLKIT SERVICE : Responding to client with: '{"id":"1476780780133","orientation":"PORTRAIT"}'
822016-10-18 12:53:09.177 ERROR:  SMD : smd Interface open failed errno is 2 -1
832016-10-18 12:53:09.508 INFO:   TOOLKIT SERVICE : Request body '{"id":"1476780780633","type":"GET_SCREEN_ORIENTATION"}'
842016-10-18 12:53:09.508 INFO:   DEVICE MANAGER : {"id":"1476780780633","type":"GET_SCREEN_ORIENTATION"}
852016-10-18 12:53:09.508 INFO:   TOOLKIT SERVICE : Responding to client with: '{"id":"1476780780633","orientation":"PORTRAIT"}'
862016-10-18 12:53:09.668 DEBUG:  TaskPersister : removeObsoleteFile: deleting file=11689_task.xml
872016-10-18 12:53:09.678 DEBUG:  AndroidRuntime : >>>>>> AndroidRuntime START com.android.internal.os.RuntimeInit <<<<<<
882016-10-18 12:53:09.678 DEBUG:  AndroidRuntime : CheckJNI is OFF
892016-10-18 12:53:09.688 DEBUG:  AndroidRuntime : readGMSProperty: start
902016-10-18 12:53:09.688 DEBUG:  AndroidRuntime : readGMSProperty: already setted!!
912016-10-18 12:53:09.688 DEBUG:  AndroidRuntime : readGMSProperty: end
922016-10-18 12:53:09.688 DEBUG:  AndroidRuntime : addProductProperty: start
932016-10-18 12:53:09.848 ERROR:  AffinityControl : AffinityControl: registerfunction enter
942016-10-18 12:53:09.868 DEBUG:  AndroidRuntime : Calling main entry com.android.commands.pm.Pm
952016-10-18 12:53:09.878 DEBUG:  PackageManager : START_PACKAGE_INSTALL: observer{510486850}
962016-10-18 12:53:09.878 DEBUG:  PackageManager : originPath{/data/local/tmp/162495668de324a25888994dd4312ca2}
972016-10-18 12:53:09.878 DEBUG:  PackageManager : [MSG] INIT_COPY: observer{510486850}
982016-10-18 12:53:09.878 DEBUG:  PackageManager : idx{0}
992016-10-18 12:53:09.878 DEBUG:  PackageManager : for_user{UserHandle{-1}}
1002016-10-18 12:53:09.878 DEBUG:  ActivityManager : bindService callerProcessName:android, calleePkgName: com.android.defcontainer, action: null
1012016-10-18 12:53:09.898 DEBUG:  PackageManager : [MSG] MCS_BOUND: observer{510486850}
1022016-10-18 12:53:09.898 DEBUG:  PackageManager : for_user{UserHandle{-1}}
1032016-10-18 12:53:09.918 DEBUG:  PackageManager : [VERIFY] getRequiredVerifiersLPr: 2 verifiers
1042016-10-18 12:53:09.918 DEBUG:  PackageManager : [VERIFY]     com.android.vending(10018)
1052016-10-18 12:53:09.918 DEBUG:  PackageManager : [VERIFY]     com.samsung.android.sm(1000)
1062016-10-18 12:53:09.918 DEBUG:  PersonaManagerService : needVerificationForPackage
1072016-10-18 12:53:09.918 DEBUG:  PersonaManagerService : needVerificationForPackage org.adblockplus.adblockplussbrowser
1082016-10-18 12:53:09.918 DEBUG:  PersonaManagerService : needVerificationForPackage return true for  at the end org.adblockplus.adblockplussbrowser
1092016-10-18 12:53:09.928 DEBUG:  DefContainer : Copying /data/local/tmp/162495668de324a25888994dd4312ca2 to base.apk
1102016-10-18 12:53:09.958 INFO:   HarmonyEASService : Updating for all 1
1112016-10-18 12:53:09.958 DEBUG:  PackageManager : remove MCS_UNBIND message and Posting MCS_UNBIND 10 secs later
1122016-10-18 12:53:09.958 DEBUG:  PackageManager : [MSG] PROCESS_PENDING_INSTALL: observer{510486850}
1132016-10-18 12:53:09.958 DEBUG:  PackageManager : currentStatus{1}
1142016-10-18 12:53:09.958 DEBUG:  PackageManager : installPackageLI: path
1152016-10-18 12:53:10.008 INFO:   TOOLKIT SERVICE : Request body '{"id":"1476780781133","type":"GET_SCREEN_ORIENTATION"}'
1162016-10-18 12:53:10.008 INFO:   DEVICE MANAGER : {"id":"1476780781133","type":"GET_SCREEN_ORIENTATION"}
1172016-10-18 12:53:10.018 INFO:   TOOLKIT SERVICE : Responding to client with: '{"id":"1476780781133","orientation":"PORTRAIT"}'
1182016-10-18 12:53:10.168 WARN:   PackageManager : verifying app can be installed or not
1192016-10-18 12:53:10.168 DEBUG:  ApplicationPolicy : isApplicationInstallationEnabled
1202016-10-18 12:53:10.168 DEBUG:  ApplicationPolicy : isApplicationInstallationEnabled :  Checking PKG WL - false
1212016-10-18 12:53:10.168 DEBUG:  ApplicationPolicy : isApplicationInstallationEnabled :  Checking PKG BL - true
1222016-10-18 12:53:10.168 DEBUG:  ApplicationPolicy : isApplicationInstallationEnabled :  Checking PERM BL - true
1232016-10-18 12:53:10.168 DEBUG:  ApplicationPolicy : isApplicationInstallationEnabled :  Checking SIG BL - true
1242016-10-18 12:53:10.168 DEBUG:  ApplicationPolicy : isApplicationInstallationEnabled :  Checking PKG WL - false
1252016-10-18 12:53:10.168 DEBUG:  ApplicationPolicy : isApplicationInstallationEnabled :  Checking PKG BL - true
1262016-10-18 12:53:10.168 DEBUG:  ApplicationPolicy : isApplicationInstallationEnabled :  Checking PERM BL - true
1272016-10-18 12:53:10.168 DEBUG:  ApplicationPolicy : isApplicationInstallationEnabled :  Checking SIG BL - true
1282016-10-18 12:53:10.168 DEBUG:  ApplicationPolicy : isApplicationInstallationEnabled :  enabled true
1292016-10-18 12:53:10.168 INFO:   AASAInstall : ship mode
1302016-10-18 12:53:10.178 DEBUG:  PackageManager : Renaming /data/app/vmdl1493859683.tmp to /data/app/org.adblockplus.adblockplussbrowser-1
1312016-10-18 12:53:10.178 DEBUG:  PackageManager : installNewPackageLI: Package{ddeaad8 org.adblockplus.adblockplussbrowser}
1322016-10-18 12:53:10.178 ERROR:  SMD : smd Interface open failed errno is 2 -1
1332016-10-18 12:53:10.218 INFO:   PackageManager : scanFileNewer : org.adblockplus.adblockplussbrowser
1342016-10-18 12:53:10.218 INFO:   SELinux : Function: selinux_compare_spd_ram, SPD-policy is existed. and_ver=SEPF_GT-I9505_5.0.1-1 ver=51
1352016-10-18 12:53:10.228 INFO:   SELinux : Function: selinux_compare_spd_ram , priority [1] , priority version is VE=SEPF_GT-I9505_5.0.1-1_0051
1362016-10-18 12:53:10.228 ERROR:  SELinux : [DEBUG] get_category: variable seinfo: default sensitivity: NULL, cateogry: NULL
1372016-10-18 12:53:10.228 ERROR:  SELinux : [DEBUG] get_category: variable seinfo: app_data_file sensitivity: NULL, cateogry: NULL
1382016-10-18 12:53:10.238 INFO:   SELinux : Function: selinux_compare_spd_ram, SPD-policy is existed. and_ver=SEPF_GT-I9505_5.0.1-1 ver=51
1392016-10-18 12:53:10.238 INFO:   SELinux : Function: selinux_compare_spd_ram , priority [1] , priority version is VE=SEPF_GT-I9505_5.0.1-1_0051
1402016-10-18 12:53:10.238 ERROR:  SELinux : [DEBUG] get_category: variable seinfo: default sensitivity: NULL, cateogry: NULL
1412016-10-18 12:53:10.238 ERROR:  SELinux : [DEBUG] get_category: variable seinfo: app_data_file sensitivity: NULL, cateogry: NULL
1422016-10-18 12:53:10.248 DEBUG:  SurfaceFlinger : FPS : 0.52
1432016-10-18 12:53:10.248 WARN:   SurfaceFlinger : Fail to Open /sys/devices/platform/gpusysfs/fps
1442016-10-18 12:53:10.248 INFO:   art : DexFile_isDexOptNeeded failed to open oat file '/data/dalvik-cache/arm/data@app@org.adblockplus.adblockplussbrowser-1@base.apk@classes.dex' for file location '/data/app/org.adblockplus.adblockplussbrowser-1/base.apk': Failed to open oat filename for reading: No such file or directory
1452016-10-18 12:53:10.248 INFO:   art : DexFile_isDexOptNeeded failed to open oat file '/data/app/org.adblockplus.adblockplussbrowser-1/arm/base.odex' for file location '/data/app/org.adblockplus.adblockplussbrowser-1/base.apk': Failed to open oat filename for reading: No such file or directory
1462016-10-18 12:53:10.248 DEBUG:  PackageManager : Running dexopt on: /data/app/org.adblockplus.adblockplussbrowser-1/base.apk pkg=org.adblockplus.adblockplussbrowser isa=arm vmSafeMode=false interpret_only=false
1472016-10-18 12:53:10.318 INFO:   dex2oat : ----------------------------------------------------
1482016-10-18 12:53:10.318 INFO:   dex2oat : <SS>: S T A R T I N G . . .
1492016-10-18 12:53:10.318 INFO:   dex2oat : <SS>: going to process manifest...
1502016-10-18 12:53:10.318 INFO:    : SS_ART_lib [I]: Parsing Manifest for SS stuff
1512016-10-18 12:53:10.318 INFO:   dex2oat : /system/bin/dex2oat --zip-fd=11 --zip-location=/data/app/org.adblockplus.adblockplussbrowser-1/base.apk --oat-fd=12 --art-fd=-1 --oat-location=/data/dalvik-cache/arm/data@app@org.adblockplus.adblockplussbrowser-1@base.apk@classes.dex --instruction-set=arm --instruction-set-features=div --runtime-arg -Xms64m --runtime-arg -Xmx512m
1522016-10-18 12:53:10.509 INFO:   TOOLKIT SERVICE : Request body '{"id":"1476780781633","type":"GET_SCREEN_ORIENTATION"}'
1532016-10-18 12:53:10.509 INFO:   DEVICE MANAGER : {"id":"1476780781633","type":"GET_SCREEN_ORIENTATION"}
1542016-10-18 12:53:10.509 INFO:   TOOLKIT SERVICE : Responding to client with: '{"id":"1476780781633","orientation":"PORTRAIT"}'
1552016-10-18 12:53:10.999 INFO:   TOOLKIT SERVICE : Request body '{"id":"1476780782133","type":"GET_SCREEN_ORIENTATION"}'
1562016-10-18 12:53:10.999 INFO:   DEVICE MANAGER : {"id":"1476780782133","type":"GET_SCREEN_ORIENTATION"}
1572016-10-18 12:53:11.009 INFO:   TOOLKIT SERVICE : Responding to client with: '{"id":"1476780782133","orientation":"PORTRAIT"}'
1582016-10-18 12:53:11.069 ERROR:  Watchdog : !@Sync 16759
1592016-10-18 12:53:11.169 ERROR:  SMD : smd Interface open failed errno is 2 -1
1602016-10-18 12:53:11.500 INFO:   TOOLKIT SERVICE : Request body '{"id":"1476780782633","type":"GET_SCREEN_ORIENTATION"}'
1612016-10-18 12:53:11.500 INFO:   DEVICE MANAGER : {"id":"1476780782633","type":"GET_SCREEN_ORIENTATION"}
1622016-10-18 12:53:11.510 INFO:   TOOLKIT SERVICE : Responding to client with: '{"id":"1476780782633","orientation":"PORTRAIT"}'
1632016-10-18 12:53:11.550 INFO:   dex2oat : dex2oat took 1.242s (threads: 4)
1642016-10-18 12:53:11.570 INFO:   PackageManager : do mInstaller.dexopt : 0
1652016-10-18 12:53:11.570 DEBUG:  PackageManager : Time to dexopt: 1.323 seconds
1662016-10-18 12:53:11.590 WARN:   System.err : java.io.FileNotFoundException: /data/app/org.adblockplus.adblockplussbrowser-1: open failed: EISDIR (Is a directory)
1672016-10-18 12:53:11.590 WARN:   System.err : at libcore.io.IoBridge.open(IoBridge.java:456)
1682016-10-18 12:53:11.590 WARN:   System.err : at java.io.FileInputStream.<init>(FileInputStream.java:76)
1692016-10-18 12:53:11.590 WARN:   System.err : at android.content.pm.PackageParser.getHashValueOfPackage(PackageParser.java:5132)
1702016-10-18 12:53:11.590 WARN:   System.err : at com.android.server.pm.PackageManagerService.saveHash(PackageManagerService.java:18528)
1712016-10-18 12:53:11.590 WARN:   System.err : at com.android.server.pm.PackageManagerService.access$5200(PackageManagerService.java:334)
1722016-10-18 12:53:11.590 WARN:   System.err : at com.android.server.pm.PackageManagerService$19.run(PackageManagerService.java:18513)
1732016-10-18 12:53:11.590 WARN:   System.err : Caused by: android.system.ErrnoException: open failed: EISDIR (Is a directory)
1742016-10-18 12:53:11.600 WARN:   System.err : at libcore.io.IoBridge.open(IoBridge.java:446)
1752016-10-18 12:53:11.600 WARN:   System.err : ... 5 more
1762016-10-18 12:53:11.830 DEBUG:  PackageManager : New package installed
1772016-10-18 12:53:11.830 INFO:   HarmonyEASService : Updating for all 1
1782016-10-18 12:53:11.830 WARN:   PackageManager : Unknown permission com.samsung.android.sbrowser.permission.CONTENTBLOCKER in package org.adblockplus.adblockplussbrowser
1792016-10-18 12:53:12.000 INFO:   TOOLKIT SERVICE : Request body '{"id":"1476780783133","type":"GET_SCREEN_ORIENTATION"}'
1802016-10-18 12:53:12.000 INFO:   DEVICE MANAGER : {"id":"1476780783133","type":"GET_SCREEN_ORIENTATION"}
1812016-10-18 12:53:12.010 INFO:   TOOLKIT SERVICE : Responding to client with: '{"id":"1476780783133","orientation":"PORTRAIT"}'
1822016-10-18 12:53:12.130 DEBUG:  PackageManager : doPostInstall for uid{13655}
1832016-10-18 12:53:12.130 DEBUG:  PackageManager : token 173 to BM for possible restore
1842016-10-18 12:53:12.130 INFO:   PowerManagerService-JNI : >>>>>>>>in native...
1852016-10-18 12:53:12.130 DEBUG:  PackageManager : BM finishing package install for 173
1862016-10-18 12:53:12.130 DEBUG:  ResourcesManager : creating new AssetManager and set to /system/priv-app/SecMms_Candy/SecMms_Candy.apk
1872016-10-18 12:53:12.130 DEBUG:  ResourcesManager : creating new AssetManager and set to /data/app/com.google.android.talk-1/base.apk
1882016-10-18 12:53:12.140 WARN:   ResourcesManager : Asset path '/system/framework/com.google.android.media.effects.jar' does not exist or contains no resources.
1892016-10-18 12:53:12.150 DEBUG:  PackageManager : [MSG] POST_INSTALL: observer{510486850}
1902016-10-18 12:53:12.150 DEBUG:  PackageManager : Handling post-install for 173
1912016-10-18 12:53:12.150 WARN:   Settings : Setting install_non_market_apps has moved from android.provider.Settings.Global to android.provider.Settings.Secure, returning read-only value.
1922016-10-18 12:53:12.150 DEBUG:  ResourcesManager : creating new AssetManager and set to /data/app/com.google.android.gms-1/base.apk
1932016-10-18 12:53:12.150 DEBUG:  ResourcesManager : creating new AssetManager and set to /system/app/SamsungIME/SamsungIME.apk
1942016-10-18 12:53:12.150 DEBUG:  ResourcesManager : creating new AssetManager and set to /system/priv-app/InputDevices/InputDevices.apk
1952016-10-18 12:53:12.160 DEBUG:  ResourcesManager : creating new AssetManager and set to /system/priv-app/SNS/SNS.apk
1962016-10-18 12:53:12.160 WARN:   ApplicationPackageEventSource : Action for android.intent.action.PACKAGE_ADDED.
1972016-10-18 12:53:12.160 INFO:   BusinessExecutor : registered Task#16368 : PlatformEventSender$1
1982016-10-18 12:53:12.160 INFO:   BusinessExecutor : Task#16368 : #run() called
1992016-10-18 12:53:12.160 INFO:   BusinessExecutor : registered Task#16369 : AreAlienServicesInstalled$1
2002016-10-18 12:53:12.160 INFO:   BusinessExecutor : Task#16369 : #run() called
2012016-10-18 12:53:12.170 INFO:   BusinessExecutor : Task#16368 : #run() ended
2022016-10-18 12:53:12.170 ERROR:  SamsungIME : mOCRHelper is null
2032016-10-18 12:53:12.170 ERROR:  SMD : smd Interface open failed errno is 2 -1
2042016-10-18 12:53:12.180 DEBUG:  ResourcesManager : creating new AssetManager and set to /data/app/org.adblockplus.adblockplussbrowser-1/base.apk
2052016-10-18 12:53:12.180 DEBUG:  ResourcesManager : creating new AssetManager and set to /system/priv-app/Samsungservice2_xxhdpi/Samsungservice2_xxhdpi.apk
2062016-10-18 12:53:12.190 DEBUG:  ActivityManager : startService callerProcessName:com.vodafone.vodafone360updates, calleePkgName: com.vodafone.vodafone360updates
2072016-10-18 12:53:12.200 DEBUG:  RegisteredServicesCache : empty dynamic service
2082016-10-18 12:53:12.210 INFO:   Suman : BroadcastReceived
2092016-10-18 12:53:12.250 DEBUG:  WallpaperManager : SEC_PRODUCT_FEATURE_COMMON_SUPPORT_TEXTURE_COMPRESSION is true
2102016-10-18 12:53:12.260 DEBUG:  WallpaperManager : SEC_PRODUCT_FEATURE_COMMON_SUPPORT_TEXTURE_COMPRESSION is true
2112016-10-18 12:53:12.260 DEBUG:  WallpaperManager : SEC_PRODUCT_FEATURE_COMMON_SUPPORT_TEXTURE_COMPRESSION is true
2122016-10-18 12:53:12.260 DEBUG:  ResourcesManager : creating new AssetManager and set to /system/app/SecEmail_K/SecEmail_K.apk
2132016-10-18 12:53:12.260 DEBUG:  WallpaperManager : SEC_PRODUCT_FEATURE_COMMON_SUPPORT_TEXTURE_COMPRESSION is true
2142016-10-18 12:53:12.270 INFO:   InputReader : Reconfiguring input devices.  changes=0x00000010
2152016-10-18 12:53:12.280 DEBUG:  ResourcesManager : creating new AssetManager and set to /system/app/ChatON_MARKET/ChatON_MARKET.apk
2162016-10-18 12:53:12.290 DEBUG:  Documents : Update found 6 roots in 112ms
2172016-10-18 12:53:12.290 DEBUG:  ResourcesManager : creating new AssetManager and set to /data/app/com.tripadvisor.tripadvisor-2/base.apk
2182016-10-18 12:53:12.320 DEBUG:  ResourcesManager : creating new AssetManager and set to /data/app/com.google.android.googlequicksearchbox-1/base.apk
2192016-10-18 12:53:12.330 DEBUG:  ResourcesManager : creating new AssetManager and set to /data/app/com.dropbox.android-2/base.apk
2202016-10-18 12:53:12.360 DEBUG:  ResourcesManager : creating new AssetManager and set to /data/app/com.google.android.gm-2/base.apk
2212016-10-18 12:53:12.370 INFO:   art : Background sticky concurrent mark sweep GC freed 150227(10MB) AllocSpace objects, 109(2MB) LOS objects, 12% free, 54MB/62MB, paused 6.408ms total 248.992ms
2222016-10-18 12:53:12.370 INFO:   art : WaitForGcToComplete blocked for 219.543ms for cause Explicit
2232016-10-18 12:53:12.420 DEBUG:  RCPManagerService : PackageReceiver onReceive()
2242016-10-18 12:53:12.420 DEBUG:  RCPManagerService : App Installed with packageNAme = org.adblockplus.adblockplussbrowser
2252016-10-18 12:53:12.420 DEBUG:  RCPManagerService : PackageReceiver onReceive() bundle Bundle[{com.samsung.android.sbrowser.contentBlocker.interfaceVersion=API_1.0}]
2262016-10-18 12:53:12.420 DEBUG:  RCPManagerService : PackageReceiver onReceive() proxyName null proxyService null
2272016-10-18 12:53:12.430 DEBUG:  KnoxMUMContainerPolicy : mPackageReceiver : action - android.intent.action.PACKAGE_ADDED
2282016-10-18 12:53:12.430 DEBUG:  ResourcesManager : creating new AssetManager and set to /system/priv-app/sCloudSyncSBrowser/sCloudSyncSBrowser.apk
2292016-10-18 12:53:12.440 DEBUG:  ResourcesManager : creating new AssetManager and set to /system/priv-app/SNS/SNS.apk
2302016-10-18 12:53:12.470 DEBUG:  ResourcesManager : creating new AssetManager and set to /system/priv-app/SHealth3_5/SHealth3_5.apk
2312016-10-18 12:53:12.470 DEBUG:  ResourcesManager : creating new AssetManager and set to /system/priv-app/SecGallery2013/SecGallery2013.apk
2322016-10-18 12:53:12.490 DEBUG:  ResourcesManager : creating new AssetManager and set to /system/priv-app/sCloudSyncCalendar/sCloudSyncCalendar.apk
2332016-10-18 12:53:12.490 DEBUG:  ResourcesManager : creating new AssetManager and set to /system/priv-app/sCloudSyncContacts/sCloudSyncContacts.apk
2342016-10-18 12:53:12.490 DEBUG:  ResourcesManager : creating new AssetManager and set to /system/priv-app/sCloudSyncSNote/sCloudSyncSNote.apk
2352016-10-18 12:53:12.490 DEBUG:  ResourcesManager : creating new AssetManager and set to /system/priv-app/sCloudSyncSNote3/sCloudSyncSNote3.apk
2362016-10-18 12:53:12.490 DEBUG:  ResourcesManager : creating new AssetManager and set to /system/app/Newsstand/Newsstand.apk
2372016-10-18 12:53:12.500 DEBUG:  ResourcesManager : creating new AssetManager and set to /system/app/GoogleCalendarSyncAdapter/GoogleCalendarSyncAdapter.apk
2382016-10-18 12:53:12.500 DEBUG:  SecContentProvider2 : uri = 11 selection = getMyKnoxAdmin
2392016-10-18 12:53:12.500 DEBUG:  SecContentProvider2 : mCursor = null
2402016-10-18 12:53:12.500 INFO:   TOOLKIT SERVICE : Request body '{"id":"1476780783633","type":"GET_SCREEN_ORIENTATION"}'
2412016-10-18 12:53:12.500 INFO:   DEVICE MANAGER : {"id":"1476780783633","type":"GET_SCREEN_ORIENTATION"}
2422016-10-18 12:53:12.500 INFO:   TOOLKIT SERVICE : Responding to client with: '{"id":"1476780783633","orientation":"PORTRAIT"}'
2432016-10-18 12:53:12.521 DEBUG:  ResourcesManager : creating new AssetManager and set to /system/app/SecExchange/SecExchange.apk
2442016-10-18 12:53:12.541 DEBUG:  ResourcesManager : creating new AssetManager and set to /system/app/GoogleContactsSyncAdapter/GoogleContactsSyncAdapter.apk
2452016-10-18 12:53:12.541 DEBUG:  ResourcesManager : creating new AssetManager and set to /data/app/com.google.android.apps.plus-2/base.apk
2462016-10-18 12:53:12.551 DEBUG:  ResourcesManager : creating new AssetManager and set to /data/app/com.google.android.apps.docs-1/base.apk
2472016-10-18 12:53:12.561 WARN:   InputMethodInfo : Duplicated subtype definition found: , voice
2482016-10-18 12:53:12.561 DEBUG:  ResourcesManager : creating new AssetManager and set to /data/app/com.android.chrome-1/base.apk
2492016-10-18 12:53:12.561 DEBUG:  ResourcesManager : creating new AssetManager and set to /data/app/com.vmlite.vncserver-1/base.apk
2502016-10-18 12:53:12.571 DEBUG:  ResourcesManager : creating new AssetManager and set to /data/app/com.google.android.music-2/base.apk
2512016-10-18 12:53:12.581 DEBUG:  ResourcesManager : creating new AssetManager and set to /data/app/com.google.android.gms-1/base.apk
2522016-10-18 12:53:12.581 DEBUG:  ResourcesManager : creating new AssetManager and set to /data/app/com.google.android.marvin.talkback-1/base.apk
2532016-10-18 12:53:12.601 DEBUG:  EnterpriseDeviceManagerService : Package has changed for user 0
2542016-10-18 12:53:12.601 DEBUG:  EnterpriseDeviceManagerService : Admin package name: com.google.android.gms
2552016-10-18 12:53:12.601 INFO:   HomeSyncInstallReceiver : This pkg do not need BT addr. Do nothing
2562016-10-18 12:53:12.601 DEBUG:  ResourcesManager : creating new AssetManager and set to /data/app/com.google.android.videos-2/base.apk
2572016-10-18 12:53:12.611 WARN:   ResourcesManager : Asset path '/system/framework/com.google.widevine.software.drm.jar' does not exist or contains no resources.
2582016-10-18 12:53:12.611 DEBUG:  ResourcesManager : creating new AssetManager and set to /system/priv-app/SMemo2/SMemo2.apk
2592016-10-18 12:53:12.611 DEBUG:  ResourcesManager : creating new AssetManager and set to /data/app/com.google.android.apps.books-2/base.apk
2602016-10-18 12:53:12.611 DEBUG:  AASAservice-UpdateReceiver : AASAUpdateReceiver: android.intent.action.PACKAGE_ADDED, package = org.adblockplus.adblockplussbrowser, uid = -1
2612016-10-18 12:53:12.611 INFO:   AASAservice-TokenRule : parseToken()
2622016-10-18 12:53:12.611 WARN:   System.err : java.io.FileNotFoundException: /data/system/.aasa/aasaRuleFile.xml: open failed: ENOENT (No such file or directory)
2632016-10-18 12:53:12.611 WARN:   System.err : at libcore.io.IoBridge.open(IoBridge.java:456)
2642016-10-18 12:53:12.611 WARN:   System.err : at java.io.FileInputStream.<init>(FileInputStream.java:76)
2652016-10-18 12:53:12.611 WARN:   System.err : at java.io.FileInputStream.<init>(FileInputStream.java:103)
2662016-10-18 12:53:12.611 WARN:   System.err : at com.samsung.aasaservice.AASATokenRule.parseToken(AASATokenRule.java:80)
2672016-10-18 12:53:12.611 WARN:   System.err : at com.samsung.aasaservice.AASAUpdateReceiver.onReceive(AASAUpdateReceiver.java:52)
2682016-10-18 12:53:12.611 WARN:   System.err : at android.app.ActivityThread.handleReceiver(ActivityThread.java:3002)
2692016-10-18 12:53:12.611 WARN:   System.err : at android.app.ActivityThread.access$1800(ActivityThread.java:177)
2702016-10-18 12:53:12.611 WARN:   System.err : at android.app.ActivityThread$H.handleMessage(ActivityThread.java:1526)
2712016-10-18 12:53:12.611 WARN:   System.err : at android.os.Handler.dispatchMessage(Handler.java:102)
2722016-10-18 12:53:12.611 WARN:   System.err : at android.os.Looper.loop(Looper.java:145)
2732016-10-18 12:53:12.611 WARN:   System.err : at android.app.ActivityThread.main(ActivityThread.java:5951)
2742016-10-18 12:53:12.611 WARN:   System.err : at java.lang.reflect.Method.invoke(Native Method)
2752016-10-18 12:53:12.611 WARN:   System.err : at java.lang.reflect.Method.invoke(Method.java:372)
2762016-10-18 12:53:12.611 WARN:   System.err : at com.android.internal.os.ZygoteInit$MethodAndArgsCaller.run(ZygoteInit.java:1400)
2772016-10-18 12:53:12.611 WARN:   System.err : at com.android.internal.os.ZygoteInit.main(ZygoteInit.java:1195)
2782016-10-18 12:53:12.611 WARN:   System.err : Caused by: android.system.ErrnoException: open failed: ENOENT (No such file or directory)
2792016-10-18 12:53:12.611 WARN:   System.err : at libcore.io.Posix.open(Native Method)
2802016-10-18 12:53:12.611 WARN:   System.err : at libcore.io.BlockGuardOs.open(BlockGuardOs.java:186)
2812016-10-18 12:53:12.611 WARN:   System.err : at libcore.io.IoBridge.open(IoBridge.java:442)
2822016-10-18 12:53:12.621 WARN:   System.err : ... 14 more
2832016-10-18 12:53:12.621 ERROR:  AASAservice-TokenRule : parseToken() : TokenFile is null
2842016-10-18 12:53:12.621 ERROR:  AASAservice-UpdateReceiver : AASARuleUpdateResult() : Rule file is not exist.
2852016-10-18 12:53:12.621 DEBUG:  ActivityManager : startProcessLocked calleePkgName: com.samsung.groupcast, hostingType: broadcast
2862016-10-18 12:53:12.621 ERROR:  ActivityManager : checkUser: useridlist=null, currentuser=0
2872016-10-18 12:53:12.621 ERROR:  ActivityManager : checkUser: useridlist=null, currentuser=0
2882016-10-18 12:53:12.621 ERROR:  ActivityManager : checkUser: useridlist=null, currentuser=0
2892016-10-18 12:53:12.621 ERROR:  ActivityManager : checkUser: useridlist=null, currentuser=0
2902016-10-18 12:53:12.621 DEBUG:  SurfaceFlinger : FPS : 0.42
2912016-10-18 12:53:12.621 WARN:   SurfaceFlinger : Fail to Open /sys/devices/platform/gpusysfs/fps
2922016-10-18 12:53:12.621 DEBUG:  BackupManagerService : Received broadcast Intent { act=android.intent.action.PACKAGE_ADDED dat=package:org.adblockplus.adblockplussbrowser flg=0x4000010 (has extras) }
2932016-10-18 12:53:12.631 ERROR:  Zygote : MountEmulatedStorage()
2942016-10-18 12:53:12.631 ERROR:  Zygote : v2
2952016-10-18 12:53:12.631 INFO:   libpersona : KNOX_SDCARD checking this for 10006
2962016-10-18 12:53:12.631 INFO:   libpersona : KNOX_SDCARD not a persona
2972016-10-18 12:53:12.641 INFO:   SELinux : Function: selinux_compare_spd_ram, SPD-policy is existed. and_ver=SEPF_GT-I9505_5.0.1-1 ver=51
2982016-10-18 12:53:12.641 WARN:   BackupManagerService : Removing schedule queue dupe of org.adblockplus.adblockplussbrowser
2992016-10-18 12:53:12.641 INFO:   ActivityManager : Start proc com.samsung.groupcast for broadcast com.samsung.groupcast/.receiver.SPPReceiver: pid=27044 uid=10006 gids={50006, 9997, 3003, 1028, 1015} abi=armeabi-v7a
3002016-10-18 12:53:12.641 INFO:   SELinux : Function: selinux_compare_spd_ram , priority [1] , priority version is VE=SEPF_GT-I9505_5.0.1-1_0051
3012016-10-18 12:53:12.641 ERROR:  SELinux : [DEBUG] get_category: variable seinfo: samsung sensitivity: NULL, cateogry: NULL
3022016-10-18 12:53:12.641 DEBUG:  PersonaPolicyManagerService : PersonaPolicyReceiver Receiver : android.intent.action.PACKAGE_ADDED
3032016-10-18 12:53:12.651 DEBUG:  KnoxMUMContainerPolicy : packageInstalledForExternalStorage org.adblockplus.adblockplussbrowser
3042016-10-18 12:53:12.661 WARN:   Resources : Converting to string: TypedValue{t=0x12/d=0xffffffff a=-1}
3052016-10-18 12:53:12.671 DEBUG:  ResourcesManager : creating new AssetManager and set to /system/priv-app/SecMms_Candy/SecMms_Candy.apk
3062016-10-18 12:53:12.681 WARN:   Resources : Converting to string: TypedValue{t=0x12/d=0xffffffff a=-1}
3072016-10-18 12:53:12.681 WARN:   Resources : Converting to string: TypedValue{t=0x12/d=0xffffffff a=-1}
3082016-10-18 12:53:12.681 DEBUG:  ResourcesManager : creating new AssetManager and set to /data/app/tv.peel.samsung.app-2/base.apk
3092016-10-18 12:53:12.691 ERROR:  Diag_Lib : Diag_LSM_Init: Failed to open handle to diag driver, error = 2
3102016-10-18 12:53:12.701 DEBUG:  ResourcesManager : creating new AssetManager and set to /system/priv-app/GroupPlay_25/GroupPlay_25.apk
3112016-10-18 12:53:12.701 WARN:   ResourcesManager : Asset path '/system/framework/sechardware.jar' does not exist or contains no resources.
3122016-10-18 12:53:12.711 WARN:   ResourcesManager : Asset path '/system/framework/sec_feature.jar' does not exist or contains no resources.
3132016-10-18 12:53:12.751 DEBUG:  GroupCast_FileTools : [getDirectoryForImageResized : 333] cleaning!!
3142016-10-18 12:53:12.761 INFO:   BusinessExecutor : registered Task#16370 : AreAlienServicesInstalled$1$1
3152016-10-18 12:53:12.761 INFO:   BusinessExecutor : Task#16370 : #run() called
3162016-10-18 12:53:12.761 INFO:   BusinessExecutor : registered Task#16371 : IsCurrentServiceEnabled$1
3172016-10-18 12:53:12.761 INFO:   BusinessExecutor : Task#16369 : #run() ended
3182016-10-18 12:53:12.761 INFO:   BusinessExecutor : Task#16370 : #run() ended
3192016-10-18 12:53:12.761 INFO:   BusinessExecutor : Task#16371 : #run() called
3202016-10-18 12:53:12.761 INFO:   BusinessExecutor : registered Task#16372 : ActivatedStateChecker$2
3212016-10-18 12:53:12.761 INFO:   BusinessExecutor : Task#16371 : #run() ended
3222016-10-18 12:53:12.761 INFO:   BusinessExecutor : Task#16372 : #run() called
3232016-10-18 12:53:12.761 INFO:   RcsPreferencesProvider : onMasterSwitchUpdateEvent
3242016-10-18 12:53:12.761 INFO:   BusinessExecutor : Task#16372 : #run() ended
3252016-10-18 12:53:12.771 INFO:   RcsPreferencesProvider : query(content://com.sec.ims.android.rcs/preferences/1)
3262016-10-18 12:53:12.771 INFO:   BusinessExecutor : registered Task#16373 : BlockingExecutor$2
3272016-10-18 12:53:12.771 INFO:   BusinessExecutor : Task#16373 : #run() called
3282016-10-18 12:53:12.771 INFO:   BusinessExecutor : Task#16373 : #run() ended
3292016-10-18 12:53:12.771 INFO:   BusinessExecutor : registered Task#16374 : BlockingExecutor$2
3302016-10-18 12:53:12.771 INFO:   BusinessExecutor : Task#16374 : #run() called
3312016-10-18 12:53:12.771 INFO:   BusinessExecutor : Task#16374 : #run() ended
3322016-10-18 12:53:12.771 INFO:   BusinessExecutor : registered Task#16375 : BlockingExecutor$2
3332016-10-18 12:53:12.771 INFO:   BusinessExecutor : Task#16375 : #run() called
3342016-10-18 12:53:12.771 DEBUG:  ActivityManager : startService callerProcessName:com.android.musicfx, calleePkgName: com.android.musicfx
3352016-10-18 12:53:12.771 INFO:   BusinessExecutor : Task#16375 : #run() ended
3362016-10-18 12:53:12.771 INFO:   RcsPreferencesProvider : isEnabled=true, isVanilla=true, isMasterSwitchVisible=false
3372016-10-18 12:53:12.791 INFO:   DBG_POLICYDM : [com.policydm.XSPPReceiver(52/onReceive)] ACTION_PACKAGE_ADDED. mPkgName:org.adblockplus.adblockplussbrowser
3382016-10-18 12:53:12.791 DEBUG:  ActivityManager : startProcessLocked calleePkgName: com.google.android.partnersetup, hostingType: broadcast
3392016-10-18 12:53:12.791 ERROR:  ActivityManager : checkUser: useridlist=null, currentuser=0
3402016-10-18 12:53:12.791 ERROR:  ActivityManager : checkUser: useridlist=null, currentuser=0
3412016-10-18 12:53:12.791 ERROR:  ActivityManager : checkUser: useridlist=null, currentuser=0
3422016-10-18 12:53:12.791 ERROR:  ActivityManager : checkUser: useridlist=null, currentuser=0
3432016-10-18 12:53:12.801 ERROR:  Zygote : MountEmulatedStorage()
3442016-10-18 12:53:12.801 ERROR:  Zygote : v2
3452016-10-18 12:53:12.801 INFO:   libpersona : KNOX_SDCARD checking this for 10049
3462016-10-18 12:53:12.801 INFO:   libpersona : KNOX_SDCARD not a persona
3472016-10-18 12:53:12.811 INFO:   SELinux : Function: selinux_compare_spd_ram, SPD-policy is existed. and_ver=SEPF_GT-I9505_5.0.1-1 ver=51
3482016-10-18 12:53:12.811 INFO:   SELinux : Function: selinux_compare_spd_ram , priority [1] , priority version is VE=SEPF_GT-I9505_5.0.1-1_0051
3492016-10-18 12:53:12.811 INFO:   ActivityManager : Start proc com.google.android.partnersetup for broadcast com.google.android.partnersetup/.RlzPingBroadcastReceiver: pid=27063 uid=10049 gids={50049, 9997, 3003} abi=armeabi-v7a
3502016-10-18 12:53:12.811 ERROR:  SELinux : [DEBUG] get_category: variable seinfo: untrusted sensitivity: NULL, cateogry: NULL
3512016-10-18 12:53:12.851 DEBUG:  ResourcesManager : creating new AssetManager and set to /data/app/com.google.android.youtube-2/base.apk
3522016-10-18 12:53:12.861 DEBUG:  ResourcesManager : creating new AssetManager and set to /system/priv-app/GooglePartnerSetup/GooglePartnerSetup.apk
3532016-10-18 12:53:12.861 DEBUG:  ResourcesManager : creating new AssetManager and set to /data/app/com.ebay.mobile-1/base.apk
3542016-10-18 12:53:12.871 DEBUG:  ResourcesManager : creating new AssetManager and set to /system/priv-app/SamsungLink20/SamsungLink20.apk
3552016-10-18 12:53:12.871 WARN:   Resources : Converting to string: TypedValue{t=0x12/d=0xffffffff a=-1}
3562016-10-18 12:53:12.871 DEBUG:  ResourcesManager : creating new AssetManager and set to /system/priv-app/SFinder/SFinder.apk
3572016-10-18 12:53:12.881 WARN:   Resources : Converting to string: TypedValue{t=0x12/d=0xffffffff a=-1}
3582016-10-18 12:53:12.881 DEBUG:  ResourcesManager : creating new AssetManager and set to /system/priv-app/SecSettings/SecSettings.apk
3592016-10-18 12:53:12.881 DEBUG:  ActivityManager : startService callerProcessName:com.google.android.partnersetup, calleePkgName: com.google.android.partnersetup
3602016-10-18 12:53:12.891 DEBUG:  ActivityManager : startService callerProcessName:com.google.android.partnersetup, calleePkgName: com.google.android.partnersetup
3612016-10-18 12:53:12.891 WARN:   Resources : Converting to string: TypedValue{t=0x12/d=0xffffffff a=-1}
3622016-10-18 12:53:12.891 WARN:   Resources : Converting to string: TypedValue{t=0x12/d=0xffffffff a=-1}
3632016-10-18 12:53:12.901 DEBUG:  com.sec.android.service.health.upgrade.UninstallReceiver : onReceive()
3642016-10-18 12:53:12.901 INFO:   com.sec.android.service.health.upgrade.UninstallReceiver : onReceive called  PACKAGE_ADDED package:org.adblockplus.adblockplussbrowser
3652016-10-18 12:53:12.901 DEBUG:  com.sec.android.service.health.upgrade.UninstallReceiver : onReceive() : package name is not s health. Return !!!
3662016-10-18 12:53:12.901 DEBUG:  ResourcesManager : creating new AssetManager and set to /system/app/SPlanner_LEGACY/SPlanner_LEGACY.apk
3672016-10-18 12:53:12.911 WARN:   ResourcesManager : Asset path '/system/framework/sechardware.jar' does not exist or contains no resources.
3682016-10-18 12:53:12.911 WARN:   ResourcesManager : Asset path '/system/framework/com.google.android.maps.jar' does not exist or contains no resources.
3692016-10-18 12:53:12.911 WARN:   ResourcesManager : Asset path '/system/framework/twframework.jar' does not exist or contains no resources.
3702016-10-18 12:53:12.911 INFO:   PCWCLIENTTRACE_PushUtil : SPPPushClient is installed : true
3712016-10-18 12:53:12.911 INFO:   PCWCLIENTTRACE_PushUtil : sales region : global
3722016-10-18 12:53:12.911 INFO:   PCWCLIENTTRACE_PushUtil : getPushTypeList : [SPP, GCM]
3732016-10-18 12:53:12.911 INFO:   PCWCLIENTTRACE_SYSTEMReceiver : [onReceive] - android.intent.action.PACKAGE_ADDED
3742016-10-18 12:53:12.921 WARN:   Resources : Converting to string: TypedValue{t=0x12/d=0xffffffff a=-1}
3752016-10-18 12:53:12.921 DEBUG:  ResourcesManager : creating new AssetManager and set to /system/app/InteractiveTutorial/InteractiveTutorial.apk
3762016-10-18 12:53:12.931 INFO:   SA : [PMR] Received action : android.intent.action.PACKAGE_ADDED
3772016-10-18 12:53:12.931 WARN:   Resources : Converting to string: TypedValue{t=0x12/d=0xffffffff a=-1}
3782016-10-18 12:53:12.931 DEBUG:  ResourcesManager : creating new AssetManager and set to /data/app/com.google.android.play.games-1/base.apk
3792016-10-18 12:53:12.941 INFO:   SA : [SUR] onReceive called
3802016-10-18 12:53:12.941 INFO:   SA : [SUR] Not SA Package.. finish
3812016-10-18 12:53:12.951 INFO:   ActivityManager : Killing 25735:com.sec.knox.bridge/1000 (adj 15): emptyCount ##36
3822016-10-18 12:53:12.961 DEBUG:  ResourcesManager : creating new AssetManager and set to /data/app/com.android.chrome-1/base.apk
3832016-10-18 12:53:12.961 DEBUG:  ResourcesManager : creating new AssetManager and set to /data/app/com.google.android.gms-1/base.apk
3842016-10-18 12:53:12.961 DEBUG:  ResourcesManager : creating new AssetManager and set to /data/app/com.google.android.youtube-2/base.apk
3852016-10-18 12:53:12.961 DEBUG:  ResourcesManager : creating new AssetManager and set to /data/app/uk.amazon.mShop.android-1/base.apk
3862016-10-18 12:53:12.981 DEBUG:  ResourcesManager : creating new AssetManager and set to /data/app/com.vouchercloud.android-1/base.apk
3872016-10-18 12:53:12.981 DEBUG:  ResourcesManager : creating new AssetManager and set to /data/app/com.ebay.mobile-1/base.apk
3882016-10-18 12:53:12.981 DEBUG:  ResourcesManager : creating new AssetManager and set to /data/app/com.google.android.googlequicksearchbox-1/base.apk
3892016-10-18 12:53:13.001 INFO:   art : Explicit concurrent mark sweep GC freed 67619(4MB) AllocSpace objects, 2(57KB) LOS objects, 23% free, 51MB/67MB, paused 6.805ms total 620.117ms
3902016-10-18 12:53:13.001 DEBUG:  PackageManager : result of install: 1{510486850}
3912016-10-18 12:53:13.001 DEBUG:  AndroidRuntime : Shutting down VM
3922016-10-18 12:53:13.001 DEBUG:  ResourcesManager : creating new AssetManager and set to /system/priv-app/SecNoteMyFiles/SecNoteMyFiles.apk
3932016-10-18 12:53:13.001 WARN:   Resources : Converting to string: TypedValue{t=0x12/d=0xffffffff a=-1}
3942016-10-18 12:53:13.001 DEBUG:  ResourcesManager : creating new AssetManager and set to /system/priv-app/SamsungMusic_20/SamsungMusic_20.apk
3952016-10-18 12:53:13.001 INFO:   TOOLKIT SERVICE : Request body '{"id":"1476780784133","type":"GET_SCREEN_ORIENTATION"}'
3962016-10-18 12:53:13.001 INFO:   DEVICE MANAGER : {"id":"1476780784133","type":"GET_SCREEN_ORIENTATION"}
3972016-10-18 12:53:13.001 INFO:   TOOLKIT SERVICE : Responding to client with: '{"id":"1476780784133","orientation":"PORTRAIT"}'
3982016-10-18 12:53:13.011 WARN:   Resources : Converting to string: TypedValue{t=0x12/d=0xffffffff a=-1}
3992016-10-18 12:53:13.011 DEBUG:  ResourcesManager : creating new AssetManager and set to /system/priv-app/SecVideoPlayer/SecVideoPlayer.apk
4002016-10-18 12:53:13.021 WARN:   Resources : Converting to string: TypedValue{t=0x12/d=0xffffffff a=-1}
4012016-10-18 12:53:13.021 WARN:   Resources : Converting to string: TypedValue{t=0x12/d=0x0 a=-1}
4022016-10-18 12:53:13.021 DEBUG:  ResourcesManager : creating new AssetManager and set to /system/priv-app/SecContacts_Phone_OSup/SecContacts_Phone_OSup.apk
4032016-10-18 12:53:13.021 WARN:   Resources : Converting to string: TypedValue{t=0x12/d=0xffffffff a=-1}
4042016-10-18 12:53:13.021 DEBUG:  ResourcesManager : creating new AssetManager and set to /system/priv-app/SecGallery2013/SecGallery2013.apk
4052016-10-18 12:53:13.031 WARN:   Resources : Converting to string: TypedValue{t=0x12/d=0xffffffff a=-1}
4062016-10-18 12:53:13.031 WARN:   Resources : Converting to string: TypedValue{t=0x12/d=0x0 a=-1}
4072016-10-18 12:53:13.031 DEBUG:  ResourcesManager : creating new AssetManager and set to /system/app/VoiceRecorder/VoiceRecorder.apk
4082016-10-18 12:53:13.031 WARN:   Resources : Converting to string: TypedValue{t=0x12/d=0xffffffff a=-1}
4092016-10-18 12:53:13.031 WARN:   Resources : Converting to string: TypedValue{t=0x12/d=0x0 a=-1}
4102016-10-18 12:53:13.041 DEBUG:  Mms/FreeMessageStatusReceiver : onReceive, action : android.intent.action.PACKAGE_ADDED
4112016-10-18 12:53:13.041 DEBUG:  ActivityManager : startService callerProcessName:com.android.mms, calleePkgName: com.android.mms
4122016-10-18 12:53:13.041 INFO:   CrashAnrDetector : onPackageAdded : org.adblockplus.adblockplussbrowser
4132016-10-18 12:53:13.051 DEBUG:  Mms/FreeMessageReceiverService : onHandleIntent, action : android.intent.action.PACKAGE_ADDED
4142016-10-18 12:53:13.051 DEBUG:  Mms/FreeMessageReceiverService : onHandleIntent: ACTION_PACKAGE_ADDED
4152016-10-18 12:53:13.071 DEBUG:  ResourcesManager : creating new AssetManager and set to /data/app/org.adblockplus.adblockplussbrowser-1/base.apk
4162016-10-18 12:53:13.071 ERROR:  EdmStorageProvider : Admin not in database, something went wrong
4172016-10-18 12:53:13.091 DEBUG:  PackageIntentReceiver : ACTION_PACKAGE_ADDED
4182016-10-18 12:53:13.091 DEBUG:  PackageIntentReceiver : Not GearManger package!
4192016-10-18 12:53:13.101 WARN:   ContextImpl : Calling a method in the system process without a qualified user: android.app.ContextImpl.startService:2064 android.content.ContextWrapper.startService:533 android.content.ContextWrapper.startService:533 com.samsung.android.app.assistantmenu.AssistantMenuReceiver.onReceive:147 android.app.ActivityThread.handleReceiver:3002
4202016-10-18 12:53:13.101 DEBUG:  ActivityManager : startService callerProcessName:com.samsung.android.app.assistantmenu, calleePkgName: com.samsung.android.app.assistantmenu
4212016-10-18 12:53:13.111 WARN:   ContextImpl : Calling a method in the system process without a qualified user: android.app.ContextImpl.startService:2064 android.content.ContextWrapper.startService:533 android.content.ContextWrapper.startService:533 com.samsung.android.app.filterinstaller.PackageIntentReceiver.onReceive:55 android.app.ActivityThread.handleReceiver:3002
4222016-10-18 12:53:13.111 DEBUG:  ActivityManager : startService callerProcessName:com.samsung.android.app.filterinstaller, calleePkgName: com.samsung.android.app.filterinstaller
4232016-10-18 12:53:13.121 DEBUG:  ResourcesManager : creating new AssetManager and set to /data/app/org.adblockplus.adblockplussbrowser-1/base.apk
4242016-10-18 12:53:13.121 ERROR:  FilterInstaller : installFilters
4252016-10-18 12:53:13.121 ERROR:  FilterInstaller : There is no requred permission
4262016-10-18 12:53:13.131 DEBUG:  ActivityManager : startProcessLocked calleePkgName: com.android.vending, hostingType: broadcast
4272016-10-18 12:53:13.131 ERROR:  ActivityManager : checkUser: useridlist=null, currentuser=0
4282016-10-18 12:53:13.131 ERROR:  ActivityManager : checkUser: useridlist=null, currentuser=0
4292016-10-18 12:53:13.131 ERROR:  ActivityManager : checkUser: useridlist=null, currentuser=0
4302016-10-18 12:53:13.131 ERROR:  ActivityManager : checkUser: useridlist=null, currentuser=0
4312016-10-18 12:53:13.151 ERROR:  Zygote : MountEmulatedStorage()
4322016-10-18 12:53:13.151 ERROR:  Zygote : v2
4332016-10-18 12:53:13.151 INFO:   libpersona : KNOX_SDCARD checking this for 10018
4342016-10-18 12:53:13.151 INFO:   libpersona : KNOX_SDCARD not a persona
4352016-10-18 12:53:13.151 INFO:   SELinux : Function: selinux_compare_spd_ram, SPD-policy is existed. and_ver=SEPF_GT-I9505_5.0.1-1 ver=51
4362016-10-18 12:53:13.151 INFO:   SELinux : Function: selinux_compare_spd_ram , priority [1] , priority version is VE=SEPF_GT-I9505_5.0.1-1_0051
4372016-10-18 12:53:13.151 ERROR:  SELinux : [DEBUG] get_category: variable seinfo: untrusted sensitivity: NULL, cateogry: NULL
4382016-10-18 12:53:13.151 INFO:   ActivityManager : Start proc com.android.vending for broadcast com.android.vending/com.google.android.finsky.receivers.PackageMonitorReceiver$RegisteredReceiver: pid=27085 uid=10018 gids={50018, 9997, 3003, 1028, 1015} abi=armeabi-v7a
4392016-10-18 12:53:13.161 DEBUG:  ActivityManager : startService callerProcessName:com.samsung.android.app.galaxyfinder, calleePkgName: com.samsung.android.app.galaxyfinder
4402016-10-18 12:53:13.171 ERROR:  SMD : smd Interface open failed errno is 2 -1
4412016-10-18 12:53:13.181 DEBUG:  ResourcesManager : creating new AssetManager and set to /data/app/org.adblockplus.adblockplussbrowser-1/base.apk
4422016-10-18 12:53:13.191 DEBUG:  ResourcesManager : creating new AssetManager and set to /data/app/com.android.vending-1/base.apk
4432016-10-18 12:53:13.271 DEBUG:  ActivityManager : getContentProviderImpl callerProcessName:com.android.vending, calleePkgName: com.google.android.gsf
4442016-10-18 12:53:13.271 ERROR:  ActivityManager : checkUser: useridlist=null, currentuser=0
4452016-10-18 12:53:13.271 ERROR:  ActivityManager : checkUser: useridlist=null, currentuser=0
4462016-10-18 12:53:13.271 ERROR:  ActivityManager : checkUser: useridlist=null, currentuser=0
4472016-10-18 12:53:13.271 ERROR:  ActivityManager : checkUser: useridlist=null, currentuser=0
4482016-10-18 12:53:13.281 ERROR:  Zygote : MountEmulatedStorage()
4492016-10-18 12:53:13.281 ERROR:  Zygote : v2
4502016-10-18 12:53:13.281 INFO:   libpersona : KNOX_SDCARD checking this for 10021
4512016-10-18 12:53:13.281 INFO:   libpersona : KNOX_SDCARD not a persona
4522016-10-18 12:53:13.291 INFO:   SELinux : Function: selinux_compare_spd_ram, SPD-policy is existed. and_ver=SEPF_GT-I9505_5.0.1-1 ver=51
4532016-10-18 12:53:13.291 INFO:   SELinux : Function: selinux_compare_spd_ram , priority [1] , priority version is VE=SEPF_GT-I9505_5.0.1-1_0051
4542016-10-18 12:53:13.291 ERROR:  SELinux : [DEBUG] get_category: variable seinfo: untrusted sensitivity: NULL, cateogry: NULL
4552016-10-18 12:53:13.301 INFO:   ActivityManager : Start proc com.google.process.gapps for content provider com.google.android.gsf/.gservices.GservicesProvider: pid=27102 uid=10021 gids={50021, 9997, 2001, 3003, 1007, 3006, 1028, 1015, 3002, 3001, 3007} abi=armeabi-v7a
4562016-10-18 12:53:13.321 DEBUG:  ResourcesManager : creating new AssetManager and set to /system/priv-app/GoogleServicesFramework/GoogleServicesFramework.apk
4572016-10-18 12:53:13.341 INFO:   GservicesProvider : Gservices pushing to system: true; secure/global: true
4582016-10-18 12:53:13.381 INFO:   TOOLKIT SERVICE : Request body '{"id":"1476780784515","type":"CLOSE_POPUPS"}'
4592016-10-18 12:53:13.381 INFO:   DEVICE MANAGER : {"id":"1476780784515","type":"CLOSE_POPUPS"}
4602016-10-18 12:53:13.391 INFO:   TOOLKIT SERVICE : Responding to client with: '{"id":"1476780784515","closePopups":true}'
4612016-10-18 12:53:13.391 WARN:   ContextImpl : Calling a method in the system process without a qualified user: android.app.ContextImpl.sendBroadcast:1699 com.android.server.accessibility.AccessibilityManagerService$DirectAccessBrocastReceiver.onReceive:393 android.app.LoadedApk$ReceiverDispatcher$Args.run:923 android.os.Handler.handleCallback:739 android.os.Handler.dispatchMessage:95
4622016-10-18 12:53:13.391 DEBUG:  HotspotTile : onReceive : android.intent.action.CLOSE_SYSTEM_DIALOGS
4632016-10-18 12:53:13.391 DEBUG:  AirplaneModeTile : onReceive : android.intent.action.CLOSE_SYSTEM_DIALOGS
4642016-10-18 12:53:13.391 DEBUG:  PhoneStatusBar : animateCollapse(): mExpandedVisible=false flags=0
4652016-10-18 12:53:13.391 DEBUG:  StatusBar-Window : fnf=true sanc=false, kni=false, sbf=false
4662016-10-18 12:53:13.391 DEBUG:  CoverUI : applyFocusableFlag() : Remove SAMSUNG_FLAG_SVIEW_COVER
4672016-10-18 12:53:13.391 DEBUG:  Recents_AlternateRecentsComponent : isRecentsTopMost is getting called
4682016-10-18 12:53:13.421 INFO:   TOOLKIT SERVICE : Request body '{"id":"1476780784548","type":"CLOSE_POPUPS"}'
4692016-10-18 12:53:13.421 INFO:   DEVICE MANAGER : {"id":"1476780784548","type":"CLOSE_POPUPS"}
4702016-10-18 12:53:13.421 INFO:   TOOLKIT SERVICE : Responding to client with: '{"id":"1476780784548","closePopups":true}'
4712016-10-18 12:53:13.421 WARN:   ContextImpl : Calling a method in the system process without a qualified user: android.app.ContextImpl.sendBroadcast:1699 com.android.server.accessibility.AccessibilityManagerService$DirectAccessBrocastReceiver.onReceive:393 android.app.LoadedApk$ReceiverDispatcher$Args.run:923 android.os.Handler.handleCallback:739 android.os.Handler.dispatchMessage:95
4722016-10-18 12:53:13.421 DEBUG:  HotspotTile : onReceive : android.intent.action.CLOSE_SYSTEM_DIALOGS
4732016-10-18 12:53:13.421 DEBUG:  AirplaneModeTile : onReceive : android.intent.action.CLOSE_SYSTEM_DIALOGS
4742016-10-18 12:53:13.421 DEBUG:  PhoneStatusBar : animateCollapse(): mExpandedVisible=false flags=0
4752016-10-18 12:53:13.421 DEBUG:  StatusBar-Window : fnf=true sanc=false, kni=false, sbf=false
4762016-10-18 12:53:13.421 DEBUG:  CoverUI : applyFocusableFlag() : Remove SAMSUNG_FLAG_SVIEW_COVER
4772016-10-18 12:53:13.431 DEBUG:  Recents_AlternateRecentsComponent : isRecentsTopMost is getting called
4782016-10-18 12:53:13.431 DEBUG:  SurfaceFlinger : FPS : 1.24
4792016-10-18 12:53:13.431 WARN:   SurfaceFlinger : Fail to Open /sys/devices/platform/gpusysfs/fps
4802016-10-18 12:53:13.451 DEBUG:  SurfaceFlinger : FPS : 1.24
4812016-10-18 12:53:13.451 WARN:   SurfaceFlinger : Fail to Open /sys/devices/platform/gpusysfs/fps
4822016-10-18 12:53:13.491 INFO:   GoogleHttpClient : GMS http client unavailable, use old client
4832016-10-18 12:53:13.501 INFO:   TOOLKIT SERVICE : Request body '{"id":"1476780784633","type":"GET_SCREEN_ORIENTATION"}'
4842016-10-18 12:53:13.501 INFO:   DEVICE MANAGER : {"id":"1476780784633","type":"GET_SCREEN_ORIENTATION"}
4852016-10-18 12:53:13.501 DEBUG:  ResourcesManager : creating new AssetManager and set to /system/app/GoogleContactsSyncAdapter/GoogleContactsSyncAdapter.apk
4862016-10-18 12:53:13.501 INFO:   TOOLKIT SERVICE : Responding to client with: '{"id":"1476780784633","orientation":"PORTRAIT"}'
4872016-10-18 12:53:13.541 INFO:   GoogleHttpClient : GMS http client unavailable, use old client
4882016-10-18 12:53:13.602 WARN:   Finsky : [1] com.google.android.finsky.FinskyApp.i(1465): No account configured on this device.
4892016-10-18 12:53:13.612 WARN:   Finsky : [1] com.google.android.finsky.FinskyApp.i(1465): No account configured on this device.
4902016-10-18 12:53:13.622 WARN:   Finsky : [1] com.google.android.finsky.FinskyApp.i(1465): No account configured on this device.
4912016-10-18 12:53:13.622 WARN:   Finsky : [1] com.google.android.finsky.FinskyApp.i(1465): No account configured on this device.
4922016-10-18 12:53:13.662 INFO:   Finsky : [1] com.google.android.finsky.FinskyApp.onCreate(428): Initializing network with DFE https://android.clients.google.com/fdfe/
4932016-10-18 12:53:13.662 WARN:   Finsky : [1] com.google.android.finsky.FinskyApp.i(1465): No account configured on this device.
4942016-10-18 12:53:13.742 WARN:   Finsky : [1] com.google.android.finsky.FinskyApp.i(1465): No account configured on this device.
4952016-10-18 12:53:13.742 WARN:   Finsky : [1] com.google.android.finsky.FinskyApp.i(1465): No account configured on this device.
4962016-10-18 12:53:13.742 DEBUG:  AndroidRuntime : >>>>>> AndroidRuntime START com.android.internal.os.RuntimeInit <<<<<<
4972016-10-18 12:53:13.752 WARN:   Finsky : [1] com.google.android.finsky.FinskyApp.i(1465): No account configured on this device.
4982016-10-18 12:53:13.752 DEBUG:  AndroidRuntime : CheckJNI is OFF
4992016-10-18 12:53:13.752 WARN:   Finsky : [1] com.google.android.finsky.FinskyApp.i(1465): No account configured on this device.
5002016-10-18 12:53:13.752 DEBUG:  AndroidRuntime : readGMSProperty: start
5012016-10-18 12:53:13.752 DEBUG:  AndroidRuntime : readGMSProperty: already setted!!
5022016-10-18 12:53:13.752 DEBUG:  AndroidRuntime : readGMSProperty: end
5032016-10-18 12:53:13.752 DEBUG:  AndroidRuntime : addProductProperty: start
5042016-10-18 12:53:13.762 WARN:   Finsky : [1] com.google.android.finsky.FinskyApp.i(1465): No account configured on this device.
5052016-10-18 12:53:13.762 WARN:   Finsky : [1] com.google.android.finsky.FinskyApp.i(1465): No account configured on this device.
5062016-10-18 12:53:13.792 WARN:   Finsky : [1] com.google.android.finsky.FinskyApp.i(1465): No account configured on this device.
5072016-10-18 12:53:13.792 WARN:   Finsky : [1] com.google.android.finsky.FinskyApp.i(1465): No account configured on this device.
5082016-10-18 12:53:13.792 INFO:   Finsky : [1] com.google.android.finsky.services.DailyHygiene.a(171): No need to run daily hygiene.
5092016-10-18 12:53:13.792 WARN:   Finsky : [1] com.google.android.finsky.FinskyApp.i(1465): No account configured on this device.
5102016-10-18 12:53:13.812 WARN:   Settings : Setting download_manager_max_bytes_over_mobile has moved from android.provider.Settings.Secure to android.provider.Settings.Global.
5112016-10-18 12:53:13.812 WARN:   Settings : Setting download_manager_recommended_max_bytes_over_mobile has moved from android.provider.Settings.Secure to android.provider.Settings.Global.
5122016-10-18 12:53:13.832 WARN:   Finsky : [1] com.google.android.finsky.FinskyApp.i(1465): No account configured on this device.
5132016-10-18 12:53:13.832 WARN:   Finsky : [1] com.google.android.finsky.FinskyApp.i(1465): No account configured on this device.
5142016-10-18 12:53:13.842 WARN:   Finsky : [1] com.google.android.finsky.FinskyApp.i(1465): No account configured on this device.
5152016-10-18 12:53:13.842 WARN:   Finsky : [1] com.google.android.finsky.FinskyApp.i(1465): No account configured on this device.
5162016-10-18 12:53:13.842 WARN:   Finsky : [1] com.google.android.finsky.FinskyApp.i(1465): No account configured on this device.
5172016-10-18 12:53:13.842 WARN:   Finsky : [1] com.google.android.finsky.FinskyApp.b(1147): No account configured on this device.
5182016-10-18 12:53:13.842 WARN:   Finsky : [1] com.google.android.finsky.FinskyApp.i(1465): No account configured on this device.
5192016-10-18 12:53:13.862 DEBUG:  ActivityManager : startService callerProcessName:com.android.vending, calleePkgName: com.android.vending
5202016-10-18 12:53:13.872 WARN:   Finsky : [34975] com.google.android.finsky.FinskyApp.i(1465): No account configured on this device.
5212016-10-18 12:53:13.872 INFO:   ActivityManager : Killing 25765:com.sec.android.app.popupuireceiver/1000 (adj 15): emptyCount ##36
5222016-10-18 12:53:13.872 DEBUG:  ActivityManager : startService callerProcessName:com.vodafone.smhs, calleePkgName: com.vodafone.smhs
5232016-10-18 12:53:13.872 DEBUG:  ConnectivityService : returning getActiveNetworkInfo :[type: WIFI[] - WIFI, state: CONNECTED/CONNECTED, reason: (unspecified), extra: "TestObject Devices", roaming: false, failover: false, isAvailable: true, isConnectedToProvisioningNetwork: false]
5242016-10-18 12:53:13.882 DEBUG:  ConnectivityService : returning getNetworkInfo(networkType - 1) :[type: WIFI[] - WIFI, state: CONNECTED/CONNECTED, reason: (unspecified), extra: "TestObject Devices", roaming: false, failover: false, isAvailable: true, isConnectedToProvisioningNetwork: false]
5252016-10-18 12:53:13.882 DEBUG:  ActivityManager : startService callerProcessName:com.google.android.apps.plus, calleePkgName: com.google.android.apps.plus
5262016-10-18 12:53:13.892 DEBUG:  PowerManagerService : [input device light] setInputDeviceLightOn is called : 1
5272016-10-18 12:53:13.892 DEBUG:  PowerManagerService : [input device light] handleInputDeviceLightOn
5282016-10-18 12:53:13.892 INFO:   Finsky : [1] com.google.android.finsky.receivers.j.a(1226): Installer kick - no action, not running yet
5292016-10-18 12:53:13.892 DEBUG:  ActivityManager : startProcessLocked calleePkgName: com.sec.android.app.samsungapps, hostingType: broadcast
5302016-10-18 12:53:13.892 ERROR:  ActivityManager : checkUser: useridlist=null, currentuser=0
5312016-10-18 12:53:13.892 ERROR:  ActivityManager : checkUser: useridlist=null, currentuser=0
5322016-10-18 12:53:13.892 ERROR:  ActivityManager : checkUser: useridlist=null, currentuser=0
5332016-10-18 12:53:13.892 ERROR:  ActivityManager : checkUser: useridlist=null, currentuser=0
5342016-10-18 12:53:13.902 INFO:   Finsky : [1] com.google.android.finsky.c.l.a(270): result=false type=4
5352016-10-18 12:53:13.912 DEBUG:  PowerManagerService : [input device light] setInputDeviceLightOn is called : 1
5362016-10-18 12:53:13.912 DEBUG:  PowerManagerService : [input device light] handleInputDeviceLightOn
5372016-10-18 12:53:13.912 ERROR:  Zygote : MountEmulatedStorage()
5382016-10-18 12:53:13.912 INFO:   libpersona : KNOX_SDCARD checking this for 10008
5392016-10-18 12:53:13.912 ERROR:  Zygote : v2
5402016-10-18 12:53:13.912 INFO:   libpersona : KNOX_SDCARD not a persona
5412016-10-18 12:53:13.912 INFO:   SELinux : Function: selinux_compare_spd_ram, SPD-policy is existed. and_ver=SEPF_GT-I9505_5.0.1-1 ver=51
5422016-10-18 12:53:13.912 INFO:   ActivityManager : Start proc com.sec.android.app.samsungapps for broadcast com.sec.android.app.samsungapps/.MyPackageReplacedReceiver: pid=27157 uid=10008 gids={50008, 9997, 1028, 1015, 3003} abi=armeabi-v7a
5432016-10-18 12:53:13.912 INFO:   SELinux : Function: selinux_compare_spd_ram , priority [1] , priority version is VE=SEPF_GT-I9505_5.0.1-1_0051
5442016-10-18 12:53:13.912 DEBUG:  ActivityManager : startService callerProcessName:com.android.vending, calleePkgName: com.android.vending
5452016-10-18 12:53:13.922 ERROR:  SELinux : [DEBUG] get_category: variable seinfo: samsung sensitivity: NULL, cateogry: NULL
5462016-10-18 12:53:13.932 ERROR:  AffinityControl : AffinityControl: registerfunction enter
5472016-10-18 12:53:13.932 INFO:   Finsky : [1] com.google.android.finsky.utils.bh.run(2302): Package state data is missing for org.adblockplus.adblockplussbrowser
5482016-10-18 12:53:13.932 WARN:   Finsky : [1] com.google.android.finsky.FinskyApp.i(1465): No account configured on this device.
5492016-10-18 12:53:13.952 DEBUG:  AndroidRuntime : Calling main entry com.android.commands.monkey.Monkey
5502016-10-18 12:53:13.962 DEBUG:  ConnectivityService : returning getNetworkInfo(networkType - 1) :[type: WIFI[] - WIFI, state: CONNECTED/CONNECTED, reason: (unspecified), extra: "TestObject Devices", roaming: false, failover: false, isAvailable: true, isConnectedToProvisioningNetwork: false]
5512016-10-18 12:53:13.962 WARN:   BroadcastQueue : Skipping deliver [background] BroadcastRecord{12302707 u-1 android.net.conn.CONNECTIVITY_CHANGE} to ReceiverList{20cef034 27117 (unknown name)/2000/u-1 remote:38adc121}: process crashing
5522016-10-18 12:53:13.972 INFO:   Finsky : [1] com.google.android.finsky.services.bc.a(1050): Restore complete with 0 success and 0 failed.
5532016-10-18 12:53:13.972 DEBUG:  ResourcesManager : creating new AssetManager and set to /data/app/com.sec.android.app.samsungapps-2/base.apk
5542016-10-18 12:53:13.982 INFO:   ActivityManager : Killing 25781:com.android.keychain/1000 (adj 15): emptyCount ##36
5552016-10-18 12:53:13.992 WARN:   ResourcesManager : Asset path '/system/framework/secvision.jar' does not exist or contains no resources.
5562016-10-18 12:53:14.002 INFO:   TOOLKIT SERVICE : Request body '{"id":"1476780785133","type":"GET_SCREEN_ORIENTATION"}'
5572016-10-18 12:53:14.002 INFO:   DEVICE MANAGER : {"id":"1476780785133","type":"GET_SCREEN_ORIENTATION"}
5582016-10-18 12:53:14.002 INFO:   Timeline : Timeline: Activity_launch_request id:org.adblockplus.adblockplussbrowser time:502822087
5592016-10-18 12:53:14.002 ERROR:  PersonaManagerService : inState():  stateMachine is null !!
5602016-10-18 12:53:14.002 INFO:   PersonaManagerService : PersonaId don't exist
5612016-10-18 12:53:14.002 INFO:   ActivityManager : do not start freezing screen for locked container getKeyguardshowstate = false
5622016-10-18 12:53:14.002 WARN:   Finsky : [34975] com.google.android.finsky.FinskyApp.i(1465): No account configured on this device.
5632016-10-18 12:53:14.012 INFO:   TOOLKIT SERVICE : Responding to client with: '{"id":"1476780785133","orientation":"PORTRAIT"}'
5642016-10-18 12:53:14.012 INFO:   ActivityManager : START u0 {act=android.intent.action.MAIN cat=[android.intent.category.LAUNCHER] flg=0x10200000 cmp=org.adblockplus.adblockplussbrowser/org.adblockplus.sbrowser.contentblocker.MainPreferences} from uid 2000 on display 0
5652016-10-18 12:53:14.012 DEBUG:  ResourcesManager : creating new AssetManager and set to /data/app/org.adblockplus.adblockplussbrowser-1/base.apk
5662016-10-18 12:53:14.012 WARN:   ActivityManager : mDVFSHelper.acquire()
5672016-10-18 12:53:14.012 DEBUG:  FocusedStackFrame : Set to : 0
5682016-10-18 12:53:14.012 DEBUG:  PowerManagerService : [input device light] setInputDeviceLightOn is called : 1
5692016-10-18 12:53:14.012 DEBUG:  PowerManagerService : [input device light] handleInputDeviceLightOn
5702016-10-18 12:53:14.012 DEBUG:  Launcher.HomeView : onPause
5712016-10-18 12:53:14.012 DEBUG:  Launcher : Launcher::setSystemUiTransparency(): getSystemUiVisibility() after setting  = 40000000
5722016-10-18 12:53:14.022 DEBUG:  SettingsProvider : name = user_rotation
5732016-10-18 12:53:14.022 DEBUG:  SettingsProvider : name = accelerometer_rotation
5742016-10-18 12:53:14.022 ERROR:  ActivityManager : checkUser: useridlist=null, currentuser=0
5752016-10-18 12:53:14.022 DEBUG:  SettingsProvider : name = accelerometer_rotation
5762016-10-18 12:53:14.022 ERROR:  ActivityManager : checkUser: useridlist=null, currentuser=0
5772016-10-18 12:53:14.022 ERROR:  ActivityManager : checkUser: useridlist=null, currentuser=0
5782016-10-18 12:53:14.022 ERROR:  ActivityManager : checkUser: useridlist=null, currentuser=0
5792016-10-18 12:53:14.042 ERROR:  Zygote : MountEmulatedStorage()
5802016-10-18 12:53:14.042 INFO:   libpersona : KNOX_SDCARD checking this for 13655
5812016-10-18 12:53:14.042 ERROR:  Zygote : v2
5822016-10-18 12:53:14.042 INFO:   libpersona : KNOX_SDCARD not a persona
5832016-10-18 12:53:14.042 DEBUG:  PointerIcon : setMouseIconStyle1 pointerType: 1001iconType:101 flag:0
5842016-10-18 12:53:14.042 DEBUG:  PointerIcon : setMouseCustomIcon IconType is same.101
5852016-10-18 12:53:14.042 DEBUG:  PointerIcon : setHoveringSpenIconStyle1 pointerType: 10001iconType:1 flag:0
5862016-10-18 12:53:14.042 DEBUG:  PointerIcon : setHoveringSpenCustomIcon IconType is same.1
5872016-10-18 12:53:14.042 INFO:   ActivityManager : Start proc org.adblockplus.adblockplussbrowser for activity org.adblockplus.adblockplussbrowser/org.adblockplus.sbrowser.contentblocker.MainPreferences: pid=27175 uid=13655 gids={53655, 9997, 3003} abi=armeabi-v7a
5882016-10-18 12:53:14.042 INFO:   SELinux : Function: selinux_compare_spd_ram, SPD-policy is existed. and_ver=SEPF_GT-I9505_5.0.1-1 ver=51
5892016-10-18 12:53:14.042 INFO:   SELinux : Function: selinux_compare_spd_ram , priority [1] , priority version is VE=SEPF_GT-I9505_5.0.1-1_0051
5902016-10-18 12:53:14.052 ERROR:  SELinux : [DEBUG] get_category: variable seinfo: default sensitivity: NULL, cateogry: NULL
5912016-10-18 12:53:14.052 DEBUG:  SContextService : .registerCallback : 2, client=
5922016-10-18 12:53:14.052 WARN:   CAE : setCAProperty(ContextAwareService.java:464) - [setProperty 01] Mutex is locked for AUTO_ROTATION
5932016-10-18 12:53:14.062 INFO:   CAE : setPropertyValue(AutoRotationRunner.java:119) - Device Type = 0.0
5942016-10-18 12:53:14.062 INFO:   CAE : setCAProperty(ContextAwareService.java:469) - result : true
5952016-10-18 12:53:14.062 WARN:   CAE : setCAProperty(ContextAwareService.java:470) - [setProperty 02] Mutex is unlocked for AUTO_ROTATION
5962016-10-18 12:53:14.062 DEBUG:  SmartFaceIndicator : no icon
5972016-10-18 12:53:14.062 DEBUG:  SContextService : sendAttribute() : service = Auto Rotation
5982016-10-18 12:53:14.062 ERROR:  SmartFaceService : mActiveServiceType: 0
5992016-10-18 12:53:14.062 ERROR:  SmartFaceService : mScrollEnabled:false mPauseEnabled:false mStayEnabled:false mRotationEnabled:false, (false,true)
6002016-10-18 12:53:14.062 ERROR:  SmartFaceService : mLightIntensityEnough: true mLux: 0.0
6012016-10-18 12:53:14.062 DEBUG:  Scroll/Pause Worker : updateClientsDone.
6022016-10-18 12:53:14.062 DEBUG:  Stay/Rotation Worker : updateClientsDone. def. do nothing.
6032016-10-18 12:53:14.062 ERROR:  SmartFaceService : Service Type to Worker: 0
6042016-10-18 12:53:14.062 ERROR:  SmartFaceService : Last Active clients:0 Current Active clients: 0
6052016-10-18 12:53:14.062 ERROR:  SmartFaceService : Last Smart Pause clients: 0 Current Smart Pause clients: 0
6062016-10-18 12:53:14.062 DEBUG:  STATUSBAR-AutoRotateQuickSettingButton : Settings.System.ACCELEROMETER_ROTATION has been changed to 1
6072016-10-18 12:53:14.062 WARN:   CAE : registerCallback(ContextAwareService.java:137) - [regi 01] Mutex is locked for AUTO_ROTATION
6082016-10-18 12:53:14.062 DEBUG:  STATUSBAR-AutoRotateQuickSettingButton : Settings.System.ACCELEROMETER_ROTATION has been changed to 1
6092016-10-18 12:53:14.062 DEBUG:  SurfaceFlinger : FPS : 3.16
6102016-10-18 12:53:14.062 WARN:   SurfaceFlinger : Fail to Open /sys/devices/platform/gpusysfs/fps
6112016-10-18 12:53:14.072 DEBUG:  STATUSBAR-QSTileView : onStateChanged: Screen
6122016-10-18 12:53:14.072 DEBUG:  STATUSBAR-QSTileView : rotation
6132016-10-18 12:53:14.072 INFO:   CAE : sendCmdToSensorHub(SensorHubCommManager.java:144) - -79, 7, 0, 0,
6142016-10-18 12:53:14.072 DEBUG:  SensorHubManager : SendSensorHubData: send data = -79, 7, 0, 0
6152016-10-18 12:53:14.072 DEBUG:  Sensorhubs : sendContextData: -79, 7, 0, 0
6162016-10-18 12:53:14.082 DEBUG:  CAE : getFaultDetectionResult(AutoRotationRunner.java:195) - true
6172016-10-18 12:53:14.082 INFO:   CAE : notifyCmdProcessResultObserver(ContextProvider.java:617) - CheckResult = 0, Cause = Success
6182016-10-18 12:53:14.132 DEBUG:  CAE : doCommendProcess(ContextAwareService.java:314) - complete notify the operation result.
6192016-10-18 12:53:14.132 INFO:   CAE : displayUsedCountForService(ContextAwareService.java:406) - totalCnt = 1, serviceCount = 1, subCollectionCount = 0
6202016-10-18 12:53:14.132 DEBUG:  CAE : showListenerList(ContextAwareService.java:247) - ===== Context Aware Service List =====
6212016-10-18 12:53:14.142 INFO:   CAE : showListenerList(ContextAwareService.java:256) - Listener : com.samsung.android.contextaware.manager.ContextAwareService$Listener@1d3edb8a, Service : FLIP_COVER_ACTION(1)
6222016-10-18 12:53:14.142 INFO:   CAE : showListenerList(ContextAwareService.java:256) - Listener : com.samsung.android.contextaware.manager.ContextAwareService$Listener@2c18bff6, Service : AUTO_ROTATION(1)
6232016-10-18 12:53:14.142 WARN:   CAE : registerCallback(ContextAwareService.java:173) - [regi 02] Mutex is unlocked for AUTO_ROTATION
6242016-10-18 12:53:14.142 DEBUG:  SContextService : addSContextService() : service = Auto Rotation
6252016-10-18 12:53:14.142 DEBUG:  SContextService : ===== SContext Service List =====
6262016-10-18 12:53:14.142 DEBUG:  SContextService : Listener : android.hardware.scontext.SContextService$Listener@3163b5fb, Service : Flip Cover Action
6272016-10-18 12:53:14.142 DEBUG:  SContextService : Listener : android.hardware.scontext.SContextService$Listener@3f4adff7, Service : Auto Rotation
6282016-10-18 12:53:14.142 DEBUG:  SContextManager : .registerListener : listener = com.android.internal.policy.impl.WindowOrientationListener$SContextListenerImpl@1b8e26d5, service=Auto Rotation
6292016-10-18 12:53:14.152 DEBUG:  Launcher.HomeView : onStop
6302016-10-18 12:53:14.162 DEBUG:  SurfaceWidgetClient$ISurfaceWidgetStub : [237392/8] Surface widget visibility changed visibility = false on instance = 1
6312016-10-18 12:53:14.162 DEBUG:  SurfaceWidgetClient$ISurfaceWidgetStub : [237392/8] Surface widget visibility changed visibility = false on instance = 1
6322016-10-18 12:53:14.162 DEBUG:  SurfaceWidgetClient$ISurfaceWidgetStub : [237392/8] Surface widget visibility changed visibility = false on instance = 1
6332016-10-18 12:53:14.172 ERROR:  SMD : smd Interface open failed errno is 2 -1
6342016-10-18 12:53:14.182 DEBUG:  SurfaceWidgetView : destroyHardwareResources():578072690
6352016-10-18 12:53:14.182 DEBUG:  SurfaceWidgetView : destroyHardwareResources():482517113
6362016-10-18 12:53:14.182 DEBUG:  SurfaceWidgetView : destroyHardwareResources():93157740
6372016-10-18 12:53:14.192 DEBUG:  SurfaceFlinger : FPS : 3.16
6382016-10-18 12:53:14.192 WARN:   SurfaceFlinger : Fail to Open /sys/devices/platform/gpusysfs/fps
6392016-10-18 12:53:14.222 DEBUG:  ResourcesManager : creating new AssetManager and set to /data/app/org.adblockplus.adblockplussbrowser-1/base.apk
6402016-10-18 12:53:14.232 DEBUG:  Launcher : onTrimMemory. Level: 20
6412016-10-18 12:53:14.232 INFO:   art : System.exit called, status: 0
6422016-10-18 12:53:14.232 INFO:   AndroidRuntime : VM exiting with result code 0.
6432016-10-18 12:53:14.232 DEBUG:  SurfaceFlinger : FPS : 3.16
6442016-10-18 12:53:14.232 WARN:   SurfaceFlinger : Fail to Open /sys/devices/platform/gpusysfs/fps
6452016-10-18 12:53:14.232 DEBUG:  StatusBarManagerService : manageDisableList userId=0 what=0x0 pkg=WindowManager.LayoutParams
6462016-10-18 12:53:14.252 INFO:   ContentBlockerContentProvider : onCreate() called
6472016-10-18 12:53:14.262 DEBUG:  SurfaceWidgetView : destroyHardwareResources():578072690
6482016-10-18 12:53:14.262 DEBUG:  ActivityManager : startService callerProcessName:org.adblockplus.adblockplussbrowser, calleePkgName: org.adblockplus.adblockplussbrowser
6492016-10-18 12:53:14.262 DEBUG:  SurfaceWidgetView : destroyHardwareResources():482517113
6502016-10-18 12:53:14.262 DEBUG:  SurfaceWidgetView : destroyHardwareResources():93157740
6512016-10-18 12:53:14.262 DEBUG:  SurfaceFlinger : FPS : 3.16
6522016-10-18 12:53:14.262 WARN:   SurfaceFlinger : Fail to Open /sys/devices/platform/gpusysfs/fps
6532016-10-18 12:53:14.262 INFO:   ContentBlockerContentProvider : Requested service startup
6542016-10-18 12:53:14.272 DEBUG:  SurfaceFlinger : FPS : 3.16
6552016-10-18 12:53:14.272 WARN:   SurfaceFlinger : Fail to Open /sys/devices/platform/gpusysfs/fps
6562016-10-18 12:53:14.282 DEBUG:  SurfaceFlinger : FPS : 3.16
6572016-10-18 12:53:14.282 WARN:   SurfaceFlinger : Fail to Open /sys/devices/platform/gpusysfs/fps
6582016-10-18 12:53:14.322 DEBUG:  SurfaceFlinger : FPS : 23.68
6592016-10-18 12:53:14.322 WARN:   SurfaceFlinger : Fail to Open /sys/devices/platform/gpusysfs/fps
6602016-10-18 12:53:14.332 DEBUG:  SurfaceFlinger : FPS : 23.68
6612016-10-18 12:53:14.332 WARN:   SurfaceFlinger : Fail to Open /sys/devices/platform/gpusysfs/fps
6622016-10-18 12:53:14.352 DEBUG:  SurfaceFlinger : FPS : 23.68
6632016-10-18 12:53:14.352 WARN:   SurfaceFlinger : Fail to Open /sys/devices/platform/gpusysfs/fps
6642016-10-18 12:53:14.362 DEBUG:  SurfaceFlinger : FPS : 23.68
6652016-10-18 12:53:14.362 WARN:   SurfaceFlinger : Fail to Open /sys/devices/platform/gpusysfs/fps
6662016-10-18 12:53:14.382 DEBUG:  AbsListView : Get MotionRecognitionManager
6672016-10-18 12:53:14.382 DEBUG:  MotionRecognitionService : ssp status : true
6682016-10-18 12:53:14.382 DEBUG:  SurfaceFlinger : FPS : 23.68
6692016-10-18 12:53:14.382 WARN:   SurfaceFlinger : Fail to Open /sys/devices/platform/gpusysfs/fps
6702016-10-18 12:53:14.402 DEBUG:  SurfaceFlinger : FPS : 23.68
6712016-10-18 12:53:14.402 WARN:   SurfaceFlinger : Fail to Open /sys/devices/platform/gpusysfs/fps
6722016-10-18 12:53:14.412 DEBUG:  AbsListView : Get MotionRecognitionManager
6732016-10-18 12:53:14.412 DEBUG:  SurfaceFlinger : FPS : 23.68
6742016-10-18 12:53:14.412 WARN:   SurfaceFlinger : Fail to Open /sys/devices/platform/gpusysfs/fps
6752016-10-18 12:53:14.422 WARN:   Resources : Converting to string: TypedValue{t=0x10/d=0x1 a=-1}
6762016-10-18 12:53:14.422 DEBUG:  Activity : performCreate Call secproduct feature valuefalse
6772016-10-18 12:53:14.422 DEBUG:  Activity : performCreate Call debug elastic valuetrue
6782016-10-18 12:53:14.432 WARN:   Resources : Converting to string: TypedValue{t=0x10/d=0x1 a=-1}
6792016-10-18 12:53:14.432 WARN:   Resources : Converting to string: TypedValue{t=0x10/d=0x1 a=-1}
6802016-10-18 12:53:14.432 DEBUG:  SurfaceFlinger : FPS : 23.68
6812016-10-18 12:53:14.432 DEBUG:  AbsListView : Get MotionRecognitionManager
6822016-10-18 12:53:14.432 WARN:   SurfaceFlinger : Fail to Open /sys/devices/platform/gpusysfs/fps
6832016-10-18 12:53:14.442 DEBUG:  ActivityManager : startService callerProcessName:org.adblockplus.adblockplussbrowser, calleePkgName: org.adblockplus.adblockplussbrowser
6842016-10-18 12:53:14.442 DEBUG:  ActivityManager : startService callerProcessName:org.adblockplus.adblockplussbrowser, calleePkgName: org.adblockplus.adblockplussbrowser
6852016-10-18 12:53:14.442 DEBUG:  ActivityManager : startService callerProcessName:org.adblockplus.adblockplussbrowser, calleePkgName: org.adblockplus.adblockplussbrowser
6862016-10-18 12:53:14.442 DEBUG:  SurfaceFlinger : FPS : 23.68
6872016-10-18 12:53:14.442 WARN:   SurfaceFlinger : Fail to Open /sys/devices/platform/gpusysfs/fps
6882016-10-18 12:53:14.462 DEBUG:  SurfaceFlinger : FPS : 23.68
6892016-10-18 12:53:14.462 WARN:   SurfaceFlinger : Fail to Open /sys/devices/platform/gpusysfs/fps
6902016-10-18 12:53:14.482 DEBUG:  OpenGLRenderer : Render dirty regions requested: true
6912016-10-18 12:53:14.482 DEBUG:  PointerIcon : setMouseIconStyle1 pointerType: 1001iconType:101 flag:0
6922016-10-18 12:53:14.482 DEBUG:  PointerIcon : setMouseCustomIcon IconType is same.101
6932016-10-18 12:53:14.482 DEBUG:  PointerIcon : setHoveringSpenIconStyle1 pointerType: 10001iconType:1 flag:0
6942016-10-18 12:53:14.482 DEBUG:  PointerIcon : setHoveringSpenCustomIcon IconType is same.1
6952016-10-18 12:53:14.482 DEBUG:  ActivityManager : startService callerProcessName:org.adblockplus.adblockplussbrowser, calleePkgName: org.adblockplus.adblockplussbrowser
6962016-10-18 12:53:14.492 DEBUG:  ActivityManager : post active user change for 0
6972016-10-18 12:53:14.492 DEBUG:  KnoxTimeoutHandler : postActiveUserChange for user 0
6982016-10-18 12:53:14.492 DEBUG:  KnoxTimeoutHandler : handleActiveUserChange for user 0
6992016-10-18 12:53:14.492 DEBUG:  Sppmt : Test mode:false, cfgFileExist:false, canWrite:false
7002016-10-18 12:53:14.492 DEBUG:  ActivityManager : startService callerProcessName:com.sec.android.app.samsungapps, calleePkgName: com.sec.android.app.samsungapps
7012016-10-18 12:53:14.502 DEBUG:  [SAUI] : Global::recovered::false
7022016-10-18 12:53:14.502 INFO:   TOOLKIT SERVICE : Request body '{"id":"1476780785633","type":"GET_SCREEN_ORIENTATION"}'
7032016-10-18 12:53:14.502 INFO:   DEVICE MANAGER : {"id":"1476780785633","type":"GET_SCREEN_ORIENTATION"}
7042016-10-18 12:53:14.502 INFO:   TOOLKIT SERVICE : Responding to client with: '{"id":"1476780785633","orientation":"PORTRAIT"}'
7052016-10-18 12:53:14.512 DEBUG:  SurfaceFlinger : FPS : 23.68
7062016-10-18 12:53:14.512 WARN:   SurfaceFlinger : Fail to Open /sys/devices/platform/gpusysfs/fps
7072016-10-18 12:53:14.512 DEBUG:  ActivityManager : startService callerProcessName:com.google.android.gms, calleePkgName: com.google.android.gms
7082016-10-18 12:53:14.512 DEBUG:  Engine : Migration done
7092016-10-18 12:53:14.512 DEBUG:  Engine : Creating engine, appInfo={addonName=adblockplussbrowser, addonVersion=1.0.4, application=sbrowser, applicationVersion=4.0.10-53, platform=android, platformVersion=21, locale=en-GB}
7102016-10-18 12:53:14.522 DEBUG:  ActivityManager : startService callerProcessName:com.google.android.gms, calleePkgName: com.google.android.gms
7112016-10-18 12:53:14.522 DEBUG:  SurfaceFlinger : FPS : 23.68
7122016-10-18 12:53:14.522 WARN:   SurfaceFlinger : Fail to Open /sys/devices/platform/gpusysfs/fps
7132016-10-18 12:53:14.532 DEBUG:  Engine : Finished reading 'subscriptions.xml'
7142016-10-18 12:53:14.532 DEBUG:  Engine : Finished reading JSON preferences
7152016-10-18 12:53:14.532 DEBUG:  Engine : Subscription storage was uninitialized, initializing...
7162016-10-18 12:53:14.532 INFO:   Adreno-EGL : <qeglDrvAPI_eglInitialize:410>: EGL 1.4 QUALCOMM build:  ()
7172016-10-18 12:53:14.532 INFO:   Adreno-EGL : OpenGL ES Shader Compiler Version: E031.25.03.06
7182016-10-18 12:53:14.532 INFO:   Adreno-EGL : Build Date: 01/24/15 Sat
7192016-10-18 12:53:14.532 INFO:   Adreno-EGL : Local Branch: AF11_RB1_AU15
7202016-10-18 12:53:14.532 INFO:   Adreno-EGL : Remote Branch:
7212016-10-18 12:53:14.532 INFO:   Adreno-EGL : Local Patches:
7222016-10-18 12:53:14.532 INFO:   Adreno-EGL : Reconstruct Branch:
7232016-10-18 12:53:14.542 INFO:   OpenGLRenderer : Initialized EGL, version 1.4
7242016-10-18 12:53:14.542 DEBUG:  ActivityManager : startService callerProcessName:com.google.android.gms, calleePkgName: com.google.android.gms
7252016-10-18 12:53:14.552 DEBUG:  ActivityManager : bindService callerProcessName:com.google.android.gms, calleePkgName: com.google.android.gms, action: com.google.android.gms.common.BIND_SHARED_PREFS
7262016-10-18 12:53:14.562 DEBUG:  SurfaceFlinger : FPS : 23.68
7272016-10-18 12:53:14.562 WARN:   SurfaceFlinger : Fail to Open /sys/devices/platform/gpusysfs/fps
7282016-10-18 12:53:14.583 DEBUG:  ActivityManager : startService callerProcessName:com.google.android.gms, calleePkgName: com.google.android.gms
7292016-10-18 12:53:14.583 DEBUG:  OpenGLRenderer : Enabling debug mode 0
7302016-10-18 12:53:14.593 DEBUG:  ActivityManager : startService callerProcessName:com.google.android.gms, calleePkgName: com.google.android.gms
7312016-10-18 12:53:14.593 DEBUG:  ActivityManager : startProcessLocked calleePkgName: com.sec.android.app.sbrowser, hostingType: broadcast
7322016-10-18 12:53:14.593 ERROR:  ActivityManager : checkUser: useridlist=null, currentuser=0
7332016-10-18 12:53:14.593 ERROR:  ActivityManager : checkUser: useridlist=null, currentuser=0
7342016-10-18 12:53:14.593 ERROR:  ActivityManager : checkUser: useridlist=null, currentuser=0
7352016-10-18 12:53:14.593 ERROR:  ActivityManager : checkUser: useridlist=null, currentuser=0
7362016-10-18 12:53:14.613 ERROR:  Zygote : MountEmulatedStorage()
7372016-10-18 12:53:14.613 ERROR:  Zygote : v2
7382016-10-18 12:53:14.613 INFO:   libpersona : KNOX_SDCARD checking this for 10176
7392016-10-18 12:53:14.613 INFO:   libpersona : KNOX_SDCARD not a persona
7402016-10-18 12:53:14.613 INFO:   SELinux : Function: selinux_compare_spd_ram, SPD-policy is existed. and_ver=SEPF_GT-I9505_5.0.1-1 ver=51
7412016-10-18 12:53:14.613 INFO:   ActivityManager : Start proc com.sec.android.app.sbrowser for broadcast com.sec.android.app.sbrowser/.preferences.ContentBlockerReceiver: pid=27219 uid=10176 gids={50176, 9997, 1023, 3003, 1028, 1015, 1007, 3001, 3002} abi=armeabi-v7a
7422016-10-18 12:53:14.613 INFO:   SELinux : Function: selinux_compare_spd_ram , priority [1] , priority version is VE=SEPF_GT-I9505_5.0.1-1_0051
7432016-10-18 12:53:14.613 DEBUG:  ActivityManager : startService callerProcessName:com.google.android.gms, calleePkgName: com.google.android.gms
7442016-10-18 12:53:14.613 ERROR:  SELinux : [DEBUG] get_category: variable seinfo: platform sensitivity: NULL, cateogry: NULL
7452016-10-18 12:53:14.623 DEBUG:  ActivityManager : startService callerProcessName:com.google.android.gms, calleePkgName: com.google.android.gms
7462016-10-18 12:53:14.623 DEBUG:  SurfaceFlinger : FPS : 42.26
7472016-10-18 12:53:14.623 WARN:   SurfaceFlinger : Fail to Open /sys/devices/platform/gpusysfs/fps
7482016-10-18 12:53:14.633 DEBUG:  PowerManagerService : [input device light] setInputDeviceLightOn is called : 1
7492016-10-18 12:53:14.633 DEBUG:  PowerManagerService : [input device light] handleInputDeviceLightOn
7502016-10-18 12:53:14.643 DEBUG:  SurfaceFlinger : FPS : 42.26
7512016-10-18 12:53:14.643 WARN:   SurfaceFlinger : Fail to Open /sys/devices/platform/gpusysfs/fps
7522016-10-18 12:53:14.673 DEBUG:  ActivityManager : startService callerProcessName:com.google.android.gms, calleePkgName: com.google.android.gms
7532016-10-18 12:53:14.673 DEBUG:  ActivityManager : startService callerProcessName:com.google.android.gms, calleePkgName: com.google.android.gms
7542016-10-18 12:53:14.693 DEBUG:  ActivityManager : startService callerProcessName:com.google.android.gms, calleePkgName: com.google.android.gms
7552016-10-18 12:53:14.703 DEBUG:  ResourcesManager : creating new AssetManager and set to /data/app/com.sec.android.app.sbrowser-1/base.apk
7562016-10-18 12:53:14.703 WARN:   ResourcesManager : Asset path '/system/framework/secsmartcard.jar' does not exist or contains no resources.
7572016-10-18 12:53:14.713 WARN:   ResourcesManager : Asset path '/system/framework/twframework.jar' does not exist or contains no resources.
7582016-10-18 12:53:14.713 WARN:   ResourcesManager : Asset path '/system/framework/allshare.jar' does not exist or contains no resources.
7592016-10-18 12:53:14.723 WARN:   ResourcesManager : Asset path '/system/framework/secvision.jar' does not exist or contains no resources.
7602016-10-18 12:53:14.803 DEBUG:  ActivityManager : startService callerProcessName:com.google.android.gms, calleePkgName: com.google.android.gms
7612016-10-18 12:53:14.813 DEBUG:  SurfaceFlinger : FPS : 42.26
7622016-10-18 12:53:14.813 WARN:   SurfaceFlinger : Fail to Open /sys/devices/platform/gpusysfs/fps
7632016-10-18 12:53:14.823 DEBUG:  SurfaceFlinger : FPS : 42.26
7642016-10-18 12:53:14.823 WARN:   SurfaceFlinger : Fail to Open /sys/devices/platform/gpusysfs/fps
7652016-10-18 12:53:14.833 DEBUG:  PackageManager : [MSG] WRITE_PACKAGE_RESTRICTIONS
7662016-10-18 12:53:14.863 DEBUG:  SurfaceFlinger : FPS : 42.26
7672016-10-18 12:53:14.863 WARN:   SurfaceFlinger : Fail to Open /sys/devices/platform/gpusysfs/fps
7682016-10-18 12:53:14.873 DEBUG:  SurfaceFlinger : FPS : 19.95
7692016-10-18 12:53:14.873 WARN:   SurfaceFlinger : Fail to Open /sys/devices/platform/gpusysfs/fps
7702016-10-18 12:53:14.893 INFO:   ActivityManager : Displayed org.adblockplus.adblockplussbrowser/org.adblockplus.sbrowser.contentblocker.MainPreferences: +866ms (total +4m40s892ms)
7712016-10-18 12:53:14.893 DEBUG:  SurfaceFlinger : FPS : 19.95
7722016-10-18 12:53:14.893 WARN:   SurfaceFlinger : Fail to Open /sys/devices/platform/gpusysfs/fps
7732016-10-18 12:53:14.893 WARN:   ActivityManager : mDVFSHelper.release()
7742016-10-18 12:53:14.893 INFO:   Timeline : Timeline: Activity_windows_visible id: ActivityRecord{1844e5d u0 org.adblockplus.adblockplussbrowser/org.adblockplus.sbrowser.contentblocker.MainPreferences t11691} time:502822975
7752016-10-18 12:53:14.903 INFO:   Timeline : Timeline: Activity_idle id: android.os.BinderProxy@f90523b time:502822981
7762016-10-18 12:53:14.903 DEBUG:  PowerManagerService : [input device light] setInputDeviceLightOn is called : 1
7772016-10-18 12:53:14.903 DEBUG:  PowerManagerService : [input device light] handleInputDeviceLightOn
7782016-10-18 12:53:14.913 DEBUG:  SurfaceFlinger : FPS : 19.95
7792016-10-18 12:53:14.913 WARN:   SurfaceFlinger : Fail to Open /sys/devices/platform/gpusysfs/fps
7802016-10-18 12:53:14.933 DEBUG:  SurfaceFlinger : FPS : 19.95
7812016-10-18 12:53:14.933 WARN:   SurfaceFlinger : Fail to Open /sys/devices/platform/gpusysfs/fps
7822016-10-18 12:53:14.953 DEBUG:  SurfaceFlinger : FPS : 19.95
7832016-10-18 12:53:14.953 WARN:   SurfaceFlinger : Fail to Open /sys/devices/platform/gpusysfs/fps
7842016-10-18 12:53:14.953 WARN:   IcingInternalCorpora : getNumBytesRead when not calculated.
7852016-10-18 12:53:14.963 DEBUG:  ActivityManager : startService callerProcessName:com.google.android.gms, calleePkgName: com.google.android.gms
7862016-10-18 12:53:14.963 INFO:   art : Background sticky concurrent mark sweep GC freed 10221(1736KB) AllocSpace objects, 6(161KB) LOS objects, 5% free, 24MB/25MB, paused 2.990ms total 106.170ms
7872016-10-18 12:53:14.963 DEBUG:  SurfaceFlinger : FPS : 19.95
7882016-10-18 12:53:14.963 WARN:   SurfaceFlinger : Fail to Open /sys/devices/platform/gpusysfs/fps
7892016-10-18 12:53:14.973 INFO:   Icing : Usage reports 0 indexed 0 rejected 0 imm upload false
7902016-10-18 12:53:14.983 DEBUG:  SurfaceFlinger : FPS : 19.95
7912016-10-18 12:53:14.983 WARN:   SurfaceFlinger : Fail to Open /sys/devices/platform/gpusysfs/fps
7922016-10-18 12:53:14.983 DEBUG:  ActivityManager : startService callerProcessName:com.google.android.gms, calleePkgName: com.google.android.gms
7932016-10-18 12:53:14.993 DEBUG:  SurfaceFlinger : FPS : 19.95
7942016-10-18 12:53:14.993 WARN:   SurfaceFlinger : Fail to Open /sys/devices/platform/gpusysfs/fps
7952016-10-18 12:53:15.003 INFO:   Icing : Usage reports 0 indexed 0 rejected 0 imm upload false
7962016-10-18 12:53:15.003 INFO:   TOOLKIT SERVICE : Request body '{"id":"1476780786133","type":"GET_SCREEN_ORIENTATION"}'
7972016-10-18 12:53:15.003 INFO:   DEVICE MANAGER : {"id":"1476780786133","type":"GET_SCREEN_ORIENTATION"}
7982016-10-18 12:53:15.013 INFO:   TOOLKIT SERVICE : Responding to client with: '{"id":"1476780786133","orientation":"PORTRAIT"}'
7992016-10-18 12:53:15.013 DEBUG:  SurfaceFlinger : FPS : 19.95
8002016-10-18 12:53:15.013 WARN:   SurfaceFlinger : Fail to Open /sys/devices/platform/gpusysfs/fps
8012016-10-18 12:53:15.033 DEBUG:  SurfaceFlinger : FPS : 19.95
8022016-10-18 12:53:15.033 WARN:   SurfaceFlinger : Fail to Open /sys/devices/platform/gpusysfs/fps
8032016-10-18 12:53:15.033 DEBUG:  ReflectField : Cannot load field: MULTIWINDOW_FLAG_DISABLE_FLOATING_WINDOW
8042016-10-18 12:53:15.033 DEBUG:  Engine : Added and enabled bundled easylist
8052016-10-18 12:53:15.043 INFO:   SBrowserUtils : getSystemProperty of sales_code : VD2
8062016-10-18 12:53:15.043 INFO:   SBrowserUtils : getSystemProperty of country_code : Germany
8072016-10-18 12:53:15.043 INFO:   SBrowserUtils : getSystemProperty of country_code : Germany
8082016-10-18 12:53:15.043 INFO:   SBrowserUtils : getSystemProperty of countryiso_code : DE
8092016-10-18 12:53:15.043 DEBUG:  SurfaceFlinger : FPS : 19.95
8102016-10-18 12:53:15.043 WARN:   SurfaceFlinger : Fail to Open /sys/devices/platform/gpusysfs/fps
8112016-10-18 12:53:15.063 DEBUG:  SurfaceFlinger : FPS : 19.95
8122016-10-18 12:53:15.063 WARN:   SurfaceFlinger : Fail to Open /sys/devices/platform/gpusysfs/fps
8132016-10-18 12:53:15.083 DEBUG:  SurfaceFlinger : FPS : 19.95
8142016-10-18 12:53:15.083 WARN:   SurfaceFlinger : Fail to Open /sys/devices/platform/gpusysfs/fps
8152016-10-18 12:53:15.083 DEBUG:  ManifestProvider : onCreate()
8162016-10-18 12:53:15.083 DEBUG:  [MM]MHDataBaseProvider : onCreate()
8172016-10-18 12:53:15.093 DEBUG:  SBrowserContentProvider : addCarrierBookmarks called
8182016-10-18 12:53:15.093 INFO:   OperatorBookmarkParser : CSC data path
8192016-10-18 12:53:15.093 DEBUG:  SurfaceFlinger : FPS : 19.95
8202016-10-18 12:53:15.093 WARN:   SurfaceFlinger : Fail to Open /sys/devices/platform/gpusysfs/fps
8212016-10-18 12:53:15.113 DEBUG:  SurfaceFlinger : FPS : 19.95
8222016-10-18 12:53:15.113 WARN:   SurfaceFlinger : Fail to Open /sys/devices/platform/gpusysfs/fps
8232016-10-18 12:53:15.133 DEBUG:  SurfaceFlinger : FPS : 59.43
8242016-10-18 12:53:15.133 WARN:   SurfaceFlinger : Fail to Open /sys/devices/platform/gpusysfs/fps
8252016-10-18 12:53:15.143 DEBUG:  SBrowserContentProvider : addOperatorBookmarks called.
8262016-10-18 12:53:15.163 DEBUG:  SurfaceFlinger : FPS : 59.43
8272016-10-18 12:53:15.163 WARN:   SurfaceFlinger : Fail to Open /sys/devices/platform/gpusysfs/fps
8282016-10-18 12:53:15.163 DEBUG:  SurfaceFlinger : FPS : 59.43
8292016-10-18 12:53:15.163 WARN:   SurfaceFlinger : Fail to Open /sys/devices/platform/gpusysfs/fps
8302016-10-18 12:53:15.163 DEBUG:  ApplicationStatus : initialize application (com.sec.android.app.sbrowser.common.SBrowserMobileApplication@13627572)
8312016-10-18 12:53:15.173 ERROR:  SMD : smd Interface open failed errno is 2 -1
8322016-10-18 12:53:15.183 WARN:   Settings : Setting airplane_mode_on has moved from android.provider.Settings.System to android.provider.Settings.Global, returning read-only value.
8332016-10-18 12:53:15.183 DEBUG:  ContentBlockResourceManager : isAirplaneMode() return;
8342016-10-18 12:53:15.193 DEBUG:  SurfaceFlinger : FPS : 59.43
8352016-10-18 12:53:15.193 WARN:   SurfaceFlinger : Fail to Open /sys/devices/platform/gpusysfs/fps
8362016-10-18 12:53:15.213 DEBUG:  SurfaceFlinger : FPS : 59.43
8372016-10-18 12:53:15.213 WARN:   SurfaceFlinger : Fail to Open /sys/devices/platform/gpusysfs/fps
8382016-10-18 12:53:15.233 DEBUG:  SurfaceFlinger : FPS : 59.43
8392016-10-18 12:53:15.233 WARN:   SurfaceFlinger : Fail to Open /sys/devices/platform/gpusysfs/fps
8402016-10-18 12:53:15.233 DEBUG:  ActivityManager : startService callerProcessName:com.google.android.googlequicksearchbox, calleePkgName: com.google.android.googlequicksearchbox
8412016-10-18 12:53:15.243 DEBUG:  SurfaceFlinger : FPS : 59.43
8422016-10-18 12:53:15.243 WARN:   SurfaceFlinger : Fail to Open /sys/devices/platform/gpusysfs/fps
8432016-10-18 12:53:15.243 DEBUG:  ActivityManager : startService callerProcessName:com.google.android.googlequicksearchbox, calleePkgName: com.google.android.googlequicksearchbox
8442016-10-18 12:53:15.253 INFO:   SBrowserContentProvider : onCreate : create tables
8452016-10-18 12:53:15.263 DEBUG:  SurfaceFlinger : FPS : 59.43
8462016-10-18 12:53:15.263 WARN:   SurfaceFlinger : Fail to Open /sys/devices/platform/gpusysfs/fps
8472016-10-18 12:53:15.273 INFO:   UpdateIcingCorporaServi : Updating corpora: APPS=org.adblockplus.adblockplussbrowser, CONTACTS=MAYBE
8482016-10-18 12:53:15.283 DEBUG:  SurfaceFlinger : FPS : 59.43
8492016-10-18 12:53:15.283 WARN:   SurfaceFlinger : Fail to Open /sys/devices/platform/gpusysfs/fps
8502016-10-18 12:53:15.293 DEBUG:  Engine : Added and enabled bundled exceptionslist
8512016-10-18 12:53:15.293 DEBUG:  Engine : Added 49 additional default/built-in subscriptions
8522016-10-18 12:53:15.303 INFO:   SBrowserContentProvider : on Creating DB  QueryInternetSyncDb : count of internet_sync db is 0
8532016-10-18 12:53:15.303 DEBUG:  SurfaceFlinger : FPS : 59.43
8542016-10-18 12:53:15.303 WARN:   SurfaceFlinger : Fail to Open /sys/devices/platform/gpusysfs/fps
8552016-10-18 12:53:15.313 DEBUG:  SurfaceFlinger : FPS : 59.43
8562016-10-18 12:53:15.313 WARN:   SurfaceFlinger : Fail to Open /sys/devices/platform/gpusysfs/fps
8572016-10-18 12:53:15.333 DEBUG:  SurfaceFlinger : FPS : 59.43
8582016-10-18 12:53:15.333 WARN:   SurfaceFlinger : Fail to Open /sys/devices/platform/gpusysfs/fps
8592016-10-18 12:53:15.343 DEBUG:  SurfaceFlinger : FPS : 59.43
8602016-10-18 12:53:15.343 WARN:   SurfaceFlinger : Fail to Open /sys/devices/platform/gpusysfs/fps
8612016-10-18 12:53:15.363 INFO:   SBrowserContentProvider : SBrowserSync : moveBookmarksToNewRoot >>>>>>>update>>>>>>>> 0
8622016-10-18 12:53:15.363 DEBUG:  SurfaceFlinger : FPS : 59.43
8632016-10-18 12:53:15.363 WARN:   SurfaceFlinger : Fail to Open /sys/devices/platform/gpusysfs/fps
8642016-10-18 12:53:15.383 DEBUG:  SurfaceFlinger : FPS : 59.43
8652016-10-18 12:53:15.383 WARN:   SurfaceFlinger : Fail to Open /sys/devices/platform/gpusysfs/fps
8662016-10-18 12:53:15.393 DEBUG:  SurfaceFlinger : FPS : 56.28
8672016-10-18 12:53:15.393 WARN:   SurfaceFlinger : Fail to Open /sys/devices/platform/gpusysfs/fps
8682016-10-18 12:53:15.413 DEBUG:  ResourcesManager : creating new AssetManager and set to /data/app/org.adblockplus.adblockplussbrowser-1/base.apk
8692016-10-18 12:53:15.413 DEBUG:  SurfaceFlinger : FPS : 56.28
8702016-10-18 12:53:15.413 WARN:   SurfaceFlinger : Fail to Open /sys/devices/platform/gpusysfs/fps
8712016-10-18 12:53:15.433 DEBUG:  SurfaceFlinger : FPS : 56.28
8722016-10-18 12:53:15.433 WARN:   SurfaceFlinger : Fail to Open /sys/devices/platform/gpusysfs/fps
8732016-10-18 12:53:15.443 DEBUG:  SurfaceFlinger : FPS : 56.28
8742016-10-18 12:53:15.443 WARN:   SurfaceFlinger : Fail to Open /sys/devices/platform/gpusysfs/fps
8752016-10-18 12:53:15.463 DEBUG:  SurfaceFlinger : FPS : 56.28
8762016-10-18 12:53:15.463 WARN:   SurfaceFlinger : Fail to Open /sys/devices/platform/gpusysfs/fps
8772016-10-18 12:53:15.483 DEBUG:  SurfaceFlinger : FPS : 56.28
8782016-10-18 12:53:15.483 WARN:   SurfaceFlinger : Fail to Open /sys/devices/platform/gpusysfs/fps
8792016-10-18 12:53:15.493 DEBUG:  SurfaceFlinger : FPS : 56.28
8802016-10-18 12:53:15.493 WARN:   SurfaceFlinger : Fail to Open /sys/devices/platform/gpusysfs/fps
8812016-10-18 12:53:15.503 DEBUG:  ActivityManager : startService callerProcessName:com.google.android.gms, calleePkgName: com.google.android.gms
8822016-10-18 12:53:15.503 INFO:   Icing : Usage reports 0 indexed 0 rejected 0 imm upload true
8832016-10-18 12:53:15.513 DEBUG:  SurfaceFlinger : FPS : 56.28
8842016-10-18 12:53:15.513 WARN:   SurfaceFlinger : Fail to Open /sys/devices/platform/gpusysfs/fps
8852016-10-18 12:53:15.513 INFO:   TOOLKIT SERVICE : Request body '{"id":"1476780786633","type":"GET_SCREEN_ORIENTATION"}'
8862016-10-18 12:53:15.513 INFO:   DEVICE MANAGER : {"id":"1476780786633","type":"GET_SCREEN_ORIENTATION"}
8872016-10-18 12:53:15.513 INFO:   TOOLKIT SERVICE : Responding to client with: '{"id":"1476780786633","orientation":"PORTRAIT"}'
8882016-10-18 12:53:15.533 DEBUG:  SurfaceFlinger : FPS : 56.28
8892016-10-18 12:53:15.533 WARN:   SurfaceFlinger : Fail to Open /sys/devices/platform/gpusysfs/fps
8902016-10-18 12:53:15.543 INFO:   UpdateIcingCorporaServi : UpdateCorporaTask done [took 271 ms] updated apps [took 271 ms]
8912016-10-18 12:53:15.543 INFO:   ActivityManager : Killing 25747:com.sec.android.provider.badge/u0a117 (adj 15): emptyCount ##36
8922016-10-18 12:53:15.543 DEBUG:  SurfaceFlinger : FPS : 56.28
8932016-10-18 12:53:15.543 WARN:   SurfaceFlinger : Fail to Open /sys/devices/platform/gpusysfs/fps
8942016-10-18 12:53:15.563 DEBUG:  SurfaceFlinger : FPS : 56.28
8952016-10-18 12:53:15.563 WARN:   SurfaceFlinger : Fail to Open /sys/devices/platform/gpusysfs/fps
8962016-10-18 12:53:15.583 DEBUG:  SurfaceFlinger : FPS : 56.28
8972016-10-18 12:53:15.583 WARN:   SurfaceFlinger : Fail to Open /sys/devices/platform/gpusysfs/fps
8982016-10-18 12:53:15.593 DEBUG:  SurfaceFlinger : FPS : 56.28
8992016-10-18 12:53:15.593 WARN:   SurfaceFlinger : Fail to Open /sys/devices/platform/gpusysfs/fps
9002016-10-18 12:53:15.614 DEBUG:  SurfaceFlinger : FPS : 56.28
9012016-10-18 12:53:15.614 WARN:   SurfaceFlinger : Fail to Open /sys/devices/platform/gpusysfs/fps
9022016-10-18 12:53:15.624 INFO:   SwimQuickLaunchModel : Extracting : mostvisited.mhtml
9032016-10-18 12:53:15.634 DEBUG:  SurfaceFlinger : FPS : 56.28
9042016-10-18 12:53:15.634 WARN:   SurfaceFlinger : Fail to Open /sys/devices/platform/gpusysfs/fps
9052016-10-18 12:53:15.644 DEBUG:  SurfaceFlinger : FPS : 56.28
9062016-10-18 12:53:15.644 WARN:   SurfaceFlinger : Fail to Open /sys/devices/platform/gpusysfs/fps
9072016-10-18 12:53:15.654 INFO:   SwimQuickLaunchModel : Extracting : pinned.mhtml
9082016-10-18 12:53:15.664 DEBUG:  SurfaceFlinger : FPS : 59.51
9092016-10-18 12:53:15.664 WARN:   SurfaceFlinger : Fail to Open /sys/devices/platform/gpusysfs/fps
9102016-10-18 12:53:15.684 DEBUG:  SurfaceFlinger : FPS : 59.51
9112016-10-18 12:53:15.684 WARN:   SurfaceFlinger : Fail to Open /sys/devices/platform/gpusysfs/fps
9122016-10-18 12:53:15.694 DEBUG:  SurfaceFlinger : FPS : 59.51
9132016-10-18 12:53:15.694 WARN:   SurfaceFlinger : Fail to Open /sys/devices/platform/gpusysfs/fps
9142016-10-18 12:53:15.714 DEBUG:  SurfaceFlinger : FPS : 59.51
9152016-10-18 12:53:15.714 WARN:   SurfaceFlinger : Fail to Open /sys/devices/platform/gpusysfs/fps
9162016-10-18 12:53:15.714 DEBUG:  SBrowserContentProvider : addOperatorBookmarks called.
9172016-10-18 12:53:15.724 DEBUG:  SurfaceFlinger : FPS : 59.51
9182016-10-18 12:53:15.724 WARN:   SurfaceFlinger : Fail to Open /sys/devices/platform/gpusysfs/fps
9192016-10-18 12:53:15.734 DEBUG:  SBrowserContentProvider : addOperatorBookmarks called.
9202016-10-18 12:53:15.744 DEBUG:  SurfaceFlinger : FPS : 59.51
9212016-10-18 12:53:15.744 WARN:   SurfaceFlinger : Fail to Open /sys/devices/platform/gpusysfs/fps
9222016-10-18 12:53:15.744 DEBUG:  SBrowserContentProvider : addOperatorBookmarks called.
9232016-10-18 12:53:15.764 DEBUG:  SBrowserContentProvider : addOperatorBookmarks called.
9242016-10-18 12:53:15.764 DEBUG:  SBrowserContentProvider : addOperatorBookmarks called.
9252016-10-18 12:53:15.784 DEBUG:  SurfaceFlinger : FPS : 59.51
9262016-10-18 12:53:15.784 WARN:   SurfaceFlinger : Fail to Open /sys/devices/platform/gpusysfs/fps
9272016-10-18 12:53:15.804 DEBUG:  SBrowserContentProvider : addOperatorBookmarks called.
9282016-10-18 12:53:15.804 DEBUG:  SurfaceFlinger : FPS : 59.51
9292016-10-18 12:53:15.804 WARN:   SurfaceFlinger : Fail to Open /sys/devices/platform/gpusysfs/fps
9302016-10-18 12:53:15.814 DEBUG:  SurfaceFlinger : FPS : 59.51
9312016-10-18 12:53:15.814 WARN:   SurfaceFlinger : Fail to Open /sys/devices/platform/gpusysfs/fps
9322016-10-18 12:53:15.824 DEBUG:  SurfaceFlinger : FPS : 59.51
9332016-10-18 12:53:15.824 WARN:   SurfaceFlinger : Fail to Open /sys/devices/platform/gpusysfs/fps
9342016-10-18 12:53:15.834 DEBUG:  SBrowserContentProvider : addOperatorBookmarks called.
9352016-10-18 12:53:15.844 DEBUG:  SurfaceFlinger : FPS : 59.51
9362016-10-18 12:53:15.844 WARN:   SurfaceFlinger : Fail to Open /sys/devices/platform/gpusysfs/fps
9372016-10-18 12:53:15.864 DEBUG:  SurfaceFlinger : FPS : 59.51
9382016-10-18 12:53:15.864 WARN:   SurfaceFlinger : Fail to Open /sys/devices/platform/gpusysfs/fps
9392016-10-18 12:53:15.874 DEBUG:  SurfaceFlinger : FPS : 59.51
9402016-10-18 12:53:15.874 WARN:   SurfaceFlinger : Fail to Open /sys/devices/platform/gpusysfs/fps
9412016-10-18 12:53:15.894 DEBUG:  SBrowserContentProvider : addOperatorBookmarks called.
9422016-10-18 12:53:15.904 DEBUG:  SurfaceFlinger : FPS : 59.51
9432016-10-18 12:53:15.904 WARN:   SurfaceFlinger : Fail to Open /sys/devices/platform/gpusysfs/fps
9442016-10-18 12:53:15.914 DEBUG:  SurfaceFlinger : FPS : 59.51
9452016-10-18 12:53:15.914 WARN:   SurfaceFlinger : Fail to Open /sys/devices/platform/gpusysfs/fps
9462016-10-18 12:53:15.934 DEBUG:  SurfaceFlinger : FPS : 56.54
9472016-10-18 12:53:15.934 WARN:   SurfaceFlinger : Fail to Open /sys/devices/platform/gpusysfs/fps
9482016-10-18 12:53:15.944 DEBUG:  SurfaceFlinger : FPS : 56.54
9492016-10-18 12:53:15.944 WARN:   SurfaceFlinger : Fail to Open /sys/devices/platform/gpusysfs/fps
9502016-10-18 12:53:15.944 DEBUG:  SBrowserContentProvider : addOperatorBookmarks called.
9512016-10-18 12:53:15.964 DEBUG:  SurfaceFlinger : FPS : 56.54
9522016-10-18 12:53:15.964 WARN:   SurfaceFlinger : Fail to Open /sys/devices/platform/gpusysfs/fps
9532016-10-18 12:53:15.974 DEBUG:  SurfaceFlinger : FPS : 56.54
9542016-10-18 12:53:15.974 WARN:   SurfaceFlinger : Fail to Open /sys/devices/platform/gpusysfs/fps
9552016-10-18 12:53:15.994 DEBUG:  SurfaceFlinger : FPS : 56.54
9562016-10-18 12:53:15.994 WARN:   SurfaceFlinger : Fail to Open /sys/devices/platform/gpusysfs/fps
9572016-10-18 12:53:15.994 DEBUG:  SBrowserContentProvider : addOperatorBookmarks called.
9582016-10-18 12:53:16.004 INFO:   TOOLKIT SERVICE : Request body '{"id":"1476780787133","type":"GET_SCREEN_ORIENTATION"}'
9592016-10-18 12:53:16.004 INFO:   DEVICE MANAGER : {"id":"1476780787133","type":"GET_SCREEN_ORIENTATION"}
9602016-10-18 12:53:16.004 INFO:   TOOLKIT SERVICE : Responding to client with: '{"id":"1476780787133","orientation":"PORTRAIT"}'
9612016-10-18 12:53:16.014 DEBUG:  SurfaceFlinger : FPS : 56.54
9622016-10-18 12:53:16.014 WARN:   SurfaceFlinger : Fail to Open /sys/devices/platform/gpusysfs/fps
9632016-10-18 12:53:16.024 DEBUG:  SurfaceFlinger : FPS : 56.54
9642016-10-18 12:53:16.034 WARN:   SurfaceFlinger : Fail to Open /sys/devices/platform/gpusysfs/fps
9652016-10-18 12:53:16.034 DEBUG:  SBrowserContentProvider : addOperatorBookmarks called.
9662016-10-18 12:53:16.044 DEBUG:  SurfaceFlinger : FPS : 56.54
9672016-10-18 12:53:16.044 WARN:   SurfaceFlinger : Fail to Open /sys/devices/platform/gpusysfs/fps
9682016-10-18 12:53:16.064 DEBUG:  SurfaceFlinger : FPS : 56.54
9692016-10-18 12:53:16.064 WARN:   SurfaceFlinger : Fail to Open /sys/devices/platform/gpusysfs/fps
9702016-10-18 12:53:16.064 INFO:   Icing : Indexing EC60BD7EDD8E800E27A05A23696A2207F39BE975 from com.google.android.gms
9712016-10-18 12:53:16.074 DEBUG:  SurfaceFlinger : FPS : 56.54
9722016-10-18 12:53:16.074 WARN:   SurfaceFlinger : Fail to Open /sys/devices/platform/gpusysfs/fps
9732016-10-18 12:53:16.084 INFO:   OperatorBookmarkParser : CSC data path
9742016-10-18 12:53:16.094 DEBUG:  SurfaceFlinger : FPS : 56.54
9752016-10-18 12:53:16.094 WARN:   SurfaceFlinger : Fail to Open /sys/devices/platform/gpusysfs/fps
9762016-10-18 12:53:16.114 DEBUG:  SurfaceFlinger : FPS : 56.54
9772016-10-18 12:53:16.114 WARN:   SurfaceFlinger : Fail to Open /sys/devices/platform/gpusysfs/fps
9782016-10-18 12:53:16.124 DEBUG:  SurfaceFlinger : FPS : 56.54
9792016-10-18 12:53:16.124 WARN:   SurfaceFlinger : Fail to Open /sys/devices/platform/gpusysfs/fps
9802016-10-18 12:53:16.144 DEBUG:  SurfaceFlinger : FPS : 56.54
9812016-10-18 12:53:16.144 WARN:   SurfaceFlinger : Fail to Open /sys/devices/platform/gpusysfs/fps
9822016-10-18 12:53:16.174 DEBUG:  SurfaceFlinger : FPS : 56.54
9832016-10-18 12:53:16.174 WARN:   SurfaceFlinger : Fail to Open /sys/devices/platform/gpusysfs/fps
9842016-10-18 12:53:16.174 DEBUG:  SurfaceFlinger : FPS : 56.54
9852016-10-18 12:53:16.174 WARN:   SurfaceFlinger : Fail to Open /sys/devices/platform/gpusysfs/fps
9862016-10-18 12:53:16.184 ERROR:  SMD : smd Interface open failed errno is 2 -1
9872016-10-18 12:53:16.184 DEBUG:  ResourcesManager : creating new AssetManager and set to /data/app/org.adblockplus.adblockplussbrowser-1/base.apk
9882016-10-18 12:53:16.194 DEBUG:  SurfaceFlinger : FPS : 60.63
9892016-10-18 12:53:16.194 WARN:   SurfaceFlinger : Fail to Open /sys/devices/platform/gpusysfs/fps
9902016-10-18 12:53:16.204 INFO:   Icing : Indexing done EC60BD7EDD8E800E27A05A23696A2207F39BE975
9912016-10-18 12:53:16.214 DEBUG:  SurfaceFlinger : FPS : 60.63
9922016-10-18 12:53:16.214 WARN:   SurfaceFlinger : Fail to Open /sys/devices/platform/gpusysfs/fps
9932016-10-18 12:53:16.224 DEBUG:  SurfaceFlinger : FPS : 60.63
9942016-10-18 12:53:16.224 WARN:   SurfaceFlinger : Fail to Open /sys/devices/platform/gpusysfs/fps
9952016-10-18 12:53:16.244 DEBUG:  SurfaceFlinger : FPS : 60.63
9962016-10-18 12:53:16.244 WARN:   SurfaceFlinger : Fail to Open /sys/devices/platform/gpusysfs/fps
9972016-10-18 12:53:16.264 DEBUG:  SurfaceFlinger : FPS : 60.63
9982016-10-18 12:53:16.264 WARN:   SurfaceFlinger : Fail to Open /sys/devices/platform/gpusysfs/fps
9992016-10-18 12:53:16.274 DEBUG:  SurfaceFlinger : FPS : 60.63
10002016-10-18 12:53:16.274 WARN:   SurfaceFlinger : Fail to Open /sys/devices/platform/gpusysfs/fps
10012016-10-18 12:53:16.294 DEBUG:  SurfaceFlinger : FPS : 60.63
10022016-10-18 12:53:16.294 WARN:   SurfaceFlinger : Fail to Open /sys/devices/platform/gpusysfs/fps
10032016-10-18 12:53:16.314 DEBUG:  SurfaceFlinger : FPS : 60.63
10042016-10-18 12:53:16.314 WARN:   SurfaceFlinger : Fail to Open /sys/devices/platform/gpusysfs/fps
10052016-10-18 12:53:16.324 DEBUG:  SurfaceFlinger : FPS : 60.63
10062016-10-18 12:53:16.324 WARN:   SurfaceFlinger : Fail to Open /sys/devices/platform/gpusysfs/fps
10072016-10-18 12:53:16.344 DEBUG:  SurfaceFlinger : FPS : 60.63
10082016-10-18 12:53:16.344 WARN:   SurfaceFlinger : Fail to Open /sys/devices/platform/gpusysfs/fps
10092016-10-18 12:53:16.364 DEBUG:  SurfaceFlinger : FPS : 60.63
10102016-10-18 12:53:16.364 WARN:   SurfaceFlinger : Fail to Open /sys/devices/platform/gpusysfs/fps
10112016-10-18 12:53:16.374 DEBUG:  SurfaceFlinger : FPS : 60.63
10122016-10-18 12:53:16.374 WARN:   SurfaceFlinger : Fail to Open /sys/devices/platform/gpusysfs/fps
10132016-10-18 12:53:16.394 DEBUG:  SurfaceFlinger : FPS : 60.63
10142016-10-18 12:53:16.394 WARN:   SurfaceFlinger : Fail to Open /sys/devices/platform/gpusysfs/fps
10152016-10-18 12:53:16.414 DEBUG:  SurfaceFlinger : FPS : 60.63
10162016-10-18 12:53:16.414 WARN:   SurfaceFlinger : Fail to Open /sys/devices/platform/gpusysfs/fps
10172016-10-18 12:53:16.424 DEBUG:  SurfaceFlinger : FPS : 60.63
10182016-10-18 12:53:16.424 WARN:   SurfaceFlinger : Fail to Open /sys/devices/platform/gpusysfs/fps
10192016-10-18 12:53:16.444 DEBUG:  SurfaceFlinger : FPS : 60.63
10202016-10-18 12:53:16.444 WARN:   SurfaceFlinger : Fail to Open /sys/devices/platform/gpusysfs/fps
10212016-10-18 12:53:16.464 DEBUG:  SurfaceFlinger : FPS : 60.30
10222016-10-18 12:53:16.464 WARN:   SurfaceFlinger : Fail to Open /sys/devices/platform/gpusysfs/fps
10232016-10-18 12:53:16.474 DEBUG:  SurfaceFlinger : FPS : 60.30
10242016-10-18 12:53:16.474 WARN:   SurfaceFlinger : Fail to Open /sys/devices/platform/gpusysfs/fps
10252016-10-18 12:53:16.494 DEBUG:  SurfaceFlinger : FPS : 60.30
10262016-10-18 12:53:16.494 WARN:   SurfaceFlinger : Fail to Open /sys/devices/platform/gpusysfs/fps
10272016-10-18 12:53:16.504 INFO:   TOOLKIT SERVICE : Request body '{"id":"1476780787633","type":"GET_SCREEN_ORIENTATION"}'
10282016-10-18 12:53:16.504 INFO:   DEVICE MANAGER : {"id":"1476780787633","type":"GET_SCREEN_ORIENTATION"}
10292016-10-18 12:53:16.504 INFO:   TOOLKIT SERVICE : Responding to client with: '{"id":"1476780787633","orientation":"PORTRAIT"}'
10302016-10-18 12:53:16.514 DEBUG:  SurfaceFlinger : FPS : 60.30
10312016-10-18 12:53:16.514 WARN:   SurfaceFlinger : Fail to Open /sys/devices/platform/gpusysfs/fps
10322016-10-18 12:53:16.524 DEBUG:  SurfaceFlinger : FPS : 60.30
10332016-10-18 12:53:16.524 WARN:   SurfaceFlinger : Fail to Open /sys/devices/platform/gpusysfs/fps
10342016-10-18 12:53:16.544 DEBUG:  SurfaceFlinger : FPS : 60.30
10352016-10-18 12:53:16.544 WARN:   SurfaceFlinger : Fail to Open /sys/devices/platform/gpusysfs/fps
10362016-10-18 12:53:16.544 INFO:   Icing : Indexing 01B19313727041BE29799CB997C64DC670BAC04F from com.google.android.googlequicksearchbox
10372016-10-18 12:53:16.564 DEBUG:  SurfaceFlinger : FPS : 60.30
10382016-10-18 12:53:16.564 WARN:   SurfaceFlinger : Fail to Open /sys/devices/platform/gpusysfs/fps
10392016-10-18 12:53:16.574 DEBUG:  SurfaceFlinger : FPS : 60.30
10402016-10-18 12:53:16.574 WARN:   SurfaceFlinger : Fail to Open /sys/devices/platform/gpusysfs/fps
10412016-10-18 12:53:16.594 DEBUG:  SurfaceFlinger : FPS : 60.30
10422016-10-18 12:53:16.594 WARN:   SurfaceFlinger : Fail to Open /sys/devices/platform/gpusysfs/fps
10432016-10-18 12:53:16.604 DEBUG:  SurfaceFlinger : FPS : 60.30
10442016-10-18 12:53:16.604 WARN:   SurfaceFlinger : Fail to Open /sys/devices/platform/gpusysfs/fps
10452016-10-18 12:53:16.625 DEBUG:  SurfaceFlinger : FPS : 60.30
10462016-10-18 12:53:16.625 WARN:   SurfaceFlinger : Fail to Open /sys/devices/platform/gpusysfs/fps
10472016-10-18 12:53:16.645 DEBUG:  SurfaceFlinger : FPS : 60.30
10482016-10-18 12:53:16.645 WARN:   SurfaceFlinger : Fail to Open /sys/devices/platform/gpusysfs/fps
10492016-10-18 12:53:16.665 DEBUG:  SurfaceFlinger : FPS : 60.30
10502016-10-18 12:53:16.665 WARN:   SurfaceFlinger : Fail to Open /sys/devices/platform/gpusysfs/fps
10512016-10-18 12:53:16.665 INFO:   Icing : Indexing done 01B19313727041BE29799CB997C64DC670BAC04F
10522016-10-18 12:53:16.675 DEBUG:  SurfaceFlinger : FPS : 60.30
10532016-10-18 12:53:16.675 WARN:   SurfaceFlinger : Fail to Open /sys/devices/platform/gpusysfs/fps
10542016-10-18 12:53:16.695 DEBUG:  SurfaceFlinger : FPS : 60.30
10552016-10-18 12:53:16.695 WARN:   SurfaceFlinger : Fail to Open /sys/devices/platform/gpusysfs/fps
10562016-10-18 12:53:16.695 DEBUG:  PowerManagerService : [input device light] setInputDeviceLightOn is called : 1
10572016-10-18 12:53:16.695 DEBUG:  PowerManagerService : [input device light] handleInputDeviceLightOn
10582016-10-18 12:53:16.705 DEBUG:  SurfaceFlinger : FPS : 60.30
10592016-10-18 12:53:16.705 WARN:   SurfaceFlinger : Fail to Open /sys/devices/platform/gpusysfs/fps
10602016-10-18 12:53:16.725 DEBUG:  SurfaceFlinger : FPS : 60.49
10612016-10-18 12:53:16.725 WARN:   SurfaceFlinger : Fail to Open /sys/devices/platform/gpusysfs/fps
10622016-10-18 12:53:16.745 DEBUG:  SurfaceFlinger : FPS : 60.49
10632016-10-18 12:53:16.745 WARN:   SurfaceFlinger : Fail to Open /sys/devices/platform/gpusysfs/fps
10642016-10-18 12:53:16.755 DEBUG:  SurfaceFlinger : FPS : 60.49
10652016-10-18 12:53:16.755 WARN:   SurfaceFlinger : Fail to Open /sys/devices/platform/gpusysfs/fps
10662016-10-18 12:53:16.775 DEBUG:  SurfaceFlinger : FPS : 60.49
10672016-10-18 12:53:16.775 WARN:   SurfaceFlinger : Fail to Open /sys/devices/platform/gpusysfs/fps
10682016-10-18 12:53:16.795 DEBUG:  SurfaceFlinger : FPS : 60.49
10692016-10-18 12:53:16.795 WARN:   SurfaceFlinger : Fail to Open /sys/devices/platform/gpusysfs/fps
10702016-10-18 12:53:16.815 DEBUG:  SurfaceFlinger : FPS : 60.49
10712016-10-18 12:53:16.815 WARN:   SurfaceFlinger : Fail to Open /sys/devices/platform/gpusysfs/fps
10722016-10-18 12:53:16.825 DEBUG:  SurfaceFlinger : FPS : 60.49
10732016-10-18 12:53:16.825 WARN:   SurfaceFlinger : Fail to Open /sys/devices/platform/gpusysfs/fps
10742016-10-18 12:53:16.845 DEBUG:  SurfaceFlinger : FPS : 60.49
10752016-10-18 12:53:16.845 WARN:   SurfaceFlinger : Fail to Open /sys/devices/platform/gpusysfs/fps
10762016-10-18 12:53:16.855 DEBUG:  SurfaceFlinger : FPS : 60.49
10772016-10-18 12:53:16.855 WARN:   SurfaceFlinger : Fail to Open /sys/devices/platform/gpusysfs/fps
10782016-10-18 12:53:16.875 DEBUG:  SurfaceFlinger : FPS : 60.49
10792016-10-18 12:53:16.875 WARN:   SurfaceFlinger : Fail to Open /sys/devices/platform/gpusysfs/fps
10802016-10-18 12:53:16.895 DEBUG:  SurfaceFlinger : FPS : 60.49
10812016-10-18 12:53:16.895 WARN:   SurfaceFlinger : Fail to Open /sys/devices/platform/gpusysfs/fps
10822016-10-18 12:53:16.905 DEBUG:  SurfaceFlinger : FPS : 60.49
10832016-10-18 12:53:16.905 WARN:   SurfaceFlinger : Fail to Open /sys/devices/platform/gpusysfs/fps
10842016-10-18 12:53:16.925 DEBUG:  SurfaceFlinger : FPS : 60.49
10852016-10-18 12:53:16.925 WARN:   SurfaceFlinger : Fail to Open /sys/devices/platform/gpusysfs/fps
10862016-10-18 12:53:16.945 DEBUG:  SurfaceFlinger : FPS : 60.49
10872016-10-18 12:53:16.945 WARN:   SurfaceFlinger : Fail to Open /sys/devices/platform/gpusysfs/fps
10882016-10-18 12:53:16.955 DEBUG:  SurfaceFlinger : FPS : 60.49
10892016-10-18 12:53:16.965 WARN:   SurfaceFlinger : Fail to Open /sys/devices/platform/gpusysfs/fps
10902016-10-18 12:53:16.975 DEBUG:  SurfaceFlinger : FPS : 59.82
10912016-10-18 12:53:16.975 WARN:   SurfaceFlinger : Fail to Open /sys/devices/platform/gpusysfs/fps
10922016-10-18 12:53:16.995 DEBUG:  SurfaceFlinger : FPS : 59.82
10932016-10-18 12:53:16.995 WARN:   SurfaceFlinger : Fail to Open /sys/devices/platform/gpusysfs/fps
10942016-10-18 12:53:17.005 INFO:   TOOLKIT SERVICE : Request body '{"id":"1476780788133","type":"GET_SCREEN_ORIENTATION"}'
10952016-10-18 12:53:17.005 INFO:   DEVICE MANAGER : {"id":"1476780788133","type":"GET_SCREEN_ORIENTATION"}
10962016-10-18 12:53:17.005 INFO:   TOOLKIT SERVICE : Responding to client with: '{"id":"1476780788133","orientation":"PORTRAIT"}'
10972016-10-18 12:53:17.015 DEBUG:  SurfaceFlinger : FPS : 59.82
10982016-10-18 12:53:17.015 WARN:   SurfaceFlinger : Fail to Open /sys/devices/platform/gpusysfs/fps
10992016-10-18 12:53:17.025 DEBUG:  SurfaceFlinger : FPS : 59.82
11002016-10-18 12:53:17.025 WARN:   SurfaceFlinger : Fail to Open /sys/devices/platform/gpusysfs/fps
11012016-10-18 12:53:17.045 DEBUG:  SurfaceFlinger : FPS : 59.82
11022016-10-18 12:53:17.045 WARN:   SurfaceFlinger : Fail to Open /sys/devices/platform/gpusysfs/fps
11032016-10-18 12:53:17.065 DEBUG:  SurfaceFlinger : FPS : 59.82
11042016-10-18 12:53:17.065 WARN:   SurfaceFlinger : Fail to Open /sys/devices/platform/gpusysfs/fps
11052016-10-18 12:53:17.085 DEBUG:  SurfaceFlinger : FPS : 59.82
11062016-10-18 12:53:17.085 WARN:   SurfaceFlinger : Fail to Open /sys/devices/platform/gpusysfs/fps
11072016-10-18 12:53:17.095 DEBUG:  SurfaceFlinger : FPS : 59.82
11082016-10-18 12:53:17.095 WARN:   SurfaceFlinger : Fail to Open /sys/devices/platform/gpusysfs/fps
11092016-10-18 12:53:17.105 ERROR:  Diag_Lib : Diag_LSM_Init: Failed to open handle to diag driver, error = 2
11102016-10-18 12:53:17.115 DEBUG:  SurfaceFlinger : FPS : 59.82
11112016-10-18 12:53:17.115 WARN:   SurfaceFlinger : Fail to Open /sys/devices/platform/gpusysfs/fps
11122016-10-18 12:53:17.125 DEBUG:  SurfaceFlinger : FPS : 59.82
11132016-10-18 12:53:17.125 WARN:   SurfaceFlinger : Fail to Open /sys/devices/platform/gpusysfs/fps
11142016-10-18 12:53:17.145 DEBUG:  SurfaceFlinger : FPS : 59.82
11152016-10-18 12:53:17.145 WARN:   SurfaceFlinger : Fail to Open /sys/devices/platform/gpusysfs/fps
11162016-10-18 12:53:17.165 DEBUG:  SurfaceFlinger : FPS : 59.82
11172016-10-18 12:53:17.165 WARN:   SurfaceFlinger : Fail to Open /sys/devices/platform/gpusysfs/fps
11182016-10-18 12:53:17.175 DEBUG:  SurfaceFlinger : FPS : 59.82
11192016-10-18 12:53:17.175 WARN:   SurfaceFlinger : Fail to Open /sys/devices/platform/gpusysfs/fps
11202016-10-18 12:53:17.185 ERROR:  SMD : smd Interface open failed errno is 2 -1
11212016-10-18 12:53:17.195 DEBUG:  SurfaceFlinger : FPS : 59.82
11222016-10-18 12:53:17.195 WARN:   SurfaceFlinger : Fail to Open /sys/devices/platform/gpusysfs/fps
11232016-10-18 12:53:17.215 DEBUG:  SurfaceFlinger : FPS : 59.82
11242016-10-18 12:53:17.215 WARN:   SurfaceFlinger : Fail to Open /sys/devices/platform/gpusysfs/fps
11252016-10-18 12:53:17.225 DEBUG:  SurfaceFlinger : FPS : 59.93
11262016-10-18 12:53:17.225 WARN:   SurfaceFlinger : Fail to Open /sys/devices/platform/gpusysfs/fps
11272016-10-18 12:53:17.245 DEBUG:  SurfaceFlinger : FPS : 59.93
11282016-10-18 12:53:17.245 WARN:   SurfaceFlinger : Fail to Open /sys/devices/platform/gpusysfs/fps
11292016-10-18 12:53:17.255 DEBUG:  SurfaceFlinger : FPS : 59.93
11302016-10-18 12:53:17.255 WARN:   SurfaceFlinger : Fail to Open /sys/devices/platform/gpusysfs/fps
11312016-10-18 12:53:17.265 INFO:   PowerManagerService-JNI : CheckForString returning : -1
11322016-10-18 12:53:17.275 DEBUG:  SurfaceFlinger : FPS : 59.93
11332016-10-18 12:53:17.275 WARN:   SurfaceFlinger : Fail to Open /sys/devices/platform/gpusysfs/fps
11342016-10-18 12:53:17.295 DEBUG:  SurfaceFlinger : FPS : 59.93
11352016-10-18 12:53:17.295 WARN:   SurfaceFlinger : Fail to Open /sys/devices/platform/gpusysfs/fps
11362016-10-18 12:53:17.295 DEBUG:  SSRM:n : SIOP:: AP = 380, CUR = 1000
11372016-10-18 12:53:17.295 DEBUG:  ConnectivityService : returning getNetworkInfo(networkType - 1) :[type: WIFI[] - WIFI, state: CONNECTED/CONNECTED, reason: (unspecified), extra: "TestObject Devices", roaming: false, failover: false, isAvailable: true, isConnectedToProvisioningNetwork: false]
11382016-10-18 12:53:17.305 DEBUG:  SurfaceFlinger : FPS : 59.93
11392016-10-18 12:53:17.305 WARN:   SurfaceFlinger : Fail to Open /sys/devices/platform/gpusysfs/fps
11402016-10-18 12:53:17.325 DEBUG:  SurfaceFlinger : FPS : 59.93
11412016-10-18 12:53:17.325 WARN:   SurfaceFlinger : Fail to Open /sys/devices/platform/gpusysfs/fps
11422016-10-18 12:53:17.345 DEBUG:  SurfaceFlinger : FPS : 59.93
11432016-10-18 12:53:17.345 WARN:   SurfaceFlinger : Fail to Open /sys/devices/platform/gpusysfs/fps
11442016-10-18 12:53:17.355 DEBUG:  SurfaceFlinger : FPS : 59.93
11452016-10-18 12:53:17.355 WARN:   SurfaceFlinger : Fail to Open /sys/devices/platform/gpusysfs/fps
11462016-10-18 12:53:17.375 DEBUG:  SurfaceFlinger : FPS : 59.93
11472016-10-18 12:53:17.375 WARN:   SurfaceFlinger : Fail to Open /sys/devices/platform/gpusysfs/fps
11482016-10-18 12:53:17.395 DEBUG:  SurfaceFlinger : FPS : 59.93
11492016-10-18 12:53:17.395 WARN:   SurfaceFlinger : Fail to Open /sys/devices/platform/gpusysfs/fps
11502016-10-18 12:53:17.405 DEBUG:  SurfaceFlinger : FPS : 59.93
11512016-10-18 12:53:17.405 WARN:   SurfaceFlinger : Fail to Open /sys/devices/platform/gpusysfs/fps
11522016-10-18 12:53:17.425 DEBUG:  SurfaceFlinger : FPS : 59.93
11532016-10-18 12:53:17.425 WARN:   SurfaceFlinger : Fail to Open /sys/devices/platform/gpusysfs/fps
11542016-10-18 12:53:17.445 DEBUG:  SurfaceFlinger : FPS : 59.93
11552016-10-18 12:53:17.445 WARN:   SurfaceFlinger : Fail to Open /sys/devices/platform/gpusysfs/fps
11562016-10-18 12:53:17.455 DEBUG:  SurfaceFlinger : FPS : 59.93
11572016-10-18 12:53:17.455 WARN:   SurfaceFlinger : Fail to Open /sys/devices/platform/gpusysfs/fps
11582016-10-18 12:53:17.475 DEBUG:  SurfaceFlinger : FPS : 59.93
11592016-10-18 12:53:17.475 WARN:   SurfaceFlinger : Fail to Open /sys/devices/platform/gpusysfs/fps
11602016-10-18 12:53:17.495 DEBUG:  SurfaceFlinger : FPS : 60.52
11612016-10-18 12:53:17.495 WARN:   SurfaceFlinger : Fail to Open /sys/devices/platform/gpusysfs/fps
11622016-10-18 12:53:17.505 INFO:   TOOLKIT SERVICE : Request body '{"id":"1476780788633","type":"GET_SCREEN_ORIENTATION"}'
11632016-10-18 12:53:17.505 INFO:   DEVICE MANAGER : {"id":"1476780788633","type":"GET_SCREEN_ORIENTATION"}
11642016-10-18 12:53:17.505 DEBUG:  SurfaceFlinger : FPS : 60.52
11652016-10-18 12:53:17.505 WARN:   SurfaceFlinger : Fail to Open /sys/devices/platform/gpusysfs/fps
11662016-10-18 12:53:17.505 INFO:   TOOLKIT SERVICE : Responding to client with: '{"id":"1476780788633","orientation":"PORTRAIT"}'
11672016-10-18 12:53:17.525 DEBUG:  SurfaceFlinger : FPS : 60.52
11682016-10-18 12:53:17.525 WARN:   SurfaceFlinger : Fail to Open /sys/devices/platform/gpusysfs/fps
11692016-10-18 12:53:17.545 DEBUG:  SurfaceFlinger : FPS : 60.52
11702016-10-18 12:53:17.545 WARN:   SurfaceFlinger : Fail to Open /sys/devices/platform/gpusysfs/fps
11712016-10-18 12:53:17.555 DEBUG:  SurfaceFlinger : FPS : 60.52
11722016-10-18 12:53:17.555 WARN:   SurfaceFlinger : Fail to Open /sys/devices/platform/gpusysfs/fps
11732016-10-18 12:53:17.575 DEBUG:  SurfaceFlinger : FPS : 60.52
11742016-10-18 12:53:17.575 WARN:   SurfaceFlinger : Fail to Open /sys/devices/platform/gpusysfs/fps
11752016-10-18 12:53:17.595 DEBUG:  SurfaceFlinger : FPS : 60.52
11762016-10-18 12:53:17.595 WARN:   SurfaceFlinger : Fail to Open /sys/devices/platform/gpusysfs/fps
11772016-10-18 12:53:17.605 DEBUG:  SurfaceFlinger : FPS : 60.52
11782016-10-18 12:53:17.605 WARN:   SurfaceFlinger : Fail to Open /sys/devices/platform/gpusysfs/fps
11792016-10-18 12:53:17.625 DEBUG:  SurfaceFlinger : FPS : 60.52
11802016-10-18 12:53:17.625 WARN:   SurfaceFlinger : Fail to Open /sys/devices/platform/gpusysfs/fps
11812016-10-18 12:53:17.646 DEBUG:  SurfaceFlinger : FPS : 60.52
11822016-10-18 12:53:17.646 WARN:   SurfaceFlinger : Fail to Open /sys/devices/platform/gpusysfs/fps
11832016-10-18 12:53:17.656 DEBUG:  SurfaceFlinger : FPS : 60.52
11842016-10-18 12:53:17.656 WARN:   SurfaceFlinger : Fail to Open /sys/devices/platform/gpusysfs/fps
11852016-10-18 12:53:17.676 DEBUG:  SurfaceFlinger : FPS : 60.52
11862016-10-18 12:53:17.676 WARN:   SurfaceFlinger : Fail to Open /sys/devices/platform/gpusysfs/fps
11872016-10-18 12:53:17.696 DEBUG:  SurfaceFlinger : FPS : 60.52
11882016-10-18 12:53:17.696 WARN:   SurfaceFlinger : Fail to Open /sys/devices/platform/gpusysfs/fps
11892016-10-18 12:53:17.706 DEBUG:  SurfaceFlinger : FPS : 60.52
11902016-10-18 12:53:17.706 WARN:   SurfaceFlinger : Fail to Open /sys/devices/platform/gpusysfs/fps
11912016-10-18 12:53:17.726 DEBUG:  SurfaceFlinger : FPS : 60.52
11922016-10-18 12:53:17.726 WARN:   SurfaceFlinger : Fail to Open /sys/devices/platform/gpusysfs/fps
11932016-10-18 12:53:17.746 DEBUG:  SurfaceFlinger : FPS : 60.52
11942016-10-18 12:53:17.746 WARN:   SurfaceFlinger : Fail to Open /sys/devices/platform/gpusysfs/fps
11952016-10-18 12:53:17.756 DEBUG:  SurfaceFlinger : FPS : 60.15
11962016-10-18 12:53:17.756 WARN:   SurfaceFlinger : Fail to Open /sys/devices/platform/gpusysfs/fps
11972016-10-18 12:53:17.776 DEBUG:  SurfaceFlinger : FPS : 60.15
11982016-10-18 12:53:17.776 WARN:   SurfaceFlinger : Fail to Open /sys/devices/platform/gpusysfs/fps
11992016-10-18 12:53:17.796 DEBUG:  SurfaceFlinger : FPS : 60.15
12002016-10-18 12:53:17.796 WARN:   SurfaceFlinger : Fail to Open /sys/devices/platform/gpusysfs/fps
12012016-10-18 12:53:17.806 DEBUG:  SurfaceFlinger : FPS : 60.15
12022016-10-18 12:53:17.806 WARN:   SurfaceFlinger : Fail to Open /sys/devices/platform/gpusysfs/fps
12032016-10-18 12:53:17.826 DEBUG:  SurfaceFlinger : FPS : 60.15
12042016-10-18 12:53:17.826 WARN:   SurfaceFlinger : Fail to Open /sys/devices/platform/gpusysfs/fps
12052016-10-18 12:53:17.846 DEBUG:  SurfaceFlinger : FPS : 60.15
12062016-10-18 12:53:17.846 WARN:   SurfaceFlinger : Fail to Open /sys/devices/platform/gpusysfs/fps
12072016-10-18 12:53:17.856 DEBUG:  SurfaceFlinger : FPS : 60.15
12082016-10-18 12:53:17.856 WARN:   SurfaceFlinger : Fail to Open /sys/devices/platform/gpusysfs/fps
12092016-10-18 12:53:17.876 DEBUG:  SurfaceFlinger : FPS : 60.15
12102016-10-18 12:53:17.876 WARN:   SurfaceFlinger : Fail to Open /sys/devices/platform/gpusysfs/fps
12112016-10-18 12:53:17.896 DEBUG:  SurfaceFlinger : FPS : 60.15
12122016-10-18 12:53:17.896 WARN:   SurfaceFlinger : Fail to Open /sys/devices/platform/gpusysfs/fps
12132016-10-18 12:53:17.906 DEBUG:  SurfaceFlinger : FPS : 60.15
12142016-10-18 12:53:17.906 WARN:   SurfaceFlinger : Fail to Open /sys/devices/platform/gpusysfs/fps
12152016-10-18 12:53:17.926 DEBUG:  SurfaceFlinger : FPS : 60.15
12162016-10-18 12:53:17.926 WARN:   SurfaceFlinger : Fail to Open /sys/devices/platform/gpusysfs/fps
12172016-10-18 12:53:17.936 DEBUG:  SurfaceFlinger : FPS : 60.15
12182016-10-18 12:53:17.936 WARN:   SurfaceFlinger : Fail to Open /sys/devices/platform/gpusysfs/fps
12192016-10-18 12:53:17.956 DEBUG:  SurfaceFlinger : FPS : 60.15
12202016-10-18 12:53:17.956 WARN:   SurfaceFlinger : Fail to Open /sys/devices/platform/gpusysfs/fps
12212016-10-18 12:53:17.976 DEBUG:  SurfaceFlinger : FPS : 60.15
12222016-10-18 12:53:17.976 WARN:   SurfaceFlinger : Fail to Open /sys/devices/platform/gpusysfs/fps
12232016-10-18 12:53:17.986 DEBUG:  SurfaceFlinger : FPS : 60.15
12242016-10-18 12:53:17.996 WARN:   SurfaceFlinger : Fail to Open /sys/devices/platform/gpusysfs/fps
12252016-10-18 12:53:18.006 DEBUG:  SurfaceFlinger : FPS : 60.15
12262016-10-18 12:53:18.006 WARN:   SurfaceFlinger : Fail to Open /sys/devices/platform/gpusysfs/fps
12272016-10-18 12:53:18.006 INFO:   TOOLKIT SERVICE : Request body '{"id":"1476780789133","type":"GET_SCREEN_ORIENTATION"}'
12282016-10-18 12:53:18.006 INFO:   DEVICE MANAGER : {"id":"1476780789133","type":"GET_SCREEN_ORIENTATION"}
12292016-10-18 12:53:18.016 INFO:   TOOLKIT SERVICE : Responding to client with: '{"id":"1476780789133","orientation":"PORTRAIT"}'
12302016-10-18 12:53:18.026 DEBUG:  SurfaceFlinger : FPS : 60.17
12312016-10-18 12:53:18.026 WARN:   SurfaceFlinger : Fail to Open /sys/devices/platform/gpusysfs/fps
12322016-10-18 12:53:18.036 DEBUG:  SurfaceFlinger : FPS : 60.17
12332016-10-18 12:53:18.046 WARN:   SurfaceFlinger : Fail to Open /sys/devices/platform/gpusysfs/fps
12342016-10-18 12:53:18.056 DEBUG:  SurfaceFlinger : FPS : 60.17
12352016-10-18 12:53:18.056 WARN:   SurfaceFlinger : Fail to Open /sys/devices/platform/gpusysfs/fps
12362016-10-18 12:53:18.076 DEBUG:  SurfaceFlinger : FPS : 60.17
12372016-10-18 12:53:18.076 WARN:   SurfaceFlinger : Fail to Open /sys/devices/platform/gpusysfs/fps
12382016-10-18 12:53:18.086 DEBUG:  SurfaceFlinger : FPS : 60.17
12392016-10-18 12:53:18.086 WARN:   SurfaceFlinger : Fail to Open /sys/devices/platform/gpusysfs/fps
12402016-10-18 12:53:18.106 DEBUG:  SurfaceFlinger : FPS : 60.17
12412016-10-18 12:53:18.106 WARN:   SurfaceFlinger : Fail to Open /sys/devices/platform/gpusysfs/fps
12422016-10-18 12:53:18.126 DEBUG:  SurfaceFlinger : FPS : 60.17
12432016-10-18 12:53:18.126 WARN:   SurfaceFlinger : Fail to Open /sys/devices/platform/gpusysfs/fps
12442016-10-18 12:53:18.136 DEBUG:  SurfaceFlinger : FPS : 60.17
12452016-10-18 12:53:18.136 WARN:   SurfaceFlinger : Fail to Open /sys/devices/platform/gpusysfs/fps
12462016-10-18 12:53:18.156 DEBUG:  SurfaceFlinger : FPS : 60.17
12472016-10-18 12:53:18.156 WARN:   SurfaceFlinger : Fail to Open /sys/devices/platform/gpusysfs/fps
12482016-10-18 12:53:18.176 DEBUG:  SurfaceFlinger : FPS : 60.17
12492016-10-18 12:53:18.176 WARN:   SurfaceFlinger : Fail to Open /sys/devices/platform/gpusysfs/fps
12502016-10-18 12:53:18.186 ERROR:  SMD : smd Interface open failed errno is 2 -1
12512016-10-18 12:53:18.196 DEBUG:  SurfaceFlinger : FPS : 60.17
12522016-10-18 12:53:18.196 WARN:   SurfaceFlinger : Fail to Open /sys/devices/platform/gpusysfs/fps
12532016-10-18 12:53:18.206 DEBUG:  SurfaceFlinger : FPS : 60.17
12542016-10-18 12:53:18.206 WARN:   SurfaceFlinger : Fail to Open /sys/devices/platform/gpusysfs/fps
12552016-10-18 12:53:18.226 DEBUG:  SurfaceFlinger : FPS : 60.17
12562016-10-18 12:53:18.226 WARN:   SurfaceFlinger : Fail to Open /sys/devices/platform/gpusysfs/fps
12572016-10-18 12:53:18.236 DEBUG:  SurfaceFlinger : FPS : 60.17
12582016-10-18 12:53:18.236 WARN:   SurfaceFlinger : Fail to Open /sys/devices/platform/gpusysfs/fps
12592016-10-18 12:53:18.256 DEBUG:  SurfaceFlinger : FPS : 60.17
12602016-10-18 12:53:18.256 WARN:   SurfaceFlinger : Fail to Open /sys/devices/platform/gpusysfs/fps
12612016-10-18 12:53:18.276 DEBUG:  SurfaceFlinger : FPS : 60.17
12622016-10-18 12:53:18.276 WARN:   SurfaceFlinger : Fail to Open /sys/devices/platform/gpusysfs/fps
12632016-10-18 12:53:18.286 DEBUG:  SurfaceFlinger : FPS : 60.20
12642016-10-18 12:53:18.286 WARN:   SurfaceFlinger : Fail to Open /sys/devices/platform/gpusysfs/fps
12652016-10-18 12:53:18.306 DEBUG:  SurfaceFlinger : FPS : 60.20
12662016-10-18 12:53:18.306 WARN:   SurfaceFlinger : Fail to Open /sys/devices/platform/gpusysfs/fps
12672016-10-18 12:53:18.326 DEBUG:  SurfaceFlinger : FPS : 60.20
12682016-10-18 12:53:18.326 WARN:   SurfaceFlinger : Fail to Open /sys/devices/platform/gpusysfs/fps
12692016-10-18 12:53:18.336 DEBUG:  SurfaceFlinger : FPS : 60.20
12702016-10-18 12:53:18.336 WARN:   SurfaceFlinger : Fail to Open /sys/devices/platform/gpusysfs/fps
12712016-10-18 12:53:18.356 DEBUG:  SurfaceFlinger : FPS : 60.20
12722016-10-18 12:53:18.356 WARN:   SurfaceFlinger : Fail to Open /sys/devices/platform/gpusysfs/fps
12732016-10-18 12:53:18.376 DEBUG:  SurfaceFlinger : FPS : 60.20
12742016-10-18 12:53:18.376 WARN:   SurfaceFlinger : Fail to Open /sys/devices/platform/gpusysfs/fps
12752016-10-18 12:53:18.386 DEBUG:  SurfaceFlinger : FPS : 60.20
12762016-10-18 12:53:18.386 WARN:   SurfaceFlinger : Fail to Open /sys/devices/platform/gpusysfs/fps
12772016-10-18 12:53:18.406 DEBUG:  SurfaceFlinger : FPS : 60.20
12782016-10-18 12:53:18.406 WARN:   SurfaceFlinger : Fail to Open /sys/devices/platform/gpusysfs/fps
12792016-10-18 12:53:18.426 DEBUG:  SurfaceFlinger : FPS : 60.20
12802016-10-18 12:53:18.426 WARN:   SurfaceFlinger : Fail to Open /sys/devices/platform/gpusysfs/fps
12812016-10-18 12:53:18.436 DEBUG:  SurfaceFlinger : FPS : 60.20
12822016-10-18 12:53:18.436 WARN:   SurfaceFlinger : Fail to Open /sys/devices/platform/gpusysfs/fps
12832016-10-18 12:53:18.456 DEBUG:  SurfaceFlinger : FPS : 60.20
12842016-10-18 12:53:18.456 WARN:   SurfaceFlinger : Fail to Open /sys/devices/platform/gpusysfs/fps
12852016-10-18 12:53:18.476 DEBUG:  SurfaceFlinger : FPS : 60.20
12862016-10-18 12:53:18.476 WARN:   SurfaceFlinger : Fail to Open /sys/devices/platform/gpusysfs/fps
12872016-10-18 12:53:18.486 DEBUG:  SurfaceFlinger : FPS : 60.20
12882016-10-18 12:53:18.486 WARN:   SurfaceFlinger : Fail to Open /sys/devices/platform/gpusysfs/fps
12892016-10-18 12:53:18.506 DEBUG:  SurfaceFlinger : FPS : 60.20
12902016-10-18 12:53:18.506 WARN:   SurfaceFlinger : Fail to Open /sys/devices/platform/gpusysfs/fps
12912016-10-18 12:53:18.506 INFO:   TOOLKIT SERVICE : Request body '{"id":"1476780789633","type":"GET_SCREEN_ORIENTATION"}'
12922016-10-18 12:53:18.506 INFO:   DEVICE MANAGER : {"id":"1476780789633","type":"GET_SCREEN_ORIENTATION"}
12932016-10-18 12:53:18.506 INFO:   TOOLKIT SERVICE : Responding to client with: '{"id":"1476780789633","orientation":"PORTRAIT"}'
12942016-10-18 12:53:18.526 DEBUG:  SurfaceFlinger : FPS : 60.20
12952016-10-18 12:53:18.526 WARN:   SurfaceFlinger : Fail to Open /sys/devices/platform/gpusysfs/fps
12962016-10-18 12:53:18.536 DEBUG:  SurfaceFlinger : FPS : 60.20
12972016-10-18 12:53:18.536 WARN:   SurfaceFlinger : Fail to Open /sys/devices/platform/gpusysfs/fps
12982016-10-18 12:53:18.556 DEBUG:  SurfaceFlinger : FPS : 59.50
12992016-10-18 12:53:18.556 WARN:   SurfaceFlinger : Fail to Open /sys/devices/platform/gpusysfs/fps
13002016-10-18 12:53:18.576 DEBUG:  SurfaceFlinger : FPS : 59.50
13012016-10-18 12:53:18.576 WARN:   SurfaceFlinger : Fail to Open /sys/devices/platform/gpusysfs/fps
13022016-10-18 12:53:18.586 DEBUG:  SurfaceFlinger : FPS : 59.50
13032016-10-18 12:53:18.586 WARN:   SurfaceFlinger : Fail to Open /sys/devices/platform/gpusysfs/fps
13042016-10-18 12:53:18.606 DEBUG:  SurfaceFlinger : FPS : 59.50
13052016-10-18 12:53:18.606 WARN:   SurfaceFlinger : Fail to Open /sys/devices/platform/gpusysfs/fps
13062016-10-18 12:53:18.626 DEBUG:  SurfaceFlinger : FPS : 59.50
13072016-10-18 12:53:18.626 WARN:   SurfaceFlinger : Fail to Open /sys/devices/platform/gpusysfs/fps
13082016-10-18 12:53:18.636 DEBUG:  SurfaceFlinger : FPS : 59.50
13092016-10-18 12:53:18.636 WARN:   SurfaceFlinger : Fail to Open /sys/devices/platform/gpusysfs/fps
13102016-10-18 12:53:18.656 DEBUG:  SurfaceFlinger : FPS : 59.50
13112016-10-18 12:53:18.656 WARN:   SurfaceFlinger : Fail to Open /sys/devices/platform/gpusysfs/fps
13122016-10-18 12:53:18.677 DEBUG:  SurfaceFlinger : FPS : 59.50
13132016-10-18 12:53:18.677 WARN:   SurfaceFlinger : Fail to Open /sys/devices/platform/gpusysfs/fps
13142016-10-18 12:53:18.677 DEBUG:  StatusBar.NetworkController : refreshViews connected={ wifi } level=0 combinedSignalIconId=0x7f020517/com.android.systemui:drawable/stat_sys_wifi_signal_4 mobileLabel= wifiLabel="TestObject Devices"xxxxXXXXxxxxXXXX emergencyOnly=false combinedLabel="TestObject Devices"xxxxXXXXxxxxXXXX mAirplaneMode=true mDataActivity=0 mPhoneSignalIconId=0x0/(null) mQSPhoneSignalIconId=0x0/(null) mDataDirectionIconId=0x0/(null) mDataSignalIconId=0x0/(null) mDataTypeIconId=0x0/(null) mQSDataTypeIconId=0x0/(null) mNoSimIconId=0x0/(null) mWifiIconId=0x7f020517/com.android.systemui:drawable/stat_sys_wifi_signal_4 mQSWifiIconId=0x7f020143/com.android.systemui:drawable/ic_qs_wifi_4 mWifiActivityIconId=0x7f0204ea/com.android.systemui:drawable/stat_sys_signal_no_inout mBluetoothTetherIconId=0x10808cc/android:drawable/stat_sys_tether_bluetooth
13152016-10-18 12:53:18.677 DEBUG:  STATUSBAR-WifiQuickSettingButton : onWifiSignalChanged enabled=true enabledDesc:"TestObject Devices"
13162016-10-18 12:53:18.677 DEBUG:  StatusBar.NetworkController : refreshSignalCluster - setNWBoosterIndicators(false)
13172016-10-18 12:53:18.677 DEBUG:  StatusBar.NetworkController : applyOpen
13182016-10-18 12:53:18.677 DEBUG:  StatusBar.NetworkController : refreshSignalCluster - setNWBoosterIndicators(false)
13192016-10-18 12:53:18.677 DEBUG:  StatusBar.NetworkController : applyOpen
13202016-10-18 12:53:18.677 DEBUG:  StatusBar.NetworkController : refreshSignalCluster - setNWBoosterIndicators(false)
13212016-10-18 12:53:18.677 DEBUG:  StatusBar.NetworkController : applyOpen
13222016-10-18 12:53:18.677 DEBUG:  StatusBar.NetworkController : refreshSignalCluster - setNWBoosterIndicators(false)
13232016-10-18 12:53:18.677 DEBUG:  StatusBar.NetworkController : applyOpen
13242016-10-18 12:53:18.687 DEBUG:  SurfaceFlinger : FPS : 59.50
13252016-10-18 12:53:18.687 WARN:   SurfaceFlinger : Fail to Open /sys/devices/platform/gpusysfs/fps
13262016-10-18 12:53:18.707 DEBUG:  SurfaceFlinger : FPS : 59.50
13272016-10-18 12:53:18.707 WARN:   SurfaceFlinger : Fail to Open /sys/devices/platform/gpusysfs/fps
13282016-10-18 12:53:18.727 DEBUG:  SurfaceFlinger : FPS : 59.50
13292016-10-18 12:53:18.727 WARN:   SurfaceFlinger : Fail to Open /sys/devices/platform/gpusysfs/fps
13302016-10-18 12:53:18.737 DEBUG:  SurfaceFlinger : FPS : 59.50
13312016-10-18 12:53:18.737 WARN:   SurfaceFlinger : Fail to Open /sys/devices/platform/gpusysfs/fps
13322016-10-18 12:53:18.757 DEBUG:  SurfaceFlinger : FPS : 59.50
13332016-10-18 12:53:18.757 WARN:   SurfaceFlinger : Fail to Open /sys/devices/platform/gpusysfs/fps
13342016-10-18 12:53:18.777 DEBUG:  SurfaceFlinger : FPS : 59.50
13352016-10-18 12:53:18.777 WARN:   SurfaceFlinger : Fail to Open /sys/devices/platform/gpusysfs/fps
13362016-10-18 12:53:18.787 DEBUG:  SurfaceFlinger : FPS : 59.50
13372016-10-18 12:53:18.787 WARN:   SurfaceFlinger : Fail to Open /sys/devices/platform/gpusysfs/fps
13382016-10-18 12:53:18.807 DEBUG:  SurfaceFlinger : FPS : 59.50
13392016-10-18 12:53:18.807 WARN:   SurfaceFlinger : Fail to Open /sys/devices/platform/gpusysfs/fps
13402016-10-18 12:53:18.827 DEBUG:  SurfaceFlinger : FPS : 60.49
13412016-10-18 12:53:18.827 WARN:   SurfaceFlinger : Fail to Open /sys/devices/platform/gpusysfs/fps
13422016-10-18 12:53:18.847 DEBUG:  SurfaceFlinger : FPS : 60.49
13432016-10-18 12:53:18.847 WARN:   SurfaceFlinger : Fail to Open /sys/devices/platform/gpusysfs/fps
13442016-10-18 12:53:18.857 DEBUG:  SurfaceFlinger : FPS : 60.49
13452016-10-18 12:53:18.857 WARN:   SurfaceFlinger : Fail to Open /sys/devices/platform/gpusysfs/fps
13462016-10-18 12:53:18.877 DEBUG:  SurfaceFlinger : FPS : 60.49
13472016-10-18 12:53:18.877 WARN:   SurfaceFlinger : Fail to Open /sys/devices/platform/gpusysfs/fps
13482016-10-18 12:53:18.887 DEBUG:  SurfaceFlinger : FPS : 60.49
13492016-10-18 12:53:18.887 WARN:   SurfaceFlinger : Fail to Open /sys/devices/platform/gpusysfs/fps
13502016-10-18 12:53:18.907 DEBUG:  SurfaceFlinger : FPS : 60.49
13512016-10-18 12:53:18.907 WARN:   SurfaceFlinger : Fail to Open /sys/devices/platform/gpusysfs/fps
13522016-10-18 12:53:18.927 DEBUG:  SurfaceFlinger : FPS : 60.49
13532016-10-18 12:53:18.927 WARN:   SurfaceFlinger : Fail to Open /sys/devices/platform/gpusysfs/fps
13542016-10-18 12:53:18.947 DEBUG:  SurfaceFlinger : FPS : 60.49
13552016-10-18 12:53:18.947 WARN:   SurfaceFlinger : Fail to Open /sys/devices/platform/gpusysfs/fps
13562016-10-18 12:53:18.957 DEBUG:  SurfaceFlinger : FPS : 60.49
13572016-10-18 12:53:18.957 WARN:   SurfaceFlinger : Fail to Open /sys/devices/platform/gpusysfs/fps
13582016-10-18 12:53:18.977 DEBUG:  SurfaceFlinger : FPS : 60.49
13592016-10-18 12:53:18.977 WARN:   SurfaceFlinger : Fail to Open /sys/devices/platform/gpusysfs/fps
13602016-10-18 12:53:18.997 DEBUG:  SurfaceFlinger : FPS : 60.49
13612016-10-18 12:53:18.997 WARN:   SurfaceFlinger : Fail to Open /sys/devices/platform/gpusysfs/fps
13622016-10-18 12:53:19.007 INFO:   TOOLKIT SERVICE : Request body '{"id":"1476780790133","type":"GET_SCREEN_ORIENTATION"}'
13632016-10-18 12:53:19.007 INFO:   DEVICE MANAGER : {"id":"1476780790133","type":"GET_SCREEN_ORIENTATION"}
13642016-10-18 12:53:19.017 INFO:   TOOLKIT SERVICE : Responding to client with: '{"id":"1476780790133","orientation":"PORTRAIT"}'
13652016-10-18 12:53:19.017 DEBUG:  SurfaceFlinger : FPS : 60.49
13662016-10-18 12:53:19.017 WARN:   SurfaceFlinger : Fail to Open /sys/devices/platform/gpusysfs/fps
13672016-10-18 12:53:19.027 DEBUG:  SurfaceFlinger : FPS : 60.49
13682016-10-18 12:53:19.027 WARN:   SurfaceFlinger : Fail to Open /sys/devices/platform/gpusysfs/fps
13692016-10-18 12:53:19.037 DEBUG:  SurfaceFlinger : FPS : 60.49
13702016-10-18 12:53:19.037 WARN:   SurfaceFlinger : Fail to Open /sys/devices/platform/gpusysfs/fps
13712016-10-18 12:53:19.057 DEBUG:  SurfaceFlinger : FPS : 60.49
13722016-10-18 12:53:19.057 WARN:   SurfaceFlinger : Fail to Open /sys/devices/platform/gpusysfs/fps
13732016-10-18 12:53:19.077 DEBUG:  SurfaceFlinger : FPS : 59.92
13742016-10-18 12:53:19.077 WARN:   SurfaceFlinger : Fail to Open /sys/devices/platform/gpusysfs/fps
13752016-10-18 12:53:19.087 DEBUG:  SurfaceFlinger : FPS : 59.92
13762016-10-18 12:53:19.087 WARN:   SurfaceFlinger : Fail to Open /sys/devices/platform/gpusysfs/fps
13772016-10-18 12:53:19.107 DEBUG:  SurfaceFlinger : FPS : 59.92
13782016-10-18 12:53:19.107 WARN:   SurfaceFlinger : Fail to Open /sys/devices/platform/gpusysfs/fps
13792016-10-18 12:53:19.127 DEBUG:  SurfaceFlinger : FPS : 59.92
13802016-10-18 12:53:19.127 WARN:   SurfaceFlinger : Fail to Open /sys/devices/platform/gpusysfs/fps
13812016-10-18 12:53:19.137 DEBUG:  SurfaceFlinger : FPS : 59.92
13822016-10-18 12:53:19.137 WARN:   SurfaceFlinger : Fail to Open /sys/devices/platform/gpusysfs/fps
13832016-10-18 12:53:19.157 DEBUG:  SurfaceFlinger : FPS : 59.92
13842016-10-18 12:53:19.157 WARN:   SurfaceFlinger : Fail to Open /sys/devices/platform/gpusysfs/fps
13852016-10-18 12:53:19.177 DEBUG:  SurfaceFlinger : FPS : 59.92
13862016-10-18 12:53:19.177 WARN:   SurfaceFlinger : Fail to Open /sys/devices/platform/gpusysfs/fps
13872016-10-18 12:53:19.187 ERROR:  SMD : smd Interface open failed errno is 2 -1
13882016-10-18 12:53:19.197 DEBUG:  SurfaceFlinger : FPS : 59.92
13892016-10-18 12:53:19.197 WARN:   SurfaceFlinger : Fail to Open /sys/devices/platform/gpusysfs/fps
13902016-10-18 12:53:19.207 DEBUG:  SurfaceFlinger : FPS : 59.92
13912016-10-18 12:53:19.207 WARN:   SurfaceFlinger : Fail to Open /sys/devices/platform/gpusysfs/fps
13922016-10-18 12:53:19.227 DEBUG:  SurfaceFlinger : FPS : 59.92
13932016-10-18 12:53:19.227 WARN:   SurfaceFlinger : Fail to Open /sys/devices/platform/gpusysfs/fps
13942016-10-18 12:53:19.247 DEBUG:  SurfaceFlinger : FPS : 59.92
13952016-10-18 12:53:19.247 WARN:   SurfaceFlinger : Fail to Open /sys/devices/platform/gpusysfs/fps
13962016-10-18 12:53:19.257 DEBUG:  SurfaceFlinger : FPS : 59.92
13972016-10-18 12:53:19.257 WARN:   SurfaceFlinger : Fail to Open /sys/devices/platform/gpusysfs/fps
13982016-10-18 12:53:19.277 DEBUG:  SurfaceFlinger : FPS : 59.92
13992016-10-18 12:53:19.277 WARN:   SurfaceFlinger : Fail to Open /sys/devices/platform/gpusysfs/fps
14002016-10-18 12:53:19.287 DEBUG:  SurfaceFlinger : FPS : 59.92
14012016-10-18 12:53:19.287 WARN:   SurfaceFlinger : Fail to Open /sys/devices/platform/gpusysfs/fps
14022016-10-18 12:53:19.307 DEBUG:  SurfaceFlinger : FPS : 59.92
14032016-10-18 12:53:19.307 WARN:   SurfaceFlinger : Fail to Open /sys/devices/platform/gpusysfs/fps
14042016-10-18 12:53:19.327 DEBUG:  SurfaceFlinger : FPS : 59.32
14052016-10-18 12:53:19.327 WARN:   SurfaceFlinger : Fail to Open /sys/devices/platform/gpusysfs/fps
14062016-10-18 12:53:19.337 DEBUG:  SurfaceFlinger : FPS : 59.32
14072016-10-18 12:53:19.337 WARN:   SurfaceFlinger : Fail to Open /sys/devices/platform/gpusysfs/fps
14082016-10-18 12:53:19.357 DEBUG:  SurfaceFlinger : FPS : 59.32
14092016-10-18 12:53:19.357 WARN:   SurfaceFlinger : Fail to Open /sys/devices/platform/gpusysfs/fps
14102016-10-18 12:53:19.377 DEBUG:  SurfaceFlinger : FPS : 59.32
14112016-10-18 12:53:19.377 WARN:   SurfaceFlinger : Fail to Open /sys/devices/platform/gpusysfs/fps
14122016-10-18 12:53:19.387 DEBUG:  SurfaceFlinger : FPS : 59.32
14132016-10-18 12:53:19.387 WARN:   SurfaceFlinger : Fail to Open /sys/devices/platform/gpusysfs/fps
14142016-10-18 12:53:19.407 DEBUG:  SurfaceFlinger : FPS : 59.32
14152016-10-18 12:53:19.407 WARN:   SurfaceFlinger : Fail to Open /sys/devices/platform/gpusysfs/fps
14162016-10-18 12:53:19.417 DEBUG:  SurfaceFlinger : FPS : 59.32
14172016-10-18 12:53:19.417 WARN:   SurfaceFlinger : Fail to Open /sys/devices/platform/gpusysfs/fps
14182016-10-18 12:53:19.437 DEBUG:  SurfaceFlinger : FPS : 59.32
14192016-10-18 12:53:19.437 WARN:   SurfaceFlinger : Fail to Open /sys/devices/platform/gpusysfs/fps
14202016-10-18 12:53:19.457 DEBUG:  SurfaceFlinger : FPS : 59.32
14212016-10-18 12:53:19.457 WARN:   SurfaceFlinger : Fail to Open /sys/devices/platform/gpusysfs/fps
14222016-10-18 12:53:19.467 DEBUG:  SurfaceFlinger : FPS : 59.32
14232016-10-18 12:53:19.467 WARN:   SurfaceFlinger : Fail to Open /sys/devices/platform/gpusysfs/fps
14242016-10-18 12:53:19.487 DEBUG:  SurfaceFlinger : FPS : 59.32
14252016-10-18 12:53:19.487 WARN:   SurfaceFlinger : Fail to Open /sys/devices/platform/gpusysfs/fps
14262016-10-18 12:53:19.507 DEBUG:  SurfaceFlinger : FPS : 59.32
14272016-10-18 12:53:19.507 WARN:   SurfaceFlinger : Fail to Open /sys/devices/platform/gpusysfs/fps
14282016-10-18 12:53:19.507 INFO:   TOOLKIT SERVICE : Request body '{"id":"1476780790633","type":"GET_SCREEN_ORIENTATION"}'
14292016-10-18 12:53:19.507 INFO:   DEVICE MANAGER : {"id":"1476780790633","type":"GET_SCREEN_ORIENTATION"}
14302016-10-18 12:53:19.507 INFO:   TOOLKIT SERVICE : Responding to client with: '{"id":"1476780790633","orientation":"PORTRAIT"}'
14312016-10-18 12:53:19.517 DEBUG:  SurfaceFlinger : FPS : 59.32
14322016-10-18 12:53:19.517 WARN:   SurfaceFlinger : Fail to Open /sys/devices/platform/gpusysfs/fps
14332016-10-18 12:53:19.537 DEBUG:  SurfaceFlinger : FPS : 59.32
14342016-10-18 12:53:19.537 WARN:   SurfaceFlinger : Fail to Open /sys/devices/platform/gpusysfs/fps
14352016-10-18 12:53:19.557 DEBUG:  SurfaceFlinger : FPS : 59.32
14362016-10-18 12:53:19.557 WARN:   SurfaceFlinger : Fail to Open /sys/devices/platform/gpusysfs/fps
14372016-10-18 12:53:19.567 DEBUG:  SurfaceFlinger : FPS : 59.32
14382016-10-18 12:53:19.567 WARN:   SurfaceFlinger : Fail to Open /sys/devices/platform/gpusysfs/fps
14392016-10-18 12:53:19.587 DEBUG:  SurfaceFlinger : FPS : 61.60
14402016-10-18 12:53:19.587 WARN:   SurfaceFlinger : Fail to Open /sys/devices/platform/gpusysfs/fps
14412016-10-18 12:53:19.607 DEBUG:  SurfaceFlinger : FPS : 61.60
14422016-10-18 12:53:19.607 WARN:   SurfaceFlinger : Fail to Open /sys/devices/platform/gpusysfs/fps
14432016-10-18 12:53:19.617 DEBUG:  SurfaceFlinger : FPS : 61.60
14442016-10-18 12:53:19.617 WARN:   SurfaceFlinger : Fail to Open /sys/devices/platform/gpusysfs/fps
14452016-10-18 12:53:19.637 DEBUG:  SurfaceFlinger : FPS : 61.60
14462016-10-18 12:53:19.637 WARN:   SurfaceFlinger : Fail to Open /sys/devices/platform/gpusysfs/fps
14472016-10-18 12:53:19.657 DEBUG:  SurfaceFlinger : FPS : 61.60
14482016-10-18 12:53:19.657 WARN:   SurfaceFlinger : Fail to Open /sys/devices/platform/gpusysfs/fps
14492016-10-18 12:53:19.667 DEBUG:  SurfaceFlinger : FPS : 61.60
14502016-10-18 12:53:19.667 WARN:   SurfaceFlinger : Fail to Open /sys/devices/platform/gpusysfs/fps
14512016-10-18 12:53:19.687 DEBUG:  SurfaceFlinger : FPS : 61.60
14522016-10-18 12:53:19.687 WARN:   SurfaceFlinger : Fail to Open /sys/devices/platform/gpusysfs/fps
14532016-10-18 12:53:19.708 DEBUG:  SurfaceFlinger : FPS : 61.60
14542016-10-18 12:53:19.708 WARN:   SurfaceFlinger : Fail to Open /sys/devices/platform/gpusysfs/fps
14552016-10-18 12:53:19.718 DEBUG:  SurfaceFlinger : FPS : 61.60
14562016-10-18 12:53:19.718 WARN:   SurfaceFlinger : Fail to Open /sys/devices/platform/gpusysfs/fps
14572016-10-18 12:53:19.738 DEBUG:  SurfaceFlinger : FPS : 61.60
14582016-10-18 12:53:19.738 WARN:   SurfaceFlinger : Fail to Open /sys/devices/platform/gpusysfs/fps
14592016-10-18 12:53:19.748 DEBUG:  SurfaceFlinger : FPS : 61.60
14602016-10-18 12:53:19.748 WARN:   SurfaceFlinger : Fail to Open /sys/devices/platform/gpusysfs/fps
14612016-10-18 12:53:19.768 DEBUG:  SurfaceFlinger : FPS : 61.60
14622016-10-18 12:53:19.768 WARN:   SurfaceFlinger : Fail to Open /sys/devices/platform/gpusysfs/fps
14632016-10-18 12:53:19.788 DEBUG:  SurfaceFlinger : FPS : 61.60
14642016-10-18 12:53:19.788 WARN:   SurfaceFlinger : Fail to Open /sys/devices/platform/gpusysfs/fps
14652016-10-18 12:53:19.808 DEBUG:  SurfaceFlinger : FPS : 61.60
14662016-10-18 12:53:19.808 WARN:   SurfaceFlinger : Fail to Open /sys/devices/platform/gpusysfs/fps
14672016-10-18 12:53:19.818 DEBUG:  SurfaceFlinger : FPS : 61.60
14682016-10-18 12:53:19.818 WARN:   SurfaceFlinger : Fail to Open /sys/devices/platform/gpusysfs/fps
14692016-10-18 12:53:19.838 DEBUG:  SurfaceFlinger : FPS : 59.82
14702016-10-18 12:53:19.838 WARN:   SurfaceFlinger : Fail to Open /sys/devices/platform/gpusysfs/fps
14712016-10-18 12:53:19.858 DEBUG:  SurfaceFlinger : FPS : 59.82
14722016-10-18 12:53:19.858 WARN:   SurfaceFlinger : Fail to Open /sys/devices/platform/gpusysfs/fps
14732016-10-18 12:53:19.868 DEBUG:  SurfaceFlinger : FPS : 59.82
14742016-10-18 12:53:19.868 WARN:   SurfaceFlinger : Fail to Open /sys/devices/platform/gpusysfs/fps
14752016-10-18 12:53:19.888 DEBUG:  SurfaceFlinger : FPS : 59.82
14762016-10-18 12:53:19.888 WARN:   SurfaceFlinger : Fail to Open /sys/devices/platform/gpusysfs/fps
14772016-10-18 12:53:19.908 DEBUG:  SurfaceFlinger : FPS : 59.82
14782016-10-18 12:53:19.908 WARN:   SurfaceFlinger : Fail to Open /sys/devices/platform/gpusysfs/fps
14792016-10-18 12:53:19.918 DEBUG:  SurfaceFlinger : FPS : 59.82
14802016-10-18 12:53:19.918 WARN:   SurfaceFlinger : Fail to Open /sys/devices/platform/gpusysfs/fps
14812016-10-18 12:53:19.938 DEBUG:  SurfaceFlinger : FPS : 59.82
14822016-10-18 12:53:19.938 WARN:   SurfaceFlinger : Fail to Open /sys/devices/platform/gpusysfs/fps
14832016-10-18 12:53:19.958 DEBUG:  SurfaceFlinger : FPS : 59.82
14842016-10-18 12:53:19.958 WARN:   SurfaceFlinger : Fail to Open /sys/devices/platform/gpusysfs/fps
14852016-10-18 12:53:19.968 DEBUG:  SurfaceFlinger : FPS : 59.82
14862016-10-18 12:53:19.968 WARN:   SurfaceFlinger : Fail to Open /sys/devices/platform/gpusysfs/fps
14872016-10-18 12:53:19.988 DEBUG:  PackageManager : [MSG] MCS_UNBIND
14882016-10-18 12:53:19.988 DEBUG:  SurfaceFlinger : FPS : 59.82
14892016-10-18 12:53:19.988 WARN:   SurfaceFlinger : Fail to Open /sys/devices/platform/gpusysfs/fps
14902016-10-18 12:53:19.998 INFO:   ActivityManager : Killing 25851:com.samsung.android.provider.filterprovider/u0a114 (adj 15): emptyCount ##36
14912016-10-18 12:53:20.008 DEBUG:  SurfaceFlinger : FPS : 59.82
14922016-10-18 12:53:20.008 WARN:   SurfaceFlinger : Fail to Open /sys/devices/platform/gpusysfs/fps
14932016-10-18 12:53:20.008 INFO:   TOOLKIT SERVICE : Request body '{"id":"1476780791133","type":"GET_SCREEN_ORIENTATION"}'
14942016-10-18 12:53:20.008 INFO:   DEVICE MANAGER : {"id":"1476780791133","type":"GET_SCREEN_ORIENTATION"}
14952016-10-18 12:53:20.028 INFO:   TOOLKIT SERVICE : Responding to client with: '{"id":"1476780791133","orientation":"PORTRAIT"}'
14962016-10-18 12:53:20.028 DEBUG:  SurfaceFlinger : FPS : 59.82
14972016-10-18 12:53:20.028 WARN:   SurfaceFlinger : Fail to Open /sys/devices/platform/gpusysfs/fps
14982016-10-18 12:53:20.038 DEBUG:  SurfaceFlinger : FPS : 59.82
14992016-10-18 12:53:20.038 WARN:   SurfaceFlinger : Fail to Open /sys/devices/platform/gpusysfs/fps
15002016-10-18 12:53:20.058 DEBUG:  SurfaceFlinger : FPS : 59.82
15012016-10-18 12:53:20.058 WARN:   SurfaceFlinger : Fail to Open /sys/devices/platform/gpusysfs/fps
15022016-10-18 12:53:20.068 DEBUG:  SurfaceFlinger : FPS : 59.82
15032016-10-18 12:53:20.068 WARN:   SurfaceFlinger : Fail to Open /sys/devices/platform/gpusysfs/fps
15042016-10-18 12:53:20.088 DEBUG:  SurfaceFlinger : FPS : 59.82
15052016-10-18 12:53:20.088 WARN:   SurfaceFlinger : Fail to Open /sys/devices/platform/gpusysfs/fps
15062016-10-18 12:53:20.108 DEBUG:  SurfaceFlinger : FPS : 59.86
15072016-10-18 12:53:20.108 WARN:   SurfaceFlinger : Fail to Open /sys/devices/platform/gpusysfs/fps
15082016-10-18 12:53:20.118 DEBUG:  SurfaceFlinger : FPS : 59.86
15092016-10-18 12:53:20.118 WARN:   SurfaceFlinger : Fail to Open /sys/devices/platform/gpusysfs/fps
15102016-10-18 12:53:20.138 DEBUG:  SurfaceFlinger : FPS : 59.86
15112016-10-18 12:53:20.138 WARN:   SurfaceFlinger : Fail to Open /sys/devices/platform/gpusysfs/fps
15122016-10-18 12:53:20.158 DEBUG:  SurfaceFlinger : FPS : 59.86
15132016-10-18 12:53:20.158 WARN:   SurfaceFlinger : Fail to Open /sys/devices/platform/gpusysfs/fps
15142016-10-18 12:53:20.168 DEBUG:  SurfaceFlinger : FPS : 59.86
15152016-10-18 12:53:20.168 WARN:   SurfaceFlinger : Fail to Open /sys/devices/platform/gpusysfs/fps
15162016-10-18 12:53:20.188 ERROR:  SMD : smd Interface open failed errno is 2 -1
15172016-10-18 12:53:20.188 DEBUG:  SurfaceFlinger : FPS : 59.86
15182016-10-18 12:53:20.188 WARN:   SurfaceFlinger : Fail to Open /sys/devices/platform/gpusysfs/fps
15192016-10-18 12:53:20.208 DEBUG:  SurfaceFlinger : FPS : 59.86
15202016-10-18 12:53:20.208 WARN:   SurfaceFlinger : Fail to Open /sys/devices/platform/gpusysfs/fps
15212016-10-18 12:53:20.218 DEBUG:  SurfaceFlinger : FPS : 59.86
15222016-10-18 12:53:20.218 WARN:   SurfaceFlinger : Fail to Open /sys/devices/platform/gpusysfs/fps
15232016-10-18 12:53:20.238 DEBUG:  SurfaceFlinger : FPS : 59.86
15242016-10-18 12:53:20.238 WARN:   SurfaceFlinger : Fail to Open /sys/devices/platform/gpusysfs/fps
15252016-10-18 12:53:20.258 DEBUG:  SurfaceFlinger : FPS : 59.86
15262016-10-18 12:53:20.258 WARN:   SurfaceFlinger : Fail to Open /sys/devices/platform/gpusysfs/fps
15272016-10-18 12:53:20.268 DEBUG:  SurfaceFlinger : FPS : 59.86
15282016-10-18 12:53:20.268 WARN:   SurfaceFlinger : Fail to Open /sys/devices/platform/gpusysfs/fps
15292016-10-18 12:53:20.288 DEBUG:  SurfaceFlinger : FPS : 59.86
15302016-10-18 12:53:20.288 WARN:   SurfaceFlinger : Fail to Open /sys/devices/platform/gpusysfs/fps
15312016-10-18 12:53:20.308 DEBUG:  SurfaceFlinger : FPS : 59.86
15322016-10-18 12:53:20.308 WARN:   SurfaceFlinger : Fail to Open /sys/devices/platform/gpusysfs/fps
15332016-10-18 12:53:20.318 DEBUG:  SurfaceFlinger : FPS : 59.86
15342016-10-18 12:53:20.318 WARN:   SurfaceFlinger : Fail to Open /sys/devices/platform/gpusysfs/fps
15352016-10-18 12:53:20.338 DEBUG:  SurfaceFlinger : FPS : 59.86
15362016-10-18 12:53:20.338 WARN:   SurfaceFlinger : Fail to Open /sys/devices/platform/gpusysfs/fps
15372016-10-18 12:53:20.358 DEBUG:  SurfaceFlinger : FPS : 59.86
15382016-10-18 12:53:20.358 WARN:   SurfaceFlinger : Fail to Open /sys/devices/platform/gpusysfs/fps
15392016-10-18 12:53:20.378 DEBUG:  SurfaceFlinger : FPS : 59.37
15402016-10-18 12:53:20.378 WARN:   SurfaceFlinger : Fail to Open /sys/devices/platform/gpusysfs/fps
15412016-10-18 12:53:20.388 DEBUG:  SurfaceFlinger : FPS : 59.37
15422016-10-18 12:53:20.388 WARN:   SurfaceFlinger : Fail to Open /sys/devices/platform/gpusysfs/fps
15432016-10-18 12:53:20.408 DEBUG:  SurfaceFlinger : FPS : 59.37
15442016-10-18 12:53:20.408 WARN:   SurfaceFlinger : Fail to Open /sys/devices/platform/gpusysfs/fps
15452016-10-18 12:53:20.418 DEBUG:  SurfaceFlinger : FPS : 59.37
15462016-10-18 12:53:20.418 WARN:   SurfaceFlinger : Fail to Open /sys/devices/platform/gpusysfs/fps
15472016-10-18 12:53:20.438 DEBUG:  SurfaceFlinger : FPS : 59.37
15482016-10-18 12:53:20.438 WARN:   SurfaceFlinger : Fail to Open /sys/devices/platform/gpusysfs/fps
15492016-10-18 12:53:20.448 DEBUG:  SurfaceFlinger : FPS : 59.37
15502016-10-18 12:53:20.458 WARN:   SurfaceFlinger : Fail to Open /sys/devices/platform/gpusysfs/fps
15512016-10-18 12:53:20.468 DEBUG:  SurfaceFlinger : FPS : 59.37
15522016-10-18 12:53:20.468 WARN:   SurfaceFlinger : Fail to Open /sys/devices/platform/gpusysfs/fps
15532016-10-18 12:53:20.488 DEBUG:  SurfaceFlinger : FPS : 59.37
15542016-10-18 12:53:20.488 WARN:   SurfaceFlinger : Fail to Open /sys/devices/platform/gpusysfs/fps
15552016-10-18 12:53:20.498 DEBUG:  SurfaceFlinger : FPS : 59.37
15562016-10-18 12:53:20.508 WARN:   SurfaceFlinger : Fail to Open /sys/devices/platform/gpusysfs/fps
15572016-10-18 12:53:20.508 INFO:   TOOLKIT SERVICE : Request body '{"id":"1476780791633","type":"GET_SCREEN_ORIENTATION"}'
15582016-10-18 12:53:20.508 INFO:   DEVICE MANAGER : {"id":"1476780791633","type":"GET_SCREEN_ORIENTATION"}
15592016-10-18 12:53:20.508 INFO:   TOOLKIT SERVICE : Responding to client with: '{"id":"1476780791633","orientation":"PORTRAIT"}'
15602016-10-18 12:53:20.518 DEBUG:  SurfaceFlinger : FPS : 59.37
15612016-10-18 12:53:20.518 WARN:   SurfaceFlinger : Fail to Open /sys/devices/platform/gpusysfs/fps
15622016-10-18 12:53:20.548 DEBUG:  SurfaceFlinger : FPS : 59.37
15632016-10-18 12:53:20.548 WARN:   SurfaceFlinger : Fail to Open /sys/devices/platform/gpusysfs/fps
15642016-10-18 12:53:20.558 DEBUG:  SurfaceFlinger : FPS : 59.37
15652016-10-18 12:53:20.558 WARN:   SurfaceFlinger : Fail to Open /sys/devices/platform/gpusysfs/fps
15662016-10-18 12:53:20.568 DEBUG:  SurfaceFlinger : FPS : 59.37
15672016-10-18 12:53:20.568 WARN:   SurfaceFlinger : Fail to Open /sys/devices/platform/gpusysfs/fps
15682016-10-18 12:53:20.588 DEBUG:  SurfaceFlinger : FPS : 59.37
15692016-10-18 12:53:20.588 WARN:   SurfaceFlinger : Fail to Open /sys/devices/platform/gpusysfs/fps
15702016-10-18 12:53:20.608 DEBUG:  SurfaceFlinger : FPS : 59.37
15712016-10-18 12:53:20.608 WARN:   SurfaceFlinger : Fail to Open /sys/devices/platform/gpusysfs/fps
15722016-10-18 12:53:20.618 DEBUG:  SurfaceFlinger : FPS : 59.37
15732016-10-18 12:53:20.618 WARN:   SurfaceFlinger : Fail to Open /sys/devices/platform/gpusysfs/fps
15742016-10-18 12:53:20.638 DEBUG:  SurfaceFlinger : FPS : 61.60
15752016-10-18 12:53:20.638 WARN:   SurfaceFlinger : Fail to Open /sys/devices/platform/gpusysfs/fps
15762016-10-18 12:53:20.648 DEBUG:  SurfaceFlinger : FPS : 61.60
15772016-10-18 12:53:20.648 WARN:   SurfaceFlinger : Fail to Open /sys/devices/platform/gpusysfs/fps
15782016-10-18 12:53:20.668 DEBUG:  SurfaceFlinger : FPS : 61.60
15792016-10-18 12:53:20.668 WARN:   SurfaceFlinger : Fail to Open /sys/devices/platform/gpusysfs/fps
15802016-10-18 12:53:20.688 DEBUG:  SurfaceFlinger : FPS : 61.60
15812016-10-18 12:53:20.688 WARN:   SurfaceFlinger : Fail to Open /sys/devices/platform/gpusysfs/fps
15822016-10-18 12:53:20.688 DEBUG:  StatusBar.NetworkController : refreshViews connected={ wifi } level=0 combinedSignalIconId=0x7f020517/com.android.systemui:drawable/stat_sys_wifi_signal_4 mobileLabel= wifiLabel="TestObject Devices"xxxxXXXXxxxxXXXX emergencyOnly=false combinedLabel="TestObject Devices"xxxxXXXXxxxxXXXX mAirplaneMode=true mDataActivity=0 mPhoneSignalIconId=0x0/(null) mQSPhoneSignalIconId=0x0/(null) mDataDirectionIconId=0x0/(null) mDataSignalIconId=0x0/(null) mDataTypeIconId=0x0/(null) mQSDataTypeIconId=0x0/(null) mNoSimIconId=0x0/(null) mWifiIconId=0x7f020517/com.android.systemui:drawable/stat_sys_wifi_signal_4 mQSWifiIconId=0x7f020143/com.android.systemui:drawable/ic_qs_wifi_4 mWifiActivityIconId=0x7f0204e6/com.android.systemui:drawable/stat_sys_signal_in mBluetoothTetherIconId=0x10808cc/android:drawable/stat_sys_tether_bluetooth
15832016-10-18 12:53:20.688 DEBUG:  STATUSBAR-WifiQuickSettingButton : onWifiSignalChanged enabled=true enabledDesc:"TestObject Devices"
15842016-10-18 12:53:20.688 DEBUG:  StatusBar.NetworkController : refreshSignalCluster - setNWBoosterIndicators(false)
15852016-10-18 12:53:20.688 DEBUG:  StatusBar.NetworkController : applyOpen
15862016-10-18 12:53:20.688 DEBUG:  StatusBar.NetworkController : refreshSignalCluster - setNWBoosterIndicators(false)
15872016-10-18 12:53:20.688 DEBUG:  StatusBar.NetworkController : applyOpen
15882016-10-18 12:53:20.688 DEBUG:  StatusBar.NetworkController : refreshSignalCluster - setNWBoosterIndicators(false)
15892016-10-18 12:53:20.688 DEBUG:  StatusBar.NetworkController : applyOpen
15902016-10-18 12:53:20.688 DEBUG:  StatusBar.NetworkController : refreshSignalCluster - setNWBoosterIndicators(false)
15912016-10-18 12:53:20.688 DEBUG:  StatusBar.NetworkController : applyOpen
15922016-10-18 12:53:20.708 DEBUG:  SurfaceFlinger : FPS : 61.60
15932016-10-18 12:53:20.708 WARN:   SurfaceFlinger : Fail to Open /sys/devices/platform/gpusysfs/fps
15942016-10-18 12:53:20.718 DEBUG:  SurfaceFlinger : FPS : 61.60
15952016-10-18 12:53:20.718 WARN:   SurfaceFlinger : Fail to Open /sys/devices/platform/gpusysfs/fps
15962016-10-18 12:53:20.739 DEBUG:  SurfaceFlinger : FPS : 61.60
15972016-10-18 12:53:20.739 WARN:   SurfaceFlinger : Fail to Open /sys/devices/platform/gpusysfs/fps
15982016-10-18 12:53:20.749 DEBUG:  SurfaceFlinger : FPS : 61.60
15992016-10-18 12:53:20.749 WARN:   SurfaceFlinger : Fail to Open /sys/devices/platform/gpusysfs/fps
16002016-10-18 12:53:20.769 DEBUG:  SurfaceFlinger : FPS : 61.60
16012016-10-18 12:53:20.769 WARN:   SurfaceFlinger : Fail to Open /sys/devices/platform/gpusysfs/fps
16022016-10-18 12:53:20.789 DEBUG:  SurfaceFlinger : FPS : 61.60
16032016-10-18 12:53:20.789 WARN:   SurfaceFlinger : Fail to Open /sys/devices/platform/gpusysfs/fps
16042016-10-18 12:53:20.809 DEBUG:  SurfaceFlinger : FPS : 61.60
16052016-10-18 12:53:20.809 WARN:   SurfaceFlinger : Fail to Open /sys/devices/platform/gpusysfs/fps
16062016-10-18 12:53:20.819 DEBUG:  SurfaceFlinger : FPS : 61.60
16072016-10-18 12:53:20.819 WARN:   SurfaceFlinger : Fail to Open /sys/devices/platform/gpusysfs/fps
16082016-10-18 12:53:20.829 DEBUG:  TimaService : TIMA: TimaService scheduler is intialized.
16092016-10-18 12:53:20.829 DEBUG:  TimaService : TIMA: checkEvent, operation: 50000 subject: 10000
16102016-10-18 12:53:20.829 DEBUG:  TimaService : TimaServiceHandler.handleMessage what =1
16112016-10-18 12:53:20.829 DEBUG:  PowerManagerService : [input device light] setInputDeviceLightOn is called : 1
16122016-10-18 12:53:20.829 DEBUG:   : TIMA: tima-pkm-check event req_len=8612,resp_len=4104!
16132016-10-18 12:53:20.829 DEBUG:  PowerManagerService : [input device light] handleInputDeviceLightOn
16142016-10-18 12:53:20.829 DEBUG:   : TIMA: tima-pkm-check event call to open backend shared_mem_len=8612!
16152016-10-18 12:53:20.829 DEBUG:   : TAL: TIMA_backend_open--int8_t TIMA_backend_open(void**, appID, uint32_t, uint32_t)
16162016-10-18 12:53:20.829 DEBUG:   : TIMA: QCOM_backend_open--int8_t QCOM_backend_open(void**, appID, uint32_t, uint32_t)
16172016-10-18 12:53:20.829 DEBUG:  QSEECOMAPI: : App is already loaded QSEE and app id = 3
16182016-10-18 12:53:20.829 DEBUG:   : TIMA: tima-pkm--TZAPPS is already loaded!
16192016-10-18 12:53:20.829 DEBUG:   : TAL: TIMA_PKM_measure_kernel--int8_t TIMA_PKM_measure_kernel(TIMA_handle_t, void*, uint32_t, void*, uint32_t, uint32_t)
16202016-10-18 12:53:20.829 DEBUG:   : TIMA: QCOM_send_command--int8_t QCOM_send_command(TIMA_handle_t, void*, uint32_t, void*, uint32_t, uint32_t)
16212016-10-18 12:53:20.829 DEBUG:   : rsp_len = 1008 rcvd_data_len = 1040, self_calculate_len=1040
16222016-10-18 12:53:20.849 DEBUG:  SurfaceFlinger : FPS : 61.60
16232016-10-18 12:53:20.849 WARN:   SurfaceFlinger : Fail to Open /sys/devices/platform/gpusysfs/fps
16242016-10-18 12:53:20.849 DEBUG:   : TIMA: QCOM_send_command result--0
16252016-10-18 12:53:20.849 DEBUG:   : TIMA_PKM_measure_kernel returns with resp..ret=512!
16262016-10-18 12:53:20.849 DEBUG:   : TAL: TIMA_PKM_measure_kernel--int8_t TIMA_PKM_measure_kernel(TIMA_handle_t, void*, uint32_t, void*, uint32_t, uint32_t)
16272016-10-18 12:53:20.849 DEBUG:   : TIMA: QCOM_send_command--int8_t QCOM_send_command(TIMA_handle_t, void*, uint32_t, void*, uint32_t, uint32_t)
16282016-10-18 12:53:20.849 DEBUG:   : rsp_len = 1008 rcvd_data_len = 1040, self_calculate_len=1040
16292016-10-18 12:53:20.859 DEBUG:   : TIMA: QCOM_send_command result--0
16302016-10-18 12:53:20.859 DEBUG:   : TIMA_PKM_measure_kernel returns with resp..ret=512!
16312016-10-18 12:53:20.859 DEBUG:   : TAL: TIMA_PKM_measure_kernel--int8_t TIMA_PKM_measure_kernel(TIMA_handle_t, void*, uint32_t, void*, uint32_t, uint32_t)
16322016-10-18 12:53:20.859 DEBUG:   : TIMA: QCOM_send_command--int8_t QCOM_send_command(TIMA_handle_t, void*, uint32_t, void*, uint32_t, uint32_t)
16332016-10-18 12:53:20.859 DEBUG:   : rsp_len = 1008 rcvd_data_len = 1040, self_calculate_len=1040
16342016-10-18 12:53:20.869 DEBUG:  SurfaceFlinger : FPS : 61.60
16352016-10-18 12:53:20.869 WARN:   SurfaceFlinger : Fail to Open /sys/devices/platform/gpusysfs/fps
16362016-10-18 12:53:20.869 DEBUG:   : TIMA: QCOM_send_command result--0
16372016-10-18 12:53:20.869 DEBUG:   : TIMA_PKM_measure_kernel returns with resp..ret=512!
16382016-10-18 12:53:20.869 DEBUG:   : TAL: TIMA_PKM_measure_kernel--int8_t TIMA_PKM_measure_kernel(TIMA_handle_t, void*, uint32_t, void*, uint32_t, uint32_t)
16392016-10-18 12:53:20.869 DEBUG:   : TIMA: QCOM_send_command--int8_t QCOM_send_command(TIMA_handle_t, void*, uint32_t, void*, uint32_t, uint32_t)
16402016-10-18 12:53:20.869 DEBUG:   : rsp_len = 1008 rcvd_data_len = 1040, self_calculate_len=1040
16412016-10-18 12:53:20.879 DEBUG:  SurfaceFlinger : FPS : 61.60
16422016-10-18 12:53:20.879 WARN:   SurfaceFlinger : Fail to Open /sys/devices/platform/gpusysfs/fps
16432016-10-18 12:53:20.889 DEBUG:  SurfaceFlinger : FPS : 61.60
16442016-10-18 12:53:20.889 WARN:   SurfaceFlinger : Fail to Open /sys/devices/platform/gpusysfs/fps
16452016-10-18 12:53:20.889 DEBUG:   : TIMA: QCOM_send_command result--0
16462016-10-18 12:53:20.889 DEBUG:   : TIMA_PKM_measure_kernel returns with resp..ret=512!
16472016-10-18 12:53:20.889 DEBUG:   : TAL: TIMA_PKM_measure_kernel--int8_t TIMA_PKM_measure_kernel(TIMA_handle_t, void*, uint32_t, void*, uint32_t, uint32_t)
16482016-10-18 12:53:20.889 DEBUG:   : TIMA: QCOM_send_command--int8_t QCOM_send_command(TIMA_handle_t, void*, uint32_t, void*, uint32_t, uint32_t)
16492016-10-18 12:53:20.889 DEBUG:   : rsp_len = 1008 rcvd_data_len = 1040, self_calculate_len=1040
16502016-10-18 12:53:20.899 DEBUG:  SurfaceFlinger : FPS : 60.12
16512016-10-18 12:53:20.899 WARN:   SurfaceFlinger : Fail to Open /sys/devices/platform/gpusysfs/fps
16522016-10-18 12:53:20.909 DEBUG:   : TIMA: QCOM_send_command result--0
16532016-10-18 12:53:20.909 DEBUG:   : TIMA_PKM_measure_kernel returns with resp..ret=512!
16542016-10-18 12:53:20.909 DEBUG:   : TAL: TIMA_PKM_measure_kernel--int8_t TIMA_PKM_measure_kernel(TIMA_handle_t, void*, uint32_t, void*, uint32_t, uint32_t)
16552016-10-18 12:53:20.909 DEBUG:   : TIMA: QCOM_send_command--int8_t QCOM_send_command(TIMA_handle_t, void*, uint32_t, void*, uint32_t, uint32_t)
16562016-10-18 12:53:20.909 DEBUG:   : rsp_len = 1008 rcvd_data_len = 1040, self_calculate_len=1040
16572016-10-18 12:53:20.919 DEBUG:  SurfaceFlinger : FPS : 60.12
16582016-10-18 12:53:20.919 WARN:   SurfaceFlinger : Fail to Open /sys/devices/platform/gpusysfs/fps
16592016-10-18 12:53:20.919 DEBUG:   : TIMA: QCOM_send_command result--0
16602016-10-18 12:53:20.929 DEBUG:   : TIMA_PKM_measure_kernel returns with resp..ret=512!
16612016-10-18 12:53:20.929 DEBUG:   : TAL: TIMA_PKM_measure_kernel--int8_t TIMA_PKM_measure_kernel(TIMA_handle_t, void*, uint32_t, void*, uint32_t, uint32_t)
16622016-10-18 12:53:20.929 DEBUG:   : TIMA: QCOM_send_command--int8_t QCOM_send_command(TIMA_handle_t, void*, uint32_t, void*, uint32_t, uint32_t)
16632016-10-18 12:53:20.929 DEBUG:   : rsp_len = 1008 rcvd_data_len = 1040, self_calculate_len=1040
16642016-10-18 12:53:20.939 DEBUG:  SurfaceFlinger : FPS : 60.12
16652016-10-18 12:53:20.939 WARN:   SurfaceFlinger : Fail to Open /sys/devices/platform/gpusysfs/fps
16662016-10-18 12:53:20.939 DEBUG:   : TIMA: QCOM_send_command result--0
16672016-10-18 12:53:20.939 DEBUG:   : TIMA_PKM_measure_kernel returns with resp..ret=512!
16682016-10-18 12:53:20.939 DEBUG:   : TAL: TIMA_PKM_measure_kernel--int8_t TIMA_PKM_measure_kernel(TIMA_handle_t, void*, uint32_t, void*, uint32_t, uint32_t)
16692016-10-18 12:53:20.939 DEBUG:   : TIMA: QCOM_send_command--int8_t QCOM_send_command(TIMA_handle_t, void*, uint32_t, void*, uint32_t, uint32_t)
16702016-10-18 12:53:20.939 DEBUG:   : rsp_len = 1008 rcvd_data_len = 1040, self_calculate_len=1040
16712016-10-18 12:53:20.949 DEBUG:   : TIMA: QCOM_send_command result--0
16722016-10-18 12:53:20.949 DEBUG:   : TIMA_PKM_measure_kernel returns with resp..ret=512!
16732016-10-18 12:53:20.949 DEBUG:   : TAL: TIMA_PKM_measure_kernel--int8_t TIMA_PKM_measure_kernel(TIMA_handle_t, void*, uint32_t, void*, uint32_t, uint32_t)
16742016-10-18 12:53:20.949 DEBUG:   : TIMA: QCOM_send_command--int8_t QCOM_send_command(TIMA_handle_t, void*, uint32_t, void*, uint32_t, uint32_t)
16752016-10-18 12:53:20.949 DEBUG:   : rsp_len = 1008 rcvd_data_len = 1040, self_calculate_len=1040
16762016-10-18 12:53:20.959 DEBUG:   : TIMA: QCOM_send_command result--0
16772016-10-18 12:53:20.959 DEBUG:   : TIMA_PKM_measure_kernel returns with resp..ret=512!
16782016-10-18 12:53:20.959 DEBUG:   : TAL: TIMA_PKM_measure_kernel--int8_t TIMA_PKM_measure_kernel(TIMA_handle_t, void*, uint32_t, void*, uint32_t, uint32_t)
16792016-10-18 12:53:20.959 DEBUG:   : TIMA: QCOM_send_command--int8_t QCOM_send_command(TIMA_handle_t, void*, uint32_t, void*, uint32_t, uint32_t)
16802016-10-18 12:53:20.959 DEBUG:   : rsp_len = 1008 rcvd_data_len = 1040, self_calculate_len=1040
16812016-10-18 12:53:20.959 DEBUG:  SurfaceFlinger : FPS : 60.12
16822016-10-18 12:53:20.959 WARN:   SurfaceFlinger : Fail to Open /sys/devices/platform/gpusysfs/fps
16832016-10-18 12:53:20.969 DEBUG:  SurfaceFlinger : FPS : 60.12
16842016-10-18 12:53:20.969 WARN:   SurfaceFlinger : Fail to Open /sys/devices/platform/gpusysfs/fps
16852016-10-18 12:53:20.969 DEBUG:   : TIMA: QCOM_send_command result--0
16862016-10-18 12:53:20.969 DEBUG:   : TIMA_PKM_measure_kernel returns with resp..ret=512!
16872016-10-18 12:53:20.969 DEBUG:   : TAL: TIMA_PKM_measure_kernel--int8_t TIMA_PKM_measure_kernel(TIMA_handle_t, void*, uint32_t, void*, uint32_t, uint32_t)
16882016-10-18 12:53:20.969 DEBUG:   : TIMA: QCOM_send_command--int8_t QCOM_send_command(TIMA_handle_t, void*, uint32_t, void*, uint32_t, uint32_t)
16892016-10-18 12:53:20.969 DEBUG:   : rsp_len = 1008 rcvd_data_len = 1040, self_calculate_len=1040
16902016-10-18 12:53:20.989 DEBUG:  SurfaceFlinger : FPS : 60.12
16912016-10-18 12:53:20.989 WARN:   SurfaceFlinger : Fail to Open /sys/devices/platform/gpusysfs/fps
16922016-10-18 12:53:20.989 DEBUG:   : TIMA: QCOM_send_command result--0
16932016-10-18 12:53:20.989 DEBUG:   : TIMA_PKM_measure_kernel returns with resp..ret=512!
16942016-10-18 12:53:20.989 DEBUG:   : TAL: TIMA_PKM_measure_kernel--int8_t TIMA_PKM_measure_kernel(TIMA_handle_t, void*, uint32_t, void*, uint32_t, uint32_t)
16952016-10-18 12:53:20.989 DEBUG:   : TIMA: QCOM_send_command--int8_t QCOM_send_command(TIMA_handle_t, void*, uint32_t, void*, uint32_t, uint32_t)
16962016-10-18 12:53:20.989 DEBUG:   : rsp_len = 1008 rcvd_data_len = 1040, self_calculate_len=1040
16972016-10-18 12:53:20.999 DEBUG:   : TIMA: QCOM_send_command result--0
16982016-10-18 12:53:20.999 DEBUG:   : TIMA_PKM_measure_kernel returns with resp..ret=512!
16992016-10-18 12:53:20.999 DEBUG:   : TAL: TIMA_PKM_measure_kernel--int8_t TIMA_PKM_measure_kernel(TIMA_handle_t, void*, uint32_t, void*, uint32_t, uint32_t)
17002016-10-18 12:53:20.999 DEBUG:   : TIMA: QCOM_send_command--int8_t QCOM_send_command(TIMA_handle_t, void*, uint32_t, void*, uint32_t, uint32_t)
17012016-10-18 12:53:20.999 DEBUG:   : rsp_len = 1008 rcvd_data_len = 1040, self_calculate_len=1040
17022016-10-18 12:53:20.999 DEBUG:  SurfaceFlinger : FPS : 60.12
17032016-10-18 12:53:20.999 WARN:   SurfaceFlinger : Fail to Open /sys/devices/platform/gpusysfs/fps
17042016-10-18 12:53:20.999 INFO:   TOOLKIT SERVICE : Request body '{"id":"1476780792133","type":"GET_SCREEN_ORIENTATION"}'
17052016-10-18 12:53:20.999 INFO:   DEVICE MANAGER : {"id":"1476780792133","type":"GET_SCREEN_ORIENTATION"}
17062016-10-18 12:53:21.009 INFO:   TOOLKIT SERVICE : Responding to client with: '{"id":"1476780792133","orientation":"PORTRAIT"}'
17072016-10-18 12:53:21.009 DEBUG:   : TIMA: QCOM_send_command result--0
17082016-10-18 12:53:21.009 DEBUG:   : TIMA_PKM_measure_kernel returns with resp..ret=512!
17092016-10-18 12:53:21.009 DEBUG:   : TAL: TIMA_PKM_measure_kernel--int8_t TIMA_PKM_measure_kernel(TIMA_handle_t, void*, uint32_t, void*, uint32_t, uint32_t)
17102016-10-18 12:53:21.009 DEBUG:   : TIMA: QCOM_send_command--int8_t QCOM_send_command(TIMA_handle_t, void*, uint32_t, void*, uint32_t, uint32_t)
17112016-10-18 12:53:21.009 DEBUG:   : rsp_len = 1008 rcvd_data_len = 1040, self_calculate_len=1040
17122016-10-18 12:53:21.009 DEBUG:  SurfaceFlinger : FPS : 60.12
17132016-10-18 12:53:21.009 WARN:   SurfaceFlinger : Fail to Open /sys/devices/platform/gpusysfs/fps
17142016-10-18 12:53:21.019 DEBUG:   : TIMA: QCOM_send_command result--0
17152016-10-18 12:53:21.029 DEBUG:   : TIMA_PKM_measure_kernel returns with resp..ret=512!
17162016-10-18 12:53:21.029 DEBUG:   : TAL: TIMA_PKM_measure_kernel--int8_t TIMA_PKM_measure_kernel(TIMA_handle_t, void*, uint32_t, void*, uint32_t, uint32_t)
17172016-10-18 12:53:21.029 DEBUG:   : TIMA: QCOM_send_command--int8_t QCOM_send_command(TIMA_handle_t, void*, uint32_t, void*, uint32_t, uint32_t)
17182016-10-18 12:53:21.029 DEBUG:   : rsp_len = 1008 rcvd_data_len = 1040, self_calculate_len=1040
17192016-10-18 12:53:21.039 DEBUG:  SurfaceFlinger : FPS : 60.12
17202016-10-18 12:53:21.039 WARN:   SurfaceFlinger : Fail to Open /sys/devices/platform/gpusysfs/fps
17212016-10-18 12:53:21.039 DEBUG:   : TIMA: QCOM_send_command result--0
17222016-10-18 12:53:21.039 DEBUG:   : TIMA_PKM_measure_kernel returns with resp..ret=512!
17232016-10-18 12:53:21.039 DEBUG:   : TAL: TIMA_PKM_measure_kernel--int8_t TIMA_PKM_measure_kernel(TIMA_handle_t, void*, uint32_t, void*, uint32_t, uint32_t)
17242016-10-18 12:53:21.039 DEBUG:   : TIMA: QCOM_send_command--int8_t QCOM_send_command(TIMA_handle_t, void*, uint32_t, void*, uint32_t, uint32_t)
17252016-10-18 12:53:21.039 DEBUG:   : rsp_len = 1008 rcvd_data_len = 1040, self_calculate_len=1040
17262016-10-18 12:53:21.039 DEBUG:  SurfaceFlinger : FPS : 60.12
17272016-10-18 12:53:21.039 WARN:   SurfaceFlinger : Fail to Open /sys/devices/platform/gpusysfs/fps
17282016-10-18 12:53:21.059 DEBUG:  Engine : Writing filters...
17292016-10-18 12:53:21.059 DEBUG:  Subscriptions : Writing filters to /data/data/org.adblockplus.adblockplussbrowser/cache/subscriptions/tmp-4105878.txt
17302016-10-18 12:53:21.059 DEBUG:  Subscriptions : Adding filters for 'url:https://easylist-downloads.adblockplus.org/easylist.txt'
17312016-10-18 12:53:21.059 DEBUG:   : TIMA: QCOM_send_command result--0
17322016-10-18 12:53:21.059 DEBUG:   : TIMA_PKM_measure_kernel returns with resp..ret=512!
17332016-10-18 12:53:21.059 DEBUG:   : TAL: TIMA_PKM_measure_kernel--int8_t TIMA_PKM_measure_kernel(TIMA_handle_t, void*, uint32_t, void*, uint32_t, uint32_t)
17342016-10-18 12:53:21.059 DEBUG:   : TIMA: QCOM_send_command--int8_t QCOM_send_command(TIMA_handle_t, void*, uint32_t, void*, uint32_t, uint32_t)
17352016-10-18 12:53:21.059 DEBUG:   : rsp_len = 1008 rcvd_data_len = 1040, self_calculate_len=1040
17362016-10-18 12:53:21.059 DEBUG:  SurfaceFlinger : FPS : 60.12
17372016-10-18 12:53:21.059 WARN:   SurfaceFlinger : Fail to Open /sys/devices/platform/gpusysfs/fps
17382016-10-18 12:53:21.059 DEBUG:   : TIMA: QCOM_send_command result--0
17392016-10-18 12:53:21.059 DEBUG:   : TIMA_PKM_measure_kernel returns with resp..ret=512!
17402016-10-18 12:53:21.059 DEBUG:   : TAL: TIMA_PKM_measure_kernel--int8_t TIMA_PKM_measure_kernel(TIMA_handle_t, void*, uint32_t, void*, uint32_t, uint32_t)
17412016-10-18 12:53:21.059 DEBUG:   : TIMA: QCOM_send_command--int8_t QCOM_send_command(TIMA_handle_t, void*, uint32_t, void*, uint32_t, uint32_t)
17422016-10-18 12:53:21.059 DEBUG:   : rsp_len = 1008 rcvd_data_len = 1040, self_calculate_len=1040
17432016-10-18 12:53:21.079 DEBUG:  SurfaceFlinger : FPS : 60.12
17442016-10-18 12:53:21.079 WARN:   SurfaceFlinger : Fail to Open /sys/devices/platform/gpusysfs/fps
17452016-10-18 12:53:21.079 DEBUG:   : TIMA: QCOM_send_command result--0
17462016-10-18 12:53:21.079 DEBUG:   : TIMA_PKM_measure_kernel returns with resp..ret=512!
17472016-10-18 12:53:21.079 DEBUG:   : TAL: TIMA_PKM_measure_kernel--int8_t TIMA_PKM_measure_kernel(TIMA_handle_t, void*, uint32_t, void*, uint32_t, uint32_t)
17482016-10-18 12:53:21.079 DEBUG:   : TIMA: QCOM_send_command--int8_t QCOM_send_command(TIMA_handle_t, void*, uint32_t, void*, uint32_t, uint32_t)
17492016-10-18 12:53:21.079 DEBUG:   : rsp_len = 1008 rcvd_data_len = 1040, self_calculate_len=1040
17502016-10-18 12:53:21.099 DEBUG:   : TIMA: QCOM_send_command result--0
17512016-10-18 12:53:21.099 DEBUG:   : TIMA_PKM_measure_kernel returns with resp..ret=512!
17522016-10-18 12:53:21.099 DEBUG:   : TAL: TIMA_PKM_measure_kernel--int8_t TIMA_PKM_measure_kernel(TIMA_handle_t, void*, uint32_t, void*, uint32_t, uint32_t)
17532016-10-18 12:53:21.099 DEBUG:   : TIMA: QCOM_send_command--int8_t QCOM_send_command(TIMA_handle_t, void*, uint32_t, void*, uint32_t, uint32_t)
17542016-10-18 12:53:21.099 DEBUG:   : rsp_len = 1008 rcvd_data_len = 1040, self_calculate_len=1040
17552016-10-18 12:53:21.099 DEBUG:  SurfaceFlinger : FPS : 60.12
17562016-10-18 12:53:21.099 WARN:   SurfaceFlinger : Fail to Open /sys/devices/platform/gpusysfs/fps
17572016-10-18 12:53:21.099 DEBUG:   : TIMA: QCOM_send_command result--0
17582016-10-18 12:53:21.099 DEBUG:   : TIMA_PKM_measure_kernel returns with resp..ret=512!
17592016-10-18 12:53:21.099 DEBUG:   : TAL: TIMA_PKM_measure_kernel--int8_t TIMA_PKM_measure_kernel(TIMA_handle_t, void*, uint32_t, void*, uint32_t, uint32_t)
17602016-10-18 12:53:21.099 DEBUG:   : TIMA: QCOM_send_command--int8_t QCOM_send_command(TIMA_handle_t, void*, uint32_t, void*, uint32_t, uint32_t)
17612016-10-18 12:53:21.099 DEBUG:   : rsp_len = 1008 rcvd_data_len = 1040, self_calculate_len=1040
17622016-10-18 12:53:21.119 DEBUG:  SurfaceFlinger : FPS : 60.12
17632016-10-18 12:53:21.119 WARN:   SurfaceFlinger : Fail to Open /sys/devices/platform/gpusysfs/fps
17642016-10-18 12:53:21.119 DEBUG:   : TIMA: QCOM_send_command result--0
17652016-10-18 12:53:21.119 DEBUG:   : TIMA_PKM_measure_kernel returns with resp..ret=512!
17662016-10-18 12:53:21.119 DEBUG:   : TAL: TIMA_PKM_measure_kernel--int8_t TIMA_PKM_measure_kernel(TIMA_handle_t, void*, uint32_t, void*, uint32_t, uint32_t)
17672016-10-18 12:53:21.119 DEBUG:   : TIMA: QCOM_send_command--int8_t QCOM_send_command(TIMA_handle_t, void*, uint32_t, void*, uint32_t, uint32_t)
17682016-10-18 12:53:21.119 DEBUG:   : rsp_len = 1008 rcvd_data_len = 1040, self_calculate_len=1040
17692016-10-18 12:53:21.129 DEBUG:  SurfaceFlinger : FPS : 60.12
17702016-10-18 12:53:21.129 WARN:   SurfaceFlinger : Fail to Open /sys/devices/platform/gpusysfs/fps
17712016-10-18 12:53:21.129 DEBUG:   : TIMA: QCOM_send_command result--0
17722016-10-18 12:53:21.129 DEBUG:   : TIMA_PKM_measure_kernel returns with resp..ret=512!
17732016-10-18 12:53:21.129 DEBUG:   : TAL: TIMA_PKM_measure_kernel--int8_t TIMA_PKM_measure_kernel(TIMA_handle_t, void*, uint32_t, void*, uint32_t, uint32_t)
17742016-10-18 12:53:21.129 DEBUG:   : TIMA: QCOM_send_command--int8_t QCOM_send_command(TIMA_handle_t, void*, uint32_t, void*, uint32_t, uint32_t)
17752016-10-18 12:53:21.129 DEBUG:   : rsp_len = 1008 rcvd_data_len = 1040, self_calculate_len=1040
17762016-10-18 12:53:21.139 DEBUG:  SurfaceFlinger : FPS : 59.94
17772016-10-18 12:53:21.139 WARN:   SurfaceFlinger : Fail to Open /sys/devices/platform/gpusysfs/fps
17782016-10-18 12:53:21.149 DEBUG:   : TIMA: QCOM_send_command result--0
17792016-10-18 12:53:21.149 DEBUG:   : TIMA_PKM_measure_kernel returns with resp..ret=512!
17802016-10-18 12:53:21.149 DEBUG:   : TAL: TIMA_PKM_measure_kernel--int8_t TIMA_PKM_measure_kernel(TIMA_handle_t, void*, uint32_t, void*, uint32_t, uint32_t)
17812016-10-18 12:53:21.149 DEBUG:   : TIMA: QCOM_send_command--int8_t QCOM_send_command(TIMA_handle_t, void*, uint32_t, void*, uint32_t, uint32_t)
17822016-10-18 12:53:21.149 DEBUG:   : rsp_len = 1008 rcvd_data_len = 1040, self_calculate_len=1040
17832016-10-18 12:53:21.159 DEBUG:  SurfaceFlinger : FPS : 59.94
17842016-10-18 12:53:21.159 WARN:   SurfaceFlinger : Fail to Open /sys/devices/platform/gpusysfs/fps
17852016-10-18 12:53:21.169 DEBUG:   : TIMA: QCOM_send_command result--0
17862016-10-18 12:53:21.169 DEBUG:   : TIMA_PKM_measure_kernel returns with resp..ret=512!
17872016-10-18 12:53:21.169 DEBUG:   : TAL: TIMA_PKM_measure_kernel--int8_t TIMA_PKM_measure_kernel(TIMA_handle_t, void*, uint32_t, void*, uint32_t, uint32_t)
17882016-10-18 12:53:21.169 DEBUG:   : TIMA: QCOM_send_command--int8_t QCOM_send_command(TIMA_handle_t, void*, uint32_t, void*, uint32_t, uint32_t)
17892016-10-18 12:53:21.169 DEBUG:   : rsp_len = 1008 rcvd_data_len = 1040, self_calculate_len=1040
17902016-10-18 12:53:21.179 ERROR:  SMD : smd Interface open failed errno is 2 -1
17912016-10-18 12:53:21.179 DEBUG:  SurfaceFlinger : FPS : 59.94
17922016-10-18 12:53:21.179 WARN:   SurfaceFlinger : Fail to Open /sys/devices/platform/gpusysfs/fps
17932016-10-18 12:53:21.179 DEBUG:   : TIMA: QCOM_send_command result--0
17942016-10-18 12:53:21.179 DEBUG:   : TIMA_PKM_measure_kernel returns with resp..ret=512!
17952016-10-18 12:53:21.179 DEBUG:   : TAL: TIMA_PKM_measure_kernel--int8_t TIMA_PKM_measure_kernel(TIMA_handle_t, void*, uint32_t, void*, uint32_t, uint32_t)
17962016-10-18 12:53:21.179 DEBUG:   : TIMA: QCOM_send_command--int8_t QCOM_send_command(TIMA_handle_t, void*, uint32_t, void*, uint32_t, uint32_t)
17972016-10-18 12:53:21.179 DEBUG:   : rsp_len = 1008 rcvd_data_len = 1040, self_calculate_len=1040
17982016-10-18 12:53:21.189 DEBUG:   : TIMA: QCOM_send_command result--0
17992016-10-18 12:53:21.189 DEBUG:   : TIMA_PKM_measure_kernel returns with resp..ret=512!
18002016-10-18 12:53:21.189 DEBUG:   : TAL: TIMA_PKM_measure_kernel--int8_t TIMA_PKM_measure_kernel(TIMA_handle_t, void*, uint32_t, void*, uint32_t, uint32_t)
18012016-10-18 12:53:21.189 DEBUG:   : TIMA: QCOM_send_command--int8_t QCOM_send_command(TIMA_handle_t, void*, uint32_t, void*, uint32_t, uint32_t)
18022016-10-18 12:53:21.189 DEBUG:   : rsp_len = 1008 rcvd_data_len = 1040, self_calculate_len=1040
18032016-10-18 12:53:21.199 DEBUG:  SurfaceFlinger : FPS : 59.94
18042016-10-18 12:53:21.199 WARN:   SurfaceFlinger : Fail to Open /sys/devices/platform/gpusysfs/fps
18052016-10-18 12:53:21.209 DEBUG:  SurfaceFlinger : FPS : 59.94
18062016-10-18 12:53:21.209 WARN:   SurfaceFlinger : Fail to Open /sys/devices/platform/gpusysfs/fps
18072016-10-18 12:53:21.209 DEBUG:   : TIMA: QCOM_send_command result--0
18082016-10-18 12:53:21.209 DEBUG:   : TIMA_PKM_measure_kernel returns with resp..ret=512!
18092016-10-18 12:53:21.209 DEBUG:   : TAL: TIMA_PKM_measure_kernel--int8_t TIMA_PKM_measure_kernel(TIMA_handle_t, void*, uint32_t, void*, uint32_t, uint32_t)
18102016-10-18 12:53:21.209 DEBUG:   : TIMA: QCOM_send_command--int8_t QCOM_send_command(TIMA_handle_t, void*, uint32_t, void*, uint32_t, uint32_t)
18112016-10-18 12:53:21.209 DEBUG:   : rsp_len = 1008 rcvd_data_len = 1040, self_calculate_len=1040
18122016-10-18 12:53:21.229 DEBUG:   : TIMA: QCOM_send_command result--0
18132016-10-18 12:53:21.229 DEBUG:  SurfaceFlinger : FPS : 59.94
18142016-10-18 12:53:21.229 WARN:   SurfaceFlinger : Fail to Open /sys/devices/platform/gpusysfs/fps
18152016-10-18 12:53:21.229 DEBUG:   : TIMA_PKM_measure_kernel returns with resp..ret=512!
18162016-10-18 12:53:21.229 DEBUG:   : TAL: TIMA_PKM_measure_kernel--int8_t TIMA_PKM_measure_kernel(TIMA_handle_t, void*, uint32_t, void*, uint32_t, uint32_t)
18172016-10-18 12:53:21.229 DEBUG:   : TIMA: QCOM_send_command--int8_t QCOM_send_command(TIMA_handle_t, void*, uint32_t, void*, uint32_t, uint32_t)
18182016-10-18 12:53:21.229 DEBUG:   : rsp_len = 1008 rcvd_data_len = 1040, self_calculate_len=1040
18192016-10-18 12:53:21.239 DEBUG:  SurfaceFlinger : FPS : 59.94
18202016-10-18 12:53:21.239 WARN:   SurfaceFlinger : Fail to Open /sys/devices/platform/gpusysfs/fps
18212016-10-18 12:53:21.239 DEBUG:   : TIMA: QCOM_send_command result--0
18222016-10-18 12:53:21.239 DEBUG:   : TIMA_PKM_measure_kernel returns with resp..ret=512!
18232016-10-18 12:53:21.239 DEBUG:   : TAL: TIMA_PKM_measure_kernel--int8_t TIMA_PKM_measure_kernel(TIMA_handle_t, void*, uint32_t, void*, uint32_t, uint32_t)
18242016-10-18 12:53:21.239 DEBUG:   : TIMA: QCOM_send_command--int8_t QCOM_send_command(TIMA_handle_t, void*, uint32_t, void*, uint32_t, uint32_t)
18252016-10-18 12:53:21.239 DEBUG:   : rsp_len = 1008 rcvd_data_len = 1040, self_calculate_len=1040
18262016-10-18 12:53:21.259 DEBUG:  SurfaceFlinger : FPS : 59.94
18272016-10-18 12:53:21.259 WARN:   SurfaceFlinger : Fail to Open /sys/devices/platform/gpusysfs/fps
18282016-10-18 12:53:21.259 DEBUG:   : TIMA: QCOM_send_command result--0
18292016-10-18 12:53:21.259 DEBUG:   : TIMA_PKM_measure_kernel returns with resp..ret=512!
18302016-10-18 12:53:21.259 DEBUG:   : TAL: TIMA_PKM_measure_kernel--int8_t TIMA_PKM_measure_kernel(TIMA_handle_t, void*, uint32_t, void*, uint32_t, uint32_t)
18312016-10-18 12:53:21.259 DEBUG:   : TIMA: QCOM_send_command--int8_t QCOM_send_command(TIMA_handle_t, void*, uint32_t, void*, uint32_t, uint32_t)
18322016-10-18 12:53:21.259 DEBUG:   : rsp_len = 1008 rcvd_data_len = 1040, self_calculate_len=1040
18332016-10-18 12:53:21.279 DEBUG:  SurfaceFlinger : FPS : 59.94
18342016-10-18 12:53:21.279 WARN:   SurfaceFlinger : Fail to Open /sys/devices/platform/gpusysfs/fps
18352016-10-18 12:53:21.279 DEBUG:   : TIMA: QCOM_send_command result--0
18362016-10-18 12:53:21.279 DEBUG:   : TIMA_PKM_measure_kernel returns with resp..ret=512!
18372016-10-18 12:53:21.279 DEBUG:   : TAL: TIMA_PKM_measure_kernel--int8_t TIMA_PKM_measure_kernel(TIMA_handle_t, void*, uint32_t, void*, uint32_t, uint32_t)
18382016-10-18 12:53:21.279 DEBUG:   : TIMA: QCOM_send_command--int8_t QCOM_send_command(TIMA_handle_t, void*, uint32_t, void*, uint32_t, uint32_t)
18392016-10-18 12:53:21.279 DEBUG:   : rsp_len = 1008 rcvd_data_len = 1040, self_calculate_len=1040
18402016-10-18 12:53:21.299 DEBUG:  SurfaceFlinger : FPS : 59.94
18412016-10-18 12:53:21.299 WARN:   SurfaceFlinger : Fail to Open /sys/devices/platform/gpusysfs/fps
18422016-10-18 12:53:21.299 DEBUG:   : TIMA: QCOM_send_command result--0
18432016-10-18 12:53:21.299 DEBUG:   : TIMA_PKM_measure_kernel returns with resp..ret=512!
18442016-10-18 12:53:21.299 DEBUG:   : TAL: TIMA_PKM_measure_kernel--int8_t TIMA_PKM_measure_kernel(TIMA_handle_t, void*, uint32_t, void*, uint32_t, uint32_t)
18452016-10-18 12:53:21.299 DEBUG:   : TIMA: QCOM_send_command--int8_t QCOM_send_command(TIMA_handle_t, void*, uint32_t, void*, uint32_t, uint32_t)
18462016-10-18 12:53:21.299 DEBUG:   : rsp_len = 1008 rcvd_data_len = 1040, self_calculate_len=1040
18472016-10-18 12:53:21.309 DEBUG:   : TIMA: QCOM_send_command result--0
18482016-10-18 12:53:21.309 DEBUG:  SurfaceFlinger : FPS : 59.94
18492016-10-18 12:53:21.309 WARN:   SurfaceFlinger : Fail to Open /sys/devices/platform/gpusysfs/fps
18502016-10-18 12:53:21.309 DEBUG:   : TIMA_PKM_measure_kernel returns with resp..ret=512!
18512016-10-18 12:53:21.309 DEBUG:   : TAL: TIMA_PKM_measure_kernel--int8_t TIMA_PKM_measure_kernel(TIMA_handle_t, void*, uint32_t, void*, uint32_t, uint32_t)
18522016-10-18 12:53:21.309 DEBUG:   : TIMA: QCOM_send_command--int8_t QCOM_send_command(TIMA_handle_t, void*, uint32_t, void*, uint32_t, uint32_t)
18532016-10-18 12:53:21.309 DEBUG:   : rsp_len = 1008 rcvd_data_len = 1040, self_calculate_len=1040
18542016-10-18 12:53:21.329 DEBUG:   : TIMA: QCOM_send_command result--0
18552016-10-18 12:53:21.329 DEBUG:   : TIMA_PKM_measure_kernel returns with resp..ret=512!
18562016-10-18 12:53:21.329 DEBUG:   : TAL: TIMA_PKM_measure_kernel--int8_t TIMA_PKM_measure_kernel(TIMA_handle_t, void*, uint32_t, void*, uint32_t, uint32_t)
18572016-10-18 12:53:21.329 DEBUG:   : TIMA: QCOM_send_command--int8_t QCOM_send_command(TIMA_handle_t, void*, uint32_t, void*, uint32_t, uint32_t)
18582016-10-18 12:53:21.329 DEBUG:   : rsp_len = 1008 rcvd_data_len = 1040, self_calculate_len=1040
18592016-10-18 12:53:21.329 DEBUG:  SurfaceFlinger : FPS : 59.94
18602016-10-18 12:53:21.329 WARN:   SurfaceFlinger : Fail to Open /sys/devices/platform/gpusysfs/fps
18612016-10-18 12:53:21.339 DEBUG:   : TIMA: QCOM_send_command result--0
18622016-10-18 12:53:21.339 DEBUG:   : TIMA_PKM_measure_kernel returns with resp..ret=512!
18632016-10-18 12:53:21.339 DEBUG:   : TAL: TIMA_PKM_measure_kernel--int8_t TIMA_PKM_measure_kernel(TIMA_handle_t, void*, uint32_t, void*, uint32_t, uint32_t)
18642016-10-18 12:53:21.339 DEBUG:   : TIMA: QCOM_send_command--int8_t QCOM_send_command(TIMA_handle_t, void*, uint32_t, void*, uint32_t, uint32_t)
18652016-10-18 12:53:21.339 DEBUG:   : rsp_len = 1008 rcvd_data_len = 1040, self_calculate_len=1040
18662016-10-18 12:53:21.339 DEBUG:  SurfaceFlinger : FPS : 59.94
18672016-10-18 12:53:21.339 WARN:   SurfaceFlinger : Fail to Open /sys/devices/platform/gpusysfs/fps
18682016-10-18 12:53:21.349 DEBUG:   : TIMA: QCOM_send_command result--0
18692016-10-18 12:53:21.349 DEBUG:   : TIMA_PKM_measure_kernel returns with resp..ret=512!
18702016-10-18 12:53:21.349 DEBUG:   : TAL: TIMA_PKM_measure_kernel--int8_t TIMA_PKM_measure_kernel(TIMA_handle_t, void*, uint32_t, void*, uint32_t, uint32_t)
18712016-10-18 12:53:21.349 DEBUG:   : TIMA: QCOM_send_command--int8_t QCOM_send_command(TIMA_handle_t, void*, uint32_t, void*, uint32_t, uint32_t)
18722016-10-18 12:53:21.349 DEBUG:   : rsp_len = 1008 rcvd_data_len = 1040, self_calculate_len=1040
18732016-10-18 12:53:21.359 DEBUG:  SurfaceFlinger : FPS : 59.94
18742016-10-18 12:53:21.359 WARN:   SurfaceFlinger : Fail to Open /sys/devices/platform/gpusysfs/fps
18752016-10-18 12:53:21.359 DEBUG:   : TIMA: QCOM_send_command result--0
18762016-10-18 12:53:21.359 DEBUG:   : TIMA_PKM_measure_kernel returns with resp..ret=512!
18772016-10-18 12:53:21.359 DEBUG:   : TAL: TIMA_PKM_measure_kernel--int8_t TIMA_PKM_measure_kernel(TIMA_handle_t, void*, uint32_t, void*, uint32_t, uint32_t)
18782016-10-18 12:53:21.359 DEBUG:   : TIMA: QCOM_send_command--int8_t QCOM_send_command(TIMA_handle_t, void*, uint32_t, void*, uint32_t, uint32_t)
18792016-10-18 12:53:21.359 DEBUG:   : rsp_len = 1008 rcvd_data_len = 1040, self_calculate_len=1040
18802016-10-18 12:53:21.369 DEBUG:   : TIMA: QCOM_send_command result--0
18812016-10-18 12:53:21.369 DEBUG:   : TIMA_PKM_measure_kernel returns with resp..ret=512!
18822016-10-18 12:53:21.369 DEBUG:   : TAL: TIMA_PKM_measure_kernel--int8_t TIMA_PKM_measure_kernel(TIMA_handle_t, void*, uint32_t, void*, uint32_t, uint32_t)
18832016-10-18 12:53:21.369 DEBUG:   : TIMA: QCOM_send_command--int8_t QCOM_send_command(TIMA_handle_t, void*, uint32_t, void*, uint32_t, uint32_t)
18842016-10-18 12:53:21.369 DEBUG:   : rsp_len = 1008 rcvd_data_len = 1040, self_calculate_len=1040
18852016-10-18 12:53:21.379 DEBUG:  SurfaceFlinger : FPS : 59.94
18862016-10-18 12:53:21.379 WARN:   SurfaceFlinger : Fail to Open /sys/devices/platform/gpusysfs/fps
18872016-10-18 12:53:21.389 DEBUG:   : TIMA: QCOM_send_command result--0
18882016-10-18 12:53:21.389 DEBUG:   : TIMA_PKM_measure_kernel returns with resp..ret=512!
18892016-10-18 12:53:21.389 DEBUG:   : TAL: TIMA_PKM_measure_kernel--int8_t TIMA_PKM_measure_kernel(TIMA_handle_t, void*, uint32_t, void*, uint32_t, uint32_t)
18902016-10-18 12:53:21.389 DEBUG:   : TIMA: QCOM_send_command--int8_t QCOM_send_command(TIMA_handle_t, void*, uint32_t, void*, uint32_t, uint32_t)
18912016-10-18 12:53:21.389 DEBUG:   : rsp_len = 1008 rcvd_data_len = 1040, self_calculate_len=1040
18922016-10-18 12:53:21.389 DEBUG:  SurfaceFlinger : FPS : 59.94
18932016-10-18 12:53:21.389 WARN:   SurfaceFlinger : Fail to Open /sys/devices/platform/gpusysfs/fps
18942016-10-18 12:53:21.399 DEBUG:   : TIMA: QCOM_send_command result--0
18952016-10-18 12:53:21.399 DEBUG:   : TIMA_PKM_measure_kernel returns with resp..ret=512!
18962016-10-18 12:53:21.399 DEBUG:   : TAL: TIMA_PKM_measure_kernel--int8_t TIMA_PKM_measure_kernel(TIMA_handle_t, void*, uint32_t, void*, uint32_t, uint32_t)
18972016-10-18 12:53:21.399 DEBUG:   : TIMA: QCOM_send_command--int8_t QCOM_send_command(TIMA_handle_t, void*, uint32_t, void*, uint32_t, uint32_t)
18982016-10-18 12:53:21.399 DEBUG:   : rsp_len = 1008 rcvd_data_len = 1040, self_calculate_len=1040
18992016-10-18 12:53:21.409 DEBUG:   : TIMA: QCOM_send_command result--0
19002016-10-18 12:53:21.409 DEBUG:   : TIMA_PKM_measure_kernel returns with resp..ret=512!
19012016-10-18 12:53:21.409 DEBUG:   : TAL: TIMA_PKM_measure_kernel--int8_t TIMA_PKM_measure_kernel(TIMA_handle_t, void*, uint32_t, void*, uint32_t, uint32_t)
19022016-10-18 12:53:21.409 DEBUG:   : TIMA: QCOM_send_command--int8_t QCOM_send_command(TIMA_handle_t, void*, uint32_t, void*, uint32_t, uint32_t)
19032016-10-18 12:53:21.409 DEBUG:   : rsp_len = 1008 rcvd_data_len = 1040, self_calculate_len=1040
19042016-10-18 12:53:21.409 DEBUG:  SurfaceFlinger : FPS : 60.01
19052016-10-18 12:53:21.409 WARN:   SurfaceFlinger : Fail to Open /sys/devices/platform/gpusysfs/fps
19062016-10-18 12:53:21.419 DEBUG:   : TIMA: QCOM_send_command result--0
19072016-10-18 12:53:21.419 DEBUG:   : TIMA_PKM_measure_kernel returns with resp..ret=512!
19082016-10-18 12:53:21.419 DEBUG:   : TAL: TIMA_PKM_measure_kernel--int8_t TIMA_PKM_measure_kernel(TIMA_handle_t, void*, uint32_t, void*, uint32_t, uint32_t)
19092016-10-18 12:53:21.419 DEBUG:   : TIMA: QCOM_send_command--int8_t QCOM_send_command(TIMA_handle_t, void*, uint32_t, void*, uint32_t, uint32_t)
19102016-10-18 12:53:21.419 DEBUG:   : rsp_len = 1008 rcvd_data_len = 1040, self_calculate_len=1040
19112016-10-18 12:53:21.429 DEBUG:  SurfaceFlinger : FPS : 60.01
19122016-10-18 12:53:21.429 WARN:   SurfaceFlinger : Fail to Open /sys/devices/platform/gpusysfs/fps
19132016-10-18 12:53:21.429 DEBUG:   : TIMA: QCOM_send_command result--0
19142016-10-18 12:53:21.429 DEBUG:   : TIMA_PKM_measure_kernel returns with resp..ret=512!
19152016-10-18 12:53:21.429 DEBUG:   : TAL: TIMA_PKM_measure_kernel--int8_t TIMA_PKM_measure_kernel(TIMA_handle_t, void*, uint32_t, void*, uint32_t, uint32_t)
19162016-10-18 12:53:21.429 DEBUG:   : TIMA: QCOM_send_command--int8_t QCOM_send_command(TIMA_handle_t, void*, uint32_t, void*, uint32_t, uint32_t)
19172016-10-18 12:53:21.429 DEBUG:   : rsp_len = 1008 rcvd_data_len = 1040, self_calculate_len=1040
19182016-10-18 12:53:21.439 DEBUG:  SurfaceFlinger : FPS : 60.01
19192016-10-18 12:53:21.439 WARN:   SurfaceFlinger : Fail to Open /sys/devices/platform/gpusysfs/fps
19202016-10-18 12:53:21.439 DEBUG:   : TIMA: QCOM_send_command result--0
19212016-10-18 12:53:21.439 DEBUG:   : TIMA_PKM_measure_kernel returns with resp..ret=512!
19222016-10-18 12:53:21.439 DEBUG:   : TAL: TIMA_PKM_measure_kernel--int8_t TIMA_PKM_measure_kernel(TIMA_handle_t, void*, uint32_t, void*, uint32_t, uint32_t)
19232016-10-18 12:53:21.439 DEBUG:   : TIMA: QCOM_send_command--int8_t QCOM_send_command(TIMA_handle_t, void*, uint32_t, void*, uint32_t, uint32_t)
19242016-10-18 12:53:21.439 DEBUG:   : rsp_len = 1008 rcvd_data_len = 1040, self_calculate_len=1040
19252016-10-18 12:53:21.459 DEBUG:   : TIMA: QCOM_send_command result--0
19262016-10-18 12:53:21.459 DEBUG:   : TIMA_PKM_measure_kernel returns with resp..ret=512!
19272016-10-18 12:53:21.459 DEBUG:   : TAL: TIMA_PKM_measure_kernel--int8_t TIMA_PKM_measure_kernel(TIMA_handle_t, void*, uint32_t, void*, uint32_t, uint32_t)
19282016-10-18 12:53:21.459 DEBUG:   : TIMA: QCOM_send_command--int8_t QCOM_send_command(TIMA_handle_t, void*, uint32_t, void*, uint32_t, uint32_t)
19292016-10-18 12:53:21.459 DEBUG:   : rsp_len = 1008 rcvd_data_len = 1040, self_calculate_len=1040
19302016-10-18 12:53:21.459 DEBUG:  SurfaceFlinger : FPS : 60.01
19312016-10-18 12:53:21.459 WARN:   SurfaceFlinger : Fail to Open /sys/devices/platform/gpusysfs/fps
19322016-10-18 12:53:21.469 DEBUG:   : TIMA: QCOM_send_command result--0
19332016-10-18 12:53:21.469 DEBUG:   : TIMA_PKM_measure_kernel returns with resp..ret=512!
19342016-10-18 12:53:21.469 DEBUG:   : TAL: TIMA_PKM_measure_kernel--int8_t TIMA_PKM_measure_kernel(TIMA_handle_t, void*, uint32_t, void*, uint32_t, uint32_t)
19352016-10-18 12:53:21.469 DEBUG:   : TIMA: QCOM_send_command--int8_t QCOM_send_command(TIMA_handle_t, void*, uint32_t, void*, uint32_t, uint32_t)
19362016-10-18 12:53:21.469 DEBUG:   : rsp_len = 1008 rcvd_data_len = 1040, self_calculate_len=1040
19372016-10-18 12:53:21.479 DEBUG:  SurfaceFlinger : FPS : 60.01
19382016-10-18 12:53:21.479 WARN:   SurfaceFlinger : Fail to Open /sys/devices/platform/gpusysfs/fps
19392016-10-18 12:53:21.479 DEBUG:   : TIMA: QCOM_send_command result--0
19402016-10-18 12:53:21.479 DEBUG:   : TIMA_PKM_measure_kernel returns with resp..ret=512!
19412016-10-18 12:53:21.479 DEBUG:   : TAL: TIMA_PKM_measure_kernel--int8_t TIMA_PKM_measure_kernel(TIMA_handle_t, void*, uint32_t, void*, uint32_t, uint32_t)
19422016-10-18 12:53:21.479 DEBUG:   : TIMA: QCOM_send_command--int8_t QCOM_send_command(TIMA_handle_t, void*, uint32_t, void*, uint32_t, uint32_t)
19432016-10-18 12:53:21.479 DEBUG:   : rsp_len = 1008 rcvd_data_len = 1040, self_calculate_len=1040
19442016-10-18 12:53:21.489 DEBUG:   : TIMA: QCOM_send_command result--0
19452016-10-18 12:53:21.489 DEBUG:   : TIMA_PKM_measure_kernel returns with resp..ret=512!
19462016-10-18 12:53:21.489 DEBUG:   : TAL: TIMA_PKM_measure_kernel--int8_t TIMA_PKM_measure_kernel(TIMA_handle_t, void*, uint32_t, void*, uint32_t, uint32_t)
19472016-10-18 12:53:21.489 DEBUG:   : TIMA: QCOM_send_command--int8_t QCOM_send_command(TIMA_handle_t, void*, uint32_t, void*, uint32_t, uint32_t)
19482016-10-18 12:53:21.489 DEBUG:   : rsp_len = 1008 rcvd_data_len = 1040, self_calculate_len=1040
19492016-10-18 12:53:21.489 DEBUG:  SurfaceFlinger : FPS : 60.01
19502016-10-18 12:53:21.489 WARN:   SurfaceFlinger : Fail to Open /sys/devices/platform/gpusysfs/fps
19512016-10-18 12:53:21.499 DEBUG:   : TIMA: QCOM_send_command result--0
19522016-10-18 12:53:21.499 DEBUG:   : TIMA_PKM_measure_kernel returns with resp..ret=512!
19532016-10-18 12:53:21.499 DEBUG:   : TAL: TIMA_PKM_measure_kernel--int8_t TIMA_PKM_measure_kernel(TIMA_handle_t, void*, uint32_t, void*, uint32_t, uint32_t)
19542016-10-18 12:53:21.499 DEBUG:   : TIMA: QCOM_send_command--int8_t QCOM_send_command(TIMA_handle_t, void*, uint32_t, void*, uint32_t, uint32_t)
19552016-10-18 12:53:21.499 DEBUG:   : rsp_len = 1008 rcvd_data_len = 1040, self_calculate_len=1040
19562016-10-18 12:53:21.499 INFO:   TOOLKIT SERVICE : Request body '{"id":"1476780792633","type":"GET_SCREEN_ORIENTATION"}'
19572016-10-18 12:53:21.499 INFO:   DEVICE MANAGER : {"id":"1476780792633","type":"GET_SCREEN_ORIENTATION"}
19582016-10-18 12:53:21.509 INFO:   TOOLKIT SERVICE : Responding to client with: '{"id":"1476780792633","orientation":"PORTRAIT"}'
19592016-10-18 12:53:21.509 DEBUG:  SurfaceFlinger : FPS : 60.01
19602016-10-18 12:53:21.509 WARN:   SurfaceFlinger : Fail to Open /sys/devices/platform/gpusysfs/fps
19612016-10-18 12:53:21.519 DEBUG:   : TIMA: QCOM_send_command result--0
19622016-10-18 12:53:21.519 DEBUG:   : TIMA_PKM_measure_kernel returns with resp..ret=512!
19632016-10-18 12:53:21.519 DEBUG:   : TAL: TIMA_PKM_measure_kernel--int8_t TIMA_PKM_measure_kernel(TIMA_handle_t, void*, uint32_t, void*, uint32_t, uint32_t)
19642016-10-18 12:53:21.519 DEBUG:   : TIMA: QCOM_send_command--int8_t QCOM_send_command(TIMA_handle_t, void*, uint32_t, void*, uint32_t, uint32_t)
19652016-10-18 12:53:21.519 DEBUG:   : rsp_len = 1008 rcvd_data_len = 1040, self_calculate_len=1040
19662016-10-18 12:53:21.529 DEBUG:  SurfaceFlinger : FPS : 60.01
19672016-10-18 12:53:21.529 WARN:   SurfaceFlinger : Fail to Open /sys/devices/platform/gpusysfs/fps
19682016-10-18 12:53:21.529 DEBUG:   : TIMA: QCOM_send_command result--0
19692016-10-18 12:53:21.529 DEBUG:   : TIMA_PKM_measure_kernel returns with resp..ret=512!
19702016-10-18 12:53:21.529 DEBUG:   : TAL: TIMA_PKM_measure_kernel--int8_t TIMA_PKM_measure_kernel(TIMA_handle_t, void*, uint32_t, void*, uint32_t, uint32_t)
19712016-10-18 12:53:21.529 DEBUG:   : TIMA: QCOM_send_command--int8_t QCOM_send_command(TIMA_handle_t, void*, uint32_t, void*, uint32_t, uint32_t)
19722016-10-18 12:53:21.529 DEBUG:   : rsp_len = 1008 rcvd_data_len = 1040, self_calculate_len=1040
19732016-10-18 12:53:21.539 DEBUG:  SurfaceFlinger : FPS : 60.01
19742016-10-18 12:53:21.539 WARN:   SurfaceFlinger : Fail to Open /sys/devices/platform/gpusysfs/fps
19752016-10-18 12:53:21.539 DEBUG:   : TIMA: QCOM_send_command result--0
19762016-10-18 12:53:21.539 DEBUG:   : TIMA_PKM_measure_kernel returns with resp..ret=512!
19772016-10-18 12:53:21.539 DEBUG:   : TAL: TIMA_PKM_measure_kernel--int8_t TIMA_PKM_measure_kernel(TIMA_handle_t, void*, uint32_t, void*, uint32_t, uint32_t)
19782016-10-18 12:53:21.539 DEBUG:   : TIMA: QCOM_send_command--int8_t QCOM_send_command(TIMA_handle_t, void*, uint32_t, void*, uint32_t, uint32_t)
19792016-10-18 12:53:21.539 DEBUG:   : rsp_len = 1008 rcvd_data_len = 1040, self_calculate_len=1040
19802016-10-18 12:53:21.559 DEBUG:  SurfaceFlinger : FPS : 60.01
19812016-10-18 12:53:21.559 WARN:   SurfaceFlinger : Fail to Open /sys/devices/platform/gpusysfs/fps
19822016-10-18 12:53:21.559 DEBUG:   : TIMA: QCOM_send_command result--0
19832016-10-18 12:53:21.559 DEBUG:   : TIMA_PKM_measure_kernel returns with resp..ret=512!
19842016-10-18 12:53:21.559 DEBUG:   : TAL: TIMA_PKM_measure_kernel--int8_t TIMA_PKM_measure_kernel(TIMA_handle_t, void*, uint32_t, void*, uint32_t, uint32_t)
19852016-10-18 12:53:21.559 DEBUG:   : TIMA: QCOM_send_command--int8_t QCOM_send_command(TIMA_handle_t, void*, uint32_t, void*, uint32_t, uint32_t)
19862016-10-18 12:53:21.559 DEBUG:   : rsp_len = 1008 rcvd_data_len = 1040, self_calculate_len=1040
19872016-10-18 12:53:21.579 DEBUG:  SurfaceFlinger : FPS : 60.01
19882016-10-18 12:53:21.579 WARN:   SurfaceFlinger : Fail to Open /sys/devices/platform/gpusysfs/fps
19892016-10-18 12:53:21.589 DEBUG:   : TIMA: QCOM_send_command result--0
19902016-10-18 12:53:21.589 DEBUG:   : TIMA_PKM_measure_kernel returns with resp..ret=512!
19912016-10-18 12:53:21.589 DEBUG:   : TAL: TIMA_PKM_measure_kernel--int8_t TIMA_PKM_measure_kernel(TIMA_handle_t, void*, uint32_t, void*, uint32_t, uint32_t)
19922016-10-18 12:53:21.589 DEBUG:   : TIMA: QCOM_send_command--int8_t QCOM_send_command(TIMA_handle_t, void*, uint32_t, void*, uint32_t, uint32_t)
19932016-10-18 12:53:21.589 DEBUG:   : rsp_len = 1008 rcvd_data_len = 1040, self_calculate_len=1040
19942016-10-18 12:53:21.589 DEBUG:  SurfaceFlinger : FPS : 60.01
19952016-10-18 12:53:21.589 WARN:   SurfaceFlinger : Fail to Open /sys/devices/platform/gpusysfs/fps
19962016-10-18 12:53:21.599 DEBUG:   : TIMA: QCOM_send_command result--0
19972016-10-18 12:53:21.599 DEBUG:   : TIMA_PKM_measure_kernel returns with resp..ret=512!
19982016-10-18 12:53:21.599 DEBUG:   : TAL: TIMA_PKM_measure_kernel--int8_t TIMA_PKM_measure_kernel(TIMA_handle_t, void*, uint32_t, void*, uint32_t, uint32_t)
19992016-10-18 12:53:21.599 DEBUG:   : TIMA: QCOM_send_command--int8_t QCOM_send_command(TIMA_handle_t, void*, uint32_t, void*, uint32_t, uint32_t)
20002016-10-18 12:53:21.599 DEBUG:   : rsp_len = 1008 rcvd_data_len = 1040, self_calculate_len=1040
20012016-10-18 12:53:21.619 DEBUG:  SurfaceFlinger : FPS : 60.01
20022016-10-18 12:53:21.619 WARN:   SurfaceFlinger : Fail to Open /sys/devices/platform/gpusysfs/fps
20032016-10-18 12:53:21.619 DEBUG:   : TIMA: QCOM_send_command result--0
20042016-10-18 12:53:21.619 DEBUG:   : TIMA_PKM_measure_kernel returns with resp..ret=512!
20052016-10-18 12:53:21.619 DEBUG:   : TAL: TIMA_PKM_measure_kernel--int8_t TIMA_PKM_measure_kernel(TIMA_handle_t, void*, uint32_t, void*, uint32_t, uint32_t)
20062016-10-18 12:53:21.619 DEBUG:   : TIMA: QCOM_send_command--int8_t QCOM_send_command(TIMA_handle_t, void*, uint32_t, void*, uint32_t, uint32_t)
20072016-10-18 12:53:21.619 DEBUG:   : rsp_len = 1008 rcvd_data_len = 1040, self_calculate_len=1040
20082016-10-18 12:53:21.629 DEBUG:   : TIMA: QCOM_send_command result--0
20092016-10-18 12:53:21.629 DEBUG:   : TIMA_PKM_measure_kernel returns with resp..ret=512!
20102016-10-18 12:53:21.629 DEBUG:   : TAL: TIMA_PKM_measure_kernel--int8_t TIMA_PKM_measure_kernel(TIMA_handle_t, void*, uint32_t, void*, uint32_t, uint32_t)
20112016-10-18 12:53:21.629 DEBUG:   : TIMA: QCOM_send_command--int8_t QCOM_send_command(TIMA_handle_t, void*, uint32_t, void*, uint32_t, uint32_t)
20122016-10-18 12:53:21.629 DEBUG:   : rsp_len = 1008 rcvd_data_len = 1040, self_calculate_len=1040
20132016-10-18 12:53:21.629 DEBUG:  SurfaceFlinger : FPS : 60.01
20142016-10-18 12:53:21.629 WARN:   SurfaceFlinger : Fail to Open /sys/devices/platform/gpusysfs/fps
20152016-10-18 12:53:21.639 DEBUG:   : TIMA: QCOM_send_command result--0
20162016-10-18 12:53:21.639 DEBUG:   : TIMA_PKM_measure_kernel returns with resp..ret=512!
20172016-10-18 12:53:21.639 DEBUG:   : TAL: TIMA_PKM_measure_kernel--int8_t TIMA_PKM_measure_kernel(TIMA_handle_t, void*, uint32_t, void*, uint32_t, uint32_t)
20182016-10-18 12:53:21.639 DEBUG:   : TIMA: QCOM_send_command--int8_t QCOM_send_command(TIMA_handle_t, void*, uint32_t, void*, uint32_t, uint32_t)
20192016-10-18 12:53:21.639 DEBUG:   : rsp_len = 1008 rcvd_data_len = 1040, self_calculate_len=1040
20202016-10-18 12:53:21.639 DEBUG:  SurfaceFlinger : FPS : 60.01
20212016-10-18 12:53:21.639 WARN:   SurfaceFlinger : Fail to Open /sys/devices/platform/gpusysfs/fps
20222016-10-18 12:53:21.649 DEBUG:   : TIMA: QCOM_send_command result--0
20232016-10-18 12:53:21.649 DEBUG:   : TIMA_PKM_measure_kernel returns with resp..ret=512!
20242016-10-18 12:53:21.649 DEBUG:   : TAL: TIMA_PKM_measure_kernel--int8_t TIMA_PKM_measure_kernel(TIMA_handle_t, void*, uint32_t, void*, uint32_t, uint32_t)
20252016-10-18 12:53:21.649 DEBUG:   : TIMA: QCOM_send_command--int8_t QCOM_send_command(TIMA_handle_t, void*, uint32_t, void*, uint32_t, uint32_t)
20262016-10-18 12:53:21.649 DEBUG:   : rsp_len = 1008 rcvd_data_len = 1040, self_calculate_len=1040
20272016-10-18 12:53:21.659 DEBUG:  SurfaceFlinger : FPS : 60.01
20282016-10-18 12:53:21.659 WARN:   SurfaceFlinger : Fail to Open /sys/devices/platform/gpusysfs/fps
20292016-10-18 12:53:21.659 DEBUG:   : TIMA: QCOM_send_command result--0
20302016-10-18 12:53:21.659 DEBUG:   : TIMA_PKM_measure_kernel returns with resp..ret=512!
20312016-10-18 12:53:21.659 DEBUG:   : TAL: TIMA_PKM_measure_kernel--int8_t TIMA_PKM_measure_kernel(TIMA_handle_t, void*, uint32_t, void*, uint32_t, uint32_t)
20322016-10-18 12:53:21.659 DEBUG:   : TIMA: QCOM_send_command--int8_t QCOM_send_command(TIMA_handle_t, void*, uint32_t, void*, uint32_t, uint32_t)
20332016-10-18 12:53:21.659 DEBUG:   : rsp_len = 1008 rcvd_data_len = 1040, self_calculate_len=1040
20342016-10-18 12:53:21.679 DEBUG:  SurfaceFlinger : FPS : 60.26
20352016-10-18 12:53:21.679 WARN:   SurfaceFlinger : Fail to Open /sys/devices/platform/gpusysfs/fps
20362016-10-18 12:53:21.679 DEBUG:   : TIMA: QCOM_send_command result--0
20372016-10-18 12:53:21.679 DEBUG:   : TIMA_PKM_measure_kernel returns with resp..ret=512!
20382016-10-18 12:53:21.679 DEBUG:   : TAL: TIMA_PKM_measure_kernel--int8_t TIMA_PKM_measure_kernel(TIMA_handle_t, void*, uint32_t, void*, uint32_t, uint32_t)
20392016-10-18 12:53:21.679 DEBUG:   : TIMA: QCOM_send_command--int8_t QCOM_send_command(TIMA_handle_t, void*, uint32_t, void*, uint32_t, uint32_t)
20402016-10-18 12:53:21.679 DEBUG:   : rsp_len = 1008 rcvd_data_len = 1040, self_calculate_len=1040
20412016-10-18 12:53:21.689 DEBUG:   : TIMA: QCOM_send_command result--0
20422016-10-18 12:53:21.689 DEBUG:   : TIMA_PKM_measure_kernel returns with resp..ret=512!
20432016-10-18 12:53:21.689 DEBUG:   : TAL: TIMA_PKM_measure_kernel--int8_t TIMA_PKM_measure_kernel(TIMA_handle_t, void*, uint32_t, void*, uint32_t, uint32_t)
20442016-10-18 12:53:21.689 DEBUG:   : TIMA: QCOM_send_command--int8_t QCOM_send_command(TIMA_handle_t, void*, uint32_t, void*, uint32_t, uint32_t)
20452016-10-18 12:53:21.689 DEBUG:   : rsp_len = 1008 rcvd_data_len = 1040, self_calculate_len=1040
20462016-10-18 12:53:21.689 DEBUG:  SurfaceFlinger : FPS : 60.26
20472016-10-18 12:53:21.689 WARN:   SurfaceFlinger : Fail to Open /sys/devices/platform/gpusysfs/fps
20482016-10-18 12:53:21.699 DEBUG:   : TIMA: QCOM_send_command result--0
20492016-10-18 12:53:21.699 DEBUG:   : TIMA_PKM_measure_kernel returns with resp..ret=512!
20502016-10-18 12:53:21.699 DEBUG:   : TAL: TIMA_PKM_measure_kernel--int8_t TIMA_PKM_measure_kernel(TIMA_handle_t, void*, uint32_t, void*, uint32_t, uint32_t)
20512016-10-18 12:53:21.699 DEBUG:   : TIMA: QCOM_send_command--int8_t QCOM_send_command(TIMA_handle_t, void*, uint32_t, void*, uint32_t, uint32_t)
20522016-10-18 12:53:21.699 DEBUG:   : rsp_len = 1008 rcvd_data_len = 1040, self_calculate_len=1040
20532016-10-18 12:53:21.709 DEBUG:   : TIMA: QCOM_send_command result--0
20542016-10-18 12:53:21.709 DEBUG:   : TIMA_PKM_measure_kernel returns with resp..ret=512!
20552016-10-18 12:53:21.709 DEBUG:   : TAL: TIMA_PKM_measure_kernel--int8_t TIMA_PKM_measure_kernel(TIMA_handle_t, void*, uint32_t, void*, uint32_t, uint32_t)
20562016-10-18 12:53:21.709 DEBUG:   : TIMA: QCOM_send_command--int8_t QCOM_send_command(TIMA_handle_t, void*, uint32_t, void*, uint32_t, uint32_t)
20572016-10-18 12:53:21.709 DEBUG:   : rsp_len = 1008 rcvd_data_len = 1040, self_calculate_len=1040
20582016-10-18 12:53:21.719 DEBUG:  SurfaceFlinger : FPS : 60.26
20592016-10-18 12:53:21.719 WARN:   SurfaceFlinger : Fail to Open /sys/devices/platform/gpusysfs/fps
20602016-10-18 12:53:21.719 INFO:   ActivityManager : Killing 26150:com.android.chrome/u0a154 (adj 15): emptyCount ##36
20612016-10-18 12:53:21.719 DEBUG:  SurfaceFlinger : FPS : 60.26
20622016-10-18 12:53:21.719 WARN:   SurfaceFlinger : Fail to Open /sys/devices/platform/gpusysfs/fps
20632016-10-18 12:53:21.729 DEBUG:   : TIMA: QCOM_send_command result--0
20642016-10-18 12:53:21.729 DEBUG:   : TIMA_PKM_measure_kernel returns with resp..ret=512!
20652016-10-18 12:53:21.729 DEBUG:   : TAL: TIMA_PKM_measure_kernel--int8_t TIMA_PKM_measure_kernel(TIMA_handle_t, void*, uint32_t, void*, uint32_t, uint32_t)
20662016-10-18 12:53:21.729 DEBUG:   : TIMA: QCOM_send_command--int8_t QCOM_send_command(TIMA_handle_t, void*, uint32_t, void*, uint32_t, uint32_t)
20672016-10-18 12:53:21.729 DEBUG:   : rsp_len = 1008 rcvd_data_len = 1040, self_calculate_len=1040
20682016-10-18 12:53:21.739 DEBUG:  SurfaceFlinger : FPS : 60.26
20692016-10-18 12:53:21.739 WARN:   SurfaceFlinger : Fail to Open /sys/devices/platform/gpusysfs/fps
20702016-10-18 12:53:21.750 DEBUG:   : TIMA: QCOM_send_command result--0
20712016-10-18 12:53:21.750 DEBUG:   : TIMA_PKM_measure_kernel returns with resp..ret=512!
20722016-10-18 12:53:21.750 DEBUG:   : TAL: TIMA_PKM_measure_kernel--int8_t TIMA_PKM_measure_kernel(TIMA_handle_t, void*, uint32_t, void*, uint32_t, uint32_t)
20732016-10-18 12:53:21.750 DEBUG:   : TIMA: QCOM_send_command--int8_t QCOM_send_command(TIMA_handle_t, void*, uint32_t, void*, uint32_t, uint32_t)
20742016-10-18 12:53:21.750 DEBUG:   : rsp_len = 1008 rcvd_data_len = 1040, self_calculate_len=1040
20752016-10-18 12:53:21.760 DEBUG:  SurfaceFlinger : FPS : 60.26
20762016-10-18 12:53:21.760 WARN:   SurfaceFlinger : Fail to Open /sys/devices/platform/gpusysfs/fps
20772016-10-18 12:53:21.760 DEBUG:   : TIMA: QCOM_send_command result--0
20782016-10-18 12:53:21.760 DEBUG:   : TIMA_PKM_measure_kernel returns with resp..ret=512!
20792016-10-18 12:53:21.760 DEBUG:   : TAL: TIMA_PKM_measure_kernel--int8_t TIMA_PKM_measure_kernel(TIMA_handle_t, void*, uint32_t, void*, uint32_t, uint32_t)
20802016-10-18 12:53:21.760 DEBUG:   : TIMA: QCOM_send_command--int8_t QCOM_send_command(TIMA_handle_t, void*, uint32_t, void*, uint32_t, uint32_t)
20812016-10-18 12:53:21.760 DEBUG:   : rsp_len = 1008 rcvd_data_len = 1040, self_calculate_len=1040
20822016-10-18 12:53:21.770 DEBUG:   : TIMA: QCOM_send_command result--0
20832016-10-18 12:53:21.770 DEBUG:   : TIMA_PKM_measure_kernel returns with resp..ret=512!
20842016-10-18 12:53:21.770 DEBUG:   : TAL: TIMA_PKM_measure_kernel--int8_t TIMA_PKM_measure_kernel(TIMA_handle_t, void*, uint32_t, void*, uint32_t, uint32_t)
20852016-10-18 12:53:21.770 DEBUG:   : TIMA: QCOM_send_command--int8_t QCOM_send_command(TIMA_handle_t, void*, uint32_t, void*, uint32_t, uint32_t)
20862016-10-18 12:53:21.770 DEBUG:   : rsp_len = 1008 rcvd_data_len = 1040, self_calculate_len=1040
20872016-10-18 12:53:21.770 DEBUG:  SurfaceFlinger : FPS : 60.26
20882016-10-18 12:53:21.770 WARN:   SurfaceFlinger : Fail to Open /sys/devices/platform/gpusysfs/fps
20892016-10-18 12:53:21.780 DEBUG:   : TIMA: QCOM_send_command result--0
20902016-10-18 12:53:21.780 DEBUG:   : TIMA_PKM_measure_kernel returns with resp..ret=512!
20912016-10-18 12:53:21.780 DEBUG:   : TAL: TIMA_PKM_measure_kernel--int8_t TIMA_PKM_measure_kernel(TIMA_handle_t, void*, uint32_t, void*, uint32_t, uint32_t)
20922016-10-18 12:53:21.780 DEBUG:   : TIMA: QCOM_send_command--int8_t QCOM_send_command(TIMA_handle_t, void*, uint32_t, void*, uint32_t, uint32_t)
20932016-10-18 12:53:21.780 DEBUG:   : rsp_len = 1008 rcvd_data_len = 1040, self_calculate_len=1040
20942016-10-18 12:53:21.790 DEBUG:  SurfaceFlinger : FPS : 60.26
20952016-10-18 12:53:21.790 WARN:   SurfaceFlinger : Fail to Open /sys/devices/platform/gpusysfs/fps
20962016-10-18 12:53:21.800 DEBUG:   : TIMA: QCOM_send_command result--0
20972016-10-18 12:53:21.800 DEBUG:   : TIMA_PKM_measure_kernel returns with resp..ret=512!
20982016-10-18 12:53:21.800 DEBUG:   : TAL: TIMA_PKM_measure_kernel--int8_t TIMA_PKM_measure_kernel(TIMA_handle_t, void*, uint32_t, void*, uint32_t, uint32_t)
20992016-10-18 12:53:21.800 DEBUG:   : TIMA: QCOM_send_command--int8_t QCOM_send_command(TIMA_handle_t, void*, uint32_t, void*, uint32_t, uint32_t)
21002016-10-18 12:53:21.800 DEBUG:   : rsp_len = 1008 rcvd_data_len = 1040, self_calculate_len=1040
21012016-10-18 12:53:21.810 DEBUG:  SurfaceFlinger : FPS : 60.26
21022016-10-18 12:53:21.810 WARN:   SurfaceFlinger : Fail to Open /sys/devices/platform/gpusysfs/fps
21032016-10-18 12:53:21.810 DEBUG:   : TIMA: QCOM_send_command result--0
21042016-10-18 12:53:21.810 DEBUG:   : TIMA_PKM_measure_kernel returns with resp..ret=512!
21052016-10-18 12:53:21.810 DEBUG:   : TAL: TIMA_PKM_measure_kernel--int8_t TIMA_PKM_measure_kernel(TIMA_handle_t, void*, uint32_t, void*, uint32_t, uint32_t)
21062016-10-18 12:53:21.810 DEBUG:   : TIMA: QCOM_send_command--int8_t QCOM_send_command(TIMA_handle_t, void*, uint32_t, void*, uint32_t, uint32_t)
21072016-10-18 12:53:21.810 DEBUG:   : rsp_len = 1008 rcvd_data_len = 1040, self_calculate_len=1040
21082016-10-18 12:53:21.820 DEBUG:   : TIMA: QCOM_send_command result--0
21092016-10-18 12:53:21.820 DEBUG:   : TIMA_PKM_measure_kernel returns with resp..ret=0!
21102016-10-18 12:53:21.820 DEBUG:   : TIMA: final string =TIMA_STATUS=0;MSG=Kernel Verification Success;!
21112016-10-18 12:53:21.820 DEBUG:  PowerManagerService : [input device light] setInputDeviceLightOn is called : 1
21122016-10-18 12:53:21.820 DEBUG:  PowerManagerService : [input device light] handleInputDeviceLightOn
21132016-10-18 12:53:21.830 DEBUG:  SurfaceFlinger : FPS : 60.26
21142016-10-18 12:53:21.830 DEBUG:  TimaService : TIMA MEASUREMENT Result: TIMA_STATUS=0;MSG=Kernel Verification Success;
21152016-10-18 12:53:21.830 WARN:   SurfaceFlinger : Fail to Open /sys/devices/platform/gpusysfs/fps
21162016-10-18 12:53:21.830 DEBUG:  TimaService : TIMA MEASUREMENT success status: TIMA_STATUS=0;MSG=Kernel Verification Success;
21172016-10-18 12:53:21.840 DEBUG:  SurfaceFlinger : FPS : 60.26
21182016-10-18 12:53:21.840 WARN:   SurfaceFlinger : Fail to Open /sys/devices/platform/gpusysfs/fps
21192016-10-18 12:53:21.860 DEBUG:  SurfaceFlinger : FPS : 60.26
21202016-10-18 12:53:21.860 WARN:   SurfaceFlinger : Fail to Open /sys/devices/platform/gpusysfs/fps
21212016-10-18 12:53:21.870 DEBUG:  SurfaceFlinger : FPS : 60.26
21222016-10-18 12:53:21.870 WARN:   SurfaceFlinger : Fail to Open /sys/devices/platform/gpusysfs/fps
21232016-10-18 12:53:21.890 DEBUG:  SurfaceFlinger : FPS : 60.26
21242016-10-18 12:53:21.890 WARN:   SurfaceFlinger : Fail to Open /sys/devices/platform/gpusysfs/fps
21252016-10-18 12:53:21.910 DEBUG:  SurfaceFlinger : FPS : 60.26
21262016-10-18 12:53:21.910 WARN:   SurfaceFlinger : Fail to Open /sys/devices/platform/gpusysfs/fps
21272016-10-18 12:53:21.920 DEBUG:  SurfaceFlinger : FPS : 60.26
21282016-10-18 12:53:21.930 WARN:   SurfaceFlinger : Fail to Open /sys/devices/platform/gpusysfs/fps
21292016-10-18 12:53:21.940 DEBUG:  SurfaceFlinger : FPS : 60.47
21302016-10-18 12:53:21.940 WARN:   SurfaceFlinger : Fail to Open /sys/devices/platform/gpusysfs/fps
21312016-10-18 12:53:21.960 DEBUG:  SurfaceFlinger : FPS : 60.47
21322016-10-18 12:53:21.960 WARN:   SurfaceFlinger : Fail to Open /sys/devices/platform/gpusysfs/fps
21332016-10-18 12:53:21.970 DEBUG:  SurfaceFlinger : FPS : 60.47
21342016-10-18 12:53:21.970 WARN:   SurfaceFlinger : Fail to Open /sys/devices/platform/gpusysfs/fps
21352016-10-18 12:53:21.990 DEBUG:  SurfaceFlinger : FPS : 60.47
21362016-10-18 12:53:21.990 WARN:   SurfaceFlinger : Fail to Open /sys/devices/platform/gpusysfs/fps
21372016-10-18 12:53:22.000 INFO:   TOOLKIT SERVICE : Request body '{"id":"1476780793133","type":"GET_SCREEN_ORIENTATION"}'
21382016-10-18 12:53:22.000 INFO:   DEVICE MANAGER : {"id":"1476780793133","type":"GET_SCREEN_ORIENTATION"}
21392016-10-18 12:53:22.000 INFO:   TOOLKIT SERVICE : Responding to client with: '{"id":"1476780793133","orientation":"PORTRAIT"}'
21402016-10-18 12:53:22.010 DEBUG:  SurfaceFlinger : FPS : 60.47
21412016-10-18 12:53:22.010 WARN:   SurfaceFlinger : Fail to Open /sys/devices/platform/gpusysfs/fps
21422016-10-18 12:53:22.020 DEBUG:  SurfaceFlinger : FPS : 60.47
21432016-10-18 12:53:22.020 WARN:   SurfaceFlinger : Fail to Open /sys/devices/platform/gpusysfs/fps
21442016-10-18 12:53:22.040 DEBUG:  SurfaceFlinger : FPS : 60.47
21452016-10-18 12:53:22.040 WARN:   SurfaceFlinger : Fail to Open /sys/devices/platform/gpusysfs/fps
21462016-10-18 12:53:22.060 DEBUG:  SurfaceFlinger : FPS : 60.47
21472016-10-18 12:53:22.060 WARN:   SurfaceFlinger : Fail to Open /sys/devices/platform/gpusysfs/fps
21482016-10-18 12:53:22.070 DEBUG:  SurfaceFlinger : FPS : 60.47
21492016-10-18 12:53:22.070 WARN:   SurfaceFlinger : Fail to Open /sys/devices/platform/gpusysfs/fps
21502016-10-18 12:53:22.090 DEBUG:  SurfaceFlinger : FPS : 60.47
21512016-10-18 12:53:22.090 WARN:   SurfaceFlinger : Fail to Open /sys/devices/platform/gpusysfs/fps
21522016-10-18 12:53:22.110 DEBUG:  SurfaceFlinger : FPS : 60.47
21532016-10-18 12:53:22.110 WARN:   SurfaceFlinger : Fail to Open /sys/devices/platform/gpusysfs/fps
21542016-10-18 12:53:22.120 DEBUG:  SurfaceFlinger : FPS : 60.47
21552016-10-18 12:53:22.120 WARN:   SurfaceFlinger : Fail to Open /sys/devices/platform/gpusysfs/fps
21562016-10-18 12:53:22.140 DEBUG:  SurfaceFlinger : FPS : 60.47
21572016-10-18 12:53:22.140 WARN:   SurfaceFlinger : Fail to Open /sys/devices/platform/gpusysfs/fps
21582016-10-18 12:53:22.160 DEBUG:  SurfaceFlinger : FPS : 60.47
21592016-10-18 12:53:22.160 WARN:   SurfaceFlinger : Fail to Open /sys/devices/platform/gpusysfs/fps
21602016-10-18 12:53:22.170 DEBUG:  SurfaceFlinger : FPS : 60.47
21612016-10-18 12:53:22.170 WARN:   SurfaceFlinger : Fail to Open /sys/devices/platform/gpusysfs/fps
21622016-10-18 12:53:22.180 ERROR:  SMD : smd Interface open failed errno is 2 -1
21632016-10-18 12:53:22.190 DEBUG:  SurfaceFlinger : FPS : 60.47
21642016-10-18 12:53:22.190 WARN:   SurfaceFlinger : Fail to Open /sys/devices/platform/gpusysfs/fps
21652016-10-18 12:53:22.210 DEBUG:  SurfaceFlinger : FPS : 59.31
21662016-10-18 12:53:22.210 WARN:   SurfaceFlinger : Fail to Open /sys/devices/platform/gpusysfs/fps
21672016-10-18 12:53:22.220 DEBUG:  SurfaceFlinger : FPS : 59.31
21682016-10-18 12:53:22.220 WARN:   SurfaceFlinger : Fail to Open /sys/devices/platform/gpusysfs/fps
21692016-10-18 12:53:22.240 DEBUG:  SurfaceFlinger : FPS : 59.31
21702016-10-18 12:53:22.240 WARN:   SurfaceFlinger : Fail to Open /sys/devices/platform/gpusysfs/fps
21712016-10-18 12:53:22.260 DEBUG:  SurfaceFlinger : FPS : 59.31
21722016-10-18 12:53:22.260 WARN:   SurfaceFlinger : Fail to Open /sys/devices/platform/gpusysfs/fps
21732016-10-18 12:53:22.280 DEBUG:  SurfaceFlinger : FPS : 59.31
21742016-10-18 12:53:22.280 WARN:   SurfaceFlinger : Fail to Open /sys/devices/platform/gpusysfs/fps
21752016-10-18 12:53:22.290 DEBUG:  SurfaceFlinger : FPS : 59.31
21762016-10-18 12:53:22.290 WARN:   SurfaceFlinger : Fail to Open /sys/devices/platform/gpusysfs/fps
21772016-10-18 12:53:22.310 DEBUG:  SurfaceFlinger : FPS : 59.31
21782016-10-18 12:53:22.310 WARN:   SurfaceFlinger : Fail to Open /sys/devices/platform/gpusysfs/fps
21792016-10-18 12:53:22.330 ERROR:  Diag_Lib : Diag_LSM_Init: Failed to open handle to diag driver, error = 2
21802016-10-18 12:53:22.330 DEBUG:  SurfaceFlinger : FPS : 59.31
21812016-10-18 12:53:22.330 WARN:   SurfaceFlinger : Fail to Open /sys/devices/platform/gpusysfs/fps
21822016-10-18 12:53:22.340 DEBUG:  SurfaceFlinger : FPS : 59.31
21832016-10-18 12:53:22.340 WARN:   SurfaceFlinger : Fail to Open /sys/devices/platform/gpusysfs/fps
21842016-10-18 12:53:22.360 DEBUG:  SurfaceFlinger : FPS : 59.31
21852016-10-18 12:53:22.360 WARN:   SurfaceFlinger : Fail to Open /sys/devices/platform/gpusysfs/fps
21862016-10-18 12:53:22.370 DEBUG:  SurfaceFlinger : FPS : 59.31
21872016-10-18 12:53:22.370 WARN:   SurfaceFlinger : Fail to Open /sys/devices/platform/gpusysfs/fps
21882016-10-18 12:53:22.390 DEBUG:  SurfaceFlinger : FPS : 59.31
21892016-10-18 12:53:22.390 WARN:   SurfaceFlinger : Fail to Open /sys/devices/platform/gpusysfs/fps
21902016-10-18 12:53:22.410 DEBUG:  SurfaceFlinger : FPS : 59.31
21912016-10-18 12:53:22.410 WARN:   SurfaceFlinger : Fail to Open /sys/devices/platform/gpusysfs/fps
21922016-10-18 12:53:22.420 DEBUG:  SurfaceFlinger : FPS : 59.31
21932016-10-18 12:53:22.420 WARN:   SurfaceFlinger : Fail to Open /sys/devices/platform/gpusysfs/fps
21942016-10-18 12:53:22.440 DEBUG:  SurfaceFlinger : FPS : 59.31
21952016-10-18 12:53:22.440 WARN:   SurfaceFlinger : Fail to Open /sys/devices/platform/gpusysfs/fps
21962016-10-18 12:53:22.460 DEBUG:  SurfaceFlinger : FPS : 59.31
21972016-10-18 12:53:22.460 WARN:   SurfaceFlinger : Fail to Open /sys/devices/platform/gpusysfs/fps
21982016-10-18 12:53:22.470 DEBUG:  SurfaceFlinger : FPS : 60.82
21992016-10-18 12:53:22.470 WARN:   SurfaceFlinger : Fail to Open /sys/devices/platform/gpusysfs/fps
22002016-10-18 12:53:22.490 DEBUG:  SurfaceFlinger : FPS : 60.82
22012016-10-18 12:53:22.490 WARN:   SurfaceFlinger : Fail to Open /sys/devices/platform/gpusysfs/fps
22022016-10-18 12:53:22.500 INFO:   TOOLKIT SERVICE : Request body '{"id":"1476780793633","type":"GET_SCREEN_ORIENTATION"}'
22032016-10-18 12:53:22.500 INFO:   DEVICE MANAGER : {"id":"1476780793633","type":"GET_SCREEN_ORIENTATION"}
22042016-10-18 12:53:22.510 INFO:   TOOLKIT SERVICE : Responding to client with: '{"id":"1476780793633","orientation":"PORTRAIT"}'
22052016-10-18 12:53:22.510 DEBUG:  SurfaceFlinger : FPS : 60.82
22062016-10-18 12:53:22.510 WARN:   SurfaceFlinger : Fail to Open /sys/devices/platform/gpusysfs/fps
22072016-10-18 12:53:22.520 DEBUG:  SurfaceFlinger : FPS : 60.82
22082016-10-18 12:53:22.520 WARN:   SurfaceFlinger : Fail to Open /sys/devices/platform/gpusysfs/fps
22092016-10-18 12:53:22.540 DEBUG:  SurfaceFlinger : FPS : 60.82
22102016-10-18 12:53:22.540 WARN:   SurfaceFlinger : Fail to Open /sys/devices/platform/gpusysfs/fps
22112016-10-18 12:53:22.560 DEBUG:  SurfaceFlinger : FPS : 60.82
22122016-10-18 12:53:22.560 WARN:   SurfaceFlinger : Fail to Open /sys/devices/platform/gpusysfs/fps
22132016-10-18 12:53:22.570 DEBUG:  SurfaceFlinger : FPS : 60.82
22142016-10-18 12:53:22.570 WARN:   SurfaceFlinger : Fail to Open /sys/devices/platform/gpusysfs/fps
22152016-10-18 12:53:22.590 DEBUG:  SurfaceFlinger : FPS : 60.82
22162016-10-18 12:53:22.590 WARN:   SurfaceFlinger : Fail to Open /sys/devices/platform/gpusysfs/fps
22172016-10-18 12:53:22.610 DEBUG:  SurfaceFlinger : FPS : 60.82
22182016-10-18 12:53:22.610 WARN:   SurfaceFlinger : Fail to Open /sys/devices/platform/gpusysfs/fps
22192016-10-18 12:53:22.620 DEBUG:  SurfaceFlinger : FPS : 60.82
22202016-10-18 12:53:22.620 WARN:   SurfaceFlinger : Fail to Open /sys/devices/platform/gpusysfs/fps
22212016-10-18 12:53:22.640 DEBUG:  SurfaceFlinger : FPS : 60.82
22222016-10-18 12:53:22.640 WARN:   SurfaceFlinger : Fail to Open /sys/devices/platform/gpusysfs/fps
22232016-10-18 12:53:22.660 DEBUG:  SurfaceFlinger : FPS : 60.82
22242016-10-18 12:53:22.660 WARN:   SurfaceFlinger : Fail to Open /sys/devices/platform/gpusysfs/fps
22252016-10-18 12:53:22.670 DEBUG:  SurfaceFlinger : FPS : 60.82
22262016-10-18 12:53:22.670 WARN:   SurfaceFlinger : Fail to Open /sys/devices/platform/gpusysfs/fps
22272016-10-18 12:53:22.690 DEBUG:  SurfaceFlinger : FPS : 60.82
22282016-10-18 12:53:22.690 WARN:   SurfaceFlinger : Fail to Open /sys/devices/platform/gpusysfs/fps
22292016-10-18 12:53:22.710 DEBUG:  SurfaceFlinger : FPS : 60.82
22302016-10-18 12:53:22.710 WARN:   SurfaceFlinger : Fail to Open /sys/devices/platform/gpusysfs/fps
22312016-10-18 12:53:22.720 DEBUG:  SurfaceFlinger : FPS : 60.82
22322016-10-18 12:53:22.720 WARN:   SurfaceFlinger : Fail to Open /sys/devices/platform/gpusysfs/fps
22332016-10-18 12:53:22.740 DEBUG:  SurfaceFlinger : FPS : 59.88
22342016-10-18 12:53:22.740 WARN:   SurfaceFlinger : Fail to Open /sys/devices/platform/gpusysfs/fps
22352016-10-18 12:53:22.760 DEBUG:  SurfaceFlinger : FPS : 59.88
22362016-10-18 12:53:22.760 WARN:   SurfaceFlinger : Fail to Open /sys/devices/platform/gpusysfs/fps
22372016-10-18 12:53:22.771 DEBUG:  SurfaceFlinger : FPS : 59.88
22382016-10-18 12:53:22.771 WARN:   SurfaceFlinger : Fail to Open /sys/devices/platform/gpusysfs/fps
22392016-10-18 12:53:22.791 DEBUG:  SurfaceFlinger : FPS : 59.88
22402016-10-18 12:53:22.791 WARN:   SurfaceFlinger : Fail to Open /sys/devices/platform/gpusysfs/fps
22412016-10-18 12:53:22.811 DEBUG:  SurfaceFlinger : FPS : 59.88
22422016-10-18 12:53:22.811 WARN:   SurfaceFlinger : Fail to Open /sys/devices/platform/gpusysfs/fps
22432016-10-18 12:53:22.821 DEBUG:  SurfaceFlinger : FPS : 59.88
22442016-10-18 12:53:22.821 WARN:   SurfaceFlinger : Fail to Open /sys/devices/platform/gpusysfs/fps
22452016-10-18 12:53:22.841 DEBUG:  SurfaceFlinger : FPS : 59.88
22462016-10-18 12:53:22.841 WARN:   SurfaceFlinger : Fail to Open /sys/devices/platform/gpusysfs/fps
22472016-10-18 12:53:22.861 DEBUG:  SurfaceFlinger : FPS : 59.88
22482016-10-18 12:53:22.861 WARN:   SurfaceFlinger : Fail to Open /sys/devices/platform/gpusysfs/fps
22492016-10-18 12:53:22.871 DEBUG:  SurfaceFlinger : FPS : 59.88
22502016-10-18 12:53:22.871 WARN:   SurfaceFlinger : Fail to Open /sys/devices/platform/gpusysfs/fps
22512016-10-18 12:53:22.891 DEBUG:  SurfaceFlinger : FPS : 59.88
22522016-10-18 12:53:22.891 WARN:   SurfaceFlinger : Fail to Open /sys/devices/platform/gpusysfs/fps
22532016-10-18 12:53:22.911 DEBUG:  SurfaceFlinger : FPS : 59.88
22542016-10-18 12:53:22.911 WARN:   SurfaceFlinger : Fail to Open /sys/devices/platform/gpusysfs/fps
22552016-10-18 12:53:22.921 DEBUG:  SurfaceFlinger : FPS : 59.88
22562016-10-18 12:53:22.921 WARN:   SurfaceFlinger : Fail to Open /sys/devices/platform/gpusysfs/fps
22572016-10-18 12:53:22.941 DEBUG:  SurfaceFlinger : FPS : 59.88
22582016-10-18 12:53:22.941 WARN:   SurfaceFlinger : Fail to Open /sys/devices/platform/gpusysfs/fps
22592016-10-18 12:53:22.951 DEBUG:  SurfaceFlinger : FPS : 59.88
22602016-10-18 12:53:22.961 WARN:   SurfaceFlinger : Fail to Open /sys/devices/platform/gpusysfs/fps
22612016-10-18 12:53:22.971 DEBUG:  SurfaceFlinger : FPS : 59.88
22622016-10-18 12:53:22.971 WARN:   SurfaceFlinger : Fail to Open /sys/devices/platform/gpusysfs/fps
22632016-10-18 12:53:22.991 DEBUG:  SurfaceFlinger : FPS : 59.88
22642016-10-18 12:53:22.991 WARN:   SurfaceFlinger : Fail to Open /sys/devices/platform/gpusysfs/fps
22652016-10-18 12:53:23.001 INFO:   TOOLKIT SERVICE : Request body '{"id":"1476780794133","type":"GET_SCREEN_ORIENTATION"}'
22662016-10-18 12:53:23.001 INFO:   DEVICE MANAGER : {"id":"1476780794133","type":"GET_SCREEN_ORIENTATION"}
22672016-10-18 12:53:23.001 DEBUG:  SurfaceFlinger : FPS : 60.63
22682016-10-18 12:53:23.001 INFO:   TOOLKIT SERVICE : Responding to client with: '{"id":"1476780794133","orientation":"PORTRAIT"}'
22692016-10-18 12:53:23.001 WARN:   SurfaceFlinger : Fail to Open /sys/devices/platform/gpusysfs/fps
22702016-10-18 12:53:23.021 DEBUG:  SurfaceFlinger : FPS : 60.63
22712016-10-18 12:53:23.021 WARN:   SurfaceFlinger : Fail to Open /sys/devices/platform/gpusysfs/fps
22722016-10-18 12:53:23.041 DEBUG:  SurfaceFlinger : FPS : 60.63
22732016-10-18 12:53:23.041 WARN:   SurfaceFlinger : Fail to Open /sys/devices/platform/gpusysfs/fps
22742016-10-18 12:53:23.051 DEBUG:  SurfaceFlinger : FPS : 60.63
22752016-10-18 12:53:23.051 WARN:   SurfaceFlinger : Fail to Open /sys/devices/platform/gpusysfs/fps
22762016-10-18 12:53:23.071 DEBUG:  SurfaceFlinger : FPS : 60.63
22772016-10-18 12:53:23.071 WARN:   SurfaceFlinger : Fail to Open /sys/devices/platform/gpusysfs/fps
22782016-10-18 12:53:23.091 DEBUG:  SurfaceFlinger : FPS : 60.63
22792016-10-18 12:53:23.091 WARN:   SurfaceFlinger : Fail to Open /sys/devices/platform/gpusysfs/fps
22802016-10-18 12:53:23.111 DEBUG:  SurfaceFlinger : FPS : 60.63
22812016-10-18 12:53:23.111 WARN:   SurfaceFlinger : Fail to Open /sys/devices/platform/gpusysfs/fps
22822016-10-18 12:53:23.121 DEBUG:  SurfaceFlinger : FPS : 60.63
22832016-10-18 12:53:23.121 WARN:   SurfaceFlinger : Fail to Open /sys/devices/platform/gpusysfs/fps
22842016-10-18 12:53:23.141 DEBUG:  SurfaceFlinger : FPS : 60.63
22852016-10-18 12:53:23.141 WARN:   SurfaceFlinger : Fail to Open /sys/devices/platform/gpusysfs/fps
22862016-10-18 12:53:23.161 DEBUG:  SurfaceFlinger : FPS : 60.63
22872016-10-18 12:53:23.161 WARN:   SurfaceFlinger : Fail to Open /sys/devices/platform/gpusysfs/fps
22882016-10-18 12:53:23.171 DEBUG:  SurfaceFlinger : FPS : 60.63
22892016-10-18 12:53:23.171 WARN:   SurfaceFlinger : Fail to Open /sys/devices/platform/gpusysfs/fps
22902016-10-18 12:53:23.181 ERROR:  SMD : smd Interface open failed errno is 2 -1
22912016-10-18 12:53:23.191 DEBUG:  SurfaceFlinger : FPS : 60.63
22922016-10-18 12:53:23.191 WARN:   SurfaceFlinger : Fail to Open /sys/devices/platform/gpusysfs/fps
22932016-10-18 12:53:23.221 DEBUG:  SurfaceFlinger : FPS : 60.63
22942016-10-18 12:53:23.221 WARN:   SurfaceFlinger : Fail to Open /sys/devices/platform/gpusysfs/fps
22952016-10-18 12:53:23.221 DEBUG:  SurfaceFlinger : FPS : 60.63
22962016-10-18 12:53:23.221 WARN:   SurfaceFlinger : Fail to Open /sys/devices/platform/gpusysfs/fps
22972016-10-18 12:53:23.241 DEBUG:  SurfaceFlinger : FPS : 60.63
22982016-10-18 12:53:23.241 WARN:   SurfaceFlinger : Fail to Open /sys/devices/platform/gpusysfs/fps
22992016-10-18 12:53:23.261 DEBUG:  SurfaceFlinger : FPS : 59.88
23002016-10-18 12:53:23.261 WARN:   SurfaceFlinger : Fail to Open /sys/devices/platform/gpusysfs/fps
23012016-10-18 12:53:23.271 DEBUG:  SurfaceFlinger : FPS : 59.88
23022016-10-18 12:53:23.271 WARN:   SurfaceFlinger : Fail to Open /sys/devices/platform/gpusysfs/fps
23032016-10-18 12:53:23.291 DEBUG:  SurfaceFlinger : FPS : 59.88
23042016-10-18 12:53:23.291 WARN:   SurfaceFlinger : Fail to Open /sys/devices/platform/gpusysfs/fps
23052016-10-18 12:53:23.311 DEBUG:  SurfaceFlinger : FPS : 59.88
23062016-10-18 12:53:23.311 WARN:   SurfaceFlinger : Fail to Open /sys/devices/platform/gpusysfs/fps
23072016-10-18 12:53:23.321 DEBUG:  SurfaceFlinger : FPS : 59.88
23082016-10-18 12:53:23.331 WARN:   SurfaceFlinger : Fail to Open /sys/devices/platform/gpusysfs/fps
23092016-10-18 12:53:23.341 DEBUG:  SurfaceFlinger : FPS : 59.88
23102016-10-18 12:53:23.341 WARN:   SurfaceFlinger : Fail to Open /sys/devices/platform/gpusysfs/fps
23112016-10-18 12:53:23.351 DEBUG:  SurfaceFlinger : FPS : 59.88
23122016-10-18 12:53:23.361 WARN:   SurfaceFlinger : Fail to Open /sys/devices/platform/gpusysfs/fps
23132016-10-18 12:53:23.371 DEBUG:  SurfaceFlinger : FPS : 59.88
23142016-10-18 12:53:23.371 WARN:   SurfaceFlinger : Fail to Open /sys/devices/platform/gpusysfs/fps
23152016-10-18 12:53:23.391 DEBUG:  SurfaceFlinger : FPS : 59.88
23162016-10-18 12:53:23.391 WARN:   SurfaceFlinger : Fail to Open /sys/devices/platform/gpusysfs/fps
23172016-10-18 12:53:23.401 DEBUG:  SurfaceFlinger : FPS : 59.88
23182016-10-18 12:53:23.401 WARN:   SurfaceFlinger : Fail to Open /sys/devices/platform/gpusysfs/fps
23192016-10-18 12:53:23.421 DEBUG:  SurfaceFlinger : FPS : 59.88
23202016-10-18 12:53:23.421 WARN:   SurfaceFlinger : Fail to Open /sys/devices/platform/gpusysfs/fps
23212016-10-18 12:53:23.441 DEBUG:  SurfaceFlinger : FPS : 59.88
23222016-10-18 12:53:23.441 WARN:   SurfaceFlinger : Fail to Open /sys/devices/platform/gpusysfs/fps
23232016-10-18 12:53:23.451 DEBUG:  SurfaceFlinger : FPS : 59.88
23242016-10-18 12:53:23.451 WARN:   SurfaceFlinger : Fail to Open /sys/devices/platform/gpusysfs/fps
23252016-10-18 12:53:23.471 DEBUG:  SurfaceFlinger : FPS : 59.88
23262016-10-18 12:53:23.471 WARN:   SurfaceFlinger : Fail to Open /sys/devices/platform/gpusysfs/fps
23272016-10-18 12:53:23.491 DEBUG:  SurfaceFlinger : FPS : 59.88
23282016-10-18 12:53:23.491 WARN:   SurfaceFlinger : Fail to Open /sys/devices/platform/gpusysfs/fps
23292016-10-18 12:53:23.501 INFO:   TOOLKIT SERVICE : Request body '{"id":"1476780794633","type":"GET_SCREEN_ORIENTATION"}'
23302016-10-18 12:53:23.501 INFO:   DEVICE MANAGER : {"id":"1476780794633","type":"GET_SCREEN_ORIENTATION"}
23312016-10-18 12:53:23.511 INFO:   TOOLKIT SERVICE : Responding to client with: '{"id":"1476780794633","orientation":"PORTRAIT"}'
23322016-10-18 12:53:23.511 DEBUG:  SurfaceFlinger : FPS : 59.24
23332016-10-18 12:53:23.511 WARN:   SurfaceFlinger : Fail to Open /sys/devices/platform/gpusysfs/fps
23342016-10-18 12:53:23.521 DEBUG:  SurfaceFlinger : FPS : 59.24
23352016-10-18 12:53:23.521 WARN:   SurfaceFlinger : Fail to Open /sys/devices/platform/gpusysfs/fps
23362016-10-18 12:53:23.541 DEBUG:  SurfaceFlinger : FPS : 59.24
23372016-10-18 12:53:23.541 WARN:   SurfaceFlinger : Fail to Open /sys/devices/platform/gpusysfs/fps
23382016-10-18 12:53:23.551 DEBUG:  SurfaceFlinger : FPS : 59.24
23392016-10-18 12:53:23.551 WARN:   SurfaceFlinger : Fail to Open /sys/devices/platform/gpusysfs/fps
23402016-10-18 12:53:23.571 DEBUG:  SurfaceFlinger : FPS : 59.24
23412016-10-18 12:53:23.571 WARN:   SurfaceFlinger : Fail to Open /sys/devices/platform/gpusysfs/fps
23422016-10-18 12:53:23.591 DEBUG:  SurfaceFlinger : FPS : 59.24
23432016-10-18 12:53:23.591 WARN:   SurfaceFlinger : Fail to Open /sys/devices/platform/gpusysfs/fps
23442016-10-18 12:53:23.601 DEBUG:  SurfaceFlinger : FPS : 59.24
23452016-10-18 12:53:23.601 WARN:   SurfaceFlinger : Fail to Open /sys/devices/platform/gpusysfs/fps
23462016-10-18 12:53:23.621 DEBUG:  SurfaceFlinger : FPS : 59.24
23472016-10-18 12:53:23.621 WARN:   SurfaceFlinger : Fail to Open /sys/devices/platform/gpusysfs/fps
23482016-10-18 12:53:23.641 DEBUG:  SurfaceFlinger : FPS : 59.24
23492016-10-18 12:53:23.641 WARN:   SurfaceFlinger : Fail to Open /sys/devices/platform/gpusysfs/fps
23502016-10-18 12:53:23.651 DEBUG:  SurfaceFlinger : FPS : 59.24
23512016-10-18 12:53:23.651 WARN:   SurfaceFlinger : Fail to Open /sys/devices/platform/gpusysfs/fps
23522016-10-18 12:53:23.671 DEBUG:  SurfaceFlinger : FPS : 59.24
23532016-10-18 12:53:23.671 WARN:   SurfaceFlinger : Fail to Open /sys/devices/platform/gpusysfs/fps
23542016-10-18 12:53:23.691 DEBUG:  SurfaceFlinger : FPS : 59.24
23552016-10-18 12:53:23.691 WARN:   SurfaceFlinger : Fail to Open /sys/devices/platform/gpusysfs/fps
23562016-10-18 12:53:23.701 DEBUG:  SurfaceFlinger : FPS : 59.24
23572016-10-18 12:53:23.701 WARN:   SurfaceFlinger : Fail to Open /sys/devices/platform/gpusysfs/fps
23582016-10-18 12:53:23.721 DEBUG:  SurfaceFlinger : FPS : 59.24
23592016-10-18 12:53:23.721 WARN:   SurfaceFlinger : Fail to Open /sys/devices/platform/gpusysfs/fps
23602016-10-18 12:53:23.741 DEBUG:  SurfaceFlinger : FPS : 59.24
23612016-10-18 12:53:23.741 WARN:   SurfaceFlinger : Fail to Open /sys/devices/platform/gpusysfs/fps
23622016-10-05 03:53:23.751 DEBUG:  SurfaceFlinger : FPS : 59.24
23632016-10-18 12:53:23.751 WARN:   SurfaceFlinger : Fail to Open /sys/devices/platform/gpusysfs/fps
23642016-10-18 12:53:23.771 DEBUG:  SurfaceFlinger : FPS : 61.14
23652016-10-18 12:53:23.771 WARN:   SurfaceFlinger : Fail to Open /sys/devices/platform/gpusysfs/fps
23662016-10-18 12:53:23.791 DEBUG:  SurfaceFlinger : FPS : 61.14
23672016-10-18 12:53:23.791 WARN:   SurfaceFlinger : Fail to Open /sys/devices/platform/gpusysfs/fps
23682016-10-18 12:53:23.802 DEBUG:  SurfaceFlinger : FPS : 61.14
23692016-10-18 12:53:23.802 WARN:   SurfaceFlinger : Fail to Open /sys/devices/platform/gpusysfs/fps
23702016-10-18 12:53:23.822 DEBUG:  SurfaceFlinger : FPS : 61.14
23712016-10-18 12:53:23.822 WARN:   SurfaceFlinger : Fail to Open /sys/devices/platform/gpusysfs/fps
23722016-10-18 12:53:23.842 DEBUG:  SurfaceFlinger : FPS : 61.14
23732016-10-18 12:53:23.842 WARN:   SurfaceFlinger : Fail to Open /sys/devices/platform/gpusysfs/fps
23742016-10-18 12:53:23.852 DEBUG:  SurfaceFlinger : FPS : 61.14
23752016-10-18 12:53:23.852 WARN:   SurfaceFlinger : Fail to Open /sys/devices/platform/gpusysfs/fps
23762016-10-18 12:53:23.872 DEBUG:  SurfaceFlinger : FPS : 61.14
23772016-10-18 12:53:23.872 WARN:   SurfaceFlinger : Fail to Open /sys/devices/platform/gpusysfs/fps
23782016-10-18 12:53:23.892 DEBUG:  SurfaceFlinger : FPS : 61.14
23792016-10-18 12:53:23.892 WARN:   SurfaceFlinger : Fail to Open /sys/devices/platform/gpusysfs/fps
23802016-10-18 12:53:23.902 DEBUG:  SurfaceFlinger : FPS : 61.14
23812016-10-18 12:53:23.902 WARN:   SurfaceFlinger : Fail to Open /sys/devices/platform/gpusysfs/fps
23822016-10-18 12:53:23.922 DEBUG:  SurfaceFlinger : FPS : 61.14
23832016-10-18 12:53:23.922 WARN:   SurfaceFlinger : Fail to Open /sys/devices/platform/gpusysfs/fps
23842016-10-18 12:53:23.942 DEBUG:  SurfaceFlinger : FPS : 61.14
23852016-10-18 12:53:23.942 WARN:   SurfaceFlinger : Fail to Open /sys/devices/platform/gpusysfs/fps
23862016-10-18 12:53:23.952 DEBUG:  SurfaceFlinger : FPS : 61.14
23872016-10-18 12:53:23.952 WARN:   SurfaceFlinger : Fail to Open /sys/devices/platform/gpusysfs/fps
23882016-10-18 12:53:23.972 DEBUG:  SurfaceFlinger : FPS : 61.14
23892016-10-18 12:53:23.972 WARN:   SurfaceFlinger : Fail to Open /sys/devices/platform/gpusysfs/fps
23902016-10-18 12:53:23.992 DEBUG:  SurfaceFlinger : FPS : 61.14
23912016-10-18 12:53:23.992 WARN:   SurfaceFlinger : Fail to Open /sys/devices/platform/gpusysfs/fps
23922016-10-18 12:53:24.002 DEBUG:  SurfaceFlinger : FPS : 61.14
23932016-10-18 12:53:24.002 WARN:   SurfaceFlinger : Fail to Open /sys/devices/platform/gpusysfs/fps
23942016-10-18 12:53:24.002 INFO:   TOOLKIT SERVICE : Request body '{"id":"1476780795133","type":"GET_SCREEN_ORIENTATION"}'
23952016-10-18 12:53:24.002 INFO:   DEVICE MANAGER : {"id":"1476780795133","type":"GET_SCREEN_ORIENTATION"}
23962016-10-18 12:53:24.002 INFO:   TOOLKIT SERVICE : Responding to client with: '{"id":"1476780795133","orientation":"PORTRAIT"}'
23972016-10-18 12:53:24.022 DEBUG:  SurfaceFlinger : FPS : 59.94
23982016-10-18 12:53:24.022 WARN:   SurfaceFlinger : Fail to Open /sys/devices/platform/gpusysfs/fps
23992016-10-18 12:53:24.042 DEBUG:  SurfaceFlinger : FPS : 59.94
24002016-10-18 12:53:24.042 WARN:   SurfaceFlinger : Fail to Open /sys/devices/platform/gpusysfs/fps
24012016-10-18 12:53:24.062 DEBUG:  SurfaceFlinger : FPS : 59.94
24022016-10-18 12:53:24.062 WARN:   SurfaceFlinger : Fail to Open /sys/devices/platform/gpusysfs/fps
24032016-10-18 12:53:24.072 DEBUG:  SurfaceFlinger : FPS : 59.94
24042016-10-18 12:53:24.072 WARN:   SurfaceFlinger : Fail to Open /sys/devices/platform/gpusysfs/fps
24052016-10-18 12:53:24.092 DEBUG:  SurfaceFlinger : FPS : 59.94
24062016-10-18 12:53:24.092 WARN:   SurfaceFlinger : Fail to Open /sys/devices/platform/gpusysfs/fps
24072016-10-18 12:53:24.102 DEBUG:  SurfaceFlinger : FPS : 59.94
24082016-10-18 12:53:24.102 WARN:   SurfaceFlinger : Fail to Open /sys/devices/platform/gpusysfs/fps
24092016-10-18 12:53:24.122 DEBUG:  SurfaceFlinger : FPS : 59.94
24102016-10-18 12:53:24.122 WARN:   SurfaceFlinger : Fail to Open /sys/devices/platform/gpusysfs/fps
24112016-10-18 12:53:24.142 DEBUG:  SurfaceFlinger : FPS : 59.94
24122016-10-18 12:53:24.142 WARN:   SurfaceFlinger : Fail to Open /sys/devices/platform/gpusysfs/fps
24132016-10-18 12:53:24.152 DEBUG:  SurfaceFlinger : FPS : 59.94
24142016-10-18 12:53:24.152 WARN:   SurfaceFlinger : Fail to Open /sys/devices/platform/gpusysfs/fps
24152016-10-18 12:53:24.172 DEBUG:  SurfaceFlinger : FPS : 59.94
24162016-10-18 12:53:24.172 WARN:   SurfaceFlinger : Fail to Open /sys/devices/platform/gpusysfs/fps
24172016-10-18 12:53:24.182 ERROR:  SMD : smd Interface open failed errno is 2 -1
24182016-10-18 12:53:24.192 DEBUG:  SurfaceFlinger : FPS : 59.94
24192016-10-18 12:53:24.192 WARN:   SurfaceFlinger : Fail to Open /sys/devices/platform/gpusysfs/fps
24202016-10-18 12:53:24.202 DEBUG:  SurfaceFlinger : FPS : 59.94
24212016-10-18 12:53:24.202 WARN:   SurfaceFlinger : Fail to Open /sys/devices/platform/gpusysfs/fps
24222016-10-18 12:53:24.222 DEBUG:  SurfaceFlinger : FPS : 59.94
24232016-10-18 12:53:24.222 WARN:   SurfaceFlinger : Fail to Open /sys/devices/platform/gpusysfs/fps
24242016-10-18 12:53:24.242 DEBUG:  SurfaceFlinger : FPS : 59.94
24252016-10-18 12:53:24.242 WARN:   SurfaceFlinger : Fail to Open /sys/devices/platform/gpusysfs/fps
24262016-10-18 12:53:24.252 DEBUG:  SurfaceFlinger : FPS : 59.94
24272016-10-18 12:53:24.252 WARN:   SurfaceFlinger : Fail to Open /sys/devices/platform/gpusysfs/fps
24282016-10-18 12:53:24.272 DEBUG:  SurfaceFlinger : FPS : 59.94
24292016-10-18 12:53:24.272 WARN:   SurfaceFlinger : Fail to Open /sys/devices/platform/gpusysfs/fps
24302016-10-18 12:53:24.292 DEBUG:  SurfaceFlinger : FPS : 60.37
24312016-10-18 12:53:24.292 WARN:   SurfaceFlinger : Fail to Open /sys/devices/platform/gpusysfs/fps
24322016-10-18 12:53:24.302 DEBUG:  SurfaceFlinger : FPS : 60.37
24332016-10-18 12:53:24.302 WARN:   SurfaceFlinger : Fail to Open /sys/devices/platform/gpusysfs/fps
24342016-10-18 12:53:24.322 DEBUG:  SurfaceFlinger : FPS : 60.37
24352016-10-18 12:53:24.322 WARN:   SurfaceFlinger : Fail to Open /sys/devices/platform/gpusysfs/fps
24362016-10-18 12:53:24.332 DEBUG:  SurfaceFlinger : FPS : 60.37
24372016-10-18 12:53:24.332 WARN:   SurfaceFlinger : Fail to Open /sys/devices/platform/gpusysfs/fps
24382016-10-18 12:53:24.352 DEBUG:  SurfaceFlinger : FPS : 60.37
24392016-10-18 12:53:24.352 WARN:   SurfaceFlinger : Fail to Open /sys/devices/platform/gpusysfs/fps
24402016-10-18 12:53:24.372 DEBUG:  SurfaceFlinger : FPS : 60.37
24412016-10-18 12:53:24.372 WARN:   SurfaceFlinger : Fail to Open /sys/devices/platform/gpusysfs/fps
24422016-10-18 12:53:24.382 DEBUG:  SurfaceFlinger : FPS : 60.37
24432016-10-18 12:53:24.382 WARN:   SurfaceFlinger : Fail to Open /sys/devices/platform/gpusysfs/fps
24442016-10-18 12:53:24.402 DEBUG:  SurfaceFlinger : FPS : 60.37
24452016-10-18 12:53:24.402 WARN:   SurfaceFlinger : Fail to Open /sys/devices/platform/gpusysfs/fps
24462016-10-18 12:53:24.422 DEBUG:  SurfaceFlinger : FPS : 60.37
24472016-10-18 12:53:24.422 WARN:   SurfaceFlinger : Fail to Open /sys/devices/platform/gpusysfs/fps
24482016-10-18 12:53:24.432 DEBUG:  SurfaceFlinger : FPS : 60.37
24492016-10-18 12:53:24.432 WARN:   SurfaceFlinger : Fail to Open /sys/devices/platform/gpusysfs/fps
24502016-10-18 12:53:24.452 DEBUG:  SurfaceFlinger : FPS : 60.37
24512016-10-18 12:53:24.452 WARN:   SurfaceFlinger : Fail to Open /sys/devices/platform/gpusysfs/fps
24522016-10-18 12:53:24.472 DEBUG:  SurfaceFlinger : FPS : 60.37
24532016-10-18 12:53:24.472 WARN:   SurfaceFlinger : Fail to Open /sys/devices/platform/gpusysfs/fps
24542016-10-18 12:53:24.482 DEBUG:  SurfaceFlinger : FPS : 60.37
24552016-10-18 12:53:24.482 WARN:   SurfaceFlinger : Fail to Open /sys/devices/platform/gpusysfs/fps
24562016-10-18 12:53:24.502 DEBUG:  SurfaceFlinger : FPS : 60.37
24572016-10-18 12:53:24.502 WARN:   SurfaceFlinger : Fail to Open /sys/devices/platform/gpusysfs/fps
24582016-10-18 12:53:24.502 INFO:   TOOLKIT SERVICE : Request body '{"id":"1476780795633","type":"GET_SCREEN_ORIENTATION"}'
24592016-10-18 12:53:24.502 INFO:   DEVICE MANAGER : {"id":"1476780795633","type":"GET_SCREEN_ORIENTATION"}
24602016-10-18 12:53:24.512 INFO:   TOOLKIT SERVICE : Responding to client with: '{"id":"1476780795633","orientation":"PORTRAIT"}'
24612016-10-18 12:53:24.522 DEBUG:  SurfaceFlinger : FPS : 60.37
24622016-10-18 12:53:24.522 WARN:   SurfaceFlinger : Fail to Open /sys/devices/platform/gpusysfs/fps
24632016-10-18 12:53:24.532 DEBUG:  SurfaceFlinger : FPS : 60.37
24642016-10-18 12:53:24.542 WARN:   SurfaceFlinger : Fail to Open /sys/devices/platform/gpusysfs/fps
24652016-10-18 12:53:24.552 DEBUG:  SurfaceFlinger : FPS : 60.26
24662016-10-18 12:53:24.552 WARN:   SurfaceFlinger : Fail to Open /sys/devices/platform/gpusysfs/fps
24672016-10-18 12:53:24.572 DEBUG:  SurfaceFlinger : FPS : 60.26
24682016-10-18 12:53:24.572 WARN:   SurfaceFlinger : Fail to Open /sys/devices/platform/gpusysfs/fps
24692016-10-18 12:53:24.582 DEBUG:  SurfaceFlinger : FPS : 60.26
24702016-10-18 12:53:24.582 WARN:   SurfaceFlinger : Fail to Open /sys/devices/platform/gpusysfs/fps
24712016-10-18 12:53:24.602 DEBUG:  SurfaceFlinger : FPS : 60.26
24722016-10-18 12:53:24.602 WARN:   SurfaceFlinger : Fail to Open /sys/devices/platform/gpusysfs/fps
24732016-10-18 12:53:24.622 DEBUG:  SurfaceFlinger : FPS : 60.26
24742016-10-18 12:53:24.622 WARN:   SurfaceFlinger : Fail to Open /sys/devices/platform/gpusysfs/fps
24752016-10-18 12:53:24.632 DEBUG:  SurfaceFlinger : FPS : 60.26
24762016-10-18 12:53:24.632 WARN:   SurfaceFlinger : Fail to Open /sys/devices/platform/gpusysfs/fps
24772016-10-18 12:53:24.652 DEBUG:  SurfaceFlinger : FPS : 60.26
24782016-10-18 12:53:24.652 WARN:   SurfaceFlinger : Fail to Open /sys/devices/platform/gpusysfs/fps
24792016-10-18 12:53:24.672 DEBUG:  SurfaceFlinger : FPS : 60.26
24802016-10-18 12:53:24.672 WARN:   SurfaceFlinger : Fail to Open /sys/devices/platform/gpusysfs/fps
24812016-10-18 12:53:24.682 DEBUG:  SurfaceFlinger : FPS : 60.26
24822016-10-18 12:53:24.682 WARN:   SurfaceFlinger : Fail to Open /sys/devices/platform/gpusysfs/fps
24832016-10-18 12:53:24.702 DEBUG:  SurfaceFlinger : FPS : 60.26
24842016-10-18 12:53:24.702 WARN:   SurfaceFlinger : Fail to Open /sys/devices/platform/gpusysfs/fps
24852016-10-18 12:53:24.722 DEBUG:  SurfaceFlinger : FPS : 60.26
24862016-10-18 12:53:24.722 WARN:   SurfaceFlinger : Fail to Open /sys/devices/platform/gpusysfs/fps
24872016-10-18 12:53:24.732 DEBUG:  SurfaceFlinger : FPS : 60.26
24882016-10-18 12:53:24.732 WARN:   SurfaceFlinger : Fail to Open /sys/devices/platform/gpusysfs/fps
24892016-10-18 12:53:24.752 DEBUG:  SurfaceFlinger : FPS : 60.26
24902016-10-18 12:53:24.752 WARN:   SurfaceFlinger : Fail to Open /sys/devices/platform/gpusysfs/fps
24912016-10-18 12:53:24.772 DEBUG:  SurfaceFlinger : FPS : 60.26
24922016-10-18 12:53:24.772 WARN:   SurfaceFlinger : Fail to Open /sys/devices/platform/gpusysfs/fps
24932016-10-18 12:53:24.792 DEBUG:  SurfaceFlinger : FPS : 60.26
24942016-10-18 12:53:24.792 WARN:   SurfaceFlinger : Fail to Open /sys/devices/platform/gpusysfs/fps
24952016-10-18 12:53:24.802 DEBUG:  SurfaceFlinger : FPS : 60.26
24962016-10-18 12:53:24.802 WARN:   SurfaceFlinger : Fail to Open /sys/devices/platform/gpusysfs/fps
24972016-10-18 12:53:24.823 DEBUG:  SurfaceFlinger : FPS : 59.81
24982016-10-18 12:53:24.823 WARN:   SurfaceFlinger : Fail to Open /sys/devices/platform/gpusysfs/fps
24992016-10-18 12:53:24.843 DEBUG:  SurfaceFlinger : FPS : 59.81
25002016-10-18 12:53:24.843 WARN:   SurfaceFlinger : Fail to Open /sys/devices/platform/gpusysfs/fps
25012016-10-18 12:53:24.853 DEBUG:  SurfaceFlinger : FPS : 59.81
25022016-10-18 12:53:24.853 WARN:   SurfaceFlinger : Fail to Open /sys/devices/platform/gpusysfs/fps
25032016-10-18 12:53:24.873 DEBUG:  SurfaceFlinger : FPS : 59.81
25042016-10-18 12:53:24.873 WARN:   SurfaceFlinger : Fail to Open /sys/devices/platform/gpusysfs/fps
25052016-10-18 12:53:24.893 DEBUG:  SurfaceFlinger : FPS : 59.81
25062016-10-18 12:53:24.893 WARN:   SurfaceFlinger : Fail to Open /sys/devices/platform/gpusysfs/fps
25072016-10-18 12:53:24.903 DEBUG:  SurfaceFlinger : FPS : 59.81
25082016-10-18 12:53:24.903 WARN:   SurfaceFlinger : Fail to Open /sys/devices/platform/gpusysfs/fps
25092016-10-18 12:53:24.923 DEBUG:  SurfaceFlinger : FPS : 59.81
25102016-10-18 12:53:24.923 WARN:   SurfaceFlinger : Fail to Open /sys/devices/platform/gpusysfs/fps
25112016-10-18 12:53:24.933 DEBUG:  SurfaceFlinger : FPS : 59.81
25122016-10-18 12:53:24.933 WARN:   SurfaceFlinger : Fail to Open /sys/devices/platform/gpusysfs/fps
25132016-10-18 12:53:24.953 DEBUG:  SurfaceFlinger : FPS : 59.81
25142016-10-18 12:53:24.953 WARN:   SurfaceFlinger : Fail to Open /sys/devices/platform/gpusysfs/fps
25152016-10-18 12:53:24.983 DEBUG:  SurfaceFlinger : FPS : 59.81
25162016-10-18 12:53:24.983 WARN:   SurfaceFlinger : Fail to Open /sys/devices/platform/gpusysfs/fps
25172016-10-18 12:53:24.983 DEBUG:  SurfaceFlinger : FPS : 59.81
25182016-10-18 12:53:24.983 WARN:   SurfaceFlinger : Fail to Open /sys/devices/platform/gpusysfs/fps
25192016-10-18 12:53:25.003 DEBUG:  SurfaceFlinger : FPS : 59.81
25202016-10-18 12:53:25.003 WARN:   SurfaceFlinger : Fail to Open /sys/devices/platform/gpusysfs/fps
25212016-10-18 12:53:25.003 INFO:   TOOLKIT SERVICE : Request body '{"id":"1476780796133","type":"GET_SCREEN_ORIENTATION"}'
25222016-10-18 12:53:25.003 INFO:   DEVICE MANAGER : {"id":"1476780796133","type":"GET_SCREEN_ORIENTATION"}
25232016-10-18 12:53:25.013 INFO:   TOOLKIT SERVICE : Responding to client with: '{"id":"1476780796133","orientation":"PORTRAIT"}'
25242016-10-18 12:53:25.023 DEBUG:  SurfaceFlinger : FPS : 59.81
25252016-10-18 12:53:25.023 WARN:   SurfaceFlinger : Fail to Open /sys/devices/platform/gpusysfs/fps
25262016-10-18 12:53:25.033 DEBUG:  SurfaceFlinger : FPS : 59.81
25272016-10-18 12:53:25.033 WARN:   SurfaceFlinger : Fail to Open /sys/devices/platform/gpusysfs/fps
25282016-10-18 12:53:25.053 DEBUG:  SurfaceFlinger : FPS : 59.81
25292016-10-18 12:53:25.053 WARN:   SurfaceFlinger : Fail to Open /sys/devices/platform/gpusysfs/fps
25302016-10-18 12:53:25.073 DEBUG:  SurfaceFlinger : FPS : 59.81
25312016-10-18 12:53:25.073 WARN:   SurfaceFlinger : Fail to Open /sys/devices/platform/gpusysfs/fps
25322016-10-18 12:53:25.083 DEBUG:  SurfaceFlinger : FPS : 60.44
25332016-10-18 12:53:25.083 WARN:   SurfaceFlinger : Fail to Open /sys/devices/platform/gpusysfs/fps
25342016-10-18 12:53:25.103 DEBUG:  SurfaceFlinger : FPS : 60.44
25352016-10-18 12:53:25.103 WARN:   SurfaceFlinger : Fail to Open /sys/devices/platform/gpusysfs/fps
25362016-10-18 12:53:25.123 DEBUG:  SurfaceFlinger : FPS : 60.44
25372016-10-18 12:53:25.123 WARN:   SurfaceFlinger : Fail to Open /sys/devices/platform/gpusysfs/fps
25382016-10-18 12:53:25.133 DEBUG:  SurfaceFlinger : FPS : 60.44
25392016-10-18 12:53:25.133 WARN:   SurfaceFlinger : Fail to Open /sys/devices/platform/gpusysfs/fps
25402016-10-18 12:53:25.153 DEBUG:  SurfaceFlinger : FPS : 60.44
25412016-10-18 12:53:25.153 WARN:   SurfaceFlinger : Fail to Open /sys/devices/platform/gpusysfs/fps
25422016-10-18 12:53:25.173 DEBUG:  SurfaceFlinger : FPS : 60.44
25432016-10-18 12:53:25.173 WARN:   SurfaceFlinger : Fail to Open /sys/devices/platform/gpusysfs/fps
25442016-10-18 12:53:25.183 ERROR:  SMD : smd Interface open failed errno is 2 -1
25452016-10-18 12:53:25.183 DEBUG:  SurfaceFlinger : FPS : 60.44
25462016-10-18 12:53:25.183 WARN:   SurfaceFlinger : Fail to Open /sys/devices/platform/gpusysfs/fps
25472016-10-18 12:53:25.203 DEBUG:  Subscription : Filters valid: true
25482016-10-18 12:53:25.203 DEBUG:  SurfaceFlinger : FPS : 60.44
25492016-10-18 12:53:25.203 WARN:   SurfaceFlinger : Fail to Open /sys/devices/platform/gpusysfs/fps
25502016-10-18 12:53:25.223 DEBUG:  SurfaceFlinger : FPS : 60.44
25512016-10-18 12:53:25.223 WARN:   SurfaceFlinger : Fail to Open /sys/devices/platform/gpusysfs/fps
25522016-10-18 12:53:25.233 DEBUG:  SurfaceFlinger : FPS : 60.44
25532016-10-18 12:53:25.233 WARN:   SurfaceFlinger : Fail to Open /sys/devices/platform/gpusysfs/fps
25542016-10-18 12:53:25.253 DEBUG:  SurfaceFlinger : FPS : 60.44
25552016-10-18 12:53:25.253 WARN:   SurfaceFlinger : Fail to Open /sys/devices/platform/gpusysfs/fps
25562016-10-18 12:53:25.273 DEBUG:  SurfaceFlinger : FPS : 60.44
25572016-10-18 12:53:25.273 WARN:   SurfaceFlinger : Fail to Open /sys/devices/platform/gpusysfs/fps
25582016-10-18 12:53:25.283 DEBUG:  SurfaceFlinger : FPS : 60.44
25592016-10-18 12:53:25.283 WARN:   SurfaceFlinger : Fail to Open /sys/devices/platform/gpusysfs/fps
25602016-10-18 12:53:25.293 DEBUG:  Subscriptions : Adding filters for 'url:https://easylist-downloads.adblockplus.org/exceptionrules.txt'
25612016-10-18 12:53:25.303 DEBUG:  SurfaceFlinger : FPS : 60.44
25622016-10-18 12:53:25.303 WARN:   SurfaceFlinger : Fail to Open /sys/devices/platform/gpusysfs/fps
25632016-10-18 12:53:25.323 DEBUG:  SurfaceFlinger : FPS : 60.44
25642016-10-18 12:53:25.323 WARN:   SurfaceFlinger : Fail to Open /sys/devices/platform/gpusysfs/fps
25652016-10-18 12:53:25.333 DEBUG:  SurfaceFlinger : FPS : 60.44
25662016-10-18 12:53:25.333 WARN:   SurfaceFlinger : Fail to Open /sys/devices/platform/gpusysfs/fps
25672016-10-18 12:53:25.353 DEBUG:  SurfaceFlinger : FPS : 60.18
25682016-10-18 12:53:25.353 WARN:   SurfaceFlinger : Fail to Open /sys/devices/platform/gpusysfs/fps
25692016-10-18 12:53:25.373 DEBUG:  SurfaceFlinger : FPS : 60.18
25702016-10-18 12:53:25.373 WARN:   SurfaceFlinger : Fail to Open /sys/devices/platform/gpusysfs/fps
25712016-10-18 12:53:25.393 DEBUG:  SurfaceFlinger : FPS : 60.18
25722016-10-18 12:53:25.393 WARN:   SurfaceFlinger : Fail to Open /sys/devices/platform/gpusysfs/fps
25732016-10-18 12:53:25.403 DEBUG:  SurfaceFlinger : FPS : 60.18
25742016-10-18 12:53:25.403 WARN:   SurfaceFlinger : Fail to Open /sys/devices/platform/gpusysfs/fps
25752016-10-18 12:53:25.423 DEBUG:  SurfaceFlinger : FPS : 60.18
25762016-10-18 12:53:25.423 WARN:   SurfaceFlinger : Fail to Open /sys/devices/platform/gpusysfs/fps
25772016-10-18 12:53:25.433 DEBUG:  SurfaceFlinger : FPS : 60.18
25782016-10-18 12:53:25.433 WARN:   SurfaceFlinger : Fail to Open /sys/devices/platform/gpusysfs/fps
25792016-10-18 12:53:25.453 DEBUG:  SurfaceFlinger : FPS : 60.18
25802016-10-18 12:53:25.453 WARN:   SurfaceFlinger : Fail to Open /sys/devices/platform/gpusysfs/fps
25812016-10-18 12:53:25.473 DEBUG:  SurfaceFlinger : FPS : 60.18
25822016-10-18 12:53:25.473 WARN:   SurfaceFlinger : Fail to Open /sys/devices/platform/gpusysfs/fps
25832016-10-18 12:53:25.483 DEBUG:  SurfaceFlinger : FPS : 60.18
25842016-10-18 12:53:25.483 WARN:   SurfaceFlinger : Fail to Open /sys/devices/platform/gpusysfs/fps
25852016-10-18 12:53:25.503 DEBUG:  SurfaceFlinger : FPS : 60.18
25862016-10-18 12:53:25.503 WARN:   SurfaceFlinger : Fail to Open /sys/devices/platform/gpusysfs/fps
25872016-10-18 12:53:25.503 INFO:   TOOLKIT SERVICE : Request body '{"id":"1476780796633","type":"GET_SCREEN_ORIENTATION"}'
25882016-10-18 12:53:25.503 INFO:   DEVICE MANAGER : {"id":"1476780796633","type":"GET_SCREEN_ORIENTATION"}
25892016-10-18 12:53:25.513 INFO:   TOOLKIT SERVICE : Responding to client with: '{"id":"1476780796633","orientation":"PORTRAIT"}'
25902016-10-18 12:53:25.523 DEBUG:  SurfaceFlinger : FPS : 60.18
25912016-10-18 12:53:25.523 WARN:   SurfaceFlinger : Fail to Open /sys/devices/platform/gpusysfs/fps
25922016-10-18 12:53:25.533 DEBUG:  SurfaceFlinger : FPS : 60.18
25932016-10-18 12:53:25.533 WARN:   SurfaceFlinger : Fail to Open /sys/devices/platform/gpusysfs/fps
25942016-10-18 12:53:25.553 DEBUG:  SurfaceFlinger : FPS : 60.18
25952016-10-18 12:53:25.553 WARN:   SurfaceFlinger : Fail to Open /sys/devices/platform/gpusysfs/fps
25962016-10-18 12:53:25.573 DEBUG:  SurfaceFlinger : FPS : 60.18
25972016-10-18 12:53:25.573 WARN:   SurfaceFlinger : Fail to Open /sys/devices/platform/gpusysfs/fps
25982016-10-18 12:53:25.593 DEBUG:  SurfaceFlinger : FPS : 60.18
25992016-10-18 12:53:25.593 WARN:   SurfaceFlinger : Fail to Open /sys/devices/platform/gpusysfs/fps
26002016-10-18 12:53:25.603 DEBUG:  SurfaceFlinger : FPS : 59.11
26012016-10-18 12:53:25.603 WARN:   SurfaceFlinger : Fail to Open /sys/devices/platform/gpusysfs/fps
26022016-10-18 12:53:25.623 DEBUG:  SurfaceFlinger : FPS : 59.11
26032016-10-18 12:53:25.623 WARN:   SurfaceFlinger : Fail to Open /sys/devices/platform/gpusysfs/fps
26042016-10-18 12:53:25.633 DEBUG:  SurfaceFlinger : FPS : 59.11
26052016-10-18 12:53:25.633 WARN:   SurfaceFlinger : Fail to Open /sys/devices/platform/gpusysfs/fps
26062016-10-18 12:53:25.653 DEBUG:  SurfaceFlinger : FPS : 59.11
26072016-10-18 12:53:25.653 WARN:   SurfaceFlinger : Fail to Open /sys/devices/platform/gpusysfs/fps
26082016-10-18 12:53:25.673 DEBUG:  SurfaceFlinger : FPS : 59.11
26092016-10-18 12:53:25.673 WARN:   SurfaceFlinger : Fail to Open /sys/devices/platform/gpusysfs/fps
26102016-10-18 12:53:25.683 DEBUG:  SurfaceFlinger : FPS : 59.11
26112016-10-18 12:53:25.683 WARN:   SurfaceFlinger : Fail to Open /sys/devices/platform/gpusysfs/fps
26122016-10-18 12:53:25.703 DEBUG:  SurfaceFlinger : FPS : 59.11
26132016-10-18 12:53:25.703 WARN:   SurfaceFlinger : Fail to Open /sys/devices/platform/gpusysfs/fps
26142016-10-18 12:53:25.723 DEBUG:  SurfaceFlinger : FPS : 59.11
26152016-10-18 12:53:25.723 WARN:   SurfaceFlinger : Fail to Open /sys/devices/platform/gpusysfs/fps
26162016-10-18 12:53:25.733 DEBUG:  SurfaceFlinger : FPS : 59.11
26172016-10-18 12:53:25.733 WARN:   SurfaceFlinger : Fail to Open /sys/devices/platform/gpusysfs/fps
26182016-10-18 12:53:25.753 DEBUG:  SurfaceFlinger : FPS : 59.11
26192016-10-18 12:53:25.753 WARN:   SurfaceFlinger : Fail to Open /sys/devices/platform/gpusysfs/fps
26202016-10-18 12:53:25.763 DEBUG:  SurfaceFlinger : FPS : 59.11
26212016-10-18 12:53:25.773 WARN:   SurfaceFlinger : Fail to Open /sys/devices/platform/gpusysfs/fps
26222016-10-18 12:53:25.783 DEBUG:  SurfaceFlinger : FPS : 59.11
26232016-10-18 12:53:25.783 WARN:   SurfaceFlinger : Fail to Open /sys/devices/platform/gpusysfs/fps
26242016-10-18 12:53:25.803 DEBUG:  SurfaceFlinger : FPS : 59.11
26252016-10-18 12:53:25.803 WARN:   SurfaceFlinger : Fail to Open /sys/devices/platform/gpusysfs/fps
26262016-10-18 12:53:25.823 DEBUG:  SurfaceFlinger : FPS : 59.11
26272016-10-18 12:53:25.823 WARN:   SurfaceFlinger : Fail to Open /sys/devices/platform/gpusysfs/fps
26282016-10-18 12:53:25.833 DEBUG:  SurfaceFlinger : FPS : 59.11
26292016-10-18 12:53:25.833 WARN:   SurfaceFlinger : Fail to Open /sys/devices/platform/gpusysfs/fps
26302016-10-18 12:53:25.854 DEBUG:  SurfaceFlinger : FPS : 59.11
26312016-10-18 12:53:25.854 WARN:   SurfaceFlinger : Fail to Open /sys/devices/platform/gpusysfs/fps
26322016-10-18 12:53:25.874 DEBUG:  SurfaceFlinger : FPS : 60.83
26332016-10-18 12:53:25.874 WARN:   SurfaceFlinger : Fail to Open /sys/devices/platform/gpusysfs/fps
26342016-10-18 12:53:25.884 DEBUG:  SurfaceFlinger : FPS : 60.83
26352016-10-18 12:53:25.884 WARN:   SurfaceFlinger : Fail to Open /sys/devices/platform/gpusysfs/fps
26362016-10-18 12:53:25.904 DEBUG:  SurfaceFlinger : FPS : 60.83
26372016-10-18 12:53:25.904 WARN:   SurfaceFlinger : Fail to Open /sys/devices/platform/gpusysfs/fps
26382016-10-18 12:53:25.924 DEBUG:  SurfaceFlinger : FPS : 60.83
26392016-10-18 12:53:25.924 WARN:   SurfaceFlinger : Fail to Open /sys/devices/platform/gpusysfs/fps
26402016-10-18 12:53:25.934 DEBUG:  SurfaceFlinger : FPS : 60.83
26412016-10-18 12:53:25.934 WARN:   SurfaceFlinger : Fail to Open /sys/devices/platform/gpusysfs/fps
26422016-10-18 12:53:25.954 DEBUG:  SurfaceFlinger : FPS : 60.83
26432016-10-18 12:53:25.954 WARN:   SurfaceFlinger : Fail to Open /sys/devices/platform/gpusysfs/fps
26442016-10-18 12:53:25.964 DEBUG:  SurfaceFlinger : FPS : 60.83
26452016-10-18 12:53:25.964 WARN:   SurfaceFlinger : Fail to Open /sys/devices/platform/gpusysfs/fps
26462016-10-18 12:53:25.984 DEBUG:  SurfaceFlinger : FPS : 60.83
26472016-10-18 12:53:25.984 WARN:   SurfaceFlinger : Fail to Open /sys/devices/platform/gpusysfs/fps
26482016-10-18 12:53:26.004 DEBUG:  SurfaceFlinger : FPS : 60.83
26492016-10-18 12:53:26.004 WARN:   SurfaceFlinger : Fail to Open /sys/devices/platform/gpusysfs/fps
26502016-10-18 12:53:26.004 INFO:   TOOLKIT SERVICE : Request body '{"id":"1476780797133","type":"GET_SCREEN_ORIENTATION"}'
26512016-10-18 12:53:26.004 INFO:   DEVICE MANAGER : {"id":"1476780797133","type":"GET_SCREEN_ORIENTATION"}
26522016-10-18 12:53:26.004 INFO:   TOOLKIT SERVICE : Responding to client with: '{"id":"1476780797133","orientation":"PORTRAIT"}'
26532016-10-18 12:53:26.024 DEBUG:  SurfaceFlinger : FPS : 60.83
26542016-10-18 12:53:26.024 WARN:   SurfaceFlinger : Fail to Open /sys/devices/platform/gpusysfs/fps
26552016-10-18 12:53:26.034 DEBUG:  SurfaceFlinger : FPS : 60.83
26562016-10-18 12:53:26.034 WARN:   SurfaceFlinger : Fail to Open /sys/devices/platform/gpusysfs/fps
26572016-10-18 12:53:26.054 DEBUG:  SurfaceFlinger : FPS : 60.83
26582016-10-18 12:53:26.054 WARN:   SurfaceFlinger : Fail to Open /sys/devices/platform/gpusysfs/fps
26592016-10-18 12:53:26.064 DEBUG:  SurfaceFlinger : FPS : 60.83
26602016-10-18 12:53:26.064 WARN:   SurfaceFlinger : Fail to Open /sys/devices/platform/gpusysfs/fps
26612016-10-18 12:53:26.084 DEBUG:  SurfaceFlinger : FPS : 60.83
26622016-10-18 12:53:26.084 WARN:   SurfaceFlinger : Fail to Open /sys/devices/platform/gpusysfs/fps
26632016-10-18 12:53:26.104 DEBUG:  SurfaceFlinger : FPS : 60.83
26642016-10-18 12:53:26.104 WARN:   SurfaceFlinger : Fail to Open /sys/devices/platform/gpusysfs/fps
26652016-10-18 12:53:26.114 DEBUG:  SurfaceFlinger : FPS : 60.83
26662016-10-18 12:53:26.114 WARN:   SurfaceFlinger : Fail to Open /sys/devices/platform/gpusysfs/fps
26672016-10-18 12:53:26.124 DEBUG:  Subscription : Filters valid: true
26682016-10-18 12:53:26.134 DEBUG:  SurfaceFlinger : FPS : 60.65
26692016-10-18 12:53:26.134 WARN:   SurfaceFlinger : Fail to Open /sys/devices/platform/gpusysfs/fps
26702016-10-18 12:53:26.144 DEBUG:  Subscriptions : Writing 60948 filters
26712016-10-18 12:53:26.154 DEBUG:  SurfaceFlinger : FPS : 60.65
26722016-10-18 12:53:26.154 WARN:   SurfaceFlinger : Fail to Open /sys/devices/platform/gpusysfs/fps
26732016-10-18 12:53:26.174 DEBUG:  SurfaceFlinger : FPS : 60.65
26742016-10-18 12:53:26.174 WARN:   SurfaceFlinger : Fail to Open /sys/devices/platform/gpusysfs/fps
26752016-10-18 12:53:26.184 ERROR:  SMD : smd Interface open failed errno is 2 -1
26762016-10-18 12:53:26.184 DEBUG:  SurfaceFlinger : FPS : 60.65
26772016-10-18 12:53:26.184 WARN:   SurfaceFlinger : Fail to Open /sys/devices/platform/gpusysfs/fps
26782016-10-18 12:53:26.204 DEBUG:  SurfaceFlinger : FPS : 60.65
26792016-10-18 12:53:26.204 WARN:   SurfaceFlinger : Fail to Open /sys/devices/platform/gpusysfs/fps
26802016-10-18 12:53:26.224 DEBUG:  SurfaceFlinger : FPS : 60.65
26812016-10-18 12:53:26.224 WARN:   SurfaceFlinger : Fail to Open /sys/devices/platform/gpusysfs/fps
26822016-10-18 12:53:26.234 DEBUG:  SurfaceFlinger : FPS : 60.65
26832016-10-18 12:53:26.234 WARN:   SurfaceFlinger : Fail to Open /sys/devices/platform/gpusysfs/fps
26842016-10-18 12:53:26.254 DEBUG:  SurfaceFlinger : FPS : 60.65
26852016-10-18 12:53:26.254 WARN:   SurfaceFlinger : Fail to Open /sys/devices/platform/gpusysfs/fps
26862016-10-18 12:53:26.274 DEBUG:  SurfaceFlinger : FPS : 60.65
26872016-10-18 12:53:26.274 WARN:   SurfaceFlinger : Fail to Open /sys/devices/platform/gpusysfs/fps
26882016-10-18 12:53:26.284 DEBUG:  SurfaceFlinger : FPS : 60.65
26892016-10-18 12:53:26.284 WARN:   SurfaceFlinger : Fail to Open /sys/devices/platform/gpusysfs/fps
26902016-10-18 12:53:26.304 DEBUG:  SurfaceFlinger : FPS : 60.65
26912016-10-18 12:53:26.304 WARN:   SurfaceFlinger : Fail to Open /sys/devices/platform/gpusysfs/fps
26922016-10-18 12:53:26.314 DEBUG:  SurfaceFlinger : FPS : 60.65
26932016-10-18 12:53:26.314 WARN:   SurfaceFlinger : Fail to Open /sys/devices/platform/gpusysfs/fps
26942016-10-18 12:53:26.334 DEBUG:  SurfaceFlinger : FPS : 60.65
26952016-10-18 12:53:26.334 WARN:   SurfaceFlinger : Fail to Open /sys/devices/platform/gpusysfs/fps
26962016-10-18 12:53:26.354 DEBUG:  SurfaceFlinger : FPS : 60.65
26972016-10-18 12:53:26.354 WARN:   SurfaceFlinger : Fail to Open /sys/devices/platform/gpusysfs/fps
26982016-10-18 12:53:26.354 DEBUG:  Engine : Cleaning up cache...
26992016-10-18 12:53:26.364 DEBUG:  EventHandler : Handler thread started
27002016-10-18 12:53:26.364 DEBUG:  DownloaderHandler : Handler thread started
27012016-10-18 12:53:26.364 DEBUG:  SurfaceFlinger : FPS : 60.65
27022016-10-18 12:53:26.364 WARN:   SurfaceFlinger : Fail to Open /sys/devices/platform/gpusysfs/fps
27032016-10-18 12:53:26.384 DEBUG:  SurfaceFlinger : FPS : 59.36
27042016-10-18 12:53:26.384 WARN:   SurfaceFlinger : Fail to Open /sys/devices/platform/gpusysfs/fps
27052016-10-18 12:53:26.404 DEBUG:  SurfaceFlinger : FPS : 59.36
27062016-10-18 12:53:26.404 WARN:   SurfaceFlinger : Fail to Open /sys/devices/platform/gpusysfs/fps
27072016-10-18 12:53:26.414 DEBUG:  SurfaceFlinger : FPS : 59.36
27082016-10-18 12:53:26.414 WARN:   SurfaceFlinger : Fail to Open /sys/devices/platform/gpusysfs/fps
27092016-10-18 12:53:26.434 DEBUG:  SurfaceFlinger : FPS : 59.36
27102016-10-18 12:53:26.434 WARN:   SurfaceFlinger : Fail to Open /sys/devices/platform/gpusysfs/fps
27112016-10-18 12:53:26.454 DEBUG:  SurfaceFlinger : FPS : 59.36
27122016-10-18 12:53:26.454 WARN:   SurfaceFlinger : Fail to Open /sys/devices/platform/gpusysfs/fps
27132016-10-18 12:53:26.464 DEBUG:  SurfaceFlinger : FPS : 59.36
27142016-10-18 12:53:26.464 WARN:   SurfaceFlinger : Fail to Open /sys/devices/platform/gpusysfs/fps
27152016-10-18 12:53:26.484 DEBUG:  SurfaceFlinger : FPS : 59.36
27162016-10-18 12:53:26.484 WARN:   SurfaceFlinger : Fail to Open /sys/devices/platform/gpusysfs/fps
27172016-10-18 12:53:26.504 DEBUG:  SurfaceFlinger : FPS : 59.36
27182016-10-18 12:53:26.504 WARN:   SurfaceFlinger : Fail to Open /sys/devices/platform/gpusysfs/fps
27192016-10-18 12:53:26.514 INFO:   TOOLKIT SERVICE : Request body '{"id":"1476780797633","type":"GET_SCREEN_ORIENTATION"}'
27202016-10-18 12:53:26.514 INFO:   DEVICE MANAGER : {"id":"1476780797633","type":"GET_SCREEN_ORIENTATION"}
27212016-10-18 12:53:26.514 DEBUG:  SurfaceFlinger : FPS : 59.36
27222016-10-18 12:53:26.514 WARN:   SurfaceFlinger : Fail to Open /sys/devices/platform/gpusysfs/fps
27232016-10-18 12:53:26.514 INFO:   TOOLKIT SERVICE : Responding to client with: '{"id":"1476780797633","orientation":"PORTRAIT"}'
27242016-10-18 12:53:26.534 DEBUG:  SurfaceFlinger : FPS : 59.36
27252016-10-18 12:53:26.534 WARN:   SurfaceFlinger : Fail to Open /sys/devices/platform/gpusysfs/fps
27262016-10-18 12:53:26.554 DEBUG:  MainPreferences : onEngineCreated: true
27272016-10-18 12:53:26.574 DEBUG:  PointerIcon : setMouseIconStyle1 pointerType: 1001iconType:101 flag:0
27282016-10-18 12:53:26.574 DEBUG:  PointerIcon : setMouseCustomIcon IconType is same.101
27292016-10-18 12:53:26.574 DEBUG:  PointerIcon : setHoveringSpenIconStyle1 pointerType: 10001iconType:1 flag:0
27302016-10-18 12:53:26.574 DEBUG:  PointerIcon : setHoveringSpenCustomIcon IconType is same.1
27312016-10-18 12:53:26.604 DEBUG:  SurfaceFlinger : FPS : 59.36
27322016-10-18 12:53:26.604 WARN:   SurfaceFlinger : Fail to Open /sys/devices/platform/gpusysfs/fps
27332016-10-18 12:53:26.614 DEBUG:  PointerIcon : setMouseIconStyle1 pointerType: 1001iconType:101 flag:0
27342016-10-18 12:53:26.614 DEBUG:  PointerIcon : setMouseCustomIcon IconType is same.101
27352016-10-18 12:53:26.614 DEBUG:  PointerIcon : setHoveringSpenIconStyle1 pointerType: 10001iconType:1 flag:0
27362016-10-18 12:53:26.614 DEBUG:  PointerIcon : setHoveringSpenCustomIcon IconType is same.1
27372016-10-18 12:53:26.614 DEBUG:  SurfaceFlinger : FPS : 59.36
27382016-10-18 12:53:26.614 WARN:   SurfaceFlinger : Fail to Open /sys/devices/platform/gpusysfs/fps
27392016-10-18 12:53:26.634 DEBUG:  SurfaceFlinger : FPS : 59.36
27402016-10-18 12:53:26.634 WARN:   SurfaceFlinger : Fail to Open /sys/devices/platform/gpusysfs/fps
27412016-10-18 12:53:26.654 DEBUG:  SurfaceFlinger : FPS : 48.91
27422016-10-18 12:53:26.654 WARN:   SurfaceFlinger : Fail to Open /sys/devices/platform/gpusysfs/fps
27432016-10-18 12:53:26.674 DEBUG:  SurfaceFlinger : FPS : 48.91
27442016-10-18 12:53:26.674 WARN:   SurfaceFlinger : Fail to Open /sys/devices/platform/gpusysfs/fps
27452016-10-18 12:53:26.684 DEBUG:  SurfaceFlinger : FPS : 48.91
27462016-10-18 12:53:26.684 WARN:   SurfaceFlinger : Fail to Open /sys/devices/platform/gpusysfs/fps
27472016-10-18 12:53:26.694 ERROR:  ViewRootImpl : sendUserActionEvent() mView == null
27482016-10-18 12:53:26.704 DEBUG:  SurfaceFlinger : FPS : 48.91
27492016-10-18 12:53:26.704 WARN:   SurfaceFlinger : Fail to Open /sys/devices/platform/gpusysfs/fps
27502016-10-18 12:53:26.704 DEBUG:  InputMethodManagerService : windowGainedFocus mCurrentFocusedUserId - 0 and mSecureKeypadEnabled-false
27512016-10-18 12:53:26.704 WARN:   ContextImpl : Calling a method in the system process without a qualified user: android.app.ContextImpl.sendBroadcast:1699 com.android.server.InputMethodManagerService$6.run:2733 java.lang.Thread.run:818 <bottom of call stack> <bottom of call stack>
27522016-10-18 12:53:26.714 DEBUG:  SurfaceFlinger : FPS : 48.91
27532016-10-18 12:53:26.714 WARN:   SurfaceFlinger : Fail to Open /sys/devices/platform/gpusysfs/fps
27542016-10-18 12:53:26.734 DEBUG:  SurfaceFlinger : FPS : 48.91
27552016-10-18 12:53:26.734 WARN:   SurfaceFlinger : Fail to Open /sys/devices/platform/gpusysfs/fps
27562016-10-18 12:53:26.754 DEBUG:  SurfaceFlinger : FPS : 48.91
27572016-10-18 12:53:26.754 WARN:   SurfaceFlinger : Fail to Open /sys/devices/platform/gpusysfs/fps
27582016-10-18 12:53:26.764 DEBUG:  SurfaceFlinger : FPS : 48.91
27592016-10-18 12:53:26.764 WARN:   SurfaceFlinger : Fail to Open /sys/devices/platform/gpusysfs/fps
27602016-10-18 12:53:26.784 DEBUG:  SurfaceFlinger : FPS : 48.91
27612016-10-18 12:53:26.784 WARN:   SurfaceFlinger : Fail to Open /sys/devices/platform/gpusysfs/fps
27622016-10-18 12:53:27.005 INFO:   TOOLKIT SERVICE : Request body '{"id":"1476780798133","type":"GET_SCREEN_ORIENTATION"}'
27632016-10-18 12:53:27.005 INFO:   DEVICE MANAGER : {"id":"1476780798133","type":"GET_SCREEN_ORIENTATION"}
27642016-10-18 12:53:27.005 INFO:   TOOLKIT SERVICE : Responding to client with: '{"id":"1476780798133","orientation":"PORTRAIT"}'
27652016-10-18 12:53:27.185 ERROR:  SMD : smd Interface open failed errno is 2 -1
27662016-10-18 12:53:27.325 DEBUG:  SSRM:n : SIOP:: AP = 400, CUR = 1000
27672016-10-18 12:53:27.345 ERROR:  Diag_Lib : Diag_LSM_Init: Failed to open handle to diag driver, error = 2
27682016-10-18 12:53:27.515 INFO:   TOOLKIT SERVICE : Request body '{"id":"1476780798633","type":"GET_SCREEN_ORIENTATION"}'
27692016-10-18 12:53:27.515 INFO:   DEVICE MANAGER : {"id":"1476780798633","type":"GET_SCREEN_ORIENTATION"}
27702016-10-18 12:53:27.515 INFO:   TOOLKIT SERVICE : Responding to client with: '{"id":"1476780798633","orientation":"PORTRAIT"}'
27712016-10-18 12:53:27.875 DEBUG:  SurfaceFlinger : FPS : 7.39
27722016-10-18 12:53:27.875 WARN:   SurfaceFlinger : Fail to Open /sys/devices/platform/gpusysfs/fps
27732016-10-18 12:53:27.916 DEBUG:  SurfaceFlinger : FPS : 7.39
27742016-10-18 12:53:27.916 WARN:   SurfaceFlinger : Fail to Open /sys/devices/platform/gpusysfs/fps
27752016-10-18 12:53:27.946 DEBUG:  SurfaceFlinger : FPS : 7.39
27762016-10-18 12:53:27.946 WARN:   SurfaceFlinger : Fail to Open /sys/devices/platform/gpusysfs/fps
27772016-10-18 12:53:27.976 DEBUG:  SurfaceFlinger : FPS : 7.39
27782016-10-18 12:53:27.976 WARN:   SurfaceFlinger : Fail to Open /sys/devices/platform/gpusysfs/fps
27792016-10-18 12:53:28.006 DEBUG:  SurfaceFlinger : FPS : 7.39
27802016-10-18 12:53:28.006 WARN:   SurfaceFlinger : Fail to Open /sys/devices/platform/gpusysfs/fps
27812016-10-18 12:53:28.006 INFO:   TOOLKIT SERVICE : Request body '{"id":"1476780799133","type":"GET_SCREEN_ORIENTATION"}'
27822016-10-18 12:53:28.006 INFO:   DEVICE MANAGER : {"id":"1476780799133","type":"GET_SCREEN_ORIENTATION"}
27832016-10-18 12:53:28.006 INFO:   TOOLKIT SERVICE : Responding to client with: '{"id":"1476780799133","orientation":"PORTRAIT"}'
27842016-10-18 12:53:28.016 DEBUG:  SurfaceFlinger : FPS : 7.39
27852016-10-18 12:53:28.016 WARN:   SurfaceFlinger : Fail to Open /sys/devices/platform/gpusysfs/fps
27862016-10-18 12:53:28.036 DEBUG:  SurfaceFlinger : FPS : 7.39
27872016-10-18 12:53:28.036 WARN:   SurfaceFlinger : Fail to Open /sys/devices/platform/gpusysfs/fps
27882016-10-18 12:53:28.056 DEBUG:  SurfaceFlinger : FPS : 7.39
27892016-10-18 12:53:28.056 WARN:   SurfaceFlinger : Fail to Open /sys/devices/platform/gpusysfs/fps
27902016-10-18 12:53:28.066 DEBUG:  SurfaceFlinger : FPS : 7.39
27912016-10-18 12:53:28.066 WARN:   SurfaceFlinger : Fail to Open /sys/devices/platform/gpusysfs/fps
27922016-10-18 12:53:28.086 DEBUG:  SurfaceFlinger : FPS : 7.39
27932016-10-18 12:53:28.086 WARN:   SurfaceFlinger : Fail to Open /sys/devices/platform/gpusysfs/fps
27942016-10-18 12:53:28.096 DEBUG:  SurfaceFlinger : FPS : 7.39
27952016-10-18 12:53:28.096 WARN:   SurfaceFlinger : Fail to Open /sys/devices/platform/gpusysfs/fps
27962016-10-18 12:53:28.116 DEBUG:  SurfaceFlinger : FPS : 7.39
27972016-10-18 12:53:28.116 WARN:   SurfaceFlinger : Fail to Open /sys/devices/platform/gpusysfs/fps
27982016-10-18 12:53:28.126 DEBUG:  SurfaceFlinger : FPS : 46.57
27992016-10-18 12:53:28.126 WARN:   SurfaceFlinger : Fail to Open /sys/devices/platform/gpusysfs/fps
28002016-10-18 12:53:28.186 ERROR:  SMD : smd Interface open failed errno is 2 -1
28012016-10-18 12:53:28.516 INFO:   TOOLKIT SERVICE : Request body '{"id":"1476780799633","type":"GET_SCREEN_ORIENTATION"}'
28022016-10-18 12:53:28.516 INFO:   DEVICE MANAGER : {"id":"1476780799633","type":"GET_SCREEN_ORIENTATION"}
28032016-10-18 12:53:28.516 INFO:   TOOLKIT SERVICE : Responding to client with: '{"id":"1476780799633","orientation":"PORTRAIT"}'
28042016-10-18 12:53:28.896 DEBUG:  PowerManagerService : [input device light] setInputDeviceLightOn is called : 1
28052016-10-18 12:53:28.896 DEBUG:  PowerManagerService : [input device light] handleInputDeviceLightOn
28062016-10-18 12:53:28.906 DEBUG:  PowerManagerService : [input device light] setInputDeviceLightOn is called : 1
28072016-10-18 12:53:28.906 DEBUG:  PowerManagerService : [input device light] handleInputDeviceLightOn
28082016-10-18 12:53:28.916 WARN:   Finsky : [34973] com.google.android.finsky.FinskyApp.i(1465): No account configured on this device.
28092016-10-18 12:53:28.916 INFO:   Finsky : [34973] com.google.android.finsky.c.e.run(1151): Replicating app states via AMAS.
28102016-10-18 12:53:29.007 INFO:   TOOLKIT SERVICE : Request body '{"id":"1476780800133","type":"GET_SCREEN_ORIENTATION"}'
28112016-10-18 12:53:29.007 INFO:   DEVICE MANAGER : {"id":"1476780800133","type":"GET_SCREEN_ORIENTATION"}
28122016-10-18 12:53:29.017 INFO:   TOOLKIT SERVICE : Responding to client with: '{"id":"1476780800133","orientation":"PORTRAIT"}'
28132016-10-18 12:53:29.187 ERROR:  SMD : smd Interface open failed errno is 2 -1
28142016-10-18 12:53:29.207 INFO:   Finsky : [34973] com.google.android.finsky.c.c.a(311): Completed 0 account content syncs with 0 successful.
28152016-10-18 12:53:29.207 INFO:   Finsky : [1] com.google.android.finsky.services.j.a(149): Installation state replication succeeded.
28162016-10-18 12:53:29.257 DEBUG:  InputReader : Input event: value=1
28172016-10-18 12:53:29.257 INFO:   InputReader : Touch event's action is 0x0 (deviceType=0) [pCnt=1, s=0.1 ] when=502837331377000
28182016-10-18 12:53:29.257 INFO:   InputDispatcher : Delivering touch to (1271): action: 0x4, toolType: 1
28192016-10-18 12:53:29.257 INFO:   InputDispatcher : Delivering touch to (27175): action: 0x0, toolType: 1
28202016-10-18 12:53:29.257 DEBUG:  ViewRootImpl : ViewPostImeInputStage ACTION_DOWN
28212016-10-18 12:53:29.297 DEBUG:  SurfaceFlinger : FPS : 0.86
28222016-10-18 12:53:29.297 WARN:   SurfaceFlinger : Fail to Open /sys/devices/platform/gpusysfs/fps
28232016-10-18 12:53:29.347 DEBUG:  InputReader : Input event: value=0
28242016-10-18 12:53:29.347 INFO:   InputReader : Touch event's action is 0x1 (deviceType=0) [pCnt=1, s=] when=502837423662000
28252016-10-18 12:53:29.347 INFO:   InputDispatcher : Delivering touch to (27175): action: 0x1, toolType: 1
28262016-10-18 12:53:29.367 INFO:   AudioPolicyManager_legacy : getAudioPolicyConfig: situation=1;device=0
28272016-10-18 12:53:29.367 INFO:   AudioPolicyManager_legacy : getSituationVolume: isBTConnected:0 isHeadConnected:0
28282016-10-18 12:53:29.377 ERROR:  AudioTrack : AudioTrack::set : Exit
28292016-10-18 12:53:29.387 DEBUG:  PowerManagerService : [input device light] setInputDeviceLightOn is called : 1
28302016-10-18 12:53:29.397 DEBUG:  PowerManagerService : [input device light] handleInputDeviceLightOn
28312016-10-18 12:53:29.397 DEBUG:  ALSADevice : route: devices 0x2 in mode 0
28322016-10-18 12:53:29.397 DEBUG:  ALSADevice : No valid input device: 0
28332016-10-18 12:53:29.397 DEBUG:  alsa_ucm : snd_use_case_set(): uc_mgr 0xb3c18510 identifier _enadev value Speaker
28342016-10-18 12:53:29.397 DEBUG:  ALSADevice : switchDevice: mCurTxUCMDevivce Main Mic mCurRxDevDevice Speaker inCallDevSwitch = 0
28352016-10-18 12:53:29.397 DEBUG:  alsa_ucm : snd_use_case_set(): uc_mgr 0xb3c18510 identifier _verb value HiFi
28362016-10-18 12:53:29.397 DEBUG:  alsa_ucm : Set mixer controls for Speaker enable 1
28372016-10-18 12:53:29.397 DEBUG:  alsa_ucm : acdb_id 15 cap 1 enable 1
28382016-10-18 12:53:29.397 DEBUG:  ACDB-LOADER : ACDB -> send_audio_cal, acdb_id = 15, path =  0
28392016-10-18 12:53:29.397 DEBUG:  ACDB-LOADER : ACDB -> send_adm_topology
28402016-10-18 12:53:29.397 DEBUG:  ACDB-LOADER : ACDB -> ACDB_CMD_GET_AUDPROC_COMMON_TOPOLOGY_ID
28412016-10-18 12:53:29.397 DEBUG:  ACDB-LOADER : ACDB -> send_asm_topology
28422016-10-18 12:53:29.397 DEBUG:  ACDB-LOADER : ACDB -> ACDB_CMD_GET_AUDPROC_STREAM_TOPOLOGY_ID
28432016-10-18 12:53:29.397 DEBUG:  ACDB-LOADER : ACDB -> send_audtable
28442016-10-18 12:53:29.397 DEBUG:  ACDB-LOADER : ACDB -> ACDB_CMD_GET_AUDPROC_COMMON_TABLE
28452016-10-18 12:53:29.407 DEBUG:  ACDB-LOADER : ACDB -> AUDIO_SET_AUDPROC_CAL
28462016-10-18 12:53:29.407 DEBUG:  ACDB-LOADER : ACDB -> send_audvoltable
28472016-10-18 12:53:29.407 DEBUG:  ACDB-LOADER : ACDB -> ACDB_CMD_GET_AUDPROC_GAIN_DEP_VOLTBL_STEP_COPP
28482016-10-18 12:53:29.407 ERROR:  ACDB-LOADER : Error: ACDB AudProc vol returned = -8
28492016-10-18 12:53:29.407 DEBUG:  ACDB-LOADER : ACDB -> AUDIO_SET_AUDPROC_VOL_CAL
28502016-10-18 12:53:29.407 DEBUG:  ACDB-LOADER : ACDB -> send_afe_cal
28512016-10-18 12:53:29.407 DEBUG:  ACDB-LOADER : ACDB -> ACDB_CMD_GET_AFE_COMMON_TABLE
28522016-10-18 12:53:29.407 DEBUG:  ACDB-LOADER : ACDB -> AUDIO_SET_AFE_CAL
28532016-10-18 12:53:29.407 DEBUG:  ACDB-LOADER : ACDB -> send_hw_delay : acdb_id = 15 path = 0
28542016-10-18 12:53:29.407 DEBUG:  ACDB-LOADER : ACDB -> ACDB_CMD_GET_DEVICE_PROPERTY_SIZE
28552016-10-18 12:53:29.407 DEBUG:  ACDB-LOADER : ACDB -> ACDB_AVSYNC_INFO: ACDB_CMD_GET_DEVICE_PROPERTY
28562016-10-18 12:53:29.407 DEBUG:  ACDB-LOADER : send_hw_delay id = 15 delay_num_entries = 1 result = 0
28572016-10-18 12:53:29.417 DEBUG:  alsa_ucm : Setting mixer control: SLIM_0_RX Channels, value: Two
28582016-10-18 12:53:29.417 DEBUG:  alsa_ucm : Setting mixer control: RX5 MIX1 INP1, value: RX1
28592016-10-18 12:53:29.427 DEBUG:  alsa_ucm : Setting mixer control: RX5 MIX1 INP2, value: RX2
28602016-10-18 12:53:29.427 DEBUG:  alsa_ucm : Setting mixer control: RX6 DSM MUX, value: DSM_INV
28612016-10-18 12:53:29.427 DEBUG:  alsa_ucm : Setting multi value: LINEOUT2 Volume
28622016-10-18 12:53:29.427 DEBUG:  alsa_ucm : Setting multi value: LINEOUT4 Volume
28632016-10-18 12:53:29.427 DEBUG:  alsa_ucm : Setting multi value: RX5 Digital Volume
28642016-10-18 12:53:29.427 DEBUG:  alsa_ucm : Set mixer controls for HiFi enable 1
28652016-10-18 12:53:29.427 DEBUG:  alsa_ucm : Setting mixer control: SLIMBUS_0_RX Audio Mixer MultiMedia1, value: 1
28662016-10-18 12:53:29.427 DEBUG:  ALSADevice : close: handle 0xb3c57700 h 0x0
28672016-10-18 12:53:29.427 DEBUG:  ALSADevice : open: handle 0xb3c57700, format 0x2
28682016-10-18 12:53:29.427 DEBUG:  ALSADevice : Device value returned is hw:0,0
28692016-10-18 12:53:29.437 DEBUG:  ALSADevice : handle->format: 0x2
28702016-10-18 12:53:29.437 DEBUG:  ALSADevice : setHardwareParams: reqBuffSize 2048 channels 2 sampleRate 48000
28712016-10-18 12:53:29.437 DEBUG:  ALSADevice : setHardwareParams: buffer_size 16384, period_size 2048, period_cnt 8
28722016-10-18 12:53:29.457 DEBUG:  MainPreferences : Showing setup dialog
28732016-10-18 12:53:29.477 DEBUG:  PointerIcon : setMouseIconStyle1 pointerType: 1001iconType:101 flag:0
28742016-10-18 12:53:29.477 DEBUG:  PointerIcon : setMouseCustomIcon IconType is same.101
28752016-10-18 12:53:29.477 DEBUG:  PointerIcon : setHoveringSpenIconStyle1 pointerType: 10001iconType:1 flag:0
28762016-10-18 12:53:29.477 DEBUG:  PointerIcon : setHoveringSpenCustomIcon IconType is same.1
28772016-10-18 12:53:29.507 INFO:   TOOLKIT SERVICE : Request body '{"id":"1476780800633","type":"GET_SCREEN_ORIENTATION"}'
28782016-10-18 12:53:29.517 INFO:   DEVICE MANAGER : {"id":"1476780800633","type":"GET_SCREEN_ORIENTATION"}
28792016-10-18 12:53:29.517 INFO:   TOOLKIT SERVICE : Responding to client with: '{"id":"1476780800633","orientation":"PORTRAIT"}'
28802016-10-18 12:53:29.527 DEBUG:  SurfaceFlinger : FPS : 0.86
28812016-10-18 12:53:29.527 WARN:   SurfaceFlinger : Fail to Open /sys/devices/platform/gpusysfs/fps
28822016-10-18 12:53:29.547 WARN:   SurfaceFlinger : couldn't log to binary event log: overflow.
28832016-10-18 12:53:29.557 DEBUG:  SurfaceFlinger : FPS : 7.80
28842016-10-18 12:53:29.557 WARN:   SurfaceFlinger : Fail to Open /sys/devices/platform/gpusysfs/fps
28852016-10-18 12:53:29.577 DEBUG:  SurfaceFlinger : FPS : 7.80
28862016-10-18 12:53:29.577 WARN:   SurfaceFlinger : Fail to Open /sys/devices/platform/gpusysfs/fps
28872016-10-18 12:53:29.617 DEBUG:  SurfaceFlinger : FPS : 7.80
28882016-10-18 12:53:29.617 WARN:   SurfaceFlinger : Fail to Open /sys/devices/platform/gpusysfs/fps
28892016-10-18 12:53:29.627 DEBUG:  SurfaceFlinger : FPS : 7.80
28902016-10-18 12:53:29.627 WARN:   SurfaceFlinger : Fail to Open /sys/devices/platform/gpusysfs/fps
28912016-10-18 12:53:29.647 DEBUG:  SurfaceFlinger : FPS : 7.80
28922016-10-18 12:53:29.647 WARN:   SurfaceFlinger : Fail to Open /sys/devices/platform/gpusysfs/fps
28932016-10-18 12:53:29.667 DEBUG:  SurfaceFlinger : FPS : 7.80
28942016-10-18 12:53:29.667 WARN:   SurfaceFlinger : Fail to Open /sys/devices/platform/gpusysfs/fps
28952016-10-18 12:53:29.667 ERROR:  ViewRootImpl : sendUserActionEvent() mView == null
28962016-10-18 12:53:29.677 DEBUG:  SurfaceFlinger : FPS : 7.80
28972016-10-18 12:53:29.677 WARN:   SurfaceFlinger : Fail to Open /sys/devices/platform/gpusysfs/fps
28982016-10-18 12:53:29.697 DEBUG:  SurfaceFlinger : FPS : 7.80
28992016-10-18 12:53:29.697 WARN:   SurfaceFlinger : Fail to Open /sys/devices/platform/gpusysfs/fps
29002016-10-18 12:53:29.717 DEBUG:  SurfaceFlinger : FPS : 7.80
29012016-10-18 12:53:29.717 WARN:   SurfaceFlinger : Fail to Open /sys/devices/platform/gpusysfs/fps
29022016-10-18 12:53:30.018 INFO:   TOOLKIT SERVICE : Request body '{"id":"1476780801133","type":"GET_SCREEN_ORIENTATION"}'
29032016-10-18 12:53:30.018 INFO:   DEVICE MANAGER : {"id":"1476780801133","type":"GET_SCREEN_ORIENTATION"}
29042016-10-18 12:53:30.018 INFO:   TOOLKIT SERVICE : Responding to client with: '{"id":"1476780801133","orientation":"PORTRAIT"}'
29052016-10-18 12:53:30.188 ERROR:  SMD : smd Interface open failed errno is 2 -1
29062016-10-18 12:53:30.518 INFO:   TOOLKIT SERVICE : Request body '{"id":"1476780801633","type":"GET_SCREEN_ORIENTATION"}'
29072016-10-18 12:53:30.518 INFO:   DEVICE MANAGER : {"id":"1476780801633","type":"GET_SCREEN_ORIENTATION"}
29082016-10-18 12:53:30.518 INFO:   TOOLKIT SERVICE : Responding to client with: '{"id":"1476780801633","orientation":"PORTRAIT"}'
29092016-10-18 12:53:30.748 DEBUG:  SurfaceFlinger : FPS : 7.57
29102016-10-18 12:53:30.748 WARN:   SurfaceFlinger : Fail to Open /sys/devices/platform/gpusysfs/fps
29112016-10-18 12:53:30.788 DEBUG:  SurfaceFlinger : FPS : 7.57
29122016-10-18 12:53:30.788 WARN:   SurfaceFlinger : Fail to Open /sys/devices/platform/gpusysfs/fps
29132016-10-18 12:53:30.838 DEBUG:  SurfaceFlinger : FPS : 7.57
29142016-10-18 12:53:30.838 WARN:   SurfaceFlinger : Fail to Open /sys/devices/platform/gpusysfs/fps
29152016-10-18 12:53:30.848 DEBUG:  SurfaceFlinger : FPS : 7.57
29162016-10-18 12:53:30.848 WARN:   SurfaceFlinger : Fail to Open /sys/devices/platform/gpusysfs/fps
29172016-10-18 12:53:30.868 DEBUG:  SurfaceFlinger : FPS : 7.57
29182016-10-18 12:53:30.868 WARN:   SurfaceFlinger : Fail to Open /sys/devices/platform/gpusysfs/fps
29192016-10-18 12:53:30.878 DEBUG:  SurfaceFlinger : FPS : 7.57
29202016-10-18 12:53:30.878 WARN:   SurfaceFlinger : Fail to Open /sys/devices/platform/gpusysfs/fps
29212016-10-18 12:53:30.898 DEBUG:  SurfaceFlinger : FPS : 7.57
29222016-10-18 12:53:30.898 WARN:   SurfaceFlinger : Fail to Open /sys/devices/platform/gpusysfs/fps
29232016-10-18 12:53:30.908 DEBUG:  SurfaceFlinger : FPS : 7.57
29242016-10-18 12:53:30.908 WARN:   SurfaceFlinger : Fail to Open /sys/devices/platform/gpusysfs/fps
29252016-10-18 12:53:30.928 DEBUG:  SurfaceFlinger : FPS : 7.57
29262016-10-18 12:53:30.928 WARN:   SurfaceFlinger : Fail to Open /sys/devices/platform/gpusysfs/fps
29272016-10-18 12:53:30.948 DEBUG:  SurfaceFlinger : FPS : 7.57
29282016-10-18 12:53:30.948 WARN:   SurfaceFlinger : Fail to Open /sys/devices/platform/gpusysfs/fps
29292016-10-18 12:53:30.958 DEBUG:  SurfaceFlinger : FPS : 7.57
29302016-10-18 12:53:30.958 WARN:   SurfaceFlinger : Fail to Open /sys/devices/platform/gpusysfs/fps
29312016-10-18 12:53:30.979 DEBUG:  SurfaceFlinger : FPS : 7.57
29322016-10-18 12:53:30.979 WARN:   SurfaceFlinger : Fail to Open /sys/devices/platform/gpusysfs/fps
29332016-10-18 12:53:30.999 DEBUG:  SurfaceFlinger : FPS : 7.57
29342016-10-18 12:53:30.999 WARN:   SurfaceFlinger : Fail to Open /sys/devices/platform/gpusysfs/fps
29352016-10-18 12:53:31.009 DEBUG:  SurfaceFlinger : FPS : 48.91
29362016-10-18 12:53:31.009 INFO:   TOOLKIT SERVICE : Request body '{"id":"1476780802133","type":"GET_SCREEN_ORIENTATION"}'
29372016-10-18 12:53:31.009 INFO:   DEVICE MANAGER : {"id":"1476780802133","type":"GET_SCREEN_ORIENTATION"}
29382016-10-18 12:53:31.009 WARN:   SurfaceFlinger : Fail to Open /sys/devices/platform/gpusysfs/fps
29392016-10-18 12:53:31.009 INFO:   TOOLKIT SERVICE : Responding to client with: '{"id":"1476780802133","orientation":"PORTRAIT"}'
29402016-10-18 12:53:31.189 ERROR:  SMD : smd Interface open failed errno is 2 -1
29412016-10-18 12:53:31.509 INFO:   TOOLKIT SERVICE : Request body '{"id":"1476780802633","type":"GET_SCREEN_ORIENTATION"}'
29422016-10-18 12:53:31.509 INFO:   DEVICE MANAGER : {"id":"1476780802633","type":"GET_SCREEN_ORIENTATION"}
29432016-10-18 12:53:31.509 INFO:   TOOLKIT SERVICE : Responding to client with: '{"id":"1476780802633","orientation":"PORTRAIT"}'
29442016-10-18 12:53:32.010 INFO:   TOOLKIT SERVICE : Request body '{"id":"1476780803133","type":"GET_SCREEN_ORIENTATION"}'
29452016-10-18 12:53:32.010 INFO:   DEVICE MANAGER : {"id":"1476780803133","type":"GET_SCREEN_ORIENTATION"}
29462016-10-18 12:53:32.010 INFO:   TOOLKIT SERVICE : Responding to client with: '{"id":"1476780803133","orientation":"PORTRAIT"}'
29472016-10-18 12:53:32.190 ERROR:  SMD : smd Interface open failed errno is 2 -1
29482016-10-18 12:53:32.450 ERROR:  Diag_Lib : Diag_LSM_Init: Failed to open handle to diag driver, error = 2
29492016-10-18 12:53:32.500 DEBUG:  ALSADevice : standby: handle 0xb3c57700 h 0x0
29502016-10-18 12:53:32.510 INFO:   TOOLKIT SERVICE : Request body '{"id":"1476780803633","type":"GET_SCREEN_ORIENTATION"}'
29512016-10-18 12:53:32.510 INFO:   DEVICE MANAGER : {"id":"1476780803633","type":"GET_SCREEN_ORIENTATION"}
29522016-10-18 12:53:32.510 INFO:   TOOLKIT SERVICE : Responding to client with: '{"id":"1476780803633","orientation":"PORTRAIT"}'
29532016-10-18 12:53:32.600 DEBUG:  Engine : {}
29542016-10-18 12:53:32.600 DEBUG:  ConnectivityService : returning getActiveNetworkInfo :[type: WIFI[] - WIFI, state: CONNECTED/CONNECTED, reason: (unspecified), extra: "TestObject Devices", roaming: false, failover: false, isAvailable: true, isConnectedToProvisioningNetwork: false]
29552016-10-18 12:53:32.600 DEBUG:  DownloaderHandler : Downloading 'url:https://easylist-downloads.adblockplus.org/easylist.txt' using https://easylist-downloads.adblockplus.org/easylist.txt?addonName=adblockplussbrowser&addonVersion=1.0.4&application=sbrowser&applicationVersion=4.0.10-53&platform=android&platformVersion=21&lastVersion=201604281150&downloadCount=0
29562016-10-18 12:53:32.610 DEBUG:  Engine : {}
29572016-10-18 12:53:32.630 INFO:   System.out : (HTTPLog)-Static: isSBSettingEnabled false
29582016-10-18 12:53:32.630 INFO:   System.out : (HTTPLog)-Static: isShipBuild true
29592016-10-18 12:53:32.630 INFO:   System.out : (HTTPLog)-Thread-34974-728937434: SmartBonding Enabling is false, SHIP_BUILD is true, log to file is false, DBG is false
29602016-10-18 12:53:32.630 INFO:   System.out : (HTTPLog)-Static: isSBSettingEnabled false
29612016-10-18 12:53:32.640 DEBUG:  EnterpriseController : mIsMarkChainAdded is 0 mIsBlockChainAdded is 0 netId is 0
29622016-10-18 12:53:32.640 DEBUG:  Netd : getNetworkForDns: using netid 505 for uid 13655
29632016-10-18 12:53:32.680 DEBUG:  alsa_ucm : snd_use_case_set(): uc_mgr 0xb3c18510 identifier _verb value Inactive
29642016-10-18 12:53:32.680 DEBUG:  alsa_ucm : Set mixer controls for HiFi enable 0
29652016-10-18 12:53:32.680 DEBUG:  alsa_ucm : Setting mixer control: SLIMBUS_0_RX Audio Mixer MultiMedia1, value: 0
29662016-10-18 12:53:32.680 DEBUG:  alsa_ucm : snd_use_case_set(): uc_mgr 0xb3c18510 identifier _disdev value Main Mic
29672016-10-18 12:53:32.680 DEBUG:  alsa_ucm : disdev: device Main Mic not enabled, no need to disable
29682016-10-18 12:53:32.680 DEBUG:  alsa_ucm : snd_use_case_set(): uc_mgr 0xb3c18510 identifier _disdev value Speaker
29692016-10-18 12:53:32.680 DEBUG:  alsa_ucm : Set mixer controls for Speaker enable 0
29702016-10-18 12:53:32.690 DEBUG:  alsa_ucm : Setting mixer control: RX5 MIX1 INP1, value: ZERO
29712016-10-18 12:53:32.690 DEBUG:  alsa_ucm : Setting mixer control: RX5 MIX1 INP2, value: ZERO
29722016-10-18 12:53:32.690 DEBUG:  alsa_ucm : Setting mixer control: LINEOUT2 Volume, value: 0
29732016-10-18 12:53:32.690 DEBUG:  alsa_ucm : Setting mixer control: LINEOUT4 Volume, value: 0
29742016-10-18 12:53:32.690 DEBUG:  alsa_ucm : Setting mixer control: RX5 Digital Volume, value: 0
29752016-10-18 12:53:32.690 DEBUG:  PowerManagerService : [input device light] setInputDeviceLightOn is called : 1
29762016-10-18 12:53:32.690 DEBUG:  PowerManagerService : [input device light] handleInputDeviceLightOn
29772016-10-18 12:53:32.700 INFO:   System.out : KnoxVpnUidStorageknoxVpnSupported API value returned is false
29782016-10-18 12:53:32.720 DEBUG:  StatusBar.NetworkController : refreshViews connected={ wifi } level=0 combinedSignalIconId=0x7f020517/com.android.systemui:drawable/stat_sys_wifi_signal_4 mobileLabel= wifiLabel="TestObject Devices"xxxxXXXXxxxxXXXX emergencyOnly=false combinedLabel="TestObject Devices"xxxxXXXXxxxxXXXX mAirplaneMode=true mDataActivity=0 mPhoneSignalIconId=0x0/(null) mQSPhoneSignalIconId=0x0/(null) mDataDirectionIconId=0x0/(null) mDataSignalIconId=0x0/(null) mDataTypeIconId=0x0/(null) mQSDataTypeIconId=0x0/(null) mNoSimIconId=0x0/(null) mWifiIconId=0x7f020517/com.android.systemui:drawable/stat_sys_wifi_signal_4 mQSWifiIconId=0x7f020143/com.android.systemui:drawable/ic_qs_wifi_4 mWifiActivityIconId=0x7f0204e8/com.android.systemui:drawable/stat_sys_signal_inout mBluetoothTetherIconId=0x10808cc/android:drawable/stat_sys_tether_bluetooth
29792016-10-18 12:53:32.720 DEBUG:  STATUSBAR-WifiQuickSettingButton : onWifiSignalChanged enabled=true enabledDesc:"TestObject Devices"
29802016-10-18 12:53:32.720 DEBUG:  StatusBar.NetworkController : refreshSignalCluster - setNWBoosterIndicators(false)
29812016-10-18 12:53:32.730 DEBUG:  StatusBar.NetworkController : applyOpen
29822016-10-18 12:53:32.730 DEBUG:  StatusBar.NetworkController : refreshSignalCluster - setNWBoosterIndicators(false)
29832016-10-18 12:53:32.730 DEBUG:  StatusBar.NetworkController : applyOpen
29842016-10-18 12:53:32.730 DEBUG:  StatusBar.NetworkController : refreshSignalCluster - setNWBoosterIndicators(false)
29852016-10-18 12:53:32.730 DEBUG:  StatusBar.NetworkController : applyOpen
29862016-10-18 12:53:32.730 DEBUG:  StatusBar.NetworkController : refreshSignalCluster - setNWBoosterIndicators(false)
29872016-10-18 12:53:32.730 DEBUG:  StatusBar.NetworkController : applyOpen
29882016-10-18 12:53:32.770 DEBUG:  SurfaceFlinger : FPS : 0.57
29892016-10-18 12:53:32.770 WARN:   SurfaceFlinger : Fail to Open /sys/devices/platform/gpusysfs/fps
29902016-10-18 12:53:33.010 INFO:   TOOLKIT SERVICE : Request body '{"id":"1476780804133","type":"GET_SCREEN_ORIENTATION"}'
29912016-10-18 12:53:33.010 INFO:   DEVICE MANAGER : {"id":"1476780804133","type":"GET_SCREEN_ORIENTATION"}
29922016-10-18 12:53:33.010 INFO:   TOOLKIT SERVICE : Responding to client with: '{"id":"1476780804133","orientation":"PORTRAIT"}'
29932016-10-18 12:53:33.181 ERROR:  SMD : smd Interface open failed errno is 2 -1
29942016-10-18 12:53:33.501 INFO:   TOOLKIT SERVICE : Request body '{"id":"1476780804633","type":"GET_SCREEN_ORIENTATION"}'
29952016-10-18 12:53:33.501 INFO:   DEVICE MANAGER : {"id":"1476780804633","type":"GET_SCREEN_ORIENTATION"}
29962016-10-18 12:53:33.511 INFO:   TOOLKIT SERVICE : Responding to client with: '{"id":"1476780804633","orientation":"PORTRAIT"}'
29972016-10-18 12:53:33.761 INFO:   art : Background partial concurrent mark sweep GC freed 269598(15MB) AllocSpace objects, 81(7MB) LOS objects, 40% free, 22MB/37MB, paused 946us total 184.600ms
29982016-10-18 12:53:33.951 DEBUG:  InputReader : Input event: value=1
29992016-10-18 12:53:33.951 INFO:   InputReader : Touch event's action is 0x0 (deviceType=0) [pCnt=1, s=0.2 ] when=502842036608000
30002016-10-18 12:53:33.951 INFO:   InputDispatcher : Delivering touch to (1271): action: 0x4, toolType: 1
30012016-10-18 12:53:33.951 INFO:   InputDispatcher : Delivering touch to (27175): action: 0x0, toolType: 1
30022016-10-18 12:53:33.951 DEBUG:  ViewRootImpl : ViewPostImeInputStage ACTION_DOWN
30032016-10-18 12:53:33.991 DEBUG:  SurfaceFlinger : FPS : 0.82
30042016-10-18 12:53:33.991 WARN:   SurfaceFlinger : Fail to Open /sys/devices/platform/gpusysfs/fps
30052016-10-18 12:53:34.011 INFO:   TOOLKIT SERVICE : Request body '{"id":"1476780805133","type":"GET_SCREEN_ORIENTATION"}'
30062016-10-18 12:53:34.011 INFO:   DEVICE MANAGER : {"id":"1476780805133","type":"GET_SCREEN_ORIENTATION"}
30072016-10-18 12:53:34.011 INFO:   TOOLKIT SERVICE : Responding to client with: '{"id":"1476780805133","orientation":"PORTRAIT"}'
30082016-10-18 12:53:34.041 DEBUG:  InputReader : Input event: value=0
30092016-10-18 12:53:34.041 INFO:   InputReader : Touch event's action is 0x1 (deviceType=0) [pCnt=1, s=] when=502842122545000
30102016-10-18 12:53:34.041 INFO:   InputDispatcher : Delivering touch to (27175): action: 0x1, toolType: 1
30112016-10-18 12:53:34.041 INFO:   AudioPolicyManager_legacy : getAudioPolicyConfig: situation=1;device=0
30122016-10-18 12:53:34.041 INFO:   AudioPolicyManager_legacy : getSituationVolume: isBTConnected:0 isHeadConnected:0
30132016-10-18 12:53:34.041 ERROR:  PersonaManagerService : inState():  stateMachine is null !!
30142016-10-18 12:53:34.041 INFO:   PersonaManagerService : Failed to execute isKioskModeEnabled. java.lang.SecurityException: You need MANAGE_USERS permission to: query user
30152016-10-18 12:53:34.041 INFO:   ActivityManager : do not start freezing screen for locked container getKeyguardshowstate = false
30162016-10-18 12:53:34.052 INFO:   ActivityManager : START u0 {act=com.samsung.android.sbrowser.contentBlocker.ACTION_SETTING cmp=com.sec.android.app.sbrowser/.preferences.ContentBlockerActivity} from uid 13655 on display 0
30172016-10-18 12:53:34.052 WARN:   ActivityManager : mDVFSHelper.acquire()
30182016-10-18 12:53:34.052 DEBUG:  PowerManagerService : [input device light] setInputDeviceLightOn is called : 1
30192016-10-18 12:53:34.052 DEBUG:  PowerManagerService : [input device light] handleInputDeviceLightOn
30202016-10-18 12:53:34.052 ERROR:  AudioTrack : AudioTrack::set : Exit
30212016-10-18 12:53:34.072 DEBUG:  PowerManagerService : [input device light] setInputDeviceLightOn is called : 1
30222016-10-18 12:53:34.072 DEBUG:  PowerManagerService : [input device light] handleInputDeviceLightOn
30232016-10-18 12:53:34.072 DEBUG:  ALSADevice : route: devices 0x2 in mode 0
30242016-10-18 12:53:34.072 DEBUG:  ALSADevice : No valid input device: 0
30252016-10-18 12:53:34.072 DEBUG:  alsa_ucm : snd_use_case_set(): uc_mgr 0xb3c18510 identifier _enadev value Speaker
30262016-10-18 12:53:34.072 DEBUG:  ALSADevice : switchDevice: mCurTxUCMDevivce Main Mic mCurRxDevDevice Speaker inCallDevSwitch = 0
30272016-10-18 12:53:34.072 DEBUG:  alsa_ucm : snd_use_case_set(): uc_mgr 0xb3c18510 identifier _verb value HiFi
30282016-10-18 12:53:34.072 DEBUG:  alsa_ucm : Set mixer controls for Speaker enable 1
30292016-10-18 12:53:34.072 DEBUG:  alsa_ucm : acdb_id 15 cap 1 enable 1
30302016-10-18 12:53:34.072 DEBUG:  ACDB-LOADER : ACDB -> send_audio_cal, acdb_id = 15, path =  0
30312016-10-18 12:53:34.072 DEBUG:  ACDB-LOADER : ACDB -> send_adm_topology
30322016-10-18 12:53:34.072 DEBUG:  ACDB-LOADER : ACDB -> ACDB_CMD_GET_AUDPROC_COMMON_TOPOLOGY_ID
30332016-10-18 12:53:34.072 DEBUG:  ACDB-LOADER : ACDB -> send_asm_topology
30342016-10-18 12:53:34.072 DEBUG:  ACDB-LOADER : ACDB -> ACDB_CMD_GET_AUDPROC_STREAM_TOPOLOGY_ID
30352016-10-18 12:53:34.072 DEBUG:  ACDB-LOADER : ACDB -> send_audtable
30362016-10-18 12:53:34.072 DEBUG:  ACDB-LOADER : ACDB -> ACDB_CMD_GET_AUDPROC_COMMON_TABLE
30372016-10-18 12:53:34.072 DEBUG:  ACDB-LOADER : ACDB -> AUDIO_SET_AUDPROC_CAL
30382016-10-18 12:53:34.072 DEBUG:  ACDB-LOADER : ACDB -> send_audvoltable
30392016-10-18 12:53:34.072 DEBUG:  ACDB-LOADER : ACDB -> ACDB_CMD_GET_AUDPROC_GAIN_DEP_VOLTBL_STEP_COPP
30402016-10-18 12:53:34.072 ERROR:  ACDB-LOADER : Error: ACDB AudProc vol returned = -8
30412016-10-18 12:53:34.072 DEBUG:  ACDB-LOADER : ACDB -> AUDIO_SET_AUDPROC_VOL_CAL
30422016-10-18 12:53:34.072 DEBUG:  ACDB-LOADER : ACDB -> send_afe_cal
30432016-10-18 12:53:34.072 DEBUG:  ACDB-LOADER : ACDB -> ACDB_CMD_GET_AFE_COMMON_TABLE
30442016-10-18 12:53:34.072 DEBUG:  ACDB-LOADER : ACDB -> AUDIO_SET_AFE_CAL
30452016-10-18 12:53:34.072 DEBUG:  ACDB-LOADER : ACDB -> send_hw_delay : acdb_id = 15 path = 0
30462016-10-18 12:53:34.072 DEBUG:  ACDB-LOADER : ACDB -> ACDB_CMD_GET_DEVICE_PROPERTY_SIZE
30472016-10-18 12:53:34.072 DEBUG:  ACDB-LOADER : ACDB -> ACDB_AVSYNC_INFO: ACDB_CMD_GET_DEVICE_PROPERTY
30482016-10-18 12:53:34.072 DEBUG:  ACDB-LOADER : send_hw_delay id = 15 delay_num_entries = 1 result = 0
30492016-10-18 12:53:34.072 DEBUG:  alsa_ucm : Setting mixer control: SLIM_0_RX Channels, value: Two
30502016-10-18 12:53:34.072 DEBUG:  alsa_ucm : Setting mixer control: RX5 MIX1 INP1, value: RX1
30512016-10-18 12:53:34.072 DEBUG:  PointerIcon : setMouseIconStyle1 pointerType: 1001iconType:101 flag:0
30522016-10-18 12:53:34.072 DEBUG:  PointerIcon : setMouseCustomIcon IconType is same.101
30532016-10-18 12:53:34.072 DEBUG:  PointerIcon : setHoveringSpenIconStyle1 pointerType: 10001iconType:1 flag:0
30542016-10-18 12:53:34.072 DEBUG:  PointerIcon : setHoveringSpenCustomIcon IconType is same.1
30552016-10-18 12:53:34.082 DEBUG:  alsa_ucm : Setting mixer control: RX5 MIX1 INP2, value: RX2
30562016-10-18 12:53:34.082 DEBUG:  alsa_ucm : Setting mixer control: RX6 DSM MUX, value: DSM_INV
30572016-10-18 12:53:34.082 DEBUG:  alsa_ucm : Setting multi value: LINEOUT2 Volume
30582016-10-18 12:53:34.082 DEBUG:  alsa_ucm : Setting multi value: LINEOUT4 Volume
30592016-10-18 12:53:34.082 DEBUG:  alsa_ucm : Setting multi value: RX5 Digital Volume
30602016-10-18 12:53:34.082 DEBUG:  alsa_ucm : Set mixer controls for HiFi enable 1
30612016-10-18 12:53:34.082 DEBUG:  alsa_ucm : Setting mixer control: SLIMBUS_0_RX Audio Mixer MultiMedia1, value: 1
30622016-10-18 12:53:34.082 DEBUG:  ALSADevice : close: handle 0xb3c57700 h 0x0
30632016-10-18 12:53:34.082 DEBUG:  ALSADevice : open: handle 0xb3c57700, format 0x2
30642016-10-18 12:53:34.082 DEBUG:  ALSADevice : Device value returned is hw:0,0
30652016-10-18 12:53:34.082 DEBUG:  ALSADevice : handle->format: 0x2
30662016-10-18 12:53:34.082 DEBUG:  ALSADevice : setHardwareParams: reqBuffSize 2048 channels 2 sampleRate 48000
30672016-10-18 12:53:34.092 DEBUG:  ALSADevice : setHardwareParams: buffer_size 16384, period_size 2048, period_cnt 8
30682016-10-18 12:53:34.112 DEBUG:  SurfaceFlinger : FPS : 0.82
30692016-10-18 12:53:34.112 WARN:   SurfaceFlinger : Fail to Open /sys/devices/platform/gpusysfs/fps
30702016-10-18 12:53:34.112 DEBUG:  DownloaderHandler : Downloading 'url:https://easylist-downloads.adblockplus.org/easylist.txt' finished with response code 200
30712016-10-18 12:53:34.122 DEBUG:  EventHandler : Download finished for 'url:https://easylist-downloads.adblockplus.org/easylist.txt' with response code 200
30722016-10-18 12:53:34.122 DEBUG:  ConnectivityService : returning getActiveNetworkInfo :[type: WIFI[] - WIFI, state: CONNECTED/CONNECTED, reason: (unspecified), extra: "TestObject Devices", roaming: false, failover: false, isAvailable: true, isConnectedToProvisioningNetwork: false]
30732016-10-18 12:53:34.122 DEBUG:  DownloaderHandler : Downloading 'url:https://easylist-downloads.adblockplus.org/exceptionrules.txt' using https://easylist-downloads.adblockplus.org/exceptionrules.txt?addonName=adblockplussbrowser&addonVersion=1.0.4&application=sbrowser&applicationVersion=4.0.10-53&platform=android&platformVersion=21&lastVersion=201604281144&downloadCount=0
30742016-10-18 12:53:34.122 INFO:   System.out : (HTTPLog)-Static: isSBSettingEnabled false
30752016-10-18 12:53:34.122 INFO:   System.out : KnoxVpnUidStorageknoxVpnSupported API value returned is false
30762016-10-18 12:53:34.122 WARN:   SurfaceFlinger : couldn't log to binary event log: overflow.
30772016-10-18 12:53:34.132 DEBUG:  SurfaceFlinger : FPS : 0.82
30782016-10-18 12:53:34.132 WARN:   SurfaceFlinger : Fail to Open /sys/devices/platform/gpusysfs/fps
30792016-10-18 12:53:34.142 DEBUG:  SurfaceFlinger : FPS : 0.82
30802016-10-18 12:53:34.142 WARN:   SurfaceFlinger : Fail to Open /sys/devices/platform/gpusysfs/fps
30812016-10-18 12:53:34.152 DEBUG:  ConnectivityService : returning getNetworkInfo(networkType - 1) :[type: WIFI[] - WIFI, state: CONNECTED/CONNECTED, reason: (unspecified), extra: "TestObject Devices", roaming: false, failover: false, isAvailable: true, isConnectedToProvisioningNetwork: false]
30822016-10-18 12:53:34.162 DEBUG:  SurfaceFlinger : FPS : 0.82
30832016-10-18 12:53:34.172 WARN:   SurfaceFlinger : Fail to Open /sys/devices/platform/gpusysfs/fps
30842016-10-18 12:53:34.172 ERROR:  ViewRootImpl : sendUserActionEvent() mView == null
30852016-10-18 12:53:34.172 DEBUG:  SurfaceFlinger : FPS : 0.82
30862016-10-18 12:53:34.182 WARN:   SurfaceFlinger : Fail to Open /sys/devices/platform/gpusysfs/fps
30872016-10-18 12:53:34.182 ERROR:  SMD : smd Interface open failed errno is 2 -1
30882016-10-18 12:53:34.232 DEBUG:  ApplicationStatus : onStateChange activity = com.sec.android.app.sbrowser.preferences.ContentBlockerActivity@2e232d58 newState = 1
30892016-10-18 12:53:34.232 DEBUG:  ApplicationStatus : onStateChange put Activity Info
30902016-10-18 12:53:34.242 DEBUG:  SurfaceFlinger : FPS : 0.82
30912016-10-18 12:53:34.242 WARN:   SurfaceFlinger : Fail to Open /sys/devices/platform/gpusysfs/fps
30922016-10-18 12:53:34.262 DEBUG:  SurfaceFlinger : FPS : 26.10
30932016-10-18 12:53:34.262 WARN:   SurfaceFlinger : Fail to Open /sys/devices/platform/gpusysfs/fps
30942016-10-18 12:53:34.282 DEBUG:  SurfaceFlinger : FPS : 26.10
30952016-10-18 12:53:34.282 WARN:   SurfaceFlinger : Fail to Open /sys/devices/platform/gpusysfs/fps
30962016-10-18 12:53:34.292 DEBUG:  SSRM:a : DeviceInfo:: 000000000000
30972016-10-18 12:53:34.292 DEBUG:  SSRM:a : SettingsAirViewInfo:: 100000000
30982016-10-18 12:53:34.302 DEBUG:  AbsListView : Get MotionRecognitionManager
30992016-10-18 12:53:34.302 DEBUG:  MotionRecognitionService : ssp status : true
31002016-10-18 12:53:34.312 DEBUG:  SurfaceFlinger : FPS : 26.10
31012016-10-18 12:53:34.312 WARN:   SurfaceFlinger : Fail to Open /sys/devices/platform/gpusysfs/fps
31022016-10-18 12:53:34.322 DEBUG:  SurfaceFlinger : FPS : 26.10
31032016-10-18 12:53:34.322 WARN:   SurfaceFlinger : Fail to Open /sys/devices/platform/gpusysfs/fps
31042016-10-18 12:53:34.342 DEBUG:  AbsListView : Get MotionRecognitionManager
31052016-10-18 12:53:34.352 INFO:   ContentBlockerActivity : onCreate called.
31062016-10-18 12:53:34.352 WARN:   Settings : Setting airplane_mode_on has moved from android.provider.Settings.System to android.provider.Settings.Global, returning read-only value.
31072016-10-18 12:53:34.352 DEBUG:  ContentBlockResourceManager : isAirplaneMode() return;
31082016-10-18 12:53:34.352 DEBUG:  PowerManagerService : [input device light] setInputDeviceLightOn is called : 1
31092016-10-18 12:53:34.352 DEBUG:  PowerManagerService : [input device light] handleInputDeviceLightOn
31102016-10-18 12:53:34.352 DEBUG:  Activity : performCreate Call secproduct feature valuefalse
31112016-10-18 12:53:34.352 DEBUG:  Activity : performCreate Call debug elastic valuetrue
31122016-10-18 12:53:34.372 DEBUG:  PointerIcon : setMouseIconStyle1 pointerType: 1001iconType:101 flag:0
31132016-10-18 12:53:34.372 DEBUG:  PointerIcon : setMouseCustomIcon IconType is same.101
31142016-10-18 12:53:34.372 DEBUG:  PointerIcon : setHoveringSpenIconStyle1 pointerType: 10001iconType:1 flag:0
31152016-10-18 12:53:34.372 DEBUG:  PointerIcon : setHoveringSpenCustomIcon IconType is same.1
31162016-10-18 12:53:34.372 DEBUG:  ActivityManager : post active user change for 0
31172016-10-18 12:53:34.372 DEBUG:  KnoxTimeoutHandler : postActiveUserChange for user 0
31182016-10-18 12:53:34.372 DEBUG:  KnoxTimeoutHandler : handleActiveUserChange for user 0
31192016-10-18 12:53:34.382 DEBUG:  InputMethodManagerService : windowGainedFocus mCurrentFocusedUserId - 0 and mSecureKeypadEnabled-false
31202016-10-18 12:53:34.382 WARN:   InputMethodManagerService : Window already focused, ignoring focus gain of: com.android.internal.view.IInputMethodClient$Stub$Proxy@18dd65de attribute=null, token = android.os.BinderProxy@2c69a2da
31212016-10-18 12:53:34.392 INFO:   Timeline : Timeline: Activity_idle id: android.os.BinderProxy@f90523b time:502842473
31222016-10-18 12:53:34.392 DEBUG:  PowerManagerService : [input device light] setInputDeviceLightOn is called : 1
31232016-10-18 12:53:34.392 DEBUG:  PowerManagerService : [input device light] handleInputDeviceLightOn
31242016-10-18 12:53:34.412 DEBUG:  SurfaceFlinger : FPS : 26.10
31252016-10-18 12:53:34.412 WARN:   SurfaceFlinger : Fail to Open /sys/devices/platform/gpusysfs/fps
31262016-10-18 12:53:34.412 DEBUG:  ApplicationStatus : onStateChange activity = com.sec.android.app.sbrowser.preferences.ContentBlockerActivity@2e232d58 newState = 6
31272016-10-18 12:53:34.412 DEBUG:  ApplicationStatus : onStateChange remove Activity Info
31282016-10-18 12:53:34.512 INFO:   TOOLKIT SERVICE : Request body '{"id":"1476780805633","type":"GET_SCREEN_ORIENTATION"}'
31292016-10-18 12:53:34.512 INFO:   DEVICE MANAGER : {"id":"1476780805633","type":"GET_SCREEN_ORIENTATION"}
31302016-10-18 12:53:34.522 INFO:   TOOLKIT SERVICE : Responding to client with: '{"id":"1476780805633","orientation":"PORTRAIT"}'
31312016-10-18 12:53:34.702 DEBUG:  ConnectivityService : returning getNetworkInfo(networkType - 1) :[type: WIFI[] - WIFI, state: CONNECTED/CONNECTED, reason: (unspecified), extra: "TestObject Devices", roaming: false, failover: false, isAvailable: true, isConnectedToProvisioningNetwork: false]
31322016-10-18 12:53:34.782 DEBUG:  SSRM:a : DeviceInfo:: 000000000000
31332016-10-18 12:53:34.782 DEBUG:  SSRM:a : SettingsAirViewInfo:: 100000000
31342016-10-18 12:53:35.002 INFO:   TOOLKIT SERVICE : Request body '{"id":"1476780806133","type":"GET_SCREEN_ORIENTATION"}'
31352016-10-18 12:53:35.002 INFO:   DEVICE MANAGER : {"id":"1476780806133","type":"GET_SCREEN_ORIENTATION"}
31362016-10-18 12:53:35.002 INFO:   TOOLKIT SERVICE : Responding to client with: '{"id":"1476780806133","orientation":"PORTRAIT"}'
31372016-10-18 12:53:35.183 ERROR:  SMD : smd Interface open failed errno is 2 -1
31382016-10-18 12:53:35.273 DEBUG:  DownloaderHandler : Downloading 'url:https://easylist-downloads.adblockplus.org/exceptionrules.txt' finished with response code 200
31392016-10-18 12:53:35.503 INFO:   TOOLKIT SERVICE : Request body '{"id":"1476780806633","type":"GET_SCREEN_ORIENTATION"}'
31402016-10-18 12:53:35.503 INFO:   DEVICE MANAGER : {"id":"1476780806633","type":"GET_SCREEN_ORIENTATION"}
31412016-10-18 12:53:35.503 INFO:   TOOLKIT SERVICE : Responding to client with: '{"id":"1476780806633","orientation":"PORTRAIT"}'
31422016-10-18 12:53:36.003 INFO:   TOOLKIT SERVICE : Request body '{"id":"1476780807133","type":"GET_SCREEN_ORIENTATION"}'
31432016-10-18 12:53:36.003 INFO:   DEVICE MANAGER : {"id":"1476780807133","type":"GET_SCREEN_ORIENTATION"}
31442016-10-18 12:53:36.013 INFO:   TOOLKIT SERVICE : Responding to client with: '{"id":"1476780807133","orientation":"PORTRAIT"}'
31452016-10-18 12:53:36.134 DEBUG:  InputManager-JNI : !@interceptKeyBeforeQueueing(0), action=0
31462016-10-18 12:53:36.134 DEBUG:  InputManager-JNI : !@handleInterceptActions(0), action=0, wmActions=1
31472016-10-18 12:53:36.134 DEBUG:  InputManager-JNI : !@interceptKeyBeforeQueueing(0), action=1
31482016-10-18 12:53:36.134 DEBUG:  InputManager-JNI : !@handleInterceptActions(0), action=1, wmActions=1
31492016-10-18 12:53:36.134 DEBUG:  VoIPInterfaceManager : isVoIPRinging()...
31502016-10-18 12:53:36.134 DEBUG:  VoIPInterfaceManager : isVoIPRunningAndDeregi()...
31512016-10-18 12:53:36.134 DEBUG:  VoIPInterfaceManager : Not exist call session
31522016-10-18 12:53:36.134 DEBUG:  PersonaManager : isKioskContainerExistOnDevice
31532016-10-18 12:53:36.144 DEBUG:  VoIPInterfaceManager : isVoIPRinging()...
31542016-10-18 12:53:36.144 DEBUG:  VoIPInterfaceManager : isVoIPRunningAndDeregi()...
31552016-10-18 12:53:36.144 DEBUG:  VoIPInterfaceManager : Not exist call session
31562016-10-18 12:53:36.144 DEBUG:  PersonaManager : isKioskContainerExistOnDevice
31572016-10-18 12:53:36.184 ERROR:  SMD : smd Interface open failed errno is 2 -1
31582016-10-18 12:53:36.344 DEBUG:  SurfaceFlinger : FPS : 2.41
31592016-10-18 12:53:36.344 WARN:   SurfaceFlinger : Fail to Open /sys/devices/platform/gpusysfs/fps
31602016-10-18 12:53:36.444 INFO:   WindowManager : startDockOrHome
31612016-10-18 12:53:36.454 WARN:   ContextImpl : Calling a method in the system process without a qualified user: android.app.ContextImpl.sendBroadcast:1699 com.android.server.accessibility.AccessibilityManagerService$DirectAccessBrocastReceiver.onReceive:393 android.app.LoadedApk$ReceiverDispatcher$Args.run:923 android.os.Handler.handleCallback:739 android.os.Handler.dispatchMessage:95
31622016-10-18 12:53:36.454 DEBUG:  HotspotTile : onReceive : android.intent.action.CLOSE_SYSTEM_DIALOGS
31632016-10-18 12:53:36.454 DEBUG:  AirplaneModeTile : onReceive : android.intent.action.CLOSE_SYSTEM_DIALOGS
31642016-10-18 12:53:36.454 DEBUG:  PhoneStatusBar : animateCollapse(): mExpandedVisible=false flags=0
31652016-10-18 12:53:36.454 DEBUG:  StatusBar-Window : fnf=true sanc=false, kni=false, sbf=false
31662016-10-18 12:53:36.454 DEBUG:  CoverUI : applyFocusableFlag() : Remove SAMSUNG_FLAG_SVIEW_COVER
31672016-10-18 12:53:36.454 DEBUG:  PowerManagerService : [api] [s] userActivity : event: 0 flags: 0 (uid: 1000 pid: 906) eventTime = 502844533
31682016-10-18 12:53:36.454 ERROR:  PersonaManagerService : inState():  stateMachine is null !!
31692016-10-18 12:53:36.454 INFO:   PersonaManagerService : PersonaId don't exist
31702016-10-18 12:53:36.454 INFO:   ActivityManager : do not start freezing screen for locked container getKeyguardshowstate = false
31712016-10-18 12:53:36.464 INFO:   ActivityManager : START u0 {act=android.intent.action.MAIN cat=[android.intent.category.HOME] flg=0x10200000 cmp=com.sec.android.app.launcher/com.android.launcher2.Launcher} from uid 1000 on display 0
31722016-10-18 12:53:36.464 WARN:   ActivityManager : mDVFSHelper.acquire()
31732016-10-18 12:53:36.464 DEBUG:  FocusedStackFrame : Set to : 0
31742016-10-18 12:53:36.494 DEBUG:  PowerManagerService : [input device light] setInputDeviceLightOn is called : 1
31752016-10-18 12:53:36.494 DEBUG:  PowerManagerService : [input device light] handleInputDeviceLightOn
31762016-10-18 12:53:36.504 INFO:   TOOLKIT SERVICE : Request body '{"id":"1476780807633","type":"GET_SCREEN_ORIENTATION"}'
31772016-10-18 12:53:36.504 INFO:   DEVICE MANAGER : {"id":"1476780807633","type":"GET_SCREEN_ORIENTATION"}
31782016-10-18 12:53:36.504 INFO:   TOOLKIT SERVICE : Responding to client with: '{"id":"1476780807633","orientation":"PORTRAIT"}'
31792016-10-18 12:53:36.514 DEBUG:  PointerIcon : setMouseIconStyle1 pointerType: 1001iconType:101 flag:0
31802016-10-18 12:53:36.514 DEBUG:  PointerIcon : setMouseCustomIcon IconType is same.101
31812016-10-18 12:53:36.514 DEBUG:  PointerIcon : setHoveringSpenIconStyle1 pointerType: 10001iconType:1 flag:0
31822016-10-18 12:53:36.514 DEBUG:  PointerIcon : setHoveringSpenCustomIcon IconType is same.1
31832016-10-18 12:53:36.534 DEBUG:  Recents_AlternateRecentsComponent : isRecentsTopMost is getting called
31842016-10-18 12:53:36.534 DEBUG:  SurfaceWidgetView : destroyHardwareResources():578072690
31852016-10-18 12:53:36.534 DEBUG:  SurfaceWidgetView : destroyHardwareResources():482517113
31862016-10-18 12:53:36.534 DEBUG:  SurfaceWidgetView : destroyHardwareResources():93157740
31872016-10-18 12:53:36.544 DEBUG:  ConnectivityService : returning getNetworkInfo(networkType - 1) :[type: WIFI[] - WIFI, state: CONNECTED/CONNECTED, reason: (unspecified), extra: "TestObject Devices", roaming: false, failover: false, isAvailable: true, isConnectedToProvisioningNetwork: false]
31882016-10-18 12:53:36.554 DEBUG:  Launcher : onRestart, Launcher: 504639718
31892016-10-18 12:53:36.554 DEBUG:  Launcher : onStart, Launcher: 504639718
31902016-10-18 12:53:36.554 DEBUG:  Launcher.HomeView : onStart
31912016-10-18 12:53:36.554 DEBUG:  Launcher : onResume, Launcher: 504639718
31922016-10-18 12:53:36.554 DEBUG:  SettingsProvider : name = kids_home_mode
31932016-10-18 12:53:36.554 DEBUG:  SettingsProvider : edmUri: content://com.sec.knox.provider/RestrictionPolicy3
31942016-10-18 12:53:36.554 DEBUG:  SettingsProvider : projectionArgs: isSettingsChangesAllowed
31952016-10-18 12:53:36.554 DEBUG:  SettingsProvider : selectionArgs: false
31962016-10-18 12:53:36.554 DEBUG:  SettingsProvider : selectionArgs: 10028
31972016-10-18 12:53:36.554 DEBUG:  SecContentProvider : uri = 17 selection = isSettingsChangesAllowed
31982016-10-18 12:53:36.554 DEBUG:  SettingsProvider : ret = -1
31992016-10-18 12:53:36.554 DEBUG:  Launcher.HomeView : onResume
32002016-10-18 12:53:36.554 DEBUG:  SurfaceFlinger : FPS : 2.41
32012016-10-18 12:53:36.554 WARN:   SurfaceFlinger : Fail to Open /sys/devices/platform/gpusysfs/fps
32022016-10-18 12:53:36.554 DEBUG:  Launcher : Launcher::setSystemUiTransparency(): getSystemUiVisibility() after setting  = 40000000
32032016-10-18 12:53:36.564 DEBUG:  MenuAppsGridFragment : onResume
32042016-10-18 12:53:36.564 DEBUG:  SurfaceWidgetClient$ISurfaceWidgetStub : [237392/8] Surface widget visibility changed visibility = true on instance = 1
32052016-10-18 12:53:36.564 DEBUG:  SurfaceWidget.Renderer : [237392/8] SurfaceWidget drawing first frame
32062016-10-18 12:53:36.564 DEBUG:  SurfaceWidgetClient$ISurfaceWidgetStub : [237392/8] Surface widget visibility changed visibility = true on instance = 1
32072016-10-18 12:53:36.564 DEBUG:  SurfaceWidget.Renderer : [237392/8] SurfaceWidget drawing first frame
32082016-10-18 12:53:36.564 DEBUG:  SurfaceWidgetClient$ISurfaceWidgetStub : [237392/8] Surface widget visibility changed visibility = true on instance = 1
32092016-10-18 12:53:36.564 DEBUG:  SurfaceWidget.Renderer : [237392/8] SurfaceWidget drawing first frame
32102016-10-18 12:53:36.584 DEBUG:  GalleryCacheReady : Receive : home resume
32112016-10-18 12:53:36.584 DEBUG:  ActivityManager : handle home activity for 0
32122016-10-18 12:53:36.584 INFO:   WallpaperManagerService : switchPersonaWallpaper is called for personaId-0
32132016-10-18 12:53:36.594 DEBUG:  KnoxTimeoutHandler : post home show event for user 0
32142016-10-18 12:53:36.594 DEBUG:  ActivityManager : post active user change for 0
32152016-10-18 12:53:36.594 DEBUG:  KnoxTimeoutHandler : postActiveUserChange for user 0
32162016-10-18 12:53:36.594 DEBUG:  WallpaperManagerService : force update = false; persona id = 0; current user =0; current persona = 0
32172016-10-18 12:53:36.594 DEBUG:  KnoxTimeoutHandler : handleHomeShow for 0 and current 0
32182016-10-18 12:53:36.594 DEBUG:  KnoxTimeoutHandler : handleActiveUserChange for user 0
32192016-10-18 12:53:36.594 DEBUG:  StatusBarManagerService : manageDisableList userId=0 what=0x0 pkg=WindowManager.LayoutParams
32202016-10-18 12:53:36.594 DEBUG:  PointerIcon : setMouseIconStyle1 pointerType: 1001iconType:101 flag:0
32212016-10-18 12:53:36.594 DEBUG:  PointerIcon : setMouseCustomIcon IconType is same.101
32222016-10-18 12:53:36.594 DEBUG:  PointerIcon : setHoveringSpenIconStyle1 pointerType: 10001iconType:1 flag:0
32232016-10-18 12:53:36.594 DEBUG:  PointerIcon : setHoveringSpenCustomIcon IconType is same.1
32242016-10-18 12:53:36.604 DEBUG:  Mms/UIEventReceiver : ui event
32252016-10-18 12:53:36.604 DEBUG:  SurfaceFlinger : FPS : 7.62
32262016-10-18 12:53:36.604 WARN:   SurfaceFlinger : Fail to Open /sys/devices/platform/gpusysfs/fps
32272016-10-18 12:53:36.624 DEBUG:  SurfaceFlinger : FPS : 7.62
32282016-10-18 12:53:36.624 WARN:   SurfaceFlinger : Fail to Open /sys/devices/platform/gpusysfs/fps
32292016-10-18 12:53:36.654 WARN:   BroadcastQueue : Permission Denial: broadcasting Intent { act=com.sec.android.intent.action.HOME_RESUME flg=0x10 } from com.sec.android.app.launcher (pid=1556, uid=10028) is not exported from uid 10158 due to receiver com.sec.android.widgetapp.digitalclock2x1/.DigitalClockWidgetProvider
32302016-10-18 12:53:36.674 DEBUG:  SurfaceFlinger : FPS : 7.62
32312016-10-18 12:53:36.674 WARN:   SurfaceFlinger : Fail to Open /sys/devices/platform/gpusysfs/fps
32322016-10-18 12:53:36.684 DEBUG:  SurfaceFlinger : FPS : 7.62
32332016-10-18 12:53:36.684 WARN:   SurfaceFlinger : Fail to Open /sys/devices/platform/gpusysfs/fps
32342016-10-18 12:53:36.714 DEBUG:  BatteryService : !@BatteryListener : batteryPropertiesChanged!
32352016-10-18 12:53:36.714 DEBUG:  BatteryService : level:100, scale:100, status:5, health:2, present:true, voltage: 4303, temperature: 269, technology: Li-ion, AC powered:false, USB powered:true, Wireless powered:false, icon:17303687, invalid charger:0
32362016-10-18 12:53:36.714 DEBUG:  SurfaceFlinger : FPS : 7.62
32372016-10-18 12:53:36.714 WARN:   SurfaceFlinger : Fail to Open /sys/devices/platform/gpusysfs/fps
32382016-10-18 12:53:36.714 DEBUG:  BatteryService : online:6, current avg:1000, charge type:0, power sharing:false, high voltage charger:false, capacity:280000, current_now:1000
32392016-10-18 12:53:36.714 DEBUG:  BatteryService : Sending ACTION_BATTERY_CHANGED.
32402016-10-18 12:53:36.714 INFO:   MotionRecognitionService : Plugged
32412016-10-18 12:53:36.714 INFO:   MotionRecognitionService : setPowerConnected  = true
32422016-10-18 12:53:36.724 DEBUG:  SurfaceFlinger : FPS : 7.62
32432016-10-18 12:53:36.724 WARN:   SurfaceFlinger : Fail to Open /sys/devices/platform/gpusysfs/fps
32442016-10-18 12:53:36.724 DEBUG:  KeyguardUpdateMonitor : received broadcast android.intent.action.BATTERY_CHANGED
32452016-10-18 12:53:36.724 DEBUG:  KeyguardUpdateMonitor : handleBatteryUpdate
32462016-10-18 12:53:36.724 DEBUG:  STATUSBAR-PhoneStatusBar : mBrightnessEnablebySettings = true mBrightnessEnablebyBattery = true mBrightnessEnablebyDisableFlag = true mPmsBrightnessEnablebySettings = true
32472016-10-18 12:53:36.724 INFO:   BusinessExecutor : registered Task#16376 : PowerInfoEventSource$1
32482016-10-18 12:53:36.724 DEBUG:  BatteryMeterView : ACTION_BATTERY_CHANGED : level:100 status:5 health:2
32492016-10-18 12:53:36.724 INFO:   BusinessExecutor : Task#16376 : #run() called
32502016-10-18 12:53:36.724 INFO:   BusinessExecutor : Task#16376 : #run() ended
32512016-10-18 12:53:36.734 DEBUG:  SurfaceWidgetView : getHardwareLayer being called directly
32522016-10-18 12:53:36.734 DEBUG:  SurfaceWidgetView : getHardwareLayer being called directly
32532016-10-18 12:53:36.734 DEBUG:  SurfaceFlinger : FPS : 7.62
32542016-10-18 12:53:36.734 WARN:   SurfaceFlinger : Fail to Open /sys/devices/platform/gpusysfs/fps
32552016-10-18 12:53:36.734 DEBUG:  SurfaceWidgetView : getHardwareLayer being called directly
32562016-10-18 12:53:36.744 DEBUG:  Launcher : Launcher::setSystemUiTransparency(): getSystemUiVisibility() after setting  = 40000000
32572016-10-18 12:53:36.744 DEBUG:  BatteryMeterView : ACTION_BATTERY_CHANGED : level:100 status:5 health:2
32582016-10-18 12:53:36.744 DEBUG:  BatteryMeterView : ACTION_BATTERY_CHANGED : level:100 status:5 health:2
32592016-10-18 12:53:36.744 DEBUG:  InputMethodManagerService : windowGainedFocus mCurrentFocusedUserId - 0 and mSecureKeypadEnabled-false
32602016-10-18 12:53:36.744 WARN:   ContextImpl : Calling a method in the system process without a qualified user: android.app.ContextImpl.sendBroadcast:1699 com.android.server.InputMethodManagerService$6.run:2733 java.lang.Thread.run:818 <bottom of call stack> <bottom of call stack>
32612016-10-18 12:53:36.754 DEBUG:  StatusBar.NetworkController : refreshViews connected={ wifi } level=0 combinedSignalIconId=0x7f020517/com.android.systemui:drawable/stat_sys_wifi_signal_4 mobileLabel= wifiLabel="TestObject Devices"xxxxXXXXxxxxXXXX emergencyOnly=false combinedLabel="TestObject Devices"xxxxXXXXxxxxXXXX mAirplaneMode=true mDataActivity=0 mPhoneSignalIconId=0x0/(null) mQSPhoneSignalIconId=0x0/(null) mDataDirectionIconId=0x0/(null) mDataSignalIconId=0x0/(null) mDataTypeIconId=0x0/(null) mQSDataTypeIconId=0x0/(null) mNoSimIconId=0x0/(null) mWifiIconId=0x7f020517/com.android.systemui:drawable/stat_sys_wifi_signal_4 mQSWifiIconId=0x7f020143/com.android.systemui:drawable/ic_qs_wifi_4 mWifiActivityIconId=0x7f0204e6/com.android.systemui:drawable/stat_sys_signal_in mBluetoothTetherIconId=0x10808cc/android:drawable/stat_sys_tether_bluetooth
32622016-10-18 12:53:36.754 DEBUG:  STATUSBAR-WifiQuickSettingButton : onWifiSignalChanged enabled=true enabledDesc:"TestObject Devices"
32632016-10-18 12:53:36.754 DEBUG:  StatusBar.NetworkController : refreshSignalCluster - setNWBoosterIndicators(false)
32642016-10-18 12:53:36.754 DEBUG:  StatusBar.NetworkController : applyOpen
32652016-10-18 12:53:36.754 DEBUG:  SurfaceFlinger : FPS : 7.62
32662016-10-18 12:53:36.754 WARN:   SurfaceFlinger : Fail to Open /sys/devices/platform/gpusysfs/fps
32672016-10-18 12:53:36.754 DEBUG:  StatusBar.NetworkController : refreshSignalCluster - setNWBoosterIndicators(false)
32682016-10-18 12:53:36.764 DEBUG:  StatusBar.NetworkController : applyOpen
32692016-10-18 12:53:36.764 DEBUG:  StatusBar.NetworkController : refreshSignalCluster - setNWBoosterIndicators(false)
32702016-10-18 12:53:36.764 DEBUG:  StatusBar.NetworkController : applyOpen
32712016-10-18 12:53:36.764 DEBUG:  StatusBar.NetworkController : refreshSignalCluster - setNWBoosterIndicators(false)
32722016-10-18 12:53:36.764 DEBUG:  StatusBar.NetworkController : applyOpen
32732016-10-18 12:53:36.774 DEBUG:  SurfaceFlinger : FPS : 7.62
32742016-10-18 12:53:36.774 WARN:   SurfaceFlinger : Fail to Open /sys/devices/platform/gpusysfs/fps
32752016-10-18 12:53:36.784 DEBUG:  SurfaceFlinger : FPS : 7.62
32762016-10-18 12:53:36.784 WARN:   SurfaceFlinger : Fail to Open /sys/devices/platform/gpusysfs/fps
32772016-10-18 12:53:36.794 INFO:   Timeline : Timeline: Activity_idle id: android.os.BinderProxy@9a5ed05 time:502844879
32782016-10-18 12:53:36.794 DEBUG:  StatusBarManagerService : manageDisableList userId=0 what=0x0 pkg=WindowManager.LayoutParams
32792016-10-18 12:53:36.804 DEBUG:  SurfaceFlinger : FPS : 7.62
32802016-10-18 12:53:36.804 WARN:   SurfaceFlinger : Fail to Open /sys/devices/platform/gpusysfs/fps
32812016-10-18 12:53:36.804 DEBUG:  PowerManagerService : [input device light] setInputDeviceLightOn is called : 1
32822016-10-18 12:53:36.804 DEBUG:  PowerManagerService : [input device light] handleInputDeviceLightOn
32832016-10-18 12:53:36.824 DEBUG:  SurfaceFlinger : FPS : 7.62
32842016-10-18 12:53:36.824 WARN:   SurfaceFlinger : Fail to Open /sys/devices/platform/gpusysfs/fps
32852016-10-18 12:53:36.834 WARN:   ActivityManager : mDVFSHelper.release()
32862016-10-18 12:53:36.834 INFO:   Timeline : Timeline: Activity_windows_visible id: ActivityRecord{35a2621e u0 com.sec.android.app.launcher/com.android.launcher2.Launcher t11101} time:502844915
32872016-10-18 12:53:36.834 DEBUG:  SurfaceFlinger : FPS : 7.62
32882016-10-18 12:53:36.834 WARN:   SurfaceFlinger : Fail to Open /sys/devices/platform/gpusysfs/fps
32892016-10-18 12:53:36.854 WARN:   SurfaceFlinger : couldn't log to binary event log: overflow.
32902016-10-18 12:53:36.854 DEBUG:  SurfaceFlinger : FPS : 51.52
32912016-10-18 12:53:36.854 WARN:   SurfaceFlinger : Fail to Open /sys/devices/platform/gpusysfs/fps
32922016-10-18 12:53:36.874 DEBUG:  SurfaceFlinger : FPS : 51.52
32932016-10-18 12:53:36.874 WARN:   SurfaceFlinger : Fail to Open /sys/devices/platform/gpusysfs/fps
32942016-10-18 12:53:36.884 DEBUG:  SurfaceFlinger : FPS : 51.52
32952016-10-18 12:53:36.884 WARN:   SurfaceFlinger : Fail to Open /sys/devices/platform/gpusysfs/fps
32962016-10-18 12:53:36.904 DEBUG:  SurfaceFlinger : FPS : 51.52
32972016-10-18 12:53:36.904 WARN:   SurfaceFlinger : Fail to Open /sys/devices/platform/gpusysfs/fps
32982016-10-18 12:53:36.924 DEBUG:  SurfaceFlinger : FPS : 51.52
32992016-10-18 12:53:36.924 WARN:   SurfaceFlinger : Fail to Open /sys/devices/platform/gpusysfs/fps
33002016-10-18 12:53:36.934 DEBUG:  SurfaceFlinger : FPS : 51.52
33012016-10-18 12:53:36.934 WARN:   SurfaceFlinger : Fail to Open /sys/devices/platform/gpusysfs/fps
33022016-10-18 12:53:36.954 DEBUG:  SurfaceFlinger : FPS : 51.52
33032016-10-18 12:53:36.954 WARN:   SurfaceFlinger : Fail to Open /sys/devices/platform/gpusysfs/fps
33042016-10-18 12:53:36.974 DEBUG:  SurfaceFlinger : FPS : 51.52
33052016-10-18 12:53:36.974 WARN:   SurfaceFlinger : Fail to Open /sys/devices/platform/gpusysfs/fps
33062016-10-18 12:53:36.984 DEBUG:  SurfaceFlinger : FPS : 51.52
33072016-10-18 12:53:36.984 WARN:   SurfaceFlinger : Fail to Open /sys/devices/platform/gpusysfs/fps
33082016-10-18 12:53:37.004 DEBUG:  SurfaceFlinger : FPS : 51.52
33092016-10-18 12:53:37.004 WARN:   SurfaceFlinger : Fail to Open /sys/devices/platform/gpusysfs/fps
33102016-10-18 12:53:37.004 INFO:   TOOLKIT SERVICE : Request body '{"id":"1476780808133","type":"GET_SCREEN_ORIENTATION"}'
33112016-10-18 12:53:37.004 INFO:   DEVICE MANAGER : {"id":"1476780808133","type":"GET_SCREEN_ORIENTATION"}
33122016-10-18 12:53:37.014 INFO:   TOOLKIT SERVICE : Responding to client with: '{"id":"1476780808133","orientation":"PORTRAIT"}'
33132016-10-18 12:53:37.024 DEBUG:  SurfaceFlinger : FPS : 51.52
33142016-10-18 12:53:37.024 WARN:   SurfaceFlinger : Fail to Open /sys/devices/platform/gpusysfs/fps
33152016-01-18 11:53:37.175 DEBUG:  ALSADevice : standby: handle 0xb3c57700 h 0x0
33162016-10-18 12:53:37.185 ERROR:  SMD : smd Interface open failed errno is 2 -1
33172016-10-18 12:53:37.335 DEBUG:  alsa_ucm : snd_use_case_set(): uc_mgr 0xb3c18510 identifier _verb value Inactive
33182016-10-18 12:53:37.335 DEBUG:  alsa_ucm : Set mixer controls for HiFi enable 0
33192016-10-18 12:53:37.335 DEBUG:  alsa_ucm : Setting mixer control: SLIMBUS_0_RX Audio Mixer MultiMedia1, value: 0
33202016-10-18 12:53:37.345 DEBUG:  alsa_ucm : snd_use_case_set(): uc_mgr 0xb3c18510 identifier _disdev value Main Mic
33212016-10-18 12:53:37.345 DEBUG:  alsa_ucm : disdev: device Main Mic not enabled, no need to disable
33222016-10-18 12:53:37.345 DEBUG:  alsa_ucm : snd_use_case_set(): uc_mgr 0xb3c18510 identifier _disdev value Speaker
33232016-10-18 12:53:37.345 DEBUG:  alsa_ucm : Set mixer controls for Speaker enable 0
33242016-10-18 12:53:37.345 DEBUG:  alsa_ucm : Setting mixer control: RX5 MIX1 INP1, value: ZERO
33252016-10-18 12:53:37.345 DEBUG:  alsa_ucm : Setting mixer control: RX5 MIX1 INP2, value: ZERO
33262016-10-18 12:53:37.345 DEBUG:  alsa_ucm : Setting mixer control: LINEOUT2 Volume, value: 0
33272016-10-18 12:53:37.345 DEBUG:  alsa_ucm : Setting mixer control: LINEOUT4 Volume, value: 0
33282016-10-18 12:53:37.345 DEBUG:  alsa_ucm : Setting mixer control: RX5 Digital Volume, value: 0
33292016-10-18 12:53:37.345 DEBUG:  PowerManagerService : [input device light] setInputDeviceLightOn is called : 1
33302016-10-18 12:53:37.345 DEBUG:  PowerManagerService : [input device light] handleInputDeviceLightOn
33312016-10-18 12:53:37.365 DEBUG:  SSRM:n : SIOP:: AP = 380, CUR = 1000
33322016-10-18 12:53:37.375 ERROR:  Diag_Lib : Diag_LSM_Init: Failed to open handle to diag driver, error = 2
33332016-10-18 12:53:37.505 INFO:   TOOLKIT SERVICE : Request body '{"id":"1476780808633","type":"GET_SCREEN_ORIENTATION"}'
33342016-10-18 12:53:37.505 INFO:   DEVICE MANAGER : {"id":"1476780808633","type":"GET_SCREEN_ORIENTATION"}
33352016-10-18 12:53:37.515 INFO:   TOOLKIT SERVICE : Responding to client with: '{"id":"1476780808633","orientation":"PORTRAIT"}'
33362016-10-18 12:53:38.005 INFO:   TOOLKIT SERVICE : Request body '{"id":"1476780809133","type":"GET_SCREEN_ORIENTATION"}'
33372016-10-18 12:53:38.005 INFO:   DEVICE MANAGER : {"id":"1476780809133","type":"GET_SCREEN_ORIENTATION"}
33382016-10-18 12:53:38.015 INFO:   TOOLKIT SERVICE : Responding to client with: '{"id":"1476780809133","orientation":"PORTRAIT"}'
33392016-10-18 12:53:38.186 ERROR:  SMD : smd Interface open failed errno is 2 -1
33402016-10-18 12:53:38.416 DEBUG:  EventHandler : Download finished for 'url:https://easylist-downloads.adblockplus.org/exceptionrules.txt' with response code 200
33412016-10-18 12:53:38.506 INFO:   TOOLKIT SERVICE : Request body '{"id":"1476780809633","type":"GET_SCREEN_ORIENTATION"}'
33422016-10-18 12:53:38.506 INFO:   DEVICE MANAGER : {"id":"1476780809633","type":"GET_SCREEN_ORIENTATION"}
33432016-10-18 12:53:38.516 INFO:   TOOLKIT SERVICE : Responding to client with: '{"id":"1476780809633","orientation":"PORTRAIT"}'
33442016-10-18 12:53:38.566 DEBUG:  SurfaceFlinger : FPS : 6.42
33452016-10-18 12:53:38.566 WARN:   SurfaceFlinger : Fail to Open /sys/devices/platform/gpusysfs/fps
33462016-10-18 12:53:39.006 INFO:   TOOLKIT SERVICE : Request body '{"id":"1476780810133","type":"GET_SCREEN_ORIENTATION"}'
33472016-10-18 12:53:39.006 INFO:   DEVICE MANAGER : {"id":"1476780810133","type":"GET_SCREEN_ORIENTATION"}
33482016-10-18 12:53:39.006 INFO:   TOOLKIT SERVICE : Responding to client with: '{"id":"1476780810133","orientation":"PORTRAIT"}'
33492016-10-18 12:53:39.187 ERROR:  SMD : smd Interface open failed errno is 2 -1
33502016-10-18 12:53:39.507 INFO:   TOOLKIT SERVICE : Request body '{"id":"1476780810633","type":"GET_SCREEN_ORIENTATION"}'
33512016-10-18 12:53:39.507 INFO:   DEVICE MANAGER : {"id":"1476780810633","type":"GET_SCREEN_ORIENTATION"}
33522016-10-18 12:53:39.507 INFO:   TOOLKIT SERVICE : Responding to client with: '{"id":"1476780810633","orientation":"PORTRAIT"}'
33532016-10-18 12:53:39.737 DEBUG:  InputReader : Input event: value=1
33542016-10-18 12:53:39.737 INFO:   InputReader : Touch event's action is 0x0 (deviceType=0) [pCnt=1, s=0.3 ] when=502847812823000
33552016-10-18 12:53:39.737 INFO:   InputDispatcher : Delivering touch to (1271): action: 0x4, toolType: 1
33562016-10-18 12:53:39.737 INFO:   InputDispatcher : Delivering touch to (1556): action: 0x0, toolType: 1
33572016-10-18 12:53:39.737 INFO:   InputDispatcher : Delivering touch to (1449): action: 0x0, toolType: 1
33582016-10-18 12:53:39.737 DEBUG:  ViewRootImpl : ViewPostImeInputStage ACTION_DOWN
33592016-10-18 12:53:39.797 DEBUG:  SurfaceFlinger : FPS : 0.81
33602016-10-18 12:53:39.797 WARN:   SurfaceFlinger : Fail to Open /sys/devices/platform/gpusysfs/fps
33612016-10-18 12:53:39.827 DEBUG:  InputReader : Input event: value=0
33622016-10-18 12:53:39.827 INFO:   InputReader : Touch event's action is 0x1 (deviceType=0) [pCnt=1, s=] when=502847906328000
33632016-10-18 12:53:39.827 INFO:   InputDispatcher : Delivering touch to (1556): action: 0x1, toolType: 1
33642016-10-18 12:53:39.827 INFO:   InputDispatcher : Delivering touch to (1449): action: 0x1, toolType: 1
33652016-10-18 12:53:39.837 INFO:   AudioPolicyManager_legacy : getAudioPolicyConfig: situation=1;device=0
33662016-10-18 12:53:39.837 INFO:   AudioPolicyManager_legacy : getSituationVolume: isBTConnected:0 isHeadConnected:0
33672016-10-18 12:53:39.837 ERROR:  AudioTrack : AudioTrack::set : Exit
33682016-10-18 12:53:39.837 DEBUG:  PowerManagerService : [input device light] setInputDeviceLightOn is called : 1
33692016-10-18 12:53:39.837 DEBUG:  PowerManagerService : [input device light] handleInputDeviceLightOn
33702016-10-18 12:53:39.837 DEBUG:  ALSADevice : route: devices 0x2 in mode 0
33712016-10-18 12:53:39.847 DEBUG:  ALSADevice : No valid input device: 0
33722016-10-18 12:53:39.847 DEBUG:  alsa_ucm : snd_use_case_set(): uc_mgr 0xb3c18510 identifier _enadev value Speaker
33732016-10-18 12:53:39.847 DEBUG:  ALSADevice : switchDevice: mCurTxUCMDevivce Main Mic mCurRxDevDevice Speaker inCallDevSwitch = 0
33742016-10-18 12:53:39.847 DEBUG:  alsa_ucm : snd_use_case_set(): uc_mgr 0xb3c18510 identifier _verb value HiFi
33752016-10-18 12:53:39.847 DEBUG:  alsa_ucm : Set mixer controls for Speaker enable 1
33762016-10-18 12:53:39.847 DEBUG:  alsa_ucm : acdb_id 15 cap 1 enable 1
33772016-10-18 12:53:39.847 DEBUG:  ACDB-LOADER : ACDB -> send_audio_cal, acdb_id = 15, path =  0
33782016-10-18 12:53:39.847 DEBUG:  ACDB-LOADER : ACDB -> send_adm_topology
33792016-10-18 12:53:39.847 DEBUG:  ACDB-LOADER : ACDB -> ACDB_CMD_GET_AUDPROC_COMMON_TOPOLOGY_ID
33802016-10-18 12:53:39.847 DEBUG:  ACDB-LOADER : ACDB -> send_asm_topology
33812016-10-18 12:53:39.847 DEBUG:  ACDB-LOADER : ACDB -> ACDB_CMD_GET_AUDPROC_STREAM_TOPOLOGY_ID
33822016-10-18 12:53:39.847 DEBUG:  ACDB-LOADER : ACDB -> send_audtable
33832016-10-18 12:53:39.847 DEBUG:  ACDB-LOADER : ACDB -> ACDB_CMD_GET_AUDPROC_COMMON_TABLE
33842016-10-18 12:53:39.847 DEBUG:  ACDB-LOADER : ACDB -> AUDIO_SET_AUDPROC_CAL
33852016-10-18 12:53:39.847 DEBUG:  ACDB-LOADER : ACDB -> send_audvoltable
33862016-10-18 12:53:39.847 DEBUG:  ACDB-LOADER : ACDB -> ACDB_CMD_GET_AUDPROC_GAIN_DEP_VOLTBL_STEP_COPP
33872016-10-18 12:53:39.847 ERROR:  ACDB-LOADER : Error: ACDB AudProc vol returned = -8
33882016-10-18 12:53:39.847 DEBUG:  ACDB-LOADER : ACDB -> AUDIO_SET_AUDPROC_VOL_CAL
33892016-10-18 12:53:39.847 DEBUG:  ACDB-LOADER : ACDB -> send_afe_cal
33902016-10-18 12:53:39.847 DEBUG:  ACDB-LOADER : ACDB -> ACDB_CMD_GET_AFE_COMMON_TABLE
33912016-10-18 12:53:39.847 DEBUG:  ACDB-LOADER : ACDB -> AUDIO_SET_AFE_CAL
33922016-10-18 12:53:39.847 DEBUG:  ACDB-LOADER : ACDB -> send_hw_delay : acdb_id = 15 path = 0
33932016-10-18 12:53:39.847 DEBUG:  ACDB-LOADER : ACDB -> ACDB_CMD_GET_DEVICE_PROPERTY_SIZE
33942016-10-18 12:53:39.847 DEBUG:  ACDB-LOADER : ACDB -> ACDB_AVSYNC_INFO: ACDB_CMD_GET_DEVICE_PROPERTY
33952016-10-18 12:53:39.847 DEBUG:  ACDB-LOADER : send_hw_delay id = 15 delay_num_entries = 1 result = 0
33962016-10-18 12:53:39.847 DEBUG:  alsa_ucm : Setting mixer control: SLIM_0_RX Channels, value: Two
33972016-10-18 12:53:39.847 DEBUG:  alsa_ucm : Setting mixer control: RX5 MIX1 INP1, value: RX1
33982016-10-18 12:53:39.847 DEBUG:  SurfaceWidgetClient$ISurfaceWidgetStub : [237392/8] Surface widget visibility changed visibility = false on instance = 1
33992016-10-18 12:53:39.847 DEBUG:  SurfaceWidgetClient$ISurfaceWidgetStub : [237392/8] Surface widget visibility changed visibility = false on instance = 1
34002016-10-18 12:53:39.857 DEBUG:  SurfaceWidgetClient$ISurfaceWidgetStub : [237392/8] Surface widget visibility changed visibility = false on instance = 1
34012016-10-18 12:53:39.857 DEBUG:  alsa_ucm : Setting mixer control: RX5 MIX1 INP2, value: RX2
34022016-10-18 12:53:39.857 DEBUG:  alsa_ucm : Setting mixer control: RX6 DSM MUX, value: DSM_INV
34032016-10-18 12:53:39.857 DEBUG:  alsa_ucm : Setting multi value: LINEOUT2 Volume
34042016-10-18 12:53:39.857 DEBUG:  alsa_ucm : Setting multi value: LINEOUT4 Volume
34052016-10-18 12:53:39.857 DEBUG:  alsa_ucm : Setting multi value: RX5 Digital Volume
34062016-10-18 12:53:39.857 DEBUG:  alsa_ucm : Set mixer controls for HiFi enable 1
34072016-10-18 12:53:39.857 DEBUG:  alsa_ucm : Setting mixer control: SLIMBUS_0_RX Audio Mixer MultiMedia1, value: 1
34082016-10-18 12:53:39.857 DEBUG:  ALSADevice : close: handle 0xb3c57700 h 0x0
34092016-10-18 12:53:39.857 DEBUG:  ALSADevice : open: handle 0xb3c57700, format 0x2
34102016-10-18 12:53:39.857 DEBUG:  ALSADevice : Device value returned is hw:0,0
34112016-10-18 12:53:39.867 DEBUG:  ALSADevice : handle->format: 0x2
34122016-10-18 12:53:39.867 DEBUG:  ALSADevice : setHardwareParams: reqBuffSize 2048 channels 2 sampleRate 48000
34132016-10-18 12:53:39.867 DEBUG:  ALSADevice : setHardwareParams: buffer_size 16384, period_size 2048, period_cnt 8
34142016-10-18 12:53:39.917 DEBUG:  SurfaceFlinger : FPS : 0.81
34152016-10-18 12:53:39.917 WARN:   SurfaceFlinger : Fail to Open /sys/devices/platform/gpusysfs/fps
34162016-10-18 12:53:39.937 DEBUG:  SurfaceFlinger : FPS : 0.81
34172016-10-18 12:53:39.937 WARN:   SurfaceFlinger : Fail to Open /sys/devices/platform/gpusysfs/fps
34182016-10-18 12:53:40.007 INFO:   TOOLKIT SERVICE : Request body '{"id":"1476780811133","type":"GET_SCREEN_ORIENTATION"}'
34192016-10-18 12:53:40.007 INFO:   DEVICE MANAGER : {"id":"1476780811133","type":"GET_SCREEN_ORIENTATION"}
34202016-10-18 12:53:40.007 INFO:   TOOLKIT SERVICE : Responding to client with: '{"id":"1476780811133","orientation":"PORTRAIT"}'
34212016-10-18 12:53:40.187 ERROR:  SMD : smd Interface open failed errno is 2 -1
34222016-10-18 12:53:40.518 INFO:   TOOLKIT SERVICE : Request body '{"id":"1476780811633","type":"GET_SCREEN_ORIENTATION"}'
34232016-10-18 12:53:40.518 INFO:   DEVICE MANAGER : {"id":"1476780811633","type":"GET_SCREEN_ORIENTATION"}
34242016-10-18 12:53:40.518 INFO:   TOOLKIT SERVICE : Responding to client with: '{"id":"1476780811633","orientation":"PORTRAIT"}'
34252016-10-18 12:53:41.018 INFO:   TOOLKIT SERVICE : Request body '{"id":"1476780812133","type":"GET_SCREEN_ORIENTATION"}'
34262016-10-18 12:53:41.018 INFO:   DEVICE MANAGER : {"id":"1476780812133","type":"GET_SCREEN_ORIENTATION"}
34272016-10-18 12:53:41.018 INFO:   TOOLKIT SERVICE : Responding to client with: '{"id":"1476780812133","orientation":"PORTRAIT"}'
34282016-10-18 12:53:41.088 ERROR:  Watchdog : !@Sync 16760
34292016-10-18 12:53:41.188 ERROR:  SMD : smd Interface open failed errno is 2 -1
34302016-10-18 12:53:41.509 INFO:   TOOLKIT SERVICE : Request body '{"id":"1476780812633","type":"GET_SCREEN_ORIENTATION"}'
34312016-10-18 12:53:41.509 INFO:   DEVICE MANAGER : {"id":"1476780812633","type":"GET_SCREEN_ORIENTATION"}
34322016-10-18 12:53:41.509 INFO:   TOOLKIT SERVICE : Responding to client with: '{"id":"1476780812633","orientation":"PORTRAIT"}'
34332016-10-18 12:53:41.809 DEBUG:  SurfaceFlinger : FPS : 1.49
34342016-10-18 12:53:41.829 WARN:   SurfaceFlinger : Fail to Open /sys/devices/platform/gpusysfs/fps
34352016-10-18 12:53:42.009 INFO:   TOOLKIT SERVICE : Request body '{"id":"1476780813133","type":"GET_SCREEN_ORIENTATION"}'
34362016-10-18 12:53:42.009 INFO:   DEVICE MANAGER : {"id":"1476780813133","type":"GET_SCREEN_ORIENTATION"}
34372016-10-18 12:53:42.009 INFO:   TOOLKIT SERVICE : Responding to client with: '{"id":"1476780813133","orientation":"PORTRAIT"}'
34382016-10-18 12:53:42.179 ERROR:  SMD : smd Interface open failed errno is 2 -1
34392016-10-18 12:53:42.510 INFO:   TOOLKIT SERVICE : Request body '{"id":"1476780813633","type":"GET_SCREEN_ORIENTATION"}'
34402016-10-18 12:53:42.510 INFO:   DEVICE MANAGER : {"id":"1476780813633","type":"GET_SCREEN_ORIENTATION"}
34412016-10-18 12:53:42.510 INFO:   TOOLKIT SERVICE : Responding to client with: '{"id":"1476780813633","orientation":"PORTRAIT"}'
34422016-10-18 12:53:42.760 DEBUG:  EventHandler : Sending update broadcast
34432016-10-18 12:53:42.760 DEBUG:  Engine : Writing filters...
34442016-10-18 12:53:42.760 DEBUG:  Subscriptions : Writing filters to /data/data/org.adblockplus.adblockplussbrowser/cache/subscriptions/tmp-67783588.txt
34452016-10-18 12:53:42.760 DEBUG:  Subscriptions : Adding filters for 'url:https://easylist-downloads.adblockplus.org/easylist.txt'
34462016-10-18 12:53:42.900 ERROR:  Diag_Lib : Diag_LSM_Init: Failed to open handle to diag driver, error = 2
34472016-10-18 12:53:42.930 DEBUG:  ALSADevice : standby: handle 0xb3c57700 h 0x0
34482016-10-18 12:53:43.000 INFO:   TOOLKIT SERVICE : Request body '{"id":"1476780814133","type":"GET_SCREEN_ORIENTATION"}'
34492016-10-18 12:53:43.000 INFO:   DEVICE MANAGER : {"id":"1476780814133","type":"GET_SCREEN_ORIENTATION"}
34502016-10-18 12:53:43.000 INFO:   TOOLKIT SERVICE : Responding to client with: '{"id":"1476780814133","orientation":"PORTRAIT"}'
34512016-10-18 12:53:43.090 DEBUG:  alsa_ucm : snd_use_case_set(): uc_mgr 0xb3c18510 identifier _verb value Inactive
34522016-10-18 12:53:43.090 DEBUG:  alsa_ucm : Set mixer controls for HiFi enable 0
34532016-10-18 12:53:43.090 DEBUG:  alsa_ucm : Setting mixer control: SLIMBUS_0_RX Audio Mixer MultiMedia1, value: 0
34542016-10-18 12:53:43.090 DEBUG:  alsa_ucm : snd_use_case_set(): uc_mgr 0xb3c18510 identifier _disdev value Main Mic
34552016-10-18 12:53:43.090 DEBUG:  alsa_ucm : disdev: device Main Mic not enabled, no need to disable
34562016-10-18 12:53:43.090 DEBUG:  alsa_ucm : snd_use_case_set(): uc_mgr 0xb3c18510 identifier _disdev value Speaker
34572016-10-18 12:53:43.100 DEBUG:  alsa_ucm : Set mixer controls for Speaker enable 0
34582016-10-18 12:53:43.100 DEBUG:  alsa_ucm : Setting mixer control: RX5 MIX1 INP1, value: ZERO
34592016-10-18 12:53:43.100 DEBUG:  alsa_ucm : Setting mixer control: RX5 MIX1 INP2, value: ZERO
34602016-10-18 12:53:43.100 DEBUG:  alsa_ucm : Setting mixer control: LINEOUT2 Volume, value: 0
34612016-10-18 12:53:43.100 DEBUG:  alsa_ucm : Setting mixer control: LINEOUT4 Volume, value: 0
34622016-10-18 12:53:43.100 DEBUG:  alsa_ucm : Setting mixer control: RX5 Digital Volume, value: 0
34632016-10-18 12:53:43.100 DEBUG:  PowerManagerService : [input device light] setInputDeviceLightOn is called : 1
34642016-10-18 12:53:43.100 DEBUG:  PowerManagerService : [input device light] handleInputDeviceLightOn
34652016-10-18 12:53:43.180 ERROR:  SMD : smd Interface open failed errno is 2 -1
34662016-10-18 12:53:43.501 INFO:   TOOLKIT SERVICE : Request body '{"id":"1476780814633","type":"GET_SCREEN_ORIENTATION"}'
34672016-10-18 12:53:43.501 INFO:   DEVICE MANAGER : {"id":"1476780814633","type":"GET_SCREEN_ORIENTATION"}
34682016-10-18 12:53:43.501 INFO:   TOOLKIT SERVICE : Responding to client with: '{"id":"1476780814633","orientation":"PORTRAIT"}'
34692016-10-18 12:53:44.001 DEBUG:  InputReader : Input event: value=1
34702016-10-18 12:53:44.001 INFO:   InputReader : Touch event's action is 0x0 (deviceType=0) [pCnt=1, s=0.4 ] when=502852082751000
34712016-10-18 12:53:44.001 INFO:   InputDispatcher : Delivering touch to (1271): action: 0x4, toolType: 1
34722016-10-18 12:53:44.001 INFO:   InputDispatcher : Delivering touch to (1556): action: 0x0, toolType: 1
34732016-10-18 12:53:44.001 DEBUG:  ViewRootImpl : ViewPostImeInputStage ACTION_DOWN
34742016-10-18 12:53:44.001 INFO:   InputDispatcher : Delivering touch to (1449): action: 0x0, toolType: 1
34752016-10-18 12:53:44.001 INFO:   TOOLKIT SERVICE : Request body '{"id":"1476780815133","type":"GET_SCREEN_ORIENTATION"}'
34762016-10-18 12:53:44.011 INFO:   DEVICE MANAGER : {"id":"1476780815133","type":"GET_SCREEN_ORIENTATION"}
34772016-10-18 12:53:44.011 INFO:   TOOLKIT SERVICE : Responding to client with: '{"id":"1476780815133","orientation":"PORTRAIT"}'
34782016-10-18 12:53:44.111 DEBUG:  InputReader : Input event: value=0
34792016-10-18 12:53:44.111 INFO:   InputReader : Touch event's action is 0x1 (deviceType=0) [pCnt=1, s=] when=502852194964000
34802016-10-18 12:53:44.111 INFO:   InputDispatcher : Delivering touch to (1556): action: 0x1, toolType: 1
34812016-10-18 12:53:44.111 INFO:   InputDispatcher : Delivering touch to (1449): action: 0x1, toolType: 1
34822016-10-18 12:53:44.181 ERROR:  SMD : smd Interface open failed errno is 2 -1
34832016-10-18 12:53:44.211 DEBUG:  SurfaceFlinger : FPS : 0.42
34842016-10-18 12:53:44.211 WARN:   SurfaceFlinger : Fail to Open /sys/devices/platform/gpusysfs/fps
34852016-10-18 12:53:44.251 DEBUG:  SurfaceFlinger : FPS : 0.42
34862016-10-18 12:53:44.251 WARN:   SurfaceFlinger : Fail to Open /sys/devices/platform/gpusysfs/fps
34872016-10-18 12:53:44.271 DEBUG:  SurfaceFlinger : FPS : 0.42
34882016-10-18 12:53:44.271 WARN:   SurfaceFlinger : Fail to Open /sys/devices/platform/gpusysfs/fps
34892016-10-18 12:53:44.281 DEBUG:  SurfaceFlinger : FPS : 0.42
34902016-10-18 12:53:44.281 WARN:   SurfaceFlinger : Fail to Open /sys/devices/platform/gpusysfs/fps
34912016-10-18 12:53:44.302 DEBUG:  SurfaceFlinger : FPS : 0.42
34922016-10-18 12:53:44.302 WARN:   SurfaceFlinger : Fail to Open /sys/devices/platform/gpusysfs/fps
34932016-10-18 12:53:44.312 DEBUG:  SurfaceFlinger : FPS : 0.42
34942016-10-18 12:53:44.312 WARN:   SurfaceFlinger : Fail to Open /sys/devices/platform/gpusysfs/fps
34952016-10-18 12:53:44.332 DEBUG:  SurfaceFlinger : FPS : 0.42
34962016-10-18 12:53:44.332 WARN:   SurfaceFlinger : Fail to Open /sys/devices/platform/gpusysfs/fps
34972016-10-18 12:53:44.352 DEBUG:  SurfaceFlinger : FPS : 0.42
34982016-10-18 12:53:44.352 WARN:   SurfaceFlinger : Fail to Open /sys/devices/platform/gpusysfs/fps
34992016-10-18 12:53:44.362 DEBUG:  SurfaceFlinger : FPS : 0.42
35002016-10-18 12:53:44.362 WARN:   SurfaceFlinger : Fail to Open /sys/devices/platform/gpusysfs/fps
35012016-10-18 12:53:44.382 DEBUG:  SurfaceFlinger : FPS : 0.42
35022016-10-18 12:53:44.382 WARN:   SurfaceFlinger : Fail to Open /sys/devices/platform/gpusysfs/fps
35032016-10-18 12:53:44.402 DEBUG:  SurfaceFlinger : FPS : 0.42
35042016-10-18 12:53:44.402 WARN:   SurfaceFlinger : Fail to Open /sys/devices/platform/gpusysfs/fps
35052016-10-18 12:53:44.412 DEBUG:  SurfaceFlinger : FPS : 0.42
35062016-10-18 12:53:44.412 WARN:   SurfaceFlinger : Fail to Open /sys/devices/platform/gpusysfs/fps
35072016-10-18 12:53:44.432 DEBUG:  SurfaceFlinger : FPS : 0.42
35082016-10-18 12:53:44.432 WARN:   SurfaceFlinger : Fail to Open /sys/devices/platform/gpusysfs/fps
35092016-10-18 12:53:44.452 DEBUG:  SurfaceFlinger : FPS : 0.42
35102016-10-18 12:53:44.452 WARN:   SurfaceFlinger : Fail to Open /sys/devices/platform/gpusysfs/fps
35112016-10-18 12:53:44.462 DEBUG:  SurfaceFlinger : FPS : 0.42
35122016-10-18 12:53:44.462 WARN:   SurfaceFlinger : Fail to Open /sys/devices/platform/gpusysfs/fps
35132016-10-18 12:53:44.482 DEBUG:  SurfaceFlinger : FPS : 56.26
35142016-10-18 12:53:44.482 WARN:   SurfaceFlinger : Fail to Open /sys/devices/platform/gpusysfs/fps
35152016-10-18 12:53:44.502 DEBUG:  SurfaceFlinger : FPS : 56.26
35162016-10-18 12:53:44.502 WARN:   SurfaceFlinger : Fail to Open /sys/devices/platform/gpusysfs/fps
35172016-10-18 12:53:44.502 INFO:   TOOLKIT SERVICE : Request body '{"id":"1476780815633","type":"GET_SCREEN_ORIENTATION"}'
35182016-10-18 12:53:44.502 INFO:   DEVICE MANAGER : {"id":"1476780815633","type":"GET_SCREEN_ORIENTATION"}
35192016-10-18 12:53:44.512 INFO:   TOOLKIT SERVICE : Responding to client with: '{"id":"1476780815633","orientation":"PORTRAIT"}'
35202016-10-18 12:53:44.512 DEBUG:  SurfaceFlinger : FPS : 56.26
35212016-10-18 12:53:44.512 WARN:   SurfaceFlinger : Fail to Open /sys/devices/platform/gpusysfs/fps
35222016-10-18 12:53:44.532 DEBUG:  SurfaceFlinger : FPS : 56.26
35232016-10-18 12:53:44.532 WARN:   SurfaceFlinger : Fail to Open /sys/devices/platform/gpusysfs/fps
35242016-10-18 12:53:44.542 DEBUG:  SurfaceFlinger : FPS : 56.26
35252016-10-18 12:53:44.542 WARN:   SurfaceFlinger : Fail to Open /sys/devices/platform/gpusysfs/fps
35262016-10-18 12:53:44.562 DEBUG:  SurfaceFlinger : FPS : 56.26
35272016-10-18 12:53:44.562 WARN:   SurfaceFlinger : Fail to Open /sys/devices/platform/gpusysfs/fps
35282016-10-18 12:53:44.582 DEBUG:  SurfaceFlinger : FPS : 56.26
35292016-10-18 12:53:44.582 WARN:   SurfaceFlinger : Fail to Open /sys/devices/platform/gpusysfs/fps
35302016-10-18 12:53:44.602 DEBUG:  SurfaceFlinger : FPS : 56.26
35312016-10-18 12:53:44.602 WARN:   SurfaceFlinger : Fail to Open /sys/devices/platform/gpusysfs/fps
35322016-10-18 12:53:44.612 DEBUG:  SurfaceFlinger : FPS : 56.26
35332016-10-18 12:53:44.612 WARN:   SurfaceFlinger : Fail to Open /sys/devices/platform/gpusysfs/fps
35342016-10-18 12:53:44.632 DEBUG:  SurfaceFlinger : FPS : 56.26
35352016-10-18 12:53:44.632 WARN:   SurfaceFlinger : Fail to Open /sys/devices/platform/gpusysfs/fps
35362016-10-18 12:53:44.642 DEBUG:  SurfaceFlinger : FPS : 56.26
35372016-10-18 12:53:44.652 WARN:   SurfaceFlinger : Fail to Open /sys/devices/platform/gpusysfs/fps
35382016-10-18 12:53:44.662 DEBUG:  SurfaceFlinger : FPS : 56.26
35392016-10-18 12:53:44.662 WARN:   SurfaceFlinger : Fail to Open /sys/devices/platform/gpusysfs/fps
35402016-10-18 12:53:44.682 DEBUG:  SurfaceFlinger : FPS : 56.26
35412016-10-18 12:53:44.682 WARN:   SurfaceFlinger : Fail to Open /sys/devices/platform/gpusysfs/fps
35422016-10-18 12:53:44.702 DEBUG:  SurfaceFlinger : FPS : 56.26
35432016-10-18 12:53:44.702 WARN:   SurfaceFlinger : Fail to Open /sys/devices/platform/gpusysfs/fps
35442016-10-18 12:53:44.722 DEBUG:  SurfaceFlinger : FPS : 56.26
35452016-10-18 12:53:44.722 WARN:   SurfaceFlinger : Fail to Open /sys/devices/platform/gpusysfs/fps
35462016-10-18 12:53:44.732 DEBUG:  SurfaceFlinger : FPS : 56.26
35472016-10-18 12:53:44.732 WARN:   SurfaceFlinger : Fail to Open /sys/devices/platform/gpusysfs/fps
35482016-10-18 12:53:44.752 DEBUG:  SurfaceFlinger : FPS : 60.13
35492016-10-18 12:53:44.752 WARN:   SurfaceFlinger : Fail to Open /sys/devices/platform/gpusysfs/fps
35502016-10-18 12:53:44.762 DEBUG:  SurfaceFlinger : FPS : 60.13
35512016-10-18 12:53:44.762 WARN:   SurfaceFlinger : Fail to Open /sys/devices/platform/gpusysfs/fps
35522016-10-18 12:53:44.782 DEBUG:  SurfaceFlinger : FPS : 60.13
35532016-10-18 12:53:44.782 WARN:   SurfaceFlinger : Fail to Open /sys/devices/platform/gpusysfs/fps
35542016-10-18 12:53:44.782 DEBUG:  StatusBar.NetworkController : refreshViews connected={ wifi } level=0 combinedSignalIconId=0x7f020517/com.android.systemui:drawable/stat_sys_wifi_signal_4 mobileLabel= wifiLabel="TestObject Devices"xxxxXXXXxxxxXXXX emergencyOnly=false combinedLabel="TestObject Devices"xxxxXXXXxxxxXXXX mAirplaneMode=true mDataActivity=0 mPhoneSignalIconId=0x0/(null) mQSPhoneSignalIconId=0x0/(null) mDataDirectionIconId=0x0/(null) mDataSignalIconId=0x0/(null) mDataTypeIconId=0x0/(null) mQSDataTypeIconId=0x0/(null) mNoSimIconId=0x0/(null) mWifiIconId=0x7f020517/com.android.systemui:drawable/stat_sys_wifi_signal_4 mQSWifiIconId=0x7f020143/com.android.systemui:drawable/ic_qs_wifi_4 mWifiActivityIconId=0x7f0204ea/com.android.systemui:drawable/stat_sys_signal_no_inout mBluetoothTetherIconId=0x10808cc/android:drawable/stat_sys_tether_bluetooth
35552016-10-18 12:53:44.782 DEBUG:  STATUSBAR-WifiQuickSettingButton : onWifiSignalChanged enabled=true enabledDesc:"TestObject Devices"
35562016-10-18 12:53:44.782 DEBUG:  StatusBar.NetworkController : refreshSignalCluster - setNWBoosterIndicators(false)
35572016-10-18 12:53:44.782 DEBUG:  StatusBar.NetworkController : applyOpen
35582016-10-18 12:53:44.792 DEBUG:  StatusBar.NetworkController : refreshSignalCluster - setNWBoosterIndicators(false)
35592016-10-18 12:53:44.792 DEBUG:  StatusBar.NetworkController : applyOpen
35602016-10-18 12:53:44.792 DEBUG:  StatusBar.NetworkController : refreshSignalCluster - setNWBoosterIndicators(false)
35612016-10-18 12:53:44.792 DEBUG:  StatusBar.NetworkController : applyOpen
35622016-10-18 12:53:44.792 DEBUG:  StatusBar.NetworkController : refreshSignalCluster - setNWBoosterIndicators(false)
35632016-10-18 12:53:44.792 DEBUG:  StatusBar.NetworkController : applyOpen
35642016-10-18 12:53:44.812 DEBUG:  SurfaceFlinger : FPS : 60.13
35652016-10-18 12:53:44.812 WARN:   SurfaceFlinger : Fail to Open /sys/devices/platform/gpusysfs/fps
35662016-10-18 12:53:45.002 INFO:   TOOLKIT SERVICE : Request body '{"id":"1476780816133","type":"GET_SCREEN_ORIENTATION"}'
35672016-10-18 12:53:45.002 INFO:   DEVICE MANAGER : {"id":"1476780816133","type":"GET_SCREEN_ORIENTATION"}
35682016-10-18 12:53:45.012 INFO:   TOOLKIT SERVICE : Responding to client with: '{"id":"1476780816133","orientation":"PORTRAIT"}'
35692016-10-18 12:53:45.182 ERROR:  SMD : smd Interface open failed errno is 2 -1
35702016-10-18 12:53:45.503 INFO:   TOOLKIT SERVICE : Request body '{"id":"1476780816633","type":"GET_SCREEN_ORIENTATION"}'
35712016-10-18 12:53:45.503 INFO:   DEVICE MANAGER : {"id":"1476780816633","type":"GET_SCREEN_ORIENTATION"}
35722016-10-18 12:53:45.513 INFO:   TOOLKIT SERVICE : Responding to client with: '{"id":"1476780816633","orientation":"PORTRAIT"}'
35732016-10-18 12:53:45.793 DEBUG:  StatusBar.NetworkController : refreshViews connected={ wifi } level=0 combinedSignalIconId=0x7f020517/com.android.systemui:drawable/stat_sys_wifi_signal_4 mobileLabel= wifiLabel="TestObject Devices"xxxxXXXXxxxxXXXX emergencyOnly=false combinedLabel="TestObject Devices"xxxxXXXXxxxxXXXX mAirplaneMode=true mDataActivity=0 mPhoneSignalIconId=0x0/(null) mQSPhoneSignalIconId=0x0/(null) mDataDirectionIconId=0x0/(null) mDataSignalIconId=0x0/(null) mDataTypeIconId=0x0/(null) mQSDataTypeIconId=0x0/(null) mNoSimIconId=0x0/(null) mWifiIconId=0x7f020517/com.android.systemui:drawable/stat_sys_wifi_signal_4 mQSWifiIconId=0x7f020143/com.android.systemui:drawable/ic_qs_wifi_4 mWifiActivityIconId=0x7f0204e6/com.android.systemui:drawable/stat_sys_signal_in mBluetoothTetherIconId=0x10808cc/android:drawable/stat_sys_tether_bluetooth
35742016-10-18 12:53:45.793 DEBUG:  STATUSBAR-WifiQuickSettingButton : onWifiSignalChanged enabled=true enabledDesc:"TestObject Devices"
35752016-10-18 12:53:45.793 DEBUG:  StatusBar.NetworkController : refreshSignalCluster - setNWBoosterIndicators(false)
35762016-10-18 12:53:45.803 DEBUG:  StatusBar.NetworkController : applyOpen
35772016-10-18 12:53:45.803 DEBUG:  StatusBar.NetworkController : refreshSignalCluster - setNWBoosterIndicators(false)
35782016-10-18 12:53:45.803 DEBUG:  StatusBar.NetworkController : applyOpen
35792016-10-18 12:53:45.803 DEBUG:  StatusBar.NetworkController : refreshSignalCluster - setNWBoosterIndicators(false)
35802016-10-18 12:53:45.803 DEBUG:  StatusBar.NetworkController : applyOpen
35812016-10-18 12:53:45.803 DEBUG:  StatusBar.NetworkController : refreshSignalCluster - setNWBoosterIndicators(false)
35822016-10-18 12:53:45.803 DEBUG:  StatusBar.NetworkController : applyOpen
35832016-10-18 12:53:45.833 DEBUG:  SurfaceFlinger : FPS : 3.71
35842016-10-18 12:53:45.833 WARN:   SurfaceFlinger : Fail to Open /sys/devices/platform/gpusysfs/fps
35852016-10-18 12:53:46.003 INFO:   TOOLKIT SERVICE : Request body '{"id":"1476780817133","type":"GET_SCREEN_ORIENTATION"}'
35862016-10-18 12:53:46.003 INFO:   DEVICE MANAGER : {"id":"1476780817133","type":"GET_SCREEN_ORIENTATION"}
35872016-10-18 12:53:46.003 INFO:   TOOLKIT SERVICE : Responding to client with: '{"id":"1476780817133","orientation":"PORTRAIT"}'
35882016-10-18 12:53:46.183 ERROR:  SMD : smd Interface open failed errno is 2 -1
35892016-10-18 12:53:46.504 INFO:   TOOLKIT SERVICE : Request body '{"id":"1476780817633","type":"GET_SCREEN_ORIENTATION"}'
35902016-10-18 12:53:46.504 INFO:   DEVICE MANAGER : {"id":"1476780817633","type":"GET_SCREEN_ORIENTATION"}
35912016-10-18 12:53:46.514 INFO:   TOOLKIT SERVICE : Responding to client with: '{"id":"1476780817633","orientation":"PORTRAIT"}'
35922016-10-18 12:53:46.834 DEBUG:  Subscription : Filters valid: true
35932016-10-18 12:53:46.924 DEBUG:  Subscriptions : Adding filters for 'url:https://easylist-downloads.adblockplus.org/exceptionrules.txt'
35942016-10-18 12:53:46.934 ERROR:  Diag_Lib : Diag_LSM_Init: Failed to open handle to diag driver, error = 2
35952016-10-18 12:53:47.034 INFO:   TOOLKIT SERVICE : Request body '{"id":"1476780818157","type":"GET_SCREEN_ORIENTATION"}'
35962016-10-18 12:53:47.034 INFO:   DEVICE MANAGER : {"id":"1476780818157","type":"GET_SCREEN_ORIENTATION"}
35972016-10-18 12:53:47.034 INFO:   TOOLKIT SERVICE : Responding to client with: '{"id":"1476780818157","orientation":"PORTRAIT"}'
35982016-10-18 12:53:47.184 ERROR:  SMD : smd Interface open failed errno is 2 -1
35992016-10-18 12:53:47.264 DEBUG:  SurfaceFlinger : FPS : 0.70
36002016-10-18 12:53:47.264 WARN:   SurfaceFlinger : Fail to Open /sys/devices/platform/gpusysfs/fps
36012016-10-18 12:53:47.395 DEBUG:  SSRM:n : SIOP:: AP = 370, CUR = 1000
36022016-10-18 12:53:47.505 INFO:   TOOLKIT SERVICE : Request body '{"id":"1476780818633","type":"GET_SCREEN_ORIENTATION"}'
36032016-10-18 12:53:47.505 INFO:   DEVICE MANAGER : {"id":"1476780818633","type":"GET_SCREEN_ORIENTATION"}
36042016-10-18 12:53:47.515 INFO:   TOOLKIT SERVICE : Responding to client with: '{"id":"1476780818633","orientation":"PORTRAIT"}'
36052016-10-18 12:53:47.725 DEBUG:  Subscription : Filters valid: true
36062016-10-18 12:53:47.735 DEBUG:  Subscriptions : Writing 65537 filters
36072016-10-18 12:53:47.945 DEBUG:  Engine : Cleaning up cache...
36082016-10-18 12:53:47.945 DEBUG:  Engine : Deleting file:/data/data/org.adblockplus.adblockplussbrowser/cache/subscriptions/tmp-4105878.txt
36092016-10-18 12:53:48.005 INFO:   TOOLKIT SERVICE : Request body '{"id":"1476780819133","type":"GET_SCREEN_ORIENTATION"}'
36102016-10-18 12:53:48.005 INFO:   DEVICE MANAGER : {"id":"1476780819133","type":"GET_SCREEN_ORIENTATION"}
36112016-10-18 12:53:48.015 INFO:   TOOLKIT SERVICE : Responding to client with: '{"id":"1476780819133","orientation":"PORTRAIT"}'
36122016-10-18 12:53:48.185 ERROR:  SMD : smd Interface open failed errno is 2 -1
36132016-10-18 12:53:48.516 INFO:   TOOLKIT SERVICE : Request body '{"id":"1476780819633","type":"GET_SCREEN_ORIENTATION"}'
36142016-10-18 12:53:48.516 INFO:   DEVICE MANAGER : {"id":"1476780819633","type":"GET_SCREEN_ORIENTATION"}
36152016-10-18 12:53:48.516 INFO:   TOOLKIT SERVICE : Responding to client with: '{"id":"1476780819633","orientation":"PORTRAIT"}'
36162016-10-18 12:53:48.636 DEBUG:  InputReader : Input event: value=1
36172016-10-18 12:53:48.636 INFO:   InputReader : Touch event's action is 0x0 (deviceType=0) [pCnt=1, s=0.5 ] when=502856718004000
36182016-10-18 12:53:48.646 INFO:   InputDispatcher : Delivering touch to (1271): action: 0x4, toolType: 1
36192016-10-18 12:53:48.646 INFO:   InputDispatcher : Delivering touch to (1556): action: 0x0, toolType: 1
36202016-10-18 12:53:48.646 DEBUG:  ViewRootImpl : ViewPostImeInputStage ACTION_DOWN
36212016-10-18 12:53:48.646 INFO:   InputDispatcher : Delivering touch to (1449): action: 0x0, toolType: 1
36222016-10-18 12:53:48.746 DEBUG:  InputReader : Input event: value=0
36232016-10-18 12:53:48.746 INFO:   InputReader : Touch event's action is 0x1 (deviceType=0) [pCnt=1, s=] when=502856826525000
36242016-10-18 12:53:48.756 INFO:   InputDispatcher : Delivering touch to (1556): action: 0x1, toolType: 1
36252016-10-18 12:53:48.756 INFO:   InputDispatcher : Delivering touch to (1449): action: 0x1, toolType: 1
36262016-10-18 12:53:48.906 DEBUG:  SurfaceFlinger : FPS : 0.61
36272016-10-18 12:53:48.906 WARN:   SurfaceFlinger : Fail to Open /sys/devices/platform/gpusysfs/fps
36282016-10-18 12:53:48.926 DEBUG:  SurfaceFlinger : FPS : 0.61
36292016-10-18 12:53:48.926 WARN:   SurfaceFlinger : Fail to Open /sys/devices/platform/gpusysfs/fps
36302016-10-18 12:53:48.966 DEBUG:  SurfaceFlinger : FPS : 0.61
36312016-10-18 12:53:48.966 WARN:   SurfaceFlinger : Fail to Open /sys/devices/platform/gpusysfs/fps
36322016-10-18 12:53:48.986 DEBUG:  SurfaceFlinger : FPS : 0.61
36332016-10-18 12:53:48.986 WARN:   SurfaceFlinger : Fail to Open /sys/devices/platform/gpusysfs/fps
36342016-10-18 12:53:49.006 DEBUG:  SurfaceFlinger : FPS : 0.61
36352016-10-18 12:53:49.006 WARN:   SurfaceFlinger : Fail to Open /sys/devices/platform/gpusysfs/fps
36362016-10-18 12:53:49.006 INFO:   TOOLKIT SERVICE : Request body '{"id":"1476780820133","type":"GET_SCREEN_ORIENTATION"}'
36372016-10-18 12:53:49.006 INFO:   DEVICE MANAGER : {"id":"1476780820133","type":"GET_SCREEN_ORIENTATION"}
36382016-10-18 12:53:49.016 INFO:   TOOLKIT SERVICE : Responding to client with: '{"id":"1476780820133","orientation":"PORTRAIT"}'
36392016-10-18 12:53:49.026 DEBUG:  SurfaceFlinger : FPS : 0.61
36402016-10-18 12:53:49.026 WARN:   SurfaceFlinger : Fail to Open /sys/devices/platform/gpusysfs/fps
36412016-10-18 12:53:49.036 DEBUG:  SurfaceFlinger : FPS : 0.61
36422016-10-18 12:53:49.046 WARN:   SurfaceFlinger : Fail to Open /sys/devices/platform/gpusysfs/fps
36432016-10-18 12:53:49.056 DEBUG:  SurfaceFlinger : FPS : 0.61
36442016-10-18 12:53:49.056 WARN:   SurfaceFlinger : Fail to Open /sys/devices/platform/gpusysfs/fps
36452016-10-18 12:53:49.076 DEBUG:  SurfaceFlinger : FPS : 0.61
36462016-10-18 12:53:49.076 WARN:   SurfaceFlinger : Fail to Open /sys/devices/platform/gpusysfs/fps
36472016-10-18 12:53:49.086 DEBUG:  SurfaceFlinger : FPS : 0.61
36482016-10-18 12:53:49.086 WARN:   SurfaceFlinger : Fail to Open /sys/devices/platform/gpusysfs/fps
36492016-10-18 12:53:49.106 DEBUG:  SurfaceFlinger : FPS : 0.61
36502016-10-18 12:53:49.106 WARN:   SurfaceFlinger : Fail to Open /sys/devices/platform/gpusysfs/fps
36512016-10-18 12:53:49.126 DEBUG:  SurfaceFlinger : FPS : 0.61
36522016-10-18 12:53:49.126 WARN:   SurfaceFlinger : Fail to Open /sys/devices/platform/gpusysfs/fps
36532016-10-18 12:53:49.136 DEBUG:  SurfaceFlinger : FPS : 0.61
36542016-10-18 12:53:49.136 WARN:   SurfaceFlinger : Fail to Open /sys/devices/platform/gpusysfs/fps
36552016-10-18 12:53:49.156 DEBUG:  SurfaceFlinger : FPS : 51.66
36562016-10-18 12:53:49.156 WARN:   SurfaceFlinger : Fail to Open /sys/devices/platform/gpusysfs/fps
36572016-10-18 12:53:49.176 DEBUG:  SurfaceFlinger : FPS : 51.66
36582016-10-18 12:53:49.176 WARN:   SurfaceFlinger : Fail to Open /sys/devices/platform/gpusysfs/fps
36592016-10-18 12:53:49.186 DEBUG:  SurfaceFlinger : FPS : 51.66
36602016-10-18 12:53:49.186 WARN:   SurfaceFlinger : Fail to Open /sys/devices/platform/gpusysfs/fps
36612016-10-18 12:53:49.186 ERROR:  SMD : smd Interface open failed errno is 2 -1
36622016-10-18 12:53:49.206 DEBUG:  SurfaceFlinger : FPS : 51.66
36632016-10-18 12:53:49.206 WARN:   SurfaceFlinger : Fail to Open /sys/devices/platform/gpusysfs/fps
36642016-10-18 12:53:49.226 DEBUG:  SurfaceFlinger : FPS : 51.66
36652016-10-18 12:53:49.226 WARN:   SurfaceFlinger : Fail to Open /sys/devices/platform/gpusysfs/fps
36662016-10-18 12:53:49.236 DEBUG:  SurfaceFlinger : FPS : 51.66
36672016-10-18 12:53:49.236 WARN:   SurfaceFlinger : Fail to Open /sys/devices/platform/gpusysfs/fps
36682016-10-18 12:53:49.256 DEBUG:  SurfaceFlinger : FPS : 51.66
36692016-10-18 12:53:49.256 WARN:   SurfaceFlinger : Fail to Open /sys/devices/platform/gpusysfs/fps
36702016-10-18 12:53:49.276 DEBUG:  SurfaceFlinger : FPS : 51.66
36712016-10-18 12:53:49.276 WARN:   SurfaceFlinger : Fail to Open /sys/devices/platform/gpusysfs/fps
36722016-10-18 12:53:49.286 DEBUG:  SurfaceFlinger : FPS : 51.66
36732016-10-18 12:53:49.286 WARN:   SurfaceFlinger : Fail to Open /sys/devices/platform/gpusysfs/fps
36742016-10-18 12:53:49.306 DEBUG:  SurfaceFlinger : FPS : 51.66
36752016-10-18 12:53:49.306 WARN:   SurfaceFlinger : Fail to Open /sys/devices/platform/gpusysfs/fps
36762016-10-18 12:53:49.326 DEBUG:  SurfaceFlinger : FPS : 51.66
36772016-10-18 12:53:49.326 WARN:   SurfaceFlinger : Fail to Open /sys/devices/platform/gpusysfs/fps
36782016-10-18 12:53:49.336 DEBUG:  SurfaceFlinger : FPS : 51.66
36792016-10-18 12:53:49.336 WARN:   SurfaceFlinger : Fail to Open /sys/devices/platform/gpusysfs/fps
36802016-10-18 12:53:49.356 DEBUG:  SurfaceFlinger : FPS : 51.66
36812016-10-18 12:53:49.356 WARN:   SurfaceFlinger : Fail to Open /sys/devices/platform/gpusysfs/fps
36822016-10-18 12:53:49.376 DEBUG:  SurfaceFlinger : FPS : 51.66
36832016-10-18 12:53:49.376 WARN:   SurfaceFlinger : Fail to Open /sys/devices/platform/gpusysfs/fps
36842016-10-18 12:53:49.386 DEBUG:  SurfaceFlinger : FPS : 51.66
36852016-10-18 12:53:49.386 WARN:   SurfaceFlinger : Fail to Open /sys/devices/platform/gpusysfs/fps
36862016-10-18 12:53:49.406 DEBUG:  SurfaceFlinger : FPS : 51.66
36872016-10-18 12:53:49.406 WARN:   SurfaceFlinger : Fail to Open /sys/devices/platform/gpusysfs/fps
36882016-10-18 12:53:49.507 INFO:   TOOLKIT SERVICE : Request body '{"id":"1476780820633","type":"GET_SCREEN_ORIENTATION"}'
36892016-10-18 12:53:49.507 INFO:   DEVICE MANAGER : {"id":"1476780820633","type":"GET_SCREEN_ORIENTATION"}
36902016-10-18 12:53:49.517 INFO:   TOOLKIT SERVICE : Responding to client with: '{"id":"1476780820633","orientation":"PORTRAIT"}'
36912016-10-18 12:53:50.017 INFO:   TOOLKIT SERVICE : Request body '{"id":"1476780821133","type":"GET_SCREEN_ORIENTATION"}'
36922016-10-18 12:53:50.017 INFO:   DEVICE MANAGER : {"id":"1476780821133","type":"GET_SCREEN_ORIENTATION"}
36932016-10-18 12:53:50.017 INFO:   TOOLKIT SERVICE : Responding to client with: '{"id":"1476780821133","orientation":"PORTRAIT"}'
36942016-10-18 12:53:50.187 ERROR:  SMD : smd Interface open failed errno is 2 -1
36952016-10-18 12:53:50.518 INFO:   TOOLKIT SERVICE : Request body '{"id":"1476780821633","type":"GET_SCREEN_ORIENTATION"}'
36962016-10-18 12:53:50.518 INFO:   DEVICE MANAGER : {"id":"1476780821633","type":"GET_SCREEN_ORIENTATION"}
36972016-10-18 12:53:50.518 INFO:   TOOLKIT SERVICE : Responding to client with: '{"id":"1476780821633","orientation":"PORTRAIT"}'
36982016-10-18 12:53:50.958 DEBUG:  SurfaceFlinger : FPS : 8.87
36992016-10-18 12:53:50.968 WARN:   SurfaceFlinger : Fail to Open /sys/devices/platform/gpusysfs/fps
37002016-10-18 12:53:51.008 INFO:   TOOLKIT SERVICE : Request body '{"id":"1476780822133","type":"GET_SCREEN_ORIENTATION"}'
37012016-10-18 12:53:51.018 INFO:   DEVICE MANAGER : {"id":"1476780822133","type":"GET_SCREEN_ORIENTATION"}
37022016-10-18 12:53:51.018 INFO:   TOOLKIT SERVICE : Responding to client with: '{"id":"1476780822133","orientation":"PORTRAIT"}'
37032016-10-18 12:53:51.188 ERROR:  SMD : smd Interface open failed errno is 2 -1
37042016-10-18 12:53:51.378 DEBUG:  InputReader : Input event: value=1
37052016-10-18 12:53:51.378 INFO:   InputReader : Touch event's action is 0x0 (deviceType=0) [pCnt=1, s=0.6 ] when=502859449999000
37062016-10-18 12:53:51.378 INFO:   InputDispatcher : Delivering touch to (1271): action: 0x4, toolType: 1
37072016-10-18 12:53:51.378 INFO:   InputDispatcher : Delivering touch to (1556): action: 0x0, toolType: 1
37082016-10-18 12:53:51.378 INFO:   InputDispatcher : Delivering touch to (1449): action: 0x0, toolType: 1
37092016-10-18 12:53:51.388 DEBUG:  InputReader : Input event: value=0
37102016-10-18 12:53:51.398 INFO:   InputReader : Touch event's action is 0x1 (deviceType=0) [pCnt=1, s=] when=502859469286000
37112016-10-18 12:53:51.398 INFO:   InputDispatcher : Delivering touch to (1556): action: 0x1, toolType: 1
37122016-10-18 12:53:51.408 INFO:   InputDispatcher : Delivering touch to (1449): action: 0x1, toolType: 1
37132016-10-18 12:53:51.418 DEBUG:  ViewRootImpl : ViewPostImeInputStage ACTION_DOWN
37142016-10-18 12:53:51.438 INFO:   AudioPolicyManager_legacy : getAudioPolicyConfig: situation=1;device=0
37152016-10-18 12:53:51.438 INFO:   AudioPolicyManager_legacy : getSituationVolume: isBTConnected:0 isHeadConnected:0
37162016-10-18 12:53:51.468 ERROR:  AudioTrack : AudioTrack::set : Exit
37172016-10-18 12:53:51.479 DEBUG:  PowerManagerService : [input device light] setInputDeviceLightOn is called : 1
37182016-10-18 12:53:51.489 DEBUG:  PowerManagerService : [input device light] handleInputDeviceLightOn
37192016-10-18 12:53:51.489 DEBUG:  ALSADevice : route: devices 0x2 in mode 0
37202016-10-18 12:53:51.499 DEBUG:  ALSADevice : No valid input device: 0
37212016-10-18 12:53:51.499 DEBUG:  alsa_ucm : snd_use_case_set(): uc_mgr 0xb3c18510 identifier _enadev value Speaker
37222016-10-18 12:53:51.499 DEBUG:  ALSADevice : switchDevice: mCurTxUCMDevivce Main Mic mCurRxDevDevice Speaker inCallDevSwitch = 0
37232016-10-18 12:53:51.509 DEBUG:  alsa_ucm : snd_use_case_set(): uc_mgr 0xb3c18510 identifier _verb value HiFi
37242016-10-18 12:53:51.509 DEBUG:  alsa_ucm : Set mixer controls for Speaker enable 1
37252016-10-18 12:53:51.509 DEBUG:  alsa_ucm : acdb_id 15 cap 1 enable 1
37262016-10-18 12:53:51.509 DEBUG:  ACDB-LOADER : ACDB -> send_audio_cal, acdb_id = 15, path =  0
37272016-10-18 12:53:51.519 DEBUG:  ACDB-LOADER : ACDB -> send_adm_topology
37282016-10-18 12:53:51.519 DEBUG:  ACDB-LOADER : ACDB -> ACDB_CMD_GET_AUDPROC_COMMON_TOPOLOGY_ID
37292016-10-18 12:53:51.519 DEBUG:  ACDB-LOADER : ACDB -> send_asm_topology
37302016-10-18 12:53:51.519 DEBUG:  ACDB-LOADER : ACDB -> ACDB_CMD_GET_AUDPROC_STREAM_TOPOLOGY_ID
37312016-10-18 12:53:51.519 DEBUG:  ACDB-LOADER : ACDB -> send_audtable
37322016-10-18 12:53:51.519 DEBUG:  ACDB-LOADER : ACDB -> ACDB_CMD_GET_AUDPROC_COMMON_TABLE
37332016-10-18 12:53:51.519 DEBUG:  ACDB-LOADER : ACDB -> AUDIO_SET_AUDPROC_CAL
37342016-10-18 12:53:51.519 DEBUG:  ACDB-LOADER : ACDB -> send_audvoltable
37352016-10-18 12:53:51.519 DEBUG:  ACDB-LOADER : ACDB -> ACDB_CMD_GET_AUDPROC_GAIN_DEP_VOLTBL_STEP_COPP
37362016-10-18 12:53:51.529 ERROR:  ACDB-LOADER : Error: ACDB AudProc vol returned = -8
37372016-10-18 12:53:51.529 DEBUG:  ACDB-LOADER : ACDB -> AUDIO_SET_AUDPROC_VOL_CAL
37382016-10-18 12:53:51.529 DEBUG:  ACDB-LOADER : ACDB -> send_afe_cal
37392016-10-18 12:53:51.529 DEBUG:  ACDB-LOADER : ACDB -> ACDB_CMD_GET_AFE_COMMON_TABLE
37402016-10-18 12:53:51.529 DEBUG:  ACDB-LOADER : ACDB -> AUDIO_SET_AFE_CAL
37412016-10-18 12:53:51.529 DEBUG:  ACDB-LOADER : ACDB -> send_hw_delay : acdb_id = 15 path = 0
37422016-10-18 12:53:51.529 DEBUG:  ACDB-LOADER : ACDB -> ACDB_CMD_GET_DEVICE_PROPERTY_SIZE
37432016-10-18 12:53:51.529 DEBUG:  ACDB-LOADER : ACDB -> ACDB_AVSYNC_INFO: ACDB_CMD_GET_DEVICE_PROPERTY
37442016-10-18 12:53:51.529 DEBUG:  ACDB-LOADER : send_hw_delay id = 15 delay_num_entries = 1 result = 0
37452016-10-18 12:53:51.529 DEBUG:  alsa_ucm : Setting mixer control: SLIM_0_RX Channels, value: Two
37462016-10-18 12:53:51.529 DEBUG:  alsa_ucm : Setting mixer control: RX5 MIX1 INP1, value: RX1
37472016-10-18 12:53:51.539 INFO:   TOOLKIT SERVICE : Request body '{"id":"1476780822633","type":"GET_SCREEN_ORIENTATION"}'
37482016-10-18 12:53:51.539 INFO:   DEVICE MANAGER : {"id":"1476780822633","type":"GET_SCREEN_ORIENTATION"}
37492016-10-18 12:53:51.559 DEBUG:  alsa_ucm : Setting mixer control: RX5 MIX1 INP2, value: RX2
37502016-10-18 12:53:51.569 DEBUG:  alsa_ucm : Setting mixer control: RX6 DSM MUX, value: DSM_INV
37512016-10-18 12:53:51.569 DEBUG:  alsa_ucm : Setting multi value: LINEOUT2 Volume
37522016-10-18 12:53:51.569 DEBUG:  alsa_ucm : Setting multi value: LINEOUT4 Volume
37532016-10-18 12:53:51.569 DEBUG:  alsa_ucm : Setting multi value: RX5 Digital Volume
37542016-10-18 12:53:51.569 DEBUG:  alsa_ucm : Set mixer controls for HiFi enable 1
37552016-10-18 12:53:51.569 DEBUG:  alsa_ucm : Setting mixer control: SLIMBUS_0_RX Audio Mixer MultiMedia1, value: 1
37562016-10-18 12:53:51.579 DEBUG:  ALSADevice : close: handle 0xb3c57700 h 0x0
37572016-10-18 12:53:51.579 DEBUG:  ALSADevice : open: handle 0xb3c57700, format 0x2
37582016-10-18 12:53:51.579 DEBUG:  ALSADevice : Device value returned is hw:0,0
37592016-10-18 12:53:51.579 DEBUG:  ALSADevice : handle->format: 0x2
37602016-10-18 12:53:51.579 DEBUG:  ALSADevice : setHardwareParams: reqBuffSize 2048 channels 2 sampleRate 48000
37612016-10-18 12:53:51.589 DEBUG:  ALSADevice : setHardwareParams: buffer_size 16384, period_size 2048, period_cnt 8
37622016-10-18 12:53:51.599 INFO:   TOOLKIT SERVICE : Responding to client with: '{"id":"1476780822633","orientation":"PORTRAIT"}'
37632016-10-18 12:53:51.619 DEBUG:  SurfaceFlinger : FPS : 1.52
37642016-10-18 12:53:51.619 WARN:   SurfaceFlinger : Fail to Open /sys/devices/platform/gpusysfs/fps
37652016-10-18 12:53:51.679 INFO:   Timeline : Timeline: Activity_launch_request id:com.android.vending time:502859755
37662016-10-18 12:53:51.679 ERROR:  PersonaManagerService : inState():  stateMachine is null !!
37672016-10-18 12:53:51.679 INFO:   PersonaManagerService : PersonaId don't exist
37682016-10-18 12:53:51.679 INFO:   ActivityManager : do not start freezing screen for locked container getKeyguardshowstate = false
37692016-10-18 12:53:51.689 INFO:   ActivityManager : START u0 {act=android.intent.action.MAIN cat=[android.intent.category.LAUNCHER] flg=0x10200000 cmp=com.android.vending/.AssetBrowserActivity} from uid 10028 on display 0
37702016-10-18 12:53:51.689 DEBUG:  ResourcesManager : creating new AssetManager and set to /data/app/com.android.vending-1/base.apk
37712016-10-18 12:53:51.699 WARN:   ActivityManager : mDVFSHelper.acquire()
37722016-10-18 12:53:51.699 DEBUG:  FocusedStackFrame : Set to : 0
37732016-10-18 12:53:51.709 DEBUG:  PowerManagerService : [input device light] setInputDeviceLightOn is called : 1
37742016-10-18 12:53:51.709 DEBUG:  PowerManagerService : [input device light] handleInputDeviceLightOn
37752016-10-18 12:53:51.709 DEBUG:  Launcher.HomeView : onPause
37762016-10-18 12:53:51.719 DEBUG:  Launcher : Launcher::setSystemUiTransparency(): getSystemUiVisibility() after setting  = 40000000
37772016-10-18 12:53:51.729 DEBUG:  PointerIcon : setMouseIconStyle1 pointerType: 1001iconType:101 flag:0
37782016-10-18 12:53:51.729 DEBUG:  PointerIcon : setMouseCustomIcon IconType is same.101
37792016-10-18 12:53:51.729 DEBUG:  PointerIcon : setHoveringSpenIconStyle1 pointerType: 10001iconType:1 flag:0
37802016-10-18 12:53:51.729 DEBUG:  PointerIcon : setHoveringSpenCustomIcon IconType is same.1
37812016-10-18 12:53:51.749 DEBUG:  SurfaceFlinger : FPS : 1.52
37822016-10-18 12:53:51.749 WARN:   SurfaceFlinger : Fail to Open /sys/devices/platform/gpusysfs/fps
37832016-10-18 12:53:51.779 DEBUG:  ConnectivityService : returning getNetworkInfo(networkType - 1) :[type: WIFI[] - WIFI, state: CONNECTED/CONNECTED, reason: (unspecified), extra: "TestObject Devices", roaming: false, failover: false, isAvailable: true, isConnectedToProvisioningNetwork: false]
37842016-10-18 12:53:51.779 DEBUG:  MultiPhoneWindow : updateMultiWindowStyle style:MultiWindowStyle{type=0, zone=ZONE_UNKNOWN, option=0x01000002, bounds=null, isNull=false, isolatedCenterPoint=Point(0, 0), scale=0.0, specificTaskId=-1},newStyle=MultiWindowStyle{type=0, zone=ZONE_UNKNOWN, option=0x01000002, bounds=null, isNull=false, isolatedCenterPoint=Point(0, 0), scale=0.0, specificTaskId=-1}
37852016-10-18 12:53:51.779 DEBUG:  SurfaceFlinger : FPS : 1.52
37862016-10-18 12:53:51.779 WARN:   SurfaceFlinger : Fail to Open /sys/devices/platform/gpusysfs/fps
37872016-10-18 12:53:51.779 DEBUG:  MultiPhoneWindow : MultiPhoneWindow : mMinStackBoundForPortRect(0, 0 - 626, 1113), mMinStackBoundForPort=Rect(0, 0 - 1113, 626)
37882016-10-18 12:53:51.789 INFO:   Timeline : Timeline: Activity_launch_request id:com.android.vending time:502859872
37892016-10-18 12:53:51.789 ERROR:  PersonaManagerService : inState():  stateMachine is null !!
37902016-10-18 12:53:51.789 INFO:   PersonaManagerService : PersonaId don't exist
37912016-10-18 12:53:51.789 INFO:   ActivityManager : do not start freezing screen for locked container getKeyguardshowstate = false
37922016-10-18 12:53:51.789 INFO:   ActivityManager : START u0 {act=android.intent.action.MAIN cat=[android.intent.category.LAUNCHER] flg=0x10000000 cmp=com.android.vending/com.google.android.finsky.activities.MainActivity} from uid 10018 on display 0
37932016-10-18 12:53:51.789 DEBUG:  CustomFrequencyManagerService : FrequencyrequestList.getNextMaxCPUCoreRequest, index: 1
37942016-10-18 12:53:51.789 WARN:   ActivityManager : mDVFSHelper.acquire()
37952016-10-18 12:53:51.799 DEBUG:  PowerManagerService : [input device light] setInputDeviceLightOn is called : 1
37962016-10-18 12:53:51.799 DEBUG:  PowerManagerService : [input device light] handleInputDeviceLightOn
37972016-10-18 12:53:51.799 DEBUG:  AwesomePlayer : Before reset_l
37982016-10-18 12:53:51.799 DEBUG:  Activity : performCreate Call secproduct feature valuefalse
37992016-10-18 12:53:51.799 DEBUG:  Activity : performCreate Call debug elastic valuetrue
38002016-10-18 12:53:51.799 DEBUG:  AwesomePlayer : printFileName fd(43) -> /system/framework/framework-res.apk
38012016-10-18 12:53:51.809 DEBUG:  OggExtractor : correct time not found. Let's use approximate value
38022016-10-18 12:53:51.809 INFO:   OggExtractor : OggSource::OggSource() mExtractor ref count = 4
38032016-10-18 12:53:51.809 INFO:   AwesomePlayer : this is widevine, checkRightsStatus will be skip - AwesomePlayer::setDataSource_l
38042016-10-18 12:53:51.819 INFO:   SecMediaClock : SecMediaClock constructor
38052016-10-18 12:53:51.819 INFO:   SecMediaClock : reset
38062016-10-18 12:53:51.819 INFO:   SecVideoCapture : SecVideoCapture constructor
38072016-10-18 12:53:51.819 INFO:   SecVideoCapture : reset
38082016-10-18 12:53:51.819 DEBUG:  AwesomePlayer : Tunnel Mime Type: audio/vorbis, object alive = 0, mTunnelAliveAP = 0
38092016-10-18 12:53:51.819 INFO:   AwesomePlayer : AwesomePlayer::initAudioDecoder Sample Rate= 44100
38102016-10-18 12:53:51.819 INFO:   AudioPolicyManager_legacy : getAudioPolicyConfig: audioParam;outDevice
38112016-10-18 12:53:51.819 DEBUG:  AwesomePlayer : maxPossible tunnels = 1
38122016-10-18 12:53:51.819 DEBUG:  AwesomePlayer : Normal Audio Playback
38132016-10-18 12:53:51.819 DEBUG:  AwesomePlayer : Use tunnel player only for AUDIO_STREAM_MUSIC
38142016-10-18 12:53:51.819 INFO:   OMXCodec : Attempting to allocate OMX node 'OMX.google.vorbis.decoder'
38152016-10-18 12:53:51.829 DEBUG:  SurfaceFlinger : FPS : 1.52
38162016-10-18 12:53:51.829 WARN:   SurfaceFlinger : Fail to Open /sys/devices/platform/gpusysfs/fps
38172016-10-18 12:53:51.839 DEBUG:  StatusBarManagerService : manageDisableList userId=0 what=0x0 pkg=WindowManager.LayoutParams
38182016-10-18 12:53:51.839 DEBUG:  SurfaceWidgetView : destroyHardwareResources():578072690
38192016-10-18 12:53:51.839 DEBUG:  SurfaceWidgetView : destroyHardwareResources():482517113
38202016-10-18 12:53:51.849 DEBUG:  SurfaceFlinger : FPS : 1.52
38212016-10-18 12:53:51.849 WARN:   SurfaceFlinger : Fail to Open /sys/devices/platform/gpusysfs/fps
38222016-10-18 12:53:51.849 DEBUG:  SurfaceWidgetView : destroyHardwareResources():93157740
38232016-10-18 12:53:51.869 INFO:   OMXCodec : Successfully allocated OMX node 'OMX.google.vorbis.decoder'
38242016-10-18 12:53:51.869 INFO:   AwesomePlayer : Could not offload audio decode, try pcm offload
38252016-10-18 12:53:51.869 INFO:   OMXCodec : [OMX.google.vorbis.decoder] OMXCodec::start mState=1
38262016-10-18 12:53:51.869 INFO:   OMXCodec : [OMX.google.vorbis.decoder] allocating 4 buffers of size 8192 on input port
38272016-10-18 12:53:51.869 INFO:   OMXCodec : [OMX.google.vorbis.decoder] allocating 4 buffers of size 32768 on output port
38282016-10-18 12:53:51.879 DEBUG:  SurfaceFlinger : FPS : 18.91
38292016-10-18 12:53:51.879 WARN:   SurfaceFlinger : Fail to Open /sys/devices/platform/gpusysfs/fps
38302016-10-18 12:53:51.879 INFO:   OMXCodec : [OMX.google.vorbis.decoder] Now Idle. Component sends idle done Event
38312016-10-18 12:53:51.889 WARN:   AwesomePlayer : Trying to create tunnel player mIsTunnelAudio 0,             LPAPlayer::objectsAlive 0,             TunnelPlayer::mTunnelObjectsAlive = 0,            (mAudioPlayer == NULL) 1
38322016-10-18 12:53:51.889 ERROR:  AwesomePlayer : LPAPlayer::Clip duration setting of less than 30sec not supported, defaulting to 60sec
38332016-10-18 12:53:51.889 ERROR:  AwesomePlayer : LPAPlayer::Clip duration setting of less than 30sec not supported, defaulting to 60sec
38342016-10-18 12:53:51.889 DEBUG:  AudioPlayer : start of Playback, useOffload 0
38352016-10-18 12:53:51.889 INFO:   OMXCodec : OMXCodec::read : mch : 0, DDPoutput : 2
38362016-10-18 12:53:51.889 DEBUG:  SurfaceFlinger : FPS : 18.91
38372016-10-18 12:53:51.889 WARN:   SurfaceFlinger : Fail to Open /sys/devices/platform/gpusysfs/fps
38382016-10-18 12:53:51.899 INFO:   OMXCodec : [OMX.google.vorbis.decoder] 0onCmdComplete  mState =  7
38392016-10-18 12:53:51.899 INFO:   OMXCodec : [OMX.google.vorbis.decoder] PORT_DISABLED(1)
38402016-10-18 12:53:51.899 INFO:   OMXCodec : [OMX.google.vorbis.decoder] allocating 4 buffers of size 32768 on output port
38412016-10-18 12:53:51.899 INFO:   OMXCodec : [OMX.google.vorbis.decoder] End Of Stream
38422016-10-18 12:53:51.899 INFO:   AudioPlayer : Audio channels(2)
38432016-10-18 12:53:51.899 INFO:   AudioPlayer : Audioplayer kKeyAudioPCMFormat:0, 1, 0
38442016-10-18 12:53:51.899 INFO:   AudioPlayer : Audioplayer kKeyAudioPCMFormat read fail(2, 1)
38452016-10-18 12:53:51.899 INFO:   AudioPlayer : First fillBuffer call!!
38462016-10-18 12:53:51.899 INFO:   OMXCodec : OMXCodec::read : mch : 0, DDPoutput : 2
38472016-10-18 12:53:51.899 INFO:   OMXCodec : OMXCodec::read : mch : 0, DDPoutput : 2
38482016-10-18 12:53:51.899 INFO:   OMXCodec : OMXCodec::read : mch : 0, DDPoutput : 2
38492016-10-18 12:53:51.899 INFO:   OMXCodec : OMXCodec::read : mch : 0, DDPoutput : 2
38502016-10-18 12:53:51.899 INFO:   OMXCodec : OMXCodec::read : mch : 0, DDPoutput : 2
38512016-10-18 12:53:51.899 INFO:   OMXCodec : OMXCodec::read : mch : 0, DDPoutput : 2
38522016-10-18 12:53:51.909 INFO:   OMXCodec : OMXCodec::read : mch : 0, DDPoutput : 2
38532016-10-18 12:53:51.909 INFO:   OMXCodec : OMXCodec::read : mch : 0, DDPoutput : 2
38542016-10-18 12:53:51.909 DEBUG:  AudioPlayer : reset: mPlaying=0 mReachedEOS=1 useOffload=0
38552016-10-18 12:53:51.909 INFO:   OMXCodec : [OMX.google.vorbis.decoder] stop mState=4
38562016-10-18 12:53:51.909 INFO:   OMXCodec : [OMX.google.vorbis.decoder] stop() sendCommand(0x939, OMX_CommandStateSet, OMX_StateIdle)
38572016-10-18 12:53:51.909 INFO:   OMXCodec : [OMX.google.vorbis.decoder] Now Idle. Component sends idle done Event
38582016-10-18 12:53:51.909 INFO:   OMXCodec : [OMX.google.vorbis.decoder] stopOmxComponent_l() mstate = 1
38592016-10-18 12:53:51.909 INFO:   OggExtractor : OggSource::stop() mExtractor ref count = 1
38602016-10-18 12:53:51.909 INFO:   OggExtractor : OggSource::~OggSource() mExtractor !mStarted ref count = 1
38612016-10-18 12:53:51.909 INFO:   OggExtractor : ~OggSource --
38622016-10-18 12:53:51.909 DEBUG:  SurfaceFlinger : FPS : 18.91
38632016-10-18 12:53:51.909 WARN:   SurfaceFlinger : Fail to Open /sys/devices/platform/gpusysfs/fps
38642016-10-18 12:53:51.909 INFO:   OggExtractor : ~OggExtractor ++
38652016-10-18 12:53:51.909 INFO:   OggExtractor : ~MyVorbisExtractor ++
38662016-10-18 12:53:51.909 INFO:   OggExtractor : ~MyVorbisExtractor --
38672016-10-18 12:53:51.909 INFO:   OggExtractor : ~OggExtractor --
38682016-10-18 12:53:51.919 INFO:   AudioPlayer : reset out
38692016-10-18 12:53:51.919 INFO:   SecVideoCapture : SecVideoCapture destructor
38702016-10-18 12:53:51.919 INFO:   SecVideoCapture : reset
38712016-10-18 12:53:51.919 INFO:   SecMediaClock : SecMediaClock destructor
38722016-10-18 12:53:51.929 DEBUG:  SurfaceFlinger : FPS : 18.91
38732016-10-18 12:53:51.929 WARN:   SurfaceFlinger : Fail to Open /sys/devices/platform/gpusysfs/fps
38742016-10-18 12:53:51.939 DEBUG:  SurfaceFlinger : FPS : 18.91
38752016-10-18 12:53:51.939 WARN:   SurfaceFlinger : Fail to Open /sys/devices/platform/gpusysfs/fps
38762016-10-18 12:53:51.959 DEBUG:  SurfaceFlinger : FPS : 18.91
38772016-10-18 12:53:51.959 WARN:   SurfaceFlinger : Fail to Open /sys/devices/platform/gpusysfs/fps
38782016-10-18 12:53:51.979 DEBUG:  SurfaceFlinger : FPS : 18.91
38792016-10-18 12:53:51.979 WARN:   SurfaceFlinger : Fail to Open /sys/devices/platform/gpusysfs/fps
38802016-10-18 12:53:51.989 DEBUG:  SurfaceFlinger : FPS : 18.91
38812016-10-18 12:53:51.989 WARN:   SurfaceFlinger : Fail to Open /sys/devices/platform/gpusysfs/fps
38822016-10-18 12:53:51.999 INFO:   TOOLKIT SERVICE : Request body '{"id":"1476780823133","type":"GET_SCREEN_ORIENTATION"}'
38832016-10-18 12:53:51.999 INFO:   DEVICE MANAGER : {"id":"1476780823133","type":"GET_SCREEN_ORIENTATION"}
38842016-10-18 12:53:51.999 INFO:   TOOLKIT SERVICE : Responding to client with: '{"id":"1476780823133","orientation":"PORTRAIT"}'
38852016-10-18 12:53:52.009 DEBUG:  SurfaceFlinger : FPS : 18.91
38862016-10-18 12:53:52.009 WARN:   SurfaceFlinger : Fail to Open /sys/devices/platform/gpusysfs/fps
38872016-10-18 12:53:52.019 DEBUG:  SurfaceFlinger : FPS : 18.91
38882016-10-18 12:53:52.029 WARN:   SurfaceFlinger : Fail to Open /sys/devices/platform/gpusysfs/fps
38892016-10-18 12:53:52.039 DEBUG:  SurfaceFlinger : FPS : 18.91
38902016-10-18 12:53:52.039 WARN:   SurfaceFlinger : Fail to Open /sys/devices/platform/gpusysfs/fps
38912016-10-18 12:53:52.059 DEBUG:  SurfaceFlinger : FPS : 18.91
38922016-10-18 12:53:52.059 WARN:   SurfaceFlinger : Fail to Open /sys/devices/platform/gpusysfs/fps
38932016-10-18 12:53:52.109 DEBUG:  MultiPhoneWindow : updateMultiWindowStyle style:MultiWindowStyle{type=0, zone=ZONE_UNKNOWN, option=0x01000002, bounds=null, isNull=false, isolatedCenterPoint=Point(0, 0), scale=0.0, specificTaskId=-1},newStyle=MultiWindowStyle{type=0, zone=ZONE_UNKNOWN, option=0x01000002, bounds=null, isNull=false, isolatedCenterPoint=Point(0, 0), scale=0.0, specificTaskId=-1}
38942016-10-18 12:53:52.119 DEBUG:  MultiPhoneWindow : MultiPhoneWindow : mMinStackBoundForPortRect(0, 0 - 626, 1113), mMinStackBoundForPort=Rect(0, 0 - 1113, 626)
38952016-10-18 12:53:52.129 DEBUG:  AwesomePlayer : Before reset_l
38962016-10-18 12:53:52.129 DEBUG:  AwesomePlayer : printFileName fd(43) -> /system/framework/framework-res.apk
38972016-10-18 12:53:52.129 DEBUG:  OggExtractor : correct time not found. Let's use approximate value
38982016-10-18 12:53:52.129 INFO:   OggExtractor : OggSource::OggSource() mExtractor ref count = 4
38992016-10-18 12:53:52.139 INFO:   AwesomePlayer : this is widevine, checkRightsStatus will be skip - AwesomePlayer::setDataSource_l
39002016-10-18 12:53:52.139 INFO:   SecMediaClock : SecMediaClock constructor
39012016-10-18 12:53:52.139 INFO:   SecMediaClock : reset
39022016-10-18 12:53:52.139 INFO:   SecVideoCapture : SecVideoCapture constructor
39032016-10-18 12:53:52.139 INFO:   SecVideoCapture : reset
39042016-10-18 12:53:52.139 DEBUG:  AwesomePlayer : Tunnel Mime Type: audio/vorbis, object alive = 0, mTunnelAliveAP = 0
39052016-10-18 12:53:52.139 INFO:   AwesomePlayer : AwesomePlayer::initAudioDecoder Sample Rate= 44100
39062016-10-18 12:53:52.139 INFO:   AudioPolicyManager_legacy : getAudioPolicyConfig: audioParam;outDevice
39072016-10-18 12:53:52.139 DEBUG:  AwesomePlayer : maxPossible tunnels = 1
39082016-10-18 12:53:52.139 DEBUG:  AwesomePlayer : Normal Audio Playback
39092016-10-18 12:53:52.139 DEBUG:  AwesomePlayer : Use tunnel player only for AUDIO_STREAM_MUSIC
39102016-10-18 12:53:52.139 INFO:   OMXCodec : Attempting to allocate OMX node 'OMX.google.vorbis.decoder'
39112016-10-18 12:53:52.139 INFO:   OMXCodec : Successfully allocated OMX node 'OMX.google.vorbis.decoder'
39122016-10-18 12:53:52.139 INFO:   AwesomePlayer : Could not offload audio decode, try pcm offload
39132016-10-18 12:53:52.139 INFO:   OMXCodec : [OMX.google.vorbis.decoder] OMXCodec::start mState=1
39142016-10-18 12:53:52.139 INFO:   OMXCodec : [OMX.google.vorbis.decoder] allocating 4 buffers of size 8192 on input port
39152016-10-18 12:53:52.139 INFO:   OMXCodec : [OMX.google.vorbis.decoder] allocating 4 buffers of size 32768 on output port
39162016-10-18 12:53:52.139 INFO:   OMXCodec : [OMX.google.vorbis.decoder] Now Idle. Component sends idle done Event
39172016-10-18 12:53:52.139 WARN:   AwesomePlayer : Trying to create tunnel player mIsTunnelAudio 0,             LPAPlayer::objectsAlive 0,             TunnelPlayer::mTunnelObjectsAlive = 0,            (mAudioPlayer == NULL) 1
39182016-10-18 12:53:52.149 ERROR:  AwesomePlayer : LPAPlayer::Clip duration setting of less than 30sec not supported, defaulting to 60sec
39192016-10-18 12:53:52.149 ERROR:  AwesomePlayer : LPAPlayer::Clip duration setting of less than 30sec not supported, defaulting to 60sec
39202016-10-18 12:53:52.149 DEBUG:  AudioPlayer : start of Playback, useOffload 0
39212016-10-18 12:53:52.149 INFO:   OMXCodec : OMXCodec::read : mch : 0, DDPoutput : 2
39222016-10-18 12:53:52.149 INFO:   OMXCodec : [OMX.google.vorbis.decoder] 0onCmdComplete  mState =  7
39232016-10-18 12:53:52.149 INFO:   OMXCodec : [OMX.google.vorbis.decoder] PORT_DISABLED(1)
39242016-10-18 12:53:52.149 INFO:   OMXCodec : [OMX.google.vorbis.decoder] allocating 4 buffers of size 32768 on output port
39252016-10-18 12:53:52.149 INFO:   AudioPlayer : Audio channels(2)
39262016-10-18 12:53:52.149 INFO:   AudioPlayer : Audioplayer kKeyAudioPCMFormat:0, 1, 0
39272016-10-18 12:53:52.149 INFO:   AudioPlayer : Audioplayer kKeyAudioPCMFormat read fail(2, 1)
39282016-10-18 12:53:52.149 INFO:   AudioPlayer : First fillBuffer call!!
39292016-10-18 12:53:52.149 INFO:   OMXCodec : [OMX.google.vorbis.decoder] End Of Stream
39302016-10-18 12:53:52.149 INFO:   OMXCodec : OMXCodec::read : mch : 0, DDPoutput : 2
39312016-10-18 12:53:52.149 INFO:   OMXCodec : OMXCodec::read : mch : 0, DDPoutput : 2
39322016-10-18 12:53:52.149 INFO:   OMXCodec : OMXCodec::read : mch : 0, DDPoutput : 2
39332016-10-18 12:53:52.149 INFO:   OMXCodec : OMXCodec::read : mch : 0, DDPoutput : 2
39342016-10-18 12:53:52.149 INFO:   OMXCodec : OMXCodec::read : mch : 0, DDPoutput : 2
39352016-10-18 12:53:52.149 INFO:   OMXCodec : OMXCodec::read : mch : 0, DDPoutput : 2
39362016-10-18 12:53:52.149 INFO:   OMXCodec : OMXCodec::read : mch : 0, DDPoutput : 2
39372016-10-18 12:53:52.149 INFO:   OMXCodec : OMXCodec::read : mch : 0, DDPoutput : 2
39382016-10-18 12:53:52.159 DEBUG:  AudioPlayer : reset: mPlaying=0 mReachedEOS=1 useOffload=0
39392016-10-18 12:53:52.159 INFO:   OMXCodec : [OMX.google.vorbis.decoder] stop mState=4
39402016-10-18 12:53:52.159 INFO:   OMXCodec : [OMX.google.vorbis.decoder] stop() sendCommand(0x93a, OMX_CommandStateSet, OMX_StateIdle)
39412016-10-18 12:53:52.159 INFO:   OMXCodec : [OMX.google.vorbis.decoder] Now Idle. Component sends idle done Event
39422016-10-18 12:53:52.159 INFO:   OMXCodec : [OMX.google.vorbis.decoder] stopOmxComponent_l() mstate = 1
39432016-10-18 12:53:52.159 INFO:   OggExtractor : OggSource::stop() mExtractor ref count = 1
39442016-10-18 12:53:52.159 INFO:   OggExtractor : OggSource::~OggSource() mExtractor !mStarted ref count = 1
39452016-10-18 12:53:52.159 INFO:   OggExtractor : ~OggSource --
39462016-10-18 12:53:52.159 INFO:   OggExtractor : ~OggExtractor ++
39472016-10-18 12:53:52.159 INFO:   OggExtractor : ~MyVorbisExtractor ++
39482016-10-18 12:53:52.159 INFO:   OggExtractor : ~MyVorbisExtractor --
39492016-10-18 12:53:52.159 INFO:   OggExtractor : ~OggExtractor --
39502016-10-18 12:53:52.159 INFO:   AudioPlayer : reset out
39512016-10-18 12:53:52.159 INFO:   SecVideoCapture : SecVideoCapture destructor
39522016-10-18 12:53:52.159 INFO:   SecVideoCapture : reset
39532016-10-18 12:53:52.159 INFO:   SecMediaClock : SecMediaClock destructor
39542016-10-18 12:53:52.209 WARN:   Finsky : [1] com.google.android.finsky.FinskyApp.i(1465): No account configured on this device.
39552016-10-18 12:53:52.219 DEBUG:  ActivityManager : bindService callerProcessName:android, calleePkgName: com.google.android.gms, action: android.accounts.AccountAuthenticator
39562016-10-18 12:53:52.219 INFO:   Auth : [AuthDelegateWrapper] Service intent: Intent { cmp=com.google.android.gms/.auth.account.authenticator.DefaultAuthDelegateService }.
39572016-10-18 12:53:52.249 DEBUG:  ActivityManager : bindService callerProcessName:com.google.android.gms, calleePkgName: com.google.android.gms, action: null
39582016-10-18 12:53:52.369 DEBUG:  AbsListView : Get MotionRecognitionManager
39592016-10-18 12:53:52.369 DEBUG:  MotionRecognitionService : ssp status : true
39602016-10-18 12:53:52.399 WARN:   Finsky : [1] com.google.android.finsky.FinskyApp.i(1465): No account configured on this device.
39612016-10-18 12:53:52.500 INFO:   TOOLKIT SERVICE : Request body '{"id":"1476780823633","type":"GET_SCREEN_ORIENTATION"}'
39622016-10-18 12:53:52.500 WARN:   Finsky : [1] com.google.android.finsky.FinskyApp.i(1465): No account configured on this device.
39632016-10-18 12:53:52.500 INFO:   DEVICE MANAGER : {"id":"1476780823633","type":"GET_SCREEN_ORIENTATION"}
39642016-10-18 12:53:52.510 INFO:   TOOLKIT SERVICE : Responding to client with: '{"id":"1476780823633","orientation":"PORTRAIT"}'
39652016-10-18 12:53:52.540 WARN:   Finsky : [1] com.google.android.finsky.FinskyApp.i(1465): No account configured on this device.
39662016-10-18 12:53:52.550 WARN:   Finsky : [1] com.google.android.finsky.FinskyApp.i(1465): No account configured on this device.
39672016-10-18 12:53:52.550 WARN:   Finsky : [1] com.google.android.finsky.FinskyApp.i(1465): No account configured on this device.
39682016-10-18 12:53:52.560 WARN:   Finsky : [1] com.google.android.finsky.FinskyApp.i(1465): No account configured on this device.
39692016-10-18 12:53:52.590 WARN:   Finsky : [1] com.google.android.finsky.FinskyApp.i(1465): No account configured on this device.
39702016-10-18 12:53:52.590 DEBUG:  Activity : performCreate Call secproduct feature valuefalse
39712016-10-18 12:53:52.590 DEBUG:  Activity : performCreate Call debug elastic valuetrue
39722016-10-18 12:53:52.590 WARN:   Finsky : [1] com.google.android.finsky.FinskyApp.i(1465): No account configured on this device.
39732016-10-18 12:53:52.600 DEBUG:  OpenGLRenderer : Render dirty regions requested: true
39742016-10-18 12:53:52.610 DEBUG:  ActivityManager : post active user change for 0
39752016-10-18 12:53:52.610 DEBUG:  KnoxTimeoutHandler : postActiveUserChange for user 0
39762016-10-18 12:53:52.610 DEBUG:  KnoxTimeoutHandler : handleActiveUserChange for user 0
39772016-10-18 12:53:52.610 WARN:   Finsky : [1] com.google.android.finsky.FinskyApp.i(1465): No account configured on this device.
39782016-10-18 12:53:52.620 ERROR:  PersonaManagerService : inState():  stateMachine is null !!
39792016-10-18 12:53:52.620 INFO:   PersonaManagerService : PersonaId don't exist
39802016-10-18 12:53:52.620 INFO:   ActivityManager : do not start freezing screen for locked container getKeyguardshowstate = false
39812016-10-18 12:53:52.620 INFO:   PlayCommon : [34970] com.google.android.play.a.w.a(27551): Starting to flush logs
39822016-10-18 12:53:52.620 INFO:   ActivityManager : START u0 {act=com.google.android.gms.ui.UNPACKING_REDIRECT dat=intent://com.google.android.gms.auth.uiflows.common/c2f59f6e-5b75-495d-a73b-12add8287b4b pkg=com.google.android.gms cmp=com.google.android.gms/.auth.uiflows.common.UnpackingRedirectActivity (has extras)} from uid 10018 on display 0
39832016-10-18 12:53:52.620 WARN:   PlayEventLogger : No account for auth token provided
39842016-10-18 12:53:52.630 WARN:   ActivityManager : mDVFSHelper.acquire()
39852016-10-18 12:53:52.630 DEBUG:  StatusBarManagerService : manageDisableList userId=0 what=0x0 pkg=WindowManager.LayoutParams
39862016-10-18 12:53:52.630 INFO:   System.out : (HTTPLog)-Static: isSBSettingEnabled false
39872016-10-18 12:53:52.630 INFO:   System.out : (HTTPLog)-Static: isShipBuild true
39882016-10-18 12:53:52.630 INFO:   System.out : (HTTPLog)-Thread-34970-833006293: SmartBonding Enabling is false, SHIP_BUILD is true, log to file is false, DBG is false
39892016-10-18 12:53:52.630 INFO:   System.out : (HTTPLog)-Static: isSBSettingEnabled false
39902016-10-18 12:53:52.640 DEBUG:  EnterpriseController : mIsMarkChainAdded is 0 mIsBlockChainAdded is 0 netId is 0
39912016-10-18 12:53:52.640 DEBUG:  Netd : getNetworkForDns: using netid 505 for uid 10018
39922016-10-18 12:53:52.660 DEBUG:  SurfaceFlinger : FPS : 15.38
39932016-10-18 12:53:52.660 WARN:   SurfaceFlinger : Fail to Open /sys/devices/platform/gpusysfs/fps
39942016-10-18 12:53:52.690 INFO:   System.out : KnoxVpnUidStorageknoxVpnSupported API value returned is false
39952016-10-18 12:53:52.780 ERROR:  Diag_Lib : Diag_LSM_Init: Failed to open handle to diag driver, error = 2
39962016-10-18 12:53:52.820 DEBUG:  StatusBar.NetworkController : refreshViews connected={ wifi } level=0 combinedSignalIconId=0x7f020517/com.android.systemui:drawable/stat_sys_wifi_signal_4 mobileLabel= wifiLabel="TestObject Devices"xxxxXXXXxxxxXXXX emergencyOnly=false combinedLabel="TestObject Devices"xxxxXXXXxxxxXXXX mAirplaneMode=true mDataActivity=0 mPhoneSignalIconId=0x0/(null) mQSPhoneSignalIconId=0x0/(null) mDataDirectionIconId=0x0/(null) mDataSignalIconId=0x0/(null) mDataTypeIconId=0x0/(null) mQSDataTypeIconId=0x0/(null) mNoSimIconId=0x0/(null) mWifiIconId=0x7f020517/com.android.systemui:drawable/stat_sys_wifi_signal_4 mQSWifiIconId=0x7f020143/com.android.systemui:drawable/ic_qs_wifi_4 mWifiActivityIconId=0x7f0204e8/com.android.systemui:drawable/stat_sys_signal_inout mBluetoothTetherIconId=0x10808cc/android:drawable/stat_sys_tether_bluetooth
39972016-10-18 12:53:52.820 DEBUG:  STATUSBAR-WifiQuickSettingButton : onWifiSignalChanged enabled=true enabledDesc:"TestObject Devices"
39982016-10-18 12:53:52.820 DEBUG:  StatusBar.NetworkController : refreshSignalCluster - setNWBoosterIndicators(false)
39992016-10-18 12:53:52.820 DEBUG:  StatusBar.NetworkController : applyOpen
40002016-10-18 12:53:52.830 DEBUG:  StatusBar.NetworkController : refreshSignalCluster - setNWBoosterIndicators(false)
40012016-10-18 12:53:52.830 DEBUG:  StatusBar.NetworkController : applyOpen
40022016-10-18 12:53:52.830 DEBUG:  StatusBar.NetworkController : refreshSignalCluster - setNWBoosterIndicators(false)
40032016-10-18 12:53:52.830 DEBUG:  StatusBar.NetworkController : applyOpen
40042016-10-18 12:53:52.830 DEBUG:  StatusBar.NetworkController : refreshSignalCluster - setNWBoosterIndicators(false)
40052016-10-18 12:53:52.830 DEBUG:  StatusBar.NetworkController : applyOpen
40062016-10-18 12:53:52.860 DEBUG:  SurfaceFlinger : FPS : 15.38
40072016-10-18 12:53:52.860 WARN:   SurfaceFlinger : Fail to Open /sys/devices/platform/gpusysfs/fps
40082016-10-18 12:53:52.930 INFO:   WindowManager : Screenshot max retries 4 of Token{39600289 ActivityRecord{34ad6990 u0 com.android.vending/com.google.android.finsky.activities.MainActivity t11692}} appWin=Window{1dd97c53 u0 Starting com.android.vending} drawState=4
40092016-10-18 12:53:52.930 ERROR:  ActivityManager : Invalid thumbnail dimensions: 576x576
40102016-10-18 12:53:52.940 DEBUG:  PowerManagerService : [input device light] setInputDeviceLightOn is called : 1
40112016-10-18 12:53:52.940 DEBUG:  PowerManagerService : [input device light] handleInputDeviceLightOn
40122016-10-18 12:53:53.000 DEBUG:  SurfaceFlinger : FPS : 5.87
40132016-10-18 12:53:53.000 WARN:   SurfaceFlinger : Fail to Open /sys/devices/platform/gpusysfs/fps
40142016-10-18 12:53:53.010 INFO:   TOOLKIT SERVICE : Request body '{"id":"1476780824133","type":"GET_SCREEN_ORIENTATION"}'
40152016-10-18 12:53:53.010 INFO:   DEVICE MANAGER : {"id":"1476780824133","type":"GET_SCREEN_ORIENTATION"}
40162016-10-18 12:53:53.020 INFO:   TOOLKIT SERVICE : Responding to client with: '{"id":"1476780824133","orientation":"PORTRAIT"}'
40172016-10-18 12:53:53.060 DEBUG:  SurfaceFlinger : FPS : 5.87
40182016-10-18 12:53:53.060 WARN:   SurfaceFlinger : Fail to Open /sys/devices/platform/gpusysfs/fps
40192016-10-18 12:53:53.070 INFO:   Adreno-EGL : <qeglDrvAPI_eglInitialize:410>: EGL 1.4 QUALCOMM build:  ()
40202016-10-18 12:53:53.070 INFO:   Adreno-EGL : OpenGL ES Shader Compiler Version: E031.25.03.06
40212016-10-18 12:53:53.070 INFO:   Adreno-EGL : Build Date: 01/24/15 Sat
40222016-10-18 12:53:53.070 INFO:   Adreno-EGL : Local Branch: AF11_RB1_AU15
40232016-10-18 12:53:53.070 INFO:   Adreno-EGL : Remote Branch:
40242016-10-18 12:53:53.070 INFO:   Adreno-EGL : Local Patches:
40252016-10-18 12:53:53.070 INFO:   Adreno-EGL : Reconstruct Branch:
40262016-10-18 12:53:53.070 INFO:   OpenGLRenderer : Initialized EGL, version 1.4
40272016-10-18 12:53:53.090 DEBUG:  SurfaceFlinger : FPS : 5.87
40282016-10-18 12:53:53.090 WARN:   SurfaceFlinger : Fail to Open /sys/devices/platform/gpusysfs/fps
40292016-10-18 12:53:53.110 INFO:   PlayCommon : [34970] com.google.android.play.a.w.a(27562): Log flushed by 1 successful uploads
40302016-10-18 12:53:53.180 DEBUG:  OpenGLRenderer : Enabling debug mode 0
40312016-10-18 12:53:53.250 DEBUG:  ConnectivityService : returning getActiveNetworkInfo :[type: WIFI[] - WIFI, state: CONNECTED/CONNECTED, reason: (unspecified), extra: "TestObject Devices", roaming: false, failover: false, isAvailable: true, isConnectedToProvisioningNetwork: false]
40322016-10-18 12:53:53.250 WARN:   Finsky : [1] com.google.android.finsky.FinskyApp.i(1465): No account configured on this device.
40332016-10-18 12:53:53.250 WARN:   Finsky : [1] com.google.android.finsky.FinskyApp.i(1465): No account configured on this device.
40342016-10-18 12:53:53.250 INFO:   Finsky : [1] com.google.android.finsky.utils.dq.a(74): Network quality prediction is disabled
40352016-10-18 12:53:53.250 WARN:   Finsky : [1] com.google.android.finsky.FinskyApp.i(1465): No account configured on this device.
40362016-10-18 12:53:53.260 ERROR:  ActivityManager : checkUser: useridlist=null, currentuser=0
40372016-10-18 12:53:53.260 ERROR:  ActivityManager : checkUser: useridlist=null, currentuser=0
40382016-10-18 12:53:53.260 ERROR:  ActivityManager : checkUser: useridlist=null, currentuser=0
40392016-10-18 12:53:53.260 ERROR:  ActivityManager : checkUser: useridlist=null, currentuser=0
40402016-10-18 12:53:53.270 ERROR:  Zygote : MountEmulatedStorage()
40412016-10-18 12:53:53.270 ERROR:  Zygote : v2
40422016-10-18 12:53:53.270 INFO:   libpersona : KNOX_SDCARD checking this for 10021
40432016-10-18 12:53:53.270 INFO:   libpersona : KNOX_SDCARD not a persona
40442016-10-18 12:53:53.270 INFO:   SELinux : Function: selinux_compare_spd_ram, SPD-policy is existed. and_ver=SEPF_GT-I9505_5.0.1-1 ver=51
40452016-10-18 12:53:53.280 INFO:   SELinux : Function: selinux_compare_spd_ram , priority [1] , priority version is VE=SEPF_GT-I9505_5.0.1-1_0051
40462016-10-18 12:53:53.280 ERROR:  SELinux : [DEBUG] get_category: variable seinfo: untrusted sensitivity: NULL, cateogry: NULL
40472016-10-18 12:53:53.280 INFO:   ActivityManager : Start proc com.google.android.gms.ui for activity com.google.android.gms/.auth.uiflows.common.UnpackingRedirectActivity: pid=27494 uid=10021 gids={50021, 9997, 2001, 3003, 1007, 3006, 1028, 1015, 3002, 3001, 3007} abi=armeabi-v7a
40482016-10-18 12:53:53.330 DEBUG:  SurfaceFlinger : FPS : 9.19
40492016-10-18 12:53:53.330 WARN:   SurfaceFlinger : Fail to Open /sys/devices/platform/gpusysfs/fps
40502016-10-18 12:53:53.330 DEBUG:  ConnectivityService : returning getNetworkInfo(networkType - 1) :[type: WIFI[] - WIFI, state: CONNECTED/CONNECTED, reason: (unspecified), extra: "TestObject Devices", roaming: false, failover: false, isAvailable: true, isConnectedToProvisioningNetwork: false]
40512016-10-18 12:53:53.340 WARN:   ActivityManager : mDVFSHelper.release()
40522016-10-18 12:53:53.340 INFO:   Timeline : Timeline: Activity_windows_visible id: ActivityRecord{34ad6990 u0 com.android.vending/com.google.android.finsky.activities.MainActivity t11692} time:502861428
40532016-10-18 12:53:53.350 DEBUG:  ResourcesManager : creating new AssetManager and set to /data/app/com.google.android.gms-1/base.apk
40542016-10-18 12:53:53.350 WARN:   ResourcesManager : Asset path '/system/framework/com.android.media.remotedisplay.jar' does not exist or contains no resources.
40552016-10-18 12:53:53.350 WARN:   ResourcesManager : Asset path '/system/framework/com.android.location.provider.jar' does not exist or contains no resources.
40562016-10-18 12:53:53.360 DEBUG:  SurfaceFlinger : FPS : 9.19
40572016-10-18 12:53:53.360 WARN:   SurfaceFlinger : Fail to Open /sys/devices/platform/gpusysfs/fps
40582016-10-18 12:53:53.410 INFO:   Timeline : Timeline: Activity_idle id: android.os.BinderProxy@bf7938c time:502861495
40592016-10-18 12:53:53.420 DEBUG:  SurfaceFlinger : FPS : 9.19
40602016-10-18 12:53:53.420 WARN:   SurfaceFlinger : Fail to Open /sys/devices/platform/gpusysfs/fps
40612016-10-18 12:53:53.500 INFO:   TOOLKIT SERVICE : Request body '{"id":"1476780824633","type":"GET_SCREEN_ORIENTATION"}'
40622016-10-18 12:53:53.500 INFO:   DEVICE MANAGER : {"id":"1476780824633","type":"GET_SCREEN_ORIENTATION"}
40632016-10-18 12:53:53.510 INFO:   TOOLKIT SERVICE : Responding to client with: '{"id":"1476780824633","orientation":"PORTRAIT"}'
40642016-10-18 12:53:53.671 INFO:   art : Explicit concurrent mark sweep GC freed 58303(3MB) AllocSpace objects, 27(4MB) LOS objects, 23% free, 50MB/66MB, paused 4.852ms total 228.912ms
40652016-10-18 12:53:53.751 INFO:   art : Rejecting re-init on previously-failed class java.lang.Class<com.google.android.gms.org.conscrypt.OpenSSLExtendedSessionImpl>
40662016-10-18 12:53:53.751 INFO:   art : Rejecting re-init on previously-failed class java.lang.Class<com.google.android.gms.org.conscrypt.OpenSSLExtendedSessionImpl>
40672016-10-18 12:53:53.791 WARN:   ActivityThread : ClassLoader.loadClass: The class loader returned by Thread.getContextClassLoader() may fail for processes that host multiple applications. You should explicitly specify a context class loader. For example: Thread.setContextClassLoader(getClass().getClassLoader());
40682016-10-18 12:53:53.801 WARN:   System : Could not create com.google.android.gms.org.conscrypt.OpenSSLSocketFactoryImpl with ClassLoader android.app.LoadedApk$WarningContextClassLoader@18c645d0: com.google.android.gms.org.conscrypt.OpenSSLSocketFactoryImpl
40692016-10-18 12:53:53.801 INFO:   ProviderInstaller : Installed default security provider GmsCore_OpenSSL
40702016-10-18 12:53:53.981 DEBUG:  ChimeraActivityProxy : Loading activity implementation for ComponentInfo{com.google.android.gms/com.google.android.gms.auth.uiflows.common.UnpackingRedirectActivity}
40712016-10-18 12:53:54.001 INFO:   TOOLKIT SERVICE : Request body '{"id":"1476780825133","type":"GET_SCREEN_ORIENTATION"}'
40722016-10-18 12:53:54.001 INFO:   DEVICE MANAGER : {"id":"1476780825133","type":"GET_SCREEN_ORIENTATION"}
40732016-10-18 12:53:54.011 INFO:   TOOLKIT SERVICE : Responding to client with: '{"id":"1476780825133","orientation":"PORTRAIT"}'
40742016-10-18 12:53:54.011 DEBUG:  ChimeraActivityProxy : Proxying container activity ComponentInfo{com.google.android.gms/com.google.android.gms.auth.uiflows.common.UnpackingRedirectActivity} to Chimera activity impl .auth.uiflows.common.UnpackingRedirectChimeraActivity
40752016-10-18 12:53:54.061 INFO:   ActivityManager : START u0 {cat=[categoryhack:1e396f12-0f6a-4093-824d-b4c218acca61] flg=0x2000000 cmp=com.google.android.gms/.auth.uiflows.addaccount.AccountIntroActivity (has extras)} from uid 10021 on display 0
40762016-10-18 12:53:54.061 WARN:   ActivityManager : mDVFSHelper.acquire()
40772016-10-18 12:53:54.061 DEBUG:  StatusBarManagerService : manageDisableList userId=0 what=0x0 pkg=WindowManager.LayoutParams
40782016-10-18 12:53:54.071 DEBUG:  PowerManagerService : [input device light] setInputDeviceLightOn is called : 1
40792016-10-18 12:53:54.071 DEBUG:  PowerManagerService : [input device light] handleInputDeviceLightOn
40802016-10-18 12:53:54.071 DEBUG:  Activity : performCreate Call secproduct feature valuefalse
40812016-10-18 12:53:54.071 DEBUG:  Activity : performCreate Call debug elastic valuetrue
40822016-10-18 12:53:54.101 DEBUG:  ChimeraActivityProxy : Loading activity implementation for ComponentInfo{com.google.android.gms/com.google.android.gms.auth.uiflows.addaccount.AccountIntroActivity}
40832016-10-18 12:53:54.101 DEBUG:  ChimeraActivityProxy : Proxying container activity ComponentInfo{com.google.android.gms/com.google.android.gms.auth.uiflows.addaccount.AccountIntroActivity} to Chimera activity impl .auth.uiflows.addaccount.AccountIntroChimeraActivity
40842016-10-18 12:53:54.171 DEBUG:  ConnectivityService : returning getActiveNetworkInfo :[type: WIFI[] - WIFI, state: CONNECTED/CONNECTED, reason: (unspecified), extra: "TestObject Devices", roaming: false, failover: false, isAvailable: true, isConnectedToProvisioningNetwork: false]
40852016-10-18 12:53:54.251 INFO:   Timeline : Timeline: Activity_launch_request id:com.google.android.gms time:502862332
40862016-10-18 12:53:54.251 ERROR:  PersonaManagerService : inState():  stateMachine is null !!
40872016-10-18 12:53:54.251 INFO:   PersonaManagerService : PersonaId don't exist
40882016-10-18 12:53:54.251 INFO:   ActivityManager : do not start freezing screen for locked container getKeyguardshowstate = false
40892016-10-18 12:53:54.271 ERROR:  Parcel : Class not found when unmarshalling: com.google.android.gms.auth.uiflows.addaccount.AddAccountController
40902016-10-18 12:53:54.271 ERROR:  Parcel : java.lang.ClassNotFoundException: com.google.android.gms.auth.uiflows.addaccount.AddAccountController
40912016-10-18 12:53:54.271 ERROR:  Parcel : at java.lang.Class.classForName(Native Method)
40922016-10-18 12:53:54.271 ERROR:  Parcel : at java.lang.Class.forName(Class.java:308)
40932016-10-18 12:53:54.271 ERROR:  Parcel : at java.lang.Class.forName(Class.java:272)
40942016-10-18 12:53:54.271 ERROR:  Parcel : at android.os.Parcel.readParcelableCreator(Parcel.java:2275)
40952016-10-18 12:53:54.271 ERROR:  Parcel : at android.os.Parcel.readParcelable(Parcel.java:2239)
40962016-10-18 12:53:54.271 ERROR:  Parcel : at android.os.Parcel.readValue(Parcel.java:2146)
40972016-10-18 12:53:54.271 ERROR:  Parcel : at android.os.Parcel.readArrayMapInternal(Parcel.java:2479)
40982016-10-18 12:53:54.271 ERROR:  Parcel : at android.os.BaseBundle.unparcel(BaseBundle.java:221)
40992016-10-18 12:53:54.271 ERROR:  Parcel : at android.os.BaseBundle.getString(BaseBundle.java:918)
41002016-10-18 12:53:54.271 ERROR:  Parcel : at android.content.Intent.getStringExtra(Intent.java:5386)
41012016-10-18 12:53:54.271 ERROR:  Parcel : at com.android.server.am.ActivityStackSupervisor.startActivityLocked(ActivityStackSupervisor.java:1780)
41022016-10-18 12:53:54.271 ERROR:  Parcel : at com.android.server.am.ActivityStackSupervisor.startActivityMayWait(ActivityStackSupervisor.java:1334)
41032016-10-18 12:53:54.271 ERROR:  Parcel : at com.android.server.am.ActivityManagerService.startActivityAsUser(ActivityManagerService.java:4802)
41042016-10-18 12:53:54.271 ERROR:  Parcel : at com.android.server.am.ActivityManagerService.startActivity(ActivityManagerService.java:4639)
41052016-10-18 12:53:54.271 ERROR:  Parcel : at android.app.ActivityManagerNative.onTransact(ActivityManagerNative.java:142)
41062016-10-18 12:53:54.271 ERROR:  Parcel : at com.android.server.am.ActivityManagerService.onTransact(ActivityManagerService.java:3139)
41072016-10-18 12:53:54.271 ERROR:  Parcel : at android.os.Binder.execTransact(Binder.java:446)
41082016-10-18 12:53:54.271 ERROR:  Parcel : Caused by: java.lang.ClassNotFoundException: Didn't find class "com.google.android.gms.auth.uiflows.addaccount.AddAccountController" on path: DexPathList[[directory "."],nativeLibraryDirectories=[/vendor/lib, /system/lib]]
41092016-10-18 12:53:54.271 ERROR:  Parcel : at dalvik.system.BaseDexClassLoader.findClass(BaseDexClassLoader.java:56)
41102016-10-18 12:53:54.271 ERROR:  Parcel : at java.lang.ClassLoader.loadClass(ClassLoader.java:511)
41112016-10-18 12:53:54.271 ERROR:  Parcel : at java.lang.ClassLoader.loadClass(ClassLoader.java:469)
41122016-10-18 12:53:54.271 ERROR:  Parcel : ... 17 more
41132016-10-18 12:53:54.271 ERROR:  Parcel : Suppressed: java.lang.ClassNotFoundException: com.google.android.gms.auth.uiflows.addaccount.AddAccountController
41142016-10-18 12:53:54.271 ERROR:  Parcel : at java.lang.Class.classForName(Native Method)
41152016-10-18 12:53:54.271 ERROR:  Parcel : at java.lang.BootClassLoader.findClass(ClassLoader.java:781)
41162016-10-18 12:53:54.271 ERROR:  Parcel : at java.lang.BootClassLoader.loadClass(ClassLoader.java:841)
41172016-10-18 12:53:54.271 ERROR:  Parcel : at java.lang.ClassLoader.loadClass(ClassLoader.java:504)
41182016-10-18 12:53:54.271 ERROR:  Parcel : ... 18 more
41192016-10-18 12:53:54.271 ERROR:  Parcel : Caused by: java.lang.NoClassDefFoundError: Class not found using the boot class loader; no stack available
41202016-10-18 12:53:54.271 INFO:   ActivityManager : START u0 {flg=0x2000000 cmp=com.google.android.gms/.auth.uiflows.addaccount.PreAddAccountActivity (has extras)} from uid 10021 on display 0
41212016-10-18 12:53:54.281 WARN:   ActivityManager : mDVFSHelper.acquire()
41222016-10-18 12:53:54.281 DEBUG:  StatusBarManagerService : manageDisableList userId=0 what=0x0 pkg=WindowManager.LayoutParams
41232016-10-18 12:53:54.281 DEBUG:  PowerManagerService : [input device light] setInputDeviceLightOn is called : 1
41242016-10-18 12:53:54.281 DEBUG:  PowerManagerService : [input device light] handleInputDeviceLightOn
41252016-10-18 12:53:54.291 DEBUG:  Activity : performCreate Call secproduct feature valuefalse
41262016-10-18 12:53:54.291 DEBUG:  Activity : performCreate Call debug elastic valuetrue
41272016-10-18 12:53:54.321 DEBUG:  ChimeraActivityProxy : Loading activity implementation for ComponentInfo{com.google.android.gms/com.google.android.gms.auth.uiflows.addaccount.PreAddAccountActivity}
41282016-10-18 12:53:54.321 DEBUG:  ChimeraActivityProxy : Proxying container activity ComponentInfo{com.google.android.gms/com.google.android.gms.auth.uiflows.addaccount.PreAddAccountActivity} to Chimera activity impl .auth.uiflows.addaccount.PreAddAccountChimeraActivity
41292016-10-18 12:53:54.341 DEBUG:  SurfaceFlinger : FPS : 2.96
41302016-10-18 12:53:54.341 WARN:   SurfaceFlinger : Fail to Open /sys/devices/platform/gpusysfs/fps
41312016-10-18 12:53:54.381 DEBUG:  SurfaceFlinger : FPS : 2.96
41322016-10-18 12:53:54.381 WARN:   SurfaceFlinger : Fail to Open /sys/devices/platform/gpusysfs/fps
41332016-10-18 12:53:54.501 INFO:   TOOLKIT SERVICE : Request body '{"id":"1476780825633","type":"GET_SCREEN_ORIENTATION"}'
41342016-10-18 12:53:54.501 INFO:   DEVICE MANAGER : {"id":"1476780825633","type":"GET_SCREEN_ORIENTATION"}
41352016-10-18 12:53:54.501 INFO:   TOOLKIT SERVICE : Responding to client with: '{"id":"1476780825633","orientation":"PORTRAIT"}'
41362016-10-18 12:53:54.541 DEBUG:  Activity : performCreate Call secproduct feature valuefalse
41372016-10-18 12:53:54.541 DEBUG:  Activity : performCreate Call debug elastic valuetrue
41382016-10-18 12:53:54.572 DEBUG:  ActivityManager : startService callerProcessName:com.google.android.gms, calleePkgName: com.google.android.gms
41392016-10-18 12:53:54.572 DEBUG:  OpenGLRenderer : Render dirty regions requested: true
41402016-10-18 12:53:54.582 DEBUG:  PowerManagerService : [input device light] setInputDeviceLightOn is called : 1
41412016-10-18 12:53:54.582 DEBUG:  PowerManagerService : [input device light] handleInputDeviceLightOn
41422016-10-18 12:53:54.592 DEBUG:  PowerManagerService : [input device light] setInputDeviceLightOn is called : 1
41432016-10-18 12:53:54.592 DEBUG:  PowerManagerService : [input device light] handleInputDeviceLightOn
41442016-10-18 12:53:54.592 DEBUG:  PowerManagerService : [input device light] setInputDeviceLightOn is called : 1
41452016-10-18 12:53:54.592 DEBUG:  PowerManagerService : [input device light] handleInputDeviceLightOn
41462016-10-18 12:53:54.592 DEBUG:  ActivityManager : post active user change for 0
41472016-10-18 12:53:54.592 DEBUG:  KnoxTimeoutHandler : postActiveUserChange for user 0
41482016-10-18 12:53:54.592 DEBUG:  KnoxTimeoutHandler : handleActiveUserChange for user 0
41492016-10-18 12:53:54.612 INFO:   CheckinChimeraService : Checking schedule, now: 1476780834623 next: 1476772852113
41502016-10-18 12:53:54.612 INFO:   CheckinChimeraService : active receiver: enabled
41512016-10-18 12:53:54.612 DEBUG:  StatusBarManagerService : manageDisableList userId=0 what=0x400000 pkg=WindowManager.LayoutParams
41522016-10-18 12:53:54.622 DEBUG:  SecContentProvider2 : uri = 14 selection = getSealedState
41532016-10-18 12:53:54.622 DEBUG:  SecContentProvider2 : mCursor = null
41542016-10-18 12:53:54.622 DEBUG:  SurfaceFlinger : FPS : 7.10
41552016-10-18 12:53:54.622 WARN:   SurfaceFlinger : Fail to Open /sys/devices/platform/gpusysfs/fps
41562016-10-18 12:53:54.622 DEBUG:  PhoneStatusBar : disable: < expand icons alerts system_info BACK* home recent clock search >
41572016-10-18 12:53:54.622 DEBUG:  SecContentProvider2 : uri = 14 selection = getSealedState
41582016-10-18 12:53:54.622 DEBUG:  SecContentProvider2 : mCursor = null
41592016-10-18 12:53:54.622 DEBUG:  SecContentProvider2 : uri = 14 selection = getSealedState
41602016-10-18 12:53:54.622 DEBUG:  SecContentProvider2 : mCursor = null
41612016-10-18 12:53:54.622 DEBUG:  SecContentProvider2 : uri = 14 selection = getSealedState
41622016-10-18 12:53:54.622 DEBUG:  SecContentProvider2 : mCursor = null
41632016-10-18 12:53:54.632 DEBUG:  StatusBar-DoNotDistrub : isDisableAlert isDormantModeOn:false isNotificationDisabled:true
41642016-10-18 12:53:54.642 DEBUG:  SurfaceFlinger : FPS : 7.10
41652016-10-18 12:53:54.642 WARN:   SurfaceFlinger : Fail to Open /sys/devices/platform/gpusysfs/fps
41662016-10-18 12:53:54.642 DEBUG:  PointerIcon : setMouseIconStyle1 pointerType: 1001iconType:101 flag:0
41672016-10-18 12:53:54.642 DEBUG:  PointerIcon : setMouseCustomIcon IconType is same.101
41682016-10-18 12:53:54.642 DEBUG:  PointerIcon : setHoveringSpenIconStyle1 pointerType: 10001iconType:1 flag:0
41692016-10-18 12:53:54.642 DEBUG:  PointerIcon : setHoveringSpenCustomIcon IconType is same.1
41702016-10-18 12:53:54.642 INFO:   Adreno-EGL : <qeglDrvAPI_eglInitialize:410>: EGL 1.4 QUALCOMM build:  ()
41712016-10-18 12:53:54.642 INFO:   Adreno-EGL : OpenGL ES Shader Compiler Version: E031.25.03.06
41722016-10-18 12:53:54.642 INFO:   Adreno-EGL : Build Date: 01/24/15 Sat
41732016-10-18 12:53:54.642 INFO:   Adreno-EGL : Local Branch: AF11_RB1_AU15
41742016-10-18 12:53:54.642 INFO:   Adreno-EGL : Remote Branch:
41752016-10-18 12:53:54.642 INFO:   Adreno-EGL : Local Patches:
41762016-10-18 12:53:54.642 INFO:   Adreno-EGL : Reconstruct Branch:
41772016-10-18 12:53:54.642 INFO:   OpenGLRenderer : Initialized EGL, version 1.4
41782016-10-18 12:53:54.642 DEBUG:  ConnectivityService : returning getActiveNetworkInfo :[type: WIFI[] - WIFI, state: CONNECTED/CONNECTED, reason: (unspecified), extra: "TestObject Devices", roaming: false, failover: false, isAvailable: true, isConnectedToProvisioningNetwork: false]
41792016-10-18 12:53:54.642 INFO:   CheckinChimeraService : Preparing to send checkin request
41802016-10-18 12:53:54.652 INFO:   EventLogChimeraService : Accumulating logs since 1476779072409
41812016-10-18 12:53:54.672 DEBUG:  SurfaceFlinger : FPS : 7.10
41822016-10-18 12:53:54.672 WARN:   SurfaceFlinger : Fail to Open /sys/devices/platform/gpusysfs/fps
41832016-10-18 12:53:54.672 DEBUG:  OpenGLRenderer : Enabling debug mode 0
41842016-10-18 12:53:54.682 DEBUG:  ALSADevice : standby: handle 0xb3c57700 h 0x0
41852016-10-18 12:53:54.752 INFO:   CheckinRequestBuilder : Checkin reason type: 9 attempt count: 1
41862016-10-18 12:53:54.752 ERROR:  ActivityThread : Failed to find provider info for com.google.android.wearable.settings
41872016-10-18 12:53:54.812 ERROR:  SQLiteLog : (283) recovered 900 frames from WAL file /data/user/0/com.google.android.gsf/databases/googlesettings.db-wal
41882016-10-18 12:53:54.832 DEBUG:  StatusBar.NetworkController : refreshViews connected={ wifi } level=0 combinedSignalIconId=0x7f020517/com.android.systemui:drawable/stat_sys_wifi_signal_4 mobileLabel= wifiLabel="TestObject Devices"xxxxXXXXxxxxXXXX emergencyOnly=false combinedLabel="TestObject Devices"xxxxXXXXxxxxXXXX mAirplaneMode=true mDataActivity=0 mPhoneSignalIconId=0x0/(null) mQSPhoneSignalIconId=0x0/(null) mDataDirectionIconId=0x0/(null) mDataSignalIconId=0x0/(null) mDataTypeIconId=0x0/(null) mQSDataTypeIconId=0x0/(null) mNoSimIconId=0x0/(null) mWifiIconId=0x7f020517/com.android.systemui:drawable/stat_sys_wifi_signal_4 mQSWifiIconId=0x7f020143/com.android.systemui:drawable/ic_qs_wifi_4 mWifiActivityIconId=0x7f0204e6/com.android.systemui:drawable/stat_sys_signal_in mBluetoothTetherIconId=0x10808cc/android:drawable/stat_sys_tether_bluetooth
41892016-10-18 12:53:54.832 DEBUG:  STATUSBAR-WifiQuickSettingButton : onWifiSignalChanged enabled=true enabledDesc:"TestObject Devices"
41902016-10-18 12:53:54.832 DEBUG:  StatusBar.NetworkController : refreshSignalCluster - setNWBoosterIndicators(false)
41912016-10-18 12:53:54.832 DEBUG:  StatusBar.NetworkController : applyOpen
41922016-10-18 12:53:54.832 DEBUG:  StatusBar.NetworkController : refreshSignalCluster - setNWBoosterIndicators(false)
41932016-10-18 12:53:54.832 DEBUG:  StatusBar.NetworkController : applyOpen
41942016-10-18 12:53:54.832 DEBUG:  StatusBar.NetworkController : refreshSignalCluster - setNWBoosterIndicators(false)
41952016-10-18 12:53:54.832 DEBUG:  StatusBar.NetworkController : applyOpen
41962016-10-18 12:53:54.832 DEBUG:  StatusBar.NetworkController : refreshSignalCluster - setNWBoosterIndicators(false)
41972016-10-18 12:53:54.832 DEBUG:  StatusBar.NetworkController : applyOpen
41982016-10-18 12:53:54.842 DEBUG:  alsa_ucm : snd_use_case_set(): uc_mgr 0xb3c18510 identifier _verb value Inactive
41992016-10-18 12:53:54.842 DEBUG:  alsa_ucm : Set mixer controls for HiFi enable 0
42002016-10-18 12:53:54.842 DEBUG:  alsa_ucm : Setting mixer control: SLIMBUS_0_RX Audio Mixer MultiMedia1, value: 0
42012016-10-18 12:53:54.842 DEBUG:  alsa_ucm : snd_use_case_set(): uc_mgr 0xb3c18510 identifier _disdev value Main Mic
42022016-10-18 12:53:54.842 DEBUG:  alsa_ucm : disdev: device Main Mic not enabled, no need to disable
42032016-10-18 12:53:54.842 DEBUG:  alsa_ucm : snd_use_case_set(): uc_mgr 0xb3c18510 identifier _disdev value Speaker
42042016-10-18 12:53:54.842 DEBUG:  alsa_ucm : Set mixer controls for Speaker enable 0
42052016-10-18 12:53:54.842 DEBUG:  alsa_ucm : Setting mixer control: RX5 MIX1 INP1, value: ZERO
42062016-10-18 12:53:54.852 DEBUG:  alsa_ucm : Setting mixer control: RX5 MIX1 INP2, value: ZERO
42072016-10-18 12:53:54.852 DEBUG:  alsa_ucm : Setting mixer control: LINEOUT2 Volume, value: 0
42082016-10-18 12:53:54.852 DEBUG:  alsa_ucm : Setting mixer control: LINEOUT4 Volume, value: 0
42092016-10-18 12:53:54.852 DEBUG:  alsa_ucm : Setting mixer control: RX5 Digital Volume, value: 0
42102016-10-18 12:53:54.852 DEBUG:  PowerManagerService : [input device light] setInputDeviceLightOn is called : 1
42112016-10-18 12:53:54.852 DEBUG:  PowerManagerService : [input device light] handleInputDeviceLightOn
42122016-10-18 12:53:54.852 DEBUG:  SurfaceFlinger : FPS : 7.10
42132016-10-18 12:53:54.852 WARN:   SurfaceFlinger : Fail to Open /sys/devices/platform/gpusysfs/fps
42142016-10-18 12:53:54.902 DEBUG:  InputMethodManagerService : windowGainedFocus mCurrentFocusedUserId - 0 and mSecureKeypadEnabled-false
42152016-10-18 12:53:54.912 WARN:   ContextImpl : Calling a method in the system process without a qualified user: android.app.ContextImpl.sendBroadcast:1699 com.android.server.InputMethodManagerService$6.run:2733 java.lang.Thread.run:818 <bottom of call stack> <bottom of call stack>
42162016-10-18 12:53:54.922 INFO:   ActivityManager : Displayed com.google.android.gms/.auth.uiflows.addaccount.PreAddAccountActivity: +623ms (total +20s835ms)
42172016-10-18 12:53:54.922 WARN:   ActivityManager : mDVFSHelper.release()
42182016-10-18 12:53:54.922 INFO:   Timeline : Timeline: Activity_windows_visible id: ActivityRecord{2dd4fc23 u0 com.google.android.gms/.auth.uiflows.addaccount.PreAddAccountActivity t11692} time:502863003
42192016-10-18 12:53:54.922 DEBUG:  SurfaceFlinger : FPS : 13.38
42202016-10-18 12:53:54.922 WARN:   SurfaceFlinger : Fail to Open /sys/devices/platform/gpusysfs/fps
42212016-10-18 12:53:54.942 DEBUG:  SurfaceFlinger : FPS : 13.38
42222016-10-18 12:53:54.942 WARN:   SurfaceFlinger : Fail to Open /sys/devices/platform/gpusysfs/fps
42232016-10-18 12:53:54.952 DEBUG:  SurfaceFlinger : FPS : 13.38
42242016-10-18 12:53:54.952 WARN:   SurfaceFlinger : Fail to Open /sys/devices/platform/gpusysfs/fps
42252016-10-18 12:53:54.952 INFO:   Timeline : Timeline: Activity_launch_request id:com.google.android.gms time:502863038
42262016-10-18 12:53:54.952 ERROR:  PersonaManagerService : inState():  stateMachine is null !!
42272016-10-18 12:53:54.952 INFO:   PersonaManagerService : PersonaId don't exist
42282016-10-18 12:53:54.952 INFO:   ActivityManager : do not start freezing screen for locked container getKeyguardshowstate = false
42292016-10-18 12:53:54.962 ERROR:  Parcel : Class not found when unmarshalling: com.google.android.gms.auth.uiflows.addaccount.AddAccountController
42302016-10-18 12:53:54.962 ERROR:  Parcel : java.lang.ClassNotFoundException: com.google.android.gms.auth.uiflows.addaccount.AddAccountController
42312016-10-18 12:53:54.962 ERROR:  Parcel : at java.lang.Class.classForName(Native Method)
42322016-10-18 12:53:54.962 ERROR:  Parcel : at java.lang.Class.forName(Class.java:308)
42332016-10-18 12:53:54.962 ERROR:  Parcel : at java.lang.Class.forName(Class.java:272)
42342016-10-18 12:53:54.962 ERROR:  Parcel : at android.os.Parcel.readParcelableCreator(Parcel.java:2275)
42352016-10-18 12:53:54.962 ERROR:  Parcel : at android.os.Parcel.readParcelable(Parcel.java:2239)
42362016-10-18 12:53:54.962 ERROR:  Parcel : at android.os.Parcel.readValue(Parcel.java:2146)
42372016-10-18 12:53:54.962 ERROR:  Parcel : at android.os.Parcel.readArrayMapInternal(Parcel.java:2479)
42382016-10-18 12:53:54.962 ERROR:  Parcel : at android.os.BaseBundle.unparcel(BaseBundle.java:221)
42392016-10-18 12:53:54.962 ERROR:  Parcel : at android.os.BaseBundle.getString(BaseBundle.java:918)
42402016-10-18 12:53:54.962 ERROR:  Parcel : at android.content.Intent.getStringExtra(Intent.java:5386)
42412016-10-18 12:53:54.962 ERROR:  Parcel : at com.android.server.am.ActivityStackSupervisor.startActivityLocked(ActivityStackSupervisor.java:1780)
42422016-10-18 12:53:54.962 ERROR:  Parcel : at com.android.server.am.ActivityStackSupervisor.startActivityMayWait(ActivityStackSupervisor.java:1334)
42432016-10-18 12:53:54.962 ERROR:  Parcel : at com.android.server.am.ActivityManagerService.startActivityAsUser(ActivityManagerService.java:4802)
42442016-10-18 12:53:54.962 ERROR:  Parcel : at com.android.server.am.ActivityManagerService.startActivity(ActivityManagerService.java:4639)
42452016-10-18 12:53:54.962 ERROR:  Parcel : at android.app.ActivityManagerNative.onTransact(ActivityManagerNative.java:142)
42462016-10-18 12:53:54.962 ERROR:  Parcel : at com.android.server.am.ActivityManagerService.onTransact(ActivityManagerService.java:3139)
42472016-10-18 12:53:54.962 ERROR:  Parcel : at android.os.Binder.execTransact(Binder.java:446)
42482016-10-18 12:53:54.962 ERROR:  Parcel : Caused by: java.lang.ClassNotFoundException: Didn't find class "com.google.android.gms.auth.uiflows.addaccount.AddAccountController" on path: DexPathList[[directory "."],nativeLibraryDirectories=[/vendor/lib, /system/lib]]
42492016-10-18 12:53:54.962 ERROR:  Parcel : at dalvik.system.BaseDexClassLoader.findClass(BaseDexClassLoader.java:56)
42502016-10-18 12:53:54.962 ERROR:  Parcel : at java.lang.ClassLoader.loadClass(ClassLoader.java:511)
42512016-10-18 12:53:54.962 ERROR:  Parcel : at java.lang.ClassLoader.loadClass(ClassLoader.java:469)
42522016-10-18 12:53:54.962 ERROR:  Parcel : ... 17 more
42532016-10-18 12:53:54.962 ERROR:  Parcel : Suppressed: java.lang.ClassNotFoundException: com.google.android.gms.auth.uiflows.addaccount.AddAccountController
42542016-10-18 12:53:54.962 ERROR:  Parcel : at java.lang.Class.classForName(Native Method)
42552016-10-18 12:53:54.962 ERROR:  Parcel : at java.lang.BootClassLoader.findClass(ClassLoader.java:781)
42562016-10-18 12:53:54.962 ERROR:  Parcel : at java.lang.BootClassLoader.loadClass(ClassLoader.java:841)
42572016-10-18 12:53:54.962 ERROR:  Parcel : at java.lang.ClassLoader.loadClass(ClassLoader.java:504)
42582016-10-18 12:53:54.962 ERROR:  Parcel : ... 18 more
42592016-10-18 12:53:54.962 ERROR:  Parcel : Caused by: java.lang.NoClassDefFoundError: Class not found using the boot class loader; no stack available
42602016-10-18 12:53:54.962 INFO:   ActivityManager : START u0 {flg=0x2000000 cmp=com.google.android.gms/.auth.uiflows.minutemaid.MinuteMaidActivity (has extras)} from uid 10021 on display 0
42612016-10-18 12:53:54.962 WARN:   ActivityManager : mDVFSHelper.acquire()
42622016-10-18 12:53:54.972 DEBUG:  SurfaceFlinger : FPS : 13.38
42632016-10-18 12:53:54.972 WARN:   SurfaceFlinger : Fail to Open /sys/devices/platform/gpusysfs/fps
42642016-10-18 12:53:54.972 DEBUG:  PowerManagerService : [input device light] setInputDeviceLightOn is called : 1
42652016-10-18 12:53:54.972 DEBUG:  PowerManagerService : [input device light] handleInputDeviceLightOn
42662016-10-18 12:53:54.982 DEBUG:  PointerIcon : setMouseIconStyle1 pointerType: 1001iconType:101 flag:0
42672016-10-18 12:53:54.982 DEBUG:  PointerIcon : setMouseCustomIcon IconType is same.101
42682016-10-18 12:53:54.982 DEBUG:  PointerIcon : setHoveringSpenIconStyle1 pointerType: 10001iconType:1 flag:0
42692016-10-18 12:53:54.982 DEBUG:  PointerIcon : setHoveringSpenCustomIcon IconType is same.1
42702016-10-18 12:53:55.002 INFO:   TOOLKIT SERVICE : Request body '{"id":"1476780826133","type":"GET_SCREEN_ORIENTATION"}'
42712016-10-18 12:53:55.002 INFO:   DEVICE MANAGER : {"id":"1476780826133","type":"GET_SCREEN_ORIENTATION"}
42722016-10-18 12:53:55.002 DEBUG:  SurfaceFlinger : FPS : 13.38
42732016-10-18 12:53:55.002 WARN:   SurfaceFlinger : Fail to Open /sys/devices/platform/gpusysfs/fps
42742016-10-18 12:53:55.022 INFO:   TOOLKIT SERVICE : Responding to client with: '{"id":"1476780826133","orientation":"PORTRAIT"}'
42752016-10-18 12:53:55.022 DEBUG:  ChimeraActivityProxy : Loading activity implementation for ComponentInfo{com.google.android.gms/com.google.android.gms.auth.uiflows.minutemaid.MinuteMaidActivity}
42762016-10-18 12:53:55.022 DEBUG:  ChimeraActivityProxy : Proxying container activity ComponentInfo{com.google.android.gms/com.google.android.gms.auth.uiflows.minutemaid.MinuteMaidActivity} to Chimera activity impl .auth.uiflows.minutemaid.MinuteMaidChimeraActivity
42772016-10-18 12:53:55.032 DEBUG:  ConnectivityService : returning getActiveNetworkInfo :[type: WIFI[] - WIFI, state: CONNECTED/CONNECTED, reason: (unspecified), extra: "TestObject Devices", roaming: false, failover: false, isAvailable: true, isConnectedToProvisioningNetwork: false]
42782016-10-18 12:53:55.032 DEBUG:  SurfaceFlinger : FPS : 13.38
42792016-10-18 12:53:55.032 WARN:   SurfaceFlinger : Fail to Open /sys/devices/platform/gpusysfs/fps
42802016-10-18 12:53:55.042 DEBUG:  ResourcesManager : creating new AssetManager and set to /system/priv-app/GoogleServicesFramework/GoogleServicesFramework.apk
42812016-10-18 12:53:55.082 ERROR:  ActivityManager : checkUser: useridlist=null, currentuser=0
42822016-10-18 12:53:55.082 ERROR:  ActivityManager : checkUser: useridlist=null, currentuser=0
42832016-10-18 12:53:55.082 ERROR:  ActivityManager : checkUser: useridlist=null, currentuser=0
42842016-10-18 12:53:55.082 ERROR:  ActivityManager : checkUser: useridlist=null, currentuser=0
42852016-10-18 12:53:55.102 ERROR:  Zygote : MountEmulatedStorage()
42862016-10-18 12:53:55.112 ERROR:  Zygote : v2
42872016-10-18 12:53:55.112 INFO:   libpersona : KNOX_SDCARD checking this for 10021
42882016-10-18 12:53:55.112 INFO:   libpersona : KNOX_SDCARD not a persona
42892016-10-18 12:53:55.112 INFO:   SELinux : Function: selinux_compare_spd_ram, SPD-policy is existed. and_ver=SEPF_GT-I9505_5.0.1-1 ver=51
42902016-10-18 12:53:55.112 INFO:   ActivityManager : Start proc com.google.android.gms.unstable for service com.google.android.gms/.droidguard.DroidGuardService: pid=27537 uid=10021 gids={50021, 9997, 2001, 3003, 1007, 3006, 1028, 1015, 3002, 3001, 3007} abi=armeabi-v7a
42912016-10-18 12:53:55.112 INFO:   SELinux : Function: selinux_compare_spd_ram , priority [1] , priority version is VE=SEPF_GT-I9505_5.0.1-1_0051
42922016-10-18 12:53:55.112 ERROR:  SELinux : [DEBUG] get_category: variable seinfo: untrusted sensitivity: NULL, cateogry: NULL
42932016-10-18 12:53:55.142 DEBUG:  ResourcesManager : creating new AssetManager and set to /data/app/com.google.android.gms-1/base.apk
42942016-10-18 12:53:55.152 WARN:   ResourcesManager : Asset path '/system/framework/com.android.media.remotedisplay.jar' does not exist or contains no resources.
42952016-10-18 12:53:55.152 WARN:   ResourcesManager : Asset path '/system/framework/com.android.location.provider.jar' does not exist or contains no resources.
42962016-10-18 12:53:55.162 DEBUG:  Activity : performCreate Call secproduct feature valuefalse
42972016-10-18 12:53:55.162 DEBUG:  Activity : performCreate Call debug elastic valuetrue
42982016-10-18 12:53:55.282 INFO:   art : Background sticky concurrent mark sweep GC freed 35029(2MB) AllocSpace objects, 4(684KB) LOS objects, 11% free, 22MB/25MB, paused 11.169ms total 97.991ms
42992016-10-18 12:53:55.292 INFO:   WebViewFactory : Loading com.google.android.webview version 51.0.2704.81 (code 270408100)
43002016-10-18 12:53:55.292 DEBUG:  ResourcesManager : creating new AssetManager and set to /data/app/com.google.android.webview-1/base.apk
43012016-10-18 12:53:55.322 INFO:   art : Rejecting re-init on previously-failed class java.lang.Class<com.google.android.gms.org.conscrypt.OpenSSLExtendedSessionImpl>
43022016-10-18 12:53:55.322 INFO:   art : Rejecting re-init on previously-failed class java.lang.Class<com.google.android.gms.org.conscrypt.OpenSSLExtendedSessionImpl>
43032016-10-18 12:53:55.342 INFO:   cr_LibraryLoader : Time to load native libraries: 10 ms (timestamps 3413-3423)
43042016-10-18 12:53:55.342 INFO:   cr_LibraryLoader : Expected native library version number "51.0.2704.81", actual native library version number "51.0.2704.81"
43052016-10-18 12:53:55.382 WARN:   ActivityThread : ClassLoader.loadClass: The class loader returned by Thread.getContextClassLoader() may fail for processes that host multiple applications. You should explicitly specify a context class loader. For example: Thread.setContextClassLoader(getClass().getClassLoader());
43062016-10-18 12:53:55.382 WARN:   System : Could not create com.google.android.gms.org.conscrypt.OpenSSLSocketFactoryImpl with ClassLoader android.app.LoadedApk$WarningContextClassLoader@18c645d0: com.google.android.gms.org.conscrypt.OpenSSLSocketFactoryImpl
43072016-10-18 12:53:55.382 INFO:   ProviderInstaller : Installed default security provider GmsCore_OpenSSL
43082016-10-18 12:53:55.392 INFO:   cr_LibraryLoader : Expected native library version number "51.0.2704.81", actual native library version number "51.0.2704.81"
43092016-10-18 12:53:55.402 INFO:   chromium : [INFO:library_loader_hooks.cc(143)] Chromium logging enabled: level = 0, default verbosity = 0
43102016-10-18 12:53:55.432 DEBUG:  ConnectivityService : returning getActiveNetworkInfo :[type: WIFI[] - WIFI, state: CONNECTED/CONNECTED, reason: (unspecified), extra: "TestObject Devices", roaming: false, failover: false, isAvailable: true, isConnectedToProvisioningNetwork: false]
43112016-10-18 12:53:55.432 DEBUG:  ConnectivityService : returning getActiveNetworkInfo :[type: WIFI[] - WIFI, state: CONNECTED/CONNECTED, reason: (unspecified), extra: "TestObject Devices", roaming: false, failover: false, isAvailable: true, isConnectedToProvisioningNetwork: false]
43122016-10-18 12:53:55.432 DEBUG:  ConnectivityService : returning getActiveNetworkInfo :[type: WIFI[] - WIFI, state: CONNECTED/CONNECTED, reason: (unspecified), extra: "TestObject Devices", roaming: false, failover: false, isAvailable: true, isConnectedToProvisioningNetwork: false]
43132016-10-18 12:53:55.442 INFO:   cr_BrowserStartup : Initializing chromium process, singleProcess=true
43142016-10-18 12:53:55.472 ERROR:  ApkAssets : Error while loading asset assets/natives_blob_64.bin: java.io.FileNotFoundException: assets/natives_blob_64.bin
43152016-10-18 12:53:55.472 ERROR:  ApkAssets : Error while loading asset assets/snapshot_blob_64.bin: java.io.FileNotFoundException: assets/snapshot_blob_64.bin
43162016-10-18 12:53:55.472 DEBUG:  ConnectivityService : returning getActiveNetworkInfo :[type: WIFI[] - WIFI, state: CONNECTED/CONNECTED, reason: (unspecified), extra: "TestObject Devices", roaming: false, failover: false, isAvailable: true, isConnectedToProvisioningNetwork: false]
43172016-10-18 12:53:55.492 INFO:   art : Rejecting re-init on previously-failed class java.lang.Class<khe>
43182016-10-18 12:53:55.502 INFO:   art : Rejecting re-init on previously-failed class java.lang.Class<khe>
43192016-10-18 12:53:55.502 INFO:   TOOLKIT SERVICE : Request body '{"id":"1476780826633","type":"GET_SCREEN_ORIENTATION"}'
43202016-10-18 12:53:55.502 INFO:   DEVICE MANAGER : {"id":"1476780826633","type":"GET_SCREEN_ORIENTATION"}
43212016-10-18 12:53:55.512 INFO:   TOOLKIT SERVICE : Responding to client with: '{"id":"1476780826633","orientation":"PORTRAIT"}'
43222016-10-18 12:53:55.573 DEBUG:  WVCdm : Instantiating CDM.
43232016-10-18 12:53:55.573 INFO:   WVCdm : CdmEngine::OpenSession
43242016-10-18 12:53:55.583 INFO:   WVCdm : Level3 Library Sep 25 2014 17:10:03
43252016-10-18 12:53:55.583 WARN:   WVCdm : Could not read /data/mediadrm/IDM1013/ay64.dat2: No such file or directory
43262016-10-18 12:53:55.623 DEBUG:  DrmWidevineDash : OEMCrypto_Initialize: starts! g_qsee_apps_version = 0x13
43272016-10-18 12:53:55.623 DEBUG:  DrmWidevineDash : Service_Initialize: starts!
43282016-10-18 12:53:55.623 DEBUG:  QSEECOMAPI: : QSEECom_start_app sb_length = 0x19000
43292016-10-18 12:53:55.623 DEBUG:  QSEECOMAPI: : App is not loaded in QSEE
43302016-10-18 12:53:55.623 DEBUG:  BluetoothAdapter : 706447069: getState() :  mService = null. Returning STATE_OFF
43312016-10-18 12:53:55.623 ERROR:  QSEECOMAPI: : Error::Cannot open the file /vendor/firmware/tzapps.mdt
43322016-10-18 12:53:55.623 ERROR:  QSEECOMAPI: : Error::Loading image failed with ret = -1
43332016-10-18 12:53:55.623 DEBUG:  QSEECOMAPI: : QSEECom_start_app sb_length = 0x19000
43342016-10-18 12:53:55.623 DEBUG:  QSEECOMAPI: : App is not loaded in QSEE
43352016-10-18 12:53:55.653 INFO:   art : Rejecting re-init on previously-failed class java.lang.Class<com.android.webview.chromium.WebViewContentsClientAdapter$WebResourceErrorImpl>
43362016-10-18 12:53:55.653 INFO:   art : Rejecting re-init on previously-failed class java.lang.Class<com.android.webview.chromium.WebViewContentsClientAdapter$WebResourceErrorImpl>
43372016-10-18 12:53:55.673 DEBUG:  QSEECOMAPI: : Loaded image: APP id = 4
43382016-10-18 12:53:55.673 DEBUG:  DrmWidevineDash : Service_Initialize: ends! returns 0
43392016-10-18 12:53:55.673 DEBUG:  DrmWidevineDash : OEMCrypto_Initialize sion_buffer g_wv_fhandle->ion_sbuffer  0x0xad39d000
43402016-10-18 12:53:55.673 ERROR:  DrmWidevineDash : sion_buffer g_wv_fhandle->ion_sbuffer  0x0xad39d000
43412016-10-18 12:53:55.693 DEBUG:  DrmWidevineDash : OEMCrypto_Initialize: ends! returns 0
43422016-10-18 12:53:55.693 DEBUG:  DrmWidevineDash : OEMCrypto_APIVersion: starts!
43432016-10-18 12:53:55.703 DEBUG:  DrmWidevineDash : hlos api version =  9
43442016-10-18 12:53:55.703 DEBUG:  DrmWidevineDash : tz api version =  8
43452016-10-18 12:53:55.703 DEBUG:  DrmWidevineDash : OEMCrypto_APIVersion: ends! returns version 9
43462016-10-18 12:53:55.703 DEBUG:  DrmWidevineDash : OEMCrypto_IsKeyboxValid: starts!
43472016-10-18 12:53:55.723 DEBUG:  ConnectivityService : returning getActiveNetworkInfo :[type: WIFI[] - WIFI, state: CONNECTED/CONNECTED, reason: (unspecified), extra: "TestObject Devices", roaming: false, failover: false, isAvailable: true, isConnectedToProvisioningNetwork: false]
43482016-10-18 12:53:55.733 DEBUG:  ConnectivityService : listenForNetwork for NetworkRequest [ id=76, legacyType=-1, [ Capabilities: INTERNET&NOT_RESTRICTED&TRUSTED&NOT_VPN] ]
43492016-10-18 12:53:55.733 DEBUG:  ConnectivityService : handleRegisterNetworkRequest checking NetworkAgentInfo [WIFI_P2P () - 501]
43502016-10-18 12:53:55.733 DEBUG:  ConnectivityService : handleRegisterNetworkRequest checking NetworkAgentInfo [WIFI () - 505]
43512016-10-18 12:53:55.733 DEBUG:  ConnectivityService : apparently satisfied.  currentScore=100
43522016-10-18 12:53:55.733 DEBUG:  ConnectivityService : sending notification AVAILABLE for NetworkRequest [ id=76, legacyType=-1, [ Capabilities: INTERNET&NOT_RESTRICTED&TRUSTED&NOT_VPN] ]
43532016-10-18 12:53:55.733 DEBUG:  ConnectivityManager.CallbackHandler : CM callback handler got msg 524290
43542016-10-18 12:53:55.753 DEBUG:  DrmWidevineDash : OEMCrypto_IsKeyboxValid: ends! returns 0
43552016-10-18 12:53:55.753 DEBUG:  WVCdm : OEMCrypto_Initialize Level 1 success. I will use level 1.
43562016-10-18 12:53:55.753 DEBUG:  DrmWidevineDash : OEMCrypto_OpenSession: starts! SID=0xad801940
43572016-10-18 12:53:55.763 DEBUG:  DrmWidevineDash : OEMCrypto_OpenSession SID = 1
43582016-10-18 12:53:55.763 DEBUG:  DrmWidevineDash : OEMCrypto_OpenSession: ends! returns 0
43592016-10-18 12:53:55.763 DEBUG:  DrmWidevineDash : OEMCrypto_GetRandom: starts! randomData=0xb1f5c4d0, dataLength=8
43602016-10-18 12:53:55.773 INFO:   art : Rejecting re-init on previously-failed class java.lang.Class<org.chromium.content.browser.FloatingWebActionModeCallback>
43612016-10-18 12:53:55.773 INFO:   art : Rejecting re-init on previously-failed class java.lang.Class<org.chromium.content.browser.FloatingWebActionModeCallback>
43622016-10-18 12:53:55.773 DEBUG:  DrmWidevineDash : OEMCrypto_GetRandom: ends! returns 0
43632016-10-18 12:53:55.773 DEBUG:  DrmWidevineDash : OEMCrypto_LoadDeviceRSAKey: starts!SID=1, wrapped_rsa_key=0xb07c3a00, wrapped_rsa_key_length=1280
43642016-10-18 12:53:55.793 DEBUG:  DrmWidevineDash : OEMCrypto_LoadDeviceRSAKey: ends! returns 0
43652016-10-18 12:53:55.793 INFO:   WVCdm : CdmEngine::QueryKeyControlInfo
43662016-10-18 12:53:55.793 WARN:   WVCdm : BufferReader::Read<T> : Failure during parse: Not enough bytes (4)
43672016-10-18 12:53:55.793 WARN:   WVCdm : CdmEngine::ExtractWidevinePssh: Unable to read PSSH atom size
43682016-10-18 12:53:55.793 INFO:   WVCdm : CdmEngine::GenerateKeyRequest
43692016-10-18 12:53:55.793 DEBUG:  DrmWidevineDash : OEMCrypto_GetDeviceID: starts! deviceID=0xb0d335a0, idLength=0xad605710
43702016-10-18 12:53:55.823 DEBUG:  DrmWidevineDash : OEMCrypto_GetDeviceID: ends! returns 0
43712016-10-18 12:53:55.823 DEBUG:  DrmWidevineDash : OEMCrypto_SupportsUsageTable: starts!
43722016-10-18 12:53:55.823 DEBUG:  cr_Ime : [InputMethodManagerWrapper.java:30] Constructor
43732016-10-18 12:53:55.833 DEBUG:  DrmWidevineDash : OEMCrypto_SupportsUsageTable: is_supported = 1
43742016-10-18 12:53:55.833 DEBUG:  DrmWidevineDash : OEMCrypto_SupportsUsageTable: wv_app_version = 23
43752016-10-18 12:53:55.833 DEBUG:  DrmWidevineDash : OEMCrypto_SupportsUsageTable: ends! returns 0x0
43762016-10-18 12:53:55.833 DEBUG:  DrmWidevineDash : OEMCrypto_GetHDCPCapability: starts!
43772016-10-18 12:53:55.843 DEBUG:  DrmWidevineDash : OEMCrypto_GetHDCPCapability: ends! returns 0x0
43782016-10-18 12:53:55.843 DEBUG:  DrmWidevineDash : OEMCrypto_APIVersion: starts!
43792016-10-18 12:53:55.843 WARN:   cr_AwContents : onDetachedFromWindow called when already detached. Ignoring
43802016-10-18 12:53:55.843 DEBUG:  cr_Ime : [InputMethodManagerWrapper.java:59] isActive: false
43812016-10-18 12:53:55.853 DEBUG:  DrmWidevineDash : hlos api version =  9
43822016-10-18 12:53:55.853 DEBUG:  DrmWidevineDash : tz api version =  8
43832016-10-18 12:53:55.853 DEBUG:  DrmWidevineDash : OEMCrypto_APIVersion: ends! returns version 9
43842016-10-18 12:53:55.853 DEBUG:  DrmWidevineDash : OEMCrypto_GenerateNonce: starts! SID=1
43852016-10-18 12:53:55.863 DEBUG:  DrmWidevineDash : OEMCrypto_GenerateNonce: ends! returns 0
43862016-10-18 12:53:55.863 DEBUG:  WVCdm : PrepareKeyRequest: nonce=1966211521
43872016-10-18 12:53:55.863 DEBUG:  DrmWidevineDash : OEMCrypto_GenerateRSASignature starts! SID=1, message=0xb080b700
43882016-10-18 12:53:55.863 DEBUG:  DrmWidevineDash : message_length=1592, signature=0xb1aad7c0, signature_length=2908772084
43892016-10-18 12:53:55.903 DEBUG:  ActivityManager : post active user change for 0
43902016-10-18 12:53:55.903 DEBUG:  KnoxTimeoutHandler : postActiveUserChange for user 0
43912016-10-18 12:53:55.903 INFO:   Choreographer : Skipped 53 frames!  The application may be doing too much work on its main thread.
43922016-10-18 12:53:55.903 DEBUG:  KnoxTimeoutHandler : handleActiveUserChange for user 0
43932016-10-18 12:53:55.913 DEBUG:  SurfaceFlinger : FPS : 6.03
43942016-10-18 12:53:55.913 WARN:   SurfaceFlinger : Fail to Open /sys/devices/platform/gpusysfs/fps
43952016-10-18 12:53:55.933 DEBUG:  StatusBarManagerService : manageDisableList userId=0 what=0x0 pkg=WindowManager.LayoutParams
43962016-10-18 12:53:55.933 DEBUG:  SecContentProvider2 : uri = 14 selection = getSealedState
43972016-10-18 12:53:55.933 DEBUG:  SecContentProvider2 : mCursor = null
43982016-10-18 12:53:55.933 DEBUG:  SurfaceFlinger : FPS : 6.03
43992016-10-18 12:53:55.933 WARN:   SurfaceFlinger : Fail to Open /sys/devices/platform/gpusysfs/fps
44002016-10-18 12:53:55.933 DEBUG:  PhoneStatusBar : disable: < expand icons alerts system_info back* home recent clock search >
44012016-10-18 12:53:55.933 DEBUG:  SecContentProvider2 : uri = 14 selection = getSealedState
44022016-10-18 12:53:55.933 DEBUG:  SecContentProvider2 : mCursor = null
44032016-10-18 12:53:55.943 DEBUG:  SecContentProvider2 : uri = 14 selection = getSealedState
44042016-10-18 12:53:55.943 DEBUG:  SecContentProvider2 : mCursor = null
44052016-10-18 12:53:55.943 DEBUG:  SecContentProvider2 : uri = 14 selection = getSealedState
44062016-10-18 12:53:55.943 DEBUG:  SecContentProvider2 : mCursor = null
44072016-10-18 12:53:55.943 DEBUG:  StatusBar-DoNotDistrub : isDisableAlert isDormantModeOn:false isNotificationDisabled:true
44082016-10-18 12:53:55.953 DEBUG:  SurfaceFlinger : FPS : 6.03
44092016-10-18 12:53:55.953 WARN:   SurfaceFlinger : Fail to Open /sys/devices/platform/gpusysfs/fps
44102016-10-18 12:53:55.953 DEBUG:  PointerIcon : setMouseIconStyle1 pointerType: 1001iconType:101 flag:0
44112016-10-18 12:53:55.953 DEBUG:  PointerIcon : setMouseCustomIcon IconType is same.101
44122016-10-18 12:53:55.953 DEBUG:  PointerIcon : setHoveringSpenIconStyle1 pointerType: 10001iconType:1 flag:0
44132016-10-18 12:53:55.953 DEBUG:  PointerIcon : setHoveringSpenCustomIcon IconType is same.1
44142016-10-18 12:53:55.973 DEBUG:  SurfaceFlinger : FPS : 6.03
44152016-10-18 12:53:55.973 WARN:   SurfaceFlinger : Fail to Open /sys/devices/platform/gpusysfs/fps
44162016-10-18 12:53:55.993 DEBUG:  SurfaceFlinger : FPS : 6.03
44172016-10-18 12:53:55.993 WARN:   SurfaceFlinger : Fail to Open /sys/devices/platform/gpusysfs/fps
44182016-10-18 12:53:56.003 DEBUG:  SurfaceFlinger : FPS : 6.03
44192016-10-18 12:53:56.003 WARN:   SurfaceFlinger : Fail to Open /sys/devices/platform/gpusysfs/fps
44202016-10-18 12:53:56.003 INFO:   TOOLKIT SERVICE : Request body '{"id":"1476780827133","type":"GET_SCREEN_ORIENTATION"}'
44212016-10-18 12:53:56.003 INFO:   DEVICE MANAGER : {"id":"1476780827133","type":"GET_SCREEN_ORIENTATION"}
44222016-10-18 12:53:56.013 INFO:   TOOLKIT SERVICE : Responding to client with: '{"id":"1476780827133","orientation":"PORTRAIT"}'
44232016-10-18 12:53:56.023 DEBUG:  SurfaceFlinger : FPS : 6.03
44242016-10-18 12:53:56.023 WARN:   SurfaceFlinger : Fail to Open /sys/devices/platform/gpusysfs/fps
44252016-10-18 12:53:56.033 DEBUG:  SurfaceFlinger : FPS : 6.03
44262016-10-18 12:53:56.033 WARN:   SurfaceFlinger : Fail to Open /sys/devices/platform/gpusysfs/fps
44272016-10-18 12:53:56.053 DEBUG:  SurfaceFlinger : FPS : 6.03
44282016-10-18 12:53:56.053 WARN:   SurfaceFlinger : Fail to Open /sys/devices/platform/gpusysfs/fps
44292016-10-18 12:53:56.073 DEBUG:  SurfaceFlinger : FPS : 6.03
44302016-10-18 12:53:56.073 WARN:   SurfaceFlinger : Fail to Open /sys/devices/platform/gpusysfs/fps
44312016-10-18 12:53:56.083 DEBUG:  ConnectivityService : returning getActiveNetworkInfo :[type: WIFI[] - WIFI, state: CONNECTED/CONNECTED, reason: (unspecified), extra: "TestObject Devices", roaming: false, failover: false, isAvailable: true, isConnectedToProvisioningNetwork: false]
44322016-10-18 12:53:56.083 DEBUG:  ConnectivityService : returning getActiveNetworkInfo :[type: WIFI[] - WIFI, state: CONNECTED/CONNECTED, reason: (unspecified), extra: "TestObject Devices", roaming: false, failover: false, isAvailable: true, isConnectedToProvisioningNetwork: false]
44332016-10-18 12:53:56.083 DEBUG:  SurfaceFlinger : FPS : 6.03
44342016-10-18 12:53:56.083 WARN:   SurfaceFlinger : Fail to Open /sys/devices/platform/gpusysfs/fps
44352016-10-18 12:53:56.093 DEBUG:  ConnectivityService : listenForNetwork for NetworkRequest [ id=77, legacyType=-1, [ Capabilities: INTERNET&NOT_RESTRICTED&TRUSTED&NOT_VPN] ]
44362016-10-18 12:53:56.093 DEBUG:  ConnectivityService : handleRegisterNetworkRequest checking NetworkAgentInfo [WIFI_P2P () - 501]
44372016-10-18 12:53:56.093 DEBUG:  ConnectivityService : handleRegisterNetworkRequest checking NetworkAgentInfo [WIFI () - 505]
44382016-10-18 12:53:56.093 DEBUG:  ConnectivityService : apparently satisfied.  currentScore=100
44392016-10-18 12:53:56.093 DEBUG:  ConnectivityService : sending notification AVAILABLE for NetworkRequest [ id=77, legacyType=-1, [ Capabilities: INTERNET&NOT_RESTRICTED&TRUSTED&NOT_VPN] ]
44402016-10-18 12:53:56.093 DEBUG:  ConnectivityManager.CallbackHandler : CM callback handler got msg 524290
44412016-10-18 12:53:56.093 DEBUG:  ConnectivityService : returning getActiveNetworkInfo :[type: WIFI[] - WIFI, state: CONNECTED/CONNECTED, reason: (unspecified), extra: "TestObject Devices", roaming: false, failover: false, isAvailable: true, isConnectedToProvisioningNetwork: false]
44422016-10-18 12:53:56.103 DEBUG:  SurfaceFlinger : FPS : 6.03
44432016-10-18 12:53:56.103 WARN:   SurfaceFlinger : Fail to Open /sys/devices/platform/gpusysfs/fps
44442016-10-18 12:53:56.103 DEBUG:  DrmWidevineDash : OEMCrypto_GenerateRSASignature returns 0
44452016-10-18 12:53:56.103 DEBUG:  ConnectivityService : returning getActiveNetworkInfo :[type: WIFI[] - WIFI, state: CONNECTED/CONNECTED, reason: (unspecified), extra: "TestObject Devices", roaming: false, failover: false, isAvailable: true, isConnectedToProvisioningNetwork: false]
44462016-10-18 12:53:56.103 INFO:   WVCdm : CdmEngine::CloseSession
44472016-10-18 12:53:56.103 DEBUG:  DrmWidevineDash : OEMCrypto_CloseSession: starts! SID=1
44482016-10-18 12:53:56.103 DEBUG:  ConnectivityService : returning getActiveNetworkInfo :[type: WIFI[] - WIFI, state: CONNECTED/CONNECTED, reason: (unspecified), extra: "TestObject Devices", roaming: false, failover: false, isAvailable: true, isConnectedToProvisioningNetwork: false]
44492016-10-18 12:53:56.123 DEBUG:  SurfaceFlinger : FPS : 6.03
44502016-10-18 12:53:56.123 WARN:   SurfaceFlinger : Fail to Open /sys/devices/platform/gpusysfs/fps
44512016-10-18 12:53:56.123 DEBUG:  DrmWidevineDash : OEMCrypto_CloseSession: ends! returns 0
44522016-10-18 12:53:56.123 INFO:   WVCdm : L3 Terminate.
44532016-10-18 12:53:56.123 DEBUG:  DrmWidevineDash : OEMCrypto_Terminate: starts!
44542016-10-18 12:53:56.133 DEBUG:  SurfaceFlinger : FPS : 6.03
44552016-10-18 12:53:56.133 WARN:   SurfaceFlinger : Fail to Open /sys/devices/platform/gpusysfs/fps
44562016-10-18 12:53:56.143 DEBUG:  InputMethodManagerService : windowGainedFocus mCurrentFocusedUserId - 0 and mSecureKeypadEnabled-false
44572016-10-18 12:53:56.153 DEBUG:  ConnectivityService : returning getActiveNetworkInfo :[type: WIFI[] - WIFI, state: CONNECTED/CONNECTED, reason: (unspecified), extra: "TestObject Devices", roaming: false, failover: false, isAvailable: true, isConnectedToProvisioningNetwork: false]
44582016-10-18 12:53:56.153 DEBUG:  SurfaceFlinger : FPS : 6.03
44592016-10-18 12:53:56.153 WARN:   SurfaceFlinger : Fail to Open /sys/devices/platform/gpusysfs/fps
44602016-10-18 12:53:56.153 WARN:   ContextImpl : Calling a method in the system process without a qualified user: android.app.ContextImpl.sendBroadcast:1699 com.android.server.InputMethodManagerService$6.run:2733 java.lang.Thread.run:818 <bottom of call stack> <bottom of call stack>
44612016-10-18 12:53:56.153 INFO:   ActivityManager : Displayed com.google.android.gms/.auth.uiflows.minutemaid.MinuteMaidActivity: +1s167ms
44622016-10-18 12:53:56.163 DEBUG:  ConnectivityService : returning getActiveNetworkInfo :[type: WIFI[] - WIFI, state: CONNECTED/CONNECTED, reason: (unspecified), extra: "TestObject Devices", roaming: false, failover: false, isAvailable: true, isConnectedToProvisioningNetwork: false]
44632016-10-18 12:53:56.163 DEBUG:  DrmWidevineDash : Service_Uninitialize: starts!
44642016-10-18 12:53:56.163 DEBUG:  QSEECOMAPI: : QSEECom_shutdown_app
44652016-10-18 12:53:56.163 DEBUG:  QSEECOMAPI: : QSEECom_shutdown_app, app_id = 4
44662016-10-18 12:53:56.173 DEBUG:  WVMDrmPlugIn : WVMDrmPlugin::onInitialize : 1395
44672016-10-18 12:53:56.173 DEBUG:  WVMDrmPlugIn : WVMDrmPlugin::onSetOnInfoListener : add 1395
44682016-10-18 12:53:56.173 DEBUG:  SurfaceFlinger : FPS : 59.41
44692016-10-18 12:53:56.173 WARN:   SurfaceFlinger : Fail to Open /sys/devices/platform/gpusysfs/fps
44702016-10-18 12:53:56.173 INFO:   PrGenericPlugin : [A] ENTER onInitialize : 0x573
44712016-10-18 12:53:56.173 INFO:   PrGenericPlugin : [A] LEAVE onInitialize : 0x573
44722016-10-18 12:53:56.183 WARN:   ActivityManager : mDVFSHelper.release()
44732016-10-18 12:53:56.183 INFO:   Timeline : Timeline: Activity_windows_visible id: ActivityRecord{36a16f68 u0 com.google.android.gms/.auth.uiflows.minutemaid.MinuteMaidActivity t11692} time:502864265
44742016-10-18 12:53:56.183 DEBUG:  WVMDrmPlugIn : WVMDrmPlugin::onGetSupportInfo : 0
44752016-10-18 12:53:56.193 DEBUG:  DrmWidevineDash : Service_Uninitialize: ends! returns 0x0
44762016-10-18 12:53:56.193 INFO:   PrGenericPlugin : [A] ENTER onGetSupportInfo : 0
44772016-10-18 12:53:56.193 INFO:   PrGenericPlugin : [A] LEAVE onGetSupportInfo : 0
44782016-10-18 12:53:56.193 DEBUG:  DrmWidevineDash : OEMCrypto_Terminate: ends! returns 0
44792016-10-18 12:53:56.193 INFO:   WVCdm : CdmEngine::OpenSession
44802016-10-18 12:53:56.193 INFO:   WVCdm : Level3 Library Sep 25 2014 17:10:03
44812016-10-18 12:53:56.193 INFO:   WVCdm : CdmEngine::OpenSession
44822016-10-18 12:53:56.203 WARN:   WVCdm : Could not read /data/mediadrm/IDM1013/ay64.dat2: No such file or directory
44832016-10-18 12:53:56.203 DEBUG:  SurfaceFlinger : FPS : 59.41
44842016-10-18 12:53:56.203 WARN:   SurfaceFlinger : Fail to Open /sys/devices/platform/gpusysfs/fps
44852016-10-18 12:53:56.223 DEBUG:  DrmWidevineDash : OEMCrypto_Initialize: starts! g_qsee_apps_version = 0x13
44862016-10-18 12:53:56.223 DEBUG:  DrmWidevineDash : Service_Initialize: starts!
44872016-10-18 12:53:56.223 DEBUG:  QSEECOMAPI: : QSEECom_start_app sb_length = 0x19000
44882016-10-18 12:53:56.223 DEBUG:  QSEECOMAPI: : App is not loaded in QSEE
44892016-10-18 12:53:56.223 ERROR:  QSEECOMAPI: : Error::Cannot open the file /vendor/firmware/tzapps.mdt
44902016-10-18 12:53:56.223 ERROR:  QSEECOMAPI: : Error::Loading image failed with ret = -1
44912016-10-18 12:53:56.223 DEBUG:  QSEECOMAPI: : QSEECom_start_app sb_length = 0x19000
44922016-10-18 12:53:56.223 DEBUG:  QSEECOMAPI: : App is not loaded in QSEE
44932016-10-18 12:53:56.243 WARN:   SurfaceFlinger : couldn't log to binary event log: overflow.
44942016-10-18 12:53:56.253 DEBUG:  SurfaceFlinger : FPS : 59.41
44952016-10-18 12:53:56.253 WARN:   SurfaceFlinger : Fail to Open /sys/devices/platform/gpusysfs/fps
44962016-10-18 12:53:56.263 INFO:   System.out : (HTTPLog)-Static: isSBSettingEnabled false
44972016-10-18 12:53:56.263 INFO:   System.out : (HTTPLog)-Static: isShipBuild true
44982016-10-18 12:53:56.263 INFO:   System.out : (HTTPLog)-Thread-34977-773855172: SmartBonding Enabling is false, SHIP_BUILD is true, log to file is false, DBG is false
44992016-10-18 12:53:56.263 INFO:   System.out : (HTTPLog)-Static: isSBSettingEnabled false
45002016-10-18 12:53:56.273 DEBUG:  QSEECOMAPI: : Loaded image: APP id = 4
45012016-10-18 12:53:56.273 DEBUG:  EnterpriseController : mIsMarkChainAdded is 0 mIsBlockChainAdded is 0 netId is 0
45022016-10-18 12:53:56.273 DEBUG:  Netd : getNetworkForDns: using netid 505 for uid 10021
45032016-10-18 12:53:56.273 DEBUG:  DrmWidevineDash : Service_Initialize: ends! returns 0
45042016-10-18 12:53:56.273 DEBUG:  DrmWidevineDash : OEMCrypto_Initialize sion_buffer g_wv_fhandle->ion_sbuffer  0x0xad39d000
45052016-10-18 12:53:56.273 ERROR:  DrmWidevineDash : sion_buffer g_wv_fhandle->ion_sbuffer  0x0xad39d000
45062016-10-18 12:53:56.273 WARN:   Auth : [MinuteMaid,MinuteMaidFragment] com.google.android.androidforwork is not installed on system.
45072016-10-18 12:53:56.293 DEBUG:  DrmWidevineDash : OEMCrypto_Initialize: ends! returns 0
45082016-10-18 12:53:56.293 DEBUG:  DrmWidevineDash : OEMCrypto_APIVersion: starts!
45092016-10-18 12:53:56.313 DEBUG:  DrmWidevineDash : hlos api version =  9
45102016-10-18 12:53:56.313 DEBUG:  DrmWidevineDash : tz api version =  8
45112016-10-18 12:53:56.313 DEBUG:  DrmWidevineDash : OEMCrypto_APIVersion: ends! returns version 9
45122016-10-18 12:53:56.313 DEBUG:  DrmWidevineDash : OEMCrypto_IsKeyboxValid: starts!
45132016-10-18 12:53:56.333 INFO:   cr_Ime : ImeThread is not enabled.
45142016-10-18 12:53:56.333 INFO:   System.out : KnoxVpnUidStorageknoxVpnSupported API value returned is false
45152016-10-18 12:53:56.333 DEBUG:  DrmWidevineDash : OEMCrypto_IsKeyboxValid: ends! returns 0
45162016-10-18 12:53:56.333 DEBUG:  WVCdm : OEMCrypto_Initialize Level 1 success. I will use level 1.
45172016-10-18 12:53:56.333 DEBUG:  DrmWidevineDash : OEMCrypto_OpenSession: starts! SID=0xad605940
45182016-10-18 12:53:56.353 DEBUG:  SurfaceFlinger : FPS : 59.41
45192016-10-18 12:53:56.353 WARN:   SurfaceFlinger : Fail to Open /sys/devices/platform/gpusysfs/fps
45202016-10-18 12:53:56.353 DEBUG:  DrmWidevineDash : OEMCrypto_OpenSession SID = 1
45212016-10-18 12:53:56.353 DEBUG:  DrmWidevineDash : OEMCrypto_OpenSession: ends! returns 0
45222016-10-18 12:53:56.353 DEBUG:  DrmWidevineDash : OEMCrypto_GetRandom: starts! randomData=0xb1d0f0e0, dataLength=8
45232016-10-18 12:53:56.363 DEBUG:  SurfaceFlinger : FPS : 59.41
45242016-10-18 12:53:56.363 WARN:   SurfaceFlinger : Fail to Open /sys/devices/platform/gpusysfs/fps
45252016-10-18 12:53:56.363 DEBUG:  DrmWidevineDash : OEMCrypto_GetRandom: ends! returns 0
45262016-10-18 12:53:56.373 DEBUG:  DrmWidevineDash : OEMCrypto_OpenSession: starts! SID=0xad703940
45272016-10-18 12:53:56.383 DEBUG:  SurfaceFlinger : FPS : 59.41
45282016-10-18 12:53:56.383 WARN:   SurfaceFlinger : Fail to Open /sys/devices/platform/gpusysfs/fps
45292016-10-18 12:53:56.383 DEBUG:  DrmWidevineDash : OEMCrypto_OpenSession SID = 2
45302016-10-18 12:53:56.393 DEBUG:  DrmWidevineDash : OEMCrypto_OpenSession: ends! returns 0
45312016-10-18 12:53:56.393 DEBUG:  DrmWidevineDash : OEMCrypto_GetRandom: starts! randomData=0xb1f5c4d0, dataLength=8
45322016-10-18 12:53:56.403 DEBUG:  SurfaceFlinger : FPS : 59.41
45332016-10-18 12:53:56.403 WARN:   SurfaceFlinger : Fail to Open /sys/devices/platform/gpusysfs/fps
45342016-10-18 12:53:56.403 DEBUG:  DrmWidevineDash : OEMCrypto_GetRandom: ends! returns 0
45352016-10-18 12:53:56.403 DEBUG:  DrmWidevineDash : OEMCrypto_LoadDeviceRSAKey: starts!SID=1, wrapped_rsa_key=0xb1de6000, wrapped_rsa_key_length=1280
45362016-10-18 12:53:56.413 DEBUG:  SurfaceFlinger : FPS : 59.41
45372016-10-18 12:53:56.413 WARN:   SurfaceFlinger : Fail to Open /sys/devices/platform/gpusysfs/fps
45382016-10-18 12:53:56.433 DEBUG:  DrmWidevineDash : OEMCrypto_LoadDeviceRSAKey: ends! returns 0
45392016-10-18 12:53:56.433 INFO:   WVCdm : CdmEngine::QueryKeyControlInfo
45402016-10-18 12:53:56.433 DEBUG:  DrmWidevineDash : OEMCrypto_LoadDeviceRSAKey: starts!SID=2, wrapped_rsa_key=0xb1c53a00, wrapped_rsa_key_length=1280
45412016-10-18 12:53:56.433 DEBUG:  SurfaceFlinger : FPS : 30.21
45422016-10-18 12:53:56.433 WARN:   SurfaceFlinger : Fail to Open /sys/devices/platform/gpusysfs/fps
45432016-10-18 12:53:56.433 WARN:   WVCdm : BufferReader::Read<T> : Failure during parse: Not enough bytes (4)
45442016-10-18 12:53:56.433 WARN:   WVCdm : CdmEngine::ExtractWidevinePssh: Unable to read PSSH atom size
45452016-10-18 12:53:56.433 INFO:   WVCdm : CdmEngine::GenerateKeyRequest
45462016-10-18 12:53:56.453 DEBUG:  SurfaceFlinger : FPS : 30.21
45472016-10-18 12:53:56.453 WARN:   SurfaceFlinger : Fail to Open /sys/devices/platform/gpusysfs/fps
45482016-10-18 12:53:56.463 DEBUG:  DrmWidevineDash : OEMCrypto_LoadDeviceRSAKey: ends! returns 0
45492016-10-18 12:53:56.463 DEBUG:  DrmWidevineDash : OEMCrypto_GetDeviceID: starts! deviceID=0xb0d33580, idLength=0xad8ff710
45502016-10-18 12:53:56.463 INFO:   WVCdm : CdmEngine::QueryKeyControlInfo
45512016-10-18 12:53:56.463 WARN:   WVCdm : BufferReader::Read<T> : Failure during parse: Not enough bytes (4)
45522016-10-18 12:53:56.463 WARN:   WVCdm : CdmEngine::ExtractWidevinePssh: Unable to read PSSH atom size
45532016-10-18 12:53:56.463 INFO:   WVCdm : CdmEngine::GenerateKeyRequest
45542016-10-18 12:53:56.463 DEBUG:  SurfaceFlinger : FPS : 30.21
45552016-10-18 12:53:56.463 WARN:   SurfaceFlinger : Fail to Open /sys/devices/platform/gpusysfs/fps
45562016-10-18 12:53:56.483 DEBUG:  SurfaceFlinger : FPS : 30.21
45572016-10-18 12:53:56.483 WARN:   SurfaceFlinger : Fail to Open /sys/devices/platform/gpusysfs/fps
45582016-10-18 12:53:56.493 DEBUG:  DrmWidevineDash : OEMCrypto_GetDeviceID: ends! returns 0
45592016-10-18 12:53:56.493 DEBUG:  DrmWidevineDash : OEMCrypto_SupportsUsageTable: starts!
45602016-10-18 12:53:56.493 DEBUG:  DrmWidevineDash : OEMCrypto_GetDeviceID: starts! deviceID=0xb0d33580, idLength=0xb23ff710
45612016-10-18 12:53:56.503 DEBUG:  SurfaceFlinger : FPS : 30.21
45622016-10-18 12:53:56.503 WARN:   SurfaceFlinger : Fail to Open /sys/devices/platform/gpusysfs/fps
45632016-10-18 12:53:56.503 DEBUG:  DrmWidevineDash : OEMCrypto_SupportsUsageTable: is_supported = 1
45642016-10-18 12:53:56.503 DEBUG:  DrmWidevineDash : OEMCrypto_SupportsUsageTable: wv_app_version = 23
45652016-10-18 12:53:56.503 DEBUG:  DrmWidevineDash : OEMCrypto_SupportsUsageTable: ends! returns 0x0
45662016-10-18 12:53:56.503 DEBUG:  DrmWidevineDash : OEMCrypto_GetHDCPCapability: starts!
45672016-10-18 12:53:56.503 INFO:   TOOLKIT SERVICE : Request body '{"id":"1476780827633","type":"GET_SCREEN_ORIENTATION"}'
45682016-10-18 12:53:56.503 INFO:   DEVICE MANAGER : {"id":"1476780827633","type":"GET_SCREEN_ORIENTATION"}
45692016-10-18 12:53:56.503 INFO:   TOOLKIT SERVICE : Responding to client with: '{"id":"1476780827633","orientation":"PORTRAIT"}'
45702016-10-18 12:53:56.513 DEBUG:  DrmWidevineDash : OEMCrypto_GetHDCPCapability: ends! returns 0x0
45712016-10-18 12:53:56.523 DEBUG:  SurfaceFlinger : FPS : 30.21
45722016-10-18 12:53:56.523 WARN:   SurfaceFlinger : Fail to Open /sys/devices/platform/gpusysfs/fps
45732016-10-18 12:53:56.533 DEBUG:  SurfaceFlinger : FPS : 30.21
45742016-10-18 12:53:56.533 WARN:   SurfaceFlinger : Fail to Open /sys/devices/platform/gpusysfs/fps
45752016-10-18 12:53:56.553 DEBUG:  SurfaceFlinger : FPS : 30.21
45762016-10-18 12:53:56.553 WARN:   SurfaceFlinger : Fail to Open /sys/devices/platform/gpusysfs/fps
45772016-10-18 12:53:56.563 DEBUG:  DrmWidevineDash : OEMCrypto_GetDeviceID: ends! returns 0
45782016-10-18 12:53:56.563 DEBUG:  SurfaceFlinger : FPS : 30.21
45792016-10-18 12:53:56.563 DEBUG:  DrmWidevineDash : OEMCrypto_APIVersion: starts!
45802016-10-18 12:53:56.563 WARN:   SurfaceFlinger : Fail to Open /sys/devices/platform/gpusysfs/fps
45812016-10-18 12:53:56.563 DEBUG:  DrmWidevineDash : OEMCrypto_SupportsUsageTable: starts!
45822016-10-18 12:53:56.583 DEBUG:  SurfaceFlinger : FPS : 30.21
45832016-10-18 12:53:56.583 WARN:   SurfaceFlinger : Fail to Open /sys/devices/platform/gpusysfs/fps
45842016-10-18 12:53:56.583 DEBUG:  DrmWidevineDash : hlos api version =  9
45852016-10-18 12:53:56.583 DEBUG:  DrmWidevineDash : tz api version =  8
45862016-10-18 12:53:56.583 DEBUG:  DrmWidevineDash : OEMCrypto_APIVersion: ends! returns version 9
45872016-10-18 12:53:56.583 DEBUG:  DrmWidevineDash : OEMCrypto_GenerateNonce: starts! SID=1
45882016-10-18 12:53:56.604 DEBUG:  SurfaceFlinger : FPS : 30.21
45892016-10-18 12:53:56.604 DEBUG:  DrmWidevineDash : OEMCrypto_GenerateNonce: ends! returns 0
45902016-10-18 12:53:56.604 WARN:   SurfaceFlinger : Fail to Open /sys/devices/platform/gpusysfs/fps
45912016-10-18 12:53:56.604 DEBUG:  WVCdm : PrepareKeyRequest: nonce=256328224
45922016-10-18 12:53:56.604 DEBUG:  DrmWidevineDash : OEMCrypto_GenerateRSASignature starts! SID=1, message=0xb1b70b00
45932016-10-18 12:53:56.604 DEBUG:  DrmWidevineDash : message_length=1622, signature=0xb1f6f440, signature_length=2911893236
45942016-10-18 12:53:56.614 INFO:   Auth : [BrowserSignInFragment] onPageStarted: Host: accounts.google.com Path: /embedded/setup/android
45952016-10-18 12:53:56.614 DEBUG:  SurfaceFlinger : FPS : 30.21
45962016-10-18 12:53:56.614 WARN:   SurfaceFlinger : Fail to Open /sys/devices/platform/gpusysfs/fps
45972016-10-18 12:53:56.624 ERROR:  libEGL : validate_display:255 error 3008 (EGL_BAD_DISPLAY)
45982016-10-18 12:53:56.634 DEBUG:  SurfaceFlinger : FPS : 30.21
45992016-10-18 12:53:56.634 WARN:   SurfaceFlinger : Fail to Open /sys/devices/platform/gpusysfs/fps
46002016-10-18 12:53:56.644 DEBUG:  EnterpriseController : mIsMarkChainAdded is 0 mIsBlockChainAdded is 0 netId is 0
46012016-10-18 12:53:56.644 DEBUG:  Netd : getNetworkForDns: using netid 505 for uid 10021
46022016-10-18 12:53:56.654 DEBUG:  SurfaceFlinger : FPS : 30.21
46032016-10-18 12:53:56.654 WARN:   SurfaceFlinger : Fail to Open /sys/devices/platform/gpusysfs/fps
46042016-10-18 12:53:56.664 WARN:   AudioCapabilities : Unsupported mime audio/mpeg-L1
46052016-10-18 12:53:56.664 WARN:   AudioCapabilities : Unsupported mime audio/mpeg-L2
46062016-10-18 12:53:56.664 WARN:   AudioCapabilities : Unsupported mime audio/x-ms-wma
46072016-10-18 12:53:56.664 WARN:   AudioCapabilities : Unsupported mime audio/x-ima
46082016-10-18 12:53:56.664 WARN:   AudioCapabilities : Unsupported mime audio/qcelp
46092016-10-18 12:53:56.674 WARN:   AudioCapabilities : Unsupported mime audio/evrc
46102016-10-18 12:53:56.674 DEBUG:  SurfaceFlinger : FPS : 30.21
46112016-10-18 12:53:56.674 WARN:   SurfaceFlinger : Fail to Open /sys/devices/platform/gpusysfs/fps
46122016-10-18 12:53:56.684 DEBUG:  SurfaceFlinger : FPS : 30.21
46132016-10-18 12:53:56.684 WARN:   SurfaceFlinger : Fail to Open /sys/devices/platform/gpusysfs/fps
46142016-10-18 12:53:56.694 WARN:   VideoCapabilities : Unsupported mime video/wvc1
46152016-10-18 12:53:56.704 DEBUG:  SurfaceFlinger : FPS : 60.63
46162016-10-18 12:53:56.704 WARN:   SurfaceFlinger : Fail to Open /sys/devices/platform/gpusysfs/fps
46172016-10-18 12:53:56.704 WARN:   VideoCapabilities : Unsupported mime video/x-ms-wmv
46182016-10-18 12:53:56.714 WARN:   VideoCapabilities : Unrecognized profile/level 32768/2 for video/mp4v-es
46192016-10-18 12:53:56.714 DEBUG:  SurfaceFlinger : FPS : 60.63
46202016-10-18 12:53:56.714 WARN:   SurfaceFlinger : Fail to Open /sys/devices/platform/gpusysfs/fps
46212016-10-18 12:53:56.714 INFO:   art : Background sticky concurrent mark sweep GC freed 74705(3MB) AllocSpace objects, 63(3MB) LOS objects, 17% free, 21MB/25MB, paused 1.464ms total 113.922ms
46222016-10-18 12:53:56.714 WARN:   VideoCapabilities : Unsupported mime video/wvc1
46232016-10-18 12:53:56.724 WARN:   VideoCapabilities : Unsupported mime video/x-ms-wmv
46242016-10-18 12:53:56.724 WARN:   VideoCapabilities : Unsupported mime video/x-ms-wmv7
46252016-10-18 12:53:56.734 WARN:   VideoCapabilities : Unsupported mime video/x-ms-wmv8
46262016-10-18 12:53:56.734 DEBUG:  SurfaceFlinger : FPS : 60.63
46272016-10-18 12:53:56.734 WARN:   SurfaceFlinger : Fail to Open /sys/devices/platform/gpusysfs/fps
46282016-10-18 12:53:56.734 WARN:   VideoCapabilities : Unsupported mime video/mp43
46292016-10-18 12:53:56.754 DEBUG:  SurfaceFlinger : FPS : 60.63
46302016-10-18 12:53:56.754 WARN:   SurfaceFlinger : Fail to Open /sys/devices/platform/gpusysfs/fps
46312016-10-18 12:53:56.754 WARN:   VideoCapabilities : Unsupported mime video/sorenson
46322016-10-18 12:53:56.754 WARN:   VideoCapabilities : Unsupported mime video/mp4v-esdp
46332016-10-18 12:53:56.764 DEBUG:  SurfaceFlinger : FPS : 60.63
46342016-10-18 12:53:56.764 WARN:   SurfaceFlinger : Fail to Open /sys/devices/platform/gpusysfs/fps
46352016-10-18 12:53:56.794 INFO:   VideoCapabilities : Unsupported profile 4 for video/mp4v-es
46362016-10-18 12:53:56.794 DEBUG:  SurfaceFlinger : FPS : 60.63
46372016-10-18 12:53:56.794 WARN:   SurfaceFlinger : Fail to Open /sys/devices/platform/gpusysfs/fps
46382016-10-18 12:53:56.804 DEBUG:  SurfaceFlinger : FPS : 60.63
46392016-10-18 12:53:56.804 WARN:   SurfaceFlinger : Fail to Open /sys/devices/platform/gpusysfs/fps
46402016-10-18 12:53:56.814 DEBUG:  SurfaceFlinger : FPS : 60.63
46412016-10-18 12:53:56.814 WARN:   SurfaceFlinger : Fail to Open /sys/devices/platform/gpusysfs/fps
46422016-10-18 12:53:56.824 WARN:   AudioCapabilities : Unsupported mime audio/ac3
46432016-10-18 12:53:56.834 DEBUG:  SurfaceFlinger : FPS : 60.63
46442016-10-18 12:53:56.834 WARN:   SurfaceFlinger : Fail to Open /sys/devices/platform/gpusysfs/fps
46452016-10-18 12:53:56.844 DEBUG:  StatusBar.NetworkController : refreshViews connected={ wifi } level=0 combinedSignalIconId=0x7f020517/com.android.systemui:drawable/stat_sys_wifi_signal_4 mobileLabel= wifiLabel="TestObject Devices"xxxxXXXXxxxxXXXX emergencyOnly=false combinedLabel="TestObject Devices"xxxxXXXXxxxxXXXX mAirplaneMode=true mDataActivity=0 mPhoneSignalIconId=0x0/(null) mQSPhoneSignalIconId=0x0/(null) mDataDirectionIconId=0x0/(null) mDataSignalIconId=0x0/(null) mDataTypeIconId=0x0/(null) mQSDataTypeIconId=0x0/(null) mNoSimIconId=0x0/(null) mWifiIconId=0x7f020517/com.android.systemui:drawable/stat_sys_wifi_signal_4 mQSWifiIconId=0x7f020143/com.android.systemui:drawable/ic_qs_wifi_4 mWifiActivityIconId=0x7f0204e8/com.android.systemui:drawable/stat_sys_signal_inout mBluetoothTetherIconId=0x10808cc/android:drawable/stat_sys_tether_bluetooth
46462016-10-18 12:53:56.844 DEBUG:  STATUSBAR-WifiQuickSettingButton : onWifiSignalChanged enabled=true enabledDesc:"TestObject Devices"
46472016-10-18 12:53:56.844 DEBUG:  StatusBar.NetworkController : refreshSignalCluster - setNWBoosterIndicators(false)
46482016-10-18 12:53:56.844 DEBUG:  StatusBar.NetworkController : applyOpen
46492016-10-18 12:53:56.844 DEBUG:  StatusBar.NetworkController : refreshSignalCluster - setNWBoosterIndicators(false)
46502016-10-18 12:53:56.844 DEBUG:  StatusBar.NetworkController : applyOpen
46512016-10-18 12:53:56.844 DEBUG:  StatusBar.NetworkController : refreshSignalCluster - setNWBoosterIndicators(false)
46522016-10-18 12:53:56.844 DEBUG:  StatusBar.NetworkController : applyOpen
46532016-10-18 12:53:56.844 DEBUG:  StatusBar.NetworkController : refreshSignalCluster - setNWBoosterIndicators(false)
46542016-10-18 12:53:56.844 DEBUG:  StatusBar.NetworkController : applyOpen
46552016-10-18 12:53:56.854 DEBUG:  SurfaceFlinger : FPS : 60.63
46562016-10-18 12:53:56.854 WARN:   SurfaceFlinger : Fail to Open /sys/devices/platform/gpusysfs/fps
46572016-10-18 12:53:56.854 DEBUG:  DrmWidevineDash : OEMCrypto_GenerateRSASignature returns 0
46582016-10-18 12:53:56.854 INFO:   WVCdm : CdmEngine::CloseSession
46592016-10-18 12:53:56.854 DEBUG:  DrmWidevineDash : OEMCrypto_CloseSession: starts! SID=1
46602016-10-18 12:53:56.864 DEBUG:  SurfaceFlinger : FPS : 60.63
46612016-10-18 12:53:56.864 WARN:   SurfaceFlinger : Fail to Open /sys/devices/platform/gpusysfs/fps
46622016-10-18 12:53:56.884 DEBUG:  SurfaceFlinger : FPS : 60.63
46632016-10-18 12:53:56.884 WARN:   SurfaceFlinger : Fail to Open /sys/devices/platform/gpusysfs/fps
46642016-10-18 12:53:56.894 DEBUG:  DrmWidevineDash : OEMCrypto_SupportsUsageTable: is_supported = 1
46652016-10-18 12:53:56.894 DEBUG:  DrmWidevineDash : OEMCrypto_SupportsUsageTable: wv_app_version = 23
46662016-10-18 12:53:56.894 DEBUG:  DrmWidevineDash : OEMCrypto_SupportsUsageTable: ends! returns 0x0
46672016-10-18 12:53:56.894 DEBUG:  DrmWidevineDash : OEMCrypto_GetHDCPCapability: starts!
46682016-10-18 12:53:56.904 DEBUG:  SurfaceFlinger : FPS : 60.63
46692016-10-18 12:53:56.904 WARN:   SurfaceFlinger : Fail to Open /sys/devices/platform/gpusysfs/fps
46702016-10-18 12:53:56.904 DEBUG:  DrmWidevineDash : OEMCrypto_CloseSession: ends! returns 0
46712016-10-18 12:53:56.914 DEBUG:  SurfaceFlinger : FPS : 60.63
46722016-10-18 12:53:56.914 WARN:   SurfaceFlinger : Fail to Open /sys/devices/platform/gpusysfs/fps
46732016-10-18 12:53:56.914 DEBUG:  DrmWidevineDash : OEMCrypto_GetHDCPCapability: ends! returns 0x0
46742016-10-18 12:53:56.914 DEBUG:  DrmWidevineDash : OEMCrypto_APIVersion: starts!
46752016-10-18 12:53:56.944 DEBUG:  SurfaceFlinger : FPS : 60.63
46762016-10-18 12:53:56.944 WARN:   SurfaceFlinger : Fail to Open /sys/devices/platform/gpusysfs/fps
46772016-10-18 12:53:56.954 DEBUG:  DrmWidevineDash : hlos api version =  9
46782016-10-18 12:53:56.954 DEBUG:  DrmWidevineDash : tz api version =  8
46792016-10-18 12:53:56.954 DEBUG:  DrmWidevineDash : OEMCrypto_APIVersion: ends! returns version 9
46802016-10-18 12:53:56.954 DEBUG:  DrmWidevineDash : OEMCrypto_GenerateNonce: starts! SID=2
46812016-10-18 12:53:56.964 DEBUG:  SurfaceFlinger : FPS : 56.14
46822016-10-18 12:53:56.964 WARN:   SurfaceFlinger : Fail to Open /sys/devices/platform/gpusysfs/fps
46832016-10-18 12:53:56.974 DEBUG:  DrmWidevineDash : OEMCrypto_GenerateNonce: ends! returns 0
46842016-10-18 12:53:56.974 DEBUG:  WVCdm : PrepareKeyRequest: nonce=4032925550
46852016-10-18 12:53:56.974 DEBUG:  DrmWidevineDash : OEMCrypto_GenerateRSASignature starts! SID=2, message=0xb0b31b00
46862016-10-18 12:53:56.974 DEBUG:  DrmWidevineDash : message_length=1592, signature=0xb1a238c0, signature_length=2990536436
46872016-10-18 12:53:56.984 DEBUG:  SurfaceFlinger : FPS : 56.14
46882016-10-18 12:53:56.984 WARN:   SurfaceFlinger : Fail to Open /sys/devices/platform/gpusysfs/fps
46892016-10-18 12:53:57.004 DEBUG:  SurfaceFlinger : FPS : 56.14
46902016-10-18 12:53:57.004 WARN:   SurfaceFlinger : Fail to Open /sys/devices/platform/gpusysfs/fps
46912016-10-18 12:53:57.004 INFO:   TOOLKIT SERVICE : Request body '{"id":"1476780828133","type":"GET_SCREEN_ORIENTATION"}'
46922016-10-18 12:53:57.014 INFO:   DEVICE MANAGER : {"id":"1476780828133","type":"GET_SCREEN_ORIENTATION"}
46932016-10-18 12:53:57.014 INFO:   TOOLKIT SERVICE : Responding to client with: '{"id":"1476780828133","orientation":"PORTRAIT"}'
46942016-10-18 12:53:57.014 DEBUG:  SurfaceFlinger : FPS : 56.14
46952016-10-18 12:53:57.014 WARN:   SurfaceFlinger : Fail to Open /sys/devices/platform/gpusysfs/fps
46962016-10-18 12:53:57.034 DEBUG:  SurfaceFlinger : FPS : 56.14
46972016-10-18 12:53:57.034 WARN:   SurfaceFlinger : Fail to Open /sys/devices/platform/gpusysfs/fps
46982016-10-18 12:53:57.054 DEBUG:  SurfaceFlinger : FPS : 56.14
46992016-10-18 12:53:57.054 WARN:   SurfaceFlinger : Fail to Open /sys/devices/platform/gpusysfs/fps
47002016-10-18 12:53:57.064 WARN:   cr_BindingManager : Cannot call determinedVisibility() - never saw a connection for the pid: 27494
47012016-10-18 12:53:57.064 DEBUG:  cr_Ime : [InputMethodManagerWrapper.java:59] isActive: true
47022016-10-18 12:53:57.064 DEBUG:  cr_Ime : [InputMethodManagerWrapper.java:68] hideSoftInputFromWindow
47032016-10-18 12:53:57.064 DEBUG:  SurfaceFlinger : FPS : 56.14
47042016-10-18 12:53:57.064 WARN:   SurfaceFlinger : Fail to Open /sys/devices/platform/gpusysfs/fps
47052016-10-18 12:53:57.084 DEBUG:  SurfaceFlinger : FPS : 56.14
47062016-10-18 12:53:57.084 WARN:   SurfaceFlinger : Fail to Open /sys/devices/platform/gpusysfs/fps
47072016-10-18 12:53:57.084 WARN:   ContextImpl : Calling a method in the system process without a qualified user: android.app.ContextImpl.sendBroadcast:1699 com.android.server.InputMethodManagerService$6.run:2733 java.lang.Thread.run:818 <bottom of call stack> <bottom of call stack>
47082016-10-18 12:53:57.104 DEBUG:  SurfaceFlinger : FPS : 56.14
47092016-10-18 12:53:57.104 WARN:   SurfaceFlinger : Fail to Open /sys/devices/platform/gpusysfs/fps
47102016-10-18 12:53:57.114 DEBUG:  SurfaceFlinger : FPS : 56.14
47112016-10-18 12:53:57.114 WARN:   SurfaceFlinger : Fail to Open /sys/devices/platform/gpusysfs/fps
47122016-10-18 12:53:57.134 DEBUG:  SurfaceFlinger : FPS : 56.14
47132016-10-18 12:53:57.134 WARN:   SurfaceFlinger : Fail to Open /sys/devices/platform/gpusysfs/fps
47142016-10-18 12:53:57.134 INFO:   dex2oat : ----------------------------------------------------
47152016-10-18 12:53:57.134 INFO:   dex2oat : <SS>: S T A R T I N G . . .
47162016-10-18 12:53:57.134 INFO:   dex2oat : <SS>: Zip is absent. Canceled.
47172016-10-18 12:53:57.144 INFO:   dex2oat : /system/bin/dex2oat --runtime-arg -classpath --runtime-arg  --instruction-set=arm --instruction-set-features=div --runtime-arg -Xrelocate --boot-image=/system/framework/boot.art --dex-file=/data/data/com.google.android.gms/app_fb/f.apk --oat-fd=49 --art-fd=-1 --oat-location=/data/data/com.google.android.gms/app_fb/f.dex --runtime-arg -Xms64m --runtime-arg -Xmx512m
47182016-10-18 12:53:57.154 DEBUG:  SurfaceFlinger : FPS : 56.14
47192016-10-18 12:53:57.154 WARN:   SurfaceFlinger : Fail to Open /sys/devices/platform/gpusysfs/fps
47202016-10-18 12:53:57.164 DEBUG:  SurfaceFlinger : FPS : 56.14
47212016-10-18 12:53:57.164 WARN:   SurfaceFlinger : Fail to Open /sys/devices/platform/gpusysfs/fps
47222016-10-18 12:53:57.174 ERROR:  Diag_Lib : Diag_LSM_Init: Failed to open handle to diag driver, error = 2
47232016-10-18 12:53:57.184 DEBUG:  SurfaceFlinger : FPS : 56.14
47242016-10-18 12:53:57.184 WARN:   SurfaceFlinger : Fail to Open /sys/devices/platform/gpusysfs/fps
47252016-10-18 12:53:57.204 DEBUG:  SurfaceFlinger : FPS : 56.14
47262016-10-18 12:53:57.204 WARN:   SurfaceFlinger : Fail to Open /sys/devices/platform/gpusysfs/fps
47272016-10-18 12:53:57.214 DEBUG:  SurfaceFlinger : FPS : 56.14
47282016-10-18 12:53:57.214 WARN:   SurfaceFlinger : Fail to Open /sys/devices/platform/gpusysfs/fps
47292016-10-18 12:53:57.234 DEBUG:  SurfaceFlinger : FPS : 60.40
47302016-10-18 12:53:57.234 WARN:   SurfaceFlinger : Fail to Open /sys/devices/platform/gpusysfs/fps
47312016-10-18 12:53:57.254 DEBUG:  SurfaceFlinger : FPS : 60.40
47322016-10-18 12:53:57.254 WARN:   SurfaceFlinger : Fail to Open /sys/devices/platform/gpusysfs/fps
47332016-10-18 12:53:57.254 DEBUG:  DrmWidevineDash : OEMCrypto_GenerateRSASignature returns 0
47342016-10-18 12:53:57.254 INFO:   WVCdm : CdmEngine::CloseSession
47352016-10-18 12:53:57.254 DEBUG:  DrmWidevineDash : OEMCrypto_CloseSession: starts! SID=2
47362016-10-18 12:53:57.254 INFO:   dex2oat : dex2oat took 117.340ms (threads: 4)
47372016-10-18 12:53:57.264 DEBUG:  SurfaceFlinger : FPS : 60.40
47382016-10-18 12:53:57.264 WARN:   SurfaceFlinger : Fail to Open /sys/devices/platform/gpusysfs/fps
47392016-10-18 12:53:57.274 DEBUG:  DrmWidevineDash : OEMCrypto_CloseSession: ends! returns 0
47402016-10-18 12:53:57.274 INFO:   WVCdm : L3 Terminate.
47412016-10-18 12:53:57.274 DEBUG:  DrmWidevineDash : OEMCrypto_Terminate: starts!
47422016-10-18 12:53:57.284 DEBUG:  SurfaceFlinger : FPS : 60.40
47432016-10-18 12:53:57.284 WARN:   SurfaceFlinger : Fail to Open /sys/devices/platform/gpusysfs/fps
47442016-10-18 12:53:57.294 DEBUG:  DrmWidevineDash : Service_Uninitialize: starts!
47452016-10-18 12:53:57.294 DEBUG:  QSEECOMAPI: : QSEECom_shutdown_app
47462016-10-18 12:53:57.294 DEBUG:  QSEECOMAPI: : QSEECom_shutdown_app, app_id = 4
47472016-10-18 12:53:57.294 INFO:   Adreno-EGL : <qeglDrvAPI_eglInitialize:410>: EGL 1.4 QUALCOMM build:  ()
47482016-10-18 12:53:57.294 INFO:   Adreno-EGL : OpenGL ES Shader Compiler Version: E031.25.03.06
47492016-10-18 12:53:57.294 INFO:   Adreno-EGL : Build Date: 01/24/15 Sat
47502016-10-18 12:53:57.294 INFO:   Adreno-EGL : Local Branch: AF11_RB1_AU15
47512016-10-18 12:53:57.294 INFO:   Adreno-EGL : Remote Branch:
47522016-10-18 12:53:57.294 INFO:   Adreno-EGL : Local Patches:
47532016-10-18 12:53:57.294 INFO:   Adreno-EGL : Reconstruct Branch:
47542016-10-18 12:53:57.294 DEBUG:  SurfaceFlinger : FPS : 60.40
47552016-10-18 12:53:57.304 WARN:   SurfaceFlinger : Fail to Open /sys/devices/platform/gpusysfs/fps
47562016-10-18 12:53:57.304 DEBUG:  DrmWidevineDash : Service_Uninitialize: ends! returns 0x0
47572016-10-18 12:53:57.304 DEBUG:  DrmWidevineDash : OEMCrypto_Terminate: ends! returns 0
47582016-10-18 12:53:57.314 DEBUG:  SurfaceFlinger : FPS : 60.40
47592016-10-18 12:53:57.314 WARN:   SurfaceFlinger : Fail to Open /sys/devices/platform/gpusysfs/fps
47602016-10-18 12:53:57.334 DEBUG:  SurfaceFlinger : FPS : 60.40
47612016-10-18 12:53:57.334 WARN:   SurfaceFlinger : Fail to Open /sys/devices/platform/gpusysfs/fps
47622016-10-18 12:53:57.344 DEBUG:  SurfaceFlinger : FPS : 60.40
47632016-10-18 12:53:57.344 WARN:   SurfaceFlinger : Fail to Open /sys/devices/platform/gpusysfs/fps
47642016-10-18 12:53:57.364 DEBUG:  SurfaceFlinger : FPS : 60.40
47652016-10-18 12:53:57.364 WARN:   SurfaceFlinger : Fail to Open /sys/devices/platform/gpusysfs/fps
47662016-10-18 12:53:57.384 DEBUG:  SurfaceFlinger : FPS : 60.40
47672016-10-18 12:53:57.384 WARN:   SurfaceFlinger : Fail to Open /sys/devices/platform/gpusysfs/fps
47682016-10-18 12:53:57.404 DEBUG:  SurfaceFlinger : FPS : 60.40
47692016-10-18 12:53:57.404 WARN:   SurfaceFlinger : Fail to Open /sys/devices/platform/gpusysfs/fps
47702016-10-18 12:53:57.414 DEBUG:  SSRM:n : SIOP:: AP = 380, CUR = 1000
47712016-10-18 12:53:57.414 DEBUG:  SurfaceFlinger : FPS : 60.40
47722016-10-18 12:53:57.414 WARN:   SurfaceFlinger : Fail to Open /sys/devices/platform/gpusysfs/fps
47732016-10-18 12:53:57.434 DEBUG:  SurfaceFlinger : FPS : 60.40
47742016-10-18 12:53:57.434 WARN:   SurfaceFlinger : Fail to Open /sys/devices/platform/gpusysfs/fps
47752016-10-18 12:53:57.434 INFO:   Adreno-EGL : <qeglDrvAPI_eglInitialize:410>: EGL 1.4 QUALCOMM build:  ()
47762016-10-18 12:53:57.434 INFO:   Adreno-EGL : OpenGL ES Shader Compiler Version: E031.25.03.06
47772016-10-18 12:53:57.434 INFO:   Adreno-EGL : Build Date: 01/24/15 Sat
47782016-10-18 12:53:57.434 INFO:   Adreno-EGL : Local Branch: AF11_RB1_AU15
47792016-10-18 12:53:57.434 INFO:   Adreno-EGL : Remote Branch:
47802016-10-18 12:53:57.434 INFO:   Adreno-EGL : Local Patches:
47812016-10-18 12:53:57.434 INFO:   Adreno-EGL : Reconstruct Branch:
47822016-10-18 12:53:57.444 DEBUG:  SurfaceFlinger : FPS : 60.40
47832016-10-18 12:53:57.454 WARN:   SurfaceFlinger : Fail to Open /sys/devices/platform/gpusysfs/fps
47842016-10-18 12:53:57.464 DEBUG:  SurfaceFlinger : FPS : 60.40
47852016-10-18 12:53:57.464 WARN:   SurfaceFlinger : Fail to Open /sys/devices/platform/gpusysfs/fps
47862016-10-18 12:53:57.484 DEBUG:  SurfaceFlinger : FPS : 59.18
47872016-10-18 12:53:57.484 WARN:   SurfaceFlinger : Fail to Open /sys/devices/platform/gpusysfs/fps
47882016-10-18 12:53:57.494 DEBUG:  SurfaceFlinger : FPS : 59.18
47892016-10-18 12:53:57.494 WARN:   SurfaceFlinger : Fail to Open /sys/devices/platform/gpusysfs/fps
47902016-10-18 12:53:57.504 INFO:   Adreno-EGL : <qeglDrvAPI_eglInitialize:410>: EGL 1.4 QUALCOMM build:  ()
47912016-10-18 12:53:57.504 INFO:   Adreno-EGL : OpenGL ES Shader Compiler Version: E031.25.03.06
47922016-10-18 12:53:57.504 INFO:   Adreno-EGL : Build Date: 01/24/15 Sat
47932016-10-18 12:53:57.504 INFO:   Adreno-EGL : Local Branch: AF11_RB1_AU15
47942016-10-18 12:53:57.504 INFO:   Adreno-EGL : Remote Branch:
47952016-10-18 12:53:57.504 INFO:   Adreno-EGL : Local Patches:
47962016-10-18 12:53:57.504 INFO:   Adreno-EGL : Reconstruct Branch:
47972016-10-18 12:53:57.504 INFO:   TOOLKIT SERVICE : Request body '{"id":"1476780828633","type":"GET_SCREEN_ORIENTATION"}'
47982016-10-18 12:53:57.504 INFO:   DEVICE MANAGER : {"id":"1476780828633","type":"GET_SCREEN_ORIENTATION"}
47992016-10-18 12:53:57.514 INFO:   TOOLKIT SERVICE : Responding to client with: '{"id":"1476780828633","orientation":"PORTRAIT"}'
48002016-10-18 12:53:57.514 DEBUG:  SurfaceFlinger : FPS : 59.18
48012016-10-18 12:53:57.514 WARN:   SurfaceFlinger : Fail to Open /sys/devices/platform/gpusysfs/fps
48022016-10-18 12:53:57.534 DEBUG:  SurfaceFlinger : FPS : 59.18
48032016-10-18 12:53:57.534 WARN:   SurfaceFlinger : Fail to Open /sys/devices/platform/gpusysfs/fps
48042016-10-18 12:53:57.544 DEBUG:  SurfaceFlinger : FPS : 59.18
48052016-10-18 12:53:57.544 WARN:   SurfaceFlinger : Fail to Open /sys/devices/platform/gpusysfs/fps
48062016-10-18 12:53:57.564 DEBUG:  SurfaceFlinger : FPS : 59.18
48072016-10-18 12:53:57.564 WARN:   SurfaceFlinger : Fail to Open /sys/devices/platform/gpusysfs/fps
48082016-10-18 12:53:57.584 DEBUG:  SurfaceFlinger : FPS : 59.18
48092016-10-18 12:53:57.584 WARN:   SurfaceFlinger : Fail to Open /sys/devices/platform/gpusysfs/fps
48102016-10-18 12:53:57.594 DEBUG:  SurfaceFlinger : FPS : 59.18
48112016-10-18 12:53:57.594 WARN:   SurfaceFlinger : Fail to Open /sys/devices/platform/gpusysfs/fps
48122016-10-18 12:53:57.614 DEBUG:  SurfaceFlinger : FPS : 59.18
48132016-10-18 12:53:57.614 WARN:   SurfaceFlinger : Fail to Open /sys/devices/platform/gpusysfs/fps
48142016-10-18 12:53:57.635 DEBUG:  SurfaceFlinger : FPS : 59.18
48152016-10-18 12:53:57.635 WARN:   SurfaceFlinger : Fail to Open /sys/devices/platform/gpusysfs/fps
48162016-10-18 12:53:57.645 DEBUG:  SurfaceFlinger : FPS : 59.18
48172016-10-18 12:53:57.645 WARN:   SurfaceFlinger : Fail to Open /sys/devices/platform/gpusysfs/fps
48182016-10-18 12:53:57.665 DEBUG:  SurfaceFlinger : FPS : 59.18
48192016-10-18 12:53:57.665 WARN:   SurfaceFlinger : Fail to Open /sys/devices/platform/gpusysfs/fps
48202016-10-18 12:53:57.695 DEBUG:  SurfaceFlinger : FPS : 59.18
48212016-10-18 12:53:57.695 WARN:   SurfaceFlinger : Fail to Open /sys/devices/platform/gpusysfs/fps
48222016-10-18 12:53:57.715 DEBUG:  SurfaceFlinger : FPS : 59.18
48232016-10-18 12:53:57.715 WARN:   SurfaceFlinger : Fail to Open /sys/devices/platform/gpusysfs/fps
48242016-10-18 12:53:57.735 DEBUG:  SurfaceFlinger : FPS : 59.18
48252016-10-18 12:53:57.735 WARN:   SurfaceFlinger : Fail to Open /sys/devices/platform/gpusysfs/fps
48262016-10-18 12:53:57.745 DEBUG:  SurfaceFlinger : FPS : 56.99
48272016-10-18 12:53:57.745 WARN:   SurfaceFlinger : Fail to Open /sys/devices/platform/gpusysfs/fps
48282016-10-18 12:53:57.765 DEBUG:  SurfaceFlinger : FPS : 56.99
48292016-10-18 12:53:57.765 WARN:   SurfaceFlinger : Fail to Open /sys/devices/platform/gpusysfs/fps
48302016-10-18 12:53:57.785 DEBUG:  SurfaceFlinger : FPS : 56.99
48312016-10-18 12:53:57.785 WARN:   SurfaceFlinger : Fail to Open /sys/devices/platform/gpusysfs/fps
48322016-10-18 12:53:57.795 INFO:   Adreno-EGL : <qeglDrvAPI_eglInitialize:410>: EGL 1.4 QUALCOMM build:  ()
48332016-10-18 12:53:57.795 INFO:   Adreno-EGL : OpenGL ES Shader Compiler Version: E031.25.03.06
48342016-10-18 12:53:57.795 INFO:   Adreno-EGL : Build Date: 01/24/15 Sat
48352016-10-18 12:53:57.795 INFO:   Adreno-EGL : Local Branch: AF11_RB1_AU15
48362016-10-18 12:53:57.795 INFO:   Adreno-EGL : Remote Branch:
48372016-10-18 12:53:57.795 INFO:   Adreno-EGL : Local Patches:
48382016-10-18 12:53:57.795 INFO:   Adreno-EGL : Reconstruct Branch:
48392016-10-18 12:53:57.795 DEBUG:  SurfaceFlinger : FPS : 56.99
48402016-10-18 12:53:57.795 WARN:   SurfaceFlinger : Fail to Open /sys/devices/platform/gpusysfs/fps
48412016-10-18 12:53:57.815 DEBUG:  SurfaceFlinger : FPS : 56.99
48422016-10-18 12:53:57.815 WARN:   SurfaceFlinger : Fail to Open /sys/devices/platform/gpusysfs/fps
48432016-10-18 12:53:57.835 DEBUG:  SurfaceFlinger : FPS : 56.99
48442016-10-18 12:53:57.835 WARN:   SurfaceFlinger : Fail to Open /sys/devices/platform/gpusysfs/fps
48452016-10-18 12:53:57.835 INFO:   Adreno-EGL : <qeglDrvAPI_eglInitialize:410>: EGL 1.4 QUALCOMM build:  ()
48462016-10-18 12:53:57.835 INFO:   Adreno-EGL : OpenGL ES Shader Compiler Version: E031.25.03.06
48472016-10-18 12:53:57.835 INFO:   Adreno-EGL : Build Date: 01/24/15 Sat
48482016-10-18 12:53:57.835 INFO:   Adreno-EGL : Local Branch: AF11_RB1_AU15
48492016-10-18 12:53:57.835 INFO:   Adreno-EGL : Remote Branch:
48502016-10-18 12:53:57.835 INFO:   Adreno-EGL : Local Patches:
48512016-10-18 12:53:57.835 INFO:   Adreno-EGL : Reconstruct Branch:
48522016-10-18 12:53:57.845 DEBUG:  SurfaceFlinger : FPS : 56.99
48532016-10-18 12:53:57.855 WARN:   SurfaceFlinger : Fail to Open /sys/devices/platform/gpusysfs/fps
48542016-10-18 12:53:57.865 DEBUG:  SurfaceFlinger : FPS : 56.99
48552016-10-18 12:53:57.865 WARN:   SurfaceFlinger : Fail to Open /sys/devices/platform/gpusysfs/fps
48562016-10-18 12:53:57.885 DEBUG:  SurfaceFlinger : FPS : 56.99
48572016-10-18 12:53:57.885 WARN:   SurfaceFlinger : Fail to Open /sys/devices/platform/gpusysfs/fps
48582016-10-18 12:53:57.895 DEBUG:  SurfaceFlinger : FPS : 56.99
48592016-10-18 12:53:57.895 WARN:   SurfaceFlinger : Fail to Open /sys/devices/platform/gpusysfs/fps
48602016-10-18 12:53:57.905 DEBUG:  ConnectivityService : returning getActiveNetworkInfo :[type: WIFI[] - WIFI, state: CONNECTED/CONNECTED, reason: (unspecified), extra: "TestObject Devices", roaming: false, failover: false, isAvailable: true, isConnectedToProvisioningNetwork: false]
48612016-10-18 12:53:57.915 DEBUG:  SurfaceFlinger : FPS : 56.99
48622016-10-18 12:53:57.915 WARN:   SurfaceFlinger : Fail to Open /sys/devices/platform/gpusysfs/fps
48632016-10-18 12:53:57.935 DEBUG:  SurfaceFlinger : FPS : 56.99
48642016-10-18 12:53:57.935 WARN:   SurfaceFlinger : Fail to Open /sys/devices/platform/gpusysfs/fps
48652016-10-18 12:53:57.935 INFO:   Adreno-EGL : <qeglDrvAPI_eglInitialize:410>: EGL 1.4 QUALCOMM build:  ()
48662016-10-18 12:53:57.935 INFO:   Adreno-EGL : OpenGL ES Shader Compiler Version: E031.25.03.06
48672016-10-18 12:53:57.935 INFO:   Adreno-EGL : Build Date: 01/24/15 Sat
48682016-10-18 12:53:57.935 INFO:   Adreno-EGL : Local Branch: AF11_RB1_AU15
48692016-10-18 12:53:57.935 INFO:   Adreno-EGL : Remote Branch:
48702016-10-18 12:53:57.935 INFO:   Adreno-EGL : Local Patches:
48712016-10-18 12:53:57.935 INFO:   Adreno-EGL : Reconstruct Branch:
48722016-10-18 12:53:57.955 DEBUG:  SurfaceFlinger : FPS : 56.99
48732016-10-18 12:53:57.955 WARN:   SurfaceFlinger : Fail to Open /sys/devices/platform/gpusysfs/fps
48742016-10-18 12:53:57.965 DEBUG:  SurfaceFlinger : FPS : 56.99
48752016-10-18 12:53:57.965 WARN:   SurfaceFlinger : Fail to Open /sys/devices/platform/gpusysfs/fps
48762016-10-18 12:53:57.985 DEBUG:  SurfaceFlinger : FPS : 56.99
48772016-10-18 12:53:57.985 WARN:   SurfaceFlinger : Fail to Open /sys/devices/platform/gpusysfs/fps
48782016-10-18 12:53:57.995 DEBUG:  SurfaceFlinger : FPS : 56.99
48792016-10-18 12:53:57.995 WARN:   SurfaceFlinger : Fail to Open /sys/devices/platform/gpusysfs/fps
48802016-10-18 12:53:58.005 INFO:   TOOLKIT SERVICE : Request body '{"id":"1476780829133","type":"GET_SCREEN_ORIENTATION"}'
48812016-10-18 12:53:58.005 INFO:   DEVICE MANAGER : {"id":"1476780829133","type":"GET_SCREEN_ORIENTATION"}
48822016-10-18 12:53:58.005 INFO:   TOOLKIT SERVICE : Responding to client with: '{"id":"1476780829133","orientation":"PORTRAIT"}'
48832016-10-18 12:53:58.015 DEBUG:  SurfaceFlinger : FPS : 60.26
48842016-10-18 12:53:58.015 WARN:   SurfaceFlinger : Fail to Open /sys/devices/platform/gpusysfs/fps
48852016-10-18 12:53:58.035 DEBUG:  SurfaceFlinger : FPS : 60.26
48862016-10-18 12:53:58.035 WARN:   SurfaceFlinger : Fail to Open /sys/devices/platform/gpusysfs/fps
48872016-10-18 12:53:58.045 DEBUG:  SurfaceFlinger : FPS : 60.26
48882016-10-18 12:53:58.045 WARN:   SurfaceFlinger : Fail to Open /sys/devices/platform/gpusysfs/fps
48892016-10-18 12:53:58.065 DEBUG:  SurfaceFlinger : FPS : 60.26
48902016-10-18 12:53:58.065 WARN:   SurfaceFlinger : Fail to Open /sys/devices/platform/gpusysfs/fps
48912016-10-18 12:53:58.085 DEBUG:  SurfaceFlinger : FPS : 60.26
48922016-10-18 12:53:58.085 WARN:   SurfaceFlinger : Fail to Open /sys/devices/platform/gpusysfs/fps
48932016-10-18 12:53:58.095 DEBUG:  SurfaceFlinger : FPS : 60.26
48942016-10-18 12:53:58.095 WARN:   SurfaceFlinger : Fail to Open /sys/devices/platform/gpusysfs/fps
48952016-10-18 12:53:58.125 DEBUG:  SurfaceFlinger : FPS : 60.26
48962016-10-18 12:53:58.125 WARN:   SurfaceFlinger : Fail to Open /sys/devices/platform/gpusysfs/fps
48972016-10-18 12:53:58.135 DEBUG:  SurfaceFlinger : FPS : 60.26
48982016-10-18 12:53:58.135 WARN:   SurfaceFlinger : Fail to Open /sys/devices/platform/gpusysfs/fps
48992016-10-18 12:53:58.145 DEBUG:  ConnectivityService : returning getActiveNetworkInfo :[type: WIFI[] - WIFI, state: CONNECTED/CONNECTED, reason: (unspecified), extra: "TestObject Devices", roaming: false, failover: false, isAvailable: true, isConnectedToProvisioningNetwork: false]
49002016-10-18 12:53:58.145 DEBUG:  SurfaceFlinger : FPS : 60.26
49012016-10-18 12:53:58.145 WARN:   SurfaceFlinger : Fail to Open /sys/devices/platform/gpusysfs/fps
49022016-10-18 12:53:58.165 DEBUG:  SurfaceFlinger : FPS : 60.26
49032016-10-18 12:53:58.165 WARN:   SurfaceFlinger : Fail to Open /sys/devices/platform/gpusysfs/fps
49042016-10-18 12:53:58.185 DEBUG:  SurfaceFlinger : FPS : 60.26
49052016-10-18 12:53:58.185 WARN:   SurfaceFlinger : Fail to Open /sys/devices/platform/gpusysfs/fps
49062016-10-18 12:53:58.195 DEBUG:  SurfaceFlinger : FPS : 60.26
49072016-10-18 12:53:58.195 WARN:   SurfaceFlinger : Fail to Open /sys/devices/platform/gpusysfs/fps
49082016-10-18 12:53:58.215 DEBUG:  SurfaceFlinger : FPS : 60.26
49092016-10-18 12:53:58.215 WARN:   SurfaceFlinger : Fail to Open /sys/devices/platform/gpusysfs/fps
49102016-10-18 12:53:58.235 DEBUG:  SurfaceFlinger : FPS : 60.26
49112016-10-18 12:53:58.235 WARN:   SurfaceFlinger : Fail to Open /sys/devices/platform/gpusysfs/fps
49122016-10-18 12:53:58.245 DEBUG:  SurfaceFlinger : FPS : 60.26
49132016-10-18 12:53:58.245 WARN:   SurfaceFlinger : Fail to Open /sys/devices/platform/gpusysfs/fps
49142016-10-18 12:53:58.265 DEBUG:  SurfaceFlinger : FPS : 60.26
49152016-10-18 12:53:58.265 WARN:   SurfaceFlinger : Fail to Open /sys/devices/platform/gpusysfs/fps
49162016-10-18 12:53:58.285 DEBUG:  SurfaceFlinger : FPS : 60.24
49172016-10-18 12:53:58.285 WARN:   SurfaceFlinger : Fail to Open /sys/devices/platform/gpusysfs/fps
49182016-10-18 12:53:58.295 DEBUG:  WVMDrmPlugIn : WVMDrmPlugin::onTerminate : 1395
49192016-10-18 12:53:58.295 INFO:   PrGenericPlugin : [A] ENTER onTerminate : 0x573
49202016-10-18 12:53:58.295 INFO:   PrGenericPlugin : check context leak for (0) entries in conextMap.
49212016-10-18 12:53:58.295 INFO:   PrGenericPlugin : [A] LEAVE onTerminate : 0x573
49222016-10-18 12:53:58.295 DEBUG:  SurfaceFlinger : FPS : 60.24
49232016-10-18 12:53:58.295 WARN:   SurfaceFlinger : Fail to Open /sys/devices/platform/gpusysfs/fps
49242016-10-18 12:53:58.305 INFO:   CheckinUtil : Classify the device as Phone.
49252016-10-18 12:53:58.315 DEBUG:  SurfaceFlinger : FPS : 60.24
49262016-10-18 12:53:58.315 WARN:   SurfaceFlinger : Fail to Open /sys/devices/platform/gpusysfs/fps
49272016-10-18 12:53:58.325 DEBUG:  SurfaceFlinger : FPS : 60.24
49282016-10-18 12:53:58.335 WARN:   SurfaceFlinger : Fail to Open /sys/devices/platform/gpusysfs/fps
49292016-10-18 12:53:58.345 DEBUG:  SurfaceFlinger : FPS : 60.24
49302016-10-18 12:53:58.345 WARN:   SurfaceFlinger : Fail to Open /sys/devices/platform/gpusysfs/fps
49312016-10-18 12:53:58.365 DEBUG:  SurfaceFlinger : FPS : 60.24
49322016-10-18 12:53:58.365 WARN:   SurfaceFlinger : Fail to Open /sys/devices/platform/gpusysfs/fps
49332016-10-18 12:53:58.365 DEBUG:  ActivityManager : bindService callerProcessName:com.google.android.gms, calleePkgName: com.google.android.gms, action: null
49342016-10-18 12:53:58.375 INFO:   System.out : (HTTPLog)-Static: isSBSettingEnabled false
49352016-10-18 12:53:58.375 DEBUG:  EnterpriseController : mIsMarkChainAdded is 0 mIsBlockChainAdded is 0 netId is 0
49362016-10-18 12:53:58.375 DEBUG:  Netd : getNetworkForDns: using netid 505 for uid 10021
49372016-10-18 12:53:58.385 DEBUG:  SurfaceFlinger : FPS : 60.24
49382016-10-18 12:53:58.385 WARN:   SurfaceFlinger : Fail to Open /sys/devices/platform/gpusysfs/fps
49392016-10-18 12:53:58.395 DEBUG:  SurfaceFlinger : FPS : 60.24
49402016-10-18 12:53:58.395 WARN:   SurfaceFlinger : Fail to Open /sys/devices/platform/gpusysfs/fps
49412016-10-18 12:53:58.395 INFO:   System.out : KnoxVpnUidStorageknoxVpnSupported API value returned is false
49422016-10-18 12:53:58.415 DEBUG:  SurfaceFlinger : FPS : 60.24
49432016-10-18 12:53:58.415 WARN:   SurfaceFlinger : Fail to Open /sys/devices/platform/gpusysfs/fps
49442016-10-18 12:53:58.435 DEBUG:  SurfaceFlinger : FPS : 60.24
49452016-10-18 12:53:58.435 WARN:   SurfaceFlinger : Fail to Open /sys/devices/platform/gpusysfs/fps
49462016-10-18 12:53:58.435 WARN:   Conscrypt : Could not set socket write timeout: null
49472016-10-18 12:53:58.445 DEBUG:  SurfaceFlinger : FPS : 60.24
49482016-10-18 12:53:58.445 WARN:   SurfaceFlinger : Fail to Open /sys/devices/platform/gpusysfs/fps
49492016-10-18 12:53:58.465 DEBUG:  SurfaceFlinger : FPS : 60.24
49502016-10-18 12:53:58.465 WARN:   SurfaceFlinger : Fail to Open /sys/devices/platform/gpusysfs/fps
49512016-10-18 12:53:58.475 DEBUG:  SurfaceFlinger : FPS : 60.24
49522016-10-18 12:53:58.475 WARN:   SurfaceFlinger : Fail to Open /sys/devices/platform/gpusysfs/fps
49532016-10-18 12:53:58.495 DEBUG:  SurfaceFlinger : FPS : 60.24
49542016-10-18 12:53:58.495 WARN:   SurfaceFlinger : Fail to Open /sys/devices/platform/gpusysfs/fps
49552016-10-18 12:53:58.505 INFO:   TOOLKIT SERVICE : Request body '{"id":"1476780829633","type":"GET_SCREEN_ORIENTATION"}'
49562016-10-18 12:53:58.505 INFO:   DEVICE MANAGER : {"id":"1476780829633","type":"GET_SCREEN_ORIENTATION"}
49572016-10-18 12:53:58.505 INFO:   TOOLKIT SERVICE : Responding to client with: '{"id":"1476780829633","orientation":"PORTRAIT"}'
49582016-10-18 12:53:58.515 DEBUG:  SurfaceFlinger : FPS : 60.24
49592016-10-18 12:53:58.515 WARN:   SurfaceFlinger : Fail to Open /sys/devices/platform/gpusysfs/fps
49602016-10-18 12:53:58.525 DEBUG:  SurfaceFlinger : FPS : 60.24
49612016-10-18 12:53:58.525 WARN:   SurfaceFlinger : Fail to Open /sys/devices/platform/gpusysfs/fps
49622016-10-18 12:53:58.545 DEBUG:  SurfaceFlinger : FPS : 60.28
49632016-10-18 12:53:58.545 WARN:   SurfaceFlinger : Fail to Open /sys/devices/platform/gpusysfs/fps
49642016-10-18 12:53:58.565 DEBUG:  SurfaceFlinger : FPS : 60.28
49652016-10-18 12:53:58.565 WARN:   SurfaceFlinger : Fail to Open /sys/devices/platform/gpusysfs/fps
49662016-10-18 12:53:58.575 DEBUG:  SurfaceFlinger : FPS : 60.28
49672016-10-18 12:53:58.575 WARN:   SurfaceFlinger : Fail to Open /sys/devices/platform/gpusysfs/fps
49682016-10-18 12:53:58.585 WARN:   Conscrypt : Could not set socket write timeout: null
49692016-10-18 12:53:58.595 INFO:   CheckinTask : Sending checkin request (13500 bytes)
49702016-10-18 12:53:58.595 DEBUG:  SurfaceFlinger : FPS : 60.28
49712016-10-18 12:53:58.595 WARN:   SurfaceFlinger : Fail to Open /sys/devices/platform/gpusysfs/fps
49722016-10-18 12:53:58.615 DEBUG:  SurfaceFlinger : FPS : 60.28
49732016-10-18 12:53:58.615 WARN:   SurfaceFlinger : Fail to Open /sys/devices/platform/gpusysfs/fps
49742016-10-18 12:53:58.625 DEBUG:  SurfaceFlinger : FPS : 60.28
49752016-10-18 12:53:58.625 WARN:   SurfaceFlinger : Fail to Open /sys/devices/platform/gpusysfs/fps
49762016-10-18 12:53:58.646 DEBUG:  SurfaceFlinger : FPS : 60.28
49772016-10-18 12:53:58.646 WARN:   SurfaceFlinger : Fail to Open /sys/devices/platform/gpusysfs/fps
49782016-10-18 12:53:58.666 DEBUG:  SurfaceFlinger : FPS : 60.28
49792016-10-18 12:53:58.666 WARN:   SurfaceFlinger : Fail to Open /sys/devices/platform/gpusysfs/fps
49802016-10-18 12:53:58.676 DEBUG:  SurfaceFlinger : FPS : 60.28
49812016-10-18 12:53:58.676 WARN:   SurfaceFlinger : Fail to Open /sys/devices/platform/gpusysfs/fps
49822016-10-18 12:53:58.696 DEBUG:  SurfaceFlinger : FPS : 60.28
49832016-10-18 12:53:58.696 WARN:   SurfaceFlinger : Fail to Open /sys/devices/platform/gpusysfs/fps
49842016-10-18 12:53:58.716 DEBUG:  SurfaceFlinger : FPS : 60.28
49852016-10-18 12:53:58.716 WARN:   SurfaceFlinger : Fail to Open /sys/devices/platform/gpusysfs/fps
49862016-10-18 12:53:58.726 DEBUG:  SurfaceFlinger : FPS : 60.28
49872016-10-18 12:53:58.726 WARN:   SurfaceFlinger : Fail to Open /sys/devices/platform/gpusysfs/fps
49882016-10-18 12:53:58.746 INFO:   CheckinRequestBuilder : Checkin reason type: 9 attempt count: 1
49892016-10-18 12:53:58.746 DEBUG:  SurfaceFlinger : FPS : 60.28
49902016-10-18 12:53:58.746 WARN:   SurfaceFlinger : Fail to Open /sys/devices/platform/gpusysfs/fps
49912016-10-18 12:53:58.746 ERROR:  ActivityThread : Failed to find provider info for com.google.android.wearable.settings
49922016-10-18 12:53:58.766 DEBUG:  SurfaceFlinger : FPS : 60.28
49932016-10-18 12:53:58.766 WARN:   SurfaceFlinger : Fail to Open /sys/devices/platform/gpusysfs/fps
49942016-10-18 12:53:58.776 DEBUG:  SurfaceFlinger : FPS : 60.28
49952016-10-18 12:53:58.776 WARN:   SurfaceFlinger : Fail to Open /sys/devices/platform/gpusysfs/fps
49962016-10-18 12:53:58.796 DEBUG:  SurfaceFlinger : FPS : 60.28
49972016-10-18 12:53:58.796 WARN:   SurfaceFlinger : Fail to Open /sys/devices/platform/gpusysfs/fps
49982016-10-18 12:53:58.816 DEBUG:  SurfaceFlinger : FPS : 59.56
49992016-10-18 12:53:58.816 WARN:   SurfaceFlinger : Fail to Open /sys/devices/platform/gpusysfs/fps
50002016-10-18 12:53:58.826 DEBUG:  SurfaceFlinger : FPS : 59.56
50012016-10-18 12:53:58.826 WARN:   SurfaceFlinger : Fail to Open /sys/devices/platform/gpusysfs/fps
50022016-10-18 12:53:58.846 DEBUG:  SurfaceFlinger : FPS : 59.56
50032016-10-18 12:53:58.846 WARN:   SurfaceFlinger : Fail to Open /sys/devices/platform/gpusysfs/fps
50042016-10-18 12:53:58.866 DEBUG:  SurfaceFlinger : FPS : 59.56
50052016-10-18 12:53:58.866 WARN:   SurfaceFlinger : Fail to Open /sys/devices/platform/gpusysfs/fps
50062016-10-18 12:53:58.876 DEBUG:  SurfaceFlinger : FPS : 59.56
50072016-10-18 12:53:58.876 WARN:   SurfaceFlinger : Fail to Open /sys/devices/platform/gpusysfs/fps
50082016-10-18 12:53:58.896 DEBUG:  SurfaceFlinger : FPS : 59.56
50092016-10-18 12:53:58.896 WARN:   SurfaceFlinger : Fail to Open /sys/devices/platform/gpusysfs/fps
50102016-10-18 12:53:58.916 DEBUG:  SurfaceFlinger : FPS : 59.56
50112016-10-18 12:53:58.916 WARN:   SurfaceFlinger : Fail to Open /sys/devices/platform/gpusysfs/fps
50122016-10-18 12:53:58.926 DEBUG:  SurfaceFlinger : FPS : 59.56
50132016-10-18 12:53:58.926 WARN:   SurfaceFlinger : Fail to Open /sys/devices/platform/gpusysfs/fps
50142016-10-18 12:53:58.946 DEBUG:  SurfaceFlinger : FPS : 59.56
50152016-10-18 12:53:58.946 WARN:   SurfaceFlinger : Fail to Open /sys/devices/platform/gpusysfs/fps
50162016-10-18 12:53:58.966 DEBUG:  SurfaceFlinger : FPS : 59.56
50172016-10-18 12:53:58.966 WARN:   SurfaceFlinger : Fail to Open /sys/devices/platform/gpusysfs/fps
50182016-10-18 12:53:58.976 INFO:   art : Explicit concurrent mark sweep GC freed 66591(4MB) AllocSpace objects, 56(1053KB) LOS objects, 23% free, 26MB/34MB, paused 1.281ms total 135.589ms
50192016-10-18 12:53:58.986 DEBUG:  SurfaceFlinger : FPS : 59.56
50202016-10-18 12:53:58.986 WARN:   SurfaceFlinger : Fail to Open /sys/devices/platform/gpusysfs/fps
50212016-10-18 12:53:58.996 DEBUG:  SurfaceFlinger : FPS : 59.56
50222016-10-18 12:53:58.996 WARN:   SurfaceFlinger : Fail to Open /sys/devices/platform/gpusysfs/fps
50232016-10-18 12:53:59.006 INFO:   TOOLKIT SERVICE : Request body '{"id":"1476780830133","type":"GET_SCREEN_ORIENTATION"}'
50242016-10-18 12:53:59.016 INFO:   DEVICE MANAGER : {"id":"1476780830133","type":"GET_SCREEN_ORIENTATION"}
50252016-10-18 12:53:59.016 DEBUG:  SurfaceFlinger : FPS : 59.56
50262016-10-18 12:53:59.016 WARN:   SurfaceFlinger : Fail to Open /sys/devices/platform/gpusysfs/fps
50272016-10-18 12:53:59.016 INFO:   TOOLKIT SERVICE : Responding to client with: '{"id":"1476780830133","orientation":"PORTRAIT"}'
50282016-10-18 12:53:59.026 DEBUG:  SurfaceFlinger : FPS : 59.56
50292016-10-18 12:53:59.026 WARN:   SurfaceFlinger : Fail to Open /sys/devices/platform/gpusysfs/fps
50302016-10-18 12:53:59.046 DEBUG:  SurfaceFlinger : FPS : 59.56
50312016-10-18 12:53:59.046 WARN:   SurfaceFlinger : Fail to Open /sys/devices/platform/gpusysfs/fps
50322016-10-18 12:53:59.046 WARN:   SQLiteConnectionPool : A SQLiteConnection object for database '+data+data+com_google_android_gms+databases+auto_complete_suggestions_db' was leaked!  Please fix your application to end transactions in progress properly and to close the database when it is no longer needed.
50332016-10-18 12:53:59.046 WARN:   SQLiteConnectionPool : A SQLiteConnection object for database '+data+data+com_google_android_gms+databases+help_responses_db' was leaked!  Please fix your application to end transactions in progress properly and to close the database when it is no longer needed.
50342016-10-18 12:53:59.046 WARN:   SQLiteConnectionPool : A SQLiteConnection object for database '+data+data+com_google_android_gms+databases+metrics_db' was leaked!  Please fix your application to end transactions in progress properly and to close the database when it is no longer needed.
50352016-10-18 12:53:59.066 DEBUG:  SurfaceFlinger : FPS : 59.56
50362016-10-18 12:53:59.066 WARN:   SurfaceFlinger : Fail to Open /sys/devices/platform/gpusysfs/fps
50372016-10-18 12:53:59.076 DEBUG:  SurfaceFlinger : FPS : 60.78
50382016-10-18 12:53:59.076 WARN:   SurfaceFlinger : Fail to Open /sys/devices/platform/gpusysfs/fps
50392016-10-18 12:53:59.096 DEBUG:  SurfaceFlinger : FPS : 60.78
50402016-10-18 12:53:59.096 WARN:   SurfaceFlinger : Fail to Open /sys/devices/platform/gpusysfs/fps
50412016-10-18 12:53:59.106 DEBUG:  ConnectivityService : returning getActiveNetworkInfo :[type: WIFI[] - WIFI, state: CONNECTED/CONNECTED, reason: (unspecified), extra: "TestObject Devices", roaming: false, failover: false, isAvailable: true, isConnectedToProvisioningNetwork: false]
50422016-10-18 12:53:59.116 DEBUG:  SurfaceFlinger : FPS : 60.78
50432016-10-18 12:53:59.116 WARN:   SurfaceFlinger : Fail to Open /sys/devices/platform/gpusysfs/fps
50442016-10-18 12:53:59.116 DEBUG:  ResourcesManager : creating new AssetManager and set to /system/priv-app/GoogleServicesFramework/GoogleServicesFramework.apk
50452016-10-18 12:53:59.126 DEBUG:  SurfaceFlinger : FPS : 60.78
50462016-10-18 12:53:59.126 WARN:   SurfaceFlinger : Fail to Open /sys/devices/platform/gpusysfs/fps
50472016-10-18 12:53:59.136 INFO:   CheckinUtil : Classify the device as Phone.
50482016-10-18 12:53:59.146 DEBUG:  SurfaceFlinger : FPS : 60.78
50492016-10-18 12:53:59.146 WARN:   SurfaceFlinger : Fail to Open /sys/devices/platform/gpusysfs/fps
50502016-10-18 12:53:59.166 DEBUG:  SurfaceFlinger : FPS : 60.78
50512016-10-18 12:53:59.166 WARN:   SurfaceFlinger : Fail to Open /sys/devices/platform/gpusysfs/fps
50522016-10-18 12:53:59.176 INFO:   CheckinTask : Checkin success: https://android.clients.google.com/checkin (1 requests sent)
50532016-10-18 12:53:59.176 DEBUG:  SurfaceFlinger : FPS : 60.78
50542016-10-18 12:53:59.176 WARN:   SurfaceFlinger : Fail to Open /sys/devices/platform/gpusysfs/fps
50552016-10-18 12:53:59.186 INFO:   CheckinChimeraService : Checking schedule, now: 1476780839190 next: 1477345019180
50562016-10-18 12:53:59.186 INFO:   CheckinChimeraService : active receiver: disabled
50572016-10-18 12:53:59.196 DEBUG:  SurfaceFlinger : FPS : 60.78
50582016-10-18 12:53:59.196 WARN:   SurfaceFlinger : Fail to Open /sys/devices/platform/gpusysfs/fps
50592016-10-18 12:53:59.216 DEBUG:  SurfaceFlinger : FPS : 60.78
50602016-10-18 12:53:59.216 WARN:   SurfaceFlinger : Fail to Open /sys/devices/platform/gpusysfs/fps
50612016-10-18 12:53:59.226 DEBUG:  SurfaceFlinger : FPS : 60.78
50622016-10-18 12:53:59.226 WARN:   SurfaceFlinger : Fail to Open /sys/devices/platform/gpusysfs/fps
50632016-10-18 12:53:59.246 DEBUG:  SurfaceFlinger : FPS : 60.78
50642016-10-18 12:53:59.246 WARN:   SurfaceFlinger : Fail to Open /sys/devices/platform/gpusysfs/fps
50652016-10-18 12:53:59.266 DEBUG:  SurfaceFlinger : FPS : 60.78
50662016-10-18 12:53:59.266 WARN:   SurfaceFlinger : Fail to Open /sys/devices/platform/gpusysfs/fps
50672016-10-18 12:53:59.266 DEBUG:  PowerManagerService : [input device light] setInputDeviceLightOn is called : 1
50682016-10-18 12:53:59.266 DEBUG:  PowerManagerService : [input device light] handleInputDeviceLightOn
50692016-10-18 12:53:59.286 DEBUG:  SurfaceFlinger : FPS : 60.78
50702016-10-18 12:53:59.286 WARN:   SurfaceFlinger : Fail to Open /sys/devices/platform/gpusysfs/fps
50712016-10-18 12:53:59.296 DEBUG:  SurfaceFlinger : FPS : 60.78
50722016-10-18 12:53:59.296 WARN:   SurfaceFlinger : Fail to Open /sys/devices/platform/gpusysfs/fps
50732016-10-18 12:53:59.296 DEBUG:  ActivityManager : startService callerProcessName:com.google.android.gms, calleePkgName: com.google.android.gms
50742016-10-18 12:53:59.316 DEBUG:  SurfaceFlinger : FPS : 60.78
50752016-10-18 12:53:59.316 WARN:   SurfaceFlinger : Fail to Open /sys/devices/platform/gpusysfs/fps
50762016-10-18 12:53:59.326 DEBUG:  SurfaceFlinger : FPS : 60.78
50772016-10-18 12:53:59.326 WARN:   SurfaceFlinger : Fail to Open /sys/devices/platform/gpusysfs/fps
50782016-10-18 12:53:59.346 DEBUG:  SurfaceFlinger : FPS : 60.15
50792016-10-18 12:53:59.346 WARN:   SurfaceFlinger : Fail to Open /sys/devices/platform/gpusysfs/fps
50802016-10-18 12:53:59.366 DEBUG:  SurfaceFlinger : FPS : 60.15
50812016-10-18 12:53:59.366 WARN:   SurfaceFlinger : Fail to Open /sys/devices/platform/gpusysfs/fps
50822016-10-18 12:53:59.376 DEBUG:  SurfaceFlinger : FPS : 60.15
50832016-10-18 12:53:59.376 WARN:   SurfaceFlinger : Fail to Open /sys/devices/platform/gpusysfs/fps
50842016-10-18 12:53:59.376 INFO:   Auth : [BrowserSignInFragment] onPageFinished: Host: accounts.google.com Path: /embedded/setup/android
50852016-10-18 12:53:59.396 DEBUG:  SurfaceFlinger : FPS : 60.15
50862016-10-18 12:53:59.396 WARN:   SurfaceFlinger : Fail to Open /sys/devices/platform/gpusysfs/fps
50872016-10-18 12:53:59.406 DEBUG:  SurfaceFlinger : FPS : 60.15
50882016-10-18 12:53:59.406 WARN:   SurfaceFlinger : Fail to Open /sys/devices/platform/gpusysfs/fps
50892016-10-18 12:53:59.436 DEBUG:  SurfaceFlinger : FPS : 60.15
50902016-10-18 12:53:59.436 WARN:   SurfaceFlinger : Fail to Open /sys/devices/platform/gpusysfs/fps
50912016-10-18 12:53:59.446 DEBUG:  SurfaceFlinger : FPS : 60.15
50922016-10-18 12:53:59.446 WARN:   SurfaceFlinger : Fail to Open /sys/devices/platform/gpusysfs/fps
50932016-10-18 12:53:59.466 DEBUG:  SurfaceFlinger : FPS : 60.15
50942016-10-18 12:53:59.466 WARN:   SurfaceFlinger : Fail to Open /sys/devices/platform/gpusysfs/fps
50952016-10-18 12:53:59.476 DEBUG:  SurfaceFlinger : FPS : 60.15
50962016-10-18 12:53:59.476 WARN:   SurfaceFlinger : Fail to Open /sys/devices/platform/gpusysfs/fps
50972016-10-18 12:53:59.496 DEBUG:  SurfaceFlinger : FPS : 60.15
50982016-10-18 12:53:59.496 WARN:   SurfaceFlinger : Fail to Open /sys/devices/platform/gpusysfs/fps
50992016-10-18 12:53:59.506 INFO:   TOOLKIT SERVICE : Request body '{"id":"1476780830633","type":"GET_SCREEN_ORIENTATION"}'
51002016-10-18 12:53:59.506 INFO:   DEVICE MANAGER : {"id":"1476780830633","type":"GET_SCREEN_ORIENTATION"}
51012016-10-18 12:53:59.516 INFO:   TOOLKIT SERVICE : Responding to client with: '{"id":"1476780830633","orientation":"PORTRAIT"}'
51022016-10-18 12:53:59.516 DEBUG:  SurfaceFlinger : FPS : 60.15
51032016-10-18 12:53:59.516 WARN:   SurfaceFlinger : Fail to Open /sys/devices/platform/gpusysfs/fps
51042016-10-18 12:53:59.526 DEBUG:  SurfaceFlinger : FPS : 60.15
51052016-10-18 12:53:59.526 WARN:   SurfaceFlinger : Fail to Open /sys/devices/platform/gpusysfs/fps
51062016-10-18 12:53:59.546 DEBUG:  SurfaceFlinger : FPS : 60.15
51072016-10-18 12:53:59.546 WARN:   SurfaceFlinger : Fail to Open /sys/devices/platform/gpusysfs/fps
51082016-10-18 12:53:59.566 DEBUG:  SurfaceFlinger : FPS : 60.15
51092016-10-18 12:53:59.566 WARN:   SurfaceFlinger : Fail to Open /sys/devices/platform/gpusysfs/fps
51102016-10-18 12:53:59.576 DEBUG:  SurfaceFlinger : FPS : 60.15
51112016-10-18 12:53:59.576 WARN:   SurfaceFlinger : Fail to Open /sys/devices/platform/gpusysfs/fps
51122016-10-18 12:53:59.596 DEBUG:  SurfaceFlinger : FPS : 59.90
51132016-10-18 12:53:59.596 WARN:   SurfaceFlinger : Fail to Open /sys/devices/platform/gpusysfs/fps
51142016-10-18 12:53:59.616 DEBUG:  SurfaceFlinger : FPS : 59.90
51152016-10-18 12:53:59.616 WARN:   SurfaceFlinger : Fail to Open /sys/devices/platform/gpusysfs/fps
51162016-10-18 12:53:59.626 DEBUG:  SurfaceFlinger : FPS : 59.90
51172016-10-18 12:53:59.626 WARN:   SurfaceFlinger : Fail to Open /sys/devices/platform/gpusysfs/fps
51182016-10-18 12:53:59.636 WARN:   cr_BindingManager : Cannot call determinedVisibility() - never saw a connection for the pid: 27494
51192016-10-18 12:53:59.646 DEBUG:  SurfaceFlinger : FPS : 59.90
51202016-10-18 12:53:59.646 WARN:   SurfaceFlinger : Fail to Open /sys/devices/platform/gpusysfs/fps
51212016-10-18 12:53:59.646 INFO:   Auth : [BrowserSignInFragment] onPageFinished: Host: accounts.google.com Path: /embedded/setup/android
51222016-10-18 12:53:59.656 DEBUG:  SurfaceFlinger : FPS : 59.90
51232016-10-18 12:53:59.656 WARN:   SurfaceFlinger : Fail to Open /sys/devices/platform/gpusysfs/fps
51242016-10-18 12:53:59.677 DEBUG:  SurfaceFlinger : FPS : 59.90
51252016-10-18 12:53:59.677 WARN:   SurfaceFlinger : Fail to Open /sys/devices/platform/gpusysfs/fps
51262016-10-18 12:53:59.697 DEBUG:  SurfaceFlinger : FPS : 59.90
51272016-10-18 12:53:59.697 WARN:   SurfaceFlinger : Fail to Open /sys/devices/platform/gpusysfs/fps
51282016-10-18 12:53:59.707 DEBUG:  SurfaceFlinger : FPS : 59.90
51292016-10-18 12:53:59.707 WARN:   SurfaceFlinger : Fail to Open /sys/devices/platform/gpusysfs/fps
51302016-10-18 12:53:59.727 DEBUG:  SurfaceFlinger : FPS : 59.90
51312016-10-18 12:53:59.727 WARN:   SurfaceFlinger : Fail to Open /sys/devices/platform/gpusysfs/fps
51322016-10-18 12:53:59.747 DEBUG:  SurfaceFlinger : FPS : 59.90
51332016-10-18 12:53:59.747 WARN:   SurfaceFlinger : Fail to Open /sys/devices/platform/gpusysfs/fps
51342016-10-18 12:53:59.757 DEBUG:  SurfaceFlinger : FPS : 59.90
51352016-10-18 12:53:59.757 WARN:   SurfaceFlinger : Fail to Open /sys/devices/platform/gpusysfs/fps
51362016-10-18 12:53:59.777 DEBUG:  SurfaceFlinger : FPS : 59.90
51372016-10-18 12:53:59.777 WARN:   SurfaceFlinger : Fail to Open /sys/devices/platform/gpusysfs/fps
51382016-10-18 12:53:59.797 DEBUG:  SurfaceFlinger : FPS : 59.90
51392016-10-18 12:53:59.797 WARN:   SurfaceFlinger : Fail to Open /sys/devices/platform/gpusysfs/fps
51402016-10-18 12:53:59.807 DEBUG:  SurfaceFlinger : FPS : 59.90
51412016-10-18 12:53:59.807 WARN:   SurfaceFlinger : Fail to Open /sys/devices/platform/gpusysfs/fps
51422016-10-18 12:53:59.827 DEBUG:  SurfaceFlinger : FPS : 59.90
51432016-10-18 12:53:59.827 WARN:   SurfaceFlinger : Fail to Open /sys/devices/platform/gpusysfs/fps
51442016-10-18 12:53:59.847 DEBUG:  SurfaceFlinger : FPS : 59.84
51452016-10-18 12:53:59.847 WARN:   SurfaceFlinger : Fail to Open /sys/devices/platform/gpusysfs/fps
51462016-10-18 12:53:59.857 DEBUG:  StatusBar.NetworkController : refreshViews connected={ wifi } level=0 combinedSignalIconId=0x7f020517/com.android.systemui:drawable/stat_sys_wifi_signal_4 mobileLabel= wifiLabel="TestObject Devices"xxxxXXXXxxxxXXXX emergencyOnly=false combinedLabel="TestObject Devices"xxxxXXXXxxxxXXXX mAirplaneMode=true mDataActivity=0 mPhoneSignalIconId=0x0/(null) mQSPhoneSignalIconId=0x0/(null) mDataDirectionIconId=0x0/(null) mDataSignalIconId=0x0/(null) mDataTypeIconId=0x0/(null) mQSDataTypeIconId=0x0/(null) mNoSimIconId=0x0/(null) mWifiIconId=0x7f020517/com.android.systemui:drawable/stat_sys_wifi_signal_4 mQSWifiIconId=0x7f020143/com.android.systemui:drawable/ic_qs_wifi_4 mWifiActivityIconId=0x7f0204f3/com.android.systemui:drawable/stat_sys_signal_out mBluetoothTetherIconId=0x10808cc/android:drawable/stat_sys_tether_bluetooth
51472016-10-18 12:53:59.857 DEBUG:  STATUSBAR-WifiQuickSettingButton : onWifiSignalChanged enabled=true enabledDesc:"TestObject Devices"
51482016-10-18 12:53:59.857 DEBUG:  StatusBar.NetworkController : refreshSignalCluster - setNWBoosterIndicators(false)
51492016-10-18 12:53:59.857 DEBUG:  StatusBar.NetworkController : applyOpen
51502016-10-18 12:53:59.857 DEBUG:  StatusBar.NetworkController : refreshSignalCluster - setNWBoosterIndicators(false)
51512016-10-18 12:53:59.857 DEBUG:  StatusBar.NetworkController : applyOpen
51522016-10-18 12:53:59.857 DEBUG:  StatusBar.NetworkController : refreshSignalCluster - setNWBoosterIndicators(false)
51532016-10-18 12:53:59.857 DEBUG:  StatusBar.NetworkController : applyOpen
51542016-10-18 12:53:59.857 DEBUG:  StatusBar.NetworkController : refreshSignalCluster - setNWBoosterIndicators(false)
51552016-10-18 12:53:59.857 DEBUG:  StatusBar.NetworkController : applyOpen
51562016-10-18 12:53:59.867 DEBUG:  SurfaceFlinger : FPS : 59.84
51572016-10-18 12:53:59.867 WARN:   SurfaceFlinger : Fail to Open /sys/devices/platform/gpusysfs/fps
51582016-10-18 12:53:59.877 DEBUG:  SurfaceFlinger : FPS : 59.84
51592016-10-18 12:53:59.877 WARN:   SurfaceFlinger : Fail to Open /sys/devices/platform/gpusysfs/fps
51602016-10-18 12:53:59.907 DEBUG:  SurfaceFlinger : FPS : 59.84
51612016-10-18 12:53:59.907 WARN:   SurfaceFlinger : Fail to Open /sys/devices/platform/gpusysfs/fps
51622016-10-18 12:53:59.937 DEBUG:  SurfaceFlinger : FPS : 59.84
51632016-10-18 12:53:59.937 WARN:   SurfaceFlinger : Fail to Open /sys/devices/platform/gpusysfs/fps
51642016-10-18 12:53:59.947 DEBUG:  SurfaceFlinger : FPS : 59.84
51652016-10-18 12:53:59.947 WARN:   SurfaceFlinger : Fail to Open /sys/devices/platform/gpusysfs/fps
51662016-10-18 12:53:59.957 DEBUG:  SurfaceFlinger : FPS : 59.84
51672016-10-18 12:53:59.957 WARN:   SurfaceFlinger : Fail to Open /sys/devices/platform/gpusysfs/fps
51682016-10-18 12:53:59.977 DEBUG:  SurfaceFlinger : FPS : 59.84
51692016-10-18 12:53:59.977 WARN:   SurfaceFlinger : Fail to Open /sys/devices/platform/gpusysfs/fps
51702016-10-18 12:53:59.997 DEBUG:  SurfaceFlinger : FPS : 59.84
51712016-10-18 12:53:59.997 WARN:   SurfaceFlinger : Fail to Open /sys/devices/platform/gpusysfs/fps
51722016-10-18 12:53:59.997 DEBUG:  PowerManagerService : [input device light] setInputDeviceLightOn is called : 1
51732016-10-18 12:53:59.997 DEBUG:  PowerManagerService : [input device light] handleInputDeviceLightOn
51742016-10-18 12:53:59.997 DEBUG:  KeyguardUpdateMonitor : received broadcast android.intent.action.TIME_TICK
51752016-10-18 12:53:59.997 DEBUG:  KeyguardUpdateMonitor : handleTimeUpdate
51762016-10-18 12:54:00.007 DEBUG:  KeyguardEffectViewController : onReceive action : android.intent.action.TIME_TICK
51772016-10-18 12:54:00.007 INFO:   KeyguardEffectViewController : *** don't update sliding image ***
51782016-10-18 12:54:00.007 DEBUG:  SurfaceFlinger : FPS : 59.84
51792016-10-18 12:54:00.007 WARN:   SurfaceFlinger : Fail to Open /sys/devices/platform/gpusysfs/fps
51802016-10-18 12:54:00.017 INFO:   TOOLKIT SERVICE : Request body '{"id":"1476780831133","type":"GET_SCREEN_ORIENTATION"}'
51812016-10-18 12:54:00.017 INFO:   DEVICE MANAGER : {"id":"1476780831133","type":"GET_SCREEN_ORIENTATION"}
51822016-10-18 12:54:00.027 DEBUG:  SurfaceFlinger : FPS : 59.84
51832016-10-18 12:54:00.027 WARN:   SurfaceFlinger : Fail to Open /sys/devices/platform/gpusysfs/fps
51842016-10-18 12:54:00.027 INFO:   TOOLKIT SERVICE : Responding to client with: '{"id":"1476780831133","orientation":"PORTRAIT"}'
51852016-10-18 12:54:00.047 DEBUG:  SurfaceFlinger : FPS : 59.84
51862016-10-18 12:54:00.047 WARN:   SurfaceFlinger : Fail to Open /sys/devices/platform/gpusysfs/fps
51872016-10-18 12:54:00.057 DEBUG:  DateView : regionalDateFormat = 22/11/3333 isRTLlanguage = false returnDateFormat = E, d MMMM
51882016-10-18 12:54:00.057 DEBUG:  SurfaceFlinger : FPS : 59.84
51892016-10-18 12:54:00.057 WARN:   SurfaceFlinger : Fail to Open /sys/devices/platform/gpusysfs/fps
51902016-10-18 12:54:00.067 DEBUG:  DateView : regionalDateFormat = 22/11/3333 isRTLlanguage = false returnDateFormat = E, d MMMM
51912016-10-18 12:54:00.077 DEBUG:  SurfaceFlinger : FPS : 59.84
51922016-10-18 12:54:00.077 WARN:   SurfaceFlinger : Fail to Open /sys/devices/platform/gpusysfs/fps
51932016-10-18 12:54:00.117 DEBUG:  daemonapp : [MSC_Accu_Daemon]>>> WCS:94 [0:0] action:androidintentactionTIME_TICK
51942016-10-18 12:54:00.127 DEBUG:  daemonapp : [MSC_Accu_Daemon]>>> AWDS:70 [0:0] Act : widgetappapaccuweatherdaemonactionCHANGE_ICON_OF_DAEMON, run:true
51952016-10-18 12:54:00.137 DEBUG:  SurfaceFlinger : FPS : 49.02
51962016-10-18 12:54:00.137 WARN:   SurfaceFlinger : Fail to Open /sys/devices/platform/gpusysfs/fps
51972016-10-18 12:54:00.137 DEBUG:  comsamsunglog : [MSC_Accu_Daemon]>>> ====================================================================================================================
51982016-10-18 12:54:00.137 DEBUG:  comsamsunglog : [MSC_Accu_Daemon]>>> daemonapp [Version : 150820735400 ] [ 1 ]
51992016-10-18 12:54:00.137 DEBUG:  comsamsunglog : [MSC_Accu_Daemon]>>> Header set to : ===> "daemonapp" <===
52002016-10-18 12:54:00.137 DEBUG:  comsamsunglog : [MSC_Accu_Daemon]>>> ====================================================================================================================
52012016-10-18 12:54:00.137 DEBUG:  daemonapp : [MSC_Accu_Daemon]>>> ACP:435 [0:0] Provider query : content://apaccuweatherprovider/packagename
52022016-10-18 12:54:00.137 DEBUG:  SurfaceFlinger : FPS : 49.02
52032016-10-18 12:54:00.137 WARN:   SurfaceFlinger : Fail to Open /sys/devices/platform/gpusysfs/fps
52042016-10-18 12:54:00.157 DEBUG:  daemonapp : [MSC_Accu_Daemon]>>> AWDS:1099 [0:0] PakNme size = 1
52052016-10-18 12:54:00.157 INFO:   art : Background sticky concurrent mark sweep GC freed 30888(5MB) AllocSpace objects, 238(3MB) LOS objects, 33% free, 16MB/24MB, paused 854us total 100.769ms
52062016-10-18 12:54:00.157 DEBUG:  daemonapp : [MSC_Accu_Daemon]>>> ACP:435 [0:0] Provider query : content://apaccuweatherprovider/current_weatherinfo
52072016-10-18 12:54:00.157 DEBUG:  SurfaceFlinger : FPS : 49.02
52082016-10-18 12:54:00.167 WARN:   SurfaceFlinger : Fail to Open /sys/devices/platform/gpusysfs/fps
52092016-10-18 12:54:00.177 DEBUG:  daemonapp : [MSC_Accu_Daemon]>>> ACP:435 [0:0] Provider query : content://apaccuweatherprovider/current_weatherinfo
52102016-10-18 12:54:00.177 DEBUG:  SurfaceFlinger : FPS : 49.02
52112016-10-18 12:54:00.177 WARN:   SurfaceFlinger : Fail to Open /sys/devices/platform/gpusysfs/fps
52122016-10-18 12:54:00.187 DEBUG:  daemonapp : [MSC_Accu_Daemon]>>> ACP:435 [0:0] Provider query : content://apaccuweatherprovider/current_weatherinfo
52132016-10-18 12:54:00.187 DEBUG:  daemonapp : [MSC_Accu_Daemon]>>> ACP:435 [0:0] Provider query : content://apaccuweatherprovider/settings
52142016-10-18 12:54:00.187 DEBUG:  daemonapp : [MSC_Accu_Daemon]>>> AWDS:113 [0:0] SerStus:true,TmpS:1,AtRfr:3, checkCurrent: 0
52152016-10-18 12:54:00.187 DEBUG:  daemonapp : [MSC_Accu_Daemon]>>> AWDS:663 [0:0] ====ACTION_SEC_CHANGE_ICON_OF_DAEMON===
52162016-10-18 12:54:00.197 DEBUG:  daemonapp : [MSC_Accu_Daemon]>>> AWDS:666 [0:0] checkDay:true, UtilgetIsDay():false
52172016-10-18 12:54:00.197 DEBUG:  SurfaceFlinger : FPS : 49.02
52182016-10-18 12:54:00.197 WARN:   SurfaceFlinger : Fail to Open /sys/devices/platform/gpusysfs/fps
52192016-10-18 12:54:00.207 DEBUG:  SurfaceFlinger : FPS : 49.02
52202016-10-18 12:54:00.207 WARN:   SurfaceFlinger : Fail to Open /sys/devices/platform/gpusysfs/fps
52212016-10-18 12:54:00.227 DEBUG:  daemonapp : [MSC_Accu_Daemon]>>> ACP:435 [0:0] Provider query : content://apaccuweatherprovider/weatherinfo
52222016-10-18 12:54:00.227 DEBUG:  SurfaceFlinger : FPS : 49.02
52232016-10-18 12:54:00.227 WARN:   SurfaceFlinger : Fail to Open /sys/devices/platform/gpusysfs/fps
52242016-10-18 12:54:00.247 DEBUG:  SurfaceFlinger : FPS : 49.02
52252016-10-18 12:54:00.247 WARN:   SurfaceFlinger : Fail to Open /sys/devices/platform/gpusysfs/fps
52262016-10-18 12:54:00.247 DEBUG:  PowerManagerService : [input device light] setInputDeviceLightOn is called : 1
52272016-10-18 12:54:00.247 DEBUG:  PowerManagerService : [input device light] handleInputDeviceLightOn
52282016-10-18 12:54:00.257 DEBUG:  SurfaceFlinger : FPS : 49.02
52292016-10-18 12:54:00.257 WARN:   SurfaceFlinger : Fail to Open /sys/devices/platform/gpusysfs/fps
52302016-10-18 12:54:00.277 DEBUG:  SurfaceFlinger : FPS : 49.02
52312016-10-18 12:54:00.277 WARN:   SurfaceFlinger : Fail to Open /sys/devices/platform/gpusysfs/fps
52322016-10-18 12:54:00.297 DEBUG:  SurfaceFlinger : FPS : 49.02
52332016-10-18 12:54:00.297 WARN:   SurfaceFlinger : Fail to Open /sys/devices/platform/gpusysfs/fps
52342016-10-18 12:54:00.307 DEBUG:  SurfaceFlinger : FPS : 49.02
52352016-10-18 12:54:00.307 WARN:   SurfaceFlinger : Fail to Open /sys/devices/platform/gpusysfs/fps
52362016-10-18 12:54:00.327 DEBUG:  SurfaceFlinger : FPS : 49.02
52372016-10-18 12:54:00.327 WARN:   SurfaceFlinger : Fail to Open /sys/devices/platform/gpusysfs/fps
52382016-10-18 12:54:00.347 DEBUG:  SurfaceFlinger : FPS : 49.02
52392016-10-18 12:54:00.347 WARN:   SurfaceFlinger : Fail to Open /sys/devices/platform/gpusysfs/fps
52402016-10-18 12:54:00.357 DEBUG:  SurfaceFlinger : FPS : 49.02
52412016-10-18 12:54:00.357 WARN:   SurfaceFlinger : Fail to Open /sys/devices/platform/gpusysfs/fps
52422016-10-18 12:54:00.377 DEBUG:  SurfaceFlinger : FPS : 49.02
52432016-10-18 12:54:00.377 WARN:   SurfaceFlinger : Fail to Open /sys/devices/platform/gpusysfs/fps
52442016-10-18 12:54:00.397 DEBUG:  SurfaceFlinger : FPS : 59.36
52452016-10-18 12:54:00.407 WARN:   SurfaceFlinger : Fail to Open /sys/devices/platform/gpusysfs/fps
52462016-10-18 12:54:00.407 DEBUG:  SurfaceFlinger : FPS : 59.36
52472016-10-18 12:54:00.407 WARN:   SurfaceFlinger : Fail to Open /sys/devices/platform/gpusysfs/fps
52482016-10-18 12:54:00.427 DEBUG:  SurfaceFlinger : FPS : 59.36
52492016-10-18 12:54:00.427 WARN:   SurfaceFlinger : Fail to Open /sys/devices/platform/gpusysfs/fps
52502016-10-18 12:54:00.447 DEBUG:  SurfaceFlinger : FPS : 59.36
52512016-10-18 12:54:00.447 WARN:   SurfaceFlinger : Fail to Open /sys/devices/platform/gpusysfs/fps
52522016-10-18 12:54:00.457 DEBUG:  SurfaceFlinger : FPS : 59.36
52532016-10-18 12:54:00.457 WARN:   SurfaceFlinger : Fail to Open /sys/devices/platform/gpusysfs/fps
52542016-10-18 12:54:00.477 DEBUG:  SurfaceFlinger : FPS : 59.36
52552016-10-18 12:54:00.477 WARN:   SurfaceFlinger : Fail to Open /sys/devices/platform/gpusysfs/fps
52562016-10-18 12:54:00.497 DEBUG:  SurfaceFlinger : FPS : 59.36
52572016-10-18 12:54:00.497 WARN:   SurfaceFlinger : Fail to Open /sys/devices/platform/gpusysfs/fps
52582016-10-18 12:54:00.507 DEBUG:  SurfaceFlinger : FPS : 59.36
52592016-10-18 12:54:00.507 WARN:   SurfaceFlinger : Fail to Open /sys/devices/platform/gpusysfs/fps
52602016-10-18 12:54:00.507 INFO:   TOOLKIT SERVICE : Request body '{"id":"1476780831633","type":"GET_SCREEN_ORIENTATION"}'
52612016-10-18 12:54:00.507 INFO:   DEVICE MANAGER : {"id":"1476780831633","type":"GET_SCREEN_ORIENTATION"}
52622016-10-18 12:54:00.517 INFO:   TOOLKIT SERVICE : Responding to client with: '{"id":"1476780831633","orientation":"PORTRAIT"}'
52632016-10-18 12:54:00.527 DEBUG:  SurfaceFlinger : FPS : 59.36
52642016-10-18 12:54:00.527 WARN:   SurfaceFlinger : Fail to Open /sys/devices/platform/gpusysfs/fps
52652016-10-18 12:54:00.547 DEBUG:  SurfaceFlinger : FPS : 59.36
52662016-10-18 12:54:00.547 WARN:   SurfaceFlinger : Fail to Open /sys/devices/platform/gpusysfs/fps
52672016-10-18 12:54:00.557 DEBUG:  SurfaceFlinger : FPS : 59.36
52682016-10-18 12:54:00.557 WARN:   SurfaceFlinger : Fail to Open /sys/devices/platform/gpusysfs/fps
52692016-10-18 12:54:00.577 DEBUG:  SurfaceFlinger : FPS : 59.36
52702016-10-18 12:54:00.577 WARN:   SurfaceFlinger : Fail to Open /sys/devices/platform/gpusysfs/fps
52712016-10-18 12:54:00.597 DEBUG:  SurfaceFlinger : FPS : 59.36
52722016-10-18 12:54:00.597 WARN:   SurfaceFlinger : Fail to Open /sys/devices/platform/gpusysfs/fps
52732016-10-18 12:54:00.607 DEBUG:  SurfaceFlinger : FPS : 59.36
52742016-10-18 12:54:00.607 WARN:   SurfaceFlinger : Fail to Open /sys/devices/platform/gpusysfs/fps
52752016-10-18 12:54:00.627 DEBUG:  SurfaceFlinger : FPS : 59.36
52762016-10-18 12:54:00.627 WARN:   SurfaceFlinger : Fail to Open /sys/devices/platform/gpusysfs/fps
52772016-10-18 12:54:00.647 DEBUG:  SurfaceFlinger : FPS : 59.36
52782016-10-18 12:54:00.647 WARN:   SurfaceFlinger : Fail to Open /sys/devices/platform/gpusysfs/fps
52792016-10-18 12:54:00.657 DEBUG:  SurfaceFlinger : FPS : 62.19
52802016-10-18 12:54:00.657 WARN:   SurfaceFlinger : Fail to Open /sys/devices/platform/gpusysfs/fps
52812016-10-18 12:54:00.677 DEBUG:  SurfaceFlinger : FPS : 62.19
52822016-10-18 12:54:00.677 WARN:   SurfaceFlinger : Fail to Open /sys/devices/platform/gpusysfs/fps
52832016-10-18 12:54:00.687 DEBUG:  SurfaceFlinger : FPS : 62.19
52842016-10-18 12:54:00.698 WARN:   SurfaceFlinger : Fail to Open /sys/devices/platform/gpusysfs/fps
52852016-10-18 12:54:00.708 DEBUG:  SurfaceFlinger : FPS : 62.19
52862016-10-18 12:54:00.708 WARN:   SurfaceFlinger : Fail to Open /sys/devices/platform/gpusysfs/fps
52872016-10-18 12:54:00.728 DEBUG:  SurfaceFlinger : FPS : 62.19
52882016-10-18 12:54:00.728 WARN:   SurfaceFlinger : Fail to Open /sys/devices/platform/gpusysfs/fps
52892016-10-18 12:54:00.748 DEBUG:  SurfaceFlinger : FPS : 62.19
52902016-10-18 12:54:00.748 WARN:   SurfaceFlinger : Fail to Open /sys/devices/platform/gpusysfs/fps
52912016-10-18 12:54:00.758 DEBUG:  SurfaceFlinger : FPS : 62.19
52922016-10-18 12:54:00.758 WARN:   SurfaceFlinger : Fail to Open /sys/devices/platform/gpusysfs/fps
52932016-10-18 12:54:00.778 DEBUG:  SurfaceFlinger : FPS : 62.19
52942016-10-18 12:54:00.778 WARN:   SurfaceFlinger : Fail to Open /sys/devices/platform/gpusysfs/fps
52952016-10-18 12:54:00.798 DEBUG:  SurfaceFlinger : FPS : 62.19
52962016-10-18 12:54:00.798 WARN:   SurfaceFlinger : Fail to Open /sys/devices/platform/gpusysfs/fps
52972016-10-18 12:54:00.808 DEBUG:  SurfaceFlinger : FPS : 62.19
52982016-10-18 12:54:00.808 WARN:   SurfaceFlinger : Fail to Open /sys/devices/platform/gpusysfs/fps
52992016-10-18 12:54:00.828 DEBUG:  SurfaceFlinger : FPS : 62.19
53002016-10-18 12:54:00.828 WARN:   SurfaceFlinger : Fail to Open /sys/devices/platform/gpusysfs/fps
53012016-10-18 12:54:00.838 DEBUG:  SurfaceFlinger : FPS : 62.19
53022016-10-18 12:54:00.838 WARN:   SurfaceFlinger : Fail to Open /sys/devices/platform/gpusysfs/fps
53032016-10-18 12:54:00.858 DEBUG:  SurfaceFlinger : FPS : 62.19
53042016-10-18 12:54:00.858 WARN:   SurfaceFlinger : Fail to Open /sys/devices/platform/gpusysfs/fps
53052016-10-18 12:54:00.878 DEBUG:  SurfaceFlinger : FPS : 62.19
53062016-10-18 12:54:00.878 WARN:   SurfaceFlinger : Fail to Open /sys/devices/platform/gpusysfs/fps
53072016-10-18 12:54:00.898 DEBUG:  SurfaceFlinger : FPS : 62.19
53082016-10-18 12:54:00.898 WARN:   SurfaceFlinger : Fail to Open /sys/devices/platform/gpusysfs/fps
53092016-10-18 12:54:00.908 DEBUG:  SurfaceFlinger : FPS : 59.93
53102016-10-18 12:54:00.908 WARN:   SurfaceFlinger : Fail to Open /sys/devices/platform/gpusysfs/fps
53112016-10-18 12:54:00.928 DEBUG:  SurfaceFlinger : FPS : 59.93
53122016-10-18 12:54:00.928 WARN:   SurfaceFlinger : Fail to Open /sys/devices/platform/gpusysfs/fps
53132016-10-18 12:54:00.948 DEBUG:  SurfaceFlinger : FPS : 59.93
53142016-10-18 12:54:00.948 WARN:   SurfaceFlinger : Fail to Open /sys/devices/platform/gpusysfs/fps
53152016-10-18 12:54:00.958 DEBUG:  SurfaceFlinger : FPS : 59.93
53162016-10-18 12:54:00.958 WARN:   SurfaceFlinger : Fail to Open /sys/devices/platform/gpusysfs/fps
53172016-10-18 12:54:00.978 DEBUG:  SurfaceFlinger : FPS : 59.93
53182016-10-18 12:54:00.978 WARN:   SurfaceFlinger : Fail to Open /sys/devices/platform/gpusysfs/fps
53192016-10-18 12:54:00.988 DEBUG:  SurfaceFlinger : FPS : 59.93
53202016-10-18 12:54:00.988 WARN:   SurfaceFlinger : Fail to Open /sys/devices/platform/gpusysfs/fps
53212016-10-18 12:54:01.008 DEBUG:  SurfaceFlinger : FPS : 59.93
53222016-10-18 12:54:01.008 WARN:   SurfaceFlinger : Fail to Open /sys/devices/platform/gpusysfs/fps
53232016-10-18 12:54:01.008 INFO:   TOOLKIT SERVICE : Request body '{"id":"1476780832133","type":"GET_SCREEN_ORIENTATION"}'
53242016-10-18 12:54:01.008 INFO:   DEVICE MANAGER : {"id":"1476780832133","type":"GET_SCREEN_ORIENTATION"}
53252016-10-18 12:54:01.008 INFO:   TOOLKIT SERVICE : Responding to client with: '{"id":"1476780832133","orientation":"PORTRAIT"}'
53262016-10-18 12:54:01.028 DEBUG:  SurfaceFlinger : FPS : 59.93
53272016-10-18 12:54:01.028 WARN:   SurfaceFlinger : Fail to Open /sys/devices/platform/gpusysfs/fps
53282016-10-18 12:54:01.038 DEBUG:  SurfaceFlinger : FPS : 59.93
53292016-10-18 12:54:01.038 WARN:   SurfaceFlinger : Fail to Open /sys/devices/platform/gpusysfs/fps
53302016-10-18 12:54:01.058 DEBUG:  SurfaceFlinger : FPS : 59.93
53312016-10-18 12:54:01.058 WARN:   SurfaceFlinger : Fail to Open /sys/devices/platform/gpusysfs/fps
53322016-10-18 12:54:01.078 DEBUG:  SurfaceFlinger : FPS : 59.93
53332016-10-18 12:54:01.078 WARN:   SurfaceFlinger : Fail to Open /sys/devices/platform/gpusysfs/fps
53342016-10-18 12:54:01.098 DEBUG:  SurfaceFlinger : FPS : 59.93
53352016-10-18 12:54:01.098 WARN:   SurfaceFlinger : Fail to Open /sys/devices/platform/gpusysfs/fps
53362016-10-18 12:54:01.128 DEBUG:  SurfaceFlinger : FPS : 59.93
53372016-10-18 12:54:01.128 WARN:   SurfaceFlinger : Fail to Open /sys/devices/platform/gpusysfs/fps
53382016-10-18 12:54:01.138 DEBUG:  SurfaceFlinger : FPS : 59.93
53392016-10-18 12:54:01.138 WARN:   SurfaceFlinger : Fail to Open /sys/devices/platform/gpusysfs/fps
53402016-10-18 12:54:01.158 DEBUG:  SurfaceFlinger : FPS : 59.93
53412016-10-18 12:54:01.158 WARN:   SurfaceFlinger : Fail to Open /sys/devices/platform/gpusysfs/fps
53422016-10-18 12:54:01.178 DEBUG:  SurfaceFlinger : FPS : 56.60
53432016-10-18 12:54:01.178 WARN:   SurfaceFlinger : Fail to Open /sys/devices/platform/gpusysfs/fps
53442016-10-18 12:54:01.188 DEBUG:  SurfaceFlinger : FPS : 56.60
53452016-10-18 12:54:01.188 WARN:   SurfaceFlinger : Fail to Open /sys/devices/platform/gpusysfs/fps
53462016-10-18 12:54:01.208 DEBUG:  SurfaceFlinger : FPS : 56.60
53472016-10-18 12:54:01.208 WARN:   SurfaceFlinger : Fail to Open /sys/devices/platform/gpusysfs/fps
53482016-10-18 12:54:01.228 DEBUG:  SurfaceFlinger : FPS : 56.60
53492016-10-18 12:54:01.228 WARN:   SurfaceFlinger : Fail to Open /sys/devices/platform/gpusysfs/fps
53502016-10-18 12:54:01.238 DEBUG:  SurfaceFlinger : FPS : 56.60
53512016-10-18 12:54:01.238 WARN:   SurfaceFlinger : Fail to Open /sys/devices/platform/gpusysfs/fps
53522016-10-18 12:54:01.258 ERROR:  SMD : smd_init start
53532016-10-18 12:54:01.258 DEBUG:  SurfaceFlinger : FPS : 56.60
53542016-10-18 12:54:01.258 WARN:   SurfaceFlinger : Fail to Open /sys/devices/platform/gpusysfs/fps
53552016-10-18 12:54:01.258 ERROR:  SMD : smd Interface open failed errno is 2 -1
53562016-10-18 12:54:01.278 DEBUG:  SurfaceFlinger : FPS : 56.60
53572016-10-18 12:54:01.278 WARN:   SurfaceFlinger : Fail to Open /sys/devices/platform/gpusysfs/fps
53582016-10-18 12:54:01.288 DEBUG:  SurfaceFlinger : FPS : 56.60
53592016-10-18 12:54:01.288 WARN:   SurfaceFlinger : Fail to Open /sys/devices/platform/gpusysfs/fps
53602016-10-18 12:54:01.308 DEBUG:  SurfaceFlinger : FPS : 56.60
53612016-10-18 12:54:01.308 WARN:   SurfaceFlinger : Fail to Open /sys/devices/platform/gpusysfs/fps
53622016-10-18 12:54:01.328 DEBUG:  SurfaceFlinger : FPS : 56.60
53632016-10-18 12:54:01.328 WARN:   SurfaceFlinger : Fail to Open /sys/devices/platform/gpusysfs/fps
53642016-10-18 12:54:01.338 DEBUG:  SurfaceFlinger : FPS : 56.60
53652016-10-18 12:54:01.338 WARN:   SurfaceFlinger : Fail to Open /sys/devices/platform/gpusysfs/fps
53662016-10-18 12:54:01.358 DEBUG:  SurfaceFlinger : FPS : 56.60
53672016-10-18 12:54:01.358 WARN:   SurfaceFlinger : Fail to Open /sys/devices/platform/gpusysfs/fps
53682016-10-18 12:54:01.378 DEBUG:  SurfaceFlinger : FPS : 56.60
53692016-10-18 12:54:01.378 WARN:   SurfaceFlinger : Fail to Open /sys/devices/platform/gpusysfs/fps
53702016-10-18 12:54:01.388 DEBUG:  SurfaceFlinger : FPS : 56.60
53712016-10-18 12:54:01.388 WARN:   SurfaceFlinger : Fail to Open /sys/devices/platform/gpusysfs/fps
53722016-10-18 12:54:01.408 DEBUG:  SurfaceFlinger : FPS : 56.60
53732016-10-18 12:54:01.408 WARN:   SurfaceFlinger : Fail to Open /sys/devices/platform/gpusysfs/fps
53742016-10-18 12:54:01.428 DEBUG:  SurfaceFlinger : FPS : 59.81
53752016-10-18 12:54:01.428 WARN:   SurfaceFlinger : Fail to Open /sys/devices/platform/gpusysfs/fps
53762016-10-18 12:54:01.448 DEBUG:  SurfaceFlinger : FPS : 59.81
53772016-10-18 12:54:01.448 WARN:   SurfaceFlinger : Fail to Open /sys/devices/platform/gpusysfs/fps
53782016-10-18 12:54:01.458 DEBUG:  SurfaceFlinger : FPS : 59.81
53792016-10-18 12:54:01.458 WARN:   SurfaceFlinger : Fail to Open /sys/devices/platform/gpusysfs/fps
53802016-10-18 12:54:01.478 DEBUG:  SurfaceFlinger : FPS : 59.81
53812016-10-18 12:54:01.478 WARN:   SurfaceFlinger : Fail to Open /sys/devices/platform/gpusysfs/fps
53822016-10-18 12:54:01.488 DEBUG:  SurfaceFlinger : FPS : 59.81
53832016-10-18 12:54:01.488 WARN:   SurfaceFlinger : Fail to Open /sys/devices/platform/gpusysfs/fps
53842016-10-18 12:54:01.508 DEBUG:  SurfaceFlinger : FPS : 59.81
53852016-10-18 12:54:01.508 WARN:   SurfaceFlinger : Fail to Open /sys/devices/platform/gpusysfs/fps
53862016-10-18 12:54:01.508 INFO:   TOOLKIT SERVICE : Request body '{"id":"1476780832633","type":"GET_SCREEN_ORIENTATION"}'
53872016-10-18 12:54:01.508 INFO:   DEVICE MANAGER : {"id":"1476780832633","type":"GET_SCREEN_ORIENTATION"}
53882016-10-18 12:54:01.518 INFO:   TOOLKIT SERVICE : Responding to client with: '{"id":"1476780832633","orientation":"PORTRAIT"}'
53892016-10-18 12:54:01.528 DEBUG:  SurfaceFlinger : FPS : 59.81
53902016-10-18 12:54:01.528 WARN:   SurfaceFlinger : Fail to Open /sys/devices/platform/gpusysfs/fps
53912016-10-18 12:54:01.538 DEBUG:  SurfaceFlinger : FPS : 59.81
53922016-10-18 12:54:01.538 WARN:   SurfaceFlinger : Fail to Open /sys/devices/platform/gpusysfs/fps
53932016-10-18 12:54:01.558 DEBUG:  SurfaceFlinger : FPS : 59.81
53942016-10-18 12:54:01.558 WARN:   SurfaceFlinger : Fail to Open /sys/devices/platform/gpusysfs/fps
53952016-10-18 12:54:01.578 DEBUG:  SurfaceFlinger : FPS : 59.81
53962016-10-18 12:54:01.578 WARN:   SurfaceFlinger : Fail to Open /sys/devices/platform/gpusysfs/fps
53972016-10-18 12:54:01.598 DEBUG:  SurfaceFlinger : FPS : 59.81
53982016-10-18 12:54:01.598 WARN:   SurfaceFlinger : Fail to Open /sys/devices/platform/gpusysfs/fps
53992016-10-18 12:54:01.608 DEBUG:  SurfaceFlinger : FPS : 59.81
54002016-10-18 12:54:01.608 WARN:   SurfaceFlinger : Fail to Open /sys/devices/platform/gpusysfs/fps
54012016-10-18 12:54:01.628 INFO:   Timeline : Timeline: Activity_idle id: android.os.BinderProxy@12b738e4 time:502869702
54022016-10-18 12:54:01.628 DEBUG:  PowerManagerService : [input device light] setInputDeviceLightOn is called : 1
54032016-10-18 12:54:01.628 DEBUG:  PowerManagerService : [input device light] handleInputDeviceLightOn
54042016-10-18 12:54:01.628 DEBUG:  Launcher.HomeView : onStop
54052016-10-18 12:54:01.638 DEBUG:  SurfaceWidgetClient$ISurfaceWidgetStub : [237392/8] Surface widget visibility changed visibility = false on instance = 1
54062016-10-18 12:54:01.638 DEBUG:  SurfaceWidgetClient$ISurfaceWidgetStub : [237392/8] Surface widget visibility changed visibility = false on instance = 1
54072016-10-18 12:54:01.638 DEBUG:  SurfaceWidgetClient$ISurfaceWidgetStub : [237392/8] Surface widget visibility changed visibility = false on instance = 1
54082016-10-18 12:54:01.638 DEBUG:  SurfaceFlinger : FPS : 59.81
54092016-10-18 12:54:01.638 WARN:   SurfaceFlinger : Fail to Open /sys/devices/platform/gpusysfs/fps
54102016-10-18 12:54:01.638 WARN:   Finsky : [1] com.google.android.finsky.FinskyApp.i(1465): No account configured on this device.
54112016-10-18 12:54:01.658 DEBUG:  Launcher : onTrimMemory. Level: 20
54122016-10-18 12:54:01.698 INFO:   Finsky : [1] com.google.android.finsky.utils.dm.onTrimMemory(25): Memory trim requested to level 20
54132016-10-18 12:54:01.698 WARN:   Finsky : [1] com.google.android.finsky.FinskyApp.i(1465): No account configured on this device.
54142016-10-18 12:54:01.718 DEBUG:  ConnectivityService : returning getActiveNetworkInfo :[type: WIFI[] - WIFI, state: CONNECTED/CONNECTED, reason: (unspecified), extra: "TestObject Devices", roaming: false, failover: false, isAvailable: true, isConnectedToProvisioningNetwork: false]
54152016-10-18 12:54:01.729 DEBUG:  PowerManagerService : [input device light] setInputDeviceLightOn is called : 1
54162016-10-18 12:54:01.729 DEBUG:  PowerManagerService : [input device light] handleInputDeviceLightOn
54172016-10-18 12:54:01.729 ERROR:  ExtMediaPlayer-JNI : QCMediaPlayer could not be located....
54182016-10-18 12:54:01.729 ERROR:  MediaPlayer-JNI : QCMediaPlayer mediaplayer NOT present
54192016-10-18 12:54:01.789 DEBUG:  SurfaceFlinger : FPS : 35.78
54202016-10-18 12:54:01.789 WARN:   SurfaceFlinger : Fail to Open /sys/devices/platform/gpusysfs/fps
54212016-10-18 12:54:01.829 DEBUG:  SurfaceFlinger : FPS : 35.78
54222016-10-18 12:54:01.829 WARN:   SurfaceFlinger : Fail to Open /sys/devices/platform/gpusysfs/fps
54232016-10-18 12:54:01.839 DEBUG:  SurfaceFlinger : FPS : 35.78
54242016-10-18 12:54:01.839 WARN:   SurfaceFlinger : Fail to Open /sys/devices/platform/gpusysfs/fps
54252016-10-18 12:54:01.869 DEBUG:  StatusBar.NetworkController : refreshViews connected={ wifi } level=0 combinedSignalIconId=0x7f020517/com.android.systemui:drawable/stat_sys_wifi_signal_4 mobileLabel= wifiLabel="TestObject Devices"xxxxXXXXxxxxXXXX emergencyOnly=false combinedLabel="TestObject Devices"xxxxXXXXxxxxXXXX mAirplaneMode=true mDataActivity=0 mPhoneSignalIconId=0x0/(null) mQSPhoneSignalIconId=0x0/(null) mDataDirectionIconId=0x0/(null) mDataSignalIconId=0x0/(null) mDataTypeIconId=0x0/(null) mQSDataTypeIconId=0x0/(null) mNoSimIconId=0x0/(null) mWifiIconId=0x7f020517/com.android.systemui:drawable/stat_sys_wifi_signal_4 mQSWifiIconId=0x7f020143/com.android.systemui:drawable/ic_qs_wifi_4 mWifiActivityIconId=0x7f0204e8/com.android.systemui:drawable/stat_sys_signal_inout mBluetoothTetherIconId=0x10808cc/android:drawable/stat_sys_tether_bluetooth
54262016-10-18 12:54:01.869 DEBUG:  STATUSBAR-WifiQuickSettingButton : onWifiSignalChanged enabled=true enabledDesc:"TestObject Devices"
54272016-10-18 12:54:01.869 DEBUG:  StatusBar.NetworkController : refreshSignalCluster - setNWBoosterIndicators(false)
54282016-10-18 12:54:01.869 DEBUG:  StatusBar.NetworkController : applyOpen
54292016-10-18 12:54:01.869 DEBUG:  StatusBar.NetworkController : refreshSignalCluster - setNWBoosterIndicators(false)
54302016-10-18 12:54:01.869 DEBUG:  StatusBar.NetworkController : applyOpen
54312016-10-18 12:54:01.869 DEBUG:  StatusBar.NetworkController : refreshSignalCluster - setNWBoosterIndicators(false)
54322016-10-18 12:54:01.869 DEBUG:  StatusBar.NetworkController : applyOpen
54332016-10-18 12:54:01.869 DEBUG:  StatusBar.NetworkController : refreshSignalCluster - setNWBoosterIndicators(false)
54342016-10-18 12:54:01.869 DEBUG:  StatusBar.NetworkController : applyOpen
54352016-10-18 12:54:01.889 DEBUG:  SurfaceFlinger : FPS : 35.78
54362016-10-18 12:54:01.899 WARN:   SurfaceFlinger : Fail to Open /sys/devices/platform/gpusysfs/fps
54372016-10-18 12:54:01.999 INFO:   TOOLKIT SERVICE : Request body '{"id":"1476780833133","type":"GET_SCREEN_ORIENTATION"}'
54382016-10-18 12:54:02.009 INFO:   DEVICE MANAGER : {"id":"1476780833133","type":"GET_SCREEN_ORIENTATION"}
54392016-10-18 12:54:02.009 INFO:   TOOLKIT SERVICE : Responding to client with: '{"id":"1476780833133","orientation":"PORTRAIT"}'
54402016-10-18 12:54:02.039 DEBUG:  ConnectivityService : returning getNetworkInfo(networkType - 1) :[type: WIFI[] - WIFI, state: CONNECTED/CONNECTED, reason: (unspecified), extra: "TestObject Devices", roaming: false, failover: false, isAvailable: true, isConnectedToProvisioningNetwork: false]
54412016-10-18 12:54:02.069 ERROR:  Diag_Lib : Diag_LSM_Init: Failed to open handle to diag driver, error = 2
54422016-10-18 12:54:02.259 ERROR:  SMD : smd Interface open failed errno is 2 -1
54432016-10-18 12:54:02.509 INFO:   TOOLKIT SERVICE : Request body '{"id":"1476780833633","type":"GET_SCREEN_ORIENTATION"}'
54442016-10-18 12:54:02.509 INFO:   DEVICE MANAGER : {"id":"1476780833633","type":"GET_SCREEN_ORIENTATION"}
54452016-10-18 12:54:02.509 INFO:   TOOLKIT SERVICE : Responding to client with: '{"id":"1476780833633","orientation":"PORTRAIT"}'
54462016-10-18 12:54:02.860 DEBUG:  StatusBar.NetworkController : refreshViews connected={ wifi } level=0 combinedSignalIconId=0x7f020517/com.android.systemui:drawable/stat_sys_wifi_signal_4 mobileLabel= wifiLabel="TestObject Devices"xxxxXXXXxxxxXXXX emergencyOnly=false combinedLabel="TestObject Devices"xxxxXXXXxxxxXXXX mAirplaneMode=true mDataActivity=0 mPhoneSignalIconId=0x0/(null) mQSPhoneSignalIconId=0x0/(null) mDataDirectionIconId=0x0/(null) mDataSignalIconId=0x0/(null) mDataTypeIconId=0x0/(null) mQSDataTypeIconId=0x0/(null) mNoSimIconId=0x0/(null) mWifiIconId=0x7f020517/com.android.systemui:drawable/stat_sys_wifi_signal_4 mQSWifiIconId=0x7f020143/com.android.systemui:drawable/ic_qs_wifi_4 mWifiActivityIconId=0x7f0204e6/com.android.systemui:drawable/stat_sys_signal_in mBluetoothTetherIconId=0x10808cc/android:drawable/stat_sys_tether_bluetooth
54472016-10-18 12:54:02.860 DEBUG:  STATUSBAR-WifiQuickSettingButton : onWifiSignalChanged enabled=true enabledDesc:"TestObject Devices"
54482016-10-18 12:54:02.870 DEBUG:  StatusBar.NetworkController : refreshSignalCluster - setNWBoosterIndicators(false)
54492016-10-18 12:54:02.870 DEBUG:  StatusBar.NetworkController : applyOpen
54502016-10-18 12:54:02.880 DEBUG:  StatusBar.NetworkController : refreshSignalCluster - setNWBoosterIndicators(false)
54512016-10-18 12:54:02.880 DEBUG:  StatusBar.NetworkController : applyOpen
54522016-10-18 12:54:02.890 DEBUG:  StatusBar.NetworkController : refreshSignalCluster - setNWBoosterIndicators(false)
54532016-10-18 12:54:02.890 DEBUG:  StatusBar.NetworkController : applyOpen
54542016-10-18 12:54:02.890 DEBUG:  StatusBar.NetworkController : refreshSignalCluster - setNWBoosterIndicators(false)
54552016-10-18 12:54:02.890 DEBUG:  StatusBar.NetworkController : applyOpen
54562016-10-18 12:54:02.910 DEBUG:  SurfaceFlinger : FPS : 3.54
54572016-10-18 12:54:02.910 WARN:   SurfaceFlinger : Fail to Open /sys/devices/platform/gpusysfs/fps
54582016-10-18 12:54:03.010 INFO:   TOOLKIT SERVICE : Request body '{"id":"1476780834133","type":"GET_SCREEN_ORIENTATION"}'
54592016-10-18 12:54:03.010 INFO:   DEVICE MANAGER : {"id":"1476780834133","type":"GET_SCREEN_ORIENTATION"}
54602016-10-18 12:54:03.010 INFO:   TOOLKIT SERVICE : Responding to client with: '{"id":"1476780834133","orientation":"PORTRAIT"}'
54612016-10-18 12:54:03.250 ERROR:  SMD : smd Interface open failed errno is 2 -1
54622016-10-18 12:54:03.510 INFO:   TOOLKIT SERVICE : Request body '{"id":"1476780834633","type":"GET_SCREEN_ORIENTATION"}'
54632016-10-18 12:54:03.510 INFO:   DEVICE MANAGER : {"id":"1476780834633","type":"GET_SCREEN_ORIENTATION"}
54642016-10-18 12:54:03.510 INFO:   TOOLKIT SERVICE : Responding to client with: '{"id":"1476780834633","orientation":"PORTRAIT"}'
54652016-10-18 12:54:04.001 INFO:   TOOLKIT SERVICE : Request body '{"id":"1476780835133","type":"GET_SCREEN_ORIENTATION"}'
54662016-10-18 12:54:04.001 INFO:   DEVICE MANAGER : {"id":"1476780835133","type":"GET_SCREEN_ORIENTATION"}
54672016-10-18 12:54:04.011 INFO:   TOOLKIT SERVICE : Responding to client with: '{"id":"1476780835133","orientation":"PORTRAIT"}'
54682016-10-18 12:54:04.251 ERROR:  SMD : smd Interface open failed errno is 2 -1
54692016-10-18 12:54:04.501 INFO:   TOOLKIT SERVICE : Request body '{"id":"1476780835633","type":"GET_SCREEN_ORIENTATION"}'
54702016-10-18 12:54:04.501 INFO:   DEVICE MANAGER : {"id":"1476780835633","type":"GET_SCREEN_ORIENTATION"}
54712016-10-18 12:54:04.511 INFO:   TOOLKIT SERVICE : Responding to client with: '{"id":"1476780835633","orientation":"PORTRAIT"}'
54722016-10-18 12:54:04.691 DEBUG:  SurfaceFlinger : FPS : 0.56
54732016-10-18 12:54:04.711 WARN:   SurfaceFlinger : Fail to Open /sys/devices/platform/gpusysfs/fps
54742016-10-18 12:54:04.721 DEBUG:  PowerManagerService : [input device light] setInputDeviceLightOn is called : 1
54752016-10-18 12:54:04.731 DEBUG:  PowerManagerService : [input device light] handleInputDeviceLightOn
54762016-10-18 12:54:04.731 DEBUG:  PackageManager : [MSG] SEND_PENDING_BROADCAST
54772016-10-18 12:54:04.751 DEBUG:  ResourcesManager : creating new AssetManager and set to /system/priv-app/InputDevices/InputDevices.apk
54782016-10-18 12:54:04.761 DEBUG:  ResourcesManager : creating new AssetManager and set to /system/priv-app/SNS/SNS.apk
54792016-10-18 12:54:04.781 WARN:   ApplicationPackageEventSource : Action for android.intent.action.PACKAGE_CHANGED.
54802016-10-18 12:54:04.781 INFO:   BusinessExecutor : registered Task#16377 : PlatformEventSender$1
54812016-10-18 12:54:04.781 INFO:   BusinessExecutor : Task#16377 : #run() called
54822016-10-18 12:54:04.781 INFO:   BusinessExecutor : registered Task#16378 : AreAlienServicesInstalled$1
54832016-10-18 12:54:04.781 INFO:   BusinessExecutor : Task#16378 : #run() called
54842016-10-18 12:54:04.781 INFO:   BusinessExecutor : Task#16377 : #run() ended
54852016-10-18 12:54:04.802 INFO:   InputReader : Reconfiguring input devices.  changes=0x00000010
54862016-10-18 12:54:04.802 DEBUG:  ResourcesManager : creating new AssetManager and set to /system/priv-app/Samsungservice2_xxhdpi/Samsungservice2_xxhdpi.apk
54872016-10-18 12:54:04.822 DEBUG:  ResourcesManager : creating new AssetManager and set to /system/app/SecEmail_K/SecEmail_K.apk
54882016-10-18 12:54:04.842 DEBUG:  AASAservice-UpdateReceiver : AASAUpdateReceiver: android.intent.action.PACKAGE_CHANGED, package = com.google.android.gms, uid = -1
54892016-10-18 12:54:04.842 DEBUG:  RegisteredServicesCache : empty dynamic service
54902016-10-18 12:54:04.842 DEBUG:  ResourcesManager : creating new AssetManager and set to /system/app/ChatON_MARKET/ChatON_MARKET.apk
54912016-10-18 12:54:04.842 DEBUG:  ActivityManager : startProcessLocked calleePkgName: com.sec.android.widgetapp.diotek.smemo, hostingType: broadcast
54922016-10-18 12:54:04.852 ERROR:  ActivityManager : checkUser: useridlist=null, currentuser=0
54932016-10-18 12:54:04.852 ERROR:  ActivityManager : checkUser: useridlist=null, currentuser=0
54942016-10-18 12:54:04.852 ERROR:  ActivityManager : checkUser: useridlist=null, currentuser=0
54952016-10-18 12:54:04.852 ERROR:  ActivityManager : checkUser: useridlist=null, currentuser=0
54962016-10-18 12:54:04.852 DEBUG:  ResourcesManager : creating new AssetManager and set to /data/app/com.google.android.gms-1/base.apk
54972016-10-18 12:54:04.852 DEBUG:  ResourcesManager : creating new AssetManager and set to /data/app/com.tripadvisor.tripadvisor-2/base.apk
54982016-10-18 12:54:04.862 ERROR:  Zygote : MountEmulatedStorage()
54992016-10-18 12:54:04.862 ERROR:  Zygote : v2
55002016-10-18 12:54:04.862 INFO:   libpersona : KNOX_SDCARD checking this for 10005
55012016-10-18 12:54:04.862 INFO:   libpersona : KNOX_SDCARD not a persona
55022016-10-18 12:54:04.872 INFO:   SELinux : Function: selinux_compare_spd_ram, SPD-policy is existed. and_ver=SEPF_GT-I9505_5.0.1-1 ver=51
55032016-10-18 12:54:04.872 INFO:   SELinux : Function: selinux_compare_spd_ram , priority [1] , priority version is VE=SEPF_GT-I9505_5.0.1-1_0051
55042016-10-18 12:54:04.872 INFO:   ActivityManager : Start proc com.sec.android.widgetapp.diotek.smemo for broadcast com.sec.android.widgetapp.diotek.smemo/com.sec.android.widgetapp.q1_penmemo.PaperWidget: pid=27649 uid=10005 gids={50005, 9997, 1028, 1015, 3003, 1023} abi=armeabi-v7a
55052016-10-18 12:54:04.872 ERROR:  SELinux : [DEBUG] get_category: variable seinfo: release sensitivity: NULL, cateogry: NULL
55062016-10-18 12:54:04.882 DEBUG:  ResourcesManager : creating new AssetManager and set to /system/priv-app/StoryAlbumWidget/StoryAlbumWidget.apk
55072016-10-18 12:54:04.882 DEBUG:  ResourcesManager : creating new AssetManager and set to /data/app/com.dropbox.android-2/base.apk
55082016-10-18 12:54:04.892 INFO:   art : Explicit concurrent mark sweep GC freed 8738(372KB) AllocSpace objects, 0(0B) LOS objects, 39% free, 15MB/25MB, paused 579us total 21.575ms
55092016-10-18 12:54:04.902 WARN:   ResourcesManager : Asset path '/system/framework/twframework.jar' does not exist or contains no resources.
55102016-10-18 12:54:04.902 DEBUG:  ResourcesManager : creating new AssetManager and set to /data/app/com.google.android.gm-2/base.apk
55112016-10-18 12:54:04.902 WARN:   ResourcesManager : Asset path '/system/framework/sws.jar' does not exist or contains no resources.
55122016-10-18 12:54:04.902 DEBUG:  ResourcesManager : creating new AssetManager and set to /system/priv-app/SMemo2/SMemo2.apk
55132016-10-18 12:54:04.912 INFO:   art : Explicit concurrent mark sweep GC freed 5(160B) AllocSpace objects, 0(0B) LOS objects, 39% free, 15MB/25MB, paused 701us total 21.881ms
55142016-10-18 12:54:04.932 INFO:   art : Explicit concurrent mark sweep GC freed 5(160B) AllocSpace objects, 0(0B) LOS objects, 39% free, 15MB/25MB, paused 457us total 14.862ms
55152016-10-18 12:54:04.942 DEBUG:  ResourcesManager : creating new AssetManager and set to /system/priv-app/sCloudSyncSBrowser/sCloudSyncSBrowser.apk
55162016-10-18 12:54:04.952 DEBUG:  ResourcesManager : creating new AssetManager and set to /system/app/AccuweatherPhone2013_J_LMR/AccuweatherPhone2013_J_LMR.apk
55172016-10-18 12:54:04.952 WARN:   ResourcesManager : Asset path '/system/framework/com.google.android.maps.jar' does not exist or contains no resources.
55182016-10-18 12:54:04.952 WARN:   ResourcesManager : Asset path '/system/framework/twframework.jar' does not exist or contains no resources.
55192016-10-18 12:54:04.952 WARN:   ResourcesManager : Asset path '/system/framework/sws.jar' does not exist or contains no resources.
55202016-10-18 12:54:04.952 DEBUG:  ResourcesManager : creating new AssetManager and set to /system/app/SPlannerWidget_OS_UPG_EasyWidget/SPlannerWidget_OS_UPG_EasyWidget.apk
55212016-10-18 12:54:04.952 WARN:   ResourcesManager : Asset path '/system/framework/twframework.jar' does not exist or contains no resources.
55222016-10-18 12:54:04.952 WARN:   ResourcesManager : Asset path '/system/framework/sws.jar' does not exist or contains no resources.
55232016-10-18 12:54:04.962 DEBUG:  Documents : Update found 6 roots in 116ms
55242016-10-18 12:54:04.962 WARN:   Resources : Converting to string: TypedValue{t=0x12/d=0xffffffff a=-1}
55252016-10-18 12:54:04.962 DEBUG:  ResourcesManager : creating new AssetManager and set to /system/priv-app/SecMms_Candy/SecMms_Candy.apk
55262016-10-18 12:54:04.972 DEBUG:  ResourcesManager : creating new AssetManager and set to /system/priv-app/SHealth3_5/SHealth3_5.apk
55272016-10-18 12:54:04.972 DEBUG:  ResourcesManager : creating new AssetManager and set to /system/app/SmartBriefing4x2/SmartBriefing4x2.apk
55282016-10-18 12:54:04.972 WARN:   Resources : Converting to string: TypedValue{t=0x12/d=0xffffffff a=-1}
55292016-10-18 12:54:04.972 WARN:   ResourcesManager : Asset path '/system/framework/twframework.jar' does not exist or contains no resources.
55302016-10-18 12:54:04.982 WARN:   ResourcesManager : Asset path '/system/framework/sws.jar' does not exist or contains no resources.
55312016-10-18 12:54:04.982 DEBUG:  ResourcesManager : creating new AssetManager and set to /system/priv-app/SecGallery2013/SecGallery2013.apk
55322016-10-18 12:54:04.982 DEBUG:  ResourcesManager : creating new AssetManager and set to /system/app/TravelWidget/TravelWidget.apk
55332016-10-18 12:54:04.982 WARN:   ResourcesManager : Asset path '/system/framework/com.google.android.maps.jar' does not exist or contains no resources.
55342016-10-18 12:54:04.982 WARN:   ResourcesManager : Asset path '/system/framework/sws.jar' does not exist or contains no resources.
55352016-10-18 12:54:04.982 DEBUG:  ResourcesManager : creating new AssetManager and set to /system/priv-app/sCloudSyncCalendar/sCloudSyncCalendar.apk
55362016-10-18 12:54:04.982 DEBUG:  ResourcesManager : creating new AssetManager and set to /system/priv-app/SMemo2/SMemo2.apk
55372016-10-18 12:54:04.992 DEBUG:  ResourcesManager : creating new AssetManager and set to /system/priv-app/sCloudSyncContacts/sCloudSyncContacts.apk
55382016-10-18 12:54:04.992 WARN:   Resources : Converting to string: TypedValue{t=0x12/d=0xffffffff a=-1}
55392016-10-18 12:54:04.992 DEBUG:  ResourcesManager : creating new AssetManager and set to /data/app/tv.peel.samsung.app-2/base.apk
55402016-10-18 12:54:04.992 DEBUG:  ResourcesManager : creating new AssetManager and set to /system/priv-app/sCloudSyncSNote/sCloudSyncSNote.apk
55412016-10-18 12:54:04.992 DEBUG:  SecContentProvider2 : uri = 11 selection = getMyKnoxAdmin
55422016-10-18 12:54:04.992 DEBUG:  SecContentProvider2 : mCursor = null
55432016-10-18 12:54:04.992 WARN:   ResourcesManager : Asset path '/system/framework/secmediarecorder.jar' does not exist or contains no resources.
55442016-10-18 12:54:04.992 WARN:   ResourcesManager : Asset path '/system/framework/com.google.android.maps.jar' does not exist or contains no resources.
55452016-10-18 12:54:05.002 WARN:   ResourcesManager : Asset path '/system/framework/twframework.jar' does not exist or contains no resources.
55462016-10-18 12:54:05.002 DEBUG:  ResourcesManager : creating new AssetManager and set to /system/priv-app/sCloudSyncSNote3/sCloudSyncSNote3.apk
55472016-10-18 12:54:05.002 INFO:   TOOLKIT SERVICE : Request body '{"id":"1476780836133","type":"GET_SCREEN_ORIENTATION"}'
55482016-10-18 12:54:05.002 INFO:   DEVICE MANAGER : {"id":"1476780836133","type":"GET_SCREEN_ORIENTATION"}
55492016-10-18 12:54:05.002 DEBUG:  ResourcesManager : creating new AssetManager and set to /system/app/Newsstand/Newsstand.apk
55502016-10-18 12:54:05.012 INFO:   TOOLKIT SERVICE : Responding to client with: '{"id":"1476780836133","orientation":"PORTRAIT"}'
55512016-10-18 12:54:05.012 DEBUG:  ResourcesManager : creating new AssetManager and set to /system/app/GoogleCalendarSyncAdapter/GoogleCalendarSyncAdapter.apk
55522016-10-18 12:54:05.042 DEBUG:  InputManager-JNI : !@interceptKeyBeforeQueueing(0), action=0
55532016-10-18 12:54:05.042 DEBUG:  InputManager-JNI : !@handleInterceptActions(0), action=0, wmActions=1
55542016-10-18 12:54:05.042 DEBUG:  InputManager-JNI : !@interceptKeyBeforeQueueing(0), action=1
55552016-10-18 12:54:05.042 DEBUG:  InputManager-JNI : !@handleInterceptActions(0), action=1, wmActions=1
55562016-10-18 12:54:05.042 DEBUG:  VoIPInterfaceManager : isVoIPRinging()...
55572016-10-18 12:54:05.042 DEBUG:  VoIPInterfaceManager : isVoIPRunningAndDeregi()...
55582016-10-18 12:54:05.042 DEBUG:  VoIPInterfaceManager : Not exist call session
55592016-10-18 12:54:05.042 DEBUG:  PersonaManager : isKioskContainerExistOnDevice
55602016-10-18 12:54:05.052 DEBUG:  VoIPInterfaceManager : isVoIPRinging()...
55612016-10-18 12:54:05.052 DEBUG:  VoIPInterfaceManager : isVoIPRunningAndDeregi()...
55622016-10-18 12:54:05.052 DEBUG:  VoIPInterfaceManager : Not exist call session
55632016-10-18 12:54:05.052 DEBUG:  PersonaManager : isKioskContainerExistOnDevice
55642016-10-18 12:54:05.102 DEBUG:  ResourcesManager : creating new AssetManager and set to /system/app/SecExchange/SecExchange.apk
55652016-10-18 12:54:05.112 DEBUG:  ResourcesManager : creating new AssetManager and set to /system/app/GoogleContactsSyncAdapter/GoogleContactsSyncAdapter.apk
55662016-10-18 12:54:05.112 DEBUG:  ResourcesManager : creating new AssetManager and set to /data/app/com.google.android.apps.plus-2/base.apk
55672016-10-18 12:54:05.122 DEBUG:  ResourcesManager : creating new AssetManager and set to /data/app/com.google.android.apps.docs-1/base.apk
55682016-10-18 12:54:05.122 DEBUG:  ResourcesManager : creating new AssetManager and set to /data/app/com.google.android.youtube-2/base.apk
55692016-10-18 12:54:05.122 DEBUG:  ResourcesManager : creating new AssetManager and set to /data/app/com.android.chrome-1/base.apk
55702016-10-18 12:54:05.132 DEBUG:  ResourcesManager : creating new AssetManager and set to /data/app/com.google.android.music-2/base.apk
55712016-10-18 12:54:05.152 DEBUG:  ResourcesManager : creating new AssetManager and set to /data/app/com.google.android.videos-2/base.apk
55722016-10-18 12:54:05.162 WARN:   ResourcesManager : Asset path '/system/framework/com.google.widevine.software.drm.jar' does not exist or contains no resources.
55732016-10-18 12:54:05.162 DEBUG:  ResourcesManager : creating new AssetManager and set to /data/app/com.google.android.apps.books-2/base.apk
55742016-10-18 12:54:05.172 DEBUG:  BackupManagerService : Received broadcast Intent { act=android.intent.action.PACKAGE_CHANGED dat=package:com.google.android.gms flg=0x4000010 (has extras) }
55752016-10-18 12:54:05.172 INFO:   BackupManagerService : Unbinding ComponentInfo{com.google.android.gms/com.google.android.gms.backup.BackupTransportService}
55762016-10-18 12:54:05.182 INFO:   BackupManagerService : Binding to transport host ComponentInfo{com.google.android.gms/com.google.android.gms.backup.BackupTransportService}
55772016-10-18 12:54:05.182 DEBUG:  ActivityManager : bindService callerProcessName:android, calleePkgName: com.google.android.gms, action: android.backup.TRANSPORT_HOST
55782016-10-18 12:54:05.192 DEBUG:  ResourcesManager : creating new AssetManager and set to /data/app/com.ebay.mobile-1/base.apk
55792016-10-18 12:54:05.192 DEBUG:  StatusBar.NetworkController : refreshViews connected={ wifi } level=0 combinedSignalIconId=0x7f020517/com.android.systemui:drawable/stat_sys_wifi_signal_4 mobileLabel= wifiLabel="TestObject Devices"xxxxXXXXxxxxXXXX emergencyOnly=false combinedLabel="TestObject Devices"xxxxXXXXxxxxXXXX mAirplaneMode=true mDataActivity=0 mPhoneSignalIconId=0x0/(null) mQSPhoneSignalIconId=0x0/(null) mDataDirectionIconId=0x0/(null) mDataSignalIconId=0x0/(null) mDataTypeIconId=0x0/(null) mQSDataTypeIconId=0x0/(null) mNoSimIconId=0x0/(null) mWifiIconId=0x7f020517/com.android.systemui:drawable/stat_sys_wifi_signal_4 mQSWifiIconId=0x7f020143/com.android.systemui:drawable/ic_qs_wifi_4 mWifiActivityIconId=0x7f0204ea/com.android.systemui:drawable/stat_sys_signal_no_inout mBluetoothTetherIconId=0x10808cc/android:drawable/stat_sys_tether_bluetooth
55802016-10-18 12:54:05.192 DEBUG:  STATUSBAR-WifiQuickSettingButton : onWifiSignalChanged enabled=true enabledDesc:"TestObject Devices"
55812016-10-18 12:54:05.192 DEBUG:  StatusBar.NetworkController : refreshSignalCluster - setNWBoosterIndicators(false)
55822016-10-18 12:54:05.192 DEBUG:  StatusBar.NetworkController : applyOpen
55832016-10-18 12:54:05.192 DEBUG:  StatusBar.NetworkController : refreshSignalCluster - setNWBoosterIndicators(false)
55842016-10-18 12:54:05.192 DEBUG:  StatusBar.NetworkController : applyOpen
55852016-10-18 12:54:05.192 DEBUG:  StatusBar.NetworkController : refreshSignalCluster - setNWBoosterIndicators(false)
55862016-10-18 12:54:05.192 DEBUG:  StatusBar.NetworkController : applyOpen
55872016-10-18 12:54:05.192 DEBUG:  StatusBar.NetworkController : refreshSignalCluster - setNWBoosterIndicators(false)
55882016-10-18 12:54:05.192 DEBUG:  StatusBar.NetworkController : applyOpen
55892016-10-18 12:54:05.202 WARN:   Backup : [GmsBackupAccountManager] Backup account not found in gmscore.
55902016-10-18 12:54:05.202 DEBUG:  ActivityManager : startService callerProcessName:com.google.android.gms, calleePkgName: com.google.android.gms
55912016-10-18 12:54:05.222 INFO:   BusinessExecutor : registered Task#16379 : AreAlienServicesInstalled$1$1
55922016-10-18 12:54:05.222 INFO:   BusinessExecutor : Task#16378 : #run() ended
55932016-10-18 12:54:05.222 INFO:   BusinessExecutor : Task#16379 : #run() called
55942016-10-18 12:54:05.222 INFO:   BusinessExecutor : registered Task#16380 : IsCurrentServiceEnabled$1
55952016-10-18 12:54:05.222 INFO:   BusinessExecutor : Task#16379 : #run() ended
55962016-10-18 12:54:05.222 DEBUG:  ResourcesManager : creating new AssetManager and set to /system/priv-app/SamsungLink20/SamsungLink20.apk
55972016-10-18 12:54:05.222 INFO:   BusinessExecutor : Task#16380 : #run() called
55982016-10-18 12:54:05.222 INFO:   BusinessExecutor : registered Task#16381 : ActivatedStateChecker$2
55992016-10-18 12:54:05.222 INFO:   BusinessExecutor : Task#16380 : #run() ended
56002016-10-18 12:54:05.222 INFO:   BusinessExecutor : Task#16381 : #run() called
56012016-10-18 12:54:05.222 INFO:   RcsPreferencesProvider : onMasterSwitchUpdateEvent
56022016-10-18 12:54:05.232 DEBUG:  SurfaceFlinger : FPS : 1.86
56032016-10-18 12:54:05.232 WARN:   SurfaceFlinger : Fail to Open /sys/devices/platform/gpusysfs/fps
56042016-10-18 12:54:05.232 INFO:   BusinessExecutor : Task#16381 : #run() ended
56052016-10-18 12:54:05.242 INFO:   RcsPreferencesProvider : query(content://com.sec.ims.android.rcs/preferences/1)
56062016-10-18 12:54:05.242 INFO:   BusinessExecutor : registered Task#16382 : BlockingExecutor$2
56072016-10-18 12:54:05.242 INFO:   BusinessExecutor : Task#16382 : #run() called
56082016-10-18 12:54:05.242 INFO:   BusinessExecutor : registered Task#16383 : BlockingExecutor$2
56092016-10-18 12:54:05.242 INFO:   BusinessExecutor : Task#16382 : #run() ended
56102016-10-18 12:54:05.242 INFO:   BusinessExecutor : Task#16383 : #run() called
56112016-10-18 12:54:05.242 INFO:   BusinessExecutor : Task#16383 : #run() ended
56122016-10-18 12:54:05.242 INFO:   BusinessExecutor : Task#16384 : #run() called
56132016-10-18 12:54:05.242 INFO:   BusinessExecutor : registered Task#16384 : BlockingExecutor$2
56142016-10-18 12:54:05.242 INFO:   BusinessExecutor : Task#16384 : #run() ended
56152016-10-18 12:54:05.242 INFO:   RcsPreferencesProvider : isEnabled=true, isVanilla=true, isMasterSwitchVisible=false
56162016-10-18 12:54:05.252 WARN:   Resources : Converting to string: TypedValue{t=0x12/d=0xffffffff a=-1}
56172016-10-18 12:54:05.252 DEBUG:  ResourcesManager : creating new AssetManager and set to /system/priv-app/SFinder/SFinder.apk
56182016-10-18 12:54:05.252 ERROR:  SMD : smd Interface open failed errno is 2 -1
56192016-10-18 12:54:05.262 INFO:   art : Explicit concurrent mark sweep GC freed 35601(2MB) AllocSpace objects, 12(257KB) LOS objects, 23% free, 50MB/66MB, paused 6.317ms total 251.922ms
56202016-10-18 12:54:05.262 WARN:   Resources : Converting to string: TypedValue{t=0x12/d=0xffffffff a=-1}
56212016-10-18 12:54:05.272 DEBUG:  ResourcesManager : creating new AssetManager and set to /system/priv-app/SecMms_Candy/SecMms_Candy.apk
56222016-10-18 12:54:05.292 DEBUG:  ResourcesManager : creating new AssetManager and set to /system/priv-app/SecSettings/SecSettings.apk
56232016-10-18 12:54:05.302 WARN:   Resources : Converting to string: TypedValue{t=0x12/d=0xffffffff a=-1}
56242016-10-18 12:54:05.302 DEBUG:  ResourcesManager : creating new AssetManager and set to /system/app/ChatON_MARKET/ChatON_MARKET.apk
56252016-10-18 12:54:05.302 WARN:   Resources : Converting to string: TypedValue{t=0x12/d=0xffffffff a=-1}
56262016-10-18 12:54:05.312 DEBUG:  ResourcesManager : creating new AssetManager and set to /system/app/Newsstand/Newsstand.apk
56272016-10-18 12:54:05.312 DEBUG:  ResourcesManager : creating new AssetManager and set to /system/app/SPlanner_LEGACY/SPlanner_LEGACY.apk
56282016-10-18 12:54:05.312 WARN:   ResourcesManager : Asset path '/system/framework/sechardware.jar' does not exist or contains no resources.
56292016-10-18 12:54:05.312 WARN:   ResourcesManager : Asset path '/system/framework/com.google.android.maps.jar' does not exist or contains no resources.
56302016-10-18 12:54:05.312 WARN:   ResourcesManager : Asset path '/system/framework/twframework.jar' does not exist or contains no resources.
56312016-10-18 12:54:05.322 WARN:   Resources : Converting to string: TypedValue{t=0x12/d=0xffffffff a=-1}
56322016-10-18 12:54:05.322 DEBUG:  ResourcesManager : creating new AssetManager and set to /system/app/InteractiveTutorial/InteractiveTutorial.apk
56332016-10-18 12:54:05.322 WARN:   Resources : Converting to string: TypedValue{t=0x12/d=0xffffffff a=-1}
56342016-10-18 12:54:05.322 DEBUG:  ResourcesManager : creating new AssetManager and set to /data/app/com.google.android.play.games-1/base.apk
56352016-10-18 12:54:05.332 DEBUG:  ResourcesManager : creating new AssetManager and set to /data/app/com.google.android.apps.docs-1/base.apk
56362016-10-18 12:54:05.332 INFO:   art : Explicit concurrent mark sweep GC freed 63041(3MB) AllocSpace objects, 7(112KB) LOS objects, 38% free, 25MB/41MB, paused 1.586ms total 125.305ms
56372016-10-18 12:54:05.342 DEBUG:  ResourcesManager : creating new AssetManager and set to /data/app/com.android.chrome-1/base.apk
56382016-10-18 12:54:05.352 DEBUG:  ResourcesManager : creating new AssetManager and set to /data/app/com.google.android.youtube-2/base.apk
56392016-10-18 12:54:05.352 INFO:   WindowManager : startDockOrHome
56402016-10-18 12:54:05.352 DEBUG:  PowerManagerService : [api] [s] userActivity : event: 0 flags: 0 (uid: 1000 pid: 906) eventTime = 502873437
56412016-10-18 12:54:05.352 WARN:   ContextImpl : Calling a method in the system process without a qualified user: android.app.ContextImpl.sendBroadcast:1699 com.android.server.accessibility.AccessibilityManagerService$DirectAccessBrocastReceiver.onReceive:393 android.app.LoadedApk$ReceiverDispatcher$Args.run:923 android.os.Handler.handleCallback:739 android.os.Handler.dispatchMessage:95
56422016-10-18 12:54:05.362 DEBUG:  HotspotTile : onReceive : android.intent.action.CLOSE_SYSTEM_DIALOGS
56432016-10-18 12:54:05.362 DEBUG:  ResourcesManager : creating new AssetManager and set to /data/app/uk.amazon.mShop.android-1/base.apk
56442016-10-18 12:54:05.362 DEBUG:  AirplaneModeTile : onReceive : android.intent.action.CLOSE_SYSTEM_DIALOGS
56452016-10-18 12:54:05.362 DEBUG:  PhoneStatusBar : animateCollapse(): mExpandedVisible=false flags=0
56462016-10-18 12:54:05.362 DEBUG:  StatusBar-Window : fnf=true sanc=false, kni=false, sbf=false
56472016-10-18 12:54:05.362 DEBUG:  CoverUI : applyFocusableFlag() : Remove SAMSUNG_FLAG_SVIEW_COVER
56482016-10-18 12:54:05.362 ERROR:  PersonaManagerService : inState():  stateMachine is null !!
56492016-10-18 12:54:05.362 INFO:   PersonaManagerService : PersonaId don't exist
56502016-10-18 12:54:05.362 INFO:   ActivityManager : do not start freezing screen for locked container getKeyguardshowstate = false
56512016-10-18 12:54:05.362 DEBUG:  Recents_AlternateRecentsComponent : isRecentsTopMost is getting called
56522016-10-18 12:54:05.372 INFO:   ActivityManager : START u0 {act=android.intent.action.MAIN cat=[android.intent.category.HOME] flg=0x10200000 cmp=com.sec.android.app.launcher/com.android.launcher2.Launcher} from uid 1000 on display 0
56532016-10-18 12:54:05.372 WARN:   ActivityManager : mDVFSHelper.acquire()
56542016-10-18 12:54:05.372 DEBUG:  ResourcesManager : creating new AssetManager and set to /data/app/com.vouchercloud.android-1/base.apk
56552016-10-18 12:54:05.372 DEBUG:  FocusedStackFrame : Set to : 0
56562016-10-18 12:54:05.392 DEBUG:  SurfaceFlinger : FPS : 1.86
56572016-10-18 12:54:05.392 WARN:   SurfaceFlinger : Fail to Open /sys/devices/platform/gpusysfs/fps
56582016-10-18 12:54:05.402 DEBUG:  PowerManagerService : [input device light] setInputDeviceLightOn is called : 1
56592016-10-18 12:54:05.402 DEBUG:  PowerManagerService : [input device light] handleInputDeviceLightOn
56602016-10-18 12:54:05.412 DEBUG:  PointerIcon : setMouseIconStyle1 pointerType: 1001iconType:101 flag:0
56612016-10-18 12:54:05.412 DEBUG:  PointerIcon : setMouseCustomIcon IconType is same.101
56622016-10-18 12:54:05.412 DEBUG:  PointerIcon : setHoveringSpenIconStyle1 pointerType: 10001iconType:1 flag:0
56632016-10-18 12:54:05.412 DEBUG:  PointerIcon : setHoveringSpenCustomIcon IconType is same.1
56642016-10-18 12:54:05.422 DEBUG:  ResourcesManager : creating new AssetManager and set to /data/app/com.google.android.googlequicksearchbox-1/base.apk
56652016-10-18 12:54:05.442 DEBUG:  SurfaceWidgetView : destroyHardwareResources():578072690
56662016-10-18 12:54:05.442 DEBUG:  SurfaceWidgetView : destroyHardwareResources():482517113
56672016-10-18 12:54:05.442 DEBUG:  SurfaceWidgetView : destroyHardwareResources():93157740
56682016-10-18 12:54:05.442 DEBUG:  ResourcesManager : creating new AssetManager and set to /system/priv-app/SecNoteMyFiles/SecNoteMyFiles.apk
56692016-10-18 12:54:05.452 DEBUG:  SurfaceWidgetClient$ISurfaceWidgetStub : [237392/8] Surface widget visibility changed visibility = true on instance = 1
56702016-10-18 12:54:05.452 DEBUG:  SurfaceWidget.Renderer : [237392/8] SurfaceWidget drawing first frame
56712016-10-18 12:54:05.452 DEBUG:  SurfaceWidgetClient$ISurfaceWidgetStub : [237392/8] Surface widget visibility changed visibility = true on instance = 1
56722016-10-18 12:54:05.452 DEBUG:  SurfaceWidget.Renderer : [237392/8] SurfaceWidget drawing first frame
56732016-10-18 12:54:05.452 DEBUG:  SurfaceWidgetClient$ISurfaceWidgetStub : [237392/8] Surface widget visibility changed visibility = true on instance = 1
56742016-10-18 12:54:05.452 DEBUG:  SurfaceWidget.Renderer : [237392/8] SurfaceWidget drawing first frame
56752016-10-18 12:54:05.462 DEBUG:  Launcher : onRestart, Launcher: 504639718
56762016-10-18 12:54:05.472 DEBUG:  Launcher : onStart, Launcher: 504639718
56772016-10-18 12:54:05.472 DEBUG:  Launcher.HomeView : onStart
56782016-10-18 12:54:05.472 DEBUG:  Launcher : onResume, Launcher: 504639718
56792016-10-18 12:54:05.472 DEBUG:  SettingsProvider : name = kids_home_mode
56802016-10-18 12:54:05.472 DEBUG:  SettingsProvider : edmUri: content://com.sec.knox.provider/RestrictionPolicy3
56812016-10-18 12:54:05.472 DEBUG:  SettingsProvider : projectionArgs: isSettingsChangesAllowed
56822016-10-18 12:54:05.472 DEBUG:  SettingsProvider : selectionArgs: false
56832016-10-18 12:54:05.472 DEBUG:  SettingsProvider : selectionArgs: 10028
56842016-10-18 12:54:05.472 DEBUG:  SecContentProvider : uri = 17 selection = isSettingsChangesAllowed
56852016-10-18 12:54:05.472 DEBUG:  SettingsProvider : ret = -1
56862016-10-18 12:54:05.472 DEBUG:  Launcher.HomeView : onResume
56872016-10-18 12:54:05.472 DEBUG:  Launcher : Launcher::setSystemUiTransparency(): getSystemUiVisibility() after setting  = 40000000
56882016-10-18 12:54:05.472 DEBUG:  MenuAppsGridFragment : onResume
56892016-10-18 12:54:05.472 DEBUG:  ConnectivityService : returning getNetworkInfo(networkType - 1) :[type: WIFI[] - WIFI, state: CONNECTED/CONNECTED, reason: (unspecified), extra: "TestObject Devices", roaming: false, failover: false, isAvailable: true, isConnectedToProvisioningNetwork: false]
56902016-10-18 12:54:05.482 DEBUG:  WallpaperManager : SEC_PRODUCT_FEATURE_COMMON_SUPPORT_TEXTURE_COMPRESSION is true
56912016-10-18 12:54:05.482 DEBUG:  WallpaperManager : SEC_PRODUCT_FEATURE_COMMON_SUPPORT_TEXTURE_COMPRESSION is true
56922016-10-18 12:54:05.492 WARN:   Resources : Converting to string: TypedValue{t=0x12/d=0xffffffff a=-1}
56932016-10-18 12:54:05.492 DEBUG:  ResourcesManager : creating new AssetManager and set to /system/priv-app/SamsungMusic_20/SamsungMusic_20.apk
56942016-10-18 12:54:05.492 DEBUG:  WallpaperManager : SEC_PRODUCT_FEATURE_COMMON_SUPPORT_TEXTURE_COMPRESSION is true
56952016-10-18 12:54:05.492 DEBUG:  WallpaperManager : SEC_PRODUCT_FEATURE_COMMON_SUPPORT_TEXTURE_COMPRESSION is true
56962016-10-18 12:54:05.502 WARN:   Resources : Converting to string: TypedValue{t=0x12/d=0xffffffff a=-1}
56972016-10-18 12:54:05.502 DEBUG:  ResourcesManager : creating new AssetManager and set to /system/priv-app/SecVideoPlayer/SecVideoPlayer.apk
56982016-10-18 12:54:05.512 INFO:   TOOLKIT SERVICE : Request body '{"id":"1476780836633","type":"GET_SCREEN_ORIENTATION"}'
56992016-10-18 12:54:05.512 INFO:   DEVICE MANAGER : {"id":"1476780836633","type":"GET_SCREEN_ORIENTATION"}
57002016-10-18 12:54:05.512 INFO:   TOOLKIT SERVICE : Responding to client with: '{"id":"1476780836633","orientation":"PORTRAIT"}'
57012016-10-18 12:54:05.512 WARN:   Resources : Converting to string: TypedValue{t=0x12/d=0xffffffff a=-1}
57022016-10-18 12:54:05.512 WARN:   Resources : Converting to string: TypedValue{t=0x12/d=0x0 a=-1}
57032016-10-18 12:54:05.512 DEBUG:  ResourcesManager : creating new AssetManager and set to /system/priv-app/SecContacts_Phone_OSup/SecContacts_Phone_OSup.apk
57042016-10-18 12:54:05.512 DEBUG:  SurfaceWidgetClient$ISurfaceWidgetStub : [237392/8] Surface widget visibility changed visibility = true on instance = 1
57052016-10-18 12:54:05.512 DEBUG:  SurfaceWidget.Renderer : [237392/8] SurfaceWidget drawing first frame
57062016-10-18 12:54:05.522 DEBUG:  SurfaceWidgetClient$ISurfaceWidgetStub : [237392/8] Surface widget visibility changed visibility = true on instance = 1
57072016-10-18 12:54:05.522 DEBUG:  SurfaceWidget.Renderer : [237392/8] SurfaceWidget drawing first frame
57082016-10-18 12:54:05.532 DEBUG:  ActivityManager : handle home activity for 0
57092016-10-18 12:54:05.532 INFO:   WallpaperManagerService : switchPersonaWallpaper is called for personaId-0
57102016-10-18 12:54:05.532 DEBUG:  KnoxTimeoutHandler : post home show event for user 0
57112016-10-18 12:54:05.532 DEBUG:  WallpaperManagerService : force update = false; persona id = 0; current user =0; current persona = 0
57122016-10-18 12:54:05.532 DEBUG:  ActivityManager : post active user change for 0
57132016-10-18 12:54:05.532 DEBUG:  KnoxTimeoutHandler : postActiveUserChange for user 0
57142016-10-18 12:54:05.532 DEBUG:  KnoxTimeoutHandler : handleHomeShow for 0 and current 0
57152016-10-18 12:54:05.532 DEBUG:  KnoxTimeoutHandler : handleActiveUserChange for user 0
57162016-10-18 12:54:05.532 DEBUG:  SurfaceWidgetClient$ISurfaceWidgetStub : [237392/8] Surface widget visibility changed visibility = true on instance = 1
57172016-10-18 12:54:05.532 DEBUG:  SurfaceWidget.Renderer : [237392/8] SurfaceWidget drawing first frame
57182016-10-18 12:54:05.572 DEBUG:  ActivityManager : startProcessLocked calleePkgName: com.sec.knox.bridge, hostingType: broadcast
57192016-10-18 12:54:05.572 WARN:   Resources : Converting to string: TypedValue{t=0x12/d=0xffffffff a=-1}
57202016-10-18 12:54:05.572 DEBUG:  ResourcesManager : creating new AssetManager and set to /system/priv-app/SecGallery2013/SecGallery2013.apk
57212016-10-18 12:54:05.572 ERROR:  ActivityManager : checkUser: useridlist=null, currentuser=0
57222016-10-18 12:54:05.572 ERROR:  ActivityManager : checkUser: useridlist=null, currentuser=0
57232016-10-18 12:54:05.572 ERROR:  ActivityManager : checkUser: useridlist=null, currentuser=0
57242016-10-18 12:54:05.572 ERROR:  ActivityManager : checkUser: useridlist=null, currentuser=0
57252016-10-18 12:54:05.572 WARN:   Resources : Converting to string: TypedValue{t=0x12/d=0xffffffff a=-1}
57262016-10-18 12:54:05.572 WARN:   Resources : Converting to string: TypedValue{t=0x12/d=0x0 a=-1}
57272016-10-18 12:54:05.572 DEBUG:  ResourcesManager : creating new AssetManager and set to /system/app/VoiceRecorder/VoiceRecorder.apk
57282016-10-18 12:54:05.572 DEBUG:  SurfaceFlinger : FPS : 5.73
57292016-10-18 12:54:05.572 WARN:   SurfaceFlinger : Fail to Open /sys/devices/platform/gpusysfs/fps
57302016-10-18 12:54:05.582 DEBUG:  PointerIcon : setMouseIconStyle1 pointerType: 1001iconType:101 flag:0
57312016-10-18 12:54:05.582 DEBUG:  PointerIcon : setMouseCustomIcon IconType is same.101
57322016-10-18 12:54:05.582 DEBUG:  PointerIcon : setHoveringSpenIconStyle1 pointerType: 10001iconType:1 flag:0
57332016-10-18 12:54:05.582 DEBUG:  PointerIcon : setHoveringSpenCustomIcon IconType is same.1
57342016-10-18 12:54:05.582 ERROR:  Zygote : MountEmulatedStorage()
57352016-10-18 12:54:05.582 ERROR:  Zygote : v2
57362016-10-18 12:54:05.582 INFO:   libpersona : KNOX_SDCARD checking this for 1000
57372016-10-18 12:54:05.582 INFO:   libpersona : KNOX_SDCARD not a persona
57382016-10-18 12:54:05.582 INFO:   SELinux : Function: selinux_compare_spd_ram, SPD-policy is existed. and_ver=SEPF_GT-I9505_5.0.1-1 ver=51
57392016-10-18 12:54:05.582 INFO:   ActivityManager : Start proc com.sec.knox.bridge for broadcast com.sec.knox.bridge/.PersonaShortcutReceiver: pid=27676 uid=1000 gids={41000, 9997, 3002, 3001, 3003, 1007, 1028, 1015, 1023, 2001, 1024, 1001} abi=armeabi-v7a
57402016-10-18 12:54:05.582 DEBUG:  StatusBarManagerService : manageDisableList userId=0 what=0x0 pkg=WindowManager.LayoutParams
57412016-10-18 12:54:05.592 DEBUG:  SurfaceFlinger : FPS : 5.73
57422016-10-18 12:54:05.592 WARN:   SurfaceFlinger : Fail to Open /sys/devices/platform/gpusysfs/fps
57432016-10-18 12:54:05.592 INFO:   SELinux : Function: selinux_compare_spd_ram , priority [1] , priority version is VE=SEPF_GT-I9505_5.0.1-1_0051
57442016-10-18 12:54:05.592 ERROR:  SELinux : [DEBUG] get_category: variable seinfo: platform sensitivity: NULL, cateogry: NULL
57452016-10-18 12:54:05.622 DEBUG:  SurfaceFlinger : FPS : 5.73
57462016-10-18 12:54:05.622 WARN:   SurfaceFlinger : Fail to Open /sys/devices/platform/gpusysfs/fps
57472016-10-18 12:54:05.622 WARN:   Resources : Converting to string: TypedValue{t=0x12/d=0xffffffff a=-1}
57482016-10-18 12:54:05.622 WARN:   Resources : Converting to string: TypedValue{t=0x12/d=0x0 a=-1}
57492016-10-18 12:54:05.642 DEBUG:  SurfaceFlinger : FPS : 5.73
57502016-10-18 12:54:05.642 WARN:   SurfaceFlinger : Fail to Open /sys/devices/platform/gpusysfs/fps
57512016-10-18 12:54:05.662 DEBUG:  SurfaceFlinger : FPS : 5.73
57522016-10-18 12:54:05.662 WARN:   SurfaceFlinger : Fail to Open /sys/devices/platform/gpusysfs/fps
57532016-10-18 12:54:05.682 DEBUG:  SurfaceFlinger : FPS : 5.73
57542016-10-18 12:54:05.682 WARN:   SurfaceFlinger : Fail to Open /sys/devices/platform/gpusysfs/fps
57552016-10-18 12:54:05.692 DEBUG:  SurfaceFlinger : FPS : 5.73
57562016-10-18 12:54:05.692 WARN:   SurfaceFlinger : Fail to Open /sys/devices/platform/gpusysfs/fps
57572016-10-18 12:54:05.712 DEBUG:  SurfaceFlinger : FPS : 5.73
57582016-10-18 12:54:05.712 WARN:   SurfaceFlinger : Fail to Open /sys/devices/platform/gpusysfs/fps
57592016-10-18 12:54:05.762 DEBUG:  SurfaceWidgetView : getHardwareLayer being called directly
57602016-10-18 12:54:05.772 DEBUG:  SurfaceWidgetView : getHardwareLayer being called directly
57612016-10-18 12:54:05.772 DEBUG:  SurfaceFlinger : FPS : 5.73
57622016-10-18 12:54:05.772 WARN:   SurfaceFlinger : Fail to Open /sys/devices/platform/gpusysfs/fps
57632016-10-18 12:54:05.772 INFO:   GCoreNlp : !shouldConfirmNlp, ensuring user opted into NLP
57642016-10-18 12:54:05.772 DEBUG:  SurfaceWidgetView : getHardwareLayer being called directly
57652016-10-18 12:54:05.782 DEBUG:  SurfaceFlinger : FPS : 5.73
57662016-10-18 12:54:05.782 WARN:   SurfaceFlinger : Fail to Open /sys/devices/platform/gpusysfs/fps
57672016-10-18 12:54:05.782 DEBUG:  Launcher : Launcher::setSystemUiTransparency(): getSystemUiVisibility() after setting  = 40000000
57682016-10-18 12:54:05.782 DEBUG:  InputMethodManagerService : windowGainedFocus mCurrentFocusedUserId - 0 and mSecureKeypadEnabled-false
57692016-10-18 12:54:05.792 WARN:   ContextImpl : Calling a method in the system process without a qualified user: android.app.ContextImpl.sendBroadcast:1699 com.android.server.InputMethodManagerService$6.run:2733 java.lang.Thread.run:818 <bottom of call stack> <bottom of call stack>
57702016-10-18 12:54:05.792 DEBUG:  SurfaceFlinger : FPS : 5.73
57712016-10-18 12:54:05.792 WARN:   SurfaceFlinger : Fail to Open /sys/devices/platform/gpusysfs/fps
57722016-10-18 12:54:05.812 DEBUG:  SurfaceFlinger : FPS : 5.73
57732016-10-18 12:54:05.812 WARN:   SurfaceFlinger : Fail to Open /sys/devices/platform/gpusysfs/fps
57742016-10-18 12:54:05.833 DEBUG:  ResourcesManager : creating new AssetManager and set to /system/app/Bridge/Bridge.apk
57752016-10-18 12:54:05.833 DEBUG:  SurfaceFlinger : FPS : 47.67
57762016-10-18 12:54:05.833 WARN:   SurfaceFlinger : Fail to Open /sys/devices/platform/gpusysfs/fps
57772016-10-18 12:54:05.833 DEBUG:  ResourcesManager : creating new AssetManager and set to /data/app/com.google.android.gms-1/base.apk
57782016-10-18 12:54:05.843 INFO:   Timeline : Timeline: Activity_idle id: android.os.BinderProxy@9a5ed05 time:502873920
57792016-10-18 12:54:05.843 WARN:   ResourcesManager : Asset path '/system/framework/twframework.jar' does not exist or contains no resources.
57802016-10-18 12:54:05.843 DEBUG:  SurfaceFlinger : FPS : 47.67
57812016-10-18 12:54:05.843 WARN:   SurfaceFlinger : Fail to Open /sys/devices/platform/gpusysfs/fps
57822016-10-18 12:54:05.853 DEBUG:  StatusBarManagerService : manageDisableList userId=0 what=0x0 pkg=WindowManager.LayoutParams
57832016-10-18 12:54:05.873 DEBUG:  PowerManagerService : [input device light] setInputDeviceLightOn is called : 1
57842016-10-18 12:54:05.873 WARN:   ActivityManager : mDVFSHelper.release()
57852016-10-18 12:54:05.873 DEBUG:  PowerManagerService : [input device light] handleInputDeviceLightOn
57862016-10-18 12:54:05.883 DEBUG:  SurfaceFlinger : FPS : 47.67
57872016-10-18 12:54:05.883 WARN:   SurfaceFlinger : Fail to Open /sys/devices/platform/gpusysfs/fps
57882016-10-18 12:54:05.893 DEBUG:  SurfaceFlinger : FPS : 47.67
57892016-10-18 12:54:05.893 WARN:   SurfaceFlinger : Fail to Open /sys/devices/platform/gpusysfs/fps
57902016-10-18 12:54:05.903 WARN:   SurfaceFlinger : couldn't log to binary event log: overflow.
57912016-10-18 12:54:05.913 DEBUG:  SurfaceFlinger : FPS : 47.67
57922016-10-18 12:54:05.913 WARN:   SurfaceFlinger : Fail to Open /sys/devices/platform/gpusysfs/fps
57932016-10-18 12:54:05.913 INFO:   Timeline : Timeline: Activity_windows_visible id: ActivityRecord{35a2621e u0 com.sec.android.app.launcher/com.android.launcher2.Launcher t11101} time:502873996
57942016-10-18 12:54:05.913 DEBUG:  PowerManagerService : [input device light] setInputDeviceLightOn is called : 1
57952016-10-18 12:54:05.923 DEBUG:  PowerManagerService : [input device light] handleInputDeviceLightOn
57962016-10-18 12:54:05.923 DEBUG:  PowerManagerService : [input device light] setInputDeviceLightOn is called : 1
57972016-10-18 12:54:05.923 DEBUG:  ActivityManager : startProcessLocked calleePkgName: com.samsung.android.app.FileShareServer, hostingType: broadcast
57982016-10-18 12:54:05.923 DEBUG:  PowerManagerService : [input device light] setInputDeviceLightOn is called : 1
57992016-10-18 12:54:05.923 DEBUG:  PowerManagerService : [input device light] handleInputDeviceLightOn
58002016-10-18 12:54:05.923 DEBUG:  PowerManagerService : [input device light] handleInputDeviceLightOn
58012016-10-18 12:54:05.923 ERROR:  ActivityManager : checkUser: useridlist=null, currentuser=0
58022016-10-18 12:54:05.923 ERROR:  ActivityManager : checkUser: useridlist=null, currentuser=0
58032016-10-18 12:54:05.923 ERROR:  ActivityManager : checkUser: useridlist=null, currentuser=0
58042016-10-18 12:54:05.923 ERROR:  ActivityManager : checkUser: useridlist=null, currentuser=0
58052016-10-18 12:54:05.933 DEBUG:  SurfaceFlinger : FPS : 47.67
58062016-10-18 12:54:05.933 WARN:   SurfaceFlinger : Fail to Open /sys/devices/platform/gpusysfs/fps
58072016-10-18 12:54:05.943 ERROR:  Zygote : MountEmulatedStorage()
58082016-10-18 12:54:05.943 ERROR:  Zygote : v2
58092016-10-18 12:54:05.943 INFO:   libpersona : KNOX_SDCARD checking this for 10147
58102016-10-18 12:54:05.943 INFO:   libpersona : KNOX_SDCARD not a persona
58112016-10-18 12:54:05.943 INFO:   SELinux : Function: selinux_compare_spd_ram, SPD-policy is existed. and_ver=SEPF_GT-I9505_5.0.1-1 ver=51
58122016-10-18 12:54:05.943 INFO:   ActivityManager : Start proc com.samsung.android.app.FileShareServer for broadcast com.samsung.android.app.FileShareServer/.ServerBroadcastReceiver: pid=27695 uid=10147 gids={50147, 9997, 3003, 1028, 1015} abi=armeabi-v7a
58132016-10-18 12:54:05.943 INFO:   SELinux : Function: selinux_compare_spd_ram , priority [1] , priority version is VE=SEPF_GT-I9505_5.0.1-1_0051
58142016-10-18 12:54:05.943 ERROR:  SELinux : [DEBUG] get_category: variable seinfo: platform sensitivity: NULL, cateogry: NULL
58152016-10-18 12:54:05.943 DEBUG:  SurfaceFlinger : FPS : 47.67
58162016-10-18 12:54:05.943 WARN:   SurfaceFlinger : Fail to Open /sys/devices/platform/gpusysfs/fps
58172016-10-18 12:54:05.963 DEBUG:  SurfaceFlinger : FPS : 47.67
58182016-10-18 12:54:05.963 WARN:   SurfaceFlinger : Fail to Open /sys/devices/platform/gpusysfs/fps
58192016-10-18 12:54:05.973 DEBUG:  SurfaceFlinger : FPS : 47.67
58202016-10-18 12:54:05.973 WARN:   SurfaceFlinger : Fail to Open /sys/devices/platform/gpusysfs/fps
58212016-10-18 12:54:05.993 DEBUG:  SurfaceFlinger : FPS : 47.67
58222016-10-18 12:54:05.993 WARN:   SurfaceFlinger : Fail to Open /sys/devices/platform/gpusysfs/fps
58232016-10-18 12:54:06.003 INFO:   TOOLKIT SERVICE : Request body '{"id":"1476780837133","type":"GET_SCREEN_ORIENTATION"}'
58242016-10-18 12:54:06.003 INFO:   DEVICE MANAGER : {"id":"1476780837133","type":"GET_SCREEN_ORIENTATION"}
58252016-10-18 12:54:06.013 INFO:   TOOLKIT SERVICE : Responding to client with: '{"id":"1476780837133","orientation":"PORTRAIT"}'
58262016-10-18 12:54:06.013 DEBUG:  PowerManagerService : [input device light] setInputDeviceLightOn is called : 1
58272016-10-18 12:54:06.013 DEBUG:  PowerManagerService : [input device light] handleInputDeviceLightOn
58282016-10-18 12:54:06.013 DEBUG:  SurfaceFlinger : FPS : 47.67
58292016-10-18 12:54:06.013 WARN:   SurfaceFlinger : Fail to Open /sys/devices/platform/gpusysfs/fps
58302016-10-18 12:54:06.013 INFO:   ActivityManager : Killing 23165:com.android.documentsui/u0a129 (adj 15): emptyCount ##36
58312016-10-18 12:54:06.023 DEBUG:  SurfaceFlinger : FPS : 47.67
58322016-10-18 12:54:06.023 WARN:   SurfaceFlinger : Fail to Open /sys/devices/platform/gpusysfs/fps
58332016-10-18 12:54:06.023 DEBUG:  ResourcesManager : creating new AssetManager and set to /system/app/AllshareFileShareServer/AllshareFileShareServer.apk
58342016-10-18 12:54:06.043 DEBUG:  SurfaceFlinger : FPS : 47.67
58352016-10-18 12:54:06.043 WARN:   SurfaceFlinger : Fail to Open /sys/devices/platform/gpusysfs/fps
58362016-10-18 12:54:06.063 DEBUG:  SurfaceFlinger : FPS : 47.67
58372016-10-18 12:54:06.063 WARN:   SurfaceFlinger : Fail to Open /sys/devices/platform/gpusysfs/fps
58382016-10-18 12:54:06.073 DEBUG:  ActivityManager : startService callerProcessName:com.samsung.android.app.galaxyfinder, calleePkgName: com.samsung.android.app.galaxyfinder
58392016-10-18 12:54:06.073 DEBUG:  SurfaceFlinger : FPS : 47.67
58402016-10-18 12:54:06.073 WARN:   SurfaceFlinger : Fail to Open /sys/devices/platform/gpusysfs/fps
58412016-10-18 12:54:06.073 DEBUG:  FileShare-Server : ServerBroadcastReceiver.onReceive - action android.intent.action.PACKAGE_CHANGED // package:com.google.android.gms
58422016-10-18 12:54:06.073 DEBUG:  ActivityManager : startProcessLocked calleePkgName: com.sec.knox.knoxsetupwizardclient, hostingType: broadcast
58432016-10-18 12:54:06.083 ERROR:  ActivityManager : checkUser: useridlist=null, currentuser=0
58442016-10-18 12:54:06.083 ERROR:  ActivityManager : checkUser: useridlist=null, currentuser=0
58452016-10-18 12:54:06.083 ERROR:  ActivityManager : checkUser: useridlist=null, currentuser=0
58462016-10-18 12:54:06.083 ERROR:  ActivityManager : checkUser: useridlist=null, currentuser=0
58472016-10-18 12:54:06.093 ERROR:  Zygote : MountEmulatedStorage()
58482016-10-18 12:54:06.093 INFO:   libpersona : KNOX_SDCARD checking this for 1000
58492016-10-18 12:54:06.093 ERROR:  Zygote : v2
58502016-10-18 12:54:06.093 INFO:   libpersona : KNOX_SDCARD not a persona
58512016-10-18 12:54:06.093 INFO:   SELinux : Function: selinux_compare_spd_ram, SPD-policy is existed. and_ver=SEPF_GT-I9505_5.0.1-1 ver=51
58522016-10-18 12:54:06.093 INFO:   SELinux : Function: selinux_compare_spd_ram , priority [1] , priority version is VE=SEPF_GT-I9505_5.0.1-1_0051
58532016-10-18 12:54:06.093 INFO:   ActivityManager : Start proc com.sec.knox.knoxsetupwizardclient for broadcast com.sec.knox.knoxsetupwizardclient/.shortcut.ShortcutReceiver: pid=27710 uid=1000 gids={41000, 9997, 3002, 3001, 3003, 1007, 1028, 1015, 1023, 2001, 1024, 1001} abi=armeabi-v7a
58542016-10-18 12:54:06.093 ERROR:  SELinux : [DEBUG] get_category: variable seinfo: platform sensitivity: NULL, cateogry: NULL
58552016-10-18 12:54:06.093 INFO:   ActivityManager : Killing 26072:com.sec.android.widgetapp.ap.hero.accuweather/u0a145 (adj 15): emptyCount ##36
58562016-10-18 12:54:06.113 DEBUG:  LocationProviderProxy : applying state to connected service
58572016-10-18 12:54:06.113 DEBUG:  LocationProviderProxy : applying state to connected service
58582016-10-18 12:54:06.113 DEBUG:  PowerManagerService : [input device light] setInputDeviceLightOn is called : 1
58592016-10-18 12:54:06.113 DEBUG:  PowerManagerService : [input device light] handleInputDeviceLightOn
58602016-10-18 12:54:06.123 DEBUG:  PowerManagerService : [input device light] setInputDeviceLightOn is called : 1
58612016-10-18 12:54:06.123 DEBUG:  PowerManagerService : [input device light] handleInputDeviceLightOn
58622016-10-18 12:54:06.123 DEBUG:  PowerManagerService : [input device light] setInputDeviceLightOn is called : 1
58632016-10-18 12:54:06.123 DEBUG:  PowerManagerService : [input device light] handleInputDeviceLightOn
58642016-10-18 12:54:06.123 DEBUG:  PowerManagerService : [input device light] setInputDeviceLightOn is called : 1
58652016-10-18 12:54:06.123 DEBUG:  PowerManagerService : [input device light] handleInputDeviceLightOn
58662016-10-18 12:54:06.123 DEBUG:  PowerManagerService : [input device light] setInputDeviceLightOn is called : 1
58672016-10-18 12:54:06.123 DEBUG:  PowerManagerService : [input device light] handleInputDeviceLightOn
58682016-10-18 12:54:06.123 DEBUG:  PowerManagerService : [input device light] setInputDeviceLightOn is called : 1
58692016-10-18 12:54:06.123 DEBUG:  PowerManagerService : [input device light] handleInputDeviceLightOn
58702016-10-18 12:54:06.133 DEBUG:  PowerManagerService : [input device light] setInputDeviceLightOn is called : 1
58712016-10-18 12:54:06.133 DEBUG:  PowerManagerService : [input device light] handleInputDeviceLightOn
58722016-10-18 12:54:06.133 DEBUG:  PowerManagerService : [input device light] setInputDeviceLightOn is called : 1
58732016-10-18 12:54:06.133 DEBUG:  PowerManagerService : [input device light] handleInputDeviceLightOn
58742016-10-18 12:54:06.143 DEBUG:  ResourcesManager : creating new AssetManager and set to /system/app/KnoxSetupWizardClient/KnoxSetupWizardClient.apk
58752016-10-18 12:54:06.143 DEBUG:  PowerManagerService : [input device light] setInputDeviceLightOn is called : 1
58762016-10-18 12:54:06.143 DEBUG:  PowerManagerService : [input device light] handleInputDeviceLightOn
58772016-10-18 12:54:06.143 DEBUG:  WifiService : startScan by pid=31514, uid=10021
58782016-10-18 12:54:06.153 ERROR:  WifiStateMachine : WifiStateMachine CMD_START_SCAN source 10021 txSuccessRate=25.09 rxSuccessRate=40.02 targetRoamBSSID=92:2a:a8:48:62:ba RSSI=-42
58792016-10-18 12:54:06.153 INFO:   wpa_supplicant : wlan0: Setting scan request: 0 sec 0 usec
58802016-10-18 12:54:06.153 INFO:   wpa_supplicant : P2P: Current p2p state = IDLE
58812016-10-18 12:54:06.173 INFO:   wpa_supplicant : Scan requested (ret=0) - scan timeout 30 seconds
58822016-10-18 12:54:06.193 DEBUG:  StatusBar.NetworkController : refreshViews connected={ wifi } level=0 combinedSignalIconId=0x7f020517/com.android.systemui:drawable/stat_sys_wifi_signal_4 mobileLabel= wifiLabel="TestObject Devices"xxxxXXXXxxxxXXXX emergencyOnly=false combinedLabel="TestObject Devices"xxxxXXXXxxxxXXXX mAirplaneMode=true mDataActivity=0 mPhoneSignalIconId=0x0/(null) mQSPhoneSignalIconId=0x0/(null) mDataDirectionIconId=0x0/(null) mDataSignalIconId=0x0/(null) mDataTypeIconId=0x0/(null) mQSDataTypeIconId=0x0/(null) mNoSimIconId=0x0/(null) mWifiIconId=0x7f020517/com.android.systemui:drawable/stat_sys_wifi_signal_4 mQSWifiIconId=0x7f020143/com.android.systemui:drawable/ic_qs_wifi_4 mWifiActivityIconId=0x7f0204f3/com.android.systemui:drawable/stat_sys_signal_out mBluetoothTetherIconId=0x10808cc/android:drawable/stat_sys_tether_bluetooth
58832016-10-18 12:54:06.193 DEBUG:  STATUSBAR-WifiQuickSettingButton : onWifiSignalChanged enabled=true enabledDesc:"TestObject Devices"
58842016-10-18 12:54:06.193 DEBUG:  StatusBar.NetworkController : refreshSignalCluster - setNWBoosterIndicators(false)
58852016-10-18 12:54:06.193 DEBUG:  StatusBar.NetworkController : applyOpen
58862016-10-18 12:54:06.203 DEBUG:  StatusBar.NetworkController : refreshSignalCluster - setNWBoosterIndicators(false)
58872016-10-18 12:54:06.203 DEBUG:  StatusBar.NetworkController : applyOpen
58882016-10-18 12:54:06.203 DEBUG:  StatusBar.NetworkController : refreshSignalCluster - setNWBoosterIndicators(false)
58892016-10-18 12:54:06.203 DEBUG:  StatusBar.NetworkController : applyOpen
58902016-10-18 12:54:06.203 DEBUG:  StatusBar.NetworkController : refreshSignalCluster - setNWBoosterIndicators(false)
58912016-10-18 12:54:06.203 DEBUG:  StatusBar.NetworkController : applyOpen
58922016-10-18 12:54:06.223 DEBUG:  SurfaceFlinger : FPS : 38.11
58932016-10-18 12:54:06.223 DEBUG:  ShortcutReceiver : ShortcutReceiver onReceive() intent: android.intent.action.PACKAGE_CHANGED
58942016-10-18 12:54:06.223 WARN:   SurfaceFlinger : Fail to Open /sys/devices/platform/gpusysfs/fps
58952016-10-18 12:54:06.223 INFO:   ActivityManager : Killing 26527:com.sec.android.app.sns3/u0a38 (adj 15): emptyCount ##36
58962016-10-18 12:54:06.253 ERROR:  SMD : smd Interface open failed errno is 2 -1
58972016-10-18 12:54:06.273 DEBUG:  ActivityManager : startService callerProcessName:com.google.android.apps.plus, calleePkgName: com.google.android.apps.plus
58982016-10-18 12:54:06.273 DEBUG:  PowerManagerService : [input device light] setInputDeviceLightOn is called : 1
58992016-10-18 12:54:06.273 DEBUG:  PowerManagerService : [input device light] handleInputDeviceLightOn
59002016-10-18 12:54:06.283 DEBUG:  ActivityManager : startService callerProcessName:com.google.android.gms, calleePkgName: com.google.android.gms
59012016-10-18 12:54:06.283 DEBUG:  PowerManagerService : [input device light] setInputDeviceLightOn is called : 1
59022016-10-18 12:54:06.283 DEBUG:  PowerManagerService : [input device light] handleInputDeviceLightOn
59032016-10-18 12:54:06.293 DEBUG:  ActivityManager : startService callerProcessName:com.google.android.googlequicksearchbox, calleePkgName: com.google.android.googlequicksearchbox
59042016-10-18 12:54:06.303 INFO:   UpdateIcingCorporaServi : Updating corpora: APPS=com.google.android.gms, CONTACTS=MAYBE
59052016-10-18 12:54:06.313 DEBUG:  ActivityManager : startService callerProcessName:com.google.android.gms, calleePkgName: com.google.android.gms
59062016-10-18 12:54:06.323 DEBUG:  ActivityManager : startService callerProcessName:com.google.android.gms, calleePkgName: com.google.android.gms
59072016-10-18 12:54:06.333 DEBUG:  ActivityManager : startProcessLocked calleePkgName: com.sec.android.provider.snote, hostingType: broadcast
59082016-10-18 12:54:06.333 ERROR:  ActivityManager : checkUser: useridlist=null, currentuser=0
59092016-10-18 12:54:06.333 ERROR:  ActivityManager : checkUser: useridlist=null, currentuser=0
59102016-10-18 12:54:06.333 ERROR:  ActivityManager : checkUser: useridlist=null, currentuser=0
59112016-10-18 12:54:06.333 ERROR:  ActivityManager : checkUser: useridlist=null, currentuser=0
59122016-10-18 12:54:06.353 ERROR:  Zygote : MountEmulatedStorage()
59132016-10-18 12:54:06.353 ERROR:  Zygote : v2
59142016-10-18 12:54:06.353 INFO:   libpersona : KNOX_SDCARD checking this for 10057
59152016-10-18 12:54:06.353 INFO:   libpersona : KNOX_SDCARD not a persona
59162016-10-18 12:54:06.353 INFO:   SELinux : Function: selinux_compare_spd_ram, SPD-policy is existed. and_ver=SEPF_GT-I9505_5.0.1-1 ver=51
59172016-10-18 12:54:06.363 INFO:   ActivityManager : Start proc com.sec.android.provider.snote for broadcast com.sec.android.provider.snote/com.infraware.scloud.syncservice.VerifySamsungAccountReceiver: pid=27733 uid=10057 gids={50057, 9997, 1028, 1015} abi=armeabi-v7a
59182016-10-18 12:54:06.363 INFO:   SELinux : Function: selinux_compare_spd_ram , priority [1] , priority version is VE=SEPF_GT-I9505_5.0.1-1_0051
59192016-10-18 12:54:06.363 ERROR:  SELinux : [DEBUG] get_category: variable seinfo: release sensitivity: NULL, cateogry: NULL
59202016-10-18 12:54:06.363 DEBUG:  ActivityManager : startService callerProcessName:com.google.android.gms, calleePkgName: com.google.android.gms
59212016-10-18 12:54:06.363 DEBUG:  ActivityManager : startService callerProcessName:com.google.android.gms, calleePkgName: com.google.android.gms
59222016-10-18 12:54:06.373 DEBUG:  ActivityManager : startService callerProcessName:com.google.android.gms, calleePkgName: com.google.android.gms
59232016-10-18 12:54:06.373 DEBUG:  PowerManagerService : [input device light] setInputDeviceLightOn is called : 1
59242016-10-18 12:54:06.373 DEBUG:  PowerManagerService : [input device light] handleInputDeviceLightOn
59252016-10-18 12:54:06.373 DEBUG:  ActivityManager : startService callerProcessName:com.google.android.gms, calleePkgName: com.google.android.gms
59262016-10-18 12:54:06.373 DEBUG:  ActivityManager : startService callerProcessName:com.google.android.gms, calleePkgName: com.google.android.gms
59272016-10-18 12:54:06.383 DEBUG:  PowerManagerService : [input device light] setInputDeviceLightOn is called : 1
59282016-10-18 12:54:06.383 DEBUG:  PowerManagerService : [input device light] handleInputDeviceLightOn
59292016-10-18 12:54:06.393 DEBUG:  ActivityManager : startService callerProcessName:com.google.android.gms, calleePkgName: com.google.android.gms
59302016-10-18 12:54:06.393 DEBUG:  ActivityManager : startService callerProcessName:com.google.android.gms, calleePkgName: com.google.android.gms
59312016-10-18 12:54:06.403 DEBUG:  PowerManagerService : [input device light] setInputDeviceLightOn is called : 1
59322016-10-18 12:54:06.403 DEBUG:  PowerManagerService : [input device light] handleInputDeviceLightOn
59332016-10-18 12:54:06.413 DEBUG:  ActivityManager : startService callerProcessName:com.google.android.gms, calleePkgName: com.google.android.gms
59342016-10-18 12:54:06.413 INFO:   Icing : updateResources: need to parse qxo{com.google.android.gms}
59352016-10-18 12:54:06.413 DEBUG:  ResourcesManager : creating new AssetManager and set to /system/priv-app/SNoteProvider/SNoteProvider.apk
59362016-10-18 12:54:06.443 DEBUG:  ActivityManager : startService callerProcessName:com.google.android.gms, calleePkgName: com.google.android.gms
59372016-10-18 12:54:06.443 DEBUG:  ResourcesManager : creating new AssetManager and set to /data/app/com.google.android.gms-1/base.apk
59382016-10-18 12:54:06.453 INFO:   UpdateIcingCorporaServi : UpdateCorporaTask done [took 153 ms] updated apps [took 153 ms]
59392016-10-18 12:54:06.483 DEBUG:  GalleryCacheReady : Receive : home resume
59402016-10-18 12:54:06.493 DEBUG:  Mms/UIEventReceiver : ui event
59412016-10-18 12:54:06.503 INFO:   TOOLKIT SERVICE : Request body '{"id":"1476780837633","type":"GET_SCREEN_ORIENTATION"}'
59422016-10-18 12:54:06.503 INFO:   DEVICE MANAGER : {"id":"1476780837633","type":"GET_SCREEN_ORIENTATION"}
59432016-10-18 12:54:06.503 INFO:   TOOLKIT SERVICE : Responding to client with: '{"id":"1476780837633","orientation":"PORTRAIT"}'
59442016-10-18 12:54:06.533 WARN:   IcingInternalCorpora : getNumBytesRead when not calculated.
59452016-10-18 12:54:06.533 WARN:   BroadcastQueue : Permission Denial: broadcasting Intent { act=com.sec.android.intent.action.HOME_RESUME flg=0x10 } from com.sec.android.app.launcher (pid=1556, uid=10028) is not exported from uid 10158 due to receiver com.sec.android.widgetapp.digitalclock2x1/.DigitalClockWidgetProvider
59462016-10-18 12:54:06.553 DEBUG:  ActivityManager : startService callerProcessName:com.google.android.gms, calleePkgName: com.google.android.gms
59472016-10-18 12:54:06.563 INFO:   Icing : Usage reports 0 indexed 0 rejected 0 imm upload false
59482016-10-18 12:54:06.563 DEBUG:  ActivityManager : startService callerProcessName:com.google.android.gms, calleePkgName: com.google.android.gms
59492016-10-18 12:54:06.573 INFO:   Icing : Usage reports 0 indexed 0 rejected 0 imm upload false
59502016-10-18 12:54:07.014 INFO:   TOOLKIT SERVICE : Request body '{"id":"1476780838133","type":"GET_SCREEN_ORIENTATION"}'
59512016-10-18 12:54:07.014 INFO:   DEVICE MANAGER : {"id":"1476780838133","type":"GET_SCREEN_ORIENTATION"}
59522016-10-18 12:54:07.024 INFO:   TOOLKIT SERVICE : Responding to client with: '{"id":"1476780838133","orientation":"PORTRAIT"}'
59532016-10-18 12:54:07.204 DEBUG:  StatusBar.NetworkController : refreshViews connected={ wifi } level=0 combinedSignalIconId=0x7f020517/com.android.systemui:drawable/stat_sys_wifi_signal_4 mobileLabel= wifiLabel="TestObject Devices"xxxxXXXXxxxxXXXX emergencyOnly=false combinedLabel="TestObject Devices"xxxxXXXXxxxxXXXX mAirplaneMode=true mDataActivity=0 mPhoneSignalIconId=0x0/(null) mQSPhoneSignalIconId=0x0/(null) mDataDirectionIconId=0x0/(null) mDataSignalIconId=0x0/(null) mDataTypeIconId=0x0/(null) mQSDataTypeIconId=0x0/(null) mNoSimIconId=0x0/(null) mWifiIconId=0x7f020517/com.android.systemui:drawable/stat_sys_wifi_signal_4 mQSWifiIconId=0x7f020143/com.android.systemui:drawable/ic_qs_wifi_4 mWifiActivityIconId=0x7f0204e6/com.android.systemui:drawable/stat_sys_signal_in mBluetoothTetherIconId=0x10808cc/android:drawable/stat_sys_tether_bluetooth
59542016-10-18 12:54:07.204 DEBUG:  STATUSBAR-WifiQuickSettingButton : onWifiSignalChanged enabled=true enabledDesc:"TestObject Devices"
59552016-10-18 12:54:07.204 DEBUG:  StatusBar.NetworkController : refreshSignalCluster - setNWBoosterIndicators(false)
59562016-10-18 12:54:07.214 DEBUG:  StatusBar.NetworkController : applyOpen
59572016-10-18 12:54:07.224 DEBUG:  StatusBar.NetworkController : refreshSignalCluster - setNWBoosterIndicators(false)
59582016-10-18 12:54:07.234 DEBUG:  StatusBar.NetworkController : applyOpen
59592016-10-18 12:54:07.234 DEBUG:  StatusBar.NetworkController : refreshSignalCluster - setNWBoosterIndicators(false)
59602016-10-18 12:54:07.234 DEBUG:  StatusBar.NetworkController : applyOpen
59612016-10-18 12:54:07.244 DEBUG:  StatusBar.NetworkController : refreshSignalCluster - setNWBoosterIndicators(false)
59622016-10-18 12:54:07.244 DEBUG:  StatusBar.NetworkController : applyOpen
59632016-10-18 12:54:07.254 ERROR:  SMD : smd Interface open failed errno is 2 -1
59642016-10-18 12:54:07.274 DEBUG:  SurfaceFlinger : FPS : 0.96
59652016-10-18 12:54:07.274 WARN:   SurfaceFlinger : Fail to Open /sys/devices/platform/gpusysfs/fps
59662016-10-18 12:54:07.304 DEBUG:  SurfaceFlinger : FPS : 0.96
59672016-10-18 12:54:07.304 WARN:   SurfaceFlinger : Fail to Open /sys/devices/platform/gpusysfs/fps
59682016-10-18 12:54:07.444 DEBUG:  SSRM:n : SIOP:: AP = 400, CUR = 1000
59692016-10-18 12:54:07.474 ERROR:  Diag_Lib : Diag_LSM_Init: Failed to open handle to diag driver, error = 2
59702016-10-18 12:54:07.504 INFO:   TOOLKIT SERVICE : Request body '{"id":"1476780838633","type":"GET_SCREEN_ORIENTATION"}'
59712016-10-18 12:54:07.514 INFO:   DEVICE MANAGER : {"id":"1476780838633","type":"GET_SCREEN_ORIENTATION"}
59722016-10-18 12:54:07.514 INFO:   TOOLKIT SERVICE : Responding to client with: '{"id":"1476780838633","orientation":"PORTRAIT"}'
59732016-10-18 12:54:07.574 INFO:   Icing : Indexing EC60BD7EDD8E800E27A05A23696A2207F39BE975 from com.google.android.gms
59742016-10-18 12:54:07.704 INFO:   Icing : Indexing done EC60BD7EDD8E800E27A05A23696A2207F39BE975
59752016-10-18 12:54:07.714 DEBUG:  PowerManagerService : [input device light] setInputDeviceLightOn is called : 1
59762016-10-18 12:54:07.714 DEBUG:  PowerManagerService : [input device light] handleInputDeviceLightOn
59772016-10-18 12:54:08.015 INFO:   TOOLKIT SERVICE : Request body '{"id":"1476780839133","type":"GET_SCREEN_ORIENTATION"}'
59782016-10-18 12:54:08.015 INFO:   DEVICE MANAGER : {"id":"1476780839133","type":"GET_SCREEN_ORIENTATION"}
59792016-10-18 12:54:08.015 INFO:   TOOLKIT SERVICE : Responding to client with: '{"id":"1476780839133","orientation":"PORTRAIT"}'
59802016-10-18 12:54:08.225 DEBUG:  StatusBar.NetworkController : refreshViews connected={ wifi } level=0 combinedSignalIconId=0x7f020517/com.android.systemui:drawable/stat_sys_wifi_signal_4 mobileLabel= wifiLabel="TestObject Devices"xxxxXXXXxxxxXXXX emergencyOnly=false combinedLabel="TestObject Devices"xxxxXXXXxxxxXXXX mAirplaneMode=true mDataActivity=0 mPhoneSignalIconId=0x0/(null) mQSPhoneSignalIconId=0x0/(null) mDataDirectionIconId=0x0/(null) mDataSignalIconId=0x0/(null) mDataTypeIconId=0x0/(null) mQSDataTypeIconId=0x0/(null) mNoSimIconId=0x0/(null) mWifiIconId=0x7f020517/com.android.systemui:drawable/stat_sys_wifi_signal_4 mQSWifiIconId=0x7f020143/com.android.systemui:drawable/ic_qs_wifi_4 mWifiActivityIconId=0x7f0204ea/com.android.systemui:drawable/stat_sys_signal_no_inout mBluetoothTetherIconId=0x10808cc/android:drawable/stat_sys_tether_bluetooth
59812016-10-18 12:54:08.225 DEBUG:  STATUSBAR-WifiQuickSettingButton : onWifiSignalChanged enabled=true enabledDesc:"TestObject Devices"
59822016-10-18 12:54:08.235 DEBUG:  StatusBar.NetworkController : refreshSignalCluster - setNWBoosterIndicators(false)
59832016-10-18 12:54:08.235 DEBUG:  StatusBar.NetworkController : applyOpen
59842016-10-18 12:54:08.245 DEBUG:  StatusBar.NetworkController : refreshSignalCluster - setNWBoosterIndicators(false)
59852016-10-18 12:54:08.245 DEBUG:  StatusBar.NetworkController : applyOpen
59862016-10-18 12:54:08.245 DEBUG:  StatusBar.NetworkController : refreshSignalCluster - setNWBoosterIndicators(false)
59872016-10-18 12:54:08.245 DEBUG:  StatusBar.NetworkController : applyOpen
59882016-10-18 12:54:08.245 DEBUG:  StatusBar.NetworkController : refreshSignalCluster - setNWBoosterIndicators(false)
59892016-10-18 12:54:08.255 DEBUG:  StatusBar.NetworkController : applyOpen
59902016-10-18 12:54:08.255 ERROR:  SMD : smd Interface open failed errno is 2 -1
59912016-10-18 12:54:08.285 DEBUG:  SurfaceFlinger : FPS : 1.97
59922016-10-18 12:54:08.285 WARN:   SurfaceFlinger : Fail to Open /sys/devices/platform/gpusysfs/fps
59932016-10-18 12:54:08.505 INFO:   TOOLKIT SERVICE : Request body '{"id":"1476780839633","type":"GET_SCREEN_ORIENTATION"}'
59942016-10-18 12:54:08.505 INFO:   DEVICE MANAGER : {"id":"1476780839633","type":"GET_SCREEN_ORIENTATION"}
59952016-10-18 12:54:08.515 INFO:   TOOLKIT SERVICE : Responding to client with: '{"id":"1476780839633","orientation":"PORTRAIT"}'
59962016-10-18 12:54:09.016 INFO:   TOOLKIT SERVICE : Request body '{"id":"1476780840133","type":"GET_SCREEN_ORIENTATION"}'
59972016-10-18 12:54:09.016 INFO:   DEVICE MANAGER : {"id":"1476780840133","type":"GET_SCREEN_ORIENTATION"}
59982016-10-18 12:54:09.016 INFO:   TOOLKIT SERVICE : Responding to client with: '{"id":"1476780840133","orientation":"PORTRAIT"}'
59992016-10-18 12:54:09.266 ERROR:  SMD : smd Interface open failed errno is 2 -1
60002016-10-18 12:54:09.346 DEBUG:  SurfaceFlinger : FPS : 0.95
60012016-10-18 12:54:09.346 WARN:   SurfaceFlinger : Fail to Open /sys/devices/platform/gpusysfs/fps
60022016-10-18 12:54:09.516 INFO:   TOOLKIT SERVICE : Request body '{"id":"1476780840633","type":"GET_SCREEN_ORIENTATION"}'
60032016-10-18 12:54:09.516 INFO:   DEVICE MANAGER : {"id":"1476780840633","type":"GET_SCREEN_ORIENTATION"}
60042016-10-18 12:54:09.516 INFO:   TOOLKIT SERVICE : Responding to client with: '{"id":"1476780840633","orientation":"PORTRAIT"}'
60052016-10-18 12:54:09.826 INFO:   wpa_supplicant : nl80211: Received scan results (42 BSSes)
60062016-10-18 12:54:09.916 DEBUG:  PowerManagerService : [input device light] setInputDeviceLightOn is called : 1
60072016-10-18 12:54:09.916 DEBUG:  PowerManagerService : [input device light] handleInputDeviceLightOn
60082016-10-18 12:54:09.916 DEBUG:  PowerManagerService : [input device light] setInputDeviceLightOn is called : 1
60092016-10-18 12:54:09.916 DEBUG:  PowerManagerService : [input device light] handleInputDeviceLightOn
60102016-10-18 12:54:09.916 DEBUG:  PowerManagerService : [input device light] setInputDeviceLightOn is called : 1
60112016-10-18 12:54:09.916 DEBUG:  PowerManagerService : [input device light] handleInputDeviceLightOn
60122016-10-18 12:54:09.927 DEBUG:  PowerManagerService : [input device light] setInputDeviceLightOn is called : 1
60132016-10-18 12:54:09.927 DEBUG:  PowerManagerService : [input device light] handleInputDeviceLightOn
60142016-10-18 12:54:09.927 DEBUG:  PowerManagerService : [input device light] setInputDeviceLightOn is called : 1
60152016-10-18 12:54:09.937 DEBUG:  PowerManagerService : [input device light] handleInputDeviceLightOn
60162016-10-18 12:54:09.937 DEBUG:  PowerManagerService : [input device light] setInputDeviceLightOn is called : 1
60172016-10-18 12:54:09.937 DEBUG:  PowerManagerService : [input device light] handleInputDeviceLightOn
60182016-10-18 12:54:09.937 DEBUG:  PowerManagerService : [input device light] setInputDeviceLightOn is called : 1
60192016-10-18 12:54:09.937 DEBUG:  PowerManagerService : [input device light] handleInputDeviceLightOn
60202016-10-18 12:54:09.937 DEBUG:  PowerManagerService : [input device light] setInputDeviceLightOn is called : 1
60212016-10-18 12:54:09.947 DEBUG:  PowerManagerService : [input device light] handleInputDeviceLightOn
60222016-10-18 12:54:09.947 DEBUG:  PowerManagerService : [input device light] setInputDeviceLightOn is called : 1
60232016-10-18 12:54:09.947 DEBUG:  PowerManagerService : [input device light] handleInputDeviceLightOn
60242016-10-18 12:54:09.947 DEBUG:  PowerManagerService : [input device light] setInputDeviceLightOn is called : 1
60252016-10-18 12:54:09.947 DEBUG:  PowerManagerService : [input device light] handleInputDeviceLightOn
60262016-10-18 12:54:09.977 DEBUG:  PowerManagerService : [input device light] setInputDeviceLightOn is called : 1
60272016-10-18 12:54:09.977 DEBUG:  PowerManagerService : [input device light] handleInputDeviceLightOn
60282016-10-18 12:54:09.987 DEBUG:  BatteryService : !@BatteryListener : batteryPropertiesChanged!
60292016-10-18 12:54:10.007 INFO:   TOOLKIT SERVICE : Request body '{"id":"1476780841133","type":"GET_SCREEN_ORIENTATION"}'
60302016-10-18 12:54:10.007 INFO:   DEVICE MANAGER : {"id":"1476780841133","type":"GET_SCREEN_ORIENTATION"}
60312016-10-18 12:54:10.017 INFO:   TOOLKIT SERVICE : Responding to client with: '{"id":"1476780841133","orientation":"PORTRAIT"}'
60322016-10-18 12:54:10.017 DEBUG:  PowerManagerService : [input device light] setInputDeviceLightOn is called : 1
60332016-10-18 12:54:10.027 DEBUG:  PowerManagerService : [input device light] handleInputDeviceLightOn
60342016-10-18 12:54:10.027 DEBUG:  PowerManagerService : [input device light] setInputDeviceLightOn is called : 1
60352016-10-18 12:54:10.027 DEBUG:  PowerManagerService : [input device light] handleInputDeviceLightOn
60362016-10-18 12:54:10.037 DEBUG:  PowerManagerService : [input device light] setInputDeviceLightOn is called : 1
60372016-10-18 12:54:10.037 DEBUG:  PowerManagerService : [input device light] handleInputDeviceLightOn
60382016-10-18 12:54:10.037 DEBUG:  PowerManagerService : [input device light] setInputDeviceLightOn is called : 1
60392016-10-18 12:54:10.037 DEBUG:  PowerManagerService : [input device light] handleInputDeviceLightOn
60402016-10-18 12:54:10.037 DEBUG:  PowerManagerService : [input device light] setInputDeviceLightOn is called : 1
60412016-10-18 12:54:10.037 DEBUG:  PowerManagerService : [input device light] handleInputDeviceLightOn
60422016-10-18 12:54:10.037 DEBUG:  PowerManagerService : [input device light] setInputDeviceLightOn is called : 1
60432016-10-18 12:54:10.037 DEBUG:  PowerManagerService : [input device light] handleInputDeviceLightOn
60442016-10-18 12:54:10.257 DEBUG:  StatusBar.NetworkController : refreshViews connected={ wifi } level=0 combinedSignalIconId=0x7f020517/com.android.systemui:drawable/stat_sys_wifi_signal_4 mobileLabel= wifiLabel="TestObject Devices"xxxxXXXXxxxxXXXX emergencyOnly=false combinedLabel="TestObject Devices"xxxxXXXXxxxxXXXX mAirplaneMode=true mDataActivity=0 mPhoneSignalIconId=0x0/(null) mQSPhoneSignalIconId=0x0/(null) mDataDirectionIconId=0x0/(null) mDataSignalIconId=0x0/(null) mDataTypeIconId=0x0/(null) mQSDataTypeIconId=0x0/(null) mNoSimIconId=0x0/(null) mWifiIconId=0x7f020517/com.android.systemui:drawable/stat_sys_wifi_signal_4 mQSWifiIconId=0x7f020143/com.android.systemui:drawable/ic_qs_wifi_4 mWifiActivityIconId=0x7f0204e6/com.android.systemui:drawable/stat_sys_signal_in mBluetoothTetherIconId=0x10808cc/android:drawable/stat_sys_tether_bluetooth
60452016-10-18 12:54:10.257 DEBUG:  STATUSBAR-WifiQuickSettingButton : onWifiSignalChanged enabled=true enabledDesc:"TestObject Devices"
60462016-10-18 12:54:10.257 DEBUG:  StatusBar.NetworkController : refreshSignalCluster - setNWBoosterIndicators(false)
60472016-10-18 12:54:10.257 DEBUG:  StatusBar.NetworkController : applyOpen
60482016-10-18 12:54:10.257 DEBUG:  StatusBar.NetworkController : refreshSignalCluster - setNWBoosterIndicators(false)
60492016-10-18 12:54:10.257 DEBUG:  StatusBar.NetworkController : applyOpen
60502016-10-18 12:54:10.257 DEBUG:  StatusBar.NetworkController : refreshSignalCluster - setNWBoosterIndicators(false)
60512016-10-18 12:54:10.257 DEBUG:  StatusBar.NetworkController : applyOpen
60522016-10-18 12:54:10.257 DEBUG:  StatusBar.NetworkController : refreshSignalCluster - setNWBoosterIndicators(false)
60532016-10-18 12:54:10.257 DEBUG:  StatusBar.NetworkController : applyOpen
60542016-10-18 12:54:10.267 ERROR:  SMD : smd Interface open failed errno is 2 -1
60552016-10-18 12:54:10.287 DEBUG:  SurfaceFlinger : FPS : 1.06
60562016-10-18 12:54:10.287 WARN:   SurfaceFlinger : Fail to Open /sys/devices/platform/gpusysfs/fps
60572016-10-18 12:54:10.397 DEBUG:  InputReader : Input event: value=1
60582016-10-18 12:54:10.397 INFO:   InputReader : Touch event's action is 0x0 (deviceType=0) [pCnt=1, s=0.7 ] when=502878477587000
60592016-10-18 12:54:10.397 INFO:   InputDispatcher : Delivering touch to (1271): action: 0x4, toolType: 1
60602016-10-18 12:54:10.397 INFO:   InputDispatcher : Delivering touch to (1556): action: 0x0, toolType: 1
60612016-10-18 12:54:10.397 INFO:   InputDispatcher : Delivering touch to (1449): action: 0x0, toolType: 1
60622016-10-18 12:54:10.407 DEBUG:  ViewRootImpl : ViewPostImeInputStage ACTION_DOWN
60632016-10-18 12:54:10.487 DEBUG:  SurfaceFlinger : FPS : 1.06
60642016-10-18 12:54:10.487 WARN:   SurfaceFlinger : Fail to Open /sys/devices/platform/gpusysfs/fps
60652016-10-18 12:54:10.507 INFO:   TOOLKIT SERVICE : Request body '{"id":"1476780841633","type":"GET_SCREEN_ORIENTATION"}'
60662016-10-18 12:54:10.517 INFO:   DEVICE MANAGER : {"id":"1476780841633","type":"GET_SCREEN_ORIENTATION"}
60672016-10-18 12:54:10.517 INFO:   TOOLKIT SERVICE : Responding to client with: '{"id":"1476780841633","orientation":"PORTRAIT"}'
60682016-10-18 12:54:10.557 DEBUG:  InputReader : Input event: value=0
60692016-10-18 12:54:10.557 INFO:   InputReader : Touch event's action is 0x1 (deviceType=0) [pCnt=1, s=] when=502878633166000
60702016-10-18 12:54:10.557 INFO:   InputDispatcher : Delivering touch to (1556): action: 0x1, toolType: 1
60712016-10-18 12:54:10.557 INFO:   InputDispatcher : Delivering touch to (1449): action: 0x1, toolType: 1
60722016-10-18 12:54:10.557 INFO:   AudioPolicyManager_legacy : getAudioPolicyConfig: situation=1;device=0
60732016-10-18 12:54:10.557 INFO:   AudioPolicyManager_legacy : getSituationVolume: isBTConnected:0 isHeadConnected:0
60742016-10-18 12:54:10.567 ERROR:  AudioTrack : AudioTrack::set : Exit
60752016-10-18 12:54:10.567 DEBUG:  PowerManagerService : [input device light] setInputDeviceLightOn is called : 1
60762016-10-18 12:54:10.577 DEBUG:  PowerManagerService : [input device light] handleInputDeviceLightOn
60772016-10-18 12:54:10.577 DEBUG:  ALSADevice : route: devices 0x2 in mode 0
60782016-10-18 12:54:10.577 DEBUG:  ALSADevice : No valid input device: 0
60792016-10-18 12:54:10.577 DEBUG:  alsa_ucm : snd_use_case_set(): uc_mgr 0xb3c18510 identifier _enadev value Speaker
60802016-10-18 12:54:10.577 DEBUG:  ALSADevice : switchDevice: mCurTxUCMDevivce Main Mic mCurRxDevDevice Speaker inCallDevSwitch = 0
60812016-10-18 12:54:10.577 DEBUG:  alsa_ucm : snd_use_case_set(): uc_mgr 0xb3c18510 identifier _verb value HiFi
60822016-10-18 12:54:10.577 DEBUG:  alsa_ucm : Set mixer controls for Speaker enable 1
60832016-10-18 12:54:10.577 DEBUG:  alsa_ucm : acdb_id 15 cap 1 enable 1
60842016-10-18 12:54:10.587 DEBUG:  ACDB-LOADER : ACDB -> send_audio_cal, acdb_id = 15, path =  0
60852016-10-18 12:54:10.587 DEBUG:  ACDB-LOADER : ACDB -> send_adm_topology
60862016-10-18 12:54:10.587 DEBUG:  ACDB-LOADER : ACDB -> ACDB_CMD_GET_AUDPROC_COMMON_TOPOLOGY_ID
60872016-10-18 12:54:10.587 DEBUG:  ACDB-LOADER : ACDB -> send_asm_topology
60882016-10-18 12:54:10.587 DEBUG:  ACDB-LOADER : ACDB -> ACDB_CMD_GET_AUDPROC_STREAM_TOPOLOGY_ID
60892016-10-18 12:54:10.587 DEBUG:  ACDB-LOADER : ACDB -> send_audtable
60902016-10-18 12:54:10.587 DEBUG:  ACDB-LOADER : ACDB -> ACDB_CMD_GET_AUDPROC_COMMON_TABLE
60912016-10-18 12:54:10.587 DEBUG:  ACDB-LOADER : ACDB -> AUDIO_SET_AUDPROC_CAL
60922016-10-18 12:54:10.587 DEBUG:  ACDB-LOADER : ACDB -> send_audvoltable
60932016-10-18 12:54:10.587 DEBUG:  ACDB-LOADER : ACDB -> ACDB_CMD_GET_AUDPROC_GAIN_DEP_VOLTBL_STEP_COPP
60942016-10-18 12:54:10.587 ERROR:  ACDB-LOADER : Error: ACDB AudProc vol returned = -8
60952016-10-18 12:54:10.587 DEBUG:  ACDB-LOADER : ACDB -> AUDIO_SET_AUDPROC_VOL_CAL
60962016-10-18 12:54:10.587 DEBUG:  ACDB-LOADER : ACDB -> send_afe_cal
60972016-10-18 12:54:10.597 DEBUG:  ACDB-LOADER : ACDB -> ACDB_CMD_GET_AFE_COMMON_TABLE
60982016-10-18 12:54:10.597 DEBUG:  ACDB-LOADER : ACDB -> AUDIO_SET_AFE_CAL
60992016-10-18 12:54:10.597 DEBUG:  ACDB-LOADER : ACDB -> send_hw_delay : acdb_id = 15 path = 0
61002016-10-18 12:54:10.597 DEBUG:  ACDB-LOADER : ACDB -> ACDB_CMD_GET_DEVICE_PROPERTY_SIZE
61012016-10-18 12:54:10.597 DEBUG:  ACDB-LOADER : ACDB -> ACDB_AVSYNC_INFO: ACDB_CMD_GET_DEVICE_PROPERTY
61022016-10-18 12:54:10.597 DEBUG:  ACDB-LOADER : send_hw_delay id = 15 delay_num_entries = 1 result = 0
61032016-10-18 12:54:10.597 DEBUG:  alsa_ucm : Setting mixer control: SLIM_0_RX Channels, value: Two
61042016-10-18 12:54:10.597 DEBUG:  alsa_ucm : Setting mixer control: RX5 MIX1 INP1, value: RX1
61052016-10-18 12:54:10.607 DEBUG:  alsa_ucm : Setting mixer control: RX5 MIX1 INP2, value: RX2
61062016-10-18 12:54:10.607 DEBUG:  alsa_ucm : Setting mixer control: RX6 DSM MUX, value: DSM_INV
61072016-10-18 12:54:10.607 DEBUG:  alsa_ucm : Setting multi value: LINEOUT2 Volume
61082016-10-18 12:54:10.607 DEBUG:  alsa_ucm : Setting multi value: LINEOUT4 Volume
61092016-10-18 12:54:10.607 DEBUG:  alsa_ucm : Setting multi value: RX5 Digital Volume
61102016-10-18 12:54:10.617 DEBUG:  alsa_ucm : Set mixer controls for HiFi enable 1
61112016-10-18 12:54:10.617 DEBUG:  alsa_ucm : Setting mixer control: SLIMBUS_0_RX Audio Mixer MultiMedia1, value: 1
61122016-10-18 12:54:10.617 DEBUG:  ALSADevice : close: handle 0xb3c57700 h 0x0
61132016-10-18 12:54:10.617 DEBUG:  ALSADevice : open: handle 0xb3c57700, format 0x2
61142016-10-18 12:54:10.617 DEBUG:  ALSADevice : Device value returned is hw:0,0
61152016-10-18 12:54:10.627 DEBUG:  ALSADevice : handle->format: 0x2
61162016-10-18 12:54:10.627 DEBUG:  ALSADevice : setHardwareParams: reqBuffSize 2048 channels 2 sampleRate 48000
61172016-10-18 12:54:10.627 DEBUG:  ALSADevice : setHardwareParams: buffer_size 16384, period_size 2048, period_cnt 8
61182016-10-18 12:54:10.637 DEBUG:  SurfaceWidgetClient$ISurfaceWidgetStub : [237392/8] Surface widget visibility changed visibility = false on instance = 1
61192016-10-18 12:54:10.637 DEBUG:  SurfaceWidgetClient$ISurfaceWidgetStub : [237392/8] Surface widget visibility changed visibility = false on instance = 1
61202016-10-18 12:54:10.637 DEBUG:  SurfaceWidgetClient$ISurfaceWidgetStub : [237392/8] Surface widget visibility changed visibility = false on instance = 1
61212016-10-18 12:54:10.687 DEBUG:  SurfaceFlinger : FPS : 5.10
61222016-10-18 12:54:10.687 WARN:   SurfaceFlinger : Fail to Open /sys/devices/platform/gpusysfs/fps
61232016-10-18 12:54:10.707 DEBUG:  SurfaceFlinger : FPS : 5.10
61242016-10-18 12:54:10.707 WARN:   SurfaceFlinger : Fail to Open /sys/devices/platform/gpusysfs/fps
61252016-10-18 12:54:11.018 INFO:   TOOLKIT SERVICE : Request body '{"id":"1476780842133","type":"GET_SCREEN_ORIENTATION"}'
61262016-10-18 12:54:11.018 INFO:   DEVICE MANAGER : {"id":"1476780842133","type":"GET_SCREEN_ORIENTATION"}
61272016-10-18 12:54:11.028 INFO:   TOOLKIT SERVICE : Responding to client with: '{"id":"1476780842133","orientation":"PORTRAIT"}'
61282016-10-18 12:54:11.088 ERROR:  Watchdog : !@Sync 16761
61292016-10-18 12:54:11.268 ERROR:  SMD : smd Interface open failed errno is 2 -1
61302016-10-18 12:54:11.518 INFO:   TOOLKIT SERVICE : Request body '{"id":"1476780842633","type":"GET_SCREEN_ORIENTATION"}'
61312016-10-18 12:54:11.518 INFO:   DEVICE MANAGER : {"id":"1476780842633","type":"GET_SCREEN_ORIENTATION"}
61322016-10-18 12:54:11.518 INFO:   TOOLKIT SERVICE : Responding to client with: '{"id":"1476780842633","orientation":"PORTRAIT"}'
61332016-10-18 12:54:12.019 INFO:   TOOLKIT SERVICE : Request body '{"id":"1476780843133","type":"GET_SCREEN_ORIENTATION"}'
61342016-10-18 12:54:12.019 INFO:   DEVICE MANAGER : {"id":"1476780843133","type":"GET_SCREEN_ORIENTATION"}
61352016-10-18 12:54:12.019 INFO:   TOOLKIT SERVICE : Responding to client with: '{"id":"1476780843133","orientation":"PORTRAIT"}'
61362016-10-18 12:54:12.259 ERROR:  SMD : smd Interface open failed errno is 2 -1
61372016-10-18 12:54:12.279 DEBUG:  StatusBar.NetworkController : refreshViews connected={ wifi } level=0 combinedSignalIconId=0x7f020517/com.android.systemui:drawable/stat_sys_wifi_signal_4 mobileLabel= wifiLabel="TestObject Devices"xxxxXXXXxxxxXXXX emergencyOnly=false combinedLabel="TestObject Devices"xxxxXXXXxxxxXXXX mAirplaneMode=true mDataActivity=0 mPhoneSignalIconId=0x0/(null) mQSPhoneSignalIconId=0x0/(null) mDataDirectionIconId=0x0/(null) mDataSignalIconId=0x0/(null) mDataTypeIconId=0x0/(null) mQSDataTypeIconId=0x0/(null) mNoSimIconId=0x0/(null) mWifiIconId=0x7f020517/com.android.systemui:drawable/stat_sys_wifi_signal_4 mQSWifiIconId=0x7f020143/com.android.systemui:drawable/ic_qs_wifi_4 mWifiActivityIconId=0x7f0204e8/com.android.systemui:drawable/stat_sys_signal_inout mBluetoothTetherIconId=0x10808cc/android:drawable/stat_sys_tether_bluetooth
61382016-10-18 12:54:12.279 DEBUG:  STATUSBAR-WifiQuickSettingButton : onWifiSignalChanged enabled=true enabledDesc:"TestObject Devices"
61392016-10-18 12:54:12.289 DEBUG:  StatusBar.NetworkController : refreshSignalCluster - setNWBoosterIndicators(false)
61402016-10-18 12:54:12.289 DEBUG:  StatusBar.NetworkController : applyOpen
61412016-10-18 12:54:12.309 DEBUG:  StatusBar.NetworkController : refreshSignalCluster - setNWBoosterIndicators(false)
61422016-10-18 12:54:12.319 DEBUG:  SurfaceFlinger : FPS : 1.22
61432016-10-18 12:54:12.319 WARN:   SurfaceFlinger : Fail to Open /sys/devices/platform/gpusysfs/fps
61442016-10-18 12:54:12.329 DEBUG:  StatusBar.NetworkController : applyOpen
61452016-10-18 12:54:12.329 DEBUG:  StatusBar.NetworkController : refreshSignalCluster - setNWBoosterIndicators(false)
61462016-10-18 12:54:12.329 DEBUG:  StatusBar.NetworkController : applyOpen
61472016-10-18 12:54:12.329 DEBUG:  StatusBar.NetworkController : refreshSignalCluster - setNWBoosterIndicators(false)
61482016-10-18 12:54:12.329 DEBUG:  StatusBar.NetworkController : applyOpen
61492016-10-18 12:54:12.349 DEBUG:  SurfaceFlinger : FPS : 1.22
61502016-10-18 12:54:12.359 WARN:   SurfaceFlinger : Fail to Open /sys/devices/platform/gpusysfs/fps
61512016-10-18 12:54:12.429 DEBUG:  InputReader : Input event: value=1
61522016-10-18 12:54:12.429 INFO:   InputReader : Touch event's action is 0x0 (deviceType=0) [pCnt=1, s=0.8 ] when=502880500750000
61532016-10-18 12:54:12.429 INFO:   InputDispatcher : Delivering touch to (1271): action: 0x4, toolType: 1
61542016-10-18 12:54:12.429 INFO:   InputDispatcher : Delivering touch to (1556): action: 0x0, toolType: 1
61552016-10-18 12:54:12.429 INFO:   InputDispatcher : Delivering touch to (1449): action: 0x0, toolType: 1
61562016-10-18 12:54:12.429 DEBUG:  ViewRootImpl : ViewPostImeInputStage ACTION_DOWN
61572016-10-18 12:54:12.459 DEBUG:  SurfaceFlinger : FPS : 1.22
61582016-10-18 12:54:12.459 WARN:   SurfaceFlinger : Fail to Open /sys/devices/platform/gpusysfs/fps
61592016-10-18 12:54:12.499 INFO:   TOOLKIT SERVICE : Request body '{"id":"1476780843633","type":"GET_SCREEN_ORIENTATION"}'
61602016-10-18 12:54:12.499 INFO:   DEVICE MANAGER : {"id":"1476780843633","type":"GET_SCREEN_ORIENTATION"}
61612016-10-18 12:54:12.509 INFO:   TOOLKIT SERVICE : Responding to client with: '{"id":"1476780843633","orientation":"PORTRAIT"}'
61622016-10-18 12:54:12.539 DEBUG:  InputReader : Input event: value=0
61632016-10-18 12:54:12.539 INFO:   InputReader : Touch event's action is 0x1 (deviceType=0) [pCnt=1, s=] when=502880621660000
61642016-10-18 12:54:12.539 INFO:   InputDispatcher : Delivering touch to (1556): action: 0x1, toolType: 1
61652016-10-18 12:54:12.539 INFO:   InputDispatcher : Delivering touch to (1449): action: 0x1, toolType: 1
61662016-10-18 12:54:12.549 INFO:   AudioPolicyManager_legacy : getAudioPolicyConfig: situation=1;device=0
61672016-10-18 12:54:12.549 INFO:   AudioPolicyManager_legacy : getSituationVolume: isBTConnected:0 isHeadConnected:0
61682016-10-18 12:54:12.559 ERROR:  AudioTrack : AudioTrack::set : Exit
61692016-10-18 12:54:12.589 DEBUG:  SurfaceFlinger : FPS : 10.83
61702016-10-18 12:54:12.589 WARN:   SurfaceFlinger : Fail to Open /sys/devices/platform/gpusysfs/fps
61712016-10-18 12:54:12.629 INFO:   Timeline : Timeline: Activity_launch_request id:com.android.settings time:502880718
61722016-10-18 12:54:12.639 ERROR:  PersonaManagerService : inState():  stateMachine is null !!
61732016-10-18 12:54:12.639 INFO:   PersonaManagerService : PersonaId don't exist
61742016-10-18 12:54:12.639 INFO:   ActivityManager : do not start freezing screen for locked container getKeyguardshowstate = false
61752016-10-18 12:54:12.639 INFO:   ActivityManager : START u0 {act=android.intent.action.MAIN cat=[android.intent.category.LAUNCHER] flg=0x10200000 cmp=com.android.settings/.Settings} from uid 10028 on display 0
61762016-10-18 12:54:12.639 WARN:   ActivityManager : mDVFSHelper.acquire()
61772016-10-18 12:54:12.639 DEBUG:  FocusedStackFrame : Set to : 0
61782016-10-18 12:54:12.649 DEBUG:  PowerManagerService : [input device light] setInputDeviceLightOn is called : 1
61792016-10-18 12:54:12.649 DEBUG:  PowerManagerService : [input device light] handleInputDeviceLightOn
61802016-10-18 12:54:12.659 DEBUG:  Launcher.HomeView : onPause
61812016-10-18 12:54:12.659 DEBUG:  Launcher : Launcher::setSystemUiTransparency(): getSystemUiVisibility() after setting  = 40000000
61822016-10-18 12:54:12.679 ERROR:  Diag_Lib : Diag_LSM_Init: Failed to open handle to diag driver, error = 2
61832016-10-18 12:54:12.719 DEBUG:  ConnectivityService : returning getNetworkInfo(networkType - 1) :[type: WIFI[] - WIFI, state: CONNECTED/CONNECTED, reason: (unspecified), extra: "TestObject Devices", roaming: false, failover: false, isAvailable: true, isConnectedToProvisioningNetwork: false]
61842016-10-18 12:54:12.719 DEBUG:  PointerIcon : setMouseIconStyle1 pointerType: 1001iconType:101 flag:0
61852016-10-18 12:54:12.719 DEBUG:  PointerIcon : setMouseCustomIcon IconType is same.101
61862016-10-18 12:54:12.719 DEBUG:  PointerIcon : setHoveringSpenIconStyle1 pointerType: 10001iconType:1 flag:0
61872016-10-18 12:54:12.719 DEBUG:  PointerIcon : setHoveringSpenCustomIcon IconType is same.1
61882016-10-18 12:54:12.749 DEBUG:  SurfaceFlinger : FPS : 10.83
61892016-10-18 12:54:12.749 WARN:   SurfaceFlinger : Fail to Open /sys/devices/platform/gpusysfs/fps
61902016-10-18 12:54:12.769 DEBUG:  SurfaceFlinger : FPS : 10.83
61912016-10-18 12:54:12.769 WARN:   SurfaceFlinger : Fail to Open /sys/devices/platform/gpusysfs/fps
61922016-10-18 12:54:12.809 DEBUG:  StatusBarManagerService : manageDisableList userId=0 what=0x0 pkg=WindowManager.LayoutParams
61932016-10-18 12:54:12.819 DEBUG:  SurfaceFlinger : FPS : 10.83
61942016-10-18 12:54:12.819 WARN:   SurfaceFlinger : Fail to Open /sys/devices/platform/gpusysfs/fps
61952016-10-18 12:54:12.819 DEBUG:  SurfaceWidgetView : destroyHardwareResources():578072690
61962016-10-18 12:54:12.829 DEBUG:  SurfaceWidgetView : destroyHardwareResources():482517113
61972016-10-18 12:54:12.829 DEBUG:  SurfaceWidgetView : destroyHardwareResources():93157740
61982016-10-18 12:54:12.839 DEBUG:  SurfaceFlinger : FPS : 10.83
61992016-10-18 12:54:12.839 WARN:   SurfaceFlinger : Fail to Open /sys/devices/platform/gpusysfs/fps
62002016-10-18 12:54:12.849 DEBUG:  SurfaceFlinger : FPS : 19.28
62012016-10-18 12:54:12.849 WARN:   SurfaceFlinger : Fail to Open /sys/devices/platform/gpusysfs/fps
62022016-10-18 12:54:12.869 DEBUG:  SurfaceFlinger : FPS : 19.28
62032016-10-18 12:54:12.869 WARN:   SurfaceFlinger : Fail to Open /sys/devices/platform/gpusysfs/fps
62042016-10-18 12:54:12.889 DEBUG:  SurfaceFlinger : FPS : 19.28
62052016-10-18 12:54:12.889 WARN:   SurfaceFlinger : Fail to Open /sys/devices/platform/gpusysfs/fps
62062016-10-18 12:54:12.909 DEBUG:  SurfaceFlinger : FPS : 19.28
62072016-10-18 12:54:12.909 WARN:   SurfaceFlinger : Fail to Open /sys/devices/platform/gpusysfs/fps
62082016-10-18 12:54:12.919 DEBUG:  SurfaceFlinger : FPS : 19.28
62092016-10-18 12:54:12.919 WARN:   SurfaceFlinger : Fail to Open /sys/devices/platform/gpusysfs/fps
62102016-10-18 12:54:12.939 DEBUG:  SurfaceFlinger : FPS : 19.28
62112016-10-18 12:54:12.939 WARN:   SurfaceFlinger : Fail to Open /sys/devices/platform/gpusysfs/fps
62122016-10-18 12:54:12.949 DEBUG:  SurfaceFlinger : FPS : 19.28
62132016-10-18 12:54:12.949 WARN:   SurfaceFlinger : Fail to Open /sys/devices/platform/gpusysfs/fps
62142016-10-18 12:54:12.969 DEBUG:  SurfaceFlinger : FPS : 19.28
62152016-10-18 12:54:12.969 WARN:   SurfaceFlinger : Fail to Open /sys/devices/platform/gpusysfs/fps
62162016-10-18 12:54:12.989 DEBUG:  SurfaceFlinger : FPS : 19.28
62172016-10-18 12:54:12.989 WARN:   SurfaceFlinger : Fail to Open /sys/devices/platform/gpusysfs/fps
62182016-10-18 12:54:13.000 DEBUG:  SurfaceFlinger : FPS : 19.28
62192016-10-18 12:54:13.000 WARN:   SurfaceFlinger : Fail to Open /sys/devices/platform/gpusysfs/fps
62202016-10-18 12:54:13.000 INFO:   TOOLKIT SERVICE : Request body '{"id":"1476780844133","type":"GET_SCREEN_ORIENTATION"}'
62212016-10-18 12:54:13.000 INFO:   DEVICE MANAGER : {"id":"1476780844133","type":"GET_SCREEN_ORIENTATION"}
62222016-10-18 12:54:13.000 INFO:   TOOLKIT SERVICE : Responding to client with: '{"id":"1476780844133","orientation":"PORTRAIT"}'
62232016-10-18 12:54:13.020 DEBUG:  SurfaceFlinger : FPS : 19.28
62242016-10-18 12:54:13.020 WARN:   SurfaceFlinger : Fail to Open /sys/devices/platform/gpusysfs/fps
62252016-10-18 12:54:13.040 DEBUG:  SurfaceFlinger : FPS : 19.28
62262016-10-18 12:54:13.040 WARN:   SurfaceFlinger : Fail to Open /sys/devices/platform/gpusysfs/fps
62272016-10-18 12:54:13.050 DEBUG:  SurfaceFlinger : FPS : 19.28
62282016-10-18 12:54:13.050 WARN:   SurfaceFlinger : Fail to Open /sys/devices/platform/gpusysfs/fps
62292016-10-18 12:54:13.100 DEBUG:  AbsListView : Get MotionRecognitionManager
62302016-10-18 12:54:13.100 DEBUG:  MotionRecognitionService : ssp status : true
62312016-10-18 12:54:13.190 DEBUG:  [SBeam] : SBeamEnabler.isSBeamSupported : [-1]
62322016-10-18 12:54:13.190 DEBUG:  [SBeam] : SBeamEnabler.isSBeamSupported : EXIST
62332016-10-18 12:54:13.260 ERROR:  SMD : smd Interface open failed errno is 2 -1
62342016-10-18 12:54:13.290 DEBUG:  BluetoothAdapter : 454160124: getState() :  mService = null. Returning STATE_OFF
62352016-10-18 12:54:13.300 DEBUG:  ActivityManager : bindService callerProcessName:com.android.settings, calleePkgName: com.android.bluetooth, action: android.bluetooth.IBluetoothPan
62362016-10-18 12:54:13.300 DEBUG:  StatusBar.NetworkController : refreshViews connected={ wifi } level=0 combinedSignalIconId=0x7f020517/com.android.systemui:drawable/stat_sys_wifi_signal_4 mobileLabel= wifiLabel="TestObject Devices"xxxxXXXXxxxxXXXX emergencyOnly=false combinedLabel="TestObject Devices"xxxxXXXXxxxxXXXX mAirplaneMode=true mDataActivity=0 mPhoneSignalIconId=0x0/(null) mQSPhoneSignalIconId=0x0/(null) mDataDirectionIconId=0x0/(null) mDataSignalIconId=0x0/(null) mDataTypeIconId=0x0/(null) mQSDataTypeIconId=0x0/(null) mNoSimIconId=0x0/(null) mWifiIconId=0x7f020517/com.android.systemui:drawable/stat_sys_wifi_signal_4 mQSWifiIconId=0x7f020143/com.android.systemui:drawable/ic_qs_wifi_4 mWifiActivityIconId=0x7f0204e6/com.android.systemui:drawable/stat_sys_signal_in mBluetoothTetherIconId=0x10808cc/android:drawable/stat_sys_tether_bluetooth
62372016-10-18 12:54:13.300 DEBUG:  STATUSBAR-WifiQuickSettingButton : onWifiSignalChanged enabled=true enabledDesc:"TestObject Devices"
62382016-10-18 12:54:13.300 DEBUG:  LocalBluetoothProfileManager : PANU : true
62392016-10-18 12:54:13.300 DEBUG:  LocalBluetoothProfileManager : Adding local MAP profile
62402016-10-18 12:54:13.300 DEBUG:  StatusBar.NetworkController : refreshSignalCluster - setNWBoosterIndicators(false)
62412016-10-18 12:54:13.300 DEBUG:  StatusBar.NetworkController : applyOpen
62422016-10-18 12:54:13.300 DEBUG:  StatusBar.NetworkController : refreshSignalCluster - setNWBoosterIndicators(false)
62432016-10-18 12:54:13.300 DEBUG:  StatusBar.NetworkController : applyOpen
62442016-10-18 12:54:13.300 DEBUG:  StatusBar.NetworkController : refreshSignalCluster - setNWBoosterIndicators(false)
62452016-10-18 12:54:13.300 DEBUG:  StatusBar.NetworkController : applyOpen
62462016-10-18 12:54:13.300 DEBUG:  StatusBar.NetworkController : refreshSignalCluster - setNWBoosterIndicators(false)
62472016-10-18 12:54:13.300 DEBUG:  StatusBar.NetworkController : applyOpen
62482016-10-18 12:54:13.310 DEBUG:  BluetoothMap : Create BluetoothMap proxy object
62492016-10-18 12:54:13.310 DEBUG:  ActivityManager : bindService callerProcessName:com.android.settings, calleePkgName: com.android.bluetooth, action: android.bluetooth.IBluetoothMap
62502016-10-18 12:54:13.310 DEBUG:  ActivityManager : bindService callerProcessName:com.android.settings, calleePkgName: com.android.bluetooth, action: android.bluetooth.IBluetoothPbap
62512016-10-18 12:54:13.330 WARN:   ContextImpl : Calling a method in the system process without a qualified user: android.app.ContextImpl.bindService:2137 android.content.ContextWrapper.bindService:559 com.broadcom.bt.service.sap.BluetoothSap.doBind:186 com.broadcom.bt.service.sap.BluetoothSap.<init>:179 com.android.settings.bluetooth.SapProfile.<init>:129
62522016-10-18 12:54:13.330 DEBUG:  ActivityManager : bindService callerProcessName:com.android.settings, calleePkgName: com.android.bluetooth, action: com.broadcom.bt.service.sap.IBluetoothSap
62532016-10-18 12:54:13.330 DEBUG:  Bluetoothsap : bindService called to Bluetooth SAP Service
62542016-10-18 12:54:13.330 DEBUG:  LocalBluetoothProfileManager : LocalBluetoothProfileManager construction complete
62552016-10-18 12:54:13.330 DEBUG:  SurfaceFlinger : FPS : 27.02
62562016-10-18 12:54:13.330 WARN:   SurfaceFlinger : Fail to Open /sys/devices/platform/gpusysfs/fps
62572016-10-18 12:54:13.410 INFO:   ActivityManager : Killing 27044:com.samsung.groupcast/u0a6 (adj 15): emptyCount ##36
62582016-10-18 12:54:13.420 DEBUG:  [SBeam] : SBeamEnabler.isSBeamSupported : [1]
62592016-10-18 12:54:13.430 DEBUG:  [SBeam] : SBeamEnabler.initPreferenceForSbeam : 1
62602016-10-18 12:54:13.430 DEBUG:  [SBeam] : SBeamEnabler.isSBeamOn > 1
62612016-10-18 12:54:13.430 DEBUG:  [SBeam] : SBeamEnabler.initEnabler(true) Last(false)
62622016-10-18 12:54:13.440 INFO:   NearbySettings : NearbyEnabler.NearbyEnabler -
62632016-10-18 12:54:13.440 INFO:   NearbySettings : NearbyEnabler.initEnabler - create new HandlerThread!!
62642016-10-18 12:54:13.440 INFO:   NearbySettings : NearbyEnabler.initEnabler - start HandlerThread!!
62652016-10-18 12:54:13.440 INFO:   NearbySettings : NearbyEnabler.initEnabler - create new Handler!!
62662016-10-18 12:54:13.450 DEBUG:  TAG : deployGuide: nullfalse
62672016-10-18 12:54:13.480 DEBUG:  Activity : performCreate Call secproduct feature valuefalse
62682016-10-18 12:54:13.480 DEBUG:  Activity : performCreate Call debug elastic valuetrue
62692016-10-18 12:54:13.480 DEBUG:  SecContentProvider2 : uri = 20 selection = isWifiStateChangeAllowed
62702016-10-18 12:54:13.480 DEBUG:  SecContentProvider2 : mCursor = null
62712016-10-18 12:54:13.490 DEBUG:  SecContentProvider : uri = 15 selection = isAirplaneModeAllowed
62722016-10-18 12:54:13.500 DEBUG:  SecContentProvider : uri = 3 selection = isBluetoothEnabled
62732016-10-18 12:54:13.520 INFO:   TOOLKIT SERVICE : Request body '{"id":"1476780844633","type":"GET_SCREEN_ORIENTATION"}'
62742016-10-18 12:54:13.520 INFO:   DEVICE MANAGER : {"id":"1476780844633","type":"GET_SCREEN_ORIENTATION"}
62752016-10-18 12:54:13.520 INFO:   TOOLKIT SERVICE : Responding to client with: '{"id":"1476780844633","orientation":"PORTRAIT"}'
62762016-10-18 12:54:13.550 DEBUG:  BluetoothAdapter : 454160124: getState() :  mService = null. Returning STATE_OFF
62772016-10-18 12:54:13.550 DEBUG:  BluetoothAdapter : 454160124: getState() :  mService = null. Returning STATE_OFF
62782016-10-18 12:54:13.570 WARN:   Settings : Setting location_providers_allowed has moved from android.provider.Settings.System to android.provider.Settings.Secure, returning Secure URI.
62792016-10-18 12:54:13.570 DEBUG:  SecContentProvider : uri = 17 selection = isSettingsChangesAllowed
62802016-10-18 12:54:13.570 DEBUG:  SecContentProvider : uri = 12 selection = isLocationProviderBlocked
62812016-10-18 12:54:13.570 DEBUG:  SecContentProvider : uri = 12 selection = isLocationProviderBlocked
62822016-10-18 12:54:13.570 INFO:   LocationModeEnabler : isRestricted()   mdmRestricted= false UserRestricted = false
62832016-10-18 12:54:13.590 DEBUG:  NfcEnabler : resume
62842016-10-18 12:54:13.590 DEBUG:  SecContentProvider : uri = 16 selection = isNFCEnabled
62852016-10-18 12:54:13.590 DEBUG:  SecContentProvider2 : uri = 16 selection = isNFCStateChangeAllowed
62862016-10-18 12:54:13.590 DEBUG:  SecContentProvider2 : mCursor = null
62872016-10-18 12:54:13.610 DEBUG:  SecContentProvider : uri = 16 selection = isNFCEnabled
62882016-10-18 12:54:13.610 DEBUG:  SecContentProvider2 : uri = 16 selection = isNFCStateChangeAllowed
62892016-10-18 12:54:13.610 DEBUG:  SecContentProvider2 : mCursor = null
62902016-10-18 12:54:13.610 ERROR:  NFC : isAndroidBeamAllowed - Begin
62912016-10-18 12:54:13.610 INFO:   NFC : showMsg is false
62922016-10-18 12:54:13.610 DEBUG:  SecContentProvider : uri = 15 selection = isAndroidBeamAllowed
62932016-10-18 12:54:13.610 DEBUG:  SecContentProvider : uri = 15 selection = isAndroidBeamAllowed
62942016-10-18 12:54:13.610 DEBUG:  SecContentProvider : uri = 15 selection = isAndroidBeamAllowed
62952016-10-18 12:54:13.610 DEBUG:  [SBeam] : SBeamEnabler.isSBeamOn > 1
62962016-10-18 12:54:13.610 DEBUG:  SecContentProvider : uri = 17 selection = isSBeamAllowed
62972016-10-18 12:54:13.610 DEBUG:  SecContentProvider : uri = 15 selection = isAndroidBeamAllowed
62982016-10-18 12:54:13.620 DEBUG:  SecContentProvider : uri = 16 selection = isNFCEnabled
62992016-10-18 12:54:13.620 DEBUG:  SecContentProvider : uri = 18 selection = isWifiEnabled
63002016-10-18 12:54:13.620 DEBUG:  SecContentProvider : uri = 18 selection = isWifiDirectAllowed
63012016-10-18 12:54:13.620 DEBUG:  [SBeam] : SBeamEnabler.changedNfcState : REQ [false] CUR [true]
63022016-10-18 12:54:13.620 DEBUG:  [SBeam] : SBeamEnabler.changedNfcState : STATE_ON
63032016-10-18 12:54:13.620 ERROR:  NFC : isAndroidBeamAllowed - Begin
63042016-10-18 12:54:13.620 INFO:   NFC : showMsg is false
63052016-10-18 12:54:13.630 DEBUG:  SecContentProvider : uri = 15 selection = isAndroidBeamAllowed
63062016-10-18 12:54:13.630 DEBUG:  [SBeam] : SBeamEnabler.changedNfcState : Ndef push > true
63072016-10-18 12:54:13.630 ERROR:  NFC : isAndroidBeamAllowed - Begin
63082016-10-18 12:54:13.630 INFO:   NFC : showMsg is false
63092016-10-18 12:54:13.630 DEBUG:  SecContentProvider : uri = 15 selection = isAndroidBeamAllowed
63102016-10-18 12:54:13.630 DEBUG:  [SBeam] : SBeamEnabler.updateUiPref > enable(true)
63112016-10-18 12:54:13.630 DEBUG:  [SBeam] : SBeamEnabler.updateUiSwitch : on(true) enable(true)
63122016-10-18 12:54:13.630 DEBUG:  [SBeam] : SBeamEnabler.procHelpCtrl(true)
63132016-10-18 12:54:13.630 ERROR:  NFC : isAndroidBeamAllowed - Begin
63142016-10-18 12:54:13.630 INFO:   NFC : showMsg is false
63152016-10-18 12:54:13.630 DEBUG:  SecContentProvider : uri = 15 selection = isAndroidBeamAllowed
63162016-10-18 12:54:13.640 WARN:   ContextImpl : Calling a method in the system process without a qualified user: android.app.ContextImpl.startService:2064 android.content.ContextWrapper.startService:533 com.android.settings.nearby.NearbyEnabler.startDmsService:551 com.android.settings.nearby.NearbyEnabler.resume:318 com.android.settings.Settings$HeaderAdapter.resume:5063
63172016-10-18 12:54:13.640 ERROR:  ActivityManager : checkUser: useridlist=null, currentuser=0
63182016-10-18 12:54:13.640 ERROR:  ActivityManager : checkUser: useridlist=null, currentuser=0
63192016-10-18 12:54:13.640 ERROR:  ActivityManager : checkUser: useridlist=null, currentuser=0
63202016-10-18 12:54:13.640 ERROR:  ActivityManager : checkUser: useridlist=null, currentuser=0
63212016-10-18 12:54:13.660 ERROR:  Zygote : MountEmulatedStorage()
63222016-10-18 12:54:13.660 ERROR:  Zygote : v2
63232016-10-18 12:54:13.660 INFO:   libpersona : KNOX_SDCARD checking this for 10148
63242016-10-18 12:54:13.660 INFO:   libpersona : KNOX_SDCARD not a persona
63252016-10-18 12:54:13.660 INFO:   SELinux : Function: selinux_compare_spd_ram, SPD-policy is existed. and_ver=SEPF_GT-I9505_5.0.1-1 ver=51
63262016-10-18 12:54:13.660 INFO:   ActivityManager : Start proc com.samsung.android.nearby.mediaserver:server for service com.samsung.android.nearby.mediaserver/.MediaServerService: pid=27815 uid=10148 gids={50148, 9997, 3003, 1023, 1028, 1015} abi=armeabi-v7a
63272016-10-18 12:54:13.670 INFO:   SELinux : Function: selinux_compare_spd_ram , priority [1] , priority version is VE=SEPF_GT-I9505_5.0.1-1_0051
63282016-10-18 12:54:13.670 WARN:   ContextImpl : Calling a method in the system process without a qualified user: android.app.ContextImpl.bindService:2137 android.content.ContextWrapper.bindService:559 com.android.settings.nearby.NearbyEnabler.startDmsService:553 com.android.settings.nearby.NearbyEnabler.resume:318 com.android.settings.Settings$HeaderAdapter.resume:5063
63292016-10-18 12:54:13.670 ERROR:  SELinux : [DEBUG] get_category: variable seinfo: platform sensitivity: NULL, cateogry: NULL
63302016-10-18 12:54:13.680 WARN:   Settings : Setting mobile_data has moved from android.provider.Settings.Secure to android.provider.Settings.Global, returning global URI.
63312016-10-18 12:54:13.710 DEBUG:  OpenGLRenderer : Render dirty regions requested: true
63322016-10-18 12:54:13.720 DEBUG:  ActivityManager : post active user change for 0
63332016-10-18 12:54:13.720 DEBUG:  KnoxTimeoutHandler : postActiveUserChange for user 0
63342016-10-18 12:54:13.720 DEBUG:  KnoxTimeoutHandler : handleActiveUserChange for user 0
63352016-10-18 12:54:13.740 DEBUG:  [SBeam] : SBeamEnabler.isSBeamSupported : [1]
63362016-10-18 12:54:13.760 DEBUG:  ResourcesManager : creating new AssetManager and set to /system/app/AllshareMediaServer/AllshareMediaServer.apk
63372016-10-18 12:54:13.770 WARN:   Settings : Setting airplane_mode_on has moved from android.provider.Settings.System to android.provider.Settings.Global, returning read-only value.
63382016-10-18 12:54:13.820 INFO:   IndexDatabaseHelper : Using schema version: 115
63392016-10-18 12:54:13.830 INFO:   IndexDatabaseHelper : Index is fine
63402016-10-18 12:54:13.850 DEBUG:  Index : Deleting data for locale 'en_GB' took 19 millis
63412016-10-18 12:54:13.870 DEBUG:  BluetoothAdapter : 454160124: getState() :  mService = null. Returning STATE_OFF
63422016-10-18 12:54:13.880 ERROR:  Vold : Failed to find mounted volume for /storage/extSdCard/Android/data/com.samsung.android.nearby.mediaserver/files/
63432016-10-18 12:54:13.880 WARN:   Vold : Returning OperationFailed - no handler for errno 0
63442016-10-18 12:54:13.880 WARN:   ContextImpl : Failed to ensure directory: /storage/extSdCard/Android/data/com.samsung.android.nearby.mediaserver/files
63452016-10-18 12:54:13.890 DEBUG:  SettingsProvider : name = com.samsung.android.nearby.mediaserver.NEARBY_SERVER_STARTED
63462016-10-18 12:54:13.890 DEBUG:  SettingsProvider : edmUri: content://com.sec.knox.provider/RestrictionPolicy3
63472016-10-18 12:54:13.890 DEBUG:  SettingsProvider : projectionArgs: isSettingsChangesAllowed
63482016-10-18 12:54:13.890 DEBUG:  SettingsProvider : selectionArgs: false
63492016-10-18 12:54:13.890 DEBUG:  SettingsProvider : selectionArgs: 10148
63502016-10-18 12:54:13.890 DEBUG:  SecContentProvider : uri = 17 selection = isSettingsChangesAllowed
63512016-10-18 12:54:13.890 DEBUG:  SettingsProvider : ret = -1
63522016-10-18 12:54:13.890 DEBUG:  Index : Indexing locale 'en_GB' took 47 millis
63532016-10-18 12:54:13.900 DEBUG:  SurfaceFlinger : FPS : 1.76
63542016-10-18 12:54:13.900 WARN:   SurfaceFlinger : Fail to Open /sys/devices/platform/gpusysfs/fps
63552016-10-18 12:54:13.910 DEBUG:  PointerIcon : setMouseIconStyle1 pointerType: 1001iconType:101 flag:0
63562016-10-18 12:54:13.910 DEBUG:  PointerIcon : setMouseCustomIcon IconType is same.101
63572016-10-18 12:54:13.910 DEBUG:  PointerIcon : setHoveringSpenIconStyle1 pointerType: 10001iconType:1 flag:0
63582016-10-18 12:54:13.910 DEBUG:  PointerIcon : setHoveringSpenCustomIcon IconType is same.1
63592016-10-18 12:54:13.910 INFO:   Adreno-EGL : <qeglDrvAPI_eglInitialize:410>: EGL 1.4 QUALCOMM build:  ()
63602016-10-18 12:54:13.910 INFO:   Adreno-EGL : OpenGL ES Shader Compiler Version: E031.25.03.06
63612016-10-18 12:54:13.910 INFO:   Adreno-EGL : Build Date: 01/24/15 Sat
63622016-10-18 12:54:13.910 INFO:   Adreno-EGL : Local Branch: AF11_RB1_AU15
63632016-10-18 12:54:13.910 INFO:   Adreno-EGL : Remote Branch:
63642016-10-18 12:54:13.910 INFO:   Adreno-EGL : Local Patches:
63652016-10-18 12:54:13.910 INFO:   Adreno-EGL : Reconstruct Branch:
63662016-10-18 12:54:13.910 INFO:   OpenGLRenderer : Initialized EGL, version 1.4
63672016-10-18 12:54:13.930 DEBUG:  ActivityManager : getContentProviderImpl callerProcessName:com.samsung.android.nearby.mediaserver, calleePkgName: com.samsung.android.nearby.mediaserver
63682016-10-18 12:54:13.930 DEBUG:  SurfaceFlinger : FPS : 1.76
63692016-10-18 12:54:13.930 WARN:   SurfaceFlinger : Fail to Open /sys/devices/platform/gpusysfs/fps
63702016-10-18 12:54:13.940 ERROR:  ActivityManager : checkUser: useridlist=null, currentuser=0
63712016-10-18 12:54:13.940 ERROR:  ActivityManager : checkUser: useridlist=null, currentuser=0
63722016-10-18 12:54:13.940 ERROR:  ActivityManager : checkUser: useridlist=null, currentuser=0
63732016-10-18 12:54:13.940 ERROR:  ActivityManager : checkUser: useridlist=null, currentuser=0
63742016-10-18 12:54:13.950 ERROR:  Zygote : MountEmulatedStorage()
63752016-10-18 12:54:13.950 ERROR:  Zygote : v2
63762016-10-18 12:54:13.950 INFO:   libpersona : KNOX_SDCARD checking this for 10148
63772016-10-18 12:54:13.950 INFO:   libpersona : KNOX_SDCARD not a persona
63782016-10-18 12:54:13.950 INFO:   SELinux : Function: selinux_compare_spd_ram, SPD-policy is existed. and_ver=SEPF_GT-I9505_5.0.1-1 ver=51
63792016-10-18 12:54:13.960 INFO:   ActivityManager : Start proc com.samsung.android.nearby.mediaserver for content provider com.samsung.android.nearby.mediaserver/.config.ConfigProvider: pid=27837 uid=10148 gids={50148, 9997, 3003, 1023, 1028, 1015} abi=armeabi-v7a
63802016-10-18 12:54:13.960 DEBUG:  OpenGLRenderer : Enabling debug mode 0
63812016-10-18 12:54:13.960 INFO:   SELinux : Function: selinux_compare_spd_ram , priority [1] , priority version is VE=SEPF_GT-I9505_5.0.1-1_0051
63822016-10-18 12:54:13.960 ERROR:  SELinux : [DEBUG] get_category: variable seinfo: platform sensitivity: NULL, cateogry: NULL
63832016-10-18 12:54:14.000 DEBUG:  ResourcesManager : creating new AssetManager and set to /system/app/AllshareMediaServer/AllshareMediaServer.apk
63842016-10-18 12:54:14.000 INFO:   TOOLKIT SERVICE : Request body '{"id":"1476780845133","type":"GET_SCREEN_ORIENTATION"}'
63852016-10-18 12:54:14.000 INFO:   DEVICE MANAGER : {"id":"1476780845133","type":"GET_SCREEN_ORIENTATION"}
63862016-10-18 12:54:14.010 INFO:   TOOLKIT SERVICE : Responding to client with: '{"id":"1476780845133","orientation":"PORTRAIT"}'
63872016-10-18 12:54:14.051 DEBUG:  SecContentProvider : uri = 18 selection = isWifiEnabled
63882016-10-18 12:54:14.051 DEBUG:  SecContentProvider2 : uri = 20 selection = isWifiStateChangeAllowed
63892016-10-18 12:54:14.051 DEBUG:  SecContentProvider2 : mCursor = null
63902016-10-18 12:54:14.081 DEBUG:  SecContentProvider : uri = 3 selection = isBluetoothEnabled
63912016-10-18 12:54:14.081 DEBUG:  BluetoothAdapter : 454160124: getState() :  mService = null. Returning STATE_OFF
63922016-10-18 12:54:14.101 DEBUG:  EnterpriseController : mIsMarkChainAdded is 0 mIsBlockChainAdded is 0 netId is 0
63932016-10-18 12:54:14.101 DEBUG:  Netd : getNetworkForDns: using netid 505 for uid 10148
63942016-10-18 12:54:14.111 INFO:   AllShare(ASF-DMSLIB) : (Service)MediaServerService: .onCreate - Default Device - Mobile
63952016-10-18 12:54:14.131 DEBUG:  SecContentProvider : uri = 16 selection = isNFCEnabled
63962016-10-18 12:54:14.131 DEBUG:  SecContentProvider2 : uri = 16 selection = isNFCStateChangeAllowed
63972016-10-18 12:54:14.131 DEBUG:  SecContentProvider2 : mCursor = null
63982016-10-18 12:54:14.131 ERROR:  NFC : isAndroidBeamAllowed - Begin
63992016-10-18 12:54:14.131 INFO:   NFC : showMsg is false
64002016-10-18 12:54:14.131 DEBUG:  SecContentProvider : uri = 15 selection = isAndroidBeamAllowed
64012016-10-18 12:54:14.131 DEBUG:  SecContentProvider : uri = 15 selection = isAndroidBeamAllowed
64022016-10-18 12:54:14.141 DEBUG:  [SBeam] : setSwitch !
64032016-10-18 12:54:14.141 DEBUG:  [SBeam] : SBeamEnabler.changedNfcState : REQ [false] CUR [true]
64042016-10-18 12:54:14.141 DEBUG:  [SBeam] : SBeamEnabler.changedNfcState : STATE_ON
64052016-10-18 12:54:14.141 ERROR:  NFC : isAndroidBeamAllowed - Begin
64062016-10-18 12:54:14.141 INFO:   NFC : showMsg is false
64072016-10-18 12:54:14.141 DEBUG:  SecContentProvider : uri = 15 selection = isAndroidBeamAllowed
64082016-10-18 12:54:14.151 DEBUG:  [SBeam] : SBeamEnabler.changedNfcState : Ndef push > true
64092016-10-18 12:54:14.151 ERROR:  NFC : isAndroidBeamAllowed - Begin
64102016-10-18 12:54:14.151 INFO:   NFC : showMsg is false
64112016-10-18 12:54:14.151 DEBUG:  SecContentProvider : uri = 15 selection = isAndroidBeamAllowed
64122016-10-18 12:54:14.151 DEBUG:  [SBeam] : SBeamEnabler.updateUiPref > enable(true)
64132016-10-18 12:54:14.151 DEBUG:  [SBeam] : SBeamEnabler.updateUiSwitch : on(true) enable(true)
64142016-10-18 12:54:14.151 DEBUG:  [SBeam] : SBeamEnabler.procHelpCtrl(true)
64152016-10-18 12:54:14.151 DEBUG:  SettingsProvider : name = com.samsung.android.nearby.mediaserver.NEARBY_SERVER_STARTED
64162016-10-18 12:54:14.151 DEBUG:  SettingsProvider : edmUri: content://com.sec.knox.provider/RestrictionPolicy3
64172016-10-18 12:54:14.151 DEBUG:  SettingsProvider : projectionArgs: isSettingsChangesAllowed
64182016-10-18 12:54:14.151 DEBUG:  SettingsProvider : selectionArgs: false
64192016-10-18 12:54:14.151 DEBUG:  SettingsProvider : selectionArgs: 10148
64202016-10-18 12:54:14.151 DEBUG:  SecContentProvider : uri = 17 selection = isSettingsChangesAllowed
64212016-10-18 12:54:14.151 DEBUG:  SettingsProvider : ret = -1
64222016-10-18 12:54:14.161 DEBUG:  AllShare(ASF-DMSLIB) : (Service)MediaServerService: .mBroadcastReceiver - action: android.net.wifi.STATE_CHANGE
64232016-10-18 12:54:14.161 DEBUG:  SecContentProvider : uri = 15 selection = isAirplaneModeAllowed
64242016-10-18 12:54:14.161 WARN:   AllShare(ASF-DMSLIB) : (Service)MediaServerService: .mBroadcastReceiver - isInitialStickyBroadcast: android.net.wifi.STATE_CHANGE
64252016-10-18 12:54:14.161 DEBUG:  AllShare(ASF-DMSLIB) : (Service)MediaServerService: .mBroadcastReceiver - action: android.net.wifi.p2p.CONNECTION_STATE_CHANGE
64262016-10-18 12:54:14.161 DEBUG:  ConnectivityService : returning getNetworkInfo(networkType - 13) :[type: WIFI_P2P[] - WIFI_P2P, state: DISCONNECTED/DISCONNECTED, reason: (unspecified), extra: (none), roaming: false, failover: false, isAvailable: true, isConnectedToProvisioningNetwork: false]
64272016-10-18 12:54:14.161 WARN:   AllShare(ASF-DMSLIB) : (Service)MediaServerService: .getP2pSubnet - P2P NOT CONNECTED
64282016-10-18 12:54:14.161 INFO:   AllShare(ASF-DMSLIB) : (Service)MediaServerService: